<?xml version="1.0" encoding="UTF-8" standalone="no" ?>
<gpx xmlns="http://www.topografix.com/GPX/1/1" xmlns:xsi="http://www.w3.org/2001/XMLSchema-instance" xsi:schemaLocation="http://www.topografix.com/GPX/1/1 http://www.topografix.com/GPX/1/1/gpx.xsd" version="1.1" creator="VisuGPX - https://www.visugpx.com">
  <metadata>
    <name>La Batie - Grenoble</name>
    <desc><![CDATA[Lus la croix haute -> Grenoble: jour 2.]]></desc>
  </metadata>
  <trk>
    <name><![CDATA[La Batie - Grenoble]]></name>
    <desc><![CDATA[]]></desc>
    <trkseg>
      <trkpt lat="44.87306" lon="5.56455">
        <ele>1239</ele>
        <time>2013-09-15T08:09:03.980Z</time>
      </trkpt>
      <trkpt lat="44.87306" lon="5.56455">
        <ele>1239</ele>
        <time>2013-09-15T08:09:03.980Z</time>
      </trkpt>
      <trkpt lat="44.87306" lon="5.56455">
        <ele>1239</ele>
        <time>2013-09-15T08:09:33.000Z</time>
      </trkpt>
      <trkpt lat="44.87306" lon="5.56466">
        <ele>1230</ele>
        <time>2013-09-15T08:09:34.000Z</time>
      </trkpt>
      <trkpt lat="44.87306" lon="5.56466">
        <ele>1230</ele>
        <time>2013-09-15T08:09:34.000Z</time>
      </trkpt>
      <trkpt lat="44.87306" lon="5.56466">
        <ele>1231</ele>
        <time>2013-09-15T08:09:52.000Z</time>
      </trkpt>
      <trkpt lat="44.87301" lon="5.56475">
        <ele>1232</ele>
        <time>2013-09-15T08:09:58.000Z</time>
      </trkpt>
      <trkpt lat="44.87299" lon="5.56481">
        <ele>1233</ele>
        <time>2013-09-15T08:10:00.000Z</time>
      </trkpt>
      <trkpt lat="44.87294" lon="5.5649">
        <ele>1234</ele>
        <time>2013-09-15T08:10:03.000Z</time>
      </trkpt>
      <trkpt lat="44.87292" lon="5.56496">
        <ele>1235</ele>
        <time>2013-09-15T08:10:05.000Z</time>
      </trkpt>
      <trkpt lat="44.8729" lon="5.56502">
        <ele>1235</ele>
        <time>2013-09-15T08:10:07.000Z</time>
      </trkpt>
      <trkpt lat="44.87284" lon="5.56509">
        <ele>1236</ele>
        <time>2013-09-15T08:10:10.000Z</time>
      </trkpt>
      <trkpt lat="44.87282" lon="5.56515">
        <ele>1237</ele>
        <time>2013-09-15T08:10:12.000Z</time>
      </trkpt>
      <trkpt lat="44.87279" lon="5.56522">
        <ele>1237</ele>
        <time>2013-09-15T08:10:15.000Z</time>
      </trkpt>
      <trkpt lat="44.87276" lon="5.56528">
        <ele>1238</ele>
        <time>2013-09-15T08:10:18.000Z</time>
      </trkpt>
      <trkpt lat="44.87274" lon="5.56535">
        <ele>1238</ele>
        <time>2013-09-15T08:10:20.000Z</time>
      </trkpt>
      <trkpt lat="44.87274" lon="5.56541">
        <ele>1239</ele>
        <time>2013-09-15T08:10:22.000Z</time>
      </trkpt>
      <trkpt lat="44.87272" lon="5.5655">
        <ele>1240</ele>
        <time>2013-09-15T08:10:25.000Z</time>
      </trkpt>
      <trkpt lat="44.87271" lon="5.56556">
        <ele>1238</ele>
        <time>2013-09-15T08:10:26.000Z</time>
      </trkpt>
      <trkpt lat="44.87272" lon="5.56565">
        <ele>1236</ele>
        <time>2013-09-15T08:10:27.000Z</time>
      </trkpt>
      <trkpt lat="44.87273" lon="5.56573">
        <ele>1233</ele>
        <time>2013-09-15T08:10:28.000Z</time>
      </trkpt>
      <trkpt lat="44.87277" lon="5.56584">
        <ele>1226</ele>
        <time>2013-09-15T08:10:29.000Z</time>
      </trkpt>
      <trkpt lat="44.87282" lon="5.56595">
        <ele>1218</ele>
        <time>2013-09-15T08:10:30.000Z</time>
      </trkpt>
      <trkpt lat="44.87288" lon="5.56601">
        <ele>1210</ele>
        <time>2013-09-15T08:10:31.000Z</time>
      </trkpt>
      <trkpt lat="44.87295" lon="5.5661">
        <ele>1205</ele>
        <time>2013-09-15T08:10:32.000Z</time>
      </trkpt>
      <trkpt lat="44.873" lon="5.56618">
        <ele>1201</ele>
        <time>2013-09-15T08:10:33.000Z</time>
      </trkpt>
      <trkpt lat="44.87303" lon="5.56625">
        <ele>1200</ele>
        <time>2013-09-15T08:10:34.000Z</time>
      </trkpt>
      <trkpt lat="44.87308" lon="5.56636">
        <ele>1200</ele>
        <time>2013-09-15T08:10:36.000Z</time>
      </trkpt>
      <trkpt lat="44.87309" lon="5.56642">
        <ele>1199</ele>
        <time>2013-09-15T08:10:37.000Z</time>
      </trkpt>
      <trkpt lat="44.87312" lon="5.56651">
        <ele>1199</ele>
        <time>2013-09-15T08:10:39.000Z</time>
      </trkpt>
      <trkpt lat="44.87314" lon="5.56661">
        <ele>1198</ele>
        <time>2013-09-15T08:10:41.000Z</time>
      </trkpt>
      <trkpt lat="44.87317" lon="5.56672">
        <ele>1199</ele>
        <time>2013-09-15T08:10:43.000Z</time>
      </trkpt>
      <trkpt lat="44.87327" lon="5.56685">
        <ele>1200</ele>
        <time>2013-09-15T08:10:48.000Z</time>
      </trkpt>
      <trkpt lat="44.87327" lon="5.56685">
        <ele>1200</ele>
        <time>2013-09-15T08:10:48.000Z</time>
      </trkpt>
      <trkpt lat="44.87327" lon="5.56685">
        <ele>1200</ele>
        <time>2013-09-15T08:10:53.000Z</time>
      </trkpt>
      <trkpt lat="44.87336" lon="5.56689">
        <ele>1202</ele>
        <time>2013-09-15T08:10:54.000Z</time>
      </trkpt>
      <trkpt lat="44.87336" lon="5.56689">
        <ele>1202</ele>
        <time>2013-09-15T08:10:54.000Z</time>
      </trkpt>
      <trkpt lat="44.87336" lon="5.56689">
        <ele>1202</ele>
        <time>2013-09-15T08:11:19.000Z</time>
      </trkpt>
      <trkpt lat="44.87345" lon="5.56689">
        <ele>1205</ele>
        <time>2013-09-15T08:11:20.000Z</time>
      </trkpt>
      <trkpt lat="44.87345" lon="5.56689">
        <ele>1205</ele>
        <time>2013-09-15T08:11:20.000Z</time>
      </trkpt>
      <trkpt lat="44.87345" lon="5.56689">
        <ele>1205</ele>
        <time>2013-09-15T08:11:23.000Z</time>
      </trkpt>
      <trkpt lat="44.87355" lon="5.56691">
        <ele>1207</ele>
        <time>2013-09-15T08:11:24.000Z</time>
      </trkpt>
      <trkpt lat="44.87355" lon="5.56691">
        <ele>1207</ele>
        <time>2013-09-15T08:11:24.000Z</time>
      </trkpt>
      <trkpt lat="44.87355" lon="5.56691">
        <ele>1207</ele>
        <time>2013-09-15T08:11:26.000Z</time>
      </trkpt>
      <trkpt lat="44.87365" lon="5.56694">
        <ele>1207</ele>
        <time>2013-09-15T08:11:27.000Z</time>
      </trkpt>
      <trkpt lat="44.87365" lon="5.56694">
        <ele>1207</ele>
        <time>2013-09-15T08:11:27.000Z</time>
      </trkpt>
      <trkpt lat="44.87365" lon="5.56694">
        <ele>1207</ele>
        <time>2013-09-15T08:11:30.000Z</time>
      </trkpt>
      <trkpt lat="44.87375" lon="5.567">
        <ele>1209</ele>
        <time>2013-09-15T08:11:31.000Z</time>
      </trkpt>
      <trkpt lat="44.87375" lon="5.567">
        <ele>1209</ele>
        <time>2013-09-15T08:11:31.000Z</time>
      </trkpt>
      <trkpt lat="44.87375" lon="5.567">
        <ele>1209</ele>
        <time>2013-09-15T08:11:34.000Z</time>
      </trkpt>
      <trkpt lat="44.87384" lon="5.56706">
        <ele>1210</ele>
        <time>2013-09-15T08:11:35.000Z</time>
      </trkpt>
      <trkpt lat="44.87384" lon="5.56706">
        <ele>1210</ele>
        <time>2013-09-15T08:11:35.000Z</time>
      </trkpt>
      <trkpt lat="44.87384" lon="5.56706">
        <ele>1210</ele>
        <time>2013-09-15T08:11:41.000Z</time>
      </trkpt>
      <trkpt lat="44.8739" lon="5.56717">
        <ele>1212</ele>
        <time>2013-09-15T08:11:42.000Z</time>
      </trkpt>
      <trkpt lat="44.8739" lon="5.56717">
        <ele>1212</ele>
        <time>2013-09-15T08:11:42.000Z</time>
      </trkpt>
      <trkpt lat="44.8739" lon="5.56717">
        <ele>1212</ele>
        <time>2013-09-15T08:11:48.000Z</time>
      </trkpt>
      <trkpt lat="44.87397" lon="5.56728">
        <ele>1214</ele>
        <time>2013-09-15T08:11:49.000Z</time>
      </trkpt>
      <trkpt lat="44.87397" lon="5.56728">
        <ele>1214</ele>
        <time>2013-09-15T08:11:49.000Z</time>
      </trkpt>
      <trkpt lat="44.87397" lon="5.56728">
        <ele>1214</ele>
        <time>2013-09-15T08:11:55.000Z</time>
      </trkpt>
      <trkpt lat="44.87404" lon="5.56739">
        <ele>1217</ele>
        <time>2013-09-15T08:11:56.000Z</time>
      </trkpt>
      <trkpt lat="44.87404" lon="5.56739">
        <ele>1217</ele>
        <time>2013-09-15T08:11:56.000Z</time>
      </trkpt>
      <trkpt lat="44.87404" lon="5.56739">
        <ele>1217</ele>
        <time>2013-09-15T08:12:03.000Z</time>
      </trkpt>
      <trkpt lat="44.87413" lon="5.56743">
        <ele>1220</ele>
        <time>2013-09-15T08:12:04.000Z</time>
      </trkpt>
      <trkpt lat="44.87413" lon="5.56743">
        <ele>1220</ele>
        <time>2013-09-15T08:12:04.000Z</time>
      </trkpt>
      <trkpt lat="44.87413" lon="5.56743">
        <ele>1220</ele>
        <time>2013-09-15T08:12:12.000Z</time>
      </trkpt>
      <trkpt lat="44.87422" lon="5.56749">
        <ele>1223</ele>
        <time>2013-09-15T08:12:13.000Z</time>
      </trkpt>
      <trkpt lat="44.87422" lon="5.56749">
        <ele>1223</ele>
        <time>2013-09-15T08:12:13.000Z</time>
      </trkpt>
      <trkpt lat="44.87422" lon="5.56749">
        <ele>1223</ele>
        <time>2013-09-15T08:12:20.000Z</time>
      </trkpt>
      <trkpt lat="44.8743" lon="5.56754">
        <ele>1227</ele>
        <time>2013-09-15T08:12:21.000Z</time>
      </trkpt>
      <trkpt lat="44.8743" lon="5.56754">
        <ele>1227</ele>
        <time>2013-09-15T08:12:21.000Z</time>
      </trkpt>
      <trkpt lat="44.8743" lon="5.56754">
        <ele>1227</ele>
        <time>2013-09-15T08:12:27.000Z</time>
      </trkpt>
      <trkpt lat="44.87439" lon="5.5676">
        <ele>1231</ele>
        <time>2013-09-15T08:12:28.000Z</time>
      </trkpt>
      <trkpt lat="44.87439" lon="5.5676">
        <ele>1231</ele>
        <time>2013-09-15T08:12:28.000Z</time>
      </trkpt>
      <trkpt lat="44.87439" lon="5.5676">
        <ele>1231</ele>
        <time>2013-09-15T08:12:36.000Z</time>
      </trkpt>
      <trkpt lat="44.87446" lon="5.56769">
        <ele>1236</ele>
        <time>2013-09-15T08:12:37.000Z</time>
      </trkpt>
      <trkpt lat="44.87446" lon="5.56769">
        <ele>1236</ele>
        <time>2013-09-15T08:12:37.000Z</time>
      </trkpt>
      <trkpt lat="44.87446" lon="5.56769">
        <ele>1236</ele>
        <time>2013-09-15T08:12:45.000Z</time>
      </trkpt>
      <trkpt lat="44.87453" lon="5.56779">
        <ele>1240</ele>
        <time>2013-09-15T08:12:46.000Z</time>
      </trkpt>
      <trkpt lat="44.87453" lon="5.56779">
        <ele>1240</ele>
        <time>2013-09-15T08:12:46.000Z</time>
      </trkpt>
      <trkpt lat="44.87453" lon="5.56779">
        <ele>1240</ele>
        <time>2013-09-15T08:12:52.000Z</time>
      </trkpt>
      <trkpt lat="44.8746" lon="5.56788">
        <ele>1244</ele>
        <time>2013-09-15T08:12:53.000Z</time>
      </trkpt>
      <trkpt lat="44.8746" lon="5.56788">
        <ele>1244</ele>
        <time>2013-09-15T08:12:53.000Z</time>
      </trkpt>
      <trkpt lat="44.8746" lon="5.56788">
        <ele>1244</ele>
        <time>2013-09-15T08:13:33.000Z</time>
      </trkpt>
      <trkpt lat="44.87461" lon="5.56794">
        <ele>1248</ele>
        <time>2013-09-15T08:13:35.000Z</time>
      </trkpt>
      <trkpt lat="44.87461" lon="5.56794">
        <ele>1248</ele>
        <time>2013-09-15T08:13:35.000Z</time>
      </trkpt>
      <trkpt lat="44.87461" lon="5.56794">
        <ele>1248</ele>
        <time>2013-09-15T08:13:36.000Z</time>
      </trkpt>
      <trkpt lat="44.87461" lon="5.56801">
        <ele>1250</ele>
        <time>2013-09-15T08:13:39.000Z</time>
      </trkpt>
      <trkpt lat="44.87462" lon="5.56807">
        <ele>1252</ele>
        <time>2013-09-15T08:13:42.000Z</time>
      </trkpt>
      <trkpt lat="44.87462" lon="5.56807">
        <ele>1252</ele>
        <time>2013-09-15T08:13:42.000Z</time>
      </trkpt>
      <trkpt lat="44.87462" lon="5.56807">
        <ele>1252</ele>
        <time>2013-09-15T08:13:43.000Z</time>
      </trkpt>
      <trkpt lat="44.87466" lon="5.56812">
        <ele>1252</ele>
        <time>2013-09-15T08:13:46.000Z</time>
      </trkpt>
      <trkpt lat="44.8747" lon="5.56818">
        <ele>1252</ele>
        <time>2013-09-15T08:13:52.000Z</time>
      </trkpt>
      <trkpt lat="44.8747" lon="5.56818">
        <ele>1252</ele>
        <time>2013-09-15T08:13:52.000Z</time>
      </trkpt>
      <trkpt lat="44.8747" lon="5.56818">
        <ele>1252</ele>
        <time>2013-09-15T08:13:53.000Z</time>
      </trkpt>
      <trkpt lat="44.87473" lon="5.56822">
        <ele>1252</ele>
        <time>2013-09-15T08:13:59.000Z</time>
      </trkpt>
      <trkpt lat="44.87473" lon="5.56822">
        <ele>1252</ele>
        <time>2013-09-15T08:13:59.000Z</time>
      </trkpt>
      <trkpt lat="44.87473" lon="5.56822">
        <ele>1252</ele>
        <time>2013-09-15T08:14:01.000Z</time>
      </trkpt>
      <trkpt lat="44.87477" lon="5.56826">
        <ele>1253</ele>
        <time>2013-09-15T08:14:11.000Z</time>
      </trkpt>
      <trkpt lat="44.87477" lon="5.56826">
        <ele>1253</ele>
        <time>2013-09-15T08:14:11.000Z</time>
      </trkpt>
      <trkpt lat="44.87477" lon="5.56826">
        <ele>1253</ele>
        <time>2013-09-15T08:14:13.000Z</time>
      </trkpt>
      <trkpt lat="44.87477" lon="5.56833">
        <ele>1254</ele>
        <time>2013-09-15T08:14:30.000Z</time>
      </trkpt>
      <trkpt lat="44.87477" lon="5.56833">
        <ele>1254</ele>
        <time>2013-09-15T08:14:30.000Z</time>
      </trkpt>
      <trkpt lat="44.87477" lon="5.56833">
        <ele>1254</ele>
        <time>2013-09-15T08:14:31.000Z</time>
      </trkpt>
      <trkpt lat="44.87476" lon="5.56839">
        <ele>1255</ele>
        <time>2013-09-15T08:14:34.000Z</time>
      </trkpt>
      <trkpt lat="44.87475" lon="5.56846">
        <ele>1255</ele>
        <time>2013-09-15T08:14:37.000Z</time>
      </trkpt>
      <trkpt lat="44.87474" lon="5.56852">
        <ele>1256</ele>
        <time>2013-09-15T08:14:41.000Z</time>
      </trkpt>
      <trkpt lat="44.87473" lon="5.56859">
        <ele>1257</ele>
        <time>2013-09-15T08:14:45.000Z</time>
      </trkpt>
      <trkpt lat="44.87473" lon="5.56859">
        <ele>1257</ele>
        <time>2013-09-15T08:14:45.000Z</time>
      </trkpt>
      <trkpt lat="44.87473" lon="5.56859">
        <ele>1257</ele>
        <time>2013-09-15T08:14:46.000Z</time>
      </trkpt>
      <trkpt lat="44.87473" lon="5.56865">
        <ele>1258</ele>
        <time>2013-09-15T08:14:50.000Z</time>
      </trkpt>
      <trkpt lat="44.87473" lon="5.56865">
        <ele>1258</ele>
        <time>2013-09-15T08:14:50.000Z</time>
      </trkpt>
      <trkpt lat="44.87473" lon="5.56865">
        <ele>1258</ele>
        <time>2013-09-15T08:14:55.000Z</time>
      </trkpt>
      <trkpt lat="44.87473" lon="5.56872">
        <ele>1259</ele>
        <time>2013-09-15T08:15:00.000Z</time>
      </trkpt>
      <trkpt lat="44.87473" lon="5.56872">
        <ele>1259</ele>
        <time>2013-09-15T08:15:00.000Z</time>
      </trkpt>
      <trkpt lat="44.87473" lon="5.56872">
        <ele>1259</ele>
        <time>2013-09-15T08:15:01.000Z</time>
      </trkpt>
      <trkpt lat="44.87473" lon="5.56878">
        <ele>1260</ele>
        <time>2013-09-15T08:15:05.000Z</time>
      </trkpt>
      <trkpt lat="44.87472" lon="5.56884">
        <ele>1261</ele>
        <time>2013-09-15T08:15:09.000Z</time>
      </trkpt>
      <trkpt lat="44.8747" lon="5.56891">
        <ele>1262</ele>
        <time>2013-09-15T08:15:14.000Z</time>
      </trkpt>
      <trkpt lat="44.8747" lon="5.56891">
        <ele>1262</ele>
        <time>2013-09-15T08:15:14.000Z</time>
      </trkpt>
      <trkpt lat="44.8747" lon="5.56891">
        <ele>1262</ele>
        <time>2013-09-15T08:15:15.000Z</time>
      </trkpt>
      <trkpt lat="44.87469" lon="5.56897">
        <ele>1263</ele>
        <time>2013-09-15T08:15:18.000Z</time>
      </trkpt>
      <trkpt lat="44.87466" lon="5.56904">
        <ele>1265</ele>
        <time>2013-09-15T08:15:22.000Z</time>
      </trkpt>
      <trkpt lat="44.87463" lon="5.5691">
        <ele>1266</ele>
        <time>2013-09-15T08:15:25.000Z</time>
      </trkpt>
      <trkpt lat="44.87461" lon="5.56917">
        <ele>1267</ele>
        <time>2013-09-15T08:15:28.000Z</time>
      </trkpt>
      <trkpt lat="44.87459" lon="5.56923">
        <ele>1267</ele>
        <time>2013-09-15T08:15:31.000Z</time>
      </trkpt>
      <trkpt lat="44.87456" lon="5.5693">
        <ele>1268</ele>
        <time>2013-09-15T08:15:35.000Z</time>
      </trkpt>
      <trkpt lat="44.87453" lon="5.56936">
        <ele>1269</ele>
        <time>2013-09-15T08:15:39.000Z</time>
      </trkpt>
      <trkpt lat="44.8745" lon="5.56942">
        <ele>1270</ele>
        <time>2013-09-15T08:15:43.000Z</time>
      </trkpt>
      <trkpt lat="44.87449" lon="5.56949">
        <ele>1271</ele>
        <time>2013-09-15T08:15:46.000Z</time>
      </trkpt>
      <trkpt lat="44.8745" lon="5.56955">
        <ele>1272</ele>
        <time>2013-09-15T08:15:48.000Z</time>
      </trkpt>
      <trkpt lat="44.8745" lon="5.56962">
        <ele>1273</ele>
        <time>2013-09-15T08:15:51.000Z</time>
      </trkpt>
      <trkpt lat="44.8745" lon="5.56968">
        <ele>1273</ele>
        <time>2013-09-15T08:15:55.000Z</time>
      </trkpt>
      <trkpt lat="44.8745" lon="5.56968">
        <ele>1273</ele>
        <time>2013-09-15T08:15:55.000Z</time>
      </trkpt>
      <trkpt lat="44.8745" lon="5.56968">
        <ele>1274</ele>
        <time>2013-09-15T08:15:56.000Z</time>
      </trkpt>
      <trkpt lat="44.87453" lon="5.56975">
        <ele>1274</ele>
        <time>2013-09-15T08:16:02.000Z</time>
      </trkpt>
      <trkpt lat="44.87453" lon="5.56975">
        <ele>1274</ele>
        <time>2013-09-15T08:16:02.000Z</time>
      </trkpt>
      <trkpt lat="44.87453" lon="5.56975">
        <ele>1274</ele>
        <time>2013-09-15T08:16:03.000Z</time>
      </trkpt>
      <trkpt lat="44.87455" lon="5.56981">
        <ele>1276</ele>
        <time>2013-09-15T08:16:10.000Z</time>
      </trkpt>
      <trkpt lat="44.87455" lon="5.56981">
        <ele>1276</ele>
        <time>2013-09-15T08:16:10.000Z</time>
      </trkpt>
      <trkpt lat="44.87455" lon="5.56981">
        <ele>1276</ele>
        <time>2013-09-15T08:16:11.000Z</time>
      </trkpt>
      <trkpt lat="44.87457" lon="5.56988">
        <ele>1277</ele>
        <time>2013-09-15T08:16:16.000Z</time>
      </trkpt>
      <trkpt lat="44.87457" lon="5.56988">
        <ele>1277</ele>
        <time>2013-09-15T08:16:16.000Z</time>
      </trkpt>
      <trkpt lat="44.87457" lon="5.56988">
        <ele>1277</ele>
        <time>2013-09-15T08:16:17.000Z</time>
      </trkpt>
      <trkpt lat="44.87457" lon="5.56994">
        <ele>1277</ele>
        <time>2013-09-15T08:16:21.000Z</time>
      </trkpt>
      <trkpt lat="44.87458" lon="5.57">
        <ele>1278</ele>
        <time>2013-09-15T08:16:26.000Z</time>
      </trkpt>
      <trkpt lat="44.87458" lon="5.57">
        <ele>1278</ele>
        <time>2013-09-15T08:16:26.000Z</time>
      </trkpt>
      <trkpt lat="44.87458" lon="5.57">
        <ele>1278</ele>
        <time>2013-09-15T08:16:27.000Z</time>
      </trkpt>
      <trkpt lat="44.87458" lon="5.57007">
        <ele>1279</ele>
        <time>2013-09-15T08:16:31.000Z</time>
      </trkpt>
      <trkpt lat="44.87458" lon="5.57007">
        <ele>1279</ele>
        <time>2013-09-15T08:16:31.000Z</time>
      </trkpt>
      <trkpt lat="44.87458" lon="5.57007">
        <ele>1279</ele>
        <time>2013-09-15T08:16:32.000Z</time>
      </trkpt>
      <trkpt lat="44.8746" lon="5.57013">
        <ele>1280</ele>
        <time>2013-09-15T08:16:38.000Z</time>
      </trkpt>
      <trkpt lat="44.8746" lon="5.57013">
        <ele>1280</ele>
        <time>2013-09-15T08:16:38.000Z</time>
      </trkpt>
      <trkpt lat="44.8746" lon="5.57013">
        <ele>1280</ele>
        <time>2013-09-15T08:16:39.000Z</time>
      </trkpt>
      <trkpt lat="44.87461" lon="5.5702">
        <ele>1281</ele>
        <time>2013-09-15T08:16:45.000Z</time>
      </trkpt>
      <trkpt lat="44.87463" lon="5.57026">
        <ele>1283</ele>
        <time>2013-09-15T08:16:55.000Z</time>
      </trkpt>
      <trkpt lat="44.87463" lon="5.57026">
        <ele>1283</ele>
        <time>2013-09-15T08:16:55.000Z</time>
      </trkpt>
      <trkpt lat="44.87463" lon="5.57026">
        <ele>1283</ele>
        <time>2013-09-15T08:16:58.000Z</time>
      </trkpt>
      <trkpt lat="44.87466" lon="5.57032">
        <ele>1284</ele>
        <time>2013-09-15T08:17:06.000Z</time>
      </trkpt>
      <trkpt lat="44.87468" lon="5.57039">
        <ele>1284</ele>
        <time>2013-09-15T08:17:13.000Z</time>
      </trkpt>
      <trkpt lat="44.87468" lon="5.57039">
        <ele>1284</ele>
        <time>2013-09-15T08:17:13.000Z</time>
      </trkpt>
      <trkpt lat="44.87468" lon="5.57039">
        <ele>1285</ele>
        <time>2013-09-15T08:17:14.000Z</time>
      </trkpt>
      <trkpt lat="44.87468" lon="5.57045">
        <ele>1285</ele>
        <time>2013-09-15T08:17:20.000Z</time>
      </trkpt>
      <trkpt lat="44.87471" lon="5.57052">
        <ele>1285</ele>
        <time>2013-09-15T08:17:26.000Z</time>
      </trkpt>
      <trkpt lat="44.87471" lon="5.57052">
        <ele>1285</ele>
        <time>2013-09-15T08:17:26.000Z</time>
      </trkpt>
      <trkpt lat="44.87471" lon="5.57052">
        <ele>1285</ele>
        <time>2013-09-15T08:17:27.000Z</time>
      </trkpt>
      <trkpt lat="44.87474" lon="5.57056">
        <ele>1285</ele>
        <time>2013-09-15T08:17:33.000Z</time>
      </trkpt>
      <trkpt lat="44.87479" lon="5.57058">
        <ele>1286</ele>
        <time>2013-09-15T08:17:39.000Z</time>
      </trkpt>
      <trkpt lat="44.87484" lon="5.57056">
        <ele>1286</ele>
        <time>2013-09-15T08:17:43.000Z</time>
      </trkpt>
      <trkpt lat="44.87484" lon="5.57056">
        <ele>1286</ele>
        <time>2013-09-15T08:17:43.000Z</time>
      </trkpt>
      <trkpt lat="44.87484" lon="5.57056">
        <ele>1286</ele>
        <time>2013-09-15T08:17:44.000Z</time>
      </trkpt>
      <trkpt lat="44.87488" lon="5.57052">
        <ele>1286</ele>
        <time>2013-09-15T08:17:50.000Z</time>
      </trkpt>
      <trkpt lat="44.87492" lon="5.57048">
        <ele>1287</ele>
        <time>2013-09-15T08:17:56.000Z</time>
      </trkpt>
      <trkpt lat="44.87497" lon="5.57041">
        <ele>1287</ele>
        <time>2013-09-15T08:18:04.000Z</time>
      </trkpt>
      <trkpt lat="44.87497" lon="5.57041">
        <ele>1287</ele>
        <time>2013-09-15T08:18:04.000Z</time>
      </trkpt>
      <trkpt lat="44.87497" lon="5.57041">
        <ele>1287</ele>
        <time>2013-09-15T08:18:05.000Z</time>
      </trkpt>
      <trkpt lat="44.875" lon="5.57035">
        <ele>1287</ele>
        <time>2013-09-15T08:18:17.000Z</time>
      </trkpt>
      <trkpt lat="44.875" lon="5.57035">
        <ele>1287</ele>
        <time>2013-09-15T08:18:17.000Z</time>
      </trkpt>
      <trkpt lat="44.875" lon="5.57035">
        <ele>1287</ele>
        <time>2013-09-15T08:18:19.000Z</time>
      </trkpt>
      <trkpt lat="44.87503" lon="5.57028">
        <ele>1287</ele>
        <time>2013-09-15T08:18:26.000Z</time>
      </trkpt>
      <trkpt lat="44.87507" lon="5.57024">
        <ele>1287</ele>
        <time>2013-09-15T08:18:31.000Z</time>
      </trkpt>
      <trkpt lat="44.8751" lon="5.57018">
        <ele>1287</ele>
        <time>2013-09-15T08:18:35.000Z</time>
      </trkpt>
      <trkpt lat="44.87515" lon="5.57011">
        <ele>1288</ele>
        <time>2013-09-15T08:18:39.000Z</time>
      </trkpt>
      <trkpt lat="44.87519" lon="5.57005">
        <ele>1288</ele>
        <time>2013-09-15T08:18:44.000Z</time>
      </trkpt>
      <trkpt lat="44.87523" lon="5.56998">
        <ele>1289</ele>
        <time>2013-09-15T08:18:48.000Z</time>
      </trkpt>
      <trkpt lat="44.87528" lon="5.56994">
        <ele>1289</ele>
        <time>2013-09-15T08:18:52.000Z</time>
      </trkpt>
      <trkpt lat="44.87532" lon="5.56992">
        <ele>1290</ele>
        <time>2013-09-15T08:18:55.000Z</time>
      </trkpt>
      <trkpt lat="44.87536" lon="5.56988">
        <ele>1290</ele>
        <time>2013-09-15T08:18:59.000Z</time>
      </trkpt>
      <trkpt lat="44.87541" lon="5.56983">
        <ele>1291</ele>
        <time>2013-09-15T08:19:02.000Z</time>
      </trkpt>
      <trkpt lat="44.87544" lon="5.56977">
        <ele>1292</ele>
        <time>2013-09-15T08:19:06.000Z</time>
      </trkpt>
      <trkpt lat="44.87548" lon="5.5697">
        <ele>1292</ele>
        <time>2013-09-15T08:19:10.000Z</time>
      </trkpt>
      <trkpt lat="44.87552" lon="5.56968">
        <ele>1293</ele>
        <time>2013-09-15T08:19:13.000Z</time>
      </trkpt>
      <trkpt lat="44.87557" lon="5.56964">
        <ele>1293</ele>
        <time>2013-09-15T08:19:16.000Z</time>
      </trkpt>
      <trkpt lat="44.87562" lon="5.56962">
        <ele>1294</ele>
        <time>2013-09-15T08:19:19.000Z</time>
      </trkpt>
      <trkpt lat="44.87566" lon="5.5696">
        <ele>1294</ele>
        <time>2013-09-15T08:19:22.000Z</time>
      </trkpt>
      <trkpt lat="44.87572" lon="5.56957">
        <ele>1295</ele>
        <time>2013-09-15T08:19:25.000Z</time>
      </trkpt>
      <trkpt lat="44.87577" lon="5.56957">
        <ele>1295</ele>
        <time>2013-09-15T08:19:28.000Z</time>
      </trkpt>
      <trkpt lat="44.87581" lon="5.56955">
        <ele>1296</ele>
        <time>2013-09-15T08:19:31.000Z</time>
      </trkpt>
      <trkpt lat="44.87587" lon="5.56957">
        <ele>1296</ele>
        <time>2013-09-15T08:19:34.000Z</time>
      </trkpt>
      <trkpt lat="44.87592" lon="5.56957">
        <ele>1296</ele>
        <time>2013-09-15T08:19:37.000Z</time>
      </trkpt>
      <trkpt lat="44.876" lon="5.56957">
        <ele>1297</ele>
        <time>2013-09-15T08:19:40.000Z</time>
      </trkpt>
      <trkpt lat="44.87606" lon="5.56955">
        <ele>1297</ele>
        <time>2013-09-15T08:19:42.000Z</time>
      </trkpt>
      <trkpt lat="44.87612" lon="5.56955">
        <ele>1297</ele>
        <time>2013-09-15T08:19:44.000Z</time>
      </trkpt>
      <trkpt lat="44.87618" lon="5.56955">
        <ele>1297</ele>
        <time>2013-09-15T08:19:46.000Z</time>
      </trkpt>
      <trkpt lat="44.87624" lon="5.56953">
        <ele>1297</ele>
        <time>2013-09-15T08:19:48.000Z</time>
      </trkpt>
      <trkpt lat="44.87631" lon="5.56951">
        <ele>1298</ele>
        <time>2013-09-15T08:19:50.000Z</time>
      </trkpt>
      <trkpt lat="44.87637" lon="5.56949">
        <ele>1298</ele>
        <time>2013-09-15T08:19:52.000Z</time>
      </trkpt>
      <trkpt lat="44.87644" lon="5.56949">
        <ele>1298</ele>
        <time>2013-09-15T08:19:54.000Z</time>
      </trkpt>
      <trkpt lat="44.87649" lon="5.56947">
        <ele>1298</ele>
        <time>2013-09-15T08:19:56.000Z</time>
      </trkpt>
      <trkpt lat="44.87655" lon="5.56947">
        <ele>1299</ele>
        <time>2013-09-15T08:19:59.000Z</time>
      </trkpt>
      <trkpt lat="44.8766" lon="5.56945">
        <ele>1299</ele>
        <time>2013-09-15T08:20:02.000Z</time>
      </trkpt>
      <trkpt lat="44.87664" lon="5.56942">
        <ele>1300</ele>
        <time>2013-09-15T08:20:06.000Z</time>
      </trkpt>
      <trkpt lat="44.87664" lon="5.56942">
        <ele>1300</ele>
        <time>2013-09-15T08:20:06.000Z</time>
      </trkpt>
      <trkpt lat="44.87664" lon="5.56942">
        <ele>1300</ele>
        <time>2013-09-15T08:20:19.000Z</time>
      </trkpt>
      <trkpt lat="44.87658" lon="5.5694">
        <ele>1301</ele>
        <time>2013-09-15T08:20:21.000Z</time>
      </trkpt>
      <trkpt lat="44.8765" lon="5.5694">
        <ele>1301</ele>
        <time>2013-09-15T08:20:23.000Z</time>
      </trkpt>
      <trkpt lat="44.87646" lon="5.56942">
        <ele>1301</ele>
        <time>2013-09-15T08:20:24.000Z</time>
      </trkpt>
      <trkpt lat="44.87637" lon="5.56942">
        <ele>1301</ele>
        <time>2013-09-15T08:20:26.000Z</time>
      </trkpt>
      <trkpt lat="44.8763" lon="5.56942">
        <ele>1301</ele>
        <time>2013-09-15T08:20:28.000Z</time>
      </trkpt>
      <trkpt lat="44.87621" lon="5.56945">
        <ele>1301</ele>
        <time>2013-09-15T08:20:30.000Z</time>
      </trkpt>
      <trkpt lat="44.87615" lon="5.56945">
        <ele>1301</ele>
        <time>2013-09-15T08:20:32.000Z</time>
      </trkpt>
      <trkpt lat="44.87607" lon="5.56945">
        <ele>1300</ele>
        <time>2013-09-15T08:20:34.000Z</time>
      </trkpt>
      <trkpt lat="44.87601" lon="5.56945">
        <ele>1300</ele>
        <time>2013-09-15T08:20:36.000Z</time>
      </trkpt>
      <trkpt lat="44.87595" lon="5.56945">
        <ele>1300</ele>
        <time>2013-09-15T08:20:38.000Z</time>
      </trkpt>
      <trkpt lat="44.87589" lon="5.56945">
        <ele>1300</ele>
        <time>2013-09-15T08:20:40.000Z</time>
      </trkpt>
      <trkpt lat="44.87584" lon="5.56945">
        <ele>1300</ele>
        <time>2013-09-15T08:20:42.000Z</time>
      </trkpt>
      <trkpt lat="44.87578" lon="5.56945">
        <ele>1300</ele>
        <time>2013-09-15T08:20:44.000Z</time>
      </trkpt>
      <trkpt lat="44.87573" lon="5.56945">
        <ele>1300</ele>
        <time>2013-09-15T08:20:46.000Z</time>
      </trkpt>
      <trkpt lat="44.87566" lon="5.56947">
        <ele>1300</ele>
        <time>2013-09-15T08:20:48.000Z</time>
      </trkpt>
      <trkpt lat="44.87561" lon="5.56947">
        <ele>1300</ele>
        <time>2013-09-15T08:20:50.000Z</time>
      </trkpt>
      <trkpt lat="44.87556" lon="5.56947">
        <ele>1300</ele>
        <time>2013-09-15T08:20:52.000Z</time>
      </trkpt>
      <trkpt lat="44.8755" lon="5.56949">
        <ele>1300</ele>
        <time>2013-09-15T08:20:55.000Z</time>
      </trkpt>
      <trkpt lat="44.8755" lon="5.56949">
        <ele>1300</ele>
        <time>2013-09-15T08:20:55.000Z</time>
      </trkpt>
      <trkpt lat="44.8755" lon="5.56949">
        <ele>1300</ele>
        <time>2013-09-15T08:20:56.000Z</time>
      </trkpt>
      <trkpt lat="44.87552" lon="5.56955">
        <ele>1300</ele>
        <time>2013-09-15T08:20:59.000Z</time>
      </trkpt>
      <trkpt lat="44.87557" lon="5.56957">
        <ele>1300</ele>
        <time>2013-09-15T08:21:01.000Z</time>
      </trkpt>
      <trkpt lat="44.87563" lon="5.5696">
        <ele>1300</ele>
        <time>2013-09-15T08:21:03.000Z</time>
      </trkpt>
      <trkpt lat="44.87568" lon="5.5696">
        <ele>1300</ele>
        <time>2013-09-15T08:21:05.000Z</time>
      </trkpt>
      <trkpt lat="44.87574" lon="5.5696">
        <ele>1300</ele>
        <time>2013-09-15T08:21:07.000Z</time>
      </trkpt>
      <trkpt lat="44.87579" lon="5.5696">
        <ele>1301</ele>
        <time>2013-09-15T08:21:09.000Z</time>
      </trkpt>
      <trkpt lat="44.87584" lon="5.5696">
        <ele>1301</ele>
        <time>2013-09-15T08:21:11.000Z</time>
      </trkpt>
      <trkpt lat="44.87591" lon="5.5696">
        <ele>1301</ele>
        <time>2013-09-15T08:21:13.000Z</time>
      </trkpt>
      <trkpt lat="44.87597" lon="5.56957">
        <ele>1301</ele>
        <time>2013-09-15T08:21:15.000Z</time>
      </trkpt>
      <trkpt lat="44.87604" lon="5.56957">
        <ele>1301</ele>
        <time>2013-09-15T08:21:17.000Z</time>
      </trkpt>
      <trkpt lat="44.8761" lon="5.56955">
        <ele>1302</ele>
        <time>2013-09-15T08:21:19.000Z</time>
      </trkpt>
      <trkpt lat="44.87617" lon="5.56953">
        <ele>1302</ele>
        <time>2013-09-15T08:21:21.000Z</time>
      </trkpt>
      <trkpt lat="44.87622" lon="5.56951">
        <ele>1302</ele>
        <time>2013-09-15T08:21:23.000Z</time>
      </trkpt>
      <trkpt lat="44.87628" lon="5.56949">
        <ele>1302</ele>
        <time>2013-09-15T08:21:25.000Z</time>
      </trkpt>
      <trkpt lat="44.87634" lon="5.56947">
        <ele>1303</ele>
        <time>2013-09-15T08:21:27.000Z</time>
      </trkpt>
      <trkpt lat="44.87641" lon="5.56945">
        <ele>1303</ele>
        <time>2013-09-15T08:21:30.000Z</time>
      </trkpt>
      <trkpt lat="44.87647" lon="5.56945">
        <ele>1304</ele>
        <time>2013-09-15T08:21:32.000Z</time>
      </trkpt>
      <trkpt lat="44.87651" lon="5.56942">
        <ele>1304</ele>
        <time>2013-09-15T08:21:34.000Z</time>
      </trkpt>
      <trkpt lat="44.87658" lon="5.56942">
        <ele>1305</ele>
        <time>2013-09-15T08:21:37.000Z</time>
      </trkpt>
      <trkpt lat="44.87662" lon="5.5694">
        <ele>1306</ele>
        <time>2013-09-15T08:21:40.000Z</time>
      </trkpt>
      <trkpt lat="44.87666" lon="5.56942">
        <ele>1307</ele>
        <time>2013-09-15T08:21:56.000Z</time>
      </trkpt>
      <trkpt lat="44.8767" lon="5.56945">
        <ele>1307</ele>
        <time>2013-09-15T08:21:58.000Z</time>
      </trkpt>
      <trkpt lat="44.87677" lon="5.56945">
        <ele>1307</ele>
        <time>2013-09-15T08:22:01.000Z</time>
      </trkpt>
      <trkpt lat="44.87683" lon="5.56945">
        <ele>1308</ele>
        <time>2013-09-15T08:22:05.000Z</time>
      </trkpt>
      <trkpt lat="44.87686" lon="5.5694">
        <ele>1308</ele>
        <time>2013-09-15T08:22:07.000Z</time>
      </trkpt>
      <trkpt lat="44.87691" lon="5.56936">
        <ele>1308</ele>
        <time>2013-09-15T08:22:09.000Z</time>
      </trkpt>
      <trkpt lat="44.87693" lon="5.5693">
        <ele>1308</ele>
        <time>2013-09-15T08:22:10.000Z</time>
      </trkpt>
      <trkpt lat="44.87696" lon="5.56919">
        <ele>1309</ele>
        <time>2013-09-15T08:22:12.000Z</time>
      </trkpt>
      <trkpt lat="44.87697" lon="5.56912">
        <ele>1309</ele>
        <time>2013-09-15T08:22:13.000Z</time>
      </trkpt>
      <trkpt lat="44.87698" lon="5.56906">
        <ele>1309</ele>
        <time>2013-09-15T08:22:14.000Z</time>
      </trkpt>
      <trkpt lat="44.87699" lon="5.56897">
        <ele>1310</ele>
        <time>2013-09-15T08:22:16.000Z</time>
      </trkpt>
      <trkpt lat="44.87698" lon="5.56889">
        <ele>1310</ele>
        <time>2013-09-15T08:22:18.000Z</time>
      </trkpt>
      <trkpt lat="44.87694" lon="5.5688">
        <ele>1310</ele>
        <time>2013-09-15T08:22:20.000Z</time>
      </trkpt>
      <trkpt lat="44.87692" lon="5.56874">
        <ele>1311</ele>
        <time>2013-09-15T08:22:22.000Z</time>
      </trkpt>
      <trkpt lat="44.87688" lon="5.56867">
        <ele>1311</ele>
        <time>2013-09-15T08:22:25.000Z</time>
      </trkpt>
      <trkpt lat="44.87682" lon="5.56863">
        <ele>1312</ele>
        <time>2013-09-15T08:22:29.000Z</time>
      </trkpt>
      <trkpt lat="44.87678" lon="5.56861">
        <ele>1312</ele>
        <time>2013-09-15T08:22:31.000Z</time>
      </trkpt>
      <trkpt lat="44.87672" lon="5.56857">
        <ele>1313</ele>
        <time>2013-09-15T08:22:34.000Z</time>
      </trkpt>
      <trkpt lat="44.87667" lon="5.56854">
        <ele>1313</ele>
        <time>2013-09-15T08:22:38.000Z</time>
      </trkpt>
      <trkpt lat="44.87662" lon="5.5685">
        <ele>1313</ele>
        <time>2013-09-15T08:22:41.000Z</time>
      </trkpt>
      <trkpt lat="44.87655" lon="5.56848">
        <ele>1314</ele>
        <time>2013-09-15T08:22:45.000Z</time>
      </trkpt>
      <trkpt lat="44.87651" lon="5.56846">
        <ele>1314</ele>
        <time>2013-09-15T08:22:47.000Z</time>
      </trkpt>
      <trkpt lat="44.87645" lon="5.56844">
        <ele>1314</ele>
        <time>2013-09-15T08:22:50.000Z</time>
      </trkpt>
      <trkpt lat="44.87639" lon="5.56842">
        <ele>1314</ele>
        <time>2013-09-15T08:22:53.000Z</time>
      </trkpt>
      <trkpt lat="44.87635" lon="5.56837">
        <ele>1315</ele>
        <time>2013-09-15T08:22:55.000Z</time>
      </trkpt>
      <trkpt lat="44.87631" lon="5.56833">
        <ele>1315</ele>
        <time>2013-09-15T08:22:58.000Z</time>
      </trkpt>
      <trkpt lat="44.87628" lon="5.56826">
        <ele>1315</ele>
        <time>2013-09-15T08:23:01.000Z</time>
      </trkpt>
      <trkpt lat="44.87623" lon="5.5682">
        <ele>1315</ele>
        <time>2013-09-15T08:23:04.000Z</time>
      </trkpt>
      <trkpt lat="44.87619" lon="5.56816">
        <ele>1315</ele>
        <time>2013-09-15T08:23:07.000Z</time>
      </trkpt>
      <trkpt lat="44.87615" lon="5.56809">
        <ele>1315</ele>
        <time>2013-09-15T08:23:11.000Z</time>
      </trkpt>
      <trkpt lat="44.8761" lon="5.56803">
        <ele>1315</ele>
        <time>2013-09-15T08:23:14.000Z</time>
      </trkpt>
      <trkpt lat="44.87606" lon="5.56796">
        <ele>1316</ele>
        <time>2013-09-15T08:23:18.000Z</time>
      </trkpt>
      <trkpt lat="44.87602" lon="5.5679">
        <ele>1316</ele>
        <time>2013-09-15T08:23:22.000Z</time>
      </trkpt>
      <trkpt lat="44.87597" lon="5.56784">
        <ele>1316</ele>
        <time>2013-09-15T08:23:27.000Z</time>
      </trkpt>
      <trkpt lat="44.87593" lon="5.56779">
        <ele>1316</ele>
        <time>2013-09-15T08:23:30.000Z</time>
      </trkpt>
      <trkpt lat="44.87589" lon="5.56773">
        <ele>1316</ele>
        <time>2013-09-15T08:23:34.000Z</time>
      </trkpt>
      <trkpt lat="44.87584" lon="5.56769">
        <ele>1316</ele>
        <time>2013-09-15T08:23:37.000Z</time>
      </trkpt>
      <trkpt lat="44.87581" lon="5.56762">
        <ele>1317</ele>
        <time>2013-09-15T08:23:40.000Z</time>
      </trkpt>
      <trkpt lat="44.87576" lon="5.56756">
        <ele>1317</ele>
        <time>2013-09-15T08:23:44.000Z</time>
      </trkpt>
      <trkpt lat="44.87571" lon="5.56749">
        <ele>1317</ele>
        <time>2013-09-15T08:23:48.000Z</time>
      </trkpt>
      <trkpt lat="44.87566" lon="5.56745">
        <ele>1317</ele>
        <time>2013-09-15T08:23:51.000Z</time>
      </trkpt>
      <trkpt lat="44.87562" lon="5.56739">
        <ele>1317</ele>
        <time>2013-09-15T08:23:54.000Z</time>
      </trkpt>
      <trkpt lat="44.87558" lon="5.56734">
        <ele>1317</ele>
        <time>2013-09-15T08:23:57.000Z</time>
      </trkpt>
      <trkpt lat="44.87553" lon="5.56728">
        <ele>1317</ele>
        <time>2013-09-15T08:24:00.000Z</time>
      </trkpt>
      <trkpt lat="44.87549" lon="5.56721">
        <ele>1318</ele>
        <time>2013-09-15T08:24:04.000Z</time>
      </trkpt>
      <trkpt lat="44.87545" lon="5.56715">
        <ele>1318</ele>
        <time>2013-09-15T08:24:08.000Z</time>
      </trkpt>
      <trkpt lat="44.87541" lon="5.56711">
        <ele>1318</ele>
        <time>2013-09-15T08:24:11.000Z</time>
      </trkpt>
      <trkpt lat="44.87535" lon="5.56704">
        <ele>1318</ele>
        <time>2013-09-15T08:24:15.000Z</time>
      </trkpt>
      <trkpt lat="44.87531" lon="5.56698">
        <ele>1318</ele>
        <time>2013-09-15T08:24:19.000Z</time>
      </trkpt>
      <trkpt lat="44.8753" lon="5.56691">
        <ele>1318</ele>
        <time>2013-09-15T08:24:22.000Z</time>
      </trkpt>
      <trkpt lat="44.87528" lon="5.56685">
        <ele>1318</ele>
        <time>2013-09-15T08:24:25.000Z</time>
      </trkpt>
      <trkpt lat="44.87524" lon="5.56678">
        <ele>1318</ele>
        <time>2013-09-15T08:24:29.000Z</time>
      </trkpt>
      <trkpt lat="44.87522" lon="5.56672">
        <ele>1318</ele>
        <time>2013-09-15T08:24:32.000Z</time>
      </trkpt>
      <trkpt lat="44.87521" lon="5.56666">
        <ele>1318</ele>
        <time>2013-09-15T08:24:35.000Z</time>
      </trkpt>
      <trkpt lat="44.87519" lon="5.56659">
        <ele>1318</ele>
        <time>2013-09-15T08:24:38.000Z</time>
      </trkpt>
      <trkpt lat="44.87517" lon="5.56653">
        <ele>1318</ele>
        <time>2013-09-15T08:24:41.000Z</time>
      </trkpt>
      <trkpt lat="44.87515" lon="5.56646">
        <ele>1318</ele>
        <time>2013-09-15T08:24:44.000Z</time>
      </trkpt>
      <trkpt lat="44.87514" lon="5.56638">
        <ele>1318</ele>
        <time>2013-09-15T08:24:47.000Z</time>
      </trkpt>
      <trkpt lat="44.87513" lon="5.56631">
        <ele>1318</ele>
        <time>2013-09-15T08:24:50.000Z</time>
      </trkpt>
      <trkpt lat="44.8751" lon="5.56623">
        <ele>1318</ele>
        <time>2013-09-15T08:24:53.000Z</time>
      </trkpt>
      <trkpt lat="44.8751" lon="5.56614">
        <ele>1317</ele>
        <time>2013-09-15T08:24:56.000Z</time>
      </trkpt>
      <trkpt lat="44.87512" lon="5.56606">
        <ele>1317</ele>
        <time>2013-09-15T08:24:59.000Z</time>
      </trkpt>
      <trkpt lat="44.87514" lon="5.56599">
        <ele>1317</ele>
        <time>2013-09-15T08:25:03.000Z</time>
      </trkpt>
      <trkpt lat="44.87519" lon="5.56595">
        <ele>1317</ele>
        <time>2013-09-15T08:25:07.000Z</time>
      </trkpt>
      <trkpt lat="44.87524" lon="5.56593">
        <ele>1317</ele>
        <time>2013-09-15T08:25:10.000Z</time>
      </trkpt>
      <trkpt lat="44.87529" lon="5.5659">
        <ele>1317</ele>
        <time>2013-09-15T08:25:13.000Z</time>
      </trkpt>
      <trkpt lat="44.87533" lon="5.56588">
        <ele>1318</ele>
        <time>2013-09-15T08:25:16.000Z</time>
      </trkpt>
      <trkpt lat="44.8754" lon="5.56588">
        <ele>1318</ele>
        <time>2013-09-15T08:25:20.000Z</time>
      </trkpt>
      <trkpt lat="44.87545" lon="5.56588">
        <ele>1318</ele>
        <time>2013-09-15T08:25:24.000Z</time>
      </trkpt>
      <trkpt lat="44.8755" lon="5.5659">
        <ele>1318</ele>
        <time>2013-09-15T08:25:28.000Z</time>
      </trkpt>
      <trkpt lat="44.87556" lon="5.5659">
        <ele>1318</ele>
        <time>2013-09-15T08:25:32.000Z</time>
      </trkpt>
      <trkpt lat="44.8756" lon="5.56593">
        <ele>1319</ele>
        <time>2013-09-15T08:25:35.000Z</time>
      </trkpt>
      <trkpt lat="44.87565" lon="5.56593">
        <ele>1319</ele>
        <time>2013-09-15T08:25:39.000Z</time>
      </trkpt>
      <trkpt lat="44.87571" lon="5.56595">
        <ele>1319</ele>
        <time>2013-09-15T08:25:43.000Z</time>
      </trkpt>
      <trkpt lat="44.87576" lon="5.56595">
        <ele>1319</ele>
        <time>2013-09-15T08:25:47.000Z</time>
      </trkpt>
      <trkpt lat="44.87581" lon="5.56597">
        <ele>1320</ele>
        <time>2013-09-15T08:25:52.000Z</time>
      </trkpt>
      <trkpt lat="44.87587" lon="5.56597">
        <ele>1320</ele>
        <time>2013-09-15T08:25:56.000Z</time>
      </trkpt>
      <trkpt lat="44.87591" lon="5.56599">
        <ele>1320</ele>
        <time>2013-09-15T08:26:00.000Z</time>
      </trkpt>
      <trkpt lat="44.87596" lon="5.56601">
        <ele>1320</ele>
        <time>2013-09-15T08:26:04.000Z</time>
      </trkpt>
      <trkpt lat="44.87601" lon="5.56603">
        <ele>1320</ele>
        <time>2013-09-15T08:26:08.000Z</time>
      </trkpt>
      <trkpt lat="44.87605" lon="5.56606">
        <ele>1320</ele>
        <time>2013-09-15T08:26:12.000Z</time>
      </trkpt>
      <trkpt lat="44.87609" lon="5.56608">
        <ele>1321</ele>
        <time>2013-09-15T08:26:16.000Z</time>
      </trkpt>
      <trkpt lat="44.87614" lon="5.5661">
        <ele>1321</ele>
        <time>2013-09-15T08:26:19.000Z</time>
      </trkpt>
      <trkpt lat="44.87619" lon="5.5661">
        <ele>1321</ele>
        <time>2013-09-15T08:26:23.000Z</time>
      </trkpt>
      <trkpt lat="44.87619" lon="5.5661">
        <ele>1321</ele>
        <time>2013-09-15T08:26:23.000Z</time>
      </trkpt>
      <trkpt lat="44.87619" lon="5.5661">
        <ele>1321</ele>
        <time>2013-09-15T08:26:27.000Z</time>
      </trkpt>
      <trkpt lat="44.87624" lon="5.56612">
        <ele>1321</ele>
        <time>2013-09-15T08:26:32.000Z</time>
      </trkpt>
      <trkpt lat="44.87628" lon="5.56614">
        <ele>1321</ele>
        <time>2013-09-15T08:26:36.000Z</time>
      </trkpt>
      <trkpt lat="44.87633" lon="5.56616">
        <ele>1320</ele>
        <time>2013-09-15T08:26:40.000Z</time>
      </trkpt>
      <trkpt lat="44.87637" lon="5.56618">
        <ele>1320</ele>
        <time>2013-09-15T08:26:44.000Z</time>
      </trkpt>
      <trkpt lat="44.87641" lon="5.56623">
        <ele>1320</ele>
        <time>2013-09-15T08:26:47.000Z</time>
      </trkpt>
      <trkpt lat="44.87646" lon="5.56625">
        <ele>1320</ele>
        <time>2013-09-15T08:26:49.000Z</time>
      </trkpt>
      <trkpt lat="44.87651" lon="5.56627">
        <ele>1320</ele>
        <time>2013-09-15T08:26:52.000Z</time>
      </trkpt>
      <trkpt lat="44.87655" lon="5.56631">
        <ele>1320</ele>
        <time>2013-09-15T08:26:55.000Z</time>
      </trkpt>
      <trkpt lat="44.8766" lon="5.56633">
        <ele>1320</ele>
        <time>2013-09-15T08:26:58.000Z</time>
      </trkpt>
      <trkpt lat="44.87664" lon="5.56636">
        <ele>1321</ele>
        <time>2013-09-15T08:27:02.000Z</time>
      </trkpt>
      <trkpt lat="44.87668" lon="5.56638">
        <ele>1321</ele>
        <time>2013-09-15T08:27:05.000Z</time>
      </trkpt>
      <trkpt lat="44.87672" lon="5.5664">
        <ele>1321</ele>
        <time>2013-09-15T08:27:09.000Z</time>
      </trkpt>
      <trkpt lat="44.87677" lon="5.56642">
        <ele>1321</ele>
        <time>2013-09-15T08:27:13.000Z</time>
      </trkpt>
      <trkpt lat="44.87677" lon="5.56642">
        <ele>1321</ele>
        <time>2013-09-15T08:27:13.000Z</time>
      </trkpt>
      <trkpt lat="44.87677" lon="5.56642">
        <ele>1321</ele>
        <time>2013-09-15T08:27:14.000Z</time>
      </trkpt>
      <trkpt lat="44.8768" lon="5.56646">
        <ele>1322</ele>
        <time>2013-09-15T08:27:17.000Z</time>
      </trkpt>
      <trkpt lat="44.8768" lon="5.56646">
        <ele>1322</ele>
        <time>2013-09-15T08:27:17.000Z</time>
      </trkpt>
      <trkpt lat="44.8768" lon="5.56646">
        <ele>1322</ele>
        <time>2013-09-15T08:27:18.000Z</time>
      </trkpt>
      <trkpt lat="44.87683" lon="5.56651">
        <ele>1322</ele>
        <time>2013-09-15T08:27:23.000Z</time>
      </trkpt>
      <trkpt lat="44.87686" lon="5.56655">
        <ele>1322</ele>
        <time>2013-09-15T08:27:28.000Z</time>
      </trkpt>
      <trkpt lat="44.87686" lon="5.56655">
        <ele>1322</ele>
        <time>2013-09-15T08:27:28.000Z</time>
      </trkpt>
      <trkpt lat="44.87686" lon="5.56655">
        <ele>1323</ele>
        <time>2013-09-15T08:27:29.000Z</time>
      </trkpt>
      <trkpt lat="44.87691" lon="5.56659">
        <ele>1323</ele>
        <time>2013-09-15T08:27:34.000Z</time>
      </trkpt>
      <trkpt lat="44.87695" lon="5.56666">
        <ele>1323</ele>
        <time>2013-09-15T08:27:40.000Z</time>
      </trkpt>
      <trkpt lat="44.87695" lon="5.56666">
        <ele>1323</ele>
        <time>2013-09-15T08:27:40.000Z</time>
      </trkpt>
      <trkpt lat="44.87695" lon="5.56666">
        <ele>1324</ele>
        <time>2013-09-15T08:27:41.000Z</time>
      </trkpt>
      <trkpt lat="44.87699" lon="5.56668">
        <ele>1324</ele>
        <time>2013-09-15T08:27:45.000Z</time>
      </trkpt>
      <trkpt lat="44.87703" lon="5.56672">
        <ele>1324</ele>
        <time>2013-09-15T08:27:49.000Z</time>
      </trkpt>
      <trkpt lat="44.87707" lon="5.56674">
        <ele>1325</ele>
        <time>2013-09-15T08:27:53.000Z</time>
      </trkpt>
      <trkpt lat="44.87712" lon="5.56676">
        <ele>1325</ele>
        <time>2013-09-15T08:27:57.000Z</time>
      </trkpt>
      <trkpt lat="44.87716" lon="5.56678">
        <ele>1325</ele>
        <time>2013-09-15T08:28:01.000Z</time>
      </trkpt>
      <trkpt lat="44.87723" lon="5.56678">
        <ele>1326</ele>
        <time>2013-09-15T08:28:05.000Z</time>
      </trkpt>
      <trkpt lat="44.87728" lon="5.56678">
        <ele>1326</ele>
        <time>2013-09-15T08:28:08.000Z</time>
      </trkpt>
      <trkpt lat="44.87735" lon="5.56676">
        <ele>1326</ele>
        <time>2013-09-15T08:28:11.000Z</time>
      </trkpt>
      <trkpt lat="44.87741" lon="5.56676">
        <ele>1327</ele>
        <time>2013-09-15T08:28:14.000Z</time>
      </trkpt>
      <trkpt lat="44.87748" lon="5.56676">
        <ele>1327</ele>
        <time>2013-09-15T08:28:17.000Z</time>
      </trkpt>
      <trkpt lat="44.87753" lon="5.56676">
        <ele>1327</ele>
        <time>2013-09-15T08:28:20.000Z</time>
      </trkpt>
      <trkpt lat="44.87758" lon="5.56676">
        <ele>1328</ele>
        <time>2013-09-15T08:28:23.000Z</time>
      </trkpt>
      <trkpt lat="44.87764" lon="5.56676">
        <ele>1328</ele>
        <time>2013-09-15T08:28:26.000Z</time>
      </trkpt>
      <trkpt lat="44.87768" lon="5.56678">
        <ele>1328</ele>
        <time>2013-09-15T08:28:29.000Z</time>
      </trkpt>
      <trkpt lat="44.87773" lon="5.56678">
        <ele>1328</ele>
        <time>2013-09-15T08:28:32.000Z</time>
      </trkpt>
      <trkpt lat="44.8778" lon="5.56678">
        <ele>1329</ele>
        <time>2013-09-15T08:28:36.000Z</time>
      </trkpt>
      <trkpt lat="44.87786" lon="5.56678">
        <ele>1329</ele>
        <time>2013-09-15T08:28:40.000Z</time>
      </trkpt>
      <trkpt lat="44.87793" lon="5.56678">
        <ele>1330</ele>
        <time>2013-09-15T08:28:44.000Z</time>
      </trkpt>
      <trkpt lat="44.87797" lon="5.56681">
        <ele>1331</ele>
        <time>2013-09-15T08:28:47.000Z</time>
      </trkpt>
      <trkpt lat="44.87803" lon="5.56681">
        <ele>1331</ele>
        <time>2013-09-15T08:28:51.000Z</time>
      </trkpt>
      <trkpt lat="44.87808" lon="5.56683">
        <ele>1332</ele>
        <time>2013-09-15T08:28:54.000Z</time>
      </trkpt>
      <trkpt lat="44.87813" lon="5.56685">
        <ele>1333</ele>
        <time>2013-09-15T08:28:58.000Z</time>
      </trkpt>
      <trkpt lat="44.8782" lon="5.56685">
        <ele>1333</ele>
        <time>2013-09-15T08:29:02.000Z</time>
      </trkpt>
      <trkpt lat="44.87824" lon="5.56689">
        <ele>1334</ele>
        <time>2013-09-15T08:29:05.000Z</time>
      </trkpt>
      <trkpt lat="44.87828" lon="5.56691">
        <ele>1334</ele>
        <time>2013-09-15T08:29:08.000Z</time>
      </trkpt>
      <trkpt lat="44.87832" lon="5.56694">
        <ele>1335</ele>
        <time>2013-09-15T08:29:14.000Z</time>
      </trkpt>
      <trkpt lat="44.87832" lon="5.56694">
        <ele>1335</ele>
        <time>2013-09-15T08:29:14.000Z</time>
      </trkpt>
      <trkpt lat="44.87832" lon="5.56694">
        <ele>1335</ele>
        <time>2013-09-15T08:29:15.000Z</time>
      </trkpt>
      <trkpt lat="44.87838" lon="5.56694">
        <ele>1335</ele>
        <time>2013-09-15T08:29:20.000Z</time>
      </trkpt>
      <trkpt lat="44.87842" lon="5.56696">
        <ele>1335</ele>
        <time>2013-09-15T08:29:24.000Z</time>
      </trkpt>
      <trkpt lat="44.87847" lon="5.56698">
        <ele>1336</ele>
        <time>2013-09-15T08:29:28.000Z</time>
      </trkpt>
      <trkpt lat="44.87853" lon="5.567">
        <ele>1336</ele>
        <time>2013-09-15T08:29:31.000Z</time>
      </trkpt>
      <trkpt lat="44.87857" lon="5.56702">
        <ele>1336</ele>
        <time>2013-09-15T08:29:34.000Z</time>
      </trkpt>
      <trkpt lat="44.87861" lon="5.56704">
        <ele>1336</ele>
        <time>2013-09-15T08:29:37.000Z</time>
      </trkpt>
      <trkpt lat="44.87868" lon="5.56704">
        <ele>1336</ele>
        <time>2013-09-15T08:29:40.000Z</time>
      </trkpt>
      <trkpt lat="44.87873" lon="5.56706">
        <ele>1337</ele>
        <time>2013-09-15T08:29:43.000Z</time>
      </trkpt>
      <trkpt lat="44.87878" lon="5.56708">
        <ele>1337</ele>
        <time>2013-09-15T08:29:46.000Z</time>
      </trkpt>
      <trkpt lat="44.87884" lon="5.56708">
        <ele>1337</ele>
        <time>2013-09-15T08:29:49.000Z</time>
      </trkpt>
      <trkpt lat="44.87888" lon="5.56711">
        <ele>1337</ele>
        <time>2013-09-15T08:29:52.000Z</time>
      </trkpt>
      <trkpt lat="44.87894" lon="5.56708">
        <ele>1337</ele>
        <time>2013-09-15T08:29:55.000Z</time>
      </trkpt>
      <trkpt lat="44.87899" lon="5.56708">
        <ele>1338</ele>
        <time>2013-09-15T08:29:58.000Z</time>
      </trkpt>
      <trkpt lat="44.87904" lon="5.56708">
        <ele>1338</ele>
        <time>2013-09-15T08:30:01.000Z</time>
      </trkpt>
      <trkpt lat="44.8791" lon="5.56708">
        <ele>1338</ele>
        <time>2013-09-15T08:30:04.000Z</time>
      </trkpt>
      <trkpt lat="44.87914" lon="5.56704">
        <ele>1339</ele>
        <time>2013-09-15T08:30:06.000Z</time>
      </trkpt>
      <trkpt lat="44.87919" lon="5.567">
        <ele>1339</ele>
        <time>2013-09-15T08:30:09.000Z</time>
      </trkpt>
      <trkpt lat="44.87924" lon="5.56696">
        <ele>1340</ele>
        <time>2013-09-15T08:30:11.000Z</time>
      </trkpt>
      <trkpt lat="44.87928" lon="5.56691">
        <ele>1340</ele>
        <time>2013-09-15T08:30:13.000Z</time>
      </trkpt>
      <trkpt lat="44.87933" lon="5.56687">
        <ele>1341</ele>
        <time>2013-09-15T08:30:16.000Z</time>
      </trkpt>
      <trkpt lat="44.87938" lon="5.56685">
        <ele>1341</ele>
        <time>2013-09-15T08:30:18.000Z</time>
      </trkpt>
      <trkpt lat="44.87942" lon="5.56683">
        <ele>1342</ele>
        <time>2013-09-15T08:30:21.000Z</time>
      </trkpt>
      <trkpt lat="44.87946" lon="5.56681">
        <ele>1343</ele>
        <time>2013-09-15T08:30:23.000Z</time>
      </trkpt>
      <trkpt lat="44.8795" lon="5.56678">
        <ele>1343</ele>
        <time>2013-09-15T08:30:26.000Z</time>
      </trkpt>
      <trkpt lat="44.87956" lon="5.56678">
        <ele>1344</ele>
        <time>2013-09-15T08:30:29.000Z</time>
      </trkpt>
      <trkpt lat="44.8796" lon="5.56676">
        <ele>1345</ele>
        <time>2013-09-15T08:30:32.000Z</time>
      </trkpt>
      <trkpt lat="44.87965" lon="5.56676">
        <ele>1345</ele>
        <time>2013-09-15T08:30:36.000Z</time>
      </trkpt>
      <trkpt lat="44.87971" lon="5.56674">
        <ele>1346</ele>
        <time>2013-09-15T08:30:40.000Z</time>
      </trkpt>
      <trkpt lat="44.87976" lon="5.56674">
        <ele>1347</ele>
        <time>2013-09-15T08:30:44.000Z</time>
      </trkpt>
      <trkpt lat="44.8798" lon="5.56676">
        <ele>1347</ele>
        <time>2013-09-15T08:30:47.000Z</time>
      </trkpt>
      <trkpt lat="44.87985" lon="5.56678">
        <ele>1348</ele>
        <time>2013-09-15T08:30:51.000Z</time>
      </trkpt>
      <trkpt lat="44.87989" lon="5.56681">
        <ele>1349</ele>
        <time>2013-09-15T08:30:54.000Z</time>
      </trkpt>
      <trkpt lat="44.87992" lon="5.56685">
        <ele>1349</ele>
        <time>2013-09-15T08:30:57.000Z</time>
      </trkpt>
      <trkpt lat="44.87996" lon="5.56687">
        <ele>1350</ele>
        <time>2013-09-15T08:31:01.000Z</time>
      </trkpt>
      <trkpt lat="44.88001" lon="5.56691">
        <ele>1350</ele>
        <time>2013-09-15T08:31:04.000Z</time>
      </trkpt>
      <trkpt lat="44.88005" lon="5.56696">
        <ele>1351</ele>
        <time>2013-09-15T08:31:08.000Z</time>
      </trkpt>
      <trkpt lat="44.88009" lon="5.56698">
        <ele>1351</ele>
        <time>2013-09-15T08:31:11.000Z</time>
      </trkpt>
      <trkpt lat="44.88014" lon="5.567">
        <ele>1352</ele>
        <time>2013-09-15T08:31:15.000Z</time>
      </trkpt>
      <trkpt lat="44.88018" lon="5.56702">
        <ele>1352</ele>
        <time>2013-09-15T08:31:18.000Z</time>
      </trkpt>
      <trkpt lat="44.88022" lon="5.56704">
        <ele>1353</ele>
        <time>2013-09-15T08:31:21.000Z</time>
      </trkpt>
      <trkpt lat="44.88028" lon="5.56706">
        <ele>1353</ele>
        <time>2013-09-15T08:31:25.000Z</time>
      </trkpt>
      <trkpt lat="44.88033" lon="5.56708">
        <ele>1354</ele>
        <time>2013-09-15T08:31:29.000Z</time>
      </trkpt>
      <trkpt lat="44.88038" lon="5.56708">
        <ele>1355</ele>
        <time>2013-09-15T08:31:34.000Z</time>
      </trkpt>
      <trkpt lat="44.88043" lon="5.56711">
        <ele>1355</ele>
        <time>2013-09-15T08:31:37.000Z</time>
      </trkpt>
      <trkpt lat="44.88049" lon="5.56711">
        <ele>1356</ele>
        <time>2013-09-15T08:31:41.000Z</time>
      </trkpt>
      <trkpt lat="44.88056" lon="5.56711">
        <ele>1356</ele>
        <time>2013-09-15T08:31:45.000Z</time>
      </trkpt>
      <trkpt lat="44.88061" lon="5.56711">
        <ele>1356</ele>
        <time>2013-09-15T08:31:49.000Z</time>
      </trkpt>
      <trkpt lat="44.88066" lon="5.56711">
        <ele>1357</ele>
        <time>2013-09-15T08:31:52.000Z</time>
      </trkpt>
      <trkpt lat="44.88071" lon="5.56708">
        <ele>1357</ele>
        <time>2013-09-15T08:31:55.000Z</time>
      </trkpt>
      <trkpt lat="44.88076" lon="5.56708">
        <ele>1357</ele>
        <time>2013-09-15T08:31:59.000Z</time>
      </trkpt>
      <trkpt lat="44.88081" lon="5.56708">
        <ele>1358</ele>
        <time>2013-09-15T08:32:03.000Z</time>
      </trkpt>
      <trkpt lat="44.88087" lon="5.56708">
        <ele>1358</ele>
        <time>2013-09-15T08:32:06.000Z</time>
      </trkpt>
      <trkpt lat="44.88092" lon="5.56711">
        <ele>1359</ele>
        <time>2013-09-15T08:32:10.000Z</time>
      </trkpt>
      <trkpt lat="44.88098" lon="5.56711">
        <ele>1359</ele>
        <time>2013-09-15T08:32:14.000Z</time>
      </trkpt>
      <trkpt lat="44.88103" lon="5.56713">
        <ele>1359</ele>
        <time>2013-09-15T08:32:17.000Z</time>
      </trkpt>
      <trkpt lat="44.88107" lon="5.56715">
        <ele>1360</ele>
        <time>2013-09-15T08:32:20.000Z</time>
      </trkpt>
      <trkpt lat="44.88112" lon="5.56717">
        <ele>1360</ele>
        <time>2013-09-15T08:32:24.000Z</time>
      </trkpt>
      <trkpt lat="44.88118" lon="5.56719">
        <ele>1361</ele>
        <time>2013-09-15T08:32:28.000Z</time>
      </trkpt>
      <trkpt lat="44.88123" lon="5.56719">
        <ele>1361</ele>
        <time>2013-09-15T08:32:32.000Z</time>
      </trkpt>
      <trkpt lat="44.88127" lon="5.56717">
        <ele>1362</ele>
        <time>2013-09-15T08:32:35.000Z</time>
      </trkpt>
      <trkpt lat="44.88133" lon="5.56715">
        <ele>1363</ele>
        <time>2013-09-15T08:32:39.000Z</time>
      </trkpt>
      <trkpt lat="44.88138" lon="5.56713">
        <ele>1364</ele>
        <time>2013-09-15T08:32:43.000Z</time>
      </trkpt>
      <trkpt lat="44.88142" lon="5.56711">
        <ele>1365</ele>
        <time>2013-09-15T08:32:46.000Z</time>
      </trkpt>
      <trkpt lat="44.88148" lon="5.56708">
        <ele>1366</ele>
        <time>2013-09-15T08:32:50.000Z</time>
      </trkpt>
      <trkpt lat="44.88154" lon="5.56706">
        <ele>1367</ele>
        <time>2013-09-15T08:32:53.000Z</time>
      </trkpt>
      <trkpt lat="44.8816" lon="5.56706">
        <ele>1368</ele>
        <time>2013-09-15T08:32:55.000Z</time>
      </trkpt>
      <trkpt lat="44.88165" lon="5.56702">
        <ele>1369</ele>
        <time>2013-09-15T08:32:57.000Z</time>
      </trkpt>
      <trkpt lat="44.88169" lon="5.567">
        <ele>1369</ele>
        <time>2013-09-15T08:32:59.000Z</time>
      </trkpt>
      <trkpt lat="44.88174" lon="5.56696">
        <ele>1370</ele>
        <time>2013-09-15T08:33:01.000Z</time>
      </trkpt>
      <trkpt lat="44.88178" lon="5.56694">
        <ele>1371</ele>
        <time>2013-09-15T08:33:03.000Z</time>
      </trkpt>
      <trkpt lat="44.88183" lon="5.56691">
        <ele>1373</ele>
        <time>2013-09-15T08:33:06.000Z</time>
      </trkpt>
      <trkpt lat="44.88188" lon="5.56687">
        <ele>1374</ele>
        <time>2013-09-15T08:33:09.000Z</time>
      </trkpt>
      <trkpt lat="44.88192" lon="5.56685">
        <ele>1378</ele>
        <time>2013-09-15T08:33:49.000Z</time>
      </trkpt>
      <trkpt lat="44.88192" lon="5.56685">
        <ele>1378</ele>
        <time>2013-09-15T08:33:49.000Z</time>
      </trkpt>
      <trkpt lat="44.88192" lon="5.56685">
        <ele>1378</ele>
        <time>2013-09-15T08:33:57.000Z</time>
      </trkpt>
      <trkpt lat="44.88191" lon="5.56678">
        <ele>1378</ele>
        <time>2013-09-15T08:34:01.000Z</time>
      </trkpt>
      <trkpt lat="44.88189" lon="5.56672">
        <ele>1382</ele>
        <time>2013-09-15T08:34:08.000Z</time>
      </trkpt>
      <trkpt lat="44.88188" lon="5.56666">
        <ele>1385</ele>
        <time>2013-09-15T08:34:55.000Z</time>
      </trkpt>
      <trkpt lat="44.88188" lon="5.56666">
        <ele>1385</ele>
        <time>2013-09-15T08:34:55.000Z</time>
      </trkpt>
      <trkpt lat="44.88188" lon="5.56666">
        <ele>1386</ele>
        <time>2013-09-15T08:35:12.000Z</time>
      </trkpt>
      <trkpt lat="44.88192" lon="5.56668">
        <ele>1386</ele>
        <time>2013-09-15T08:35:55.000Z</time>
      </trkpt>
      <trkpt lat="44.88192" lon="5.56668">
        <ele>1386</ele>
        <time>2013-09-15T08:35:55.000Z</time>
      </trkpt>
      <trkpt lat="44.88192" lon="5.56668">
        <ele>1386</ele>
        <time>2013-09-15T08:36:08.000Z</time>
      </trkpt>
      <trkpt lat="44.88194" lon="5.56674">
        <ele>1387</ele>
        <time>2013-09-15T08:36:22.000Z</time>
      </trkpt>
      <trkpt lat="44.88197" lon="5.56678">
        <ele>1390</ele>
        <time>2013-09-15T08:36:49.000Z</time>
      </trkpt>
      <trkpt lat="44.88201" lon="5.56683">
        <ele>1390</ele>
        <time>2013-09-15T08:36:51.000Z</time>
      </trkpt>
      <trkpt lat="44.88207" lon="5.56683">
        <ele>1391</ele>
        <time>2013-09-15T08:36:53.000Z</time>
      </trkpt>
      <trkpt lat="44.88211" lon="5.56685">
        <ele>1391</ele>
        <time>2013-09-15T08:36:55.000Z</time>
      </trkpt>
      <trkpt lat="44.88218" lon="5.56687">
        <ele>1392</ele>
        <time>2013-09-15T08:36:58.000Z</time>
      </trkpt>
      <trkpt lat="44.88223" lon="5.56687">
        <ele>1392</ele>
        <time>2013-09-15T08:37:00.000Z</time>
      </trkpt>
      <trkpt lat="44.88228" lon="5.56689">
        <ele>1393</ele>
        <time>2013-09-15T08:37:02.000Z</time>
      </trkpt>
      <trkpt lat="44.88234" lon="5.56691">
        <ele>1394</ele>
        <time>2013-09-15T08:37:04.000Z</time>
      </trkpt>
      <trkpt lat="44.8824" lon="5.56691">
        <ele>1394</ele>
        <time>2013-09-15T08:37:06.000Z</time>
      </trkpt>
      <trkpt lat="44.88248" lon="5.56694">
        <ele>1397</ele>
        <time>2013-09-15T08:37:08.000Z</time>
      </trkpt>
      <trkpt lat="44.88256" lon="5.56696">
        <ele>1401</ele>
        <time>2013-09-15T08:37:10.000Z</time>
      </trkpt>
      <trkpt lat="44.88262" lon="5.56696">
        <ele>1403</ele>
        <time>2013-09-15T08:37:11.000Z</time>
      </trkpt>
      <trkpt lat="44.88266" lon="5.56698">
        <ele>1404</ele>
        <time>2013-09-15T08:37:12.000Z</time>
      </trkpt>
      <trkpt lat="44.88273" lon="5.56698">
        <ele>1405</ele>
        <time>2013-09-15T08:37:14.000Z</time>
      </trkpt>
      <trkpt lat="44.88273" lon="5.56698">
        <ele>1405</ele>
        <time>2013-09-15T08:37:14.000Z</time>
      </trkpt>
      <trkpt lat="44.88273" lon="5.56698">
        <ele>1405</ele>
        <time>2013-09-15T08:37:16.000Z</time>
      </trkpt>
      <trkpt lat="44.88278" lon="5.567">
        <ele>1405</ele>
        <time>2013-09-15T08:37:17.000Z</time>
      </trkpt>
      <trkpt lat="44.88278" lon="5.567">
        <ele>1405</ele>
        <time>2013-09-15T08:37:17.000Z</time>
      </trkpt>
      <trkpt lat="44.88278" lon="5.567">
        <ele>1405</ele>
        <time>2013-09-15T08:37:27.000Z</time>
      </trkpt>
      <trkpt lat="44.88283" lon="5.56698">
        <ele>1405</ele>
        <time>2013-09-15T08:37:28.000Z</time>
      </trkpt>
      <trkpt lat="44.88287" lon="5.56694">
        <ele>1405</ele>
        <time>2013-09-15T08:37:30.000Z</time>
      </trkpt>
      <trkpt lat="44.88287" lon="5.56694">
        <ele>1405</ele>
        <time>2013-09-15T08:37:30.000Z</time>
      </trkpt>
      <trkpt lat="44.88287" lon="5.56694">
        <ele>1405</ele>
        <time>2013-09-15T08:37:34.000Z</time>
      </trkpt>
      <trkpt lat="44.88296" lon="5.56687">
        <ele>1405</ele>
        <time>2013-09-15T08:37:35.000Z</time>
      </trkpt>
      <trkpt lat="44.88302" lon="5.56687">
        <ele>1405</ele>
        <time>2013-09-15T08:37:38.000Z</time>
      </trkpt>
      <trkpt lat="44.88308" lon="5.56685">
        <ele>1405</ele>
        <time>2013-09-15T08:37:40.000Z</time>
      </trkpt>
      <trkpt lat="44.88312" lon="5.56683">
        <ele>1405</ele>
        <time>2013-09-15T08:37:42.000Z</time>
      </trkpt>
      <trkpt lat="44.88316" lon="5.56681">
        <ele>1405</ele>
        <time>2013-09-15T08:37:44.000Z</time>
      </trkpt>
      <trkpt lat="44.88322" lon="5.56678">
        <ele>1405</ele>
        <time>2013-09-15T08:37:46.000Z</time>
      </trkpt>
      <trkpt lat="44.88327" lon="5.56676">
        <ele>1405</ele>
        <time>2013-09-15T08:37:48.000Z</time>
      </trkpt>
      <trkpt lat="44.88332" lon="5.56674">
        <ele>1405</ele>
        <time>2013-09-15T08:37:50.000Z</time>
      </trkpt>
      <trkpt lat="44.88338" lon="5.56672">
        <ele>1405</ele>
        <time>2013-09-15T08:37:52.000Z</time>
      </trkpt>
      <trkpt lat="44.88343" lon="5.5667">
        <ele>1405</ele>
        <time>2013-09-15T08:37:54.000Z</time>
      </trkpt>
      <trkpt lat="44.88348" lon="5.5667">
        <ele>1405</ele>
        <time>2013-09-15T08:37:56.000Z</time>
      </trkpt>
      <trkpt lat="44.88353" lon="5.56668">
        <ele>1405</ele>
        <time>2013-09-15T08:37:58.000Z</time>
      </trkpt>
      <trkpt lat="44.88358" lon="5.56666">
        <ele>1405</ele>
        <time>2013-09-15T08:38:00.000Z</time>
      </trkpt>
      <trkpt lat="44.88364" lon="5.56664">
        <ele>1405</ele>
        <time>2013-09-15T08:38:02.000Z</time>
      </trkpt>
      <trkpt lat="44.88368" lon="5.56661">
        <ele>1405</ele>
        <time>2013-09-15T08:38:04.000Z</time>
      </trkpt>
      <trkpt lat="44.88376" lon="5.56657">
        <ele>1405</ele>
        <time>2013-09-15T08:38:08.000Z</time>
      </trkpt>
      <trkpt lat="44.88381" lon="5.56655">
        <ele>1405</ele>
        <time>2013-09-15T08:38:10.000Z</time>
      </trkpt>
      <trkpt lat="44.88385" lon="5.56653">
        <ele>1405</ele>
        <time>2013-09-15T08:38:12.000Z</time>
      </trkpt>
      <trkpt lat="44.88389" lon="5.56651">
        <ele>1405</ele>
        <time>2013-09-15T08:38:14.000Z</time>
      </trkpt>
      <trkpt lat="44.88395" lon="5.56648">
        <ele>1405</ele>
        <time>2013-09-15T08:38:16.000Z</time>
      </trkpt>
      <trkpt lat="44.88402" lon="5.56648">
        <ele>1405</ele>
        <time>2013-09-15T08:38:19.000Z</time>
      </trkpt>
      <trkpt lat="44.88407" lon="5.56648">
        <ele>1405</ele>
        <time>2013-09-15T08:38:21.000Z</time>
      </trkpt>
      <trkpt lat="44.88413" lon="5.56648">
        <ele>1405</ele>
        <time>2013-09-15T08:38:23.000Z</time>
      </trkpt>
      <trkpt lat="44.88418" lon="5.56648">
        <ele>1405</ele>
        <time>2013-09-15T08:38:25.000Z</time>
      </trkpt>
      <trkpt lat="44.88425" lon="5.56651">
        <ele>1405</ele>
        <time>2013-09-15T08:38:27.000Z</time>
      </trkpt>
      <trkpt lat="44.88431" lon="5.56655">
        <ele>1405</ele>
        <time>2013-09-15T08:38:29.000Z</time>
      </trkpt>
      <trkpt lat="44.88439" lon="5.56659">
        <ele>1405</ele>
        <time>2013-09-15T08:38:31.000Z</time>
      </trkpt>
      <trkpt lat="44.88443" lon="5.56661">
        <ele>1405</ele>
        <time>2013-09-15T08:38:32.000Z</time>
      </trkpt>
      <trkpt lat="44.88447" lon="5.56664">
        <ele>1406</ele>
        <time>2013-09-15T08:38:33.000Z</time>
      </trkpt>
      <trkpt lat="44.88451" lon="5.56666">
        <ele>1407</ele>
        <time>2013-09-15T08:38:34.000Z</time>
      </trkpt>
      <trkpt lat="44.88456" lon="5.5667">
        <ele>1407</ele>
        <time>2013-09-15T08:38:35.000Z</time>
      </trkpt>
      <trkpt lat="44.8846" lon="5.56672">
        <ele>1408</ele>
        <time>2013-09-15T08:38:36.000Z</time>
      </trkpt>
      <trkpt lat="44.88465" lon="5.56676">
        <ele>1408</ele>
        <time>2013-09-15T08:38:37.000Z</time>
      </trkpt>
      <trkpt lat="44.8847" lon="5.56681">
        <ele>1408</ele>
        <time>2013-09-15T08:38:38.000Z</time>
      </trkpt>
      <trkpt lat="44.88475" lon="5.56683">
        <ele>1408</ele>
        <time>2013-09-15T08:38:39.000Z</time>
      </trkpt>
      <trkpt lat="44.8848" lon="5.56687">
        <ele>1408</ele>
        <time>2013-09-15T08:38:40.000Z</time>
      </trkpt>
      <trkpt lat="44.88485" lon="5.56689">
        <ele>1409</ele>
        <time>2013-09-15T08:38:41.000Z</time>
      </trkpt>
      <trkpt lat="44.88489" lon="5.56691">
        <ele>1409</ele>
        <time>2013-09-15T08:38:42.000Z</time>
      </trkpt>
      <trkpt lat="44.88493" lon="5.56694">
        <ele>1409</ele>
        <time>2013-09-15T08:38:43.000Z</time>
      </trkpt>
      <trkpt lat="44.88499" lon="5.56694">
        <ele>1409</ele>
        <time>2013-09-15T08:38:44.000Z</time>
      </trkpt>
      <trkpt lat="44.88503" lon="5.56696">
        <ele>1409</ele>
        <time>2013-09-15T08:38:45.000Z</time>
      </trkpt>
      <trkpt lat="44.88512" lon="5.56696">
        <ele>1410</ele>
        <time>2013-09-15T08:38:47.000Z</time>
      </trkpt>
      <trkpt lat="44.88519" lon="5.56696">
        <ele>1410</ele>
        <time>2013-09-15T08:38:49.000Z</time>
      </trkpt>
      <trkpt lat="44.88526" lon="5.56696">
        <ele>1410</ele>
        <time>2013-09-15T08:38:51.000Z</time>
      </trkpt>
      <trkpt lat="44.88534" lon="5.56696">
        <ele>1410</ele>
        <time>2013-09-15T08:38:53.000Z</time>
      </trkpt>
      <trkpt lat="44.8854" lon="5.56696">
        <ele>1410</ele>
        <time>2013-09-15T08:38:55.000Z</time>
      </trkpt>
      <trkpt lat="44.88546" lon="5.56694">
        <ele>1410</ele>
        <time>2013-09-15T08:38:57.000Z</time>
      </trkpt>
      <trkpt lat="44.88551" lon="5.56689">
        <ele>1410</ele>
        <time>2013-09-15T08:38:59.000Z</time>
      </trkpt>
      <trkpt lat="44.88557" lon="5.56687">
        <ele>1410</ele>
        <time>2013-09-15T08:39:01.000Z</time>
      </trkpt>
      <trkpt lat="44.88562" lon="5.56683">
        <ele>1410</ele>
        <time>2013-09-15T08:39:03.000Z</time>
      </trkpt>
      <trkpt lat="44.88566" lon="5.56678">
        <ele>1410</ele>
        <time>2013-09-15T08:39:05.000Z</time>
      </trkpt>
      <trkpt lat="44.88573" lon="5.56674">
        <ele>1410</ele>
        <time>2013-09-15T08:39:07.000Z</time>
      </trkpt>
      <trkpt lat="44.88578" lon="5.5667">
        <ele>1410</ele>
        <time>2013-09-15T08:39:09.000Z</time>
      </trkpt>
      <trkpt lat="44.88583" lon="5.56666">
        <ele>1410</ele>
        <time>2013-09-15T08:39:11.000Z</time>
      </trkpt>
      <trkpt lat="44.88588" lon="5.56661">
        <ele>1410</ele>
        <time>2013-09-15T08:39:13.000Z</time>
      </trkpt>
      <trkpt lat="44.88593" lon="5.56655">
        <ele>1410</ele>
        <time>2013-09-15T08:39:15.000Z</time>
      </trkpt>
      <trkpt lat="44.88597" lon="5.56646">
        <ele>1410</ele>
        <time>2013-09-15T08:39:17.000Z</time>
      </trkpt>
      <trkpt lat="44.88601" lon="5.56638">
        <ele>1410</ele>
        <time>2013-09-15T08:39:19.000Z</time>
      </trkpt>
      <trkpt lat="44.88603" lon="5.56631">
        <ele>1410</ele>
        <time>2013-09-15T08:39:20.000Z</time>
      </trkpt>
      <trkpt lat="44.88606" lon="5.5662">
        <ele>1409</ele>
        <time>2013-09-15T08:39:22.000Z</time>
      </trkpt>
      <trkpt lat="44.88608" lon="5.56614">
        <ele>1408</ele>
        <time>2013-09-15T08:39:23.000Z</time>
      </trkpt>
      <trkpt lat="44.8861" lon="5.56608">
        <ele>1407</ele>
        <time>2013-09-15T08:39:24.000Z</time>
      </trkpt>
      <trkpt lat="44.88612" lon="5.56601">
        <ele>1407</ele>
        <time>2013-09-15T08:39:25.000Z</time>
      </trkpt>
      <trkpt lat="44.88617" lon="5.56599">
        <ele>1407</ele>
        <time>2013-09-15T08:39:26.000Z</time>
      </trkpt>
      <trkpt lat="44.88623" lon="5.56597">
        <ele>1407</ele>
        <time>2013-09-15T08:39:28.000Z</time>
      </trkpt>
      <trkpt lat="44.88628" lon="5.56601">
        <ele>1407</ele>
        <time>2013-09-15T08:39:30.000Z</time>
      </trkpt>
      <trkpt lat="44.88634" lon="5.56603">
        <ele>1406</ele>
        <time>2013-09-15T08:39:32.000Z</time>
      </trkpt>
      <trkpt lat="44.88638" lon="5.56608">
        <ele>1406</ele>
        <time>2013-09-15T08:39:34.000Z</time>
      </trkpt>
      <trkpt lat="44.88642" lon="5.5661">
        <ele>1406</ele>
        <time>2013-09-15T08:39:36.000Z</time>
      </trkpt>
      <trkpt lat="44.88646" lon="5.56614">
        <ele>1406</ele>
        <time>2013-09-15T08:39:38.000Z</time>
      </trkpt>
      <trkpt lat="44.88654" lon="5.5662">
        <ele>1406</ele>
        <time>2013-09-15T08:39:43.000Z</time>
      </trkpt>
      <trkpt lat="44.88658" lon="5.56623">
        <ele>1406</ele>
        <time>2013-09-15T08:39:46.000Z</time>
      </trkpt>
      <trkpt lat="44.88658" lon="5.56623">
        <ele>1406</ele>
        <time>2013-09-15T08:39:46.000Z</time>
      </trkpt>
      <trkpt lat="44.88658" lon="5.56623">
        <ele>1406</ele>
        <time>2013-09-15T08:39:48.000Z</time>
      </trkpt>
      <trkpt lat="44.88664" lon="5.56623">
        <ele>1406</ele>
        <time>2013-09-15T08:39:49.000Z</time>
      </trkpt>
      <trkpt lat="44.88664" lon="5.56623">
        <ele>1406</ele>
        <time>2013-09-15T08:39:49.000Z</time>
      </trkpt>
      <trkpt lat="44.88664" lon="5.56623">
        <ele>1406</ele>
        <time>2013-09-15T08:39:51.000Z</time>
      </trkpt>
      <trkpt lat="44.88668" lon="5.56618">
        <ele>1406</ele>
        <time>2013-09-15T08:39:52.000Z</time>
      </trkpt>
      <trkpt lat="44.88668" lon="5.56618">
        <ele>1406</ele>
        <time>2013-09-15T08:39:52.000Z</time>
      </trkpt>
      <trkpt lat="44.88668" lon="5.56618">
        <ele>1406</ele>
        <time>2013-09-15T08:39:54.000Z</time>
      </trkpt>
      <trkpt lat="44.88674" lon="5.56616">
        <ele>1406</ele>
        <time>2013-09-15T08:39:55.000Z</time>
      </trkpt>
      <trkpt lat="44.88674" lon="5.56616">
        <ele>1406</ele>
        <time>2013-09-15T08:39:55.000Z</time>
      </trkpt>
      <trkpt lat="44.88674" lon="5.56616">
        <ele>1406</ele>
        <time>2013-09-15T08:40:00.000Z</time>
      </trkpt>
      <trkpt lat="44.88681" lon="5.5661">
        <ele>1406</ele>
        <time>2013-09-15T08:40:01.000Z</time>
      </trkpt>
      <trkpt lat="44.88681" lon="5.5661">
        <ele>1406</ele>
        <time>2013-09-15T08:40:01.000Z</time>
      </trkpt>
      <trkpt lat="44.88681" lon="5.5661">
        <ele>1406</ele>
        <time>2013-09-15T08:40:07.000Z</time>
      </trkpt>
      <trkpt lat="44.88688" lon="5.56599">
        <ele>1407</ele>
        <time>2013-09-15T08:40:08.000Z</time>
      </trkpt>
      <trkpt lat="44.88688" lon="5.56599">
        <ele>1407</ele>
        <time>2013-09-15T08:40:08.000Z</time>
      </trkpt>
      <trkpt lat="44.88688" lon="5.56599">
        <ele>1407</ele>
        <time>2013-09-15T08:40:13.000Z</time>
      </trkpt>
      <trkpt lat="44.88696" lon="5.5659">
        <ele>1407</ele>
        <time>2013-09-15T08:40:14.000Z</time>
      </trkpt>
      <trkpt lat="44.88696" lon="5.5659">
        <ele>1407</ele>
        <time>2013-09-15T08:40:14.000Z</time>
      </trkpt>
      <trkpt lat="44.88696" lon="5.5659">
        <ele>1407</ele>
        <time>2013-09-15T08:40:17.000Z</time>
      </trkpt>
      <trkpt lat="44.88704" lon="5.56582">
        <ele>1407</ele>
        <time>2013-09-15T08:40:18.000Z</time>
      </trkpt>
      <trkpt lat="44.88704" lon="5.56582">
        <ele>1407</ele>
        <time>2013-09-15T08:40:18.000Z</time>
      </trkpt>
      <trkpt lat="44.88704" lon="5.56582">
        <ele>1407</ele>
        <time>2013-09-15T08:40:20.000Z</time>
      </trkpt>
      <trkpt lat="44.88709" lon="5.56576">
        <ele>1407</ele>
        <time>2013-09-15T08:40:21.000Z</time>
      </trkpt>
      <trkpt lat="44.88714" lon="5.56571">
        <ele>1408</ele>
        <time>2013-09-15T08:40:23.000Z</time>
      </trkpt>
      <trkpt lat="44.88721" lon="5.56567">
        <ele>1408</ele>
        <time>2013-09-15T08:40:25.000Z</time>
      </trkpt>
      <trkpt lat="44.88725" lon="5.56563">
        <ele>1408</ele>
        <time>2013-09-15T08:40:27.000Z</time>
      </trkpt>
      <trkpt lat="44.88729" lon="5.56558">
        <ele>1408</ele>
        <time>2013-09-15T08:40:29.000Z</time>
      </trkpt>
      <trkpt lat="44.88734" lon="5.56556">
        <ele>1408</ele>
        <time>2013-09-15T08:40:31.000Z</time>
      </trkpt>
      <trkpt lat="44.88738" lon="5.56552">
        <ele>1408</ele>
        <time>2013-09-15T08:40:33.000Z</time>
      </trkpt>
      <trkpt lat="44.88743" lon="5.56548">
        <ele>1408</ele>
        <time>2013-09-15T08:40:35.000Z</time>
      </trkpt>
      <trkpt lat="44.88749" lon="5.56543">
        <ele>1408</ele>
        <time>2013-09-15T08:40:37.000Z</time>
      </trkpt>
      <trkpt lat="44.88754" lon="5.56537">
        <ele>1408</ele>
        <time>2013-09-15T08:40:39.000Z</time>
      </trkpt>
      <trkpt lat="44.88758" lon="5.5653">
        <ele>1408</ele>
        <time>2013-09-15T08:40:41.000Z</time>
      </trkpt>
      <trkpt lat="44.88764" lon="5.56524">
        <ele>1408</ele>
        <time>2013-09-15T08:40:43.000Z</time>
      </trkpt>
      <trkpt lat="44.88769" lon="5.56518">
        <ele>1408</ele>
        <time>2013-09-15T08:40:45.000Z</time>
      </trkpt>
      <trkpt lat="44.88774" lon="5.56511">
        <ele>1408</ele>
        <time>2013-09-15T08:40:47.000Z</time>
      </trkpt>
      <trkpt lat="44.88782" lon="5.56509">
        <ele>1408</ele>
        <time>2013-09-15T08:40:49.000Z</time>
      </trkpt>
      <trkpt lat="44.88789" lon="5.56509">
        <ele>1408</ele>
        <time>2013-09-15T08:40:51.000Z</time>
      </trkpt>
      <trkpt lat="44.88798" lon="5.56511">
        <ele>1408</ele>
        <time>2013-09-15T08:40:53.000Z</time>
      </trkpt>
      <trkpt lat="44.88803" lon="5.56515">
        <ele>1408</ele>
        <time>2013-09-15T08:40:55.000Z</time>
      </trkpt>
      <trkpt lat="44.88809" lon="5.5652">
        <ele>1408</ele>
        <time>2013-09-15T08:40:57.000Z</time>
      </trkpt>
      <trkpt lat="44.88813" lon="5.56524">
        <ele>1408</ele>
        <time>2013-09-15T08:40:59.000Z</time>
      </trkpt>
      <trkpt lat="44.88818" lon="5.5653">
        <ele>1408</ele>
        <time>2013-09-15T08:41:01.000Z</time>
      </trkpt>
      <trkpt lat="44.88824" lon="5.56535">
        <ele>1408</ele>
        <time>2013-09-15T08:41:03.000Z</time>
      </trkpt>
      <trkpt lat="44.88829" lon="5.56537">
        <ele>1408</ele>
        <time>2013-09-15T08:41:05.000Z</time>
      </trkpt>
      <trkpt lat="44.88834" lon="5.56541">
        <ele>1409</ele>
        <time>2013-09-15T08:41:07.000Z</time>
      </trkpt>
      <trkpt lat="44.88834" lon="5.56541">
        <ele>1409</ele>
        <time>2013-09-15T08:41:07.000Z</time>
      </trkpt>
      <trkpt lat="44.88834" lon="5.56541">
        <ele>1409</ele>
        <time>2013-09-15T08:41:12.000Z</time>
      </trkpt>
      <trkpt lat="44.88845" lon="5.56541">
        <ele>1409</ele>
        <time>2013-09-15T08:41:13.000Z</time>
      </trkpt>
      <trkpt lat="44.88845" lon="5.56541">
        <ele>1409</ele>
        <time>2013-09-15T08:41:13.000Z</time>
      </trkpt>
      <trkpt lat="44.88845" lon="5.56541">
        <ele>1409</ele>
        <time>2013-09-15T08:41:15.000Z</time>
      </trkpt>
      <trkpt lat="44.88852" lon="5.56541">
        <ele>1409</ele>
        <time>2013-09-15T08:41:16.000Z</time>
      </trkpt>
      <trkpt lat="44.88852" lon="5.56541">
        <ele>1409</ele>
        <time>2013-09-15T08:41:16.000Z</time>
      </trkpt>
      <trkpt lat="44.88852" lon="5.56541">
        <ele>1409</ele>
        <time>2013-09-15T08:41:18.000Z</time>
      </trkpt>
      <trkpt lat="44.88859" lon="5.56541">
        <ele>1409</ele>
        <time>2013-09-15T08:41:19.000Z</time>
      </trkpt>
      <trkpt lat="44.88864" lon="5.56541">
        <ele>1409</ele>
        <time>2013-09-15T08:41:21.000Z</time>
      </trkpt>
      <trkpt lat="44.88871" lon="5.56539">
        <ele>1409</ele>
        <time>2013-09-15T08:41:23.000Z</time>
      </trkpt>
      <trkpt lat="44.88877" lon="5.56537">
        <ele>1409</ele>
        <time>2013-09-15T08:41:25.000Z</time>
      </trkpt>
      <trkpt lat="44.88885" lon="5.56535">
        <ele>1410</ele>
        <time>2013-09-15T08:41:27.000Z</time>
      </trkpt>
      <trkpt lat="44.88892" lon="5.56533">
        <ele>1410</ele>
        <time>2013-09-15T08:41:29.000Z</time>
      </trkpt>
      <trkpt lat="44.88899" lon="5.56528">
        <ele>1410</ele>
        <time>2013-09-15T08:41:31.000Z</time>
      </trkpt>
      <trkpt lat="44.88903" lon="5.56526">
        <ele>1410</ele>
        <time>2013-09-15T08:41:32.000Z</time>
      </trkpt>
      <trkpt lat="44.8891" lon="5.56522">
        <ele>1410</ele>
        <time>2013-09-15T08:41:34.000Z</time>
      </trkpt>
      <trkpt lat="44.88915" lon="5.56518">
        <ele>1410</ele>
        <time>2013-09-15T08:41:36.000Z</time>
      </trkpt>
      <trkpt lat="44.88915" lon="5.56518">
        <ele>1410</ele>
        <time>2013-09-15T08:41:36.000Z</time>
      </trkpt>
      <trkpt lat="44.88915" lon="5.56518">
        <ele>1410</ele>
        <time>2013-09-15T08:41:38.000Z</time>
      </trkpt>
      <trkpt lat="44.88919" lon="5.56511">
        <ele>1410</ele>
        <time>2013-09-15T08:41:39.000Z</time>
      </trkpt>
      <trkpt lat="44.88924" lon="5.56509">
        <ele>1410</ele>
        <time>2013-09-15T08:41:41.000Z</time>
      </trkpt>
      <trkpt lat="44.88924" lon="5.56509">
        <ele>1410</ele>
        <time>2013-09-15T08:41:41.000Z</time>
      </trkpt>
      <trkpt lat="44.88924" lon="5.56509">
        <ele>1410</ele>
        <time>2013-09-15T08:41:43.000Z</time>
      </trkpt>
      <trkpt lat="44.8893" lon="5.56507">
        <ele>1410</ele>
        <time>2013-09-15T08:41:44.000Z</time>
      </trkpt>
      <trkpt lat="44.8894" lon="5.56505">
        <ele>1410</ele>
        <time>2013-09-15T08:41:49.000Z</time>
      </trkpt>
      <trkpt lat="44.8894" lon="5.56505">
        <ele>1410</ele>
        <time>2013-09-15T08:41:49.000Z</time>
      </trkpt>
      <trkpt lat="44.8894" lon="5.56505">
        <ele>1410</ele>
        <time>2013-09-15T08:41:52.000Z</time>
      </trkpt>
      <trkpt lat="44.88947" lon="5.56502">
        <ele>1410</ele>
        <time>2013-09-15T08:41:53.000Z</time>
      </trkpt>
      <trkpt lat="44.88957" lon="5.56498">
        <ele>1410</ele>
        <time>2013-09-15T08:41:57.000Z</time>
      </trkpt>
      <trkpt lat="44.88964" lon="5.56492">
        <ele>1410</ele>
        <time>2013-09-15T08:41:59.000Z</time>
      </trkpt>
      <trkpt lat="44.8897" lon="5.56488">
        <ele>1410</ele>
        <time>2013-09-15T08:42:00.000Z</time>
      </trkpt>
      <trkpt lat="44.88975" lon="5.56481">
        <ele>1410</ele>
        <time>2013-09-15T08:42:02.000Z</time>
      </trkpt>
      <trkpt lat="44.8898" lon="5.56477">
        <ele>1410</ele>
        <time>2013-09-15T08:42:04.000Z</time>
      </trkpt>
      <trkpt lat="44.88985" lon="5.56475">
        <ele>1409</ele>
        <time>2013-09-15T08:42:05.000Z</time>
      </trkpt>
      <trkpt lat="44.88989" lon="5.5647">
        <ele>1409</ele>
        <time>2013-09-15T08:42:06.000Z</time>
      </trkpt>
      <trkpt lat="44.88993" lon="5.56468">
        <ele>1409</ele>
        <time>2013-09-15T08:42:07.000Z</time>
      </trkpt>
      <trkpt lat="44.88998" lon="5.56466">
        <ele>1408</ele>
        <time>2013-09-15T08:42:08.000Z</time>
      </trkpt>
      <trkpt lat="44.89005" lon="5.56462">
        <ele>1407</ele>
        <time>2013-09-15T08:42:10.000Z</time>
      </trkpt>
      <trkpt lat="44.8901" lon="5.5646">
        <ele>1407</ele>
        <time>2013-09-15T08:42:11.000Z</time>
      </trkpt>
      <trkpt lat="44.89015" lon="5.56458">
        <ele>1407</ele>
        <time>2013-09-15T08:42:12.000Z</time>
      </trkpt>
      <trkpt lat="44.8902" lon="5.56451">
        <ele>1407</ele>
        <time>2013-09-15T08:42:14.000Z</time>
      </trkpt>
      <trkpt lat="44.89025" lon="5.56445">
        <ele>1407</ele>
        <time>2013-09-15T08:42:16.000Z</time>
      </trkpt>
      <trkpt lat="44.8903" lon="5.56442">
        <ele>1406</ele>
        <time>2013-09-15T08:42:18.000Z</time>
      </trkpt>
      <trkpt lat="44.89036" lon="5.56438">
        <ele>1406</ele>
        <time>2013-09-15T08:42:20.000Z</time>
      </trkpt>
      <trkpt lat="44.89044" lon="5.56434">
        <ele>1406</ele>
        <time>2013-09-15T08:42:22.000Z</time>
      </trkpt>
      <trkpt lat="44.89051" lon="5.56432">
        <ele>1406</ele>
        <time>2013-09-15T08:42:24.000Z</time>
      </trkpt>
      <trkpt lat="44.89058" lon="5.56427">
        <ele>1406</ele>
        <time>2013-09-15T08:42:26.000Z</time>
      </trkpt>
      <trkpt lat="44.89063" lon="5.56423">
        <ele>1405</ele>
        <time>2013-09-15T08:42:27.000Z</time>
      </trkpt>
      <trkpt lat="44.89067" lon="5.56417">
        <ele>1405</ele>
        <time>2013-09-15T08:42:28.000Z</time>
      </trkpt>
      <trkpt lat="44.89073" lon="5.5641">
        <ele>1404</ele>
        <time>2013-09-15T08:42:29.000Z</time>
      </trkpt>
      <trkpt lat="44.89077" lon="5.56406">
        <ele>1404</ele>
        <time>2013-09-15T08:42:30.000Z</time>
      </trkpt>
      <trkpt lat="44.89081" lon="5.564">
        <ele>1403</ele>
        <time>2013-09-15T08:42:31.000Z</time>
      </trkpt>
      <trkpt lat="44.89086" lon="5.56395">
        <ele>1403</ele>
        <time>2013-09-15T08:42:32.000Z</time>
      </trkpt>
      <trkpt lat="44.8909" lon="5.56389">
        <ele>1402</ele>
        <time>2013-09-15T08:42:33.000Z</time>
      </trkpt>
      <trkpt lat="44.89097" lon="5.5638">
        <ele>1401</ele>
        <time>2013-09-15T08:42:35.000Z</time>
      </trkpt>
      <trkpt lat="44.89102" lon="5.56376">
        <ele>1401</ele>
        <time>2013-09-15T08:42:36.000Z</time>
      </trkpt>
      <trkpt lat="44.89105" lon="5.5637">
        <ele>1401</ele>
        <time>2013-09-15T08:42:37.000Z</time>
      </trkpt>
      <trkpt lat="44.89108" lon="5.56363">
        <ele>1400</ele>
        <time>2013-09-15T08:42:38.000Z</time>
      </trkpt>
      <trkpt lat="44.89111" lon="5.56357">
        <ele>1400</ele>
        <time>2013-09-15T08:42:39.000Z</time>
      </trkpt>
      <trkpt lat="44.89116" lon="5.5635">
        <ele>1400</ele>
        <time>2013-09-15T08:42:40.000Z</time>
      </trkpt>
      <trkpt lat="44.8912" lon="5.56344">
        <ele>1399</ele>
        <time>2013-09-15T08:42:42.000Z</time>
      </trkpt>
      <trkpt lat="44.8912" lon="5.56344">
        <ele>1399</ele>
        <time>2013-09-15T08:42:42.000Z</time>
      </trkpt>
      <trkpt lat="44.8912" lon="5.56344">
        <ele>1399</ele>
        <time>2013-09-15T08:42:46.000Z</time>
      </trkpt>
      <trkpt lat="44.89127" lon="5.56333">
        <ele>1398</ele>
        <time>2013-09-15T08:42:47.000Z</time>
      </trkpt>
      <trkpt lat="44.89132" lon="5.56327">
        <ele>1398</ele>
        <time>2013-09-15T08:42:48.000Z</time>
      </trkpt>
      <trkpt lat="44.89136" lon="5.5632">
        <ele>1398</ele>
        <time>2013-09-15T08:42:49.000Z</time>
      </trkpt>
      <trkpt lat="44.89141" lon="5.56314">
        <ele>1395</ele>
        <time>2013-09-15T08:42:50.000Z</time>
      </trkpt>
      <trkpt lat="44.89146" lon="5.56307">
        <ele>1392</ele>
        <time>2013-09-15T08:42:51.000Z</time>
      </trkpt>
      <trkpt lat="44.89157" lon="5.56296">
        <ele>1391</ele>
        <time>2013-09-15T08:42:55.000Z</time>
      </trkpt>
      <trkpt lat="44.89157" lon="5.56296">
        <ele>1391</ele>
        <time>2013-09-15T08:42:55.000Z</time>
      </trkpt>
      <trkpt lat="44.89157" lon="5.56296">
        <ele>1391</ele>
        <time>2013-09-15T08:42:57.000Z</time>
      </trkpt>
      <trkpt lat="44.89167" lon="5.56292">
        <ele>1390</ele>
        <time>2013-09-15T08:42:58.000Z</time>
      </trkpt>
      <trkpt lat="44.89174" lon="5.56286">
        <ele>1390</ele>
        <time>2013-09-15T08:43:00.000Z</time>
      </trkpt>
      <trkpt lat="44.89178" lon="5.56273">
        <ele>1389</ele>
        <time>2013-09-15T08:43:02.000Z</time>
      </trkpt>
      <trkpt lat="44.89179" lon="5.56266">
        <ele>1389</ele>
        <time>2013-09-15T08:43:03.000Z</time>
      </trkpt>
      <trkpt lat="44.89179" lon="5.5626">
        <ele>1389</ele>
        <time>2013-09-15T08:43:04.000Z</time>
      </trkpt>
      <trkpt lat="44.89179" lon="5.56254">
        <ele>1389</ele>
        <time>2013-09-15T08:43:05.000Z</time>
      </trkpt>
      <trkpt lat="44.89178" lon="5.56245">
        <ele>1388</ele>
        <time>2013-09-15T08:43:07.000Z</time>
      </trkpt>
      <trkpt lat="44.89179" lon="5.56228">
        <ele>1386</ele>
        <time>2013-09-15T08:43:14.000Z</time>
      </trkpt>
      <trkpt lat="44.89179" lon="5.56228">
        <ele>1386</ele>
        <time>2013-09-15T08:43:14.000Z</time>
      </trkpt>
      <trkpt lat="44.89179" lon="5.56228">
        <ele>1386</ele>
        <time>2013-09-15T08:43:31.000Z</time>
      </trkpt>
      <trkpt lat="44.89178" lon="5.56221">
        <ele>1377</ele>
        <time>2013-09-15T08:43:32.000Z</time>
      </trkpt>
      <trkpt lat="44.89178" lon="5.56221">
        <ele>1377</ele>
        <time>2013-09-15T08:43:32.000Z</time>
      </trkpt>
      <trkpt lat="44.89178" lon="5.56221">
        <ele>1377</ele>
        <time>2013-09-15T08:43:40.000Z</time>
      </trkpt>
      <trkpt lat="44.89182" lon="5.56211">
        <ele>1374</ele>
        <time>2013-09-15T08:43:41.000Z</time>
      </trkpt>
      <trkpt lat="44.89182" lon="5.56211">
        <ele>1374</ele>
        <time>2013-09-15T08:43:41.000Z</time>
      </trkpt>
      <trkpt lat="44.89182" lon="5.56211">
        <ele>1374</ele>
        <time>2013-09-15T08:43:52.000Z</time>
      </trkpt>
      <trkpt lat="44.89192" lon="5.56211">
        <ele>1369</ele>
        <time>2013-09-15T08:43:53.000Z</time>
      </trkpt>
      <trkpt lat="44.89192" lon="5.56211">
        <ele>1369</ele>
        <time>2013-09-15T08:43:53.000Z</time>
      </trkpt>
      <trkpt lat="44.89192" lon="5.56211">
        <ele>1369</ele>
        <time>2013-09-15T08:43:55.000Z</time>
      </trkpt>
      <trkpt lat="44.89196" lon="5.56215">
        <ele>1368</ele>
        <time>2013-09-15T08:43:56.000Z</time>
      </trkpt>
      <trkpt lat="44.89196" lon="5.56215">
        <ele>1368</ele>
        <time>2013-09-15T08:43:56.000Z</time>
      </trkpt>
      <trkpt lat="44.89196" lon="5.56215">
        <ele>1368</ele>
        <time>2013-09-15T08:43:59.000Z</time>
      </trkpt>
      <trkpt lat="44.89205" lon="5.56217">
        <ele>1367</ele>
        <time>2013-09-15T08:44:00.000Z</time>
      </trkpt>
      <trkpt lat="44.89205" lon="5.56217">
        <ele>1367</ele>
        <time>2013-09-15T08:44:00.000Z</time>
      </trkpt>
      <trkpt lat="44.89205" lon="5.56217">
        <ele>1367</ele>
        <time>2013-09-15T08:44:03.000Z</time>
      </trkpt>
      <trkpt lat="44.89215" lon="5.56226">
        <ele>1366</ele>
        <time>2013-09-15T08:44:04.000Z</time>
      </trkpt>
      <trkpt lat="44.89222" lon="5.5623">
        <ele>1365</ele>
        <time>2013-09-15T08:44:06.000Z</time>
      </trkpt>
      <trkpt lat="44.89228" lon="5.56236">
        <ele>1364</ele>
        <time>2013-09-15T08:44:08.000Z</time>
      </trkpt>
      <trkpt lat="44.89235" lon="5.56241">
        <ele>1364</ele>
        <time>2013-09-15T08:44:10.000Z</time>
      </trkpt>
      <trkpt lat="44.89241" lon="5.56247">
        <ele>1363</ele>
        <time>2013-09-15T08:44:12.000Z</time>
      </trkpt>
      <trkpt lat="44.89245" lon="5.56249">
        <ele>1361</ele>
        <time>2013-09-15T08:44:13.000Z</time>
      </trkpt>
      <trkpt lat="44.89251" lon="5.56254">
        <ele>1358</ele>
        <time>2013-09-15T08:44:14.000Z</time>
      </trkpt>
      <trkpt lat="44.89255" lon="5.56258">
        <ele>1356</ele>
        <time>2013-09-15T08:44:15.000Z</time>
      </trkpt>
      <trkpt lat="44.89259" lon="5.56262">
        <ele>1355</ele>
        <time>2013-09-15T08:44:16.000Z</time>
      </trkpt>
      <trkpt lat="44.89264" lon="5.56266">
        <ele>1353</ele>
        <time>2013-09-15T08:44:17.000Z</time>
      </trkpt>
      <trkpt lat="44.89268" lon="5.56271">
        <ele>1352</ele>
        <time>2013-09-15T08:44:18.000Z</time>
      </trkpt>
      <trkpt lat="44.89275" lon="5.56279">
        <ele>1349</ele>
        <time>2013-09-15T08:44:20.000Z</time>
      </trkpt>
      <trkpt lat="44.89282" lon="5.56288">
        <ele>1347</ele>
        <time>2013-09-15T08:44:22.000Z</time>
      </trkpt>
      <trkpt lat="44.89285" lon="5.56292">
        <ele>1346</ele>
        <time>2013-09-15T08:44:23.000Z</time>
      </trkpt>
      <trkpt lat="44.89292" lon="5.56299">
        <ele>1345</ele>
        <time>2013-09-15T08:44:25.000Z</time>
      </trkpt>
      <trkpt lat="44.89296" lon="5.56303">
        <ele>1345</ele>
        <time>2013-09-15T08:44:26.000Z</time>
      </trkpt>
      <trkpt lat="44.89302" lon="5.56309">
        <ele>1343</ele>
        <time>2013-09-15T08:44:28.000Z</time>
      </trkpt>
      <trkpt lat="44.89306" lon="5.56312">
        <ele>1342</ele>
        <time>2013-09-15T08:44:29.000Z</time>
      </trkpt>
      <trkpt lat="44.89314" lon="5.56318">
        <ele>1340</ele>
        <time>2013-09-15T08:44:31.000Z</time>
      </trkpt>
      <trkpt lat="44.89319" lon="5.5632">
        <ele>1339</ele>
        <time>2013-09-15T08:44:32.000Z</time>
      </trkpt>
      <trkpt lat="44.89324" lon="5.56324">
        <ele>1338</ele>
        <time>2013-09-15T08:44:33.000Z</time>
      </trkpt>
      <trkpt lat="44.89329" lon="5.56329">
        <ele>1338</ele>
        <time>2013-09-15T08:44:34.000Z</time>
      </trkpt>
      <trkpt lat="44.89334" lon="5.56333">
        <ele>1337</ele>
        <time>2013-09-15T08:44:35.000Z</time>
      </trkpt>
      <trkpt lat="44.89339" lon="5.56335">
        <ele>1336</ele>
        <time>2013-09-15T08:44:36.000Z</time>
      </trkpt>
      <trkpt lat="44.89344" lon="5.5634">
        <ele>1336</ele>
        <time>2013-09-15T08:44:37.000Z</time>
      </trkpt>
      <trkpt lat="44.89349" lon="5.56344">
        <ele>1335</ele>
        <time>2013-09-15T08:44:38.000Z</time>
      </trkpt>
      <trkpt lat="44.89354" lon="5.56348">
        <ele>1335</ele>
        <time>2013-09-15T08:44:39.000Z</time>
      </trkpt>
      <trkpt lat="44.89359" lon="5.56352">
        <ele>1335</ele>
        <time>2013-09-15T08:44:40.000Z</time>
      </trkpt>
      <trkpt lat="44.89364" lon="5.56357">
        <ele>1335</ele>
        <time>2013-09-15T08:44:41.000Z</time>
      </trkpt>
      <trkpt lat="44.89369" lon="5.56361">
        <ele>1334</ele>
        <time>2013-09-15T08:44:42.000Z</time>
      </trkpt>
      <trkpt lat="44.89374" lon="5.56365">
        <ele>1334</ele>
        <time>2013-09-15T08:44:43.000Z</time>
      </trkpt>
      <trkpt lat="44.89378" lon="5.5637">
        <ele>1334</ele>
        <time>2013-09-15T08:44:44.000Z</time>
      </trkpt>
      <trkpt lat="44.89383" lon="5.56372">
        <ele>1334</ele>
        <time>2013-09-15T08:44:45.000Z</time>
      </trkpt>
      <trkpt lat="44.89387" lon="5.56374">
        <ele>1334</ele>
        <time>2013-09-15T08:44:46.000Z</time>
      </trkpt>
      <trkpt lat="44.89392" lon="5.56376">
        <ele>1334</ele>
        <time>2013-09-15T08:44:47.000Z</time>
      </trkpt>
      <trkpt lat="44.89398" lon="5.56378">
        <ele>1334</ele>
        <time>2013-09-15T08:44:48.000Z</time>
      </trkpt>
      <trkpt lat="44.89403" lon="5.5638">
        <ele>1334</ele>
        <time>2013-09-15T08:44:49.000Z</time>
      </trkpt>
      <trkpt lat="44.89408" lon="5.56382">
        <ele>1334</ele>
        <time>2013-09-15T08:44:50.000Z</time>
      </trkpt>
      <trkpt lat="44.89414" lon="5.56382">
        <ele>1334</ele>
        <time>2013-09-15T08:44:51.000Z</time>
      </trkpt>
      <trkpt lat="44.89419" lon="5.56384">
        <ele>1333</ele>
        <time>2013-09-15T08:44:52.000Z</time>
      </trkpt>
      <trkpt lat="44.89424" lon="5.56387">
        <ele>1333</ele>
        <time>2013-09-15T08:44:53.000Z</time>
      </trkpt>
      <trkpt lat="44.89428" lon="5.56389">
        <ele>1333</ele>
        <time>2013-09-15T08:44:54.000Z</time>
      </trkpt>
      <trkpt lat="44.89432" lon="5.56391">
        <ele>1333</ele>
        <time>2013-09-15T08:44:55.000Z</time>
      </trkpt>
      <trkpt lat="44.89435" lon="5.56395">
        <ele>1333</ele>
        <time>2013-09-15T08:44:56.000Z</time>
      </trkpt>
      <trkpt lat="44.89441" lon="5.56402">
        <ele>1333</ele>
        <time>2013-09-15T08:44:58.000Z</time>
      </trkpt>
      <trkpt lat="44.89446" lon="5.56408">
        <ele>1333</ele>
        <time>2013-09-15T08:45:00.000Z</time>
      </trkpt>
      <trkpt lat="44.89452" lon="5.56412">
        <ele>1333</ele>
        <time>2013-09-15T08:45:02.000Z</time>
      </trkpt>
      <trkpt lat="44.89456" lon="5.56417">
        <ele>1333</ele>
        <time>2013-09-15T08:45:03.000Z</time>
      </trkpt>
      <trkpt lat="44.89462" lon="5.56423">
        <ele>1332</ele>
        <time>2013-09-15T08:45:05.000Z</time>
      </trkpt>
      <trkpt lat="44.89466" lon="5.56425">
        <ele>1332</ele>
        <time>2013-09-15T08:45:06.000Z</time>
      </trkpt>
      <trkpt lat="44.89471" lon="5.56427">
        <ele>1331</ele>
        <time>2013-09-15T08:45:07.000Z</time>
      </trkpt>
      <trkpt lat="44.89475" lon="5.5643">
        <ele>1331</ele>
        <time>2013-09-15T08:45:08.000Z</time>
      </trkpt>
      <trkpt lat="44.89479" lon="5.56434">
        <ele>1331</ele>
        <time>2013-09-15T08:45:09.000Z</time>
      </trkpt>
      <trkpt lat="44.89485" lon="5.56434">
        <ele>1331</ele>
        <time>2013-09-15T08:45:10.000Z</time>
      </trkpt>
      <trkpt lat="44.89489" lon="5.56436">
        <ele>1331</ele>
        <time>2013-09-15T08:45:11.000Z</time>
      </trkpt>
      <trkpt lat="44.89494" lon="5.56436">
        <ele>1332</ele>
        <time>2013-09-15T08:45:12.000Z</time>
      </trkpt>
      <trkpt lat="44.895" lon="5.56438">
        <ele>1332</ele>
        <time>2013-09-15T08:45:13.000Z</time>
      </trkpt>
      <trkpt lat="44.89505" lon="5.56438">
        <ele>1332</ele>
        <time>2013-09-15T08:45:14.000Z</time>
      </trkpt>
      <trkpt lat="44.89515" lon="5.5644">
        <ele>1332</ele>
        <time>2013-09-15T08:45:16.000Z</time>
      </trkpt>
      <trkpt lat="44.89522" lon="5.5644">
        <ele>1332</ele>
        <time>2013-09-15T08:45:18.000Z</time>
      </trkpt>
      <trkpt lat="44.89533" lon="5.5644">
        <ele>1332</ele>
        <time>2013-09-15T08:45:20.000Z</time>
      </trkpt>
      <trkpt lat="44.89538" lon="5.56442">
        <ele>1331</ele>
        <time>2013-09-15T08:45:21.000Z</time>
      </trkpt>
      <trkpt lat="44.89544" lon="5.56442">
        <ele>1330</ele>
        <time>2013-09-15T08:45:22.000Z</time>
      </trkpt>
      <trkpt lat="44.89549" lon="5.56442">
        <ele>1329</ele>
        <time>2013-09-15T08:45:23.000Z</time>
      </trkpt>
      <trkpt lat="44.89553" lon="5.5644">
        <ele>1328</ele>
        <time>2013-09-15T08:45:24.000Z</time>
      </trkpt>
      <trkpt lat="44.89562" lon="5.5644">
        <ele>1326</ele>
        <time>2013-09-15T08:45:26.000Z</time>
      </trkpt>
      <trkpt lat="44.89572" lon="5.5644">
        <ele>1324</ele>
        <time>2013-09-15T08:45:28.000Z</time>
      </trkpt>
      <trkpt lat="44.89577" lon="5.5644">
        <ele>1323</ele>
        <time>2013-09-15T08:45:29.000Z</time>
      </trkpt>
      <trkpt lat="44.89582" lon="5.5644">
        <ele>1323</ele>
        <time>2013-09-15T08:45:30.000Z</time>
      </trkpt>
      <trkpt lat="44.89588" lon="5.5644">
        <ele>1322</ele>
        <time>2013-09-15T08:45:31.000Z</time>
      </trkpt>
      <trkpt lat="44.89594" lon="5.56438">
        <ele>1322</ele>
        <time>2013-09-15T08:45:32.000Z</time>
      </trkpt>
      <trkpt lat="44.89599" lon="5.56438">
        <ele>1322</ele>
        <time>2013-09-15T08:45:33.000Z</time>
      </trkpt>
      <trkpt lat="44.89605" lon="5.56438">
        <ele>1322</ele>
        <time>2013-09-15T08:45:34.000Z</time>
      </trkpt>
      <trkpt lat="44.8961" lon="5.56438">
        <ele>1321</ele>
        <time>2013-09-15T08:45:35.000Z</time>
      </trkpt>
      <trkpt lat="44.89616" lon="5.56438">
        <ele>1321</ele>
        <time>2013-09-15T08:45:36.000Z</time>
      </trkpt>
      <trkpt lat="44.89621" lon="5.56438">
        <ele>1321</ele>
        <time>2013-09-15T08:45:37.000Z</time>
      </trkpt>
      <trkpt lat="44.89626" lon="5.5644">
        <ele>1321</ele>
        <time>2013-09-15T08:45:38.000Z</time>
      </trkpt>
      <trkpt lat="44.89632" lon="5.5644">
        <ele>1321</ele>
        <time>2013-09-15T08:45:39.000Z</time>
      </trkpt>
      <trkpt lat="44.89637" lon="5.56442">
        <ele>1321</ele>
        <time>2013-09-15T08:45:40.000Z</time>
      </trkpt>
      <trkpt lat="44.89644" lon="5.56445">
        <ele>1321</ele>
        <time>2013-09-15T08:45:41.000Z</time>
      </trkpt>
      <trkpt lat="44.89651" lon="5.56445">
        <ele>1320</ele>
        <time>2013-09-15T08:45:42.000Z</time>
      </trkpt>
      <trkpt lat="44.89657" lon="5.56449">
        <ele>1320</ele>
        <time>2013-09-15T08:45:43.000Z</time>
      </trkpt>
      <trkpt lat="44.89664" lon="5.56451">
        <ele>1320</ele>
        <time>2013-09-15T08:45:44.000Z</time>
      </trkpt>
      <trkpt lat="44.8967" lon="5.56453">
        <ele>1320</ele>
        <time>2013-09-15T08:45:45.000Z</time>
      </trkpt>
      <trkpt lat="44.89676" lon="5.56455">
        <ele>1320</ele>
        <time>2013-09-15T08:45:46.000Z</time>
      </trkpt>
      <trkpt lat="44.89682" lon="5.56458">
        <ele>1320</ele>
        <time>2013-09-15T08:45:47.000Z</time>
      </trkpt>
      <trkpt lat="44.89687" lon="5.56462">
        <ele>1319</ele>
        <time>2013-09-15T08:45:48.000Z</time>
      </trkpt>
      <trkpt lat="44.89693" lon="5.56464">
        <ele>1319</ele>
        <time>2013-09-15T08:45:49.000Z</time>
      </trkpt>
      <trkpt lat="44.89698" lon="5.56468">
        <ele>1319</ele>
        <time>2013-09-15T08:45:50.000Z</time>
      </trkpt>
      <trkpt lat="44.89704" lon="5.56472">
        <ele>1319</ele>
        <time>2013-09-15T08:45:51.000Z</time>
      </trkpt>
      <trkpt lat="44.89709" lon="5.56477">
        <ele>1318</ele>
        <time>2013-09-15T08:45:52.000Z</time>
      </trkpt>
      <trkpt lat="44.89713" lon="5.56481">
        <ele>1318</ele>
        <time>2013-09-15T08:45:53.000Z</time>
      </trkpt>
      <trkpt lat="44.89717" lon="5.56483">
        <ele>1318</ele>
        <time>2013-09-15T08:45:54.000Z</time>
      </trkpt>
      <trkpt lat="44.89722" lon="5.56488">
        <ele>1318</ele>
        <time>2013-09-15T08:45:55.000Z</time>
      </trkpt>
      <trkpt lat="44.89726" lon="5.5649">
        <ele>1318</ele>
        <time>2013-09-15T08:45:56.000Z</time>
      </trkpt>
      <trkpt lat="44.8973" lon="5.56494">
        <ele>1317</ele>
        <time>2013-09-15T08:45:57.000Z</time>
      </trkpt>
      <trkpt lat="44.89735" lon="5.56496">
        <ele>1317</ele>
        <time>2013-09-15T08:45:58.000Z</time>
      </trkpt>
      <trkpt lat="44.8974" lon="5.56498">
        <ele>1316</ele>
        <time>2013-09-15T08:45:59.000Z</time>
      </trkpt>
      <trkpt lat="44.89744" lon="5.56502">
        <ele>1316</ele>
        <time>2013-09-15T08:46:00.000Z</time>
      </trkpt>
      <trkpt lat="44.89748" lon="5.56505">
        <ele>1316</ele>
        <time>2013-09-15T08:46:01.000Z</time>
      </trkpt>
      <trkpt lat="44.89753" lon="5.56507">
        <ele>1316</ele>
        <time>2013-09-15T08:46:02.000Z</time>
      </trkpt>
      <trkpt lat="44.89757" lon="5.56511">
        <ele>1316</ele>
        <time>2013-09-15T08:46:03.000Z</time>
      </trkpt>
      <trkpt lat="44.89762" lon="5.56513">
        <ele>1316</ele>
        <time>2013-09-15T08:46:04.000Z</time>
      </trkpt>
      <trkpt lat="44.89767" lon="5.56515">
        <ele>1316</ele>
        <time>2013-09-15T08:46:05.000Z</time>
      </trkpt>
      <trkpt lat="44.89771" lon="5.56518">
        <ele>1316</ele>
        <time>2013-09-15T08:46:06.000Z</time>
      </trkpt>
      <trkpt lat="44.89776" lon="5.5652">
        <ele>1316</ele>
        <time>2013-09-15T08:46:07.000Z</time>
      </trkpt>
      <trkpt lat="44.89781" lon="5.56522">
        <ele>1316</ele>
        <time>2013-09-15T08:46:08.000Z</time>
      </trkpt>
      <trkpt lat="44.89786" lon="5.56524">
        <ele>1316</ele>
        <time>2013-09-15T08:46:09.000Z</time>
      </trkpt>
      <trkpt lat="44.8979" lon="5.56526">
        <ele>1316</ele>
        <time>2013-09-15T08:46:10.000Z</time>
      </trkpt>
      <trkpt lat="44.89796" lon="5.56528">
        <ele>1316</ele>
        <time>2013-09-15T08:46:11.000Z</time>
      </trkpt>
      <trkpt lat="44.89801" lon="5.56533">
        <ele>1316</ele>
        <time>2013-09-15T08:46:12.000Z</time>
      </trkpt>
      <trkpt lat="44.89806" lon="5.56535">
        <ele>1316</ele>
        <time>2013-09-15T08:46:13.000Z</time>
      </trkpt>
      <trkpt lat="44.89812" lon="5.56539">
        <ele>1316</ele>
        <time>2013-09-15T08:46:14.000Z</time>
      </trkpt>
      <trkpt lat="44.89817" lon="5.56543">
        <ele>1316</ele>
        <time>2013-09-15T08:46:15.000Z</time>
      </trkpt>
      <trkpt lat="44.89824" lon="5.56545">
        <ele>1316</ele>
        <time>2013-09-15T08:46:16.000Z</time>
      </trkpt>
      <trkpt lat="44.89829" lon="5.5655">
        <ele>1316</ele>
        <time>2013-09-15T08:46:17.000Z</time>
      </trkpt>
      <trkpt lat="44.89834" lon="5.56554">
        <ele>1316</ele>
        <time>2013-09-15T08:46:18.000Z</time>
      </trkpt>
      <trkpt lat="44.8984" lon="5.56556">
        <ele>1316</ele>
        <time>2013-09-15T08:46:19.000Z</time>
      </trkpt>
      <trkpt lat="44.89845" lon="5.5656">
        <ele>1316</ele>
        <time>2013-09-15T08:46:20.000Z</time>
      </trkpt>
      <trkpt lat="44.8985" lon="5.56563">
        <ele>1316</ele>
        <time>2013-09-15T08:46:21.000Z</time>
      </trkpt>
      <trkpt lat="44.89855" lon="5.56567">
        <ele>1316</ele>
        <time>2013-09-15T08:46:22.000Z</time>
      </trkpt>
      <trkpt lat="44.8986" lon="5.56571">
        <ele>1316</ele>
        <time>2013-09-15T08:46:23.000Z</time>
      </trkpt>
      <trkpt lat="44.89864" lon="5.56573">
        <ele>1316</ele>
        <time>2013-09-15T08:46:24.000Z</time>
      </trkpt>
      <trkpt lat="44.89868" lon="5.56578">
        <ele>1316</ele>
        <time>2013-09-15T08:46:25.000Z</time>
      </trkpt>
      <trkpt lat="44.89872" lon="5.5658">
        <ele>1316</ele>
        <time>2013-09-15T08:46:26.000Z</time>
      </trkpt>
      <trkpt lat="44.89876" lon="5.56582">
        <ele>1316</ele>
        <time>2013-09-15T08:46:27.000Z</time>
      </trkpt>
      <trkpt lat="44.8988" lon="5.56584">
        <ele>1315</ele>
        <time>2013-09-15T08:46:28.000Z</time>
      </trkpt>
      <trkpt lat="44.89885" lon="5.56586">
        <ele>1315</ele>
        <time>2013-09-15T08:46:29.000Z</time>
      </trkpt>
      <trkpt lat="44.89889" lon="5.56588">
        <ele>1315</ele>
        <time>2013-09-15T08:46:30.000Z</time>
      </trkpt>
      <trkpt lat="44.89893" lon="5.5659">
        <ele>1315</ele>
        <time>2013-09-15T08:46:31.000Z</time>
      </trkpt>
      <trkpt lat="44.89898" lon="5.56593">
        <ele>1314</ele>
        <time>2013-09-15T08:46:32.000Z</time>
      </trkpt>
      <trkpt lat="44.89903" lon="5.56595">
        <ele>1314</ele>
        <time>2013-09-15T08:46:33.000Z</time>
      </trkpt>
      <trkpt lat="44.89907" lon="5.56597">
        <ele>1314</ele>
        <time>2013-09-15T08:46:34.000Z</time>
      </trkpt>
      <trkpt lat="44.89915" lon="5.56599">
        <ele>1313</ele>
        <time>2013-09-15T08:46:36.000Z</time>
      </trkpt>
      <trkpt lat="44.89919" lon="5.56601">
        <ele>1313</ele>
        <time>2013-09-15T08:46:37.000Z</time>
      </trkpt>
      <trkpt lat="44.89923" lon="5.56603">
        <ele>1312</ele>
        <time>2013-09-15T08:46:38.000Z</time>
      </trkpt>
      <trkpt lat="44.89931" lon="5.5661">
        <ele>1311</ele>
        <time>2013-09-15T08:46:40.000Z</time>
      </trkpt>
      <trkpt lat="44.89938" lon="5.56616">
        <ele>1310</ele>
        <time>2013-09-15T08:46:42.000Z</time>
      </trkpt>
      <trkpt lat="44.89943" lon="5.5662">
        <ele>1309</ele>
        <time>2013-09-15T08:46:43.000Z</time>
      </trkpt>
      <trkpt lat="44.89948" lon="5.56625">
        <ele>1309</ele>
        <time>2013-09-15T08:46:44.000Z</time>
      </trkpt>
      <trkpt lat="44.89954" lon="5.56629">
        <ele>1308</ele>
        <time>2013-09-15T08:46:45.000Z</time>
      </trkpt>
      <trkpt lat="44.89959" lon="5.56631">
        <ele>1308</ele>
        <time>2013-09-15T08:46:46.000Z</time>
      </trkpt>
      <trkpt lat="44.89964" lon="5.56633">
        <ele>1308</ele>
        <time>2013-09-15T08:46:47.000Z</time>
      </trkpt>
      <trkpt lat="44.89971" lon="5.56636">
        <ele>1307</ele>
        <time>2013-09-15T08:46:48.000Z</time>
      </trkpt>
      <trkpt lat="44.89976" lon="5.56638">
        <ele>1307</ele>
        <time>2013-09-15T08:46:49.000Z</time>
      </trkpt>
      <trkpt lat="44.89984" lon="5.5664">
        <ele>1307</ele>
        <time>2013-09-15T08:46:51.000Z</time>
      </trkpt>
      <trkpt lat="44.89991" lon="5.56642">
        <ele>1307</ele>
        <time>2013-09-15T08:46:53.000Z</time>
      </trkpt>
      <trkpt lat="44.89996" lon="5.56642">
        <ele>1307</ele>
        <time>2013-09-15T08:46:54.000Z</time>
      </trkpt>
      <trkpt lat="44.90001" lon="5.56644">
        <ele>1306</ele>
        <time>2013-09-15T08:46:55.000Z</time>
      </trkpt>
      <trkpt lat="44.90008" lon="5.56644">
        <ele>1305</ele>
        <time>2013-09-15T08:46:57.000Z</time>
      </trkpt>
      <trkpt lat="44.90012" lon="5.56646">
        <ele>1305</ele>
        <time>2013-09-15T08:46:58.000Z</time>
      </trkpt>
      <trkpt lat="44.9002" lon="5.56646">
        <ele>1304</ele>
        <time>2013-09-15T08:47:00.000Z</time>
      </trkpt>
      <trkpt lat="44.90025" lon="5.56646">
        <ele>1300</ele>
        <time>2013-09-15T08:47:01.000Z</time>
      </trkpt>
      <trkpt lat="44.90032" lon="5.56646">
        <ele>1296</ele>
        <time>2013-09-15T08:47:02.000Z</time>
      </trkpt>
      <trkpt lat="44.90038" lon="5.56646">
        <ele>1294</ele>
        <time>2013-09-15T08:47:03.000Z</time>
      </trkpt>
      <trkpt lat="44.90046" lon="5.56646">
        <ele>1291</ele>
        <time>2013-09-15T08:47:04.000Z</time>
      </trkpt>
      <trkpt lat="44.90053" lon="5.56646">
        <ele>1289</ele>
        <time>2013-09-15T08:47:05.000Z</time>
      </trkpt>
      <trkpt lat="44.90061" lon="5.56646">
        <ele>1287</ele>
        <time>2013-09-15T08:47:06.000Z</time>
      </trkpt>
      <trkpt lat="44.90066" lon="5.56646">
        <ele>1285</ele>
        <time>2013-09-15T08:47:07.000Z</time>
      </trkpt>
      <trkpt lat="44.90072" lon="5.56646">
        <ele>1284</ele>
        <time>2013-09-15T08:47:08.000Z</time>
      </trkpt>
      <trkpt lat="44.90077" lon="5.56646">
        <ele>1283</ele>
        <time>2013-09-15T08:47:09.000Z</time>
      </trkpt>
      <trkpt lat="44.90082" lon="5.56646">
        <ele>1281</ele>
        <time>2013-09-15T08:47:10.000Z</time>
      </trkpt>
      <trkpt lat="44.90088" lon="5.56646">
        <ele>1281</ele>
        <time>2013-09-15T08:47:11.000Z</time>
      </trkpt>
      <trkpt lat="44.90094" lon="5.56646">
        <ele>1280</ele>
        <time>2013-09-15T08:47:12.000Z</time>
      </trkpt>
      <trkpt lat="44.90102" lon="5.56642">
        <ele>1278</ele>
        <time>2013-09-15T08:47:14.000Z</time>
      </trkpt>
      <trkpt lat="44.90106" lon="5.5664">
        <ele>1278</ele>
        <time>2013-09-15T08:47:15.000Z</time>
      </trkpt>
      <trkpt lat="44.90111" lon="5.56636">
        <ele>1278</ele>
        <time>2013-09-15T08:47:17.000Z</time>
      </trkpt>
      <trkpt lat="44.90116" lon="5.56631">
        <ele>1278</ele>
        <time>2013-09-15T08:47:19.000Z</time>
      </trkpt>
      <trkpt lat="44.9012" lon="5.56625">
        <ele>1277</ele>
        <time>2013-09-15T08:47:23.000Z</time>
      </trkpt>
      <trkpt lat="44.9012" lon="5.56625">
        <ele>1277</ele>
        <time>2013-09-15T08:47:23.000Z</time>
      </trkpt>
      <trkpt lat="44.9012" lon="5.56625">
        <ele>1277</ele>
        <time>2013-09-15T08:47:26.000Z</time>
      </trkpt>
      <trkpt lat="44.90116" lon="5.56623">
        <ele>1277</ele>
        <time>2013-09-15T08:47:27.000Z</time>
      </trkpt>
      <trkpt lat="44.90116" lon="5.56623">
        <ele>1277</ele>
        <time>2013-09-15T08:47:27.000Z</time>
      </trkpt>
      <trkpt lat="44.90116" lon="5.56623">
        <ele>1277</ele>
        <time>2013-09-15T08:47:30.000Z</time>
      </trkpt>
      <trkpt lat="44.90112" lon="5.56629">
        <ele>1276</ele>
        <time>2013-09-15T08:47:31.000Z</time>
      </trkpt>
      <trkpt lat="44.90112" lon="5.56629">
        <ele>1276</ele>
        <time>2013-09-15T08:47:31.000Z</time>
      </trkpt>
      <trkpt lat="44.90112" lon="5.56629">
        <ele>1276</ele>
        <time>2013-09-15T08:47:35.000Z</time>
      </trkpt>
      <trkpt lat="44.90116" lon="5.5664">
        <ele>1276</ele>
        <time>2013-09-15T08:47:36.000Z</time>
      </trkpt>
      <trkpt lat="44.90121" lon="5.56642">
        <ele>1276</ele>
        <time>2013-09-15T08:47:37.000Z</time>
      </trkpt>
      <trkpt lat="44.9013" lon="5.56644">
        <ele>1275</ele>
        <time>2013-09-15T08:47:39.000Z</time>
      </trkpt>
      <trkpt lat="44.90136" lon="5.56646">
        <ele>1274</ele>
        <time>2013-09-15T08:47:40.000Z</time>
      </trkpt>
      <trkpt lat="44.90141" lon="5.56648">
        <ele>1273</ele>
        <time>2013-09-15T08:47:41.000Z</time>
      </trkpt>
      <trkpt lat="44.90147" lon="5.56651">
        <ele>1273</ele>
        <time>2013-09-15T08:47:42.000Z</time>
      </trkpt>
      <trkpt lat="44.90151" lon="5.56653">
        <ele>1272</ele>
        <time>2013-09-15T08:47:43.000Z</time>
      </trkpt>
      <trkpt lat="44.90155" lon="5.56655">
        <ele>1271</ele>
        <time>2013-09-15T08:47:44.000Z</time>
      </trkpt>
      <trkpt lat="44.9016" lon="5.56657">
        <ele>1271</ele>
        <time>2013-09-15T08:47:45.000Z</time>
      </trkpt>
      <trkpt lat="44.90166" lon="5.56661">
        <ele>1271</ele>
        <time>2013-09-15T08:47:47.000Z</time>
      </trkpt>
      <trkpt lat="44.90172" lon="5.56666">
        <ele>1271</ele>
        <time>2013-09-15T08:47:49.000Z</time>
      </trkpt>
      <trkpt lat="44.90177" lon="5.56668">
        <ele>1270</ele>
        <time>2013-09-15T08:47:50.000Z</time>
      </trkpt>
      <trkpt lat="44.90181" lon="5.56672">
        <ele>1269</ele>
        <time>2013-09-15T08:47:51.000Z</time>
      </trkpt>
      <trkpt lat="44.90185" lon="5.56674">
        <ele>1268</ele>
        <time>2013-09-15T08:47:52.000Z</time>
      </trkpt>
      <trkpt lat="44.9019" lon="5.56678">
        <ele>1267</ele>
        <time>2013-09-15T08:47:53.000Z</time>
      </trkpt>
      <trkpt lat="44.90194" lon="5.56683">
        <ele>1266</ele>
        <time>2013-09-15T08:47:54.000Z</time>
      </trkpt>
      <trkpt lat="44.90196" lon="5.56689">
        <ele>1265</ele>
        <time>2013-09-15T08:47:55.000Z</time>
      </trkpt>
      <trkpt lat="44.90201" lon="5.56698">
        <ele>1264</ele>
        <time>2013-09-15T08:47:57.000Z</time>
      </trkpt>
      <trkpt lat="44.90207" lon="5.56706">
        <ele>1264</ele>
        <time>2013-09-15T08:47:59.000Z</time>
      </trkpt>
      <trkpt lat="44.90213" lon="5.56715">
        <ele>1264</ele>
        <time>2013-09-15T08:48:03.000Z</time>
      </trkpt>
      <trkpt lat="44.90213" lon="5.56715">
        <ele>1264</ele>
        <time>2013-09-15T08:48:03.000Z</time>
      </trkpt>
      <trkpt lat="44.90213" lon="5.56715">
        <ele>1264</ele>
        <time>2013-09-15T08:48:12.000Z</time>
      </trkpt>
      <trkpt lat="44.90221" lon="5.56715">
        <ele>1263</ele>
        <time>2013-09-15T08:48:13.000Z</time>
      </trkpt>
      <trkpt lat="44.90221" lon="5.56715">
        <ele>1263</ele>
        <time>2013-09-15T08:48:13.000Z</time>
      </trkpt>
      <trkpt lat="44.90221" lon="5.56715">
        <ele>1263</ele>
        <time>2013-09-15T08:48:25.000Z</time>
      </trkpt>
      <trkpt lat="44.9023" lon="5.56719">
        <ele>1262</ele>
        <time>2013-09-15T08:48:26.000Z</time>
      </trkpt>
      <trkpt lat="44.9023" lon="5.56719">
        <ele>1262</ele>
        <time>2013-09-15T08:48:26.000Z</time>
      </trkpt>
      <trkpt lat="44.9023" lon="5.56719">
        <ele>1262</ele>
        <time>2013-09-15T08:48:28.000Z</time>
      </trkpt>
      <trkpt lat="44.90237" lon="5.56715">
        <ele>1261</ele>
        <time>2013-09-15T08:48:31.000Z</time>
      </trkpt>
      <trkpt lat="44.9024" lon="5.56706">
        <ele>1261</ele>
        <time>2013-09-15T08:48:34.000Z</time>
      </trkpt>
      <trkpt lat="44.90241" lon="5.567">
        <ele>1260</ele>
        <time>2013-09-15T08:48:36.000Z</time>
      </trkpt>
      <trkpt lat="44.90243" lon="5.56694">
        <ele>1260</ele>
        <time>2013-09-15T08:48:38.000Z</time>
      </trkpt>
      <trkpt lat="44.90244" lon="5.56687">
        <ele>1257</ele>
        <time>2013-09-15T08:48:55.000Z</time>
      </trkpt>
      <trkpt lat="44.90244" lon="5.56687">
        <ele>1257</ele>
        <time>2013-09-15T08:48:55.000Z</time>
      </trkpt>
      <trkpt lat="44.90244" lon="5.56687">
        <ele>1257</ele>
        <time>2013-09-15T08:48:58.000Z</time>
      </trkpt>
      <trkpt lat="44.90243" lon="5.56678">
        <ele>1257</ele>
        <time>2013-09-15T08:48:59.000Z</time>
      </trkpt>
      <trkpt lat="44.90239" lon="5.56674">
        <ele>1255</ele>
        <time>2013-09-15T08:49:17.000Z</time>
      </trkpt>
      <trkpt lat="44.90239" lon="5.56674">
        <ele>1255</ele>
        <time>2013-09-15T08:49:17.000Z</time>
      </trkpt>
      <trkpt lat="44.90239" lon="5.56674">
        <ele>1259</ele>
        <time>2013-09-15T08:51:03.000Z</time>
      </trkpt>
      <trkpt lat="44.90238" lon="5.56668">
        <ele>1265</ele>
        <time>2013-09-15T08:51:15.000Z</time>
      </trkpt>
      <trkpt lat="44.90238" lon="5.56668">
        <ele>1265</ele>
        <time>2013-09-15T08:51:15.000Z</time>
      </trkpt>
      <trkpt lat="44.90238" lon="5.56668">
        <ele>1265</ele>
        <time>2013-09-15T08:51:16.000Z</time>
      </trkpt>
      <trkpt lat="44.90236" lon="5.56661">
        <ele>1270</ele>
        <time>2013-09-15T08:51:24.000Z</time>
      </trkpt>
      <trkpt lat="44.90236" lon="5.56661">
        <ele>1270</ele>
        <time>2013-09-15T08:51:24.000Z</time>
      </trkpt>
      <trkpt lat="44.90236" lon="5.56661">
        <ele>1271</ele>
        <time>2013-09-15T08:51:26.000Z</time>
      </trkpt>
      <trkpt lat="44.90235" lon="5.56655">
        <ele>1273</ele>
        <time>2013-09-15T08:51:35.000Z</time>
      </trkpt>
      <trkpt lat="44.90235" lon="5.56655">
        <ele>1273</ele>
        <time>2013-09-15T08:51:35.000Z</time>
      </trkpt>
      <trkpt lat="44.90235" lon="5.56655">
        <ele>1273</ele>
        <time>2013-09-15T08:51:36.000Z</time>
      </trkpt>
      <trkpt lat="44.90232" lon="5.56648">
        <ele>1274</ele>
        <time>2013-09-15T08:51:48.000Z</time>
      </trkpt>
      <trkpt lat="44.90232" lon="5.56648">
        <ele>1274</ele>
        <time>2013-09-15T08:51:48.000Z</time>
      </trkpt>
      <trkpt lat="44.90232" lon="5.56648">
        <ele>1274</ele>
        <time>2013-09-15T08:51:49.000Z</time>
      </trkpt>
      <trkpt lat="44.9023" lon="5.56642">
        <ele>1275</ele>
        <time>2013-09-15T08:52:01.000Z</time>
      </trkpt>
      <trkpt lat="44.9023" lon="5.56642">
        <ele>1275</ele>
        <time>2013-09-15T08:52:01.000Z</time>
      </trkpt>
      <trkpt lat="44.9023" lon="5.56642">
        <ele>1275</ele>
        <time>2013-09-15T08:52:05.000Z</time>
      </trkpt>
      <trkpt lat="44.90231" lon="5.56636">
        <ele>1276</ele>
        <time>2013-09-15T08:52:14.000Z</time>
      </trkpt>
      <trkpt lat="44.90228" lon="5.56664">
        <ele>1276</ele>
        <time>2013-09-15T08:53:57.000Z</time>
      </trkpt>
      <trkpt lat="44.90228" lon="5.56664">
        <ele>1276</ele>
        <time>2013-09-15T08:53:57.000Z</time>
      </trkpt>
      <trkpt lat="44.90228" lon="5.56664">
        <ele>1276</ele>
        <time>2013-09-15T08:54:01.000Z</time>
      </trkpt>
      <trkpt lat="44.90234" lon="5.56664">
        <ele>1278</ele>
        <time>2013-09-15T08:54:02.000Z</time>
      </trkpt>
      <trkpt lat="44.90238" lon="5.56661">
        <ele>1282</ele>
        <time>2013-09-15T08:54:10.000Z</time>
      </trkpt>
      <trkpt lat="44.90243" lon="5.56661">
        <ele>1286</ele>
        <time>2013-09-15T08:54:19.000Z</time>
      </trkpt>
      <trkpt lat="44.90243" lon="5.56661">
        <ele>1286</ele>
        <time>2013-09-15T08:54:19.000Z</time>
      </trkpt>
      <trkpt lat="44.90243" lon="5.56661">
        <ele>1287</ele>
        <time>2013-09-15T08:54:31.000Z</time>
      </trkpt>
      <trkpt lat="44.90238" lon="5.56659">
        <ele>1288</ele>
        <time>2013-09-15T08:54:42.000Z</time>
      </trkpt>
      <trkpt lat="44.90238" lon="5.56659">
        <ele>1288</ele>
        <time>2013-09-15T08:54:42.000Z</time>
      </trkpt>
      <trkpt lat="44.90238" lon="5.56659">
        <ele>1288</ele>
        <time>2013-09-15T08:54:45.000Z</time>
      </trkpt>
      <trkpt lat="44.90246" lon="5.56661">
        <ele>1288</ele>
        <time>2013-09-15T08:55:14.000Z</time>
      </trkpt>
      <trkpt lat="44.90246" lon="5.56661">
        <ele>1288</ele>
        <time>2013-09-15T08:55:14.000Z</time>
      </trkpt>
      <trkpt lat="44.90246" lon="5.56661">
        <ele>1288</ele>
        <time>2013-09-15T08:55:18.000Z</time>
      </trkpt>
      <trkpt lat="44.9022" lon="5.56644">
        <ele>1289</ele>
        <time>2013-09-15T08:55:29.000Z</time>
      </trkpt>
      <trkpt lat="44.9022" lon="5.56644">
        <ele>1289</ele>
        <time>2013-09-15T08:55:29.000Z</time>
      </trkpt>
      <trkpt lat="44.9022" lon="5.56644">
        <ele>1289</ele>
        <time>2013-09-15T08:55:33.000Z</time>
      </trkpt>
      <trkpt lat="44.90229" lon="5.5662">
        <ele>1289</ele>
        <time>2013-09-15T08:55:38.000Z</time>
      </trkpt>
      <trkpt lat="44.90227" lon="5.56642">
        <ele>1289</ele>
        <time>2013-09-15T09:07:52.000Z</time>
      </trkpt>
      <trkpt lat="44.90227" lon="5.56642">
        <ele>1289</ele>
        <time>2013-09-15T09:07:52.000Z</time>
      </trkpt>
      <trkpt lat="44.90227" lon="5.56642">
        <ele>1289</ele>
        <time>2013-09-15T09:07:53.000Z</time>
      </trkpt>
      <trkpt lat="44.9023" lon="5.56599">
        <ele>1289</ele>
        <time>2013-09-15T09:07:54.000Z</time>
      </trkpt>
      <trkpt lat="44.90232" lon="5.56588">
        <ele>1290</ele>
        <time>2013-09-15T09:07:55.000Z</time>
      </trkpt>
      <trkpt lat="44.90232" lon="5.56597">
        <ele>1290</ele>
        <time>2013-09-15T09:07:57.000Z</time>
      </trkpt>
      <trkpt lat="44.90234" lon="5.56603">
        <ele>1290</ele>
        <time>2013-09-15T09:07:58.000Z</time>
      </trkpt>
      <trkpt lat="44.90235" lon="5.56614">
        <ele>1289</ele>
        <time>2013-09-15T09:07:59.000Z</time>
      </trkpt>
      <trkpt lat="44.90236" lon="5.56625">
        <ele>1289</ele>
        <time>2013-09-15T09:08:00.000Z</time>
      </trkpt>
      <trkpt lat="44.90237" lon="5.56631">
        <ele>1289</ele>
        <time>2013-09-15T09:08:01.000Z</time>
      </trkpt>
      <trkpt lat="44.90238" lon="5.56638">
        <ele>1289</ele>
        <time>2013-09-15T09:08:02.000Z</time>
      </trkpt>
      <trkpt lat="44.9024" lon="5.56644">
        <ele>1289</ele>
        <time>2013-09-15T09:08:04.000Z</time>
      </trkpt>
      <trkpt lat="44.90242" lon="5.56651">
        <ele>1289</ele>
        <time>2013-09-15T09:08:09.000Z</time>
      </trkpt>
      <trkpt lat="44.90244" lon="5.56657">
        <ele>1288</ele>
        <time>2013-09-15T09:08:14.000Z</time>
      </trkpt>
      <trkpt lat="44.90244" lon="5.56657">
        <ele>1288</ele>
        <time>2013-09-15T09:08:14.000Z</time>
      </trkpt>
      <trkpt lat="44.90244" lon="5.56657">
        <ele>1288</ele>
        <time>2013-09-15T09:08:15.000Z</time>
      </trkpt>
      <trkpt lat="44.90245" lon="5.56664">
        <ele>1287</ele>
        <time>2013-09-15T09:08:25.000Z</time>
      </trkpt>
      <trkpt lat="44.90245" lon="5.56664">
        <ele>1287</ele>
        <time>2013-09-15T09:08:25.000Z</time>
      </trkpt>
      <trkpt lat="44.90245" lon="5.56664">
        <ele>1287</ele>
        <time>2013-09-15T09:08:28.000Z</time>
      </trkpt>
      <trkpt lat="44.90244" lon="5.5667">
        <ele>1286</ele>
        <time>2013-09-15T09:08:42.000Z</time>
      </trkpt>
      <trkpt lat="44.90244" lon="5.5667">
        <ele>1286</ele>
        <time>2013-09-15T09:08:42.000Z</time>
      </trkpt>
      <trkpt lat="44.90244" lon="5.5667">
        <ele>1284</ele>
        <time>2013-09-15T09:08:47.000Z</time>
      </trkpt>
      <trkpt lat="44.90242" lon="5.56676">
        <ele>1282</ele>
        <time>2013-09-15T09:09:01.000Z</time>
      </trkpt>
      <trkpt lat="44.90242" lon="5.56676">
        <ele>1282</ele>
        <time>2013-09-15T09:09:01.000Z</time>
      </trkpt>
      <trkpt lat="44.90242" lon="5.56676">
        <ele>1282</ele>
        <time>2013-09-15T09:09:05.000Z</time>
      </trkpt>
      <trkpt lat="44.90244" lon="5.5667">
        <ele>1280</ele>
        <time>2013-09-15T09:09:08.000Z</time>
      </trkpt>
      <trkpt lat="44.90246" lon="5.56661">
        <ele>1278</ele>
        <time>2013-09-15T09:09:10.000Z</time>
      </trkpt>
      <trkpt lat="44.90246" lon="5.56651">
        <ele>1271</ele>
        <time>2013-09-15T09:09:12.000Z</time>
      </trkpt>
      <trkpt lat="44.90246" lon="5.56644">
        <ele>1265</ele>
        <time>2013-09-15T09:09:13.000Z</time>
      </trkpt>
      <trkpt lat="44.90244" lon="5.56638">
        <ele>1260</ele>
        <time>2013-09-15T09:09:14.000Z</time>
      </trkpt>
      <trkpt lat="44.90241" lon="5.56631">
        <ele>1257</ele>
        <time>2013-09-15T09:09:15.000Z</time>
      </trkpt>
      <trkpt lat="44.90237" lon="5.56625">
        <ele>1254</ele>
        <time>2013-09-15T09:09:16.000Z</time>
      </trkpt>
      <trkpt lat="44.90231" lon="5.56618">
        <ele>1251</ele>
        <time>2013-09-15T09:09:17.000Z</time>
      </trkpt>
      <trkpt lat="44.90225" lon="5.56612">
        <ele>1250</ele>
        <time>2013-09-15T09:09:18.000Z</time>
      </trkpt>
      <trkpt lat="44.90218" lon="5.56608">
        <ele>1248</ele>
        <time>2013-09-15T09:09:19.000Z</time>
      </trkpt>
      <trkpt lat="44.90212" lon="5.56601">
        <ele>1247</ele>
        <time>2013-09-15T09:09:20.000Z</time>
      </trkpt>
      <trkpt lat="44.90206" lon="5.56597">
        <ele>1246</ele>
        <time>2013-09-15T09:09:21.000Z</time>
      </trkpt>
      <trkpt lat="44.902" lon="5.56593">
        <ele>1246</ele>
        <time>2013-09-15T09:09:22.000Z</time>
      </trkpt>
      <trkpt lat="44.90196" lon="5.56588">
        <ele>1245</ele>
        <time>2013-09-15T09:09:23.000Z</time>
      </trkpt>
      <trkpt lat="44.90191" lon="5.56584">
        <ele>1245</ele>
        <time>2013-09-15T09:09:24.000Z</time>
      </trkpt>
      <trkpt lat="44.90186" lon="5.5658">
        <ele>1245</ele>
        <time>2013-09-15T09:09:26.000Z</time>
      </trkpt>
      <trkpt lat="44.90184" lon="5.56571">
        <ele>1245</ele>
        <time>2013-09-15T09:09:28.000Z</time>
      </trkpt>
      <trkpt lat="44.90184" lon="5.5656">
        <ele>1244</ele>
        <time>2013-09-15T09:09:30.000Z</time>
      </trkpt>
      <trkpt lat="44.90186" lon="5.56554">
        <ele>1244</ele>
        <time>2013-09-15T09:09:31.000Z</time>
      </trkpt>
      <trkpt lat="44.90186" lon="5.56554">
        <ele>1244</ele>
        <time>2013-09-15T09:09:31.000Z</time>
      </trkpt>
      <trkpt lat="44.90186" lon="5.56554">
        <ele>1244</ele>
        <time>2013-09-15T09:09:33.000Z</time>
      </trkpt>
      <trkpt lat="44.90187" lon="5.56548">
        <ele>1244</ele>
        <time>2013-09-15T09:09:34.000Z</time>
      </trkpt>
      <trkpt lat="44.90192" lon="5.56539">
        <ele>1243</ele>
        <time>2013-09-15T09:09:39.000Z</time>
      </trkpt>
      <trkpt lat="44.90192" lon="5.56539">
        <ele>1243</ele>
        <time>2013-09-15T09:09:39.000Z</time>
      </trkpt>
      <trkpt lat="44.90192" lon="5.56539">
        <ele>1243</ele>
        <time>2013-09-15T09:09:42.000Z</time>
      </trkpt>
      <trkpt lat="44.90195" lon="5.56533">
        <ele>1243</ele>
        <time>2013-09-15T09:09:43.000Z</time>
      </trkpt>
      <trkpt lat="44.90195" lon="5.56533">
        <ele>1243</ele>
        <time>2013-09-15T09:09:43.000Z</time>
      </trkpt>
      <trkpt lat="44.90195" lon="5.56533">
        <ele>1243</ele>
        <time>2013-09-15T09:09:46.000Z</time>
      </trkpt>
      <trkpt lat="44.902" lon="5.56528">
        <ele>1243</ele>
        <time>2013-09-15T09:09:47.000Z</time>
      </trkpt>
      <trkpt lat="44.902" lon="5.56528">
        <ele>1243</ele>
        <time>2013-09-15T09:09:47.000Z</time>
      </trkpt>
      <trkpt lat="44.902" lon="5.56528">
        <ele>1243</ele>
        <time>2013-09-15T09:09:49.000Z</time>
      </trkpt>
      <trkpt lat="44.90208" lon="5.56515">
        <ele>1242</ele>
        <time>2013-09-15T09:09:54.000Z</time>
      </trkpt>
      <trkpt lat="44.90208" lon="5.56515">
        <ele>1242</ele>
        <time>2013-09-15T09:09:54.000Z</time>
      </trkpt>
      <trkpt lat="44.90208" lon="5.56515">
        <ele>1242</ele>
        <time>2013-09-15T09:09:56.000Z</time>
      </trkpt>
      <trkpt lat="44.90211" lon="5.56509">
        <ele>1242</ele>
        <time>2013-09-15T09:09:57.000Z</time>
      </trkpt>
      <trkpt lat="44.90211" lon="5.56509">
        <ele>1242</ele>
        <time>2013-09-15T09:09:57.000Z</time>
      </trkpt>
      <trkpt lat="44.90211" lon="5.56509">
        <ele>1242</ele>
        <time>2013-09-15T09:10:01.000Z</time>
      </trkpt>
      <trkpt lat="44.90212" lon="5.56502">
        <ele>1242</ele>
        <time>2013-09-15T09:10:02.000Z</time>
      </trkpt>
      <trkpt lat="44.90212" lon="5.56502">
        <ele>1242</ele>
        <time>2013-09-15T09:10:02.000Z</time>
      </trkpt>
      <trkpt lat="44.90212" lon="5.56502">
        <ele>1242</ele>
        <time>2013-09-15T09:10:08.000Z</time>
      </trkpt>
      <trkpt lat="44.90214" lon="5.56492">
        <ele>1242</ele>
        <time>2013-09-15T09:10:09.000Z</time>
      </trkpt>
      <trkpt lat="44.90214" lon="5.56492">
        <ele>1242</ele>
        <time>2013-09-15T09:10:09.000Z</time>
      </trkpt>
      <trkpt lat="44.90214" lon="5.56492">
        <ele>1242</ele>
        <time>2013-09-15T09:10:13.000Z</time>
      </trkpt>
      <trkpt lat="44.90215" lon="5.56485">
        <ele>1242</ele>
        <time>2013-09-15T09:10:14.000Z</time>
      </trkpt>
      <trkpt lat="44.90215" lon="5.56485">
        <ele>1242</ele>
        <time>2013-09-15T09:10:14.000Z</time>
      </trkpt>
      <trkpt lat="44.90215" lon="5.56485">
        <ele>1242</ele>
        <time>2013-09-15T09:10:18.000Z</time>
      </trkpt>
      <trkpt lat="44.90215" lon="5.56479">
        <ele>1242</ele>
        <time>2013-09-15T09:10:19.000Z</time>
      </trkpt>
      <trkpt lat="44.90215" lon="5.56479">
        <ele>1242</ele>
        <time>2013-09-15T09:10:19.000Z</time>
      </trkpt>
      <trkpt lat="44.90215" lon="5.56479">
        <ele>1242</ele>
        <time>2013-09-15T09:10:26.000Z</time>
      </trkpt>
      <trkpt lat="44.90215" lon="5.56468">
        <ele>1242</ele>
        <time>2013-09-15T09:10:27.000Z</time>
      </trkpt>
      <trkpt lat="44.90215" lon="5.56468">
        <ele>1242</ele>
        <time>2013-09-15T09:10:27.000Z</time>
      </trkpt>
      <trkpt lat="44.90215" lon="5.56468">
        <ele>1242</ele>
        <time>2013-09-15T09:10:33.000Z</time>
      </trkpt>
      <trkpt lat="44.90216" lon="5.56462">
        <ele>1242</ele>
        <time>2013-09-15T09:10:34.000Z</time>
      </trkpt>
      <trkpt lat="44.90216" lon="5.56462">
        <ele>1242</ele>
        <time>2013-09-15T09:10:34.000Z</time>
      </trkpt>
      <trkpt lat="44.90216" lon="5.56462">
        <ele>1242</ele>
        <time>2013-09-15T09:10:39.000Z</time>
      </trkpt>
      <trkpt lat="44.90217" lon="5.56455">
        <ele>1242</ele>
        <time>2013-09-15T09:10:40.000Z</time>
      </trkpt>
      <trkpt lat="44.90217" lon="5.56455">
        <ele>1242</ele>
        <time>2013-09-15T09:10:40.000Z</time>
      </trkpt>
      <trkpt lat="44.90217" lon="5.56455">
        <ele>1242</ele>
        <time>2013-09-15T09:10:46.000Z</time>
      </trkpt>
      <trkpt lat="44.90217" lon="5.56447">
        <ele>1243</ele>
        <time>2013-09-15T09:10:47.000Z</time>
      </trkpt>
      <trkpt lat="44.90217" lon="5.56447">
        <ele>1243</ele>
        <time>2013-09-15T09:10:47.000Z</time>
      </trkpt>
      <trkpt lat="44.90217" lon="5.56447">
        <ele>1243</ele>
        <time>2013-09-15T09:10:54.000Z</time>
      </trkpt>
      <trkpt lat="44.9022" lon="5.5644">
        <ele>1243</ele>
        <time>2013-09-15T09:10:55.000Z</time>
      </trkpt>
      <trkpt lat="44.9022" lon="5.5644">
        <ele>1243</ele>
        <time>2013-09-15T09:10:55.000Z</time>
      </trkpt>
      <trkpt lat="44.9022" lon="5.5644">
        <ele>1243</ele>
        <time>2013-09-15T09:11:01.000Z</time>
      </trkpt>
      <trkpt lat="44.90221" lon="5.56434">
        <ele>1243</ele>
        <time>2013-09-15T09:11:02.000Z</time>
      </trkpt>
      <trkpt lat="44.90221" lon="5.56434">
        <ele>1243</ele>
        <time>2013-09-15T09:11:02.000Z</time>
      </trkpt>
      <trkpt lat="44.90221" lon="5.56434">
        <ele>1243</ele>
        <time>2013-09-15T09:11:09.000Z</time>
      </trkpt>
      <trkpt lat="44.90224" lon="5.56427">
        <ele>1243</ele>
        <time>2013-09-15T09:11:10.000Z</time>
      </trkpt>
      <trkpt lat="44.90224" lon="5.56427">
        <ele>1243</ele>
        <time>2013-09-15T09:11:10.000Z</time>
      </trkpt>
      <trkpt lat="44.90224" lon="5.56427">
        <ele>1243</ele>
        <time>2013-09-15T09:11:17.000Z</time>
      </trkpt>
      <trkpt lat="44.90229" lon="5.56417">
        <ele>1245</ele>
        <time>2013-09-15T09:11:28.000Z</time>
      </trkpt>
      <trkpt lat="44.90229" lon="5.56417">
        <ele>1245</ele>
        <time>2013-09-15T09:11:28.000Z</time>
      </trkpt>
      <trkpt lat="44.90229" lon="5.56417">
        <ele>1245</ele>
        <time>2013-09-15T09:12:02.000Z</time>
      </trkpt>
      <trkpt lat="44.90231" lon="5.56408">
        <ele>1247</ele>
        <time>2013-09-15T09:12:03.000Z</time>
      </trkpt>
      <trkpt lat="44.90231" lon="5.56408">
        <ele>1247</ele>
        <time>2013-09-15T09:12:03.000Z</time>
      </trkpt>
      <trkpt lat="44.90231" lon="5.56408">
        <ele>1247</ele>
        <time>2013-09-15T09:12:04.000Z</time>
      </trkpt>
      <trkpt lat="44.90234" lon="5.564">
        <ele>1247</ele>
        <time>2013-09-15T09:12:05.000Z</time>
      </trkpt>
      <trkpt lat="44.90234" lon="5.564">
        <ele>1247</ele>
        <time>2013-09-15T09:12:05.000Z</time>
      </trkpt>
      <trkpt lat="44.90234" lon="5.564">
        <ele>1247</ele>
        <time>2013-09-15T09:12:06.000Z</time>
      </trkpt>
      <trkpt lat="44.90236" lon="5.56393">
        <ele>1248</ele>
        <time>2013-09-15T09:12:07.000Z</time>
      </trkpt>
      <trkpt lat="44.90236" lon="5.56393">
        <ele>1248</ele>
        <time>2013-09-15T09:12:07.000Z</time>
      </trkpt>
      <trkpt lat="44.90236" lon="5.56393">
        <ele>1248</ele>
        <time>2013-09-15T09:12:09.000Z</time>
      </trkpt>
      <trkpt lat="44.90238" lon="5.56384">
        <ele>1249</ele>
        <time>2013-09-15T09:12:10.000Z</time>
      </trkpt>
      <trkpt lat="44.90238" lon="5.56384">
        <ele>1249</ele>
        <time>2013-09-15T09:12:10.000Z</time>
      </trkpt>
      <trkpt lat="44.90238" lon="5.56384">
        <ele>1249</ele>
        <time>2013-09-15T09:12:13.000Z</time>
      </trkpt>
      <trkpt lat="44.90239" lon="5.56376">
        <ele>1249</ele>
        <time>2013-09-15T09:12:14.000Z</time>
      </trkpt>
      <trkpt lat="44.90239" lon="5.56376">
        <ele>1249</ele>
        <time>2013-09-15T09:12:14.000Z</time>
      </trkpt>
      <trkpt lat="44.90239" lon="5.56376">
        <ele>1249</ele>
        <time>2013-09-15T09:12:19.000Z</time>
      </trkpt>
      <trkpt lat="44.9024" lon="5.5637">
        <ele>1251</ele>
        <time>2013-09-15T09:12:20.000Z</time>
      </trkpt>
      <trkpt lat="44.9024" lon="5.5637">
        <ele>1251</ele>
        <time>2013-09-15T09:12:20.000Z</time>
      </trkpt>
      <trkpt lat="44.9024" lon="5.5637">
        <ele>1251</ele>
        <time>2013-09-15T09:12:27.000Z</time>
      </trkpt>
      <trkpt lat="44.90242" lon="5.56359">
        <ele>1252</ele>
        <time>2013-09-15T09:12:28.000Z</time>
      </trkpt>
      <trkpt lat="44.90242" lon="5.56359">
        <ele>1252</ele>
        <time>2013-09-15T09:12:28.000Z</time>
      </trkpt>
      <trkpt lat="44.90242" lon="5.56359">
        <ele>1252</ele>
        <time>2013-09-15T09:12:31.000Z</time>
      </trkpt>
      <trkpt lat="44.90242" lon="5.56352">
        <ele>1253</ele>
        <time>2013-09-15T09:12:32.000Z</time>
      </trkpt>
      <trkpt lat="44.90242" lon="5.56352">
        <ele>1253</ele>
        <time>2013-09-15T09:12:32.000Z</time>
      </trkpt>
      <trkpt lat="44.90242" lon="5.56352">
        <ele>1253</ele>
        <time>2013-09-15T09:12:33.000Z</time>
      </trkpt>
      <trkpt lat="44.90243" lon="5.56346">
        <ele>1254</ele>
        <time>2013-09-15T09:12:37.000Z</time>
      </trkpt>
      <trkpt lat="44.90243" lon="5.56346">
        <ele>1254</ele>
        <time>2013-09-15T09:12:37.000Z</time>
      </trkpt>
      <trkpt lat="44.90243" lon="5.56346">
        <ele>1254</ele>
        <time>2013-09-15T09:12:38.000Z</time>
      </trkpt>
      <trkpt lat="44.90245" lon="5.5634">
        <ele>1255</ele>
        <time>2013-09-15T09:12:42.000Z</time>
      </trkpt>
      <trkpt lat="44.90248" lon="5.56333">
        <ele>1256</ele>
        <time>2013-09-15T09:12:47.000Z</time>
      </trkpt>
      <trkpt lat="44.90251" lon="5.56327">
        <ele>1256</ele>
        <time>2013-09-15T09:12:51.000Z</time>
      </trkpt>
      <trkpt lat="44.90253" lon="5.5632">
        <ele>1257</ele>
        <time>2013-09-15T09:12:55.000Z</time>
      </trkpt>
      <trkpt lat="44.90253" lon="5.5632">
        <ele>1257</ele>
        <time>2013-09-15T09:12:55.000Z</time>
      </trkpt>
      <trkpt lat="44.90253" lon="5.5632">
        <ele>1257</ele>
        <time>2013-09-15T09:12:56.000Z</time>
      </trkpt>
      <trkpt lat="44.90255" lon="5.56314">
        <ele>1258</ele>
        <time>2013-09-15T09:13:01.000Z</time>
      </trkpt>
      <trkpt lat="44.90256" lon="5.56307">
        <ele>1259</ele>
        <time>2013-09-15T09:13:05.000Z</time>
      </trkpt>
      <trkpt lat="44.90256" lon="5.56307">
        <ele>1259</ele>
        <time>2013-09-15T09:13:05.000Z</time>
      </trkpt>
      <trkpt lat="44.90256" lon="5.56307">
        <ele>1259</ele>
        <time>2013-09-15T09:13:06.000Z</time>
      </trkpt>
      <trkpt lat="44.90256" lon="5.56301">
        <ele>1260</ele>
        <time>2013-09-15T09:13:09.000Z</time>
      </trkpt>
      <trkpt lat="44.90256" lon="5.56301">
        <ele>1260</ele>
        <time>2013-09-15T09:13:09.000Z</time>
      </trkpt>
      <trkpt lat="44.90256" lon="5.56301">
        <ele>1260</ele>
        <time>2013-09-15T09:13:10.000Z</time>
      </trkpt>
      <trkpt lat="44.90258" lon="5.56294">
        <ele>1261</ele>
        <time>2013-09-15T09:13:14.000Z</time>
      </trkpt>
      <trkpt lat="44.9026" lon="5.56288">
        <ele>1262</ele>
        <time>2013-09-15T09:13:19.000Z</time>
      </trkpt>
      <trkpt lat="44.9026" lon="5.56288">
        <ele>1262</ele>
        <time>2013-09-15T09:13:19.000Z</time>
      </trkpt>
      <trkpt lat="44.9026" lon="5.56288">
        <ele>1263</ele>
        <time>2013-09-15T09:13:20.000Z</time>
      </trkpt>
      <trkpt lat="44.90262" lon="5.56282">
        <ele>1263</ele>
        <time>2013-09-15T09:13:24.000Z</time>
      </trkpt>
      <trkpt lat="44.90267" lon="5.56277">
        <ele>1265</ele>
        <time>2013-09-15T09:13:29.000Z</time>
      </trkpt>
      <trkpt lat="44.90271" lon="5.56271">
        <ele>1266</ele>
        <time>2013-09-15T09:13:34.000Z</time>
      </trkpt>
      <trkpt lat="44.90275" lon="5.56264">
        <ele>1267</ele>
        <time>2013-09-15T09:13:39.000Z</time>
      </trkpt>
      <trkpt lat="44.9028" lon="5.56262">
        <ele>1267</ele>
        <time>2013-09-15T09:13:43.000Z</time>
      </trkpt>
      <trkpt lat="44.9028" lon="5.56262">
        <ele>1267</ele>
        <time>2013-09-15T09:13:43.000Z</time>
      </trkpt>
      <trkpt lat="44.9028" lon="5.56262">
        <ele>1268</ele>
        <time>2013-09-15T09:13:44.000Z</time>
      </trkpt>
      <trkpt lat="44.90284" lon="5.5626">
        <ele>1268</ele>
        <time>2013-09-15T09:13:48.000Z</time>
      </trkpt>
      <trkpt lat="44.90288" lon="5.56256">
        <ele>1269</ele>
        <time>2013-09-15T09:13:52.000Z</time>
      </trkpt>
      <trkpt lat="44.90288" lon="5.56249">
        <ele>1272</ele>
        <time>2013-09-15T09:14:48.000Z</time>
      </trkpt>
      <trkpt lat="44.90289" lon="5.56243">
        <ele>1273</ele>
        <time>2013-09-15T09:14:51.000Z</time>
      </trkpt>
      <trkpt lat="44.90292" lon="5.56236">
        <ele>1274</ele>
        <time>2013-09-15T09:14:54.000Z</time>
      </trkpt>
      <trkpt lat="44.90295" lon="5.5623">
        <ele>1274</ele>
        <time>2013-09-15T09:14:57.000Z</time>
      </trkpt>
      <trkpt lat="44.90298" lon="5.56224">
        <ele>1275</ele>
        <time>2013-09-15T09:15:00.000Z</time>
      </trkpt>
      <trkpt lat="44.90301" lon="5.56217">
        <ele>1276</ele>
        <time>2013-09-15T09:15:04.000Z</time>
      </trkpt>
      <trkpt lat="44.90303" lon="5.56211">
        <ele>1277</ele>
        <time>2013-09-15T09:15:07.000Z</time>
      </trkpt>
      <trkpt lat="44.90305" lon="5.56204">
        <ele>1277</ele>
        <time>2013-09-15T09:15:09.000Z</time>
      </trkpt>
      <trkpt lat="44.9031" lon="5.56198">
        <ele>1279</ele>
        <time>2013-09-15T09:15:21.000Z</time>
      </trkpt>
      <trkpt lat="44.9031" lon="5.56198">
        <ele>1279</ele>
        <time>2013-09-15T09:15:21.000Z</time>
      </trkpt>
      <trkpt lat="44.9031" lon="5.56198">
        <ele>1279</ele>
        <time>2013-09-15T09:15:22.000Z</time>
      </trkpt>
      <trkpt lat="44.90312" lon="5.56191">
        <ele>1280</ele>
        <time>2013-09-15T09:15:26.000Z</time>
      </trkpt>
      <trkpt lat="44.90314" lon="5.56185">
        <ele>1280</ele>
        <time>2013-09-15T09:15:29.000Z</time>
      </trkpt>
      <trkpt lat="44.90317" lon="5.56178">
        <ele>1281</ele>
        <time>2013-09-15T09:15:33.000Z</time>
      </trkpt>
      <trkpt lat="44.90318" lon="5.56172">
        <ele>1281</ele>
        <time>2013-09-15T09:15:35.000Z</time>
      </trkpt>
      <trkpt lat="44.90319" lon="5.56166">
        <ele>1282</ele>
        <time>2013-09-15T09:15:37.000Z</time>
      </trkpt>
      <trkpt lat="44.9032" lon="5.56159">
        <ele>1282</ele>
        <time>2013-09-15T09:15:39.000Z</time>
      </trkpt>
      <trkpt lat="44.9032" lon="5.56151">
        <ele>1282</ele>
        <time>2013-09-15T09:15:41.000Z</time>
      </trkpt>
      <trkpt lat="44.9032" lon="5.56144">
        <ele>1282</ele>
        <time>2013-09-15T09:15:43.000Z</time>
      </trkpt>
      <trkpt lat="44.90319" lon="5.56138">
        <ele>1283</ele>
        <time>2013-09-15T09:15:45.000Z</time>
      </trkpt>
      <trkpt lat="44.90319" lon="5.56131">
        <ele>1283</ele>
        <time>2013-09-15T09:15:47.000Z</time>
      </trkpt>
      <trkpt lat="44.90318" lon="5.56123">
        <ele>1283</ele>
        <time>2013-09-15T09:15:49.000Z</time>
      </trkpt>
      <trkpt lat="44.90318" lon="5.56116">
        <ele>1283</ele>
        <time>2013-09-15T09:15:51.000Z</time>
      </trkpt>
      <trkpt lat="44.90317" lon="5.56108">
        <ele>1284</ele>
        <time>2013-09-15T09:15:53.000Z</time>
      </trkpt>
      <trkpt lat="44.90317" lon="5.56101">
        <ele>1284</ele>
        <time>2013-09-15T09:15:55.000Z</time>
      </trkpt>
      <trkpt lat="44.90317" lon="5.56095">
        <ele>1284</ele>
        <time>2013-09-15T09:15:57.000Z</time>
      </trkpt>
      <trkpt lat="44.90317" lon="5.56086">
        <ele>1285</ele>
        <time>2013-09-15T09:15:59.000Z</time>
      </trkpt>
      <trkpt lat="44.90317" lon="5.5608">
        <ele>1285</ele>
        <time>2013-09-15T09:16:01.000Z</time>
      </trkpt>
      <trkpt lat="44.90317" lon="5.56071">
        <ele>1285</ele>
        <time>2013-09-15T09:16:03.000Z</time>
      </trkpt>
      <trkpt lat="44.90317" lon="5.56065">
        <ele>1285</ele>
        <time>2013-09-15T09:16:05.000Z</time>
      </trkpt>
      <trkpt lat="44.90317" lon="5.56056">
        <ele>1286</ele>
        <time>2013-09-15T09:16:07.000Z</time>
      </trkpt>
      <trkpt lat="44.90317" lon="5.5605">
        <ele>1286</ele>
        <time>2013-09-15T09:16:09.000Z</time>
      </trkpt>
      <trkpt lat="44.90317" lon="5.56041">
        <ele>1286</ele>
        <time>2013-09-15T09:16:11.000Z</time>
      </trkpt>
      <trkpt lat="44.90316" lon="5.56033">
        <ele>1286</ele>
        <time>2013-09-15T09:16:13.000Z</time>
      </trkpt>
      <trkpt lat="44.90315" lon="5.56024">
        <ele>1286</ele>
        <time>2013-09-15T09:16:15.000Z</time>
      </trkpt>
      <trkpt lat="44.90313" lon="5.56018">
        <ele>1287</ele>
        <time>2013-09-15T09:16:17.000Z</time>
      </trkpt>
      <trkpt lat="44.90312" lon="5.56011">
        <ele>1287</ele>
        <time>2013-09-15T09:16:19.000Z</time>
      </trkpt>
      <trkpt lat="44.9031" lon="5.56005">
        <ele>1287</ele>
        <time>2013-09-15T09:16:21.000Z</time>
      </trkpt>
      <trkpt lat="44.90309" lon="5.55998">
        <ele>1287</ele>
        <time>2013-09-15T09:16:23.000Z</time>
      </trkpt>
      <trkpt lat="44.90306" lon="5.5599">
        <ele>1288</ele>
        <time>2013-09-15T09:16:25.000Z</time>
      </trkpt>
      <trkpt lat="44.90306" lon="5.55983">
        <ele>1288</ele>
        <time>2013-09-15T09:16:27.000Z</time>
      </trkpt>
      <trkpt lat="44.90306" lon="5.55977">
        <ele>1288</ele>
        <time>2013-09-15T09:16:29.000Z</time>
      </trkpt>
      <trkpt lat="44.90306" lon="5.5597">
        <ele>1288</ele>
        <time>2013-09-15T09:16:31.000Z</time>
      </trkpt>
      <trkpt lat="44.90306" lon="5.55964">
        <ele>1288</ele>
        <time>2013-09-15T09:16:33.000Z</time>
      </trkpt>
      <trkpt lat="44.90308" lon="5.55955">
        <ele>1288</ele>
        <time>2013-09-15T09:16:35.000Z</time>
      </trkpt>
      <trkpt lat="44.90308" lon="5.55949">
        <ele>1288</ele>
        <time>2013-09-15T09:16:37.000Z</time>
      </trkpt>
      <trkpt lat="44.90308" lon="5.5594">
        <ele>1289</ele>
        <time>2013-09-15T09:16:39.000Z</time>
      </trkpt>
      <trkpt lat="44.90309" lon="5.55934">
        <ele>1289</ele>
        <time>2013-09-15T09:16:41.000Z</time>
      </trkpt>
      <trkpt lat="44.90309" lon="5.55925">
        <ele>1289</ele>
        <time>2013-09-15T09:16:43.000Z</time>
      </trkpt>
      <trkpt lat="44.9031" lon="5.55919">
        <ele>1289</ele>
        <time>2013-09-15T09:16:45.000Z</time>
      </trkpt>
      <trkpt lat="44.9031" lon="5.55912">
        <ele>1289</ele>
        <time>2013-09-15T09:16:47.000Z</time>
      </trkpt>
      <trkpt lat="44.9031" lon="5.55904">
        <ele>1289</ele>
        <time>2013-09-15T09:16:50.000Z</time>
      </trkpt>
      <trkpt lat="44.9031" lon="5.55897">
        <ele>1289</ele>
        <time>2013-09-15T09:16:53.000Z</time>
      </trkpt>
      <trkpt lat="44.90309" lon="5.55891">
        <ele>1289</ele>
        <time>2013-09-15T09:16:55.000Z</time>
      </trkpt>
      <trkpt lat="44.90308" lon="5.55884">
        <ele>1289</ele>
        <time>2013-09-15T09:16:58.000Z</time>
      </trkpt>
      <trkpt lat="44.90306" lon="5.55878">
        <ele>1289</ele>
        <time>2013-09-15T09:17:01.000Z</time>
      </trkpt>
      <trkpt lat="44.90306" lon="5.55872">
        <ele>1290</ele>
        <time>2013-09-15T09:17:04.000Z</time>
      </trkpt>
      <trkpt lat="44.90305" lon="5.55865">
        <ele>1290</ele>
        <time>2013-09-15T09:17:06.000Z</time>
      </trkpt>
      <trkpt lat="44.90304" lon="5.55859">
        <ele>1290</ele>
        <time>2013-09-15T09:17:09.000Z</time>
      </trkpt>
      <trkpt lat="44.90304" lon="5.5585">
        <ele>1291</ele>
        <time>2013-09-15T09:17:12.000Z</time>
      </trkpt>
      <trkpt lat="44.90303" lon="5.55844">
        <ele>1291</ele>
        <time>2013-09-15T09:17:15.000Z</time>
      </trkpt>
      <trkpt lat="44.90303" lon="5.55837">
        <ele>1291</ele>
        <time>2013-09-15T09:17:17.000Z</time>
      </trkpt>
      <trkpt lat="44.90303" lon="5.55829">
        <ele>1292</ele>
        <time>2013-09-15T09:17:20.000Z</time>
      </trkpt>
      <trkpt lat="44.90302" lon="5.5582">
        <ele>1292</ele>
        <time>2013-09-15T09:17:23.000Z</time>
      </trkpt>
      <trkpt lat="44.90301" lon="5.55814">
        <ele>1293</ele>
        <time>2013-09-15T09:17:25.000Z</time>
      </trkpt>
      <trkpt lat="44.903" lon="5.55807">
        <ele>1293</ele>
        <time>2013-09-15T09:17:28.000Z</time>
      </trkpt>
      <trkpt lat="44.903" lon="5.55801">
        <ele>1294</ele>
        <time>2013-09-15T09:17:30.000Z</time>
      </trkpt>
      <trkpt lat="44.903" lon="5.55794">
        <ele>1294</ele>
        <time>2013-09-15T09:17:33.000Z</time>
      </trkpt>
      <trkpt lat="44.903" lon="5.55788">
        <ele>1295</ele>
        <time>2013-09-15T09:17:36.000Z</time>
      </trkpt>
      <trkpt lat="44.90301" lon="5.55779">
        <ele>1295</ele>
        <time>2013-09-15T09:17:39.000Z</time>
      </trkpt>
      <trkpt lat="44.90301" lon="5.55773">
        <ele>1296</ele>
        <time>2013-09-15T09:17:42.000Z</time>
      </trkpt>
      <trkpt lat="44.90302" lon="5.55766">
        <ele>1296</ele>
        <time>2013-09-15T09:17:45.000Z</time>
      </trkpt>
      <trkpt lat="44.90302" lon="5.5576">
        <ele>1297</ele>
        <time>2013-09-15T09:17:48.000Z</time>
      </trkpt>
      <trkpt lat="44.90302" lon="5.55754">
        <ele>1298</ele>
        <time>2013-09-15T09:17:51.000Z</time>
      </trkpt>
      <trkpt lat="44.90302" lon="5.55747">
        <ele>1298</ele>
        <time>2013-09-15T09:17:54.000Z</time>
      </trkpt>
      <trkpt lat="44.90303" lon="5.55741">
        <ele>1299</ele>
        <time>2013-09-15T09:17:56.000Z</time>
      </trkpt>
      <trkpt lat="44.90303" lon="5.55732">
        <ele>1299</ele>
        <time>2013-09-15T09:17:59.000Z</time>
      </trkpt>
      <trkpt lat="44.90304" lon="5.55726">
        <ele>1300</ele>
        <time>2013-09-15T09:18:01.000Z</time>
      </trkpt>
      <trkpt lat="44.90304" lon="5.55719">
        <ele>1300</ele>
        <time>2013-09-15T09:18:03.000Z</time>
      </trkpt>
      <trkpt lat="44.90304" lon="5.55711">
        <ele>1300</ele>
        <time>2013-09-15T09:18:05.000Z</time>
      </trkpt>
      <trkpt lat="44.90305" lon="5.55704">
        <ele>1301</ele>
        <time>2013-09-15T09:18:07.000Z</time>
      </trkpt>
      <trkpt lat="44.90306" lon="5.55698">
        <ele>1301</ele>
        <time>2013-09-15T09:18:09.000Z</time>
      </trkpt>
      <trkpt lat="44.90306" lon="5.55689">
        <ele>1301</ele>
        <time>2013-09-15T09:18:11.000Z</time>
      </trkpt>
      <trkpt lat="44.90309" lon="5.55681">
        <ele>1302</ele>
        <time>2013-09-15T09:18:13.000Z</time>
      </trkpt>
      <trkpt lat="44.9031" lon="5.55674">
        <ele>1302</ele>
        <time>2013-09-15T09:18:17.000Z</time>
      </trkpt>
      <trkpt lat="44.90312" lon="5.55668">
        <ele>1303</ele>
        <time>2013-09-15T09:18:20.000Z</time>
      </trkpt>
      <trkpt lat="44.90315" lon="5.55661">
        <ele>1303</ele>
        <time>2013-09-15T09:18:22.000Z</time>
      </trkpt>
      <trkpt lat="44.90318" lon="5.55653">
        <ele>1303</ele>
        <time>2013-09-15T09:18:24.000Z</time>
      </trkpt>
      <trkpt lat="44.90322" lon="5.55642">
        <ele>1304</ele>
        <time>2013-09-15T09:18:26.000Z</time>
      </trkpt>
      <trkpt lat="44.90328" lon="5.55631">
        <ele>1305</ele>
        <time>2013-09-15T09:18:28.000Z</time>
      </trkpt>
      <trkpt lat="44.90334" lon="5.55621">
        <ele>1305</ele>
        <time>2013-09-15T09:18:30.000Z</time>
      </trkpt>
      <trkpt lat="44.9034" lon="5.55612">
        <ele>1304</ele>
        <time>2013-09-15T09:18:32.000Z</time>
      </trkpt>
      <trkpt lat="44.90344" lon="5.55606">
        <ele>1304</ele>
        <time>2013-09-15T09:18:34.000Z</time>
      </trkpt>
      <trkpt lat="44.90349" lon="5.55597">
        <ele>1304</ele>
        <time>2013-09-15T09:18:36.000Z</time>
      </trkpt>
      <trkpt lat="44.90355" lon="5.55591">
        <ele>1304</ele>
        <time>2013-09-15T09:18:38.000Z</time>
      </trkpt>
      <trkpt lat="44.90359" lon="5.55588">
        <ele>1304</ele>
        <time>2013-09-15T09:18:39.000Z</time>
      </trkpt>
      <trkpt lat="44.90366" lon="5.55582">
        <ele>1304</ele>
        <time>2013-09-15T09:18:41.000Z</time>
      </trkpt>
      <trkpt lat="44.90373" lon="5.55578">
        <ele>1304</ele>
        <time>2013-09-15T09:18:43.000Z</time>
      </trkpt>
      <trkpt lat="44.9038" lon="5.55573">
        <ele>1304</ele>
        <time>2013-09-15T09:18:45.000Z</time>
      </trkpt>
      <trkpt lat="44.90385" lon="5.55571">
        <ele>1304</ele>
        <time>2013-09-15T09:18:46.000Z</time>
      </trkpt>
      <trkpt lat="44.90392" lon="5.55569">
        <ele>1305</ele>
        <time>2013-09-15T09:18:48.000Z</time>
      </trkpt>
      <trkpt lat="44.90392" lon="5.55569">
        <ele>1305</ele>
        <time>2013-09-15T09:18:48.000Z</time>
      </trkpt>
      <trkpt lat="44.90392" lon="5.55569">
        <ele>1305</ele>
        <time>2013-09-15T09:18:53.000Z</time>
      </trkpt>
      <trkpt lat="44.90399" lon="5.55569">
        <ele>1305</ele>
        <time>2013-09-15T09:18:54.000Z</time>
      </trkpt>
      <trkpt lat="44.90409" lon="5.55567">
        <ele>1304</ele>
        <time>2013-09-15T09:18:57.000Z</time>
      </trkpt>
      <trkpt lat="44.90416" lon="5.55569">
        <ele>1304</ele>
        <time>2013-09-15T09:18:58.000Z</time>
      </trkpt>
      <trkpt lat="44.90421" lon="5.55571">
        <ele>1303</ele>
        <time>2013-09-15T09:18:59.000Z</time>
      </trkpt>
      <trkpt lat="44.90428" lon="5.55573">
        <ele>1303</ele>
        <time>2013-09-15T09:19:00.000Z</time>
      </trkpt>
      <trkpt lat="44.90433" lon="5.55573">
        <ele>1302</ele>
        <time>2013-09-15T09:19:01.000Z</time>
      </trkpt>
      <trkpt lat="44.9044" lon="5.55576">
        <ele>1301</ele>
        <time>2013-09-15T09:19:02.000Z</time>
      </trkpt>
      <trkpt lat="44.90445" lon="5.55576">
        <ele>1301</ele>
        <time>2013-09-15T09:19:03.000Z</time>
      </trkpt>
      <trkpt lat="44.9045" lon="5.55578">
        <ele>1301</ele>
        <time>2013-09-15T09:19:04.000Z</time>
      </trkpt>
      <trkpt lat="44.90456" lon="5.5558">
        <ele>1300</ele>
        <time>2013-09-15T09:19:05.000Z</time>
      </trkpt>
      <trkpt lat="44.90461" lon="5.55582">
        <ele>1300</ele>
        <time>2013-09-15T09:19:06.000Z</time>
      </trkpt>
      <trkpt lat="44.90467" lon="5.55584">
        <ele>1300</ele>
        <time>2013-09-15T09:19:07.000Z</time>
      </trkpt>
      <trkpt lat="44.90473" lon="5.55586">
        <ele>1300</ele>
        <time>2013-09-15T09:19:08.000Z</time>
      </trkpt>
      <trkpt lat="44.90478" lon="5.55588">
        <ele>1299</ele>
        <time>2013-09-15T09:19:09.000Z</time>
      </trkpt>
      <trkpt lat="44.90484" lon="5.55591">
        <ele>1299</ele>
        <time>2013-09-15T09:19:10.000Z</time>
      </trkpt>
      <trkpt lat="44.90489" lon="5.55591">
        <ele>1299</ele>
        <time>2013-09-15T09:19:11.000Z</time>
      </trkpt>
      <trkpt lat="44.90494" lon="5.55593">
        <ele>1298</ele>
        <time>2013-09-15T09:19:12.000Z</time>
      </trkpt>
      <trkpt lat="44.905" lon="5.55595">
        <ele>1298</ele>
        <time>2013-09-15T09:19:13.000Z</time>
      </trkpt>
      <trkpt lat="44.90506" lon="5.55597">
        <ele>1298</ele>
        <time>2013-09-15T09:19:14.000Z</time>
      </trkpt>
      <trkpt lat="44.90511" lon="5.55599">
        <ele>1298</ele>
        <time>2013-09-15T09:19:15.000Z</time>
      </trkpt>
      <trkpt lat="44.90517" lon="5.55599">
        <ele>1298</ele>
        <time>2013-09-15T09:19:16.000Z</time>
      </trkpt>
      <trkpt lat="44.90523" lon="5.55597">
        <ele>1298</ele>
        <time>2013-09-15T09:19:17.000Z</time>
      </trkpt>
      <trkpt lat="44.90528" lon="5.55595">
        <ele>1298</ele>
        <time>2013-09-15T09:19:18.000Z</time>
      </trkpt>
      <trkpt lat="44.90535" lon="5.55593">
        <ele>1297</ele>
        <time>2013-09-15T09:19:19.000Z</time>
      </trkpt>
      <trkpt lat="44.90541" lon="5.55591">
        <ele>1297</ele>
        <time>2013-09-15T09:19:20.000Z</time>
      </trkpt>
      <trkpt lat="44.90549" lon="5.55586">
        <ele>1296</ele>
        <time>2013-09-15T09:19:21.000Z</time>
      </trkpt>
      <trkpt lat="44.90555" lon="5.55584">
        <ele>1296</ele>
        <time>2013-09-15T09:19:22.000Z</time>
      </trkpt>
      <trkpt lat="44.90563" lon="5.5558">
        <ele>1295</ele>
        <time>2013-09-15T09:19:23.000Z</time>
      </trkpt>
      <trkpt lat="44.90569" lon="5.55576">
        <ele>1295</ele>
        <time>2013-09-15T09:19:24.000Z</time>
      </trkpt>
      <trkpt lat="44.90576" lon="5.55573">
        <ele>1294</ele>
        <time>2013-09-15T09:19:25.000Z</time>
      </trkpt>
      <trkpt lat="44.90582" lon="5.55569">
        <ele>1294</ele>
        <time>2013-09-15T09:19:26.000Z</time>
      </trkpt>
      <trkpt lat="44.90589" lon="5.55567">
        <ele>1293</ele>
        <time>2013-09-15T09:19:27.000Z</time>
      </trkpt>
      <trkpt lat="44.90596" lon="5.55567">
        <ele>1292</ele>
        <time>2013-09-15T09:19:28.000Z</time>
      </trkpt>
      <trkpt lat="44.90603" lon="5.55565">
        <ele>1291</ele>
        <time>2013-09-15T09:19:29.000Z</time>
      </trkpt>
      <trkpt lat="44.90609" lon="5.55565">
        <ele>1290</ele>
        <time>2013-09-15T09:19:30.000Z</time>
      </trkpt>
      <trkpt lat="44.90616" lon="5.55567">
        <ele>1290</ele>
        <time>2013-09-15T09:19:31.000Z</time>
      </trkpt>
      <trkpt lat="44.90624" lon="5.55567">
        <ele>1289</ele>
        <time>2013-09-15T09:19:32.000Z</time>
      </trkpt>
      <trkpt lat="44.9063" lon="5.55567">
        <ele>1288</ele>
        <time>2013-09-15T09:19:33.000Z</time>
      </trkpt>
      <trkpt lat="44.90637" lon="5.55569">
        <ele>1287</ele>
        <time>2013-09-15T09:19:34.000Z</time>
      </trkpt>
      <trkpt lat="44.90643" lon="5.55569">
        <ele>1287</ele>
        <time>2013-09-15T09:19:35.000Z</time>
      </trkpt>
      <trkpt lat="44.90648" lon="5.55571">
        <ele>1287</ele>
        <time>2013-09-15T09:19:36.000Z</time>
      </trkpt>
      <trkpt lat="44.90655" lon="5.55569">
        <ele>1286</ele>
        <time>2013-09-15T09:19:38.000Z</time>
      </trkpt>
      <trkpt lat="44.90659" lon="5.55567">
        <ele>1286</ele>
        <time>2013-09-15T09:19:40.000Z</time>
      </trkpt>
      <trkpt lat="44.90662" lon="5.5556">
        <ele>1286</ele>
        <time>2013-09-15T09:19:41.000Z</time>
      </trkpt>
      <trkpt lat="44.90663" lon="5.5555">
        <ele>1285</ele>
        <time>2013-09-15T09:19:43.000Z</time>
      </trkpt>
      <trkpt lat="44.90663" lon="5.55543">
        <ele>1285</ele>
        <time>2013-09-15T09:19:44.000Z</time>
      </trkpt>
      <trkpt lat="44.90664" lon="5.55537">
        <ele>1284</ele>
        <time>2013-09-15T09:19:45.000Z</time>
      </trkpt>
      <trkpt lat="44.90664" lon="5.5553">
        <ele>1284</ele>
        <time>2013-09-15T09:19:46.000Z</time>
      </trkpt>
      <trkpt lat="44.90665" lon="5.55524">
        <ele>1284</ele>
        <time>2013-09-15T09:19:47.000Z</time>
      </trkpt>
      <trkpt lat="44.90666" lon="5.55518">
        <ele>1283</ele>
        <time>2013-09-15T09:19:48.000Z</time>
      </trkpt>
      <trkpt lat="44.90667" lon="5.55511">
        <ele>1283</ele>
        <time>2013-09-15T09:19:50.000Z</time>
      </trkpt>
      <trkpt lat="44.90673" lon="5.55503">
        <ele>1283</ele>
        <time>2013-09-15T09:19:53.000Z</time>
      </trkpt>
      <trkpt lat="44.90679" lon="5.55498">
        <ele>1283</ele>
        <time>2013-09-15T09:19:55.000Z</time>
      </trkpt>
      <trkpt lat="44.90683" lon="5.55496">
        <ele>1283</ele>
        <time>2013-09-15T09:19:56.000Z</time>
      </trkpt>
      <trkpt lat="44.90692" lon="5.55496">
        <ele>1279</ele>
        <time>2013-09-15T09:19:58.000Z</time>
      </trkpt>
      <trkpt lat="44.90696" lon="5.55494">
        <ele>1278</ele>
        <time>2013-09-15T09:19:59.000Z</time>
      </trkpt>
      <trkpt lat="44.90704" lon="5.55494">
        <ele>1276</ele>
        <time>2013-09-15T09:20:01.000Z</time>
      </trkpt>
      <trkpt lat="44.90712" lon="5.55494">
        <ele>1275</ele>
        <time>2013-09-15T09:20:03.000Z</time>
      </trkpt>
      <trkpt lat="44.90712" lon="5.55494">
        <ele>1275</ele>
        <time>2013-09-15T09:20:03.000Z</time>
      </trkpt>
      <trkpt lat="44.90712" lon="5.55494">
        <ele>1275</ele>
        <time>2013-09-15T09:20:29.000Z</time>
      </trkpt>
      <trkpt lat="44.90721" lon="5.55498">
        <ele>1273</ele>
        <time>2013-09-15T09:20:30.000Z</time>
      </trkpt>
      <trkpt lat="44.90721" lon="5.55498">
        <ele>1273</ele>
        <time>2013-09-15T09:20:30.000Z</time>
      </trkpt>
      <trkpt lat="44.90721" lon="5.55498">
        <ele>1273</ele>
        <time>2013-09-15T09:20:31.000Z</time>
      </trkpt>
      <trkpt lat="44.90727" lon="5.55503">
        <ele>1273</ele>
        <time>2013-09-15T09:20:32.000Z</time>
      </trkpt>
      <trkpt lat="44.90734" lon="5.55503">
        <ele>1272</ele>
        <time>2013-09-15T09:20:34.000Z</time>
      </trkpt>
      <trkpt lat="44.9074" lon="5.55503">
        <ele>1271</ele>
        <time>2013-09-15T09:20:38.000Z</time>
      </trkpt>
      <trkpt lat="44.9074" lon="5.55503">
        <ele>1271</ele>
        <time>2013-09-15T09:20:38.000Z</time>
      </trkpt>
      <trkpt lat="44.9074" lon="5.55503">
        <ele>1271</ele>
        <time>2013-09-15T09:20:41.000Z</time>
      </trkpt>
      <trkpt lat="44.90746" lon="5.55498">
        <ele>1270</ele>
        <time>2013-09-15T09:20:42.000Z</time>
      </trkpt>
      <trkpt lat="44.90746" lon="5.55498">
        <ele>1270</ele>
        <time>2013-09-15T09:20:42.000Z</time>
      </trkpt>
      <trkpt lat="44.90746" lon="5.55498">
        <ele>1270</ele>
        <time>2013-09-15T09:20:45.000Z</time>
      </trkpt>
      <trkpt lat="44.90753" lon="5.55492">
        <ele>1269</ele>
        <time>2013-09-15T09:20:46.000Z</time>
      </trkpt>
      <trkpt lat="44.90753" lon="5.55492">
        <ele>1269</ele>
        <time>2013-09-15T09:20:46.000Z</time>
      </trkpt>
      <trkpt lat="44.90753" lon="5.55492">
        <ele>1269</ele>
        <time>2013-09-15T09:20:48.000Z</time>
      </trkpt>
      <trkpt lat="44.9076" lon="5.5549">
        <ele>1269</ele>
        <time>2013-09-15T09:20:49.000Z</time>
      </trkpt>
      <trkpt lat="44.90772" lon="5.55485">
        <ele>1268</ele>
        <time>2013-09-15T09:20:54.000Z</time>
      </trkpt>
      <trkpt lat="44.90772" lon="5.55485">
        <ele>1268</ele>
        <time>2013-09-15T09:20:54.000Z</time>
      </trkpt>
      <trkpt lat="44.90772" lon="5.55485">
        <ele>1268</ele>
        <time>2013-09-15T09:20:57.000Z</time>
      </trkpt>
      <trkpt lat="44.90782" lon="5.55481">
        <ele>1267</ele>
        <time>2013-09-15T09:20:58.000Z</time>
      </trkpt>
      <trkpt lat="44.90782" lon="5.55481">
        <ele>1267</ele>
        <time>2013-09-15T09:20:58.000Z</time>
      </trkpt>
      <trkpt lat="44.90782" lon="5.55481">
        <ele>1267</ele>
        <time>2013-09-15T09:21:00.000Z</time>
      </trkpt>
      <trkpt lat="44.90789" lon="5.55477">
        <ele>1267</ele>
        <time>2013-09-15T09:21:01.000Z</time>
      </trkpt>
      <trkpt lat="44.90789" lon="5.55477">
        <ele>1267</ele>
        <time>2013-09-15T09:21:01.000Z</time>
      </trkpt>
      <trkpt lat="44.90789" lon="5.55477">
        <ele>1267</ele>
        <time>2013-09-15T09:21:04.000Z</time>
      </trkpt>
      <trkpt lat="44.90797" lon="5.55475">
        <ele>1266</ele>
        <time>2013-09-15T09:21:05.000Z</time>
      </trkpt>
      <trkpt lat="44.90797" lon="5.55475">
        <ele>1266</ele>
        <time>2013-09-15T09:21:05.000Z</time>
      </trkpt>
      <trkpt lat="44.90797" lon="5.55475">
        <ele>1266</ele>
        <time>2013-09-15T09:21:06.000Z</time>
      </trkpt>
      <trkpt lat="44.90803" lon="5.55468">
        <ele>1265</ele>
        <time>2013-09-15T09:21:08.000Z</time>
      </trkpt>
      <trkpt lat="44.90808" lon="5.5546">
        <ele>1265</ele>
        <time>2013-09-15T09:21:10.000Z</time>
      </trkpt>
      <trkpt lat="44.9081" lon="5.55451">
        <ele>1264</ele>
        <time>2013-09-15T09:21:12.000Z</time>
      </trkpt>
      <trkpt lat="44.90812" lon="5.55445">
        <ele>1264</ele>
        <time>2013-09-15T09:21:13.000Z</time>
      </trkpt>
      <trkpt lat="44.90814" lon="5.55436">
        <ele>1264</ele>
        <time>2013-09-15T09:21:15.000Z</time>
      </trkpt>
      <trkpt lat="44.90816" lon="5.55428">
        <ele>1263</ele>
        <time>2013-09-15T09:21:17.000Z</time>
      </trkpt>
      <trkpt lat="44.90817" lon="5.55419">
        <ele>1263</ele>
        <time>2013-09-15T09:21:19.000Z</time>
      </trkpt>
      <trkpt lat="44.90818" lon="5.5541">
        <ele>1262</ele>
        <time>2013-09-15T09:21:21.000Z</time>
      </trkpt>
      <trkpt lat="44.90819" lon="5.55402">
        <ele>1262</ele>
        <time>2013-09-15T09:21:23.000Z</time>
      </trkpt>
      <trkpt lat="44.9082" lon="5.55393">
        <ele>1262</ele>
        <time>2013-09-15T09:21:25.000Z</time>
      </trkpt>
      <trkpt lat="44.90822" lon="5.55385">
        <ele>1261</ele>
        <time>2013-09-15T09:21:27.000Z</time>
      </trkpt>
      <trkpt lat="44.90824" lon="5.55376">
        <ele>1261</ele>
        <time>2013-09-15T09:21:29.000Z</time>
      </trkpt>
      <trkpt lat="44.90826" lon="5.55367">
        <ele>1261</ele>
        <time>2013-09-15T09:21:31.000Z</time>
      </trkpt>
      <trkpt lat="44.90827" lon="5.55359">
        <ele>1260</ele>
        <time>2013-09-15T09:21:33.000Z</time>
      </trkpt>
      <trkpt lat="44.90828" lon="5.5535">
        <ele>1260</ele>
        <time>2013-09-15T09:21:35.000Z</time>
      </trkpt>
      <trkpt lat="44.9083" lon="5.55342">
        <ele>1260</ele>
        <time>2013-09-15T09:21:37.000Z</time>
      </trkpt>
      <trkpt lat="44.90831" lon="5.55333">
        <ele>1260</ele>
        <time>2013-09-15T09:21:39.000Z</time>
      </trkpt>
      <trkpt lat="44.90832" lon="5.55327">
        <ele>1259</ele>
        <time>2013-09-15T09:21:41.000Z</time>
      </trkpt>
      <trkpt lat="44.90833" lon="5.55318">
        <ele>1259</ele>
        <time>2013-09-15T09:21:43.000Z</time>
      </trkpt>
      <trkpt lat="44.90834" lon="5.5531">
        <ele>1259</ele>
        <time>2013-09-15T09:21:45.000Z</time>
      </trkpt>
      <trkpt lat="44.90836" lon="5.55303">
        <ele>1259</ele>
        <time>2013-09-15T09:21:47.000Z</time>
      </trkpt>
      <trkpt lat="44.90839" lon="5.55297">
        <ele>1259</ele>
        <time>2013-09-15T09:21:49.000Z</time>
      </trkpt>
      <trkpt lat="44.90841" lon="5.5529">
        <ele>1259</ele>
        <time>2013-09-15T09:21:51.000Z</time>
      </trkpt>
      <trkpt lat="44.90849" lon="5.55277">
        <ele>1258</ele>
        <time>2013-09-15T09:22:00.000Z</time>
      </trkpt>
      <trkpt lat="44.90849" lon="5.55277">
        <ele>1258</ele>
        <time>2013-09-15T09:22:00.000Z</time>
      </trkpt>
      <trkpt lat="44.90849" lon="5.55277">
        <ele>1258</ele>
        <time>2013-09-15T09:22:02.000Z</time>
      </trkpt>
      <trkpt lat="44.90848" lon="5.55269">
        <ele>1258</ele>
        <time>2013-09-15T09:22:03.000Z</time>
      </trkpt>
      <trkpt lat="44.90848" lon="5.55269">
        <ele>1258</ele>
        <time>2013-09-15T09:22:03.000Z</time>
      </trkpt>
      <trkpt lat="44.90848" lon="5.55269">
        <ele>1258</ele>
        <time>2013-09-15T09:22:05.000Z</time>
      </trkpt>
      <trkpt lat="44.90846" lon="5.55262">
        <ele>1258</ele>
        <time>2013-09-15T09:22:06.000Z</time>
      </trkpt>
      <trkpt lat="44.90846" lon="5.55262">
        <ele>1258</ele>
        <time>2013-09-15T09:22:06.000Z</time>
      </trkpt>
      <trkpt lat="44.90846" lon="5.55262">
        <ele>1258</ele>
        <time>2013-09-15T09:22:10.000Z</time>
      </trkpt>
      <trkpt lat="44.90841" lon="5.55258">
        <ele>1258</ele>
        <time>2013-09-15T09:22:11.000Z</time>
      </trkpt>
      <trkpt lat="44.90841" lon="5.55258">
        <ele>1258</ele>
        <time>2013-09-15T09:22:11.000Z</time>
      </trkpt>
      <trkpt lat="44.90841" lon="5.55258">
        <ele>1258</ele>
        <time>2013-09-15T09:22:14.000Z</time>
      </trkpt>
      <trkpt lat="44.90838" lon="5.55264">
        <ele>1258</ele>
        <time>2013-09-15T09:22:15.000Z</time>
      </trkpt>
      <trkpt lat="44.90841" lon="5.55271">
        <ele>1258</ele>
        <time>2013-09-15T09:22:19.000Z</time>
      </trkpt>
      <trkpt lat="44.90845" lon="5.55279">
        <ele>1258</ele>
        <time>2013-09-15T09:22:27.000Z</time>
      </trkpt>
      <trkpt lat="44.90845" lon="5.55279">
        <ele>1258</ele>
        <time>2013-09-15T09:22:27.000Z</time>
      </trkpt>
      <trkpt lat="44.90845" lon="5.55279">
        <ele>1258</ele>
        <time>2013-09-15T09:22:36.000Z</time>
      </trkpt>
      <trkpt lat="44.9084" lon="5.55275">
        <ele>1258</ele>
        <time>2013-09-15T09:22:37.000Z</time>
      </trkpt>
      <trkpt lat="44.9084" lon="5.55275">
        <ele>1258</ele>
        <time>2013-09-15T09:22:37.000Z</time>
      </trkpt>
      <trkpt lat="44.9084" lon="5.55275">
        <ele>1258</ele>
        <time>2013-09-15T09:22:47.000Z</time>
      </trkpt>
      <trkpt lat="44.90844" lon="5.55282">
        <ele>1259</ele>
        <time>2013-09-15T09:22:48.000Z</time>
      </trkpt>
      <trkpt lat="44.90844" lon="5.55282">
        <ele>1259</ele>
        <time>2013-09-15T09:22:48.000Z</time>
      </trkpt>
      <trkpt lat="44.90844" lon="5.55282">
        <ele>1259</ele>
        <time>2013-09-15T09:22:52.000Z</time>
      </trkpt>
      <trkpt lat="44.90852" lon="5.55286">
        <ele>1259</ele>
        <time>2013-09-15T09:22:53.000Z</time>
      </trkpt>
      <trkpt lat="44.90852" lon="5.55286">
        <ele>1259</ele>
        <time>2013-09-15T09:22:53.000Z</time>
      </trkpt>
      <trkpt lat="44.90852" lon="5.55286">
        <ele>1259</ele>
        <time>2013-09-15T09:22:57.000Z</time>
      </trkpt>
      <trkpt lat="44.9086" lon="5.55286">
        <ele>1259</ele>
        <time>2013-09-15T09:22:58.000Z</time>
      </trkpt>
      <trkpt lat="44.9086" lon="5.55286">
        <ele>1259</ele>
        <time>2013-09-15T09:22:58.000Z</time>
      </trkpt>
      <trkpt lat="44.9086" lon="5.55286">
        <ele>1259</ele>
        <time>2013-09-15T09:23:00.000Z</time>
      </trkpt>
      <trkpt lat="44.90865" lon="5.55288">
        <ele>1259</ele>
        <time>2013-09-15T09:23:01.000Z</time>
      </trkpt>
      <trkpt lat="44.90865" lon="5.55288">
        <ele>1259</ele>
        <time>2013-09-15T09:23:01.000Z</time>
      </trkpt>
      <trkpt lat="44.90865" lon="5.55288">
        <ele>1259</ele>
        <time>2013-09-15T09:23:02.000Z</time>
      </trkpt>
      <trkpt lat="44.90871" lon="5.55288">
        <ele>1259</ele>
        <time>2013-09-15T09:23:04.000Z</time>
      </trkpt>
      <trkpt lat="44.90877" lon="5.55288">
        <ele>1260</ele>
        <time>2013-09-15T09:23:08.000Z</time>
      </trkpt>
      <trkpt lat="44.90883" lon="5.55288">
        <ele>1260</ele>
        <time>2013-09-15T09:23:11.000Z</time>
      </trkpt>
      <trkpt lat="44.90888" lon="5.5529">
        <ele>1260</ele>
        <time>2013-09-15T09:23:14.000Z</time>
      </trkpt>
      <trkpt lat="44.90893" lon="5.55292">
        <ele>1260</ele>
        <time>2013-09-15T09:23:17.000Z</time>
      </trkpt>
      <trkpt lat="44.90899" lon="5.55292">
        <ele>1260</ele>
        <time>2013-09-15T09:23:20.000Z</time>
      </trkpt>
      <trkpt lat="44.90904" lon="5.55294">
        <ele>1260</ele>
        <time>2013-09-15T09:23:23.000Z</time>
      </trkpt>
      <trkpt lat="44.9091" lon="5.55294">
        <ele>1261</ele>
        <time>2013-09-15T09:23:27.000Z</time>
      </trkpt>
      <trkpt lat="44.90916" lon="5.5529">
        <ele>1261</ele>
        <time>2013-09-15T09:23:30.000Z</time>
      </trkpt>
      <trkpt lat="44.9092" lon="5.55288">
        <ele>1261</ele>
        <time>2013-09-15T09:23:33.000Z</time>
      </trkpt>
      <trkpt lat="44.90924" lon="5.55284">
        <ele>1261</ele>
        <time>2013-09-15T09:23:36.000Z</time>
      </trkpt>
      <trkpt lat="44.90924" lon="5.55284">
        <ele>1261</ele>
        <time>2013-09-15T09:23:36.000Z</time>
      </trkpt>
      <trkpt lat="44.90924" lon="5.55284">
        <ele>1261</ele>
        <time>2013-09-15T09:23:37.000Z</time>
      </trkpt>
      <trkpt lat="44.90929" lon="5.55279">
        <ele>1261</ele>
        <time>2013-09-15T09:23:41.000Z</time>
      </trkpt>
      <trkpt lat="44.90933" lon="5.55275">
        <ele>1261</ele>
        <time>2013-09-15T09:23:44.000Z</time>
      </trkpt>
      <trkpt lat="44.90937" lon="5.55271">
        <ele>1262</ele>
        <time>2013-09-15T09:23:47.000Z</time>
      </trkpt>
      <trkpt lat="44.90942" lon="5.55267">
        <ele>1262</ele>
        <time>2013-09-15T09:23:50.000Z</time>
      </trkpt>
      <trkpt lat="44.90946" lon="5.55262">
        <ele>1262</ele>
        <time>2013-09-15T09:23:53.000Z</time>
      </trkpt>
      <trkpt lat="44.9095" lon="5.55258">
        <ele>1263</ele>
        <time>2013-09-15T09:23:56.000Z</time>
      </trkpt>
      <trkpt lat="44.90956" lon="5.55252">
        <ele>1263</ele>
        <time>2013-09-15T09:24:00.000Z</time>
      </trkpt>
      <trkpt lat="44.9096" lon="5.55247">
        <ele>1263</ele>
        <time>2013-09-15T09:24:03.000Z</time>
      </trkpt>
      <trkpt lat="44.90964" lon="5.55243">
        <ele>1264</ele>
        <time>2013-09-15T09:24:06.000Z</time>
      </trkpt>
      <trkpt lat="44.9097" lon="5.55236">
        <ele>1264</ele>
        <time>2013-09-15T09:24:10.000Z</time>
      </trkpt>
      <trkpt lat="44.90975" lon="5.5523">
        <ele>1264</ele>
        <time>2013-09-15T09:24:14.000Z</time>
      </trkpt>
      <trkpt lat="44.90979" lon="5.55226">
        <ele>1265</ele>
        <time>2013-09-15T09:24:17.000Z</time>
      </trkpt>
      <trkpt lat="44.90984" lon="5.55219">
        <ele>1265</ele>
        <time>2013-09-15T09:24:21.000Z</time>
      </trkpt>
      <trkpt lat="44.90989" lon="5.55215">
        <ele>1265</ele>
        <time>2013-09-15T09:24:24.000Z</time>
      </trkpt>
      <trkpt lat="44.90993" lon="5.55209">
        <ele>1265</ele>
        <time>2013-09-15T09:24:27.000Z</time>
      </trkpt>
      <trkpt lat="44.90997" lon="5.55204">
        <ele>1265</ele>
        <time>2013-09-15T09:24:30.000Z</time>
      </trkpt>
      <trkpt lat="44.91002" lon="5.552">
        <ele>1266</ele>
        <time>2013-09-15T09:24:33.000Z</time>
      </trkpt>
      <trkpt lat="44.91005" lon="5.55194">
        <ele>1266</ele>
        <time>2013-09-15T09:24:36.000Z</time>
      </trkpt>
      <trkpt lat="44.91009" lon="5.55192">
        <ele>1266</ele>
        <time>2013-09-15T09:24:39.000Z</time>
      </trkpt>
      <trkpt lat="44.91009" lon="5.55192">
        <ele>1266</ele>
        <time>2013-09-15T09:24:39.000Z</time>
      </trkpt>
      <trkpt lat="44.91009" lon="5.55192">
        <ele>1266</ele>
        <time>2013-09-15T09:25:00.000Z</time>
      </trkpt>
      <trkpt lat="44.91014" lon="5.55183">
        <ele>1270</ele>
        <time>2013-09-15T09:25:34.000Z</time>
      </trkpt>
      <trkpt lat="44.91019" lon="5.55179">
        <ele>1270</ele>
        <time>2013-09-15T09:25:36.000Z</time>
      </trkpt>
      <trkpt lat="44.91023" lon="5.55174">
        <ele>1271</ele>
        <time>2013-09-15T09:25:38.000Z</time>
      </trkpt>
      <trkpt lat="44.91027" lon="5.5517">
        <ele>1272</ele>
        <time>2013-09-15T09:25:40.000Z</time>
      </trkpt>
      <trkpt lat="44.91032" lon="5.55166">
        <ele>1272</ele>
        <time>2013-09-15T09:25:43.000Z</time>
      </trkpt>
      <trkpt lat="44.91036" lon="5.55161">
        <ele>1273</ele>
        <time>2013-09-15T09:25:46.000Z</time>
      </trkpt>
      <trkpt lat="44.9104" lon="5.55157">
        <ele>1274</ele>
        <time>2013-09-15T09:25:50.000Z</time>
      </trkpt>
      <trkpt lat="44.91046" lon="5.55153">
        <ele>1275</ele>
        <time>2013-09-15T09:25:53.000Z</time>
      </trkpt>
      <trkpt lat="44.9105" lon="5.55146">
        <ele>1275</ele>
        <time>2013-09-15T09:25:56.000Z</time>
      </trkpt>
      <trkpt lat="44.91055" lon="5.55142">
        <ele>1276</ele>
        <time>2013-09-15T09:25:59.000Z</time>
      </trkpt>
      <trkpt lat="44.91061" lon="5.55136">
        <ele>1276</ele>
        <time>2013-09-15T09:26:02.000Z</time>
      </trkpt>
      <trkpt lat="44.91066" lon="5.55131">
        <ele>1276</ele>
        <time>2013-09-15T09:26:04.000Z</time>
      </trkpt>
      <trkpt lat="44.91072" lon="5.55123">
        <ele>1277</ele>
        <time>2013-09-15T09:26:06.000Z</time>
      </trkpt>
      <trkpt lat="44.91079" lon="5.55116">
        <ele>1278</ele>
        <time>2013-09-15T09:26:08.000Z</time>
      </trkpt>
      <trkpt lat="44.91086" lon="5.5511">
        <ele>1279</ele>
        <time>2013-09-15T09:26:10.000Z</time>
      </trkpt>
      <trkpt lat="44.91091" lon="5.55106">
        <ele>1279</ele>
        <time>2013-09-15T09:26:11.000Z</time>
      </trkpt>
      <trkpt lat="44.91096" lon="5.55104">
        <ele>1279</ele>
        <time>2013-09-15T09:26:12.000Z</time>
      </trkpt>
      <trkpt lat="44.91102" lon="5.55101">
        <ele>1279</ele>
        <time>2013-09-15T09:26:13.000Z</time>
      </trkpt>
      <trkpt lat="44.91107" lon="5.55099">
        <ele>1279</ele>
        <time>2013-09-15T09:26:14.000Z</time>
      </trkpt>
      <trkpt lat="44.91112" lon="5.55097">
        <ele>1279</ele>
        <time>2013-09-15T09:26:15.000Z</time>
      </trkpt>
      <trkpt lat="44.91118" lon="5.55095">
        <ele>1279</ele>
        <time>2013-09-15T09:26:16.000Z</time>
      </trkpt>
      <trkpt lat="44.91123" lon="5.55093">
        <ele>1279</ele>
        <time>2013-09-15T09:26:17.000Z</time>
      </trkpt>
      <trkpt lat="44.91128" lon="5.55088">
        <ele>1278</ele>
        <time>2013-09-15T09:26:18.000Z</time>
      </trkpt>
      <trkpt lat="44.91133" lon="5.55084">
        <ele>1278</ele>
        <time>2013-09-15T09:26:19.000Z</time>
      </trkpt>
      <trkpt lat="44.91137" lon="5.5508">
        <ele>1278</ele>
        <time>2013-09-15T09:26:20.000Z</time>
      </trkpt>
      <trkpt lat="44.91141" lon="5.55076">
        <ele>1278</ele>
        <time>2013-09-15T09:26:21.000Z</time>
      </trkpt>
      <trkpt lat="44.91145" lon="5.55071">
        <ele>1278</ele>
        <time>2013-09-15T09:26:22.000Z</time>
      </trkpt>
      <trkpt lat="44.9115" lon="5.55067">
        <ele>1278</ele>
        <time>2013-09-15T09:26:23.000Z</time>
      </trkpt>
      <trkpt lat="44.91154" lon="5.55061">
        <ele>1278</ele>
        <time>2013-09-15T09:26:24.000Z</time>
      </trkpt>
      <trkpt lat="44.91156" lon="5.55054">
        <ele>1277</ele>
        <time>2013-09-15T09:26:25.000Z</time>
      </trkpt>
      <trkpt lat="44.91159" lon="5.55048">
        <ele>1277</ele>
        <time>2013-09-15T09:26:26.000Z</time>
      </trkpt>
      <trkpt lat="44.91163" lon="5.55041">
        <ele>1277</ele>
        <time>2013-09-15T09:26:27.000Z</time>
      </trkpt>
      <trkpt lat="44.91165" lon="5.55033">
        <ele>1277</ele>
        <time>2013-09-15T09:26:28.000Z</time>
      </trkpt>
      <trkpt lat="44.91168" lon="5.55026">
        <ele>1277</ele>
        <time>2013-09-15T09:26:29.000Z</time>
      </trkpt>
      <trkpt lat="44.91172" lon="5.55018">
        <ele>1277</ele>
        <time>2013-09-15T09:26:30.000Z</time>
      </trkpt>
      <trkpt lat="44.91176" lon="5.55011">
        <ele>1277</ele>
        <time>2013-09-15T09:26:31.000Z</time>
      </trkpt>
      <trkpt lat="44.9118" lon="5.55003">
        <ele>1277</ele>
        <time>2013-09-15T09:26:32.000Z</time>
      </trkpt>
      <trkpt lat="44.91184" lon="5.54994">
        <ele>1277</ele>
        <time>2013-09-15T09:26:33.000Z</time>
      </trkpt>
      <trkpt lat="44.91188" lon="5.54988">
        <ele>1277</ele>
        <time>2013-09-15T09:26:34.000Z</time>
      </trkpt>
      <trkpt lat="44.91194" lon="5.54979">
        <ele>1277</ele>
        <time>2013-09-15T09:26:35.000Z</time>
      </trkpt>
      <trkpt lat="44.91198" lon="5.54973">
        <ele>1277</ele>
        <time>2013-09-15T09:26:36.000Z</time>
      </trkpt>
      <trkpt lat="44.91203" lon="5.54966">
        <ele>1277</ele>
        <time>2013-09-15T09:26:37.000Z</time>
      </trkpt>
      <trkpt lat="44.91211" lon="5.54964">
        <ele>1276</ele>
        <time>2013-09-15T09:26:38.000Z</time>
      </trkpt>
      <trkpt lat="44.91218" lon="5.54962">
        <ele>1276</ele>
        <time>2013-09-15T09:26:39.000Z</time>
      </trkpt>
      <trkpt lat="44.91226" lon="5.54958">
        <ele>1275</ele>
        <time>2013-09-15T09:26:40.000Z</time>
      </trkpt>
      <trkpt lat="44.91233" lon="5.54955">
        <ele>1274</ele>
        <time>2013-09-15T09:26:41.000Z</time>
      </trkpt>
      <trkpt lat="44.91241" lon="5.54951">
        <ele>1273</ele>
        <time>2013-09-15T09:26:42.000Z</time>
      </trkpt>
      <trkpt lat="44.91248" lon="5.54947">
        <ele>1273</ele>
        <time>2013-09-15T09:26:43.000Z</time>
      </trkpt>
      <trkpt lat="44.91256" lon="5.54945">
        <ele>1272</ele>
        <time>2013-09-15T09:26:44.000Z</time>
      </trkpt>
      <trkpt lat="44.91264" lon="5.54943">
        <ele>1271</ele>
        <time>2013-09-15T09:26:45.000Z</time>
      </trkpt>
      <trkpt lat="44.9127" lon="5.5494">
        <ele>1271</ele>
        <time>2013-09-15T09:26:46.000Z</time>
      </trkpt>
      <trkpt lat="44.91276" lon="5.54938">
        <ele>1270</ele>
        <time>2013-09-15T09:26:47.000Z</time>
      </trkpt>
      <trkpt lat="44.91283" lon="5.54938">
        <ele>1270</ele>
        <time>2013-09-15T09:26:48.000Z</time>
      </trkpt>
      <trkpt lat="44.91289" lon="5.54938">
        <ele>1269</ele>
        <time>2013-09-15T09:26:49.000Z</time>
      </trkpt>
      <trkpt lat="44.91296" lon="5.54938">
        <ele>1268</ele>
        <time>2013-09-15T09:26:50.000Z</time>
      </trkpt>
      <trkpt lat="44.91301" lon="5.5494">
        <ele>1267</ele>
        <time>2013-09-15T09:26:51.000Z</time>
      </trkpt>
      <trkpt lat="44.91306" lon="5.5494">
        <ele>1266</ele>
        <time>2013-09-15T09:26:52.000Z</time>
      </trkpt>
      <trkpt lat="44.91312" lon="5.5494">
        <ele>1266</ele>
        <time>2013-09-15T09:26:53.000Z</time>
      </trkpt>
      <trkpt lat="44.91324" lon="5.5494">
        <ele>1264</ele>
        <time>2013-09-15T09:26:55.000Z</time>
      </trkpt>
      <trkpt lat="44.9133" lon="5.54938">
        <ele>1263</ele>
        <time>2013-09-15T09:26:56.000Z</time>
      </trkpt>
      <trkpt lat="44.91335" lon="5.54938">
        <ele>1263</ele>
        <time>2013-09-15T09:26:57.000Z</time>
      </trkpt>
      <trkpt lat="44.91341" lon="5.5494">
        <ele>1262</ele>
        <time>2013-09-15T09:26:58.000Z</time>
      </trkpt>
      <trkpt lat="44.9135" lon="5.5494">
        <ele>1262</ele>
        <time>2013-09-15T09:27:02.000Z</time>
      </trkpt>
      <trkpt lat="44.91356" lon="5.54945">
        <ele>1262</ele>
        <time>2013-09-15T09:27:04.000Z</time>
      </trkpt>
      <trkpt lat="44.9136" lon="5.54951">
        <ele>1261</ele>
        <time>2013-09-15T09:27:06.000Z</time>
      </trkpt>
      <trkpt lat="44.91364" lon="5.54955">
        <ele>1261</ele>
        <time>2013-09-15T09:27:08.000Z</time>
      </trkpt>
      <trkpt lat="44.9137" lon="5.5496">
        <ele>1261</ele>
        <time>2013-09-15T09:27:10.000Z</time>
      </trkpt>
      <trkpt lat="44.91375" lon="5.54964">
        <ele>1261</ele>
        <time>2013-09-15T09:27:12.000Z</time>
      </trkpt>
      <trkpt lat="44.9138" lon="5.54964">
        <ele>1261</ele>
        <time>2013-09-15T09:27:14.000Z</time>
      </trkpt>
      <trkpt lat="44.91386" lon="5.54962">
        <ele>1261</ele>
        <time>2013-09-15T09:27:16.000Z</time>
      </trkpt>
      <trkpt lat="44.91394" lon="5.5496">
        <ele>1259</ele>
        <time>2013-09-15T09:27:18.000Z</time>
      </trkpt>
      <trkpt lat="44.914" lon="5.54958">
        <ele>1258</ele>
        <time>2013-09-15T09:27:19.000Z</time>
      </trkpt>
      <trkpt lat="44.91407" lon="5.54953">
        <ele>1257</ele>
        <time>2013-09-15T09:27:20.000Z</time>
      </trkpt>
      <trkpt lat="44.91416" lon="5.54947">
        <ele>1256</ele>
        <time>2013-09-15T09:27:21.000Z</time>
      </trkpt>
      <trkpt lat="44.91424" lon="5.54938">
        <ele>1255</ele>
        <time>2013-09-15T09:27:22.000Z</time>
      </trkpt>
      <trkpt lat="44.91434" lon="5.5493">
        <ele>1255</ele>
        <time>2013-09-15T09:27:23.000Z</time>
      </trkpt>
      <trkpt lat="44.91443" lon="5.54921">
        <ele>1255</ele>
        <time>2013-09-15T09:27:24.000Z</time>
      </trkpt>
      <trkpt lat="44.91451" lon="5.54915">
        <ele>1256</ele>
        <time>2013-09-15T09:27:25.000Z</time>
      </trkpt>
      <trkpt lat="44.9146" lon="5.54906">
        <ele>1256</ele>
        <time>2013-09-15T09:27:26.000Z</time>
      </trkpt>
      <trkpt lat="44.91468" lon="5.54898">
        <ele>1256</ele>
        <time>2013-09-15T09:27:27.000Z</time>
      </trkpt>
      <trkpt lat="44.91477" lon="5.54889">
        <ele>1256</ele>
        <time>2013-09-15T09:27:28.000Z</time>
      </trkpt>
      <trkpt lat="44.91486" lon="5.5488">
        <ele>1256</ele>
        <time>2013-09-15T09:27:29.000Z</time>
      </trkpt>
      <trkpt lat="44.91495" lon="5.54872">
        <ele>1255</ele>
        <time>2013-09-15T09:27:30.000Z</time>
      </trkpt>
      <trkpt lat="44.91504" lon="5.54863">
        <ele>1254</ele>
        <time>2013-09-15T09:27:31.000Z</time>
      </trkpt>
      <trkpt lat="44.91511" lon="5.54855">
        <ele>1253</ele>
        <time>2013-09-15T09:27:32.000Z</time>
      </trkpt>
      <trkpt lat="44.91518" lon="5.54846">
        <ele>1252</ele>
        <time>2013-09-15T09:27:33.000Z</time>
      </trkpt>
      <trkpt lat="44.91524" lon="5.54837">
        <ele>1250</ele>
        <time>2013-09-15T09:27:34.000Z</time>
      </trkpt>
      <trkpt lat="44.91531" lon="5.54829">
        <ele>1249</ele>
        <time>2013-09-15T09:27:35.000Z</time>
      </trkpt>
      <trkpt lat="44.91535" lon="5.54824">
        <ele>1248</ele>
        <time>2013-09-15T09:27:36.000Z</time>
      </trkpt>
      <trkpt lat="44.91539" lon="5.5482">
        <ele>1248</ele>
        <time>2013-09-15T09:27:37.000Z</time>
      </trkpt>
      <trkpt lat="44.91545" lon="5.54816">
        <ele>1247</ele>
        <time>2013-09-15T09:27:38.000Z</time>
      </trkpt>
      <trkpt lat="44.9155" lon="5.54816">
        <ele>1246</ele>
        <time>2013-09-15T09:27:39.000Z</time>
      </trkpt>
      <trkpt lat="44.91554" lon="5.54814">
        <ele>1245</ele>
        <time>2013-09-15T09:27:40.000Z</time>
      </trkpt>
      <trkpt lat="44.91561" lon="5.54812">
        <ele>1245</ele>
        <time>2013-09-15T09:27:41.000Z</time>
      </trkpt>
      <trkpt lat="44.91567" lon="5.5481">
        <ele>1244</ele>
        <time>2013-09-15T09:27:42.000Z</time>
      </trkpt>
      <trkpt lat="44.91574" lon="5.5481">
        <ele>1243</ele>
        <time>2013-09-15T09:27:43.000Z</time>
      </trkpt>
      <trkpt lat="44.9158" lon="5.54807">
        <ele>1242</ele>
        <time>2013-09-15T09:27:44.000Z</time>
      </trkpt>
      <trkpt lat="44.91586" lon="5.54805">
        <ele>1242</ele>
        <time>2013-09-15T09:27:45.000Z</time>
      </trkpt>
      <trkpt lat="44.91594" lon="5.54805">
        <ele>1242</ele>
        <time>2013-09-15T09:27:46.000Z</time>
      </trkpt>
      <trkpt lat="44.91602" lon="5.54805">
        <ele>1242</ele>
        <time>2013-09-15T09:27:47.000Z</time>
      </trkpt>
      <trkpt lat="44.91611" lon="5.54805">
        <ele>1242</ele>
        <time>2013-09-15T09:27:48.000Z</time>
      </trkpt>
      <trkpt lat="44.9162" lon="5.54805">
        <ele>1242</ele>
        <time>2013-09-15T09:27:49.000Z</time>
      </trkpt>
      <trkpt lat="44.91627" lon="5.54803">
        <ele>1242</ele>
        <time>2013-09-15T09:27:50.000Z</time>
      </trkpt>
      <trkpt lat="44.91635" lon="5.54803">
        <ele>1242</ele>
        <time>2013-09-15T09:27:51.000Z</time>
      </trkpt>
      <trkpt lat="44.91642" lon="5.54801">
        <ele>1242</ele>
        <time>2013-09-15T09:27:52.000Z</time>
      </trkpt>
      <trkpt lat="44.9165" lon="5.54799">
        <ele>1243</ele>
        <time>2013-09-15T09:27:53.000Z</time>
      </trkpt>
      <trkpt lat="44.91655" lon="5.54799">
        <ele>1243</ele>
        <time>2013-09-15T09:27:54.000Z</time>
      </trkpt>
      <trkpt lat="44.9166" lon="5.54799">
        <ele>1243</ele>
        <time>2013-09-15T09:27:55.000Z</time>
      </trkpt>
      <trkpt lat="44.91666" lon="5.54797">
        <ele>1243</ele>
        <time>2013-09-15T09:27:56.000Z</time>
      </trkpt>
      <trkpt lat="44.91672" lon="5.54794">
        <ele>1244</ele>
        <time>2013-09-15T09:27:58.000Z</time>
      </trkpt>
      <trkpt lat="44.91685" lon="5.54786">
        <ele>1244</ele>
        <time>2013-09-15T09:28:06.000Z</time>
      </trkpt>
      <trkpt lat="44.91685" lon="5.54786">
        <ele>1244</ele>
        <time>2013-09-15T09:28:06.000Z</time>
      </trkpt>
      <trkpt lat="44.91685" lon="5.54786">
        <ele>1244</ele>
        <time>2013-09-15T09:28:09.000Z</time>
      </trkpt>
      <trkpt lat="44.91694" lon="5.54777">
        <ele>1244</ele>
        <time>2013-09-15T09:28:10.000Z</time>
      </trkpt>
      <trkpt lat="44.91694" lon="5.54777">
        <ele>1244</ele>
        <time>2013-09-15T09:28:10.000Z</time>
      </trkpt>
      <trkpt lat="44.91694" lon="5.54777">
        <ele>1244</ele>
        <time>2013-09-15T09:28:11.000Z</time>
      </trkpt>
      <trkpt lat="44.91699" lon="5.54773">
        <ele>1244</ele>
        <time>2013-09-15T09:28:12.000Z</time>
      </trkpt>
      <trkpt lat="44.91706" lon="5.54769">
        <ele>1244</ele>
        <time>2013-09-15T09:28:14.000Z</time>
      </trkpt>
      <trkpt lat="44.91712" lon="5.54767">
        <ele>1244</ele>
        <time>2013-09-15T09:28:16.000Z</time>
      </trkpt>
      <trkpt lat="44.91719" lon="5.54769">
        <ele>1243</ele>
        <time>2013-09-15T09:28:18.000Z</time>
      </trkpt>
      <trkpt lat="44.91728" lon="5.54771">
        <ele>1241</ele>
        <time>2013-09-15T09:28:20.000Z</time>
      </trkpt>
      <trkpt lat="44.91736" lon="5.54771">
        <ele>1239</ele>
        <time>2013-09-15T09:28:22.000Z</time>
      </trkpt>
      <trkpt lat="44.91744" lon="5.54771">
        <ele>1237</ele>
        <time>2013-09-15T09:28:24.000Z</time>
      </trkpt>
      <trkpt lat="44.91753" lon="5.54769">
        <ele>1235</ele>
        <time>2013-09-15T09:28:26.000Z</time>
      </trkpt>
      <trkpt lat="44.91762" lon="5.54769">
        <ele>1232</ele>
        <time>2013-09-15T09:28:28.000Z</time>
      </trkpt>
      <trkpt lat="44.91768" lon="5.54767">
        <ele>1231</ele>
        <time>2013-09-15T09:28:29.000Z</time>
      </trkpt>
      <trkpt lat="44.91777" lon="5.54764">
        <ele>1230</ele>
        <time>2013-09-15T09:28:31.000Z</time>
      </trkpt>
      <trkpt lat="44.91783" lon="5.54764">
        <ele>1229</ele>
        <time>2013-09-15T09:28:32.000Z</time>
      </trkpt>
      <trkpt lat="44.91789" lon="5.54762">
        <ele>1229</ele>
        <time>2013-09-15T09:28:33.000Z</time>
      </trkpt>
      <trkpt lat="44.91794" lon="5.54762">
        <ele>1228</ele>
        <time>2013-09-15T09:28:34.000Z</time>
      </trkpt>
      <trkpt lat="44.918" lon="5.5476">
        <ele>1228</ele>
        <time>2013-09-15T09:28:35.000Z</time>
      </trkpt>
      <trkpt lat="44.91806" lon="5.54758">
        <ele>1227</ele>
        <time>2013-09-15T09:28:36.000Z</time>
      </trkpt>
      <trkpt lat="44.91812" lon="5.54756">
        <ele>1226</ele>
        <time>2013-09-15T09:28:37.000Z</time>
      </trkpt>
      <trkpt lat="44.91817" lon="5.54756">
        <ele>1225</ele>
        <time>2013-09-15T09:28:38.000Z</time>
      </trkpt>
      <trkpt lat="44.91822" lon="5.54756">
        <ele>1225</ele>
        <time>2013-09-15T09:28:39.000Z</time>
      </trkpt>
      <trkpt lat="44.91828" lon="5.54758">
        <ele>1224</ele>
        <time>2013-09-15T09:28:40.000Z</time>
      </trkpt>
      <trkpt lat="44.91833" lon="5.5476">
        <ele>1223</ele>
        <time>2013-09-15T09:28:41.000Z</time>
      </trkpt>
      <trkpt lat="44.91838" lon="5.54762">
        <ele>1223</ele>
        <time>2013-09-15T09:28:42.000Z</time>
      </trkpt>
      <trkpt lat="44.91843" lon="5.54764">
        <ele>1222</ele>
        <time>2013-09-15T09:28:43.000Z</time>
      </trkpt>
      <trkpt lat="44.91849" lon="5.54767">
        <ele>1221</ele>
        <time>2013-09-15T09:28:44.000Z</time>
      </trkpt>
      <trkpt lat="44.91855" lon="5.54767">
        <ele>1221</ele>
        <time>2013-09-15T09:28:45.000Z</time>
      </trkpt>
      <trkpt lat="44.91861" lon="5.54769">
        <ele>1220</ele>
        <time>2013-09-15T09:28:46.000Z</time>
      </trkpt>
      <trkpt lat="44.91868" lon="5.54767">
        <ele>1220</ele>
        <time>2013-09-15T09:28:47.000Z</time>
      </trkpt>
      <trkpt lat="44.91873" lon="5.54767">
        <ele>1219</ele>
        <time>2013-09-15T09:28:48.000Z</time>
      </trkpt>
      <trkpt lat="44.91879" lon="5.54764">
        <ele>1219</ele>
        <time>2013-09-15T09:28:49.000Z</time>
      </trkpt>
      <trkpt lat="44.91885" lon="5.54764">
        <ele>1218</ele>
        <time>2013-09-15T09:28:50.000Z</time>
      </trkpt>
      <trkpt lat="44.91891" lon="5.54762">
        <ele>1218</ele>
        <time>2013-09-15T09:28:51.000Z</time>
      </trkpt>
      <trkpt lat="44.91898" lon="5.5476">
        <ele>1218</ele>
        <time>2013-09-15T09:28:52.000Z</time>
      </trkpt>
      <trkpt lat="44.91903" lon="5.54758">
        <ele>1218</ele>
        <time>2013-09-15T09:28:53.000Z</time>
      </trkpt>
      <trkpt lat="44.91909" lon="5.54758">
        <ele>1217</ele>
        <time>2013-09-15T09:28:54.000Z</time>
      </trkpt>
      <trkpt lat="44.91915" lon="5.54756">
        <ele>1217</ele>
        <time>2013-09-15T09:28:55.000Z</time>
      </trkpt>
      <trkpt lat="44.91921" lon="5.54754">
        <ele>1216</ele>
        <time>2013-09-15T09:28:56.000Z</time>
      </trkpt>
      <trkpt lat="44.91928" lon="5.54752">
        <ele>1216</ele>
        <time>2013-09-15T09:28:57.000Z</time>
      </trkpt>
      <trkpt lat="44.91934" lon="5.54749">
        <ele>1215</ele>
        <time>2013-09-15T09:28:58.000Z</time>
      </trkpt>
      <trkpt lat="44.91939" lon="5.54747">
        <ele>1215</ele>
        <time>2013-09-15T09:28:59.000Z</time>
      </trkpt>
      <trkpt lat="44.91946" lon="5.54745">
        <ele>1213</ele>
        <time>2013-09-15T09:29:00.000Z</time>
      </trkpt>
      <trkpt lat="44.91953" lon="5.54745">
        <ele>1212</ele>
        <time>2013-09-15T09:29:01.000Z</time>
      </trkpt>
      <trkpt lat="44.91961" lon="5.54745">
        <ele>1211</ele>
        <time>2013-09-15T09:29:02.000Z</time>
      </trkpt>
      <trkpt lat="44.91967" lon="5.54745">
        <ele>1210</ele>
        <time>2013-09-15T09:29:03.000Z</time>
      </trkpt>
      <trkpt lat="44.91975" lon="5.54745">
        <ele>1210</ele>
        <time>2013-09-15T09:29:04.000Z</time>
      </trkpt>
      <trkpt lat="44.91982" lon="5.54743">
        <ele>1209</ele>
        <time>2013-09-15T09:29:05.000Z</time>
      </trkpt>
      <trkpt lat="44.9199" lon="5.54743">
        <ele>1209</ele>
        <time>2013-09-15T09:29:06.000Z</time>
      </trkpt>
      <trkpt lat="44.91997" lon="5.54743">
        <ele>1209</ele>
        <time>2013-09-15T09:29:07.000Z</time>
      </trkpt>
      <trkpt lat="44.92005" lon="5.54741">
        <ele>1209</ele>
        <time>2013-09-15T09:29:08.000Z</time>
      </trkpt>
      <trkpt lat="44.92012" lon="5.54741">
        <ele>1208</ele>
        <time>2013-09-15T09:29:09.000Z</time>
      </trkpt>
      <trkpt lat="44.9202" lon="5.54739">
        <ele>1208</ele>
        <time>2013-09-15T09:29:10.000Z</time>
      </trkpt>
      <trkpt lat="44.92027" lon="5.54737">
        <ele>1208</ele>
        <time>2013-09-15T09:29:11.000Z</time>
      </trkpt>
      <trkpt lat="44.92035" lon="5.54737">
        <ele>1208</ele>
        <time>2013-09-15T09:29:12.000Z</time>
      </trkpt>
      <trkpt lat="44.92041" lon="5.54734">
        <ele>1208</ele>
        <time>2013-09-15T09:29:13.000Z</time>
      </trkpt>
      <trkpt lat="44.92049" lon="5.54734">
        <ele>1208</ele>
        <time>2013-09-15T09:29:14.000Z</time>
      </trkpt>
      <trkpt lat="44.92055" lon="5.54734">
        <ele>1208</ele>
        <time>2013-09-15T09:29:15.000Z</time>
      </trkpt>
      <trkpt lat="44.92063" lon="5.54732">
        <ele>1208</ele>
        <time>2013-09-15T09:29:16.000Z</time>
      </trkpt>
      <trkpt lat="44.92069" lon="5.54734">
        <ele>1207</ele>
        <time>2013-09-15T09:29:17.000Z</time>
      </trkpt>
      <trkpt lat="44.92075" lon="5.54734">
        <ele>1207</ele>
        <time>2013-09-15T09:29:18.000Z</time>
      </trkpt>
      <trkpt lat="44.9208" lon="5.54737">
        <ele>1206</ele>
        <time>2013-09-15T09:29:19.000Z</time>
      </trkpt>
      <trkpt lat="44.92085" lon="5.54741">
        <ele>1206</ele>
        <time>2013-09-15T09:29:20.000Z</time>
      </trkpt>
      <trkpt lat="44.92091" lon="5.54743">
        <ele>1205</ele>
        <time>2013-09-15T09:29:21.000Z</time>
      </trkpt>
      <trkpt lat="44.92102" lon="5.54743">
        <ele>1204</ele>
        <time>2013-09-15T09:30:13.000Z</time>
      </trkpt>
      <trkpt lat="44.92102" lon="5.54743">
        <ele>1204</ele>
        <time>2013-09-15T09:30:13.000Z</time>
      </trkpt>
      <trkpt lat="44.92102" lon="5.54743">
        <ele>1204</ele>
        <time>2013-09-15T09:30:17.000Z</time>
      </trkpt>
      <trkpt lat="44.92112" lon="5.54741">
        <ele>1203</ele>
        <time>2013-09-15T09:30:18.000Z</time>
      </trkpt>
      <trkpt lat="44.92112" lon="5.54741">
        <ele>1203</ele>
        <time>2013-09-15T09:30:18.000Z</time>
      </trkpt>
      <trkpt lat="44.92112" lon="5.54741">
        <ele>1203</ele>
        <time>2013-09-15T09:30:21.000Z</time>
      </trkpt>
      <trkpt lat="44.92124" lon="5.54734">
        <ele>1203</ele>
        <time>2013-09-15T09:30:22.000Z</time>
      </trkpt>
      <trkpt lat="44.92124" lon="5.54734">
        <ele>1203</ele>
        <time>2013-09-15T09:30:22.000Z</time>
      </trkpt>
      <trkpt lat="44.92124" lon="5.54734">
        <ele>1203</ele>
        <time>2013-09-15T09:30:24.000Z</time>
      </trkpt>
      <trkpt lat="44.92136" lon="5.5473">
        <ele>1203</ele>
        <time>2013-09-15T09:30:25.000Z</time>
      </trkpt>
      <trkpt lat="44.92136" lon="5.5473">
        <ele>1203</ele>
        <time>2013-09-15T09:30:25.000Z</time>
      </trkpt>
      <trkpt lat="44.92136" lon="5.5473">
        <ele>1203</ele>
        <time>2013-09-15T09:30:27.000Z</time>
      </trkpt>
      <trkpt lat="44.92148" lon="5.54724">
        <ele>1202</ele>
        <time>2013-09-15T09:30:28.000Z</time>
      </trkpt>
      <trkpt lat="44.92153" lon="5.54722">
        <ele>1202</ele>
        <time>2013-09-15T09:30:29.000Z</time>
      </trkpt>
      <trkpt lat="44.92158" lon="5.54717">
        <ele>1201</ele>
        <time>2013-09-15T09:30:30.000Z</time>
      </trkpt>
      <trkpt lat="44.92165" lon="5.54713">
        <ele>1201</ele>
        <time>2013-09-15T09:30:31.000Z</time>
      </trkpt>
      <trkpt lat="44.92171" lon="5.54706">
        <ele>1201</ele>
        <time>2013-09-15T09:30:32.000Z</time>
      </trkpt>
      <trkpt lat="44.92176" lon="5.547">
        <ele>1201</ele>
        <time>2013-09-15T09:30:33.000Z</time>
      </trkpt>
      <trkpt lat="44.92183" lon="5.54696">
        <ele>1201</ele>
        <time>2013-09-15T09:30:34.000Z</time>
      </trkpt>
      <trkpt lat="44.92188" lon="5.54692">
        <ele>1201</ele>
        <time>2013-09-15T09:30:35.000Z</time>
      </trkpt>
      <trkpt lat="44.92193" lon="5.54687">
        <ele>1200</ele>
        <time>2013-09-15T09:30:36.000Z</time>
      </trkpt>
      <trkpt lat="44.92198" lon="5.54683">
        <ele>1200</ele>
        <time>2013-09-15T09:30:37.000Z</time>
      </trkpt>
      <trkpt lat="44.92202" lon="5.54679">
        <ele>1200</ele>
        <time>2013-09-15T09:30:38.000Z</time>
      </trkpt>
      <trkpt lat="44.92209" lon="5.54674">
        <ele>1198</ele>
        <time>2013-09-15T09:30:39.000Z</time>
      </trkpt>
      <trkpt lat="44.92216" lon="5.5467">
        <ele>1197</ele>
        <time>2013-09-15T09:30:40.000Z</time>
      </trkpt>
      <trkpt lat="44.92224" lon="5.54666">
        <ele>1196</ele>
        <time>2013-09-15T09:30:41.000Z</time>
      </trkpt>
      <trkpt lat="44.92232" lon="5.54662">
        <ele>1195</ele>
        <time>2013-09-15T09:30:42.000Z</time>
      </trkpt>
      <trkpt lat="44.9224" lon="5.54657">
        <ele>1193</ele>
        <time>2013-09-15T09:30:43.000Z</time>
      </trkpt>
      <trkpt lat="44.92247" lon="5.54655">
        <ele>1193</ele>
        <time>2013-09-15T09:30:44.000Z</time>
      </trkpt>
      <trkpt lat="44.92255" lon="5.54653">
        <ele>1193</ele>
        <time>2013-09-15T09:30:45.000Z</time>
      </trkpt>
      <trkpt lat="44.92261" lon="5.54653">
        <ele>1193</ele>
        <time>2013-09-15T09:30:46.000Z</time>
      </trkpt>
      <trkpt lat="44.92267" lon="5.54651">
        <ele>1193</ele>
        <time>2013-09-15T09:30:47.000Z</time>
      </trkpt>
      <trkpt lat="44.92272" lon="5.54649">
        <ele>1192</ele>
        <time>2013-09-15T09:30:48.000Z</time>
      </trkpt>
      <trkpt lat="44.9228" lon="5.54649">
        <ele>1192</ele>
        <time>2013-09-15T09:30:49.000Z</time>
      </trkpt>
      <trkpt lat="44.9228" lon="5.54649">
        <ele>1192</ele>
        <time>2013-09-15T09:30:49.000Z</time>
      </trkpt>
      <trkpt lat="44.9228" lon="5.54649">
        <ele>1192</ele>
        <time>2013-09-15T09:30:50.000Z</time>
      </trkpt>
      <trkpt lat="44.92291" lon="5.54644">
        <ele>1192</ele>
        <time>2013-09-15T09:30:51.000Z</time>
      </trkpt>
      <trkpt lat="44.92291" lon="5.54644">
        <ele>1192</ele>
        <time>2013-09-15T09:30:51.000Z</time>
      </trkpt>
      <trkpt lat="44.92291" lon="5.54644">
        <ele>1192</ele>
        <time>2013-09-15T09:31:08.000Z</time>
      </trkpt>
      <trkpt lat="44.92289" lon="5.54638">
        <ele>1187</ele>
        <time>2013-09-15T09:31:09.000Z</time>
      </trkpt>
      <trkpt lat="44.92286" lon="5.54631">
        <ele>1178</ele>
        <time>2013-09-15T09:31:11.000Z</time>
      </trkpt>
      <trkpt lat="44.92277" lon="5.54627">
        <ele>1166</ele>
        <time>2013-09-15T09:31:13.000Z</time>
      </trkpt>
      <trkpt lat="44.92269" lon="5.54625">
        <ele>1157</ele>
        <time>2013-09-15T09:31:15.000Z</time>
      </trkpt>
      <trkpt lat="44.92263" lon="5.54623">
        <ele>1154</ele>
        <time>2013-09-15T09:31:16.000Z</time>
      </trkpt>
      <trkpt lat="44.92258" lon="5.54621">
        <ele>1151</ele>
        <time>2013-09-15T09:31:17.000Z</time>
      </trkpt>
      <trkpt lat="44.92254" lon="5.54616">
        <ele>1149</ele>
        <time>2013-09-15T09:31:18.000Z</time>
      </trkpt>
      <trkpt lat="44.92248" lon="5.54612">
        <ele>1147</ele>
        <time>2013-09-15T09:31:19.000Z</time>
      </trkpt>
      <trkpt lat="44.92243" lon="5.5461">
        <ele>1145</ele>
        <time>2013-09-15T09:31:20.000Z</time>
      </trkpt>
      <trkpt lat="44.92238" lon="5.54606">
        <ele>1144</ele>
        <time>2013-09-15T09:31:21.000Z</time>
      </trkpt>
      <trkpt lat="44.92232" lon="5.54601">
        <ele>1142</ele>
        <time>2013-09-15T09:31:22.000Z</time>
      </trkpt>
      <trkpt lat="44.92227" lon="5.54595">
        <ele>1141</ele>
        <time>2013-09-15T09:31:23.000Z</time>
      </trkpt>
      <trkpt lat="44.92222" lon="5.54588">
        <ele>1139</ele>
        <time>2013-09-15T09:31:24.000Z</time>
      </trkpt>
      <trkpt lat="44.92216" lon="5.5458">
        <ele>1137</ele>
        <time>2013-09-15T09:31:25.000Z</time>
      </trkpt>
      <trkpt lat="44.92211" lon="5.54571">
        <ele>1135</ele>
        <time>2013-09-15T09:31:26.000Z</time>
      </trkpt>
      <trkpt lat="44.92206" lon="5.54563">
        <ele>1133</ele>
        <time>2013-09-15T09:31:27.000Z</time>
      </trkpt>
      <trkpt lat="44.92202" lon="5.54552">
        <ele>1132</ele>
        <time>2013-09-15T09:31:28.000Z</time>
      </trkpt>
      <trkpt lat="44.92198" lon="5.54543">
        <ele>1131</ele>
        <time>2013-09-15T09:31:29.000Z</time>
      </trkpt>
      <trkpt lat="44.92194" lon="5.54535">
        <ele>1130</ele>
        <time>2013-09-15T09:31:30.000Z</time>
      </trkpt>
      <trkpt lat="44.92188" lon="5.54531">
        <ele>1129</ele>
        <time>2013-09-15T09:31:31.000Z</time>
      </trkpt>
      <trkpt lat="44.92184" lon="5.54524">
        <ele>1128</ele>
        <time>2013-09-15T09:31:32.000Z</time>
      </trkpt>
      <trkpt lat="44.9218" lon="5.5452">
        <ele>1128</ele>
        <time>2013-09-15T09:31:33.000Z</time>
      </trkpt>
      <trkpt lat="44.92175" lon="5.54516">
        <ele>1127</ele>
        <time>2013-09-15T09:31:34.000Z</time>
      </trkpt>
      <trkpt lat="44.92168" lon="5.54509">
        <ele>1126</ele>
        <time>2013-09-15T09:31:46.000Z</time>
      </trkpt>
      <trkpt lat="44.92168" lon="5.54509">
        <ele>1126</ele>
        <time>2013-09-15T09:31:46.000Z</time>
      </trkpt>
      <trkpt lat="44.92168" lon="5.54509">
        <ele>1117</ele>
        <time>2013-09-15T09:34:36.000Z</time>
      </trkpt>
      <trkpt lat="44.92169" lon="5.54503">
        <ele>1117</ele>
        <time>2013-09-15T09:34:39.000Z</time>
      </trkpt>
      <trkpt lat="44.9217" lon="5.54496">
        <ele>1117</ele>
        <time>2013-09-15T09:34:42.000Z</time>
      </trkpt>
      <trkpt lat="44.92171" lon="5.5449">
        <ele>1117</ele>
        <time>2013-09-15T09:34:46.000Z</time>
      </trkpt>
      <trkpt lat="44.92174" lon="5.54483">
        <ele>1116</ele>
        <time>2013-09-15T09:35:00.000Z</time>
      </trkpt>
      <trkpt lat="44.92174" lon="5.54483">
        <ele>1116</ele>
        <time>2013-09-15T09:35:00.000Z</time>
      </trkpt>
      <trkpt lat="44.92174" lon="5.54483">
        <ele>1116</ele>
        <time>2013-09-15T09:35:03.000Z</time>
      </trkpt>
      <trkpt lat="44.92176" lon="5.54477">
        <ele>1110</ele>
        <time>2013-09-15T09:35:17.000Z</time>
      </trkpt>
      <trkpt lat="44.92183" lon="5.54473">
        <ele>1109</ele>
        <time>2013-09-15T09:35:20.000Z</time>
      </trkpt>
      <trkpt lat="44.92187" lon="5.54468">
        <ele>1108</ele>
        <time>2013-09-15T09:35:22.000Z</time>
      </trkpt>
      <trkpt lat="44.92192" lon="5.54464">
        <ele>1107</ele>
        <time>2013-09-15T09:35:24.000Z</time>
      </trkpt>
      <trkpt lat="44.92197" lon="5.5446">
        <ele>1107</ele>
        <time>2013-09-15T09:35:26.000Z</time>
      </trkpt>
      <trkpt lat="44.92201" lon="5.54458">
        <ele>1107</ele>
        <time>2013-09-15T09:35:28.000Z</time>
      </trkpt>
      <trkpt lat="44.92206" lon="5.54453">
        <ele>1107</ele>
        <time>2013-09-15T09:35:30.000Z</time>
      </trkpt>
      <trkpt lat="44.9221" lon="5.54451">
        <ele>1108</ele>
        <time>2013-09-15T09:35:32.000Z</time>
      </trkpt>
      <trkpt lat="44.92215" lon="5.54451">
        <ele>1110</ele>
        <time>2013-09-15T09:35:33.000Z</time>
      </trkpt>
      <trkpt lat="44.92224" lon="5.5446">
        <ele>1111</ele>
        <time>2013-09-15T09:35:34.000Z</time>
      </trkpt>
      <trkpt lat="44.92236" lon="5.5447">
        <ele>1112</ele>
        <time>2013-09-15T09:35:35.000Z</time>
      </trkpt>
      <trkpt lat="44.92254" lon="5.54481">
        <ele>1112</ele>
        <time>2013-09-15T09:35:36.000Z</time>
      </trkpt>
      <trkpt lat="44.92274" lon="5.54496">
        <ele>1112</ele>
        <time>2013-09-15T09:35:37.000Z</time>
      </trkpt>
      <trkpt lat="44.92298" lon="5.54511">
        <ele>1112</ele>
        <time>2013-09-15T09:35:38.000Z</time>
      </trkpt>
      <trkpt lat="44.92322" lon="5.54524">
        <ele>1110</ele>
        <time>2013-09-15T09:35:39.000Z</time>
      </trkpt>
      <trkpt lat="44.92347" lon="5.54535">
        <ele>1108</ele>
        <time>2013-09-15T09:35:40.000Z</time>
      </trkpt>
      <trkpt lat="44.9237" lon="5.54541">
        <ele>1106</ele>
        <time>2013-09-15T09:35:41.000Z</time>
      </trkpt>
      <trkpt lat="44.92391" lon="5.54548">
        <ele>1104</ele>
        <time>2013-09-15T09:35:42.000Z</time>
      </trkpt>
      <trkpt lat="44.92411" lon="5.54554">
        <ele>1103</ele>
        <time>2013-09-15T09:35:43.000Z</time>
      </trkpt>
      <trkpt lat="44.9243" lon="5.54556">
        <ele>1102</ele>
        <time>2013-09-15T09:35:44.000Z</time>
      </trkpt>
      <trkpt lat="44.92446" lon="5.54558">
        <ele>1100</ele>
        <time>2013-09-15T09:35:45.000Z</time>
      </trkpt>
      <trkpt lat="44.9246" lon="5.54561">
        <ele>1100</ele>
        <time>2013-09-15T09:35:46.000Z</time>
      </trkpt>
      <trkpt lat="44.92474" lon="5.54563">
        <ele>1099</ele>
        <time>2013-09-15T09:35:47.000Z</time>
      </trkpt>
      <trkpt lat="44.92486" lon="5.54567">
        <ele>1099</ele>
        <time>2013-09-15T09:35:48.000Z</time>
      </trkpt>
      <trkpt lat="44.92498" lon="5.54569">
        <ele>1098</ele>
        <time>2013-09-15T09:35:49.000Z</time>
      </trkpt>
      <trkpt lat="44.9251" lon="5.54574">
        <ele>1098</ele>
        <time>2013-09-15T09:35:50.000Z</time>
      </trkpt>
      <trkpt lat="44.92522" lon="5.54578">
        <ele>1098</ele>
        <time>2013-09-15T09:35:51.000Z</time>
      </trkpt>
      <trkpt lat="44.92533" lon="5.54584">
        <ele>1097</ele>
        <time>2013-09-15T09:35:52.000Z</time>
      </trkpt>
      <trkpt lat="44.92543" lon="5.54588">
        <ele>1097</ele>
        <time>2013-09-15T09:35:53.000Z</time>
      </trkpt>
      <trkpt lat="44.92555" lon="5.54586">
        <ele>1097</ele>
        <time>2013-09-15T09:35:54.000Z</time>
      </trkpt>
      <trkpt lat="44.92567" lon="5.54582">
        <ele>1097</ele>
        <time>2013-09-15T09:35:55.000Z</time>
      </trkpt>
      <trkpt lat="44.92579" lon="5.5458">
        <ele>1097</ele>
        <time>2013-09-15T09:35:56.000Z</time>
      </trkpt>
      <trkpt lat="44.92591" lon="5.54576">
        <ele>1096</ele>
        <time>2013-09-15T09:35:57.000Z</time>
      </trkpt>
      <trkpt lat="44.92601" lon="5.54571">
        <ele>1096</ele>
        <time>2013-09-15T09:35:58.000Z</time>
      </trkpt>
      <trkpt lat="44.92611" lon="5.54567">
        <ele>1096</ele>
        <time>2013-09-15T09:35:59.000Z</time>
      </trkpt>
      <trkpt lat="44.92622" lon="5.54565">
        <ele>1096</ele>
        <time>2013-09-15T09:36:00.000Z</time>
      </trkpt>
      <trkpt lat="44.92631" lon="5.54563">
        <ele>1096</ele>
        <time>2013-09-15T09:36:01.000Z</time>
      </trkpt>
      <trkpt lat="44.92641" lon="5.54565">
        <ele>1096</ele>
        <time>2013-09-15T09:36:02.000Z</time>
      </trkpt>
      <trkpt lat="44.92651" lon="5.54567">
        <ele>1097</ele>
        <time>2013-09-15T09:36:03.000Z</time>
      </trkpt>
      <trkpt lat="44.92659" lon="5.54569">
        <ele>1098</ele>
        <time>2013-09-15T09:36:04.000Z</time>
      </trkpt>
      <trkpt lat="44.92667" lon="5.54569">
        <ele>1098</ele>
        <time>2013-09-15T09:36:05.000Z</time>
      </trkpt>
      <trkpt lat="44.92675" lon="5.54571">
        <ele>1098</ele>
        <time>2013-09-15T09:36:06.000Z</time>
      </trkpt>
      <trkpt lat="44.92682" lon="5.54574">
        <ele>1098</ele>
        <time>2013-09-15T09:36:07.000Z</time>
      </trkpt>
      <trkpt lat="44.92689" lon="5.54576">
        <ele>1098</ele>
        <time>2013-09-15T09:36:08.000Z</time>
      </trkpt>
      <trkpt lat="44.92696" lon="5.54578">
        <ele>1097</ele>
        <time>2013-09-15T09:36:09.000Z</time>
      </trkpt>
      <trkpt lat="44.92702" lon="5.54578">
        <ele>1097</ele>
        <time>2013-09-15T09:36:10.000Z</time>
      </trkpt>
      <trkpt lat="44.92709" lon="5.5458">
        <ele>1096</ele>
        <time>2013-09-15T09:36:11.000Z</time>
      </trkpt>
      <trkpt lat="44.92714" lon="5.5458">
        <ele>1095</ele>
        <time>2013-09-15T09:36:12.000Z</time>
      </trkpt>
      <trkpt lat="44.9272" lon="5.5458">
        <ele>1094</ele>
        <time>2013-09-15T09:36:13.000Z</time>
      </trkpt>
      <trkpt lat="44.92727" lon="5.5458">
        <ele>1093</ele>
        <time>2013-09-15T09:36:14.000Z</time>
      </trkpt>
      <trkpt lat="44.92732" lon="5.54578">
        <ele>1092</ele>
        <time>2013-09-15T09:36:15.000Z</time>
      </trkpt>
      <trkpt lat="44.92738" lon="5.54576">
        <ele>1090</ele>
        <time>2013-09-15T09:36:16.000Z</time>
      </trkpt>
      <trkpt lat="44.92743" lon="5.54574">
        <ele>1089</ele>
        <time>2013-09-15T09:36:17.000Z</time>
      </trkpt>
      <trkpt lat="44.92748" lon="5.54567">
        <ele>1088</ele>
        <time>2013-09-15T09:36:18.000Z</time>
      </trkpt>
      <trkpt lat="44.92753" lon="5.54563">
        <ele>1088</ele>
        <time>2013-09-15T09:36:19.000Z</time>
      </trkpt>
      <trkpt lat="44.92757" lon="5.54558">
        <ele>1087</ele>
        <time>2013-09-15T09:36:20.000Z</time>
      </trkpt>
      <trkpt lat="44.92762" lon="5.54556">
        <ele>1086</ele>
        <time>2013-09-15T09:36:21.000Z</time>
      </trkpt>
      <trkpt lat="44.92767" lon="5.54552">
        <ele>1086</ele>
        <time>2013-09-15T09:36:22.000Z</time>
      </trkpt>
      <trkpt lat="44.92772" lon="5.5455">
        <ele>1086</ele>
        <time>2013-09-15T09:36:23.000Z</time>
      </trkpt>
      <trkpt lat="44.92776" lon="5.54548">
        <ele>1085</ele>
        <time>2013-09-15T09:36:24.000Z</time>
      </trkpt>
      <trkpt lat="44.9278" lon="5.54546">
        <ele>1085</ele>
        <time>2013-09-15T09:36:25.000Z</time>
      </trkpt>
      <trkpt lat="44.92786" lon="5.54546">
        <ele>1085</ele>
        <time>2013-09-15T09:36:26.000Z</time>
      </trkpt>
      <trkpt lat="44.92796" lon="5.54546">
        <ele>1085</ele>
        <time>2013-09-15T09:36:28.000Z</time>
      </trkpt>
      <trkpt lat="44.92805" lon="5.54543">
        <ele>1084</ele>
        <time>2013-09-15T09:36:30.000Z</time>
      </trkpt>
      <trkpt lat="44.92815" lon="5.54541">
        <ele>1084</ele>
        <time>2013-09-15T09:36:32.000Z</time>
      </trkpt>
      <trkpt lat="44.92819" lon="5.54539">
        <ele>1084</ele>
        <time>2013-09-15T09:36:33.000Z</time>
      </trkpt>
      <trkpt lat="44.92823" lon="5.54537">
        <ele>1084</ele>
        <time>2013-09-15T09:36:34.000Z</time>
      </trkpt>
      <trkpt lat="44.92829" lon="5.54535">
        <ele>1083</ele>
        <time>2013-09-15T09:36:35.000Z</time>
      </trkpt>
      <trkpt lat="44.92833" lon="5.54533">
        <ele>1083</ele>
        <time>2013-09-15T09:36:36.000Z</time>
      </trkpt>
      <trkpt lat="44.92838" lon="5.54531">
        <ele>1083</ele>
        <time>2013-09-15T09:36:37.000Z</time>
      </trkpt>
      <trkpt lat="44.92843" lon="5.54528">
        <ele>1083</ele>
        <time>2013-09-15T09:36:38.000Z</time>
      </trkpt>
      <trkpt lat="44.92847" lon="5.54524">
        <ele>1083</ele>
        <time>2013-09-15T09:36:39.000Z</time>
      </trkpt>
      <trkpt lat="44.92851" lon="5.54522">
        <ele>1082</ele>
        <time>2013-09-15T09:36:40.000Z</time>
      </trkpt>
      <trkpt lat="44.92856" lon="5.5452">
        <ele>1082</ele>
        <time>2013-09-15T09:36:41.000Z</time>
      </trkpt>
      <trkpt lat="44.92863" lon="5.54516">
        <ele>1082</ele>
        <time>2013-09-15T09:36:43.000Z</time>
      </trkpt>
      <trkpt lat="44.92871" lon="5.54511">
        <ele>1082</ele>
        <time>2013-09-15T09:36:45.000Z</time>
      </trkpt>
      <trkpt lat="44.92877" lon="5.54511">
        <ele>1081</ele>
        <time>2013-09-15T09:36:47.000Z</time>
      </trkpt>
      <trkpt lat="44.92881" lon="5.54509">
        <ele>1081</ele>
        <time>2013-09-15T09:36:48.000Z</time>
      </trkpt>
      <trkpt lat="44.92888" lon="5.54511">
        <ele>1080</ele>
        <time>2013-09-15T09:36:50.000Z</time>
      </trkpt>
      <trkpt lat="44.92892" lon="5.54513">
        <ele>1080</ele>
        <time>2013-09-15T09:36:51.000Z</time>
      </trkpt>
      <trkpt lat="44.929" lon="5.54518">
        <ele>1080</ele>
        <time>2013-09-15T09:36:53.000Z</time>
      </trkpt>
      <trkpt lat="44.92904" lon="5.5452">
        <ele>1080</ele>
        <time>2013-09-15T09:36:54.000Z</time>
      </trkpt>
      <trkpt lat="44.92908" lon="5.54522">
        <ele>1080</ele>
        <time>2013-09-15T09:36:55.000Z</time>
      </trkpt>
      <trkpt lat="44.92916" lon="5.54526">
        <ele>1079</ele>
        <time>2013-09-15T09:36:57.000Z</time>
      </trkpt>
      <trkpt lat="44.92925" lon="5.54528">
        <ele>1079</ele>
        <time>2013-09-15T09:36:59.000Z</time>
      </trkpt>
      <trkpt lat="44.92934" lon="5.54528">
        <ele>1079</ele>
        <time>2013-09-15T09:37:01.000Z</time>
      </trkpt>
      <trkpt lat="44.92939" lon="5.54526">
        <ele>1079</ele>
        <time>2013-09-15T09:37:02.000Z</time>
      </trkpt>
      <trkpt lat="44.92948" lon="5.54526">
        <ele>1079</ele>
        <time>2013-09-15T09:37:04.000Z</time>
      </trkpt>
      <trkpt lat="44.92953" lon="5.54524">
        <ele>1079</ele>
        <time>2013-09-15T09:37:05.000Z</time>
      </trkpt>
      <trkpt lat="44.92959" lon="5.54522">
        <ele>1078</ele>
        <time>2013-09-15T09:37:06.000Z</time>
      </trkpt>
      <trkpt lat="44.92968" lon="5.54522">
        <ele>1077</ele>
        <time>2013-09-15T09:37:08.000Z</time>
      </trkpt>
      <trkpt lat="44.92978" lon="5.54522">
        <ele>1076</ele>
        <time>2013-09-15T09:37:10.000Z</time>
      </trkpt>
      <trkpt lat="44.92988" lon="5.54524">
        <ele>1075</ele>
        <time>2013-09-15T09:37:12.000Z</time>
      </trkpt>
      <trkpt lat="44.92993" lon="5.54526">
        <ele>1075</ele>
        <time>2013-09-15T09:37:13.000Z</time>
      </trkpt>
      <trkpt lat="44.93003" lon="5.54528">
        <ele>1074</ele>
        <time>2013-09-15T09:37:15.000Z</time>
      </trkpt>
      <trkpt lat="44.93007" lon="5.54531">
        <ele>1074</ele>
        <time>2013-09-15T09:37:16.000Z</time>
      </trkpt>
      <trkpt lat="44.93011" lon="5.54533">
        <ele>1073</ele>
        <time>2013-09-15T09:37:17.000Z</time>
      </trkpt>
      <trkpt lat="44.93017" lon="5.54535">
        <ele>1073</ele>
        <time>2013-09-15T09:37:18.000Z</time>
      </trkpt>
      <trkpt lat="44.93021" lon="5.54537">
        <ele>1073</ele>
        <time>2013-09-15T09:37:19.000Z</time>
      </trkpt>
      <trkpt lat="44.93025" lon="5.54539">
        <ele>1072</ele>
        <time>2013-09-15T09:37:20.000Z</time>
      </trkpt>
      <trkpt lat="44.9303" lon="5.54539">
        <ele>1072</ele>
        <time>2013-09-15T09:37:21.000Z</time>
      </trkpt>
      <trkpt lat="44.93035" lon="5.54541">
        <ele>1072</ele>
        <time>2013-09-15T09:37:22.000Z</time>
      </trkpt>
      <trkpt lat="44.93044" lon="5.54543">
        <ele>1071</ele>
        <time>2013-09-15T09:37:24.000Z</time>
      </trkpt>
      <trkpt lat="44.93053" lon="5.54543">
        <ele>1070</ele>
        <time>2013-09-15T09:37:26.000Z</time>
      </trkpt>
      <trkpt lat="44.93063" lon="5.54541">
        <ele>1069</ele>
        <time>2013-09-15T09:37:28.000Z</time>
      </trkpt>
      <trkpt lat="44.93067" lon="5.54539">
        <ele>1068</ele>
        <time>2013-09-15T09:37:29.000Z</time>
      </trkpt>
      <trkpt lat="44.93072" lon="5.54537">
        <ele>1068</ele>
        <time>2013-09-15T09:37:30.000Z</time>
      </trkpt>
      <trkpt lat="44.93077" lon="5.54533">
        <ele>1067</ele>
        <time>2013-09-15T09:37:31.000Z</time>
      </trkpt>
      <trkpt lat="44.93082" lon="5.54528">
        <ele>1067</ele>
        <time>2013-09-15T09:37:32.000Z</time>
      </trkpt>
      <trkpt lat="44.93086" lon="5.54524">
        <ele>1066</ele>
        <time>2013-09-15T09:37:33.000Z</time>
      </trkpt>
      <trkpt lat="44.93091" lon="5.54518">
        <ele>1066</ele>
        <time>2013-09-15T09:37:34.000Z</time>
      </trkpt>
      <trkpt lat="44.93093" lon="5.54509">
        <ele>1066</ele>
        <time>2013-09-15T09:37:35.000Z</time>
      </trkpt>
      <trkpt lat="44.93095" lon="5.545">
        <ele>1066</ele>
        <time>2013-09-15T09:37:36.000Z</time>
      </trkpt>
      <trkpt lat="44.93099" lon="5.5449">
        <ele>1065</ele>
        <time>2013-09-15T09:37:38.000Z</time>
      </trkpt>
      <trkpt lat="44.93101" lon="5.54483">
        <ele>1065</ele>
        <time>2013-09-15T09:37:39.000Z</time>
      </trkpt>
      <trkpt lat="44.93104" lon="5.54477">
        <ele>1065</ele>
        <time>2013-09-15T09:37:40.000Z</time>
      </trkpt>
      <trkpt lat="44.93106" lon="5.5447">
        <ele>1064</ele>
        <time>2013-09-15T09:37:41.000Z</time>
      </trkpt>
      <trkpt lat="44.93108" lon="5.54464">
        <ele>1063</ele>
        <time>2013-09-15T09:37:42.000Z</time>
      </trkpt>
      <trkpt lat="44.93112" lon="5.54453">
        <ele>1061</ele>
        <time>2013-09-15T09:37:44.000Z</time>
      </trkpt>
      <trkpt lat="44.93117" lon="5.54445">
        <ele>1061</ele>
        <time>2013-09-15T09:37:46.000Z</time>
      </trkpt>
      <trkpt lat="44.93124" lon="5.54447">
        <ele>1059</ele>
        <time>2013-09-15T09:37:48.000Z</time>
      </trkpt>
      <trkpt lat="44.93128" lon="5.54453">
        <ele>1058</ele>
        <time>2013-09-15T09:37:49.000Z</time>
      </trkpt>
      <trkpt lat="44.93131" lon="5.5446">
        <ele>1058</ele>
        <time>2013-09-15T09:37:50.000Z</time>
      </trkpt>
      <trkpt lat="44.93135" lon="5.54466">
        <ele>1057</ele>
        <time>2013-09-15T09:37:51.000Z</time>
      </trkpt>
      <trkpt lat="44.93138" lon="5.54473">
        <ele>1057</ele>
        <time>2013-09-15T09:37:52.000Z</time>
      </trkpt>
      <trkpt lat="44.93141" lon="5.54479">
        <ele>1057</ele>
        <time>2013-09-15T09:37:53.000Z</time>
      </trkpt>
      <trkpt lat="44.93144" lon="5.54486">
        <ele>1056</ele>
        <time>2013-09-15T09:37:54.000Z</time>
      </trkpt>
      <trkpt lat="44.93147" lon="5.5449">
        <ele>1057</ele>
        <time>2013-09-15T09:37:55.000Z</time>
      </trkpt>
      <trkpt lat="44.93152" lon="5.54496">
        <ele>1057</ele>
        <time>2013-09-15T09:37:56.000Z</time>
      </trkpt>
      <trkpt lat="44.93156" lon="5.545">
        <ele>1058</ele>
        <time>2013-09-15T09:37:57.000Z</time>
      </trkpt>
      <trkpt lat="44.93159" lon="5.54505">
        <ele>1058</ele>
        <time>2013-09-15T09:37:58.000Z</time>
      </trkpt>
      <trkpt lat="44.93162" lon="5.54511">
        <ele>1059</ele>
        <time>2013-09-15T09:37:59.000Z</time>
      </trkpt>
      <trkpt lat="44.93169" lon="5.5452">
        <ele>1059</ele>
        <time>2013-09-15T09:38:01.000Z</time>
      </trkpt>
      <trkpt lat="44.93174" lon="5.54528">
        <ele>1060</ele>
        <time>2013-09-15T09:38:03.000Z</time>
      </trkpt>
      <trkpt lat="44.93179" lon="5.54533">
        <ele>1060</ele>
        <time>2013-09-15T09:38:04.000Z</time>
      </trkpt>
      <trkpt lat="44.93185" lon="5.54539">
        <ele>1060</ele>
        <time>2013-09-15T09:38:06.000Z</time>
      </trkpt>
      <trkpt lat="44.93192" lon="5.54543">
        <ele>1060</ele>
        <time>2013-09-15T09:38:08.000Z</time>
      </trkpt>
      <trkpt lat="44.932" lon="5.54548">
        <ele>1059</ele>
        <time>2013-09-15T09:38:10.000Z</time>
      </trkpt>
      <trkpt lat="44.93208" lon="5.5455">
        <ele>1059</ele>
        <time>2013-09-15T09:38:12.000Z</time>
      </trkpt>
      <trkpt lat="44.93216" lon="5.5455">
        <ele>1058</ele>
        <time>2013-09-15T09:38:14.000Z</time>
      </trkpt>
      <trkpt lat="44.93224" lon="5.5455">
        <ele>1058</ele>
        <time>2013-09-15T09:38:16.000Z</time>
      </trkpt>
      <trkpt lat="44.93232" lon="5.5455">
        <ele>1058</ele>
        <time>2013-09-15T09:38:18.000Z</time>
      </trkpt>
      <trkpt lat="44.93236" lon="5.54548">
        <ele>1058</ele>
        <time>2013-09-15T09:38:19.000Z</time>
      </trkpt>
      <trkpt lat="44.93244" lon="5.54548">
        <ele>1057</ele>
        <time>2013-09-15T09:38:21.000Z</time>
      </trkpt>
      <trkpt lat="44.93253" lon="5.54546">
        <ele>1057</ele>
        <time>2013-09-15T09:38:23.000Z</time>
      </trkpt>
      <trkpt lat="44.9326" lon="5.54546">
        <ele>1057</ele>
        <time>2013-09-15T09:38:25.000Z</time>
      </trkpt>
      <trkpt lat="44.93264" lon="5.54548">
        <ele>1057</ele>
        <time>2013-09-15T09:38:26.000Z</time>
      </trkpt>
      <trkpt lat="44.93272" lon="5.54552">
        <ele>1057</ele>
        <time>2013-09-15T09:38:28.000Z</time>
      </trkpt>
      <trkpt lat="44.93279" lon="5.54554">
        <ele>1056</ele>
        <time>2013-09-15T09:38:30.000Z</time>
      </trkpt>
      <trkpt lat="44.93286" lon="5.54556">
        <ele>1056</ele>
        <time>2013-09-15T09:38:32.000Z</time>
      </trkpt>
      <trkpt lat="44.9329" lon="5.54558">
        <ele>1056</ele>
        <time>2013-09-15T09:38:33.000Z</time>
      </trkpt>
      <trkpt lat="44.93297" lon="5.54558">
        <ele>1056</ele>
        <time>2013-09-15T09:38:35.000Z</time>
      </trkpt>
      <trkpt lat="44.93302" lon="5.54558">
        <ele>1056</ele>
        <time>2013-09-15T09:38:37.000Z</time>
      </trkpt>
      <trkpt lat="44.93307" lon="5.54558">
        <ele>1056</ele>
        <time>2013-09-15T09:38:39.000Z</time>
      </trkpt>
      <trkpt lat="44.93313" lon="5.54556">
        <ele>1056</ele>
        <time>2013-09-15T09:38:41.000Z</time>
      </trkpt>
      <trkpt lat="44.93318" lon="5.54552">
        <ele>1056</ele>
        <time>2013-09-15T09:38:43.000Z</time>
      </trkpt>
      <trkpt lat="44.93322" lon="5.54543">
        <ele>1056</ele>
        <time>2013-09-15T09:38:45.000Z</time>
      </trkpt>
      <trkpt lat="44.93328" lon="5.54537">
        <ele>1056</ele>
        <time>2013-09-15T09:38:47.000Z</time>
      </trkpt>
      <trkpt lat="44.93331" lon="5.54528">
        <ele>1055</ele>
        <time>2013-09-15T09:38:49.000Z</time>
      </trkpt>
      <trkpt lat="44.93334" lon="5.54518">
        <ele>1055</ele>
        <time>2013-09-15T09:38:51.000Z</time>
      </trkpt>
      <trkpt lat="44.93336" lon="5.54507">
        <ele>1055</ele>
        <time>2013-09-15T09:38:53.000Z</time>
      </trkpt>
      <trkpt lat="44.93338" lon="5.545">
        <ele>1055</ele>
        <time>2013-09-15T09:38:54.000Z</time>
      </trkpt>
      <trkpt lat="44.9334" lon="5.54494">
        <ele>1055</ele>
        <time>2013-09-15T09:38:55.000Z</time>
      </trkpt>
      <trkpt lat="44.93345" lon="5.54486">
        <ele>1055</ele>
        <time>2013-09-15T09:38:57.000Z</time>
      </trkpt>
      <trkpt lat="44.9335" lon="5.54479">
        <ele>1055</ele>
        <time>2013-09-15T09:38:59.000Z</time>
      </trkpt>
      <trkpt lat="44.93357" lon="5.5447">
        <ele>1054</ele>
        <time>2013-09-15T09:39:01.000Z</time>
      </trkpt>
      <trkpt lat="44.93363" lon="5.54464">
        <ele>1054</ele>
        <time>2013-09-15T09:39:03.000Z</time>
      </trkpt>
      <trkpt lat="44.93367" lon="5.5446">
        <ele>1054</ele>
        <time>2013-09-15T09:39:04.000Z</time>
      </trkpt>
      <trkpt lat="44.93373" lon="5.54451">
        <ele>1053</ele>
        <time>2013-09-15T09:39:06.000Z</time>
      </trkpt>
      <trkpt lat="44.93372" lon="5.54434">
        <ele>1058</ele>
        <time>2013-09-15T09:40:33.000Z</time>
      </trkpt>
      <trkpt lat="44.93372" lon="5.54434">
        <ele>1058</ele>
        <time>2013-09-15T09:40:33.000Z</time>
      </trkpt>
      <trkpt lat="44.93372" lon="5.54434">
        <ele>1058</ele>
        <time>2013-09-15T09:40:40.000Z</time>
      </trkpt>
      <trkpt lat="44.93365" lon="5.54423">
        <ele>1060</ele>
        <time>2013-09-15T09:40:41.000Z</time>
      </trkpt>
      <trkpt lat="44.93365" lon="5.54423">
        <ele>1060</ele>
        <time>2013-09-15T09:40:41.000Z</time>
      </trkpt>
      <trkpt lat="44.93365" lon="5.54423">
        <ele>1060</ele>
        <time>2013-09-15T09:40:50.000Z</time>
      </trkpt>
      <trkpt lat="44.93365" lon="5.5441">
        <ele>1063</ele>
        <time>2013-09-15T09:40:51.000Z</time>
      </trkpt>
      <trkpt lat="44.93365" lon="5.5441">
        <ele>1063</ele>
        <time>2013-09-15T09:40:51.000Z</time>
      </trkpt>
      <trkpt lat="44.93365" lon="5.5441">
        <ele>1063</ele>
        <time>2013-09-15T09:41:01.000Z</time>
      </trkpt>
      <trkpt lat="44.9337" lon="5.54398">
        <ele>1065</ele>
        <time>2013-09-15T09:41:02.000Z</time>
      </trkpt>
      <trkpt lat="44.9337" lon="5.54398">
        <ele>1065</ele>
        <time>2013-09-15T09:41:02.000Z</time>
      </trkpt>
      <trkpt lat="44.9337" lon="5.54398">
        <ele>1065</ele>
        <time>2013-09-15T09:41:11.000Z</time>
      </trkpt>
      <trkpt lat="44.93378" lon="5.54391">
        <ele>1067</ele>
        <time>2013-09-15T09:41:12.000Z</time>
      </trkpt>
      <trkpt lat="44.93378" lon="5.54391">
        <ele>1067</ele>
        <time>2013-09-15T09:41:12.000Z</time>
      </trkpt>
      <trkpt lat="44.93378" lon="5.54391">
        <ele>1067</ele>
        <time>2013-09-15T09:41:20.000Z</time>
      </trkpt>
      <trkpt lat="44.93381" lon="5.54378">
        <ele>1068</ele>
        <time>2013-09-15T09:41:21.000Z</time>
      </trkpt>
      <trkpt lat="44.93381" lon="5.54378">
        <ele>1068</ele>
        <time>2013-09-15T09:41:21.000Z</time>
      </trkpt>
      <trkpt lat="44.93381" lon="5.54378">
        <ele>1068</ele>
        <time>2013-09-15T09:41:29.000Z</time>
      </trkpt>
      <trkpt lat="44.93382" lon="5.54365">
        <ele>1070</ele>
        <time>2013-09-15T09:41:30.000Z</time>
      </trkpt>
      <trkpt lat="44.93381" lon="5.54359">
        <ele>1070</ele>
        <time>2013-09-15T09:41:35.000Z</time>
      </trkpt>
      <trkpt lat="44.93378" lon="5.54352">
        <ele>1070</ele>
        <time>2013-09-15T09:41:38.000Z</time>
      </trkpt>
      <trkpt lat="44.93375" lon="5.54346">
        <ele>1070</ele>
        <time>2013-09-15T09:41:41.000Z</time>
      </trkpt>
      <trkpt lat="44.93371" lon="5.54342">
        <ele>1071</ele>
        <time>2013-09-15T09:41:44.000Z</time>
      </trkpt>
      <trkpt lat="44.93366" lon="5.54335">
        <ele>1071</ele>
        <time>2013-09-15T09:41:47.000Z</time>
      </trkpt>
      <trkpt lat="44.93363" lon="5.54329">
        <ele>1071</ele>
        <time>2013-09-15T09:41:50.000Z</time>
      </trkpt>
      <trkpt lat="44.93358" lon="5.54325">
        <ele>1071</ele>
        <time>2013-09-15T09:41:53.000Z</time>
      </trkpt>
      <trkpt lat="44.93353" lon="5.5432">
        <ele>1071</ele>
        <time>2013-09-15T09:41:56.000Z</time>
      </trkpt>
      <trkpt lat="44.93349" lon="5.54316">
        <ele>1071</ele>
        <time>2013-09-15T09:41:59.000Z</time>
      </trkpt>
      <trkpt lat="44.93344" lon="5.54312">
        <ele>1072</ele>
        <time>2013-09-15T09:42:02.000Z</time>
      </trkpt>
      <trkpt lat="44.93338" lon="5.5431">
        <ele>1072</ele>
        <time>2013-09-15T09:42:05.000Z</time>
      </trkpt>
      <trkpt lat="44.93334" lon="5.54303">
        <ele>1072</ele>
        <time>2013-09-15T09:42:08.000Z</time>
      </trkpt>
      <trkpt lat="44.9333" lon="5.54297">
        <ele>1072</ele>
        <time>2013-09-15T09:42:12.000Z</time>
      </trkpt>
      <trkpt lat="44.93326" lon="5.54292">
        <ele>1072</ele>
        <time>2013-09-15T09:42:15.000Z</time>
      </trkpt>
      <trkpt lat="44.93321" lon="5.54288">
        <ele>1072</ele>
        <time>2013-09-15T09:42:19.000Z</time>
      </trkpt>
      <trkpt lat="44.93318" lon="5.54282">
        <ele>1072</ele>
        <time>2013-09-15T09:42:23.000Z</time>
      </trkpt>
      <trkpt lat="44.93314" lon="5.54277">
        <ele>1072</ele>
        <time>2013-09-15T09:42:28.000Z</time>
      </trkpt>
      <trkpt lat="44.93313" lon="5.54271">
        <ele>1072</ele>
        <time>2013-09-15T09:42:32.000Z</time>
      </trkpt>
      <trkpt lat="44.93308" lon="5.54267">
        <ele>1072</ele>
        <time>2013-09-15T09:42:37.000Z</time>
      </trkpt>
      <trkpt lat="44.93305" lon="5.5426">
        <ele>1072</ele>
        <time>2013-09-15T09:42:41.000Z</time>
      </trkpt>
      <trkpt lat="44.93302" lon="5.54254">
        <ele>1072</ele>
        <time>2013-09-15T09:42:45.000Z</time>
      </trkpt>
      <trkpt lat="44.93301" lon="5.54247">
        <ele>1072</ele>
        <time>2013-09-15T09:42:52.000Z</time>
      </trkpt>
      <trkpt lat="44.93301" lon="5.54247">
        <ele>1072</ele>
        <time>2013-09-15T09:42:52.000Z</time>
      </trkpt>
      <trkpt lat="44.93301" lon="5.54247">
        <ele>1072</ele>
        <time>2013-09-15T09:42:53.000Z</time>
      </trkpt>
      <trkpt lat="44.93305" lon="5.54245">
        <ele>1072</ele>
        <time>2013-09-15T09:42:59.000Z</time>
      </trkpt>
      <trkpt lat="44.9331" lon="5.54247">
        <ele>1072</ele>
        <time>2013-09-15T09:43:02.000Z</time>
      </trkpt>
      <trkpt lat="44.93316" lon="5.5425">
        <ele>1072</ele>
        <time>2013-09-15T09:43:05.000Z</time>
      </trkpt>
      <trkpt lat="44.93321" lon="5.5425">
        <ele>1072</ele>
        <time>2013-09-15T09:43:08.000Z</time>
      </trkpt>
      <trkpt lat="44.93327" lon="5.54252">
        <ele>1072</ele>
        <time>2013-09-15T09:43:11.000Z</time>
      </trkpt>
      <trkpt lat="44.93332" lon="5.54254">
        <ele>1072</ele>
        <time>2013-09-15T09:43:14.000Z</time>
      </trkpt>
      <trkpt lat="44.93336" lon="5.54256">
        <ele>1072</ele>
        <time>2013-09-15T09:43:17.000Z</time>
      </trkpt>
      <trkpt lat="44.93341" lon="5.54258">
        <ele>1072</ele>
        <time>2013-09-15T09:43:20.000Z</time>
      </trkpt>
      <trkpt lat="44.93346" lon="5.5426">
        <ele>1072</ele>
        <time>2013-09-15T09:43:23.000Z</time>
      </trkpt>
      <trkpt lat="44.9335" lon="5.54262">
        <ele>1072</ele>
        <time>2013-09-15T09:43:26.000Z</time>
      </trkpt>
      <trkpt lat="44.93354" lon="5.54267">
        <ele>1073</ele>
        <time>2013-09-15T09:43:29.000Z</time>
      </trkpt>
      <trkpt lat="44.9336" lon="5.54269">
        <ele>1073</ele>
        <time>2013-09-15T09:43:33.000Z</time>
      </trkpt>
      <trkpt lat="44.93365" lon="5.54271">
        <ele>1073</ele>
        <time>2013-09-15T09:43:37.000Z</time>
      </trkpt>
      <trkpt lat="44.9337" lon="5.54273">
        <ele>1073</ele>
        <time>2013-09-15T09:43:41.000Z</time>
      </trkpt>
      <trkpt lat="44.9337" lon="5.54273">
        <ele>1073</ele>
        <time>2013-09-15T09:43:41.000Z</time>
      </trkpt>
      <trkpt lat="44.9337" lon="5.54273">
        <ele>1073</ele>
        <time>2013-09-15T09:43:46.000Z</time>
      </trkpt>
      <trkpt lat="44.93373" lon="5.54277">
        <ele>1074</ele>
        <time>2013-09-15T09:44:03.000Z</time>
      </trkpt>
      <trkpt lat="44.93373" lon="5.54277">
        <ele>1074</ele>
        <time>2013-09-15T09:44:03.000Z</time>
      </trkpt>
      <trkpt lat="44.93373" lon="5.54277">
        <ele>1075</ele>
        <time>2013-09-15T09:44:04.000Z</time>
      </trkpt>
      <trkpt lat="44.93377" lon="5.5428">
        <ele>1075</ele>
        <time>2013-09-15T09:44:09.000Z</time>
      </trkpt>
      <trkpt lat="44.93377" lon="5.5428">
        <ele>1075</ele>
        <time>2013-09-15T09:44:09.000Z</time>
      </trkpt>
      <trkpt lat="44.93377" lon="5.5428">
        <ele>1075</ele>
        <time>2013-09-15T09:44:10.000Z</time>
      </trkpt>
      <trkpt lat="44.9338" lon="5.54284">
        <ele>1076</ele>
        <time>2013-09-15T09:44:14.000Z</time>
      </trkpt>
      <trkpt lat="44.93384" lon="5.54288">
        <ele>1076</ele>
        <time>2013-09-15T09:44:20.000Z</time>
      </trkpt>
      <trkpt lat="44.93389" lon="5.5429">
        <ele>1077</ele>
        <time>2013-09-15T09:44:24.000Z</time>
      </trkpt>
      <trkpt lat="44.93392" lon="5.54294">
        <ele>1078</ele>
        <time>2013-09-15T09:44:28.000Z</time>
      </trkpt>
      <trkpt lat="44.93396" lon="5.54297">
        <ele>1079</ele>
        <time>2013-09-15T09:44:33.000Z</time>
      </trkpt>
      <trkpt lat="44.93401" lon="5.54301">
        <ele>1079</ele>
        <time>2013-09-15T09:44:38.000Z</time>
      </trkpt>
      <trkpt lat="44.93404" lon="5.54307">
        <ele>1081</ele>
        <time>2013-09-15T09:44:45.000Z</time>
      </trkpt>
      <trkpt lat="44.93408" lon="5.5431">
        <ele>1081</ele>
        <time>2013-09-15T09:44:50.000Z</time>
      </trkpt>
      <trkpt lat="44.93412" lon="5.54314">
        <ele>1082</ele>
        <time>2013-09-15T09:44:55.000Z</time>
      </trkpt>
      <trkpt lat="44.93412" lon="5.54314">
        <ele>1082</ele>
        <time>2013-09-15T09:44:55.000Z</time>
      </trkpt>
      <trkpt lat="44.93412" lon="5.54314">
        <ele>1082</ele>
        <time>2013-09-15T09:44:56.000Z</time>
      </trkpt>
      <trkpt lat="44.93417" lon="5.54316">
        <ele>1083</ele>
        <time>2013-09-15T09:45:01.000Z</time>
      </trkpt>
      <trkpt lat="44.9342" lon="5.5432">
        <ele>1084</ele>
        <time>2013-09-15T09:45:05.000Z</time>
      </trkpt>
      <trkpt lat="44.93424" lon="5.54325">
        <ele>1084</ele>
        <time>2013-09-15T09:45:12.000Z</time>
      </trkpt>
      <trkpt lat="44.93424" lon="5.54325">
        <ele>1084</ele>
        <time>2013-09-15T09:45:12.000Z</time>
      </trkpt>
      <trkpt lat="44.93424" lon="5.54325">
        <ele>1084</ele>
        <time>2013-09-15T09:45:13.000Z</time>
      </trkpt>
      <trkpt lat="44.93428" lon="5.54329">
        <ele>1085</ele>
        <time>2013-09-15T09:45:19.000Z</time>
      </trkpt>
      <trkpt lat="44.93428" lon="5.54329">
        <ele>1085</ele>
        <time>2013-09-15T09:45:19.000Z</time>
      </trkpt>
      <trkpt lat="44.93428" lon="5.54329">
        <ele>1085</ele>
        <time>2013-09-15T09:45:20.000Z</time>
      </trkpt>
      <trkpt lat="44.93432" lon="5.54333">
        <ele>1086</ele>
        <time>2013-09-15T09:45:26.000Z</time>
      </trkpt>
      <trkpt lat="44.93432" lon="5.54333">
        <ele>1086</ele>
        <time>2013-09-15T09:45:26.000Z</time>
      </trkpt>
      <trkpt lat="44.93432" lon="5.54333">
        <ele>1087</ele>
        <time>2013-09-15T09:45:27.000Z</time>
      </trkpt>
      <trkpt lat="44.93436" lon="5.54338">
        <ele>1087</ele>
        <time>2013-09-15T09:45:31.000Z</time>
      </trkpt>
      <trkpt lat="44.93436" lon="5.54338">
        <ele>1087</ele>
        <time>2013-09-15T09:45:31.000Z</time>
      </trkpt>
      <trkpt lat="44.93436" lon="5.54338">
        <ele>1087</ele>
        <time>2013-09-15T09:45:32.000Z</time>
      </trkpt>
      <trkpt lat="44.9344" lon="5.54342">
        <ele>1088</ele>
        <time>2013-09-15T09:45:36.000Z</time>
      </trkpt>
      <trkpt lat="44.93445" lon="5.54344">
        <ele>1089</ele>
        <time>2013-09-15T09:45:41.000Z</time>
      </trkpt>
      <trkpt lat="44.93448" lon="5.54348">
        <ele>1089</ele>
        <time>2013-09-15T09:45:45.000Z</time>
      </trkpt>
      <trkpt lat="44.93452" lon="5.5435">
        <ele>1090</ele>
        <time>2013-09-15T09:45:49.000Z</time>
      </trkpt>
      <trkpt lat="44.93456" lon="5.54352">
        <ele>1091</ele>
        <time>2013-09-15T09:45:53.000Z</time>
      </trkpt>
      <trkpt lat="44.93456" lon="5.54352">
        <ele>1091</ele>
        <time>2013-09-15T09:45:53.000Z</time>
      </trkpt>
      <trkpt lat="44.93456" lon="5.54352">
        <ele>1091</ele>
        <time>2013-09-15T09:45:54.000Z</time>
      </trkpt>
      <trkpt lat="44.93462" lon="5.5435">
        <ele>1091</ele>
        <time>2013-09-15T09:46:03.000Z</time>
      </trkpt>
      <trkpt lat="44.93462" lon="5.5435">
        <ele>1091</ele>
        <time>2013-09-15T09:46:03.000Z</time>
      </trkpt>
      <trkpt lat="44.93462" lon="5.5435">
        <ele>1091</ele>
        <time>2013-09-15T09:46:04.000Z</time>
      </trkpt>
      <trkpt lat="44.93466" lon="5.54352">
        <ele>1091</ele>
        <time>2013-09-15T09:46:11.000Z</time>
      </trkpt>
      <trkpt lat="44.93466" lon="5.54352">
        <ele>1091</ele>
        <time>2013-09-15T09:46:11.000Z</time>
      </trkpt>
      <trkpt lat="44.93466" lon="5.54352">
        <ele>1092</ele>
        <time>2013-09-15T09:46:12.000Z</time>
      </trkpt>
      <trkpt lat="44.93472" lon="5.54352">
        <ele>1092</ele>
        <time>2013-09-15T09:46:21.000Z</time>
      </trkpt>
      <trkpt lat="44.93472" lon="5.54352">
        <ele>1092</ele>
        <time>2013-09-15T09:46:21.000Z</time>
      </trkpt>
      <trkpt lat="44.93472" lon="5.54352">
        <ele>1092</ele>
        <time>2013-09-15T09:46:23.000Z</time>
      </trkpt>
      <trkpt lat="44.93476" lon="5.5435">
        <ele>1092</ele>
        <time>2013-09-15T09:46:49.000Z</time>
      </trkpt>
      <trkpt lat="44.93476" lon="5.5435">
        <ele>1092</ele>
        <time>2013-09-15T09:46:49.000Z</time>
      </trkpt>
      <trkpt lat="44.93476" lon="5.5435">
        <ele>1092</ele>
        <time>2013-09-15T09:46:56.000Z</time>
      </trkpt>
      <trkpt lat="44.9348" lon="5.54352">
        <ele>1093</ele>
        <time>2013-09-15T09:47:07.000Z</time>
      </trkpt>
      <trkpt lat="44.9348" lon="5.54352">
        <ele>1093</ele>
        <time>2013-09-15T09:47:07.000Z</time>
      </trkpt>
      <trkpt lat="44.9348" lon="5.54352">
        <ele>1093</ele>
        <time>2013-09-15T09:47:08.000Z</time>
      </trkpt>
      <trkpt lat="44.93484" lon="5.54355">
        <ele>1094</ele>
        <time>2013-09-15T09:47:14.000Z</time>
      </trkpt>
      <trkpt lat="44.9349" lon="5.54357">
        <ele>1095</ele>
        <time>2013-09-15T09:47:21.000Z</time>
      </trkpt>
      <trkpt lat="44.9349" lon="5.54357">
        <ele>1095</ele>
        <time>2013-09-15T09:47:21.000Z</time>
      </trkpt>
      <trkpt lat="44.9349" lon="5.54357">
        <ele>1095</ele>
        <time>2013-09-15T09:47:22.000Z</time>
      </trkpt>
      <trkpt lat="44.93494" lon="5.54359">
        <ele>1095</ele>
        <time>2013-09-15T09:47:31.000Z</time>
      </trkpt>
      <trkpt lat="44.93494" lon="5.54359">
        <ele>1095</ele>
        <time>2013-09-15T09:47:31.000Z</time>
      </trkpt>
      <trkpt lat="44.93494" lon="5.54359">
        <ele>1095</ele>
        <time>2013-09-15T09:47:32.000Z</time>
      </trkpt>
      <trkpt lat="44.93498" lon="5.54361">
        <ele>1096</ele>
        <time>2013-09-15T09:47:38.000Z</time>
      </trkpt>
      <trkpt lat="44.93498" lon="5.54361">
        <ele>1096</ele>
        <time>2013-09-15T09:47:38.000Z</time>
      </trkpt>
      <trkpt lat="44.93498" lon="5.54361">
        <ele>1096</ele>
        <time>2013-09-15T09:47:39.000Z</time>
      </trkpt>
      <trkpt lat="44.93503" lon="5.54363">
        <ele>1097</ele>
        <time>2013-09-15T09:47:44.000Z</time>
      </trkpt>
      <trkpt lat="44.93503" lon="5.54363">
        <ele>1097</ele>
        <time>2013-09-15T09:47:44.000Z</time>
      </trkpt>
      <trkpt lat="44.93503" lon="5.54363">
        <ele>1097</ele>
        <time>2013-09-15T09:47:46.000Z</time>
      </trkpt>
      <trkpt lat="44.93507" lon="5.54365">
        <ele>1098</ele>
        <time>2013-09-15T09:47:53.000Z</time>
      </trkpt>
      <trkpt lat="44.93512" lon="5.54365">
        <ele>1099</ele>
        <time>2013-09-15T09:47:59.000Z</time>
      </trkpt>
      <trkpt lat="44.93518" lon="5.54365">
        <ele>1100</ele>
        <time>2013-09-15T09:48:04.000Z</time>
      </trkpt>
      <trkpt lat="44.93523" lon="5.54365">
        <ele>1100</ele>
        <time>2013-09-15T09:48:09.000Z</time>
      </trkpt>
      <trkpt lat="44.93528" lon="5.54365">
        <ele>1101</ele>
        <time>2013-09-15T09:48:13.000Z</time>
      </trkpt>
      <trkpt lat="44.93534" lon="5.54365">
        <ele>1102</ele>
        <time>2013-09-15T09:48:17.000Z</time>
      </trkpt>
      <trkpt lat="44.93539" lon="5.54365">
        <ele>1102</ele>
        <time>2013-09-15T09:48:21.000Z</time>
      </trkpt>
      <trkpt lat="44.93539" lon="5.54365">
        <ele>1102</ele>
        <time>2013-09-15T09:48:21.000Z</time>
      </trkpt>
      <trkpt lat="44.93539" lon="5.54365">
        <ele>1102</ele>
        <time>2013-09-15T09:48:22.000Z</time>
      </trkpt>
      <trkpt lat="44.93546" lon="5.54365">
        <ele>1102</ele>
        <time>2013-09-15T09:48:29.000Z</time>
      </trkpt>
      <trkpt lat="44.93551" lon="5.54365">
        <ele>1103</ele>
        <time>2013-09-15T09:48:33.000Z</time>
      </trkpt>
      <trkpt lat="44.93556" lon="5.54365">
        <ele>1104</ele>
        <time>2013-09-15T09:48:37.000Z</time>
      </trkpt>
      <trkpt lat="44.9356" lon="5.54368">
        <ele>1105</ele>
        <time>2013-09-15T09:48:41.000Z</time>
      </trkpt>
      <trkpt lat="44.93566" lon="5.54368">
        <ele>1106</ele>
        <time>2013-09-15T09:48:47.000Z</time>
      </trkpt>
      <trkpt lat="44.93571" lon="5.5437">
        <ele>1108</ele>
        <time>2013-09-15T09:48:53.000Z</time>
      </trkpt>
      <trkpt lat="44.93577" lon="5.5437">
        <ele>1110</ele>
        <time>2013-09-15T09:49:00.000Z</time>
      </trkpt>
      <trkpt lat="44.93581" lon="5.54372">
        <ele>1111</ele>
        <time>2013-09-15T09:49:11.000Z</time>
      </trkpt>
      <trkpt lat="44.93581" lon="5.54372">
        <ele>1111</ele>
        <time>2013-09-15T09:49:11.000Z</time>
      </trkpt>
      <trkpt lat="44.93581" lon="5.54372">
        <ele>1111</ele>
        <time>2013-09-15T09:49:13.000Z</time>
      </trkpt>
      <trkpt lat="44.93582" lon="5.54378">
        <ele>1113</ele>
        <time>2013-09-15T09:49:47.000Z</time>
      </trkpt>
      <trkpt lat="44.93582" lon="5.54378">
        <ele>1113</ele>
        <time>2013-09-15T09:49:47.000Z</time>
      </trkpt>
      <trkpt lat="44.93582" lon="5.54378">
        <ele>1114</ele>
        <time>2013-09-15T09:49:58.000Z</time>
      </trkpt>
      <trkpt lat="44.93582" lon="5.54372">
        <ele>1114</ele>
        <time>2013-09-15T09:50:04.000Z</time>
      </trkpt>
      <trkpt lat="44.93582" lon="5.54372">
        <ele>1114</ele>
        <time>2013-09-15T09:50:04.000Z</time>
      </trkpt>
      <trkpt lat="44.93582" lon="5.54372">
        <ele>1114</ele>
        <time>2013-09-15T09:50:05.000Z</time>
      </trkpt>
      <trkpt lat="44.93582" lon="5.54365">
        <ele>1114</ele>
        <time>2013-09-15T09:50:12.000Z</time>
      </trkpt>
      <trkpt lat="44.93582" lon="5.54365">
        <ele>1114</ele>
        <time>2013-09-15T09:50:12.000Z</time>
      </trkpt>
      <trkpt lat="44.93582" lon="5.54365">
        <ele>1114</ele>
        <time>2013-09-15T09:50:16.000Z</time>
      </trkpt>
      <trkpt lat="44.93586" lon="5.54361">
        <ele>1116</ele>
        <time>2013-09-15T09:51:46.000Z</time>
      </trkpt>
      <trkpt lat="44.9359" lon="5.54357">
        <ele>1117</ele>
        <time>2013-09-15T09:51:51.000Z</time>
      </trkpt>
      <trkpt lat="44.9359" lon="5.54357">
        <ele>1117</ele>
        <time>2013-09-15T09:51:51.000Z</time>
      </trkpt>
      <trkpt lat="44.9359" lon="5.54357">
        <ele>1117</ele>
        <time>2013-09-15T09:51:54.000Z</time>
      </trkpt>
      <trkpt lat="44.93595" lon="5.54355">
        <ele>1117</ele>
        <time>2013-09-15T09:52:02.000Z</time>
      </trkpt>
      <trkpt lat="44.93595" lon="5.54355">
        <ele>1117</ele>
        <time>2013-09-15T09:52:02.000Z</time>
      </trkpt>
      <trkpt lat="44.93595" lon="5.54355">
        <ele>1117</ele>
        <time>2013-09-15T09:52:13.000Z</time>
      </trkpt>
      <trkpt lat="44.93597" lon="5.54348">
        <ele>1117</ele>
        <time>2013-09-15T09:52:27.000Z</time>
      </trkpt>
      <trkpt lat="44.93597" lon="5.54348">
        <ele>1117</ele>
        <time>2013-09-15T09:52:27.000Z</time>
      </trkpt>
      <trkpt lat="44.93597" lon="5.54348">
        <ele>1117</ele>
        <time>2013-09-15T09:52:28.000Z</time>
      </trkpt>
      <trkpt lat="44.93599" lon="5.54342">
        <ele>1117</ele>
        <time>2013-09-15T09:52:31.000Z</time>
      </trkpt>
      <trkpt lat="44.93601" lon="5.54335">
        <ele>1117</ele>
        <time>2013-09-15T09:52:35.000Z</time>
      </trkpt>
      <trkpt lat="44.93602" lon="5.54329">
        <ele>1117</ele>
        <time>2013-09-15T09:52:38.000Z</time>
      </trkpt>
      <trkpt lat="44.93602" lon="5.54322">
        <ele>1117</ele>
        <time>2013-09-15T09:52:41.000Z</time>
      </trkpt>
      <trkpt lat="44.93604" lon="5.54316">
        <ele>1117</ele>
        <time>2013-09-15T09:52:45.000Z</time>
      </trkpt>
      <trkpt lat="44.93606" lon="5.5431">
        <ele>1117</ele>
        <time>2013-09-15T09:52:48.000Z</time>
      </trkpt>
      <trkpt lat="44.93607" lon="5.54303">
        <ele>1117</ele>
        <time>2013-09-15T09:52:51.000Z</time>
      </trkpt>
      <trkpt lat="44.93608" lon="5.54297">
        <ele>1117</ele>
        <time>2013-09-15T09:52:55.000Z</time>
      </trkpt>
      <trkpt lat="44.93609" lon="5.5429">
        <ele>1117</ele>
        <time>2013-09-15T09:52:59.000Z</time>
      </trkpt>
      <trkpt lat="44.9361" lon="5.54284">
        <ele>1117</ele>
        <time>2013-09-15T09:53:03.000Z</time>
      </trkpt>
      <trkpt lat="44.93609" lon="5.54277">
        <ele>1117</ele>
        <time>2013-09-15T09:53:06.000Z</time>
      </trkpt>
      <trkpt lat="44.93609" lon="5.54277">
        <ele>1117</ele>
        <time>2013-09-15T09:53:06.000Z</time>
      </trkpt>
      <trkpt lat="44.93609" lon="5.54277">
        <ele>1117</ele>
        <time>2013-09-15T09:53:07.000Z</time>
      </trkpt>
      <trkpt lat="44.93608" lon="5.54271">
        <ele>1117</ele>
        <time>2013-09-15T09:53:10.000Z</time>
      </trkpt>
      <trkpt lat="44.93608" lon="5.54264">
        <ele>1117</ele>
        <time>2013-09-15T09:53:14.000Z</time>
      </trkpt>
      <trkpt lat="44.93606" lon="5.54258">
        <ele>1117</ele>
        <time>2013-09-15T09:53:17.000Z</time>
      </trkpt>
      <trkpt lat="44.93604" lon="5.54252">
        <ele>1117</ele>
        <time>2013-09-15T09:53:21.000Z</time>
      </trkpt>
      <trkpt lat="44.93604" lon="5.54245">
        <ele>1117</ele>
        <time>2013-09-15T09:53:24.000Z</time>
      </trkpt>
      <trkpt lat="44.93604" lon="5.54245">
        <ele>1117</ele>
        <time>2013-09-15T09:53:24.000Z</time>
      </trkpt>
      <trkpt lat="44.93604" lon="5.54245">
        <ele>1117</ele>
        <time>2013-09-15T09:53:25.000Z</time>
      </trkpt>
      <trkpt lat="44.93603" lon="5.54239">
        <ele>1117</ele>
        <time>2013-09-15T09:53:28.000Z</time>
      </trkpt>
      <trkpt lat="44.93604" lon="5.54232">
        <ele>1118</ele>
        <time>2013-09-15T09:53:32.000Z</time>
      </trkpt>
      <trkpt lat="44.93607" lon="5.54226">
        <ele>1118</ele>
        <time>2013-09-15T09:53:35.000Z</time>
      </trkpt>
      <trkpt lat="44.9361" lon="5.54219">
        <ele>1118</ele>
        <time>2013-09-15T09:53:39.000Z</time>
      </trkpt>
      <trkpt lat="44.93614" lon="5.54215">
        <ele>1118</ele>
        <time>2013-09-15T09:53:43.000Z</time>
      </trkpt>
      <trkpt lat="44.9362" lon="5.54211">
        <ele>1119</ele>
        <time>2013-09-15T09:53:46.000Z</time>
      </trkpt>
      <trkpt lat="44.93625" lon="5.54209">
        <ele>1119</ele>
        <time>2013-09-15T09:53:49.000Z</time>
      </trkpt>
      <trkpt lat="44.93629" lon="5.54204">
        <ele>1120</ele>
        <time>2013-09-15T09:53:52.000Z</time>
      </trkpt>
      <trkpt lat="44.93634" lon="5.54204">
        <ele>1121</ele>
        <time>2013-09-15T09:53:55.000Z</time>
      </trkpt>
      <trkpt lat="44.93639" lon="5.54202">
        <ele>1121</ele>
        <time>2013-09-15T09:53:58.000Z</time>
      </trkpt>
      <trkpt lat="44.93643" lon="5.542">
        <ele>1122</ele>
        <time>2013-09-15T09:54:01.000Z</time>
      </trkpt>
      <trkpt lat="44.93648" lon="5.542">
        <ele>1122</ele>
        <time>2013-09-15T09:54:04.000Z</time>
      </trkpt>
      <trkpt lat="44.93654" lon="5.54198">
        <ele>1123</ele>
        <time>2013-09-15T09:54:07.000Z</time>
      </trkpt>
      <trkpt lat="44.93659" lon="5.54198">
        <ele>1123</ele>
        <time>2013-09-15T09:54:11.000Z</time>
      </trkpt>
      <trkpt lat="44.93665" lon="5.54198">
        <ele>1124</ele>
        <time>2013-09-15T09:54:15.000Z</time>
      </trkpt>
      <trkpt lat="44.9367" lon="5.54198">
        <ele>1124</ele>
        <time>2013-09-15T09:54:19.000Z</time>
      </trkpt>
      <trkpt lat="44.93673" lon="5.54202">
        <ele>1124</ele>
        <time>2013-09-15T09:54:30.000Z</time>
      </trkpt>
      <trkpt lat="44.93673" lon="5.54202">
        <ele>1124</ele>
        <time>2013-09-15T09:54:30.000Z</time>
      </trkpt>
      <trkpt lat="44.93673" lon="5.54202">
        <ele>1124</ele>
        <time>2013-09-15T09:54:31.000Z</time>
      </trkpt>
      <trkpt lat="44.93678" lon="5.54202">
        <ele>1125</ele>
        <time>2013-09-15T09:54:38.000Z</time>
      </trkpt>
      <trkpt lat="44.93678" lon="5.54202">
        <ele>1125</ele>
        <time>2013-09-15T09:54:38.000Z</time>
      </trkpt>
      <trkpt lat="44.93678" lon="5.54202">
        <ele>1125</ele>
        <time>2013-09-15T09:54:58.000Z</time>
      </trkpt>
      <trkpt lat="44.93684" lon="5.54202">
        <ele>1127</ele>
        <time>2013-09-15T09:55:25.000Z</time>
      </trkpt>
      <trkpt lat="44.93689" lon="5.542">
        <ele>1128</ele>
        <time>2013-09-15T09:55:30.000Z</time>
      </trkpt>
      <trkpt lat="44.93694" lon="5.54198">
        <ele>1129</ele>
        <time>2013-09-15T09:55:33.000Z</time>
      </trkpt>
      <trkpt lat="44.93698" lon="5.54196">
        <ele>1130</ele>
        <time>2013-09-15T09:55:37.000Z</time>
      </trkpt>
      <trkpt lat="44.93702" lon="5.54194">
        <ele>1131</ele>
        <time>2013-09-15T09:55:41.000Z</time>
      </trkpt>
      <trkpt lat="44.93706" lon="5.54192">
        <ele>1131</ele>
        <time>2013-09-15T09:55:45.000Z</time>
      </trkpt>
      <trkpt lat="44.93711" lon="5.54189">
        <ele>1132</ele>
        <time>2013-09-15T09:55:49.000Z</time>
      </trkpt>
      <trkpt lat="44.93715" lon="5.54187">
        <ele>1133</ele>
        <time>2013-09-15T09:55:53.000Z</time>
      </trkpt>
      <trkpt lat="44.93719" lon="5.54185">
        <ele>1133</ele>
        <time>2013-09-15T09:55:57.000Z</time>
      </trkpt>
      <trkpt lat="44.93724" lon="5.54183">
        <ele>1134</ele>
        <time>2013-09-15T09:56:01.000Z</time>
      </trkpt>
      <trkpt lat="44.93729" lon="5.54183">
        <ele>1134</ele>
        <time>2013-09-15T09:56:05.000Z</time>
      </trkpt>
      <trkpt lat="44.93733" lon="5.54181">
        <ele>1135</ele>
        <time>2013-09-15T09:56:09.000Z</time>
      </trkpt>
      <trkpt lat="44.93738" lon="5.54179">
        <ele>1135</ele>
        <time>2013-09-15T09:56:12.000Z</time>
      </trkpt>
      <trkpt lat="44.93743" lon="5.54179">
        <ele>1136</ele>
        <time>2013-09-15T09:56:16.000Z</time>
      </trkpt>
      <trkpt lat="44.93748" lon="5.54181">
        <ele>1136</ele>
        <time>2013-09-15T09:56:20.000Z</time>
      </trkpt>
      <trkpt lat="44.93754" lon="5.54183">
        <ele>1136</ele>
        <time>2013-09-15T09:56:24.000Z</time>
      </trkpt>
      <trkpt lat="44.93759" lon="5.54185">
        <ele>1137</ele>
        <time>2013-09-15T09:56:27.000Z</time>
      </trkpt>
      <trkpt lat="44.93763" lon="5.54189">
        <ele>1137</ele>
        <time>2013-09-15T09:56:30.000Z</time>
      </trkpt>
      <trkpt lat="44.93768" lon="5.54192">
        <ele>1138</ele>
        <time>2013-09-15T09:56:33.000Z</time>
      </trkpt>
      <trkpt lat="44.93772" lon="5.54196">
        <ele>1138</ele>
        <time>2013-09-15T09:56:36.000Z</time>
      </trkpt>
      <trkpt lat="44.93776" lon="5.542">
        <ele>1139</ele>
        <time>2013-09-15T09:56:39.000Z</time>
      </trkpt>
      <trkpt lat="44.9378" lon="5.54204">
        <ele>1140</ele>
        <time>2013-09-15T09:56:43.000Z</time>
      </trkpt>
      <trkpt lat="44.93784" lon="5.54209">
        <ele>1141</ele>
        <time>2013-09-15T09:57:08.000Z</time>
      </trkpt>
      <trkpt lat="44.93784" lon="5.54209">
        <ele>1141</ele>
        <time>2013-09-15T09:57:08.000Z</time>
      </trkpt>
      <trkpt lat="44.93784" lon="5.54209">
        <ele>1141</ele>
        <time>2013-09-15T09:57:09.000Z</time>
      </trkpt>
      <trkpt lat="44.93789" lon="5.54213">
        <ele>1142</ele>
        <time>2013-09-15T09:57:13.000Z</time>
      </trkpt>
      <trkpt lat="44.93793" lon="5.54217">
        <ele>1142</ele>
        <time>2013-09-15T09:57:17.000Z</time>
      </trkpt>
      <trkpt lat="44.93798" lon="5.54222">
        <ele>1143</ele>
        <time>2013-09-15T09:57:21.000Z</time>
      </trkpt>
      <trkpt lat="44.93802" lon="5.54226">
        <ele>1144</ele>
        <time>2013-09-15T09:57:25.000Z</time>
      </trkpt>
      <trkpt lat="44.93807" lon="5.5423">
        <ele>1144</ele>
        <time>2013-09-15T09:57:29.000Z</time>
      </trkpt>
      <trkpt lat="44.93812" lon="5.54234">
        <ele>1145</ele>
        <time>2013-09-15T09:57:32.000Z</time>
      </trkpt>
      <trkpt lat="44.93817" lon="5.54239">
        <ele>1145</ele>
        <time>2013-09-15T09:57:36.000Z</time>
      </trkpt>
      <trkpt lat="44.93822" lon="5.54241">
        <ele>1146</ele>
        <time>2013-09-15T09:57:40.000Z</time>
      </trkpt>
      <trkpt lat="44.93828" lon="5.54243">
        <ele>1147</ele>
        <time>2013-09-15T09:57:44.000Z</time>
      </trkpt>
      <trkpt lat="44.93833" lon="5.54245">
        <ele>1147</ele>
        <time>2013-09-15T09:57:48.000Z</time>
      </trkpt>
      <trkpt lat="44.93838" lon="5.54247">
        <ele>1148</ele>
        <time>2013-09-15T09:57:52.000Z</time>
      </trkpt>
      <trkpt lat="44.93844" lon="5.5425">
        <ele>1149</ele>
        <time>2013-09-15T09:57:56.000Z</time>
      </trkpt>
      <trkpt lat="44.93848" lon="5.54252">
        <ele>1149</ele>
        <time>2013-09-15T09:58:00.000Z</time>
      </trkpt>
      <trkpt lat="44.93852" lon="5.54254">
        <ele>1150</ele>
        <time>2013-09-15T09:58:03.000Z</time>
      </trkpt>
      <trkpt lat="44.93857" lon="5.54256">
        <ele>1150</ele>
        <time>2013-09-15T09:58:06.000Z</time>
      </trkpt>
      <trkpt lat="44.93862" lon="5.54256">
        <ele>1151</ele>
        <time>2013-09-15T09:58:10.000Z</time>
      </trkpt>
      <trkpt lat="44.93866" lon="5.54258">
        <ele>1151</ele>
        <time>2013-09-15T09:58:13.000Z</time>
      </trkpt>
      <trkpt lat="44.93871" lon="5.5426">
        <ele>1152</ele>
        <time>2013-09-15T09:58:17.000Z</time>
      </trkpt>
      <trkpt lat="44.93875" lon="5.54262">
        <ele>1152</ele>
        <time>2013-09-15T09:58:20.000Z</time>
      </trkpt>
      <trkpt lat="44.9388" lon="5.54269">
        <ele>1153</ele>
        <time>2013-09-15T09:58:24.000Z</time>
      </trkpt>
      <trkpt lat="44.93886" lon="5.54271">
        <ele>1154</ele>
        <time>2013-09-15T09:58:28.000Z</time>
      </trkpt>
      <trkpt lat="44.93889" lon="5.54275">
        <ele>1154</ele>
        <time>2013-09-15T09:58:31.000Z</time>
      </trkpt>
      <trkpt lat="44.93893" lon="5.54277">
        <ele>1155</ele>
        <time>2013-09-15T09:58:34.000Z</time>
      </trkpt>
      <trkpt lat="44.93898" lon="5.54277">
        <ele>1156</ele>
        <time>2013-09-15T09:58:38.000Z</time>
      </trkpt>
      <trkpt lat="44.93904" lon="5.54277">
        <ele>1157</ele>
        <time>2013-09-15T09:58:42.000Z</time>
      </trkpt>
      <trkpt lat="44.93909" lon="5.54277">
        <ele>1157</ele>
        <time>2013-09-15T09:58:46.000Z</time>
      </trkpt>
      <trkpt lat="44.93914" lon="5.54273">
        <ele>1158</ele>
        <time>2013-09-15T09:58:50.000Z</time>
      </trkpt>
      <trkpt lat="44.93918" lon="5.54267">
        <ele>1159</ele>
        <time>2013-09-15T09:58:55.000Z</time>
      </trkpt>
      <trkpt lat="44.93922" lon="5.54262">
        <ele>1160</ele>
        <time>2013-09-15T09:58:59.000Z</time>
      </trkpt>
      <trkpt lat="44.93926" lon="5.54256">
        <ele>1161</ele>
        <time>2013-09-15T09:59:04.000Z</time>
      </trkpt>
      <trkpt lat="44.93926" lon="5.54256">
        <ele>1161</ele>
        <time>2013-09-15T09:59:04.000Z</time>
      </trkpt>
      <trkpt lat="44.93926" lon="5.54256">
        <ele>1161</ele>
        <time>2013-09-15T09:59:05.000Z</time>
      </trkpt>
      <trkpt lat="44.9393" lon="5.5425">
        <ele>1162</ele>
        <time>2013-09-15T09:59:09.000Z</time>
      </trkpt>
      <trkpt lat="44.93932" lon="5.54243">
        <ele>1162</ele>
        <time>2013-09-15T09:59:12.000Z</time>
      </trkpt>
      <trkpt lat="44.93934" lon="5.54237">
        <ele>1163</ele>
        <time>2013-09-15T09:59:16.000Z</time>
      </trkpt>
      <trkpt lat="44.93937" lon="5.5423">
        <ele>1164</ele>
        <time>2013-09-15T09:59:20.000Z</time>
      </trkpt>
      <trkpt lat="44.93938" lon="5.54224">
        <ele>1164</ele>
        <time>2013-09-15T09:59:23.000Z</time>
      </trkpt>
      <trkpt lat="44.93939" lon="5.54215">
        <ele>1164</ele>
        <time>2013-09-15T09:59:26.000Z</time>
      </trkpt>
      <trkpt lat="44.9394" lon="5.54209">
        <ele>1165</ele>
        <time>2013-09-15T09:59:29.000Z</time>
      </trkpt>
      <trkpt lat="44.93941" lon="5.54202">
        <ele>1165</ele>
        <time>2013-09-15T09:59:32.000Z</time>
      </trkpt>
      <trkpt lat="44.93941" lon="5.54196">
        <ele>1165</ele>
        <time>2013-09-15T09:59:35.000Z</time>
      </trkpt>
      <trkpt lat="44.93942" lon="5.54189">
        <ele>1166</ele>
        <time>2013-09-15T09:59:38.000Z</time>
      </trkpt>
      <trkpt lat="44.93945" lon="5.54183">
        <ele>1166</ele>
        <time>2013-09-15T09:59:41.000Z</time>
      </trkpt>
      <trkpt lat="44.93947" lon="5.54176">
        <ele>1166</ele>
        <time>2013-09-15T09:59:44.000Z</time>
      </trkpt>
      <trkpt lat="44.93949" lon="5.5417">
        <ele>1166</ele>
        <time>2013-09-15T09:59:48.000Z</time>
      </trkpt>
      <trkpt lat="44.93952" lon="5.54164">
        <ele>1166</ele>
        <time>2013-09-15T09:59:52.000Z</time>
      </trkpt>
      <trkpt lat="44.93955" lon="5.54157">
        <ele>1166</ele>
        <time>2013-09-15T09:59:56.000Z</time>
      </trkpt>
      <trkpt lat="44.93958" lon="5.54151">
        <ele>1165</ele>
        <time>2013-09-15T10:00:00.000Z</time>
      </trkpt>
      <trkpt lat="44.93963" lon="5.54146">
        <ele>1165</ele>
        <time>2013-09-15T10:00:04.000Z</time>
      </trkpt>
      <trkpt lat="44.93967" lon="5.54142">
        <ele>1164</ele>
        <time>2013-09-15T10:00:09.000Z</time>
      </trkpt>
      <trkpt lat="44.9397" lon="5.54136">
        <ele>1164</ele>
        <time>2013-09-15T10:00:13.000Z</time>
      </trkpt>
      <trkpt lat="44.93975" lon="5.54132">
        <ele>1163</ele>
        <time>2013-09-15T10:00:17.000Z</time>
      </trkpt>
      <trkpt lat="44.93979" lon="5.54129">
        <ele>1162</ele>
        <time>2013-09-15T10:00:21.000Z</time>
      </trkpt>
      <trkpt lat="44.93984" lon="5.54129">
        <ele>1161</ele>
        <time>2013-09-15T10:00:26.000Z</time>
      </trkpt>
      <trkpt lat="44.9398" lon="5.54132">
        <ele>1163</ele>
        <time>2013-09-15T10:00:35.000Z</time>
      </trkpt>
      <trkpt lat="44.93974" lon="5.54132">
        <ele>1163</ele>
        <time>2013-09-15T10:00:39.000Z</time>
      </trkpt>
      <trkpt lat="44.93968" lon="5.54129">
        <ele>1164</ele>
        <time>2013-09-15T10:00:42.000Z</time>
      </trkpt>
      <trkpt lat="44.93962" lon="5.54129">
        <ele>1165</ele>
        <time>2013-09-15T10:00:45.000Z</time>
      </trkpt>
      <trkpt lat="44.93956" lon="5.54127">
        <ele>1165</ele>
        <time>2013-09-15T10:00:47.000Z</time>
      </trkpt>
      <trkpt lat="44.93952" lon="5.54125">
        <ele>1165</ele>
        <time>2013-09-15T10:00:49.000Z</time>
      </trkpt>
      <trkpt lat="44.93946" lon="5.54125">
        <ele>1166</ele>
        <time>2013-09-15T10:00:52.000Z</time>
      </trkpt>
      <trkpt lat="44.93941" lon="5.54123">
        <ele>1166</ele>
        <time>2013-09-15T10:00:54.000Z</time>
      </trkpt>
      <trkpt lat="44.93937" lon="5.54121">
        <ele>1167</ele>
        <time>2013-09-15T10:00:56.000Z</time>
      </trkpt>
      <trkpt lat="44.93933" lon="5.54119">
        <ele>1167</ele>
        <time>2013-09-15T10:00:58.000Z</time>
      </trkpt>
      <trkpt lat="44.93927" lon="5.54116">
        <ele>1167</ele>
        <time>2013-09-15T10:01:01.000Z</time>
      </trkpt>
      <trkpt lat="44.93922" lon="5.54112">
        <ele>1168</ele>
        <time>2013-09-15T10:01:04.000Z</time>
      </trkpt>
      <trkpt lat="44.93918" lon="5.5411">
        <ele>1168</ele>
        <time>2013-09-15T10:01:07.000Z</time>
      </trkpt>
      <trkpt lat="44.93914" lon="5.54106">
        <ele>1169</ele>
        <time>2013-09-15T10:01:10.000Z</time>
      </trkpt>
      <trkpt lat="44.93909" lon="5.54101">
        <ele>1169</ele>
        <time>2013-09-15T10:01:13.000Z</time>
      </trkpt>
      <trkpt lat="44.93905" lon="5.54095">
        <ele>1170</ele>
        <time>2013-09-15T10:01:17.000Z</time>
      </trkpt>
      <trkpt lat="44.93901" lon="5.54091">
        <ele>1171</ele>
        <time>2013-09-15T10:01:21.000Z</time>
      </trkpt>
      <trkpt lat="44.93897" lon="5.54084">
        <ele>1171</ele>
        <time>2013-09-15T10:01:24.000Z</time>
      </trkpt>
      <trkpt lat="44.93894" lon="5.54078">
        <ele>1171</ele>
        <time>2013-09-15T10:01:28.000Z</time>
      </trkpt>
      <trkpt lat="44.9389" lon="5.54071">
        <ele>1172</ele>
        <time>2013-09-15T10:01:32.000Z</time>
      </trkpt>
      <trkpt lat="44.93887" lon="5.54065">
        <ele>1172</ele>
        <time>2013-09-15T10:01:36.000Z</time>
      </trkpt>
      <trkpt lat="44.93887" lon="5.54065">
        <ele>1172</ele>
        <time>2013-09-15T10:01:36.000Z</time>
      </trkpt>
      <trkpt lat="44.93887" lon="5.54065">
        <ele>1172</ele>
        <time>2013-09-15T10:01:37.000Z</time>
      </trkpt>
      <trkpt lat="44.93883" lon="5.54058">
        <ele>1172</ele>
        <time>2013-09-15T10:01:43.000Z</time>
      </trkpt>
      <trkpt lat="44.9388" lon="5.54052">
        <ele>1173</ele>
        <time>2013-09-15T10:01:47.000Z</time>
      </trkpt>
      <trkpt lat="44.93878" lon="5.54046">
        <ele>1173</ele>
        <time>2013-09-15T10:01:51.000Z</time>
      </trkpt>
      <trkpt lat="44.93875" lon="5.54039">
        <ele>1173</ele>
        <time>2013-09-15T10:01:54.000Z</time>
      </trkpt>
      <trkpt lat="44.93874" lon="5.54033">
        <ele>1174</ele>
        <time>2013-09-15T10:01:57.000Z</time>
      </trkpt>
      <trkpt lat="44.93875" lon="5.54026">
        <ele>1174</ele>
        <time>2013-09-15T10:02:01.000Z</time>
      </trkpt>
      <trkpt lat="44.93875" lon="5.54026">
        <ele>1174</ele>
        <time>2013-09-15T10:02:01.000Z</time>
      </trkpt>
      <trkpt lat="44.93875" lon="5.54026">
        <ele>1174</ele>
        <time>2013-09-15T10:02:02.000Z</time>
      </trkpt>
      <trkpt lat="44.9388" lon="5.5402">
        <ele>1175</ele>
        <time>2013-09-15T10:02:06.000Z</time>
      </trkpt>
      <trkpt lat="44.93884" lon="5.54018">
        <ele>1175</ele>
        <time>2013-09-15T10:02:08.000Z</time>
      </trkpt>
      <trkpt lat="44.93891" lon="5.54016">
        <ele>1176</ele>
        <time>2013-09-15T10:02:10.000Z</time>
      </trkpt>
      <trkpt lat="44.93895" lon="5.54011">
        <ele>1176</ele>
        <time>2013-09-15T10:02:12.000Z</time>
      </trkpt>
      <trkpt lat="44.93898" lon="5.54005">
        <ele>1177</ele>
        <time>2013-09-15T10:02:14.000Z</time>
      </trkpt>
      <trkpt lat="44.93903" lon="5.53998">
        <ele>1177</ele>
        <time>2013-09-15T10:02:17.000Z</time>
      </trkpt>
      <trkpt lat="44.93904" lon="5.53992">
        <ele>1177</ele>
        <time>2013-09-15T10:02:19.000Z</time>
      </trkpt>
      <trkpt lat="44.93906" lon="5.53986">
        <ele>1178</ele>
        <time>2013-09-15T10:02:22.000Z</time>
      </trkpt>
      <trkpt lat="44.93907" lon="5.53979">
        <ele>1178</ele>
        <time>2013-09-15T10:02:24.000Z</time>
      </trkpt>
      <trkpt lat="44.93908" lon="5.53973">
        <ele>1178</ele>
        <time>2013-09-15T10:02:26.000Z</time>
      </trkpt>
      <trkpt lat="44.93908" lon="5.53966">
        <ele>1179</ele>
        <time>2013-09-15T10:02:29.000Z</time>
      </trkpt>
      <trkpt lat="44.93909" lon="5.5396">
        <ele>1179</ele>
        <time>2013-09-15T10:02:31.000Z</time>
      </trkpt>
      <trkpt lat="44.93909" lon="5.53953">
        <ele>1179</ele>
        <time>2013-09-15T10:02:34.000Z</time>
      </trkpt>
      <trkpt lat="44.9391" lon="5.53947">
        <ele>1180</ele>
        <time>2013-09-15T10:02:37.000Z</time>
      </trkpt>
      <trkpt lat="44.93911" lon="5.5394">
        <ele>1180</ele>
        <time>2013-09-15T10:02:39.000Z</time>
      </trkpt>
      <trkpt lat="44.93912" lon="5.53934">
        <ele>1181</ele>
        <time>2013-09-15T10:02:42.000Z</time>
      </trkpt>
      <trkpt lat="44.93914" lon="5.53928">
        <ele>1181</ele>
        <time>2013-09-15T10:02:45.000Z</time>
      </trkpt>
      <trkpt lat="44.93917" lon="5.53921">
        <ele>1181</ele>
        <time>2013-09-15T10:02:49.000Z</time>
      </trkpt>
      <trkpt lat="44.93919" lon="5.53915">
        <ele>1181</ele>
        <time>2013-09-15T10:02:52.000Z</time>
      </trkpt>
      <trkpt lat="44.93921" lon="5.53908">
        <ele>1182</ele>
        <time>2013-09-15T10:02:56.000Z</time>
      </trkpt>
      <trkpt lat="44.93917" lon="5.5391">
        <ele>1184</ele>
        <time>2013-09-15T10:03:59.000Z</time>
      </trkpt>
      <trkpt lat="44.93917" lon="5.5391">
        <ele>1184</ele>
        <time>2013-09-15T10:03:59.000Z</time>
      </trkpt>
      <trkpt lat="44.93917" lon="5.5391">
        <ele>1184</ele>
        <time>2013-09-15T10:04:00.000Z</time>
      </trkpt>
      <trkpt lat="44.93912" lon="5.53913">
        <ele>1184</ele>
        <time>2013-09-15T10:04:06.000Z</time>
      </trkpt>
      <trkpt lat="44.93912" lon="5.53913">
        <ele>1184</ele>
        <time>2013-09-15T10:04:06.000Z</time>
      </trkpt>
      <trkpt lat="44.93912" lon="5.53913">
        <ele>1184</ele>
        <time>2013-09-15T10:04:07.000Z</time>
      </trkpt>
      <trkpt lat="44.93908" lon="5.53908">
        <ele>1185</ele>
        <time>2013-09-15T10:04:22.000Z</time>
      </trkpt>
      <trkpt lat="44.93908" lon="5.53908">
        <ele>1185</ele>
        <time>2013-09-15T10:04:22.000Z</time>
      </trkpt>
      <trkpt lat="44.93908" lon="5.53908">
        <ele>1185</ele>
        <time>2013-09-15T10:04:30.000Z</time>
      </trkpt>
      <trkpt lat="44.93911" lon="5.53913">
        <ele>1185</ele>
        <time>2013-09-15T10:04:44.000Z</time>
      </trkpt>
      <trkpt lat="44.93911" lon="5.53913">
        <ele>1185</ele>
        <time>2013-09-15T10:04:44.000Z</time>
      </trkpt>
      <trkpt lat="44.93911" lon="5.53913">
        <ele>1185</ele>
        <time>2013-09-15T10:04:45.000Z</time>
      </trkpt>
      <trkpt lat="44.93916" lon="5.53915">
        <ele>1187</ele>
        <time>2013-09-15T10:05:15.000Z</time>
      </trkpt>
      <trkpt lat="44.93916" lon="5.53915">
        <ele>1187</ele>
        <time>2013-09-15T10:05:15.000Z</time>
      </trkpt>
      <trkpt lat="44.93916" lon="5.53915">
        <ele>1187</ele>
        <time>2013-09-15T10:05:19.000Z</time>
      </trkpt>
      <trkpt lat="44.9392" lon="5.53913">
        <ele>1188</ele>
        <time>2013-09-15T10:05:30.000Z</time>
      </trkpt>
      <trkpt lat="44.9392" lon="5.53913">
        <ele>1188</ele>
        <time>2013-09-15T10:05:30.000Z</time>
      </trkpt>
      <trkpt lat="44.9392" lon="5.53913">
        <ele>1188</ele>
        <time>2013-09-15T10:05:31.000Z</time>
      </trkpt>
      <trkpt lat="44.93923" lon="5.53906">
        <ele>1189</ele>
        <time>2013-09-15T10:06:05.000Z</time>
      </trkpt>
      <trkpt lat="44.93923" lon="5.53906">
        <ele>1189</ele>
        <time>2013-09-15T10:06:05.000Z</time>
      </trkpt>
      <trkpt lat="44.93923" lon="5.53906">
        <ele>1189</ele>
        <time>2013-09-15T10:06:18.000Z</time>
      </trkpt>
      <trkpt lat="44.93923" lon="5.539">
        <ele>1189</ele>
        <time>2013-09-15T10:06:23.000Z</time>
      </trkpt>
      <trkpt lat="44.93923" lon="5.539">
        <ele>1189</ele>
        <time>2013-09-15T10:06:23.000Z</time>
      </trkpt>
      <trkpt lat="44.93923" lon="5.539">
        <ele>1189</ele>
        <time>2013-09-15T10:06:24.000Z</time>
      </trkpt>
      <trkpt lat="44.93918" lon="5.539">
        <ele>1188</ele>
        <time>2013-09-15T10:06:49.000Z</time>
      </trkpt>
      <trkpt lat="44.93918" lon="5.539">
        <ele>1188</ele>
        <time>2013-09-15T10:06:49.000Z</time>
      </trkpt>
      <trkpt lat="44.93918" lon="5.539">
        <ele>1188</ele>
        <time>2013-09-15T10:06:50.000Z</time>
      </trkpt>
      <trkpt lat="44.93916" lon="5.53893">
        <ele>1189</ele>
        <time>2013-09-15T10:07:08.000Z</time>
      </trkpt>
      <trkpt lat="44.93916" lon="5.53893">
        <ele>1189</ele>
        <time>2013-09-15T10:07:08.000Z</time>
      </trkpt>
      <trkpt lat="44.93916" lon="5.53893">
        <ele>1189</ele>
        <time>2013-09-15T10:07:15.000Z</time>
      </trkpt>
      <trkpt lat="44.93916" lon="5.53887">
        <ele>1189</ele>
        <time>2013-09-15T10:07:24.000Z</time>
      </trkpt>
      <trkpt lat="44.93916" lon="5.53887">
        <ele>1189</ele>
        <time>2013-09-15T10:07:24.000Z</time>
      </trkpt>
      <trkpt lat="44.93916" lon="5.53887">
        <ele>1190</ele>
        <time>2013-09-15T10:07:49.000Z</time>
      </trkpt>
      <trkpt lat="44.93919" lon="5.53891">
        <ele>1190</ele>
        <time>2013-09-15T10:07:53.000Z</time>
      </trkpt>
      <trkpt lat="44.93922" lon="5.53895">
        <ele>1189</ele>
        <time>2013-09-15T10:07:59.000Z</time>
      </trkpt>
      <trkpt lat="44.93922" lon="5.53895">
        <ele>1189</ele>
        <time>2013-09-15T10:07:59.000Z</time>
      </trkpt>
      <trkpt lat="44.93922" lon="5.53895">
        <ele>1189</ele>
        <time>2013-09-15T10:08:01.000Z</time>
      </trkpt>
      <trkpt lat="44.93925" lon="5.53889">
        <ele>1188</ele>
        <time>2013-09-15T10:08:59.000Z</time>
      </trkpt>
      <trkpt lat="44.93925" lon="5.53889">
        <ele>1188</ele>
        <time>2013-09-15T10:08:59.000Z</time>
      </trkpt>
      <trkpt lat="44.93925" lon="5.53889">
        <ele>1188</ele>
        <time>2013-09-15T10:09:02.000Z</time>
      </trkpt>
      <trkpt lat="44.93925" lon="5.53882">
        <ele>1188</ele>
        <time>2013-09-15T10:09:08.000Z</time>
      </trkpt>
      <trkpt lat="44.93925" lon="5.53882">
        <ele>1188</ele>
        <time>2013-09-15T10:09:08.000Z</time>
      </trkpt>
      <trkpt lat="44.93925" lon="5.53882">
        <ele>1188</ele>
        <time>2013-09-15T10:09:10.000Z</time>
      </trkpt>
      <trkpt lat="44.93925" lon="5.53876">
        <ele>1188</ele>
        <time>2013-09-15T10:09:16.000Z</time>
      </trkpt>
      <trkpt lat="44.93926" lon="5.5387">
        <ele>1187</ele>
        <time>2013-09-15T10:09:21.000Z</time>
      </trkpt>
      <trkpt lat="44.93926" lon="5.5387">
        <ele>1187</ele>
        <time>2013-09-15T10:09:21.000Z</time>
      </trkpt>
      <trkpt lat="44.93926" lon="5.5387">
        <ele>1187</ele>
        <time>2013-09-15T10:09:22.000Z</time>
      </trkpt>
      <trkpt lat="44.93926" lon="5.53863">
        <ele>1187</ele>
        <time>2013-09-15T10:09:26.000Z</time>
      </trkpt>
      <trkpt lat="44.93927" lon="5.53857">
        <ele>1186</ele>
        <time>2013-09-15T10:09:30.000Z</time>
      </trkpt>
      <trkpt lat="44.93927" lon="5.5385">
        <ele>1185</ele>
        <time>2013-09-15T10:09:34.000Z</time>
      </trkpt>
      <trkpt lat="44.93928" lon="5.53844">
        <ele>1184</ele>
        <time>2013-09-15T10:09:39.000Z</time>
      </trkpt>
      <trkpt lat="44.93928" lon="5.53838">
        <ele>1183</ele>
        <time>2013-09-15T10:09:43.000Z</time>
      </trkpt>
      <trkpt lat="44.93928" lon="5.53831">
        <ele>1182</ele>
        <time>2013-09-15T10:09:46.000Z</time>
      </trkpt>
      <trkpt lat="44.93928" lon="5.53825">
        <ele>1182</ele>
        <time>2013-09-15T10:09:49.000Z</time>
      </trkpt>
      <trkpt lat="44.93928" lon="5.53818">
        <ele>1181</ele>
        <time>2013-09-15T10:09:52.000Z</time>
      </trkpt>
      <trkpt lat="44.93928" lon="5.53812">
        <ele>1181</ele>
        <time>2013-09-15T10:09:55.000Z</time>
      </trkpt>
      <trkpt lat="44.93928" lon="5.53805">
        <ele>1181</ele>
        <time>2013-09-15T10:09:57.000Z</time>
      </trkpt>
      <trkpt lat="44.93928" lon="5.53799">
        <ele>1181</ele>
        <time>2013-09-15T10:09:59.000Z</time>
      </trkpt>
      <trkpt lat="44.9393" lon="5.5379">
        <ele>1180</ele>
        <time>2013-09-15T10:10:02.000Z</time>
      </trkpt>
      <trkpt lat="44.93932" lon="5.53784">
        <ele>1180</ele>
        <time>2013-09-15T10:10:05.000Z</time>
      </trkpt>
      <trkpt lat="44.93932" lon="5.53777">
        <ele>1180</ele>
        <time>2013-09-15T10:10:07.000Z</time>
      </trkpt>
      <trkpt lat="44.93934" lon="5.53771">
        <ele>1180</ele>
        <time>2013-09-15T10:10:11.000Z</time>
      </trkpt>
      <trkpt lat="44.93937" lon="5.53764">
        <ele>1180</ele>
        <time>2013-09-15T10:10:15.000Z</time>
      </trkpt>
      <trkpt lat="44.93941" lon="5.5376">
        <ele>1180</ele>
        <time>2013-09-15T10:10:19.000Z</time>
      </trkpt>
      <trkpt lat="44.93947" lon="5.53756">
        <ele>1180</ele>
        <time>2013-09-15T10:10:22.000Z</time>
      </trkpt>
      <trkpt lat="44.93952" lon="5.53752">
        <ele>1181</ele>
        <time>2013-09-15T10:10:24.000Z</time>
      </trkpt>
      <trkpt lat="44.93958" lon="5.5375">
        <ele>1181</ele>
        <time>2013-09-15T10:10:26.000Z</time>
      </trkpt>
      <trkpt lat="44.93962" lon="5.53747">
        <ele>1181</ele>
        <time>2013-09-15T10:10:28.000Z</time>
      </trkpt>
      <trkpt lat="44.93967" lon="5.53745">
        <ele>1182</ele>
        <time>2013-09-15T10:10:30.000Z</time>
      </trkpt>
      <trkpt lat="44.93972" lon="5.53745">
        <ele>1182</ele>
        <time>2013-09-15T10:10:32.000Z</time>
      </trkpt>
      <trkpt lat="44.9398" lon="5.53745">
        <ele>1183</ele>
        <time>2013-09-15T10:10:35.000Z</time>
      </trkpt>
      <trkpt lat="44.93984" lon="5.53743">
        <ele>1183</ele>
        <time>2013-09-15T10:10:37.000Z</time>
      </trkpt>
      <trkpt lat="44.93991" lon="5.53743">
        <ele>1184</ele>
        <time>2013-09-15T10:10:40.000Z</time>
      </trkpt>
      <trkpt lat="44.93995" lon="5.53741">
        <ele>1185</ele>
        <time>2013-09-15T10:10:42.000Z</time>
      </trkpt>
      <trkpt lat="44.93999" lon="5.53739">
        <ele>1185</ele>
        <time>2013-09-15T10:10:44.000Z</time>
      </trkpt>
      <trkpt lat="44.94006" lon="5.53737">
        <ele>1186</ele>
        <time>2013-09-15T10:10:47.000Z</time>
      </trkpt>
      <trkpt lat="44.94011" lon="5.53734">
        <ele>1187</ele>
        <time>2013-09-15T10:10:50.000Z</time>
      </trkpt>
      <trkpt lat="44.94015" lon="5.53732">
        <ele>1187</ele>
        <time>2013-09-15T10:10:52.000Z</time>
      </trkpt>
      <trkpt lat="44.9402" lon="5.5373">
        <ele>1188</ele>
        <time>2013-09-15T10:10:54.000Z</time>
      </trkpt>
      <trkpt lat="44.94024" lon="5.53728">
        <ele>1189</ele>
        <time>2013-09-15T10:10:56.000Z</time>
      </trkpt>
      <trkpt lat="44.94028" lon="5.53726">
        <ele>1190</ele>
        <time>2013-09-15T10:10:58.000Z</time>
      </trkpt>
      <trkpt lat="44.94034" lon="5.53726">
        <ele>1191</ele>
        <time>2013-09-15T10:11:07.000Z</time>
      </trkpt>
      <trkpt lat="44.94038" lon="5.53724">
        <ele>1193</ele>
        <time>2013-09-15T10:11:11.000Z</time>
      </trkpt>
      <trkpt lat="44.94038" lon="5.53724">
        <ele>1193</ele>
        <time>2013-09-15T10:11:11.000Z</time>
      </trkpt>
      <trkpt lat="44.94038" lon="5.53724">
        <ele>1193</ele>
        <time>2013-09-15T10:11:12.000Z</time>
      </trkpt>
      <trkpt lat="44.94042" lon="5.53722">
        <ele>1195</ele>
        <time>2013-09-15T10:11:16.000Z</time>
      </trkpt>
      <trkpt lat="44.94046" lon="5.5372">
        <ele>1196</ele>
        <time>2013-09-15T10:11:21.000Z</time>
      </trkpt>
      <trkpt lat="44.94051" lon="5.53715">
        <ele>1198</ele>
        <time>2013-09-15T10:11:25.000Z</time>
      </trkpt>
      <trkpt lat="44.94051" lon="5.53715">
        <ele>1198</ele>
        <time>2013-09-15T10:11:25.000Z</time>
      </trkpt>
      <trkpt lat="44.94051" lon="5.53715">
        <ele>1198</ele>
        <time>2013-09-15T10:11:26.000Z</time>
      </trkpt>
      <trkpt lat="44.94055" lon="5.53711">
        <ele>1200</ele>
        <time>2013-09-15T10:11:32.000Z</time>
      </trkpt>
      <trkpt lat="44.94055" lon="5.53711">
        <ele>1200</ele>
        <time>2013-09-15T10:11:32.000Z</time>
      </trkpt>
      <trkpt lat="44.94055" lon="5.53711">
        <ele>1200</ele>
        <time>2013-09-15T10:11:33.000Z</time>
      </trkpt>
      <trkpt lat="44.94059" lon="5.53707">
        <ele>1202</ele>
        <time>2013-09-15T10:11:40.000Z</time>
      </trkpt>
      <trkpt lat="44.94064" lon="5.53702">
        <ele>1203</ele>
        <time>2013-09-15T10:11:46.000Z</time>
      </trkpt>
      <trkpt lat="44.94068" lon="5.53698">
        <ele>1205</ele>
        <time>2013-09-15T10:11:51.000Z</time>
      </trkpt>
      <trkpt lat="44.94071" lon="5.53692">
        <ele>1206</ele>
        <time>2013-09-15T10:11:57.000Z</time>
      </trkpt>
      <trkpt lat="44.94076" lon="5.53689">
        <ele>1207</ele>
        <time>2013-09-15T10:12:03.000Z</time>
      </trkpt>
      <trkpt lat="44.94079" lon="5.53683">
        <ele>1208</ele>
        <time>2013-09-15T10:12:09.000Z</time>
      </trkpt>
      <trkpt lat="44.94081" lon="5.53677">
        <ele>1209</ele>
        <time>2013-09-15T10:12:17.000Z</time>
      </trkpt>
      <trkpt lat="44.94085" lon="5.53674">
        <ele>1210</ele>
        <time>2013-09-15T10:12:26.000Z</time>
      </trkpt>
      <trkpt lat="44.94085" lon="5.53674">
        <ele>1210</ele>
        <time>2013-09-15T10:12:26.000Z</time>
      </trkpt>
      <trkpt lat="44.94085" lon="5.53674">
        <ele>1210</ele>
        <time>2013-09-15T10:12:28.000Z</time>
      </trkpt>
      <trkpt lat="44.9409" lon="5.53674">
        <ele>1212</ele>
        <time>2013-09-15T10:12:52.000Z</time>
      </trkpt>
      <trkpt lat="44.9409" lon="5.53674">
        <ele>1212</ele>
        <time>2013-09-15T10:12:52.000Z</time>
      </trkpt>
      <trkpt lat="44.9409" lon="5.53674">
        <ele>1212</ele>
        <time>2013-09-15T10:12:54.000Z</time>
      </trkpt>
      <trkpt lat="44.94095" lon="5.53672">
        <ele>1213</ele>
        <time>2013-09-15T10:13:01.000Z</time>
      </trkpt>
      <trkpt lat="44.941" lon="5.53672">
        <ele>1214</ele>
        <time>2013-09-15T10:13:07.000Z</time>
      </trkpt>
      <trkpt lat="44.94104" lon="5.53674">
        <ele>1214</ele>
        <time>2013-09-15T10:13:10.000Z</time>
      </trkpt>
      <trkpt lat="44.94109" lon="5.53677">
        <ele>1215</ele>
        <time>2013-09-15T10:13:18.000Z</time>
      </trkpt>
      <trkpt lat="44.94114" lon="5.53677">
        <ele>1216</ele>
        <time>2013-09-15T10:13:23.000Z</time>
      </trkpt>
      <trkpt lat="44.94118" lon="5.53679">
        <ele>1216</ele>
        <time>2013-09-15T10:13:27.000Z</time>
      </trkpt>
      <trkpt lat="44.94125" lon="5.53681">
        <ele>1216</ele>
        <time>2013-09-15T10:13:31.000Z</time>
      </trkpt>
      <trkpt lat="44.94131" lon="5.53683">
        <ele>1217</ele>
        <time>2013-09-15T10:13:33.000Z</time>
      </trkpt>
      <trkpt lat="44.94138" lon="5.53687">
        <ele>1217</ele>
        <time>2013-09-15T10:13:35.000Z</time>
      </trkpt>
      <trkpt lat="44.94143" lon="5.53694">
        <ele>1217</ele>
        <time>2013-09-15T10:13:37.000Z</time>
      </trkpt>
      <trkpt lat="44.94148" lon="5.537">
        <ele>1217</ele>
        <time>2013-09-15T10:13:40.000Z</time>
      </trkpt>
      <trkpt lat="44.94151" lon="5.53707">
        <ele>1217</ele>
        <time>2013-09-15T10:13:42.000Z</time>
      </trkpt>
      <trkpt lat="44.94154" lon="5.53713">
        <ele>1217</ele>
        <time>2013-09-15T10:13:45.000Z</time>
      </trkpt>
      <trkpt lat="44.94157" lon="5.53717">
        <ele>1218</ele>
        <time>2013-09-15T10:13:48.000Z</time>
      </trkpt>
      <trkpt lat="44.9416" lon="5.53722">
        <ele>1218</ele>
        <time>2013-09-15T10:13:51.000Z</time>
      </trkpt>
      <trkpt lat="44.94164" lon="5.53726">
        <ele>1218</ele>
        <time>2013-09-15T10:13:53.000Z</time>
      </trkpt>
      <trkpt lat="44.94169" lon="5.53728">
        <ele>1218</ele>
        <time>2013-09-15T10:13:55.000Z</time>
      </trkpt>
      <trkpt lat="44.94175" lon="5.53728">
        <ele>1218</ele>
        <time>2013-09-15T10:13:56.000Z</time>
      </trkpt>
      <trkpt lat="44.94181" lon="5.53728">
        <ele>1218</ele>
        <time>2013-09-15T10:13:57.000Z</time>
      </trkpt>
      <trkpt lat="44.94187" lon="5.53726">
        <ele>1218</ele>
        <time>2013-09-15T10:13:58.000Z</time>
      </trkpt>
      <trkpt lat="44.94192" lon="5.53726">
        <ele>1218</ele>
        <time>2013-09-15T10:13:59.000Z</time>
      </trkpt>
      <trkpt lat="44.94198" lon="5.53724">
        <ele>1217</ele>
        <time>2013-09-15T10:14:00.000Z</time>
      </trkpt>
      <trkpt lat="44.94204" lon="5.53722">
        <ele>1217</ele>
        <time>2013-09-15T10:14:01.000Z</time>
      </trkpt>
      <trkpt lat="44.9421" lon="5.5372">
        <ele>1217</ele>
        <time>2013-09-15T10:14:02.000Z</time>
      </trkpt>
      <trkpt lat="44.94216" lon="5.53717">
        <ele>1216</ele>
        <time>2013-09-15T10:14:03.000Z</time>
      </trkpt>
      <trkpt lat="44.94221" lon="5.53715">
        <ele>1216</ele>
        <time>2013-09-15T10:14:04.000Z</time>
      </trkpt>
      <trkpt lat="44.94227" lon="5.53711">
        <ele>1216</ele>
        <time>2013-09-15T10:14:05.000Z</time>
      </trkpt>
      <trkpt lat="44.94233" lon="5.53711">
        <ele>1214</ele>
        <time>2013-09-15T10:14:07.000Z</time>
      </trkpt>
      <trkpt lat="44.94238" lon="5.5372">
        <ele>1213</ele>
        <time>2013-09-15T10:14:10.000Z</time>
      </trkpt>
      <trkpt lat="44.9424" lon="5.53728">
        <ele>1213</ele>
        <time>2013-09-15T10:14:12.000Z</time>
      </trkpt>
      <trkpt lat="44.94241" lon="5.53737">
        <ele>1212</ele>
        <time>2013-09-15T10:14:14.000Z</time>
      </trkpt>
      <trkpt lat="44.94243" lon="5.53745">
        <ele>1211</ele>
        <time>2013-09-15T10:14:16.000Z</time>
      </trkpt>
      <trkpt lat="44.94244" lon="5.53752">
        <ele>1211</ele>
        <time>2013-09-15T10:14:17.000Z</time>
      </trkpt>
      <trkpt lat="44.94245" lon="5.53762">
        <ele>1210</ele>
        <time>2013-09-15T10:14:19.000Z</time>
      </trkpt>
      <trkpt lat="44.94246" lon="5.53769">
        <ele>1208</ele>
        <time>2013-09-15T10:14:20.000Z</time>
      </trkpt>
      <trkpt lat="44.94248" lon="5.5378">
        <ele>1203</ele>
        <time>2013-09-15T10:14:22.000Z</time>
      </trkpt>
      <trkpt lat="44.94248" lon="5.53788">
        <ele>1203</ele>
        <time>2013-09-15T10:14:24.000Z</time>
      </trkpt>
      <trkpt lat="44.94248" lon="5.53795">
        <ele>1203</ele>
        <time>2013-09-15T10:14:26.000Z</time>
      </trkpt>
      <trkpt lat="44.94248" lon="5.53795">
        <ele>1203</ele>
        <time>2013-09-15T10:14:26.000Z</time>
      </trkpt>
      <trkpt lat="44.94248" lon="5.53795">
        <ele>1203</ele>
        <time>2013-09-15T10:14:32.000Z</time>
      </trkpt>
      <trkpt lat="44.94248" lon="5.53807">
        <ele>1202</ele>
        <time>2013-09-15T10:14:33.000Z</time>
      </trkpt>
      <trkpt lat="44.94248" lon="5.53807">
        <ele>1202</ele>
        <time>2013-09-15T10:14:33.000Z</time>
      </trkpt>
      <trkpt lat="44.94248" lon="5.53807">
        <ele>1202</ele>
        <time>2013-09-15T10:16:47.000Z</time>
      </trkpt>
      <trkpt lat="44.94252" lon="5.53814">
        <ele>1205</ele>
        <time>2013-09-15T10:16:48.000Z</time>
      </trkpt>
      <trkpt lat="44.94252" lon="5.53814">
        <ele>1205</ele>
        <time>2013-09-15T10:16:48.000Z</time>
      </trkpt>
      <trkpt lat="44.94252" lon="5.53814">
        <ele>1205</ele>
        <time>2013-09-15T10:16:49.000Z</time>
      </trkpt>
      <trkpt lat="44.94259" lon="5.53816">
        <ele>1206</ele>
        <time>2013-09-15T10:16:50.000Z</time>
      </trkpt>
      <trkpt lat="44.94259" lon="5.53816">
        <ele>1206</ele>
        <time>2013-09-15T10:16:50.000Z</time>
      </trkpt>
      <trkpt lat="44.94259" lon="5.53816">
        <ele>1206</ele>
        <time>2013-09-15T10:16:51.000Z</time>
      </trkpt>
      <trkpt lat="44.94263" lon="5.53818">
        <ele>1206</ele>
        <time>2013-09-15T10:16:52.000Z</time>
      </trkpt>
      <trkpt lat="44.94271" lon="5.53818">
        <ele>1207</ele>
        <time>2013-09-15T10:16:56.000Z</time>
      </trkpt>
      <trkpt lat="44.94271" lon="5.53818">
        <ele>1207</ele>
        <time>2013-09-15T10:16:56.000Z</time>
      </trkpt>
      <trkpt lat="44.94271" lon="5.53818">
        <ele>1207</ele>
        <time>2013-09-15T10:16:58.000Z</time>
      </trkpt>
      <trkpt lat="44.94275" lon="5.53816">
        <ele>1208</ele>
        <time>2013-09-15T10:16:59.000Z</time>
      </trkpt>
      <trkpt lat="44.94275" lon="5.53816">
        <ele>1208</ele>
        <time>2013-09-15T10:16:59.000Z</time>
      </trkpt>
      <trkpt lat="44.94275" lon="5.53816">
        <ele>1208</ele>
        <time>2013-09-15T10:17:04.000Z</time>
      </trkpt>
      <trkpt lat="44.94283" lon="5.53816">
        <ele>1209</ele>
        <time>2013-09-15T10:17:05.000Z</time>
      </trkpt>
      <trkpt lat="44.94283" lon="5.53816">
        <ele>1209</ele>
        <time>2013-09-15T10:17:05.000Z</time>
      </trkpt>
      <trkpt lat="44.94283" lon="5.53816">
        <ele>1209</ele>
        <time>2013-09-15T10:17:08.000Z</time>
      </trkpt>
      <trkpt lat="44.94288" lon="5.53816">
        <ele>1210</ele>
        <time>2013-09-15T10:17:09.000Z</time>
      </trkpt>
      <trkpt lat="44.94288" lon="5.53816">
        <ele>1210</ele>
        <time>2013-09-15T10:17:09.000Z</time>
      </trkpt>
      <trkpt lat="44.94288" lon="5.53816">
        <ele>1210</ele>
        <time>2013-09-15T10:17:15.000Z</time>
      </trkpt>
      <trkpt lat="44.94299" lon="5.53816">
        <ele>1211</ele>
        <time>2013-09-15T10:17:16.000Z</time>
      </trkpt>
      <trkpt lat="44.94299" lon="5.53816">
        <ele>1211</ele>
        <time>2013-09-15T10:17:16.000Z</time>
      </trkpt>
      <trkpt lat="44.94299" lon="5.53816">
        <ele>1211</ele>
        <time>2013-09-15T10:17:20.000Z</time>
      </trkpt>
      <trkpt lat="44.94305" lon="5.53816">
        <ele>1211</ele>
        <time>2013-09-15T10:17:21.000Z</time>
      </trkpt>
      <trkpt lat="44.9431" lon="5.53814">
        <ele>1212</ele>
        <time>2013-09-15T10:17:26.000Z</time>
      </trkpt>
      <trkpt lat="44.94315" lon="5.53812">
        <ele>1212</ele>
        <time>2013-09-15T10:17:30.000Z</time>
      </trkpt>
      <trkpt lat="44.94319" lon="5.5381">
        <ele>1212</ele>
        <time>2013-09-15T10:17:34.000Z</time>
      </trkpt>
      <trkpt lat="44.94323" lon="5.53807">
        <ele>1212</ele>
        <time>2013-09-15T10:17:38.000Z</time>
      </trkpt>
      <trkpt lat="44.94328" lon="5.53805">
        <ele>1212</ele>
        <time>2013-09-15T10:17:42.000Z</time>
      </trkpt>
      <trkpt lat="44.94332" lon="5.53803">
        <ele>1212</ele>
        <time>2013-09-15T10:17:45.000Z</time>
      </trkpt>
      <trkpt lat="44.94336" lon="5.53801">
        <ele>1212</ele>
        <time>2013-09-15T10:17:49.000Z</time>
      </trkpt>
      <trkpt lat="44.9434" lon="5.53799">
        <ele>1212</ele>
        <time>2013-09-15T10:17:53.000Z</time>
      </trkpt>
      <trkpt lat="44.94345" lon="5.53797">
        <ele>1212</ele>
        <time>2013-09-15T10:17:56.000Z</time>
      </trkpt>
      <trkpt lat="44.9435" lon="5.53797">
        <ele>1213</ele>
        <time>2013-09-15T10:18:00.000Z</time>
      </trkpt>
      <trkpt lat="44.94354" lon="5.53795">
        <ele>1213</ele>
        <time>2013-09-15T10:18:03.000Z</time>
      </trkpt>
      <trkpt lat="44.9436" lon="5.53795">
        <ele>1213</ele>
        <time>2013-09-15T10:18:07.000Z</time>
      </trkpt>
      <trkpt lat="44.94366" lon="5.53795">
        <ele>1213</ele>
        <time>2013-09-15T10:18:11.000Z</time>
      </trkpt>
      <trkpt lat="44.94372" lon="5.53795">
        <ele>1214</ele>
        <time>2013-09-15T10:18:15.000Z</time>
      </trkpt>
      <trkpt lat="44.94378" lon="5.53795">
        <ele>1214</ele>
        <time>2013-09-15T10:18:19.000Z</time>
      </trkpt>
      <trkpt lat="44.94383" lon="5.53795">
        <ele>1214</ele>
        <time>2013-09-15T10:18:22.000Z</time>
      </trkpt>
      <trkpt lat="44.94389" lon="5.53795">
        <ele>1214</ele>
        <time>2013-09-15T10:18:25.000Z</time>
      </trkpt>
      <trkpt lat="44.94394" lon="5.53795">
        <ele>1214</ele>
        <time>2013-09-15T10:18:28.000Z</time>
      </trkpt>
      <trkpt lat="44.944" lon="5.53795">
        <ele>1215</ele>
        <time>2013-09-15T10:18:31.000Z</time>
      </trkpt>
      <trkpt lat="44.94405" lon="5.53795">
        <ele>1215</ele>
        <time>2013-09-15T10:18:34.000Z</time>
      </trkpt>
      <trkpt lat="44.94409" lon="5.53792">
        <ele>1215</ele>
        <time>2013-09-15T10:18:36.000Z</time>
      </trkpt>
      <trkpt lat="44.94416" lon="5.53792">
        <ele>1215</ele>
        <time>2013-09-15T10:18:39.000Z</time>
      </trkpt>
      <trkpt lat="44.94421" lon="5.5379">
        <ele>1215</ele>
        <time>2013-09-15T10:18:42.000Z</time>
      </trkpt>
      <trkpt lat="44.94427" lon="5.53788">
        <ele>1215</ele>
        <time>2013-09-15T10:18:45.000Z</time>
      </trkpt>
      <trkpt lat="44.94433" lon="5.53786">
        <ele>1216</ele>
        <time>2013-09-15T10:18:48.000Z</time>
      </trkpt>
      <trkpt lat="44.94438" lon="5.53784">
        <ele>1216</ele>
        <time>2013-09-15T10:18:51.000Z</time>
      </trkpt>
      <trkpt lat="44.94444" lon="5.5378">
        <ele>1216</ele>
        <time>2013-09-15T10:18:54.000Z</time>
      </trkpt>
      <trkpt lat="44.94449" lon="5.53777">
        <ele>1216</ele>
        <time>2013-09-15T10:18:57.000Z</time>
      </trkpt>
      <trkpt lat="44.94453" lon="5.53773">
        <ele>1216</ele>
        <time>2013-09-15T10:19:00.000Z</time>
      </trkpt>
      <trkpt lat="44.94458" lon="5.53769">
        <ele>1216</ele>
        <time>2013-09-15T10:19:03.000Z</time>
      </trkpt>
      <trkpt lat="44.94463" lon="5.53764">
        <ele>1217</ele>
        <time>2013-09-15T10:19:06.000Z</time>
      </trkpt>
      <trkpt lat="44.94468" lon="5.5376">
        <ele>1217</ele>
        <time>2013-09-15T10:19:09.000Z</time>
      </trkpt>
      <trkpt lat="44.94472" lon="5.53758">
        <ele>1217</ele>
        <time>2013-09-15T10:19:11.000Z</time>
      </trkpt>
      <trkpt lat="44.94479" lon="5.53756">
        <ele>1217</ele>
        <time>2013-09-15T10:19:14.000Z</time>
      </trkpt>
      <trkpt lat="44.94485" lon="5.53756">
        <ele>1218</ele>
        <time>2013-09-15T10:19:17.000Z</time>
      </trkpt>
      <trkpt lat="44.94491" lon="5.53756">
        <ele>1218</ele>
        <time>2013-09-15T10:19:19.000Z</time>
      </trkpt>
      <trkpt lat="44.94496" lon="5.53756">
        <ele>1218</ele>
        <time>2013-09-15T10:19:21.000Z</time>
      </trkpt>
      <trkpt lat="44.94502" lon="5.53756">
        <ele>1219</ele>
        <time>2013-09-15T10:19:24.000Z</time>
      </trkpt>
      <trkpt lat="44.94507" lon="5.53758">
        <ele>1219</ele>
        <time>2013-09-15T10:19:26.000Z</time>
      </trkpt>
      <trkpt lat="44.94511" lon="5.5376">
        <ele>1219</ele>
        <time>2013-09-15T10:19:28.000Z</time>
      </trkpt>
      <trkpt lat="44.94515" lon="5.53762">
        <ele>1220</ele>
        <time>2013-09-15T10:19:30.000Z</time>
      </trkpt>
      <trkpt lat="44.94521" lon="5.53767">
        <ele>1220</ele>
        <time>2013-09-15T10:19:33.000Z</time>
      </trkpt>
      <trkpt lat="44.94524" lon="5.53771">
        <ele>1220</ele>
        <time>2013-09-15T10:19:35.000Z</time>
      </trkpt>
      <trkpt lat="44.94528" lon="5.53773">
        <ele>1221</ele>
        <time>2013-09-15T10:19:37.000Z</time>
      </trkpt>
      <trkpt lat="44.94532" lon="5.53777">
        <ele>1221</ele>
        <time>2013-09-15T10:19:40.000Z</time>
      </trkpt>
      <trkpt lat="44.94537" lon="5.5378">
        <ele>1221</ele>
        <time>2013-09-15T10:19:42.000Z</time>
      </trkpt>
      <trkpt lat="44.94542" lon="5.53786">
        <ele>1222</ele>
        <time>2013-09-15T10:19:45.000Z</time>
      </trkpt>
      <trkpt lat="44.94548" lon="5.53792">
        <ele>1222</ele>
        <time>2013-09-15T10:19:47.000Z</time>
      </trkpt>
      <trkpt lat="44.9455" lon="5.53799">
        <ele>1222</ele>
        <time>2013-09-15T10:19:48.000Z</time>
      </trkpt>
      <trkpt lat="44.94555" lon="5.5381">
        <ele>1224</ele>
        <time>2013-09-15T10:19:50.000Z</time>
      </trkpt>
      <trkpt lat="44.94556" lon="5.53816">
        <ele>1225</ele>
        <time>2013-09-15T10:19:51.000Z</time>
      </trkpt>
      <trkpt lat="44.94558" lon="5.53822">
        <ele>1226</ele>
        <time>2013-09-15T10:19:52.000Z</time>
      </trkpt>
      <trkpt lat="44.94559" lon="5.53831">
        <ele>1227</ele>
        <time>2013-09-15T10:19:53.000Z</time>
      </trkpt>
      <trkpt lat="44.9456" lon="5.53838">
        <ele>1228</ele>
        <time>2013-09-15T10:19:54.000Z</time>
      </trkpt>
      <trkpt lat="44.94562" lon="5.53844">
        <ele>1229</ele>
        <time>2013-09-15T10:19:55.000Z</time>
      </trkpt>
      <trkpt lat="44.94564" lon="5.5385">
        <ele>1229</ele>
        <time>2013-09-15T10:19:56.000Z</time>
      </trkpt>
      <trkpt lat="44.94565" lon="5.53857">
        <ele>1230</ele>
        <time>2013-09-15T10:19:57.000Z</time>
      </trkpt>
      <trkpt lat="44.94567" lon="5.53865">
        <ele>1230</ele>
        <time>2013-09-15T10:19:58.000Z</time>
      </trkpt>
      <trkpt lat="44.94569" lon="5.53872">
        <ele>1230</ele>
        <time>2013-09-15T10:19:59.000Z</time>
      </trkpt>
      <trkpt lat="44.94571" lon="5.5388">
        <ele>1230</ele>
        <time>2013-09-15T10:20:00.000Z</time>
      </trkpt>
      <trkpt lat="44.94573" lon="5.53889">
        <ele>1230</ele>
        <time>2013-09-15T10:20:01.000Z</time>
      </trkpt>
      <trkpt lat="44.94576" lon="5.53895">
        <ele>1230</ele>
        <time>2013-09-15T10:20:02.000Z</time>
      </trkpt>
      <trkpt lat="44.94579" lon="5.53904">
        <ele>1230</ele>
        <time>2013-09-15T10:20:03.000Z</time>
      </trkpt>
      <trkpt lat="44.94581" lon="5.53913">
        <ele>1230</ele>
        <time>2013-09-15T10:20:04.000Z</time>
      </trkpt>
      <trkpt lat="44.94585" lon="5.53919">
        <ele>1229</ele>
        <time>2013-09-15T10:20:05.000Z</time>
      </trkpt>
      <trkpt lat="44.94589" lon="5.53923">
        <ele>1229</ele>
        <time>2013-09-15T10:20:06.000Z</time>
      </trkpt>
      <trkpt lat="44.94595" lon="5.5393">
        <ele>1229</ele>
        <time>2013-09-15T10:20:07.000Z</time>
      </trkpt>
      <trkpt lat="44.946" lon="5.53936">
        <ele>1229</ele>
        <time>2013-09-15T10:20:08.000Z</time>
      </trkpt>
      <trkpt lat="44.94604" lon="5.5394">
        <ele>1229</ele>
        <time>2013-09-15T10:20:09.000Z</time>
      </trkpt>
      <trkpt lat="44.9461" lon="5.53945">
        <ele>1229</ele>
        <time>2013-09-15T10:20:10.000Z</time>
      </trkpt>
      <trkpt lat="44.94614" lon="5.53951">
        <ele>1229</ele>
        <time>2013-09-15T10:20:11.000Z</time>
      </trkpt>
      <trkpt lat="44.94619" lon="5.53962">
        <ele>1228</ele>
        <time>2013-09-15T10:20:13.000Z</time>
      </trkpt>
      <trkpt lat="44.9462" lon="5.5397">
        <ele>1228</ele>
        <time>2013-09-15T10:20:14.000Z</time>
      </trkpt>
      <trkpt lat="44.94622" lon="5.53977">
        <ele>1227</ele>
        <time>2013-09-15T10:20:15.000Z</time>
      </trkpt>
      <trkpt lat="44.94622" lon="5.53986">
        <ele>1227</ele>
        <time>2013-09-15T10:20:16.000Z</time>
      </trkpt>
      <trkpt lat="44.94623" lon="5.53994">
        <ele>1227</ele>
        <time>2013-09-15T10:20:17.000Z</time>
      </trkpt>
      <trkpt lat="44.94625" lon="5.54001">
        <ele>1226</ele>
        <time>2013-09-15T10:20:18.000Z</time>
      </trkpt>
      <trkpt lat="44.94627" lon="5.54009">
        <ele>1226</ele>
        <time>2013-09-15T10:20:19.000Z</time>
      </trkpt>
      <trkpt lat="44.9463" lon="5.54016">
        <ele>1226</ele>
        <time>2013-09-15T10:20:20.000Z</time>
      </trkpt>
      <trkpt lat="44.94633" lon="5.54022">
        <ele>1226</ele>
        <time>2013-09-15T10:20:21.000Z</time>
      </trkpt>
      <trkpt lat="44.94638" lon="5.54028">
        <ele>1226</ele>
        <time>2013-09-15T10:20:22.000Z</time>
      </trkpt>
      <trkpt lat="44.94641" lon="5.54035">
        <ele>1226</ele>
        <time>2013-09-15T10:20:23.000Z</time>
      </trkpt>
      <trkpt lat="44.94644" lon="5.54041">
        <ele>1226</ele>
        <time>2013-09-15T10:20:24.000Z</time>
      </trkpt>
      <trkpt lat="44.94647" lon="5.54048">
        <ele>1226</ele>
        <time>2013-09-15T10:20:25.000Z</time>
      </trkpt>
      <trkpt lat="44.94651" lon="5.54054">
        <ele>1225</ele>
        <time>2013-09-15T10:20:26.000Z</time>
      </trkpt>
      <trkpt lat="44.94654" lon="5.54061">
        <ele>1225</ele>
        <time>2013-09-15T10:20:27.000Z</time>
      </trkpt>
      <trkpt lat="44.94659" lon="5.54065">
        <ele>1225</ele>
        <time>2013-09-15T10:20:28.000Z</time>
      </trkpt>
      <trkpt lat="44.94662" lon="5.54071">
        <ele>1225</ele>
        <time>2013-09-15T10:20:29.000Z</time>
      </trkpt>
      <trkpt lat="44.94667" lon="5.54076">
        <ele>1225</ele>
        <time>2013-09-15T10:20:30.000Z</time>
      </trkpt>
      <trkpt lat="44.94671" lon="5.5408">
        <ele>1224</ele>
        <time>2013-09-15T10:20:31.000Z</time>
      </trkpt>
      <trkpt lat="44.94675" lon="5.54082">
        <ele>1224</ele>
        <time>2013-09-15T10:20:32.000Z</time>
      </trkpt>
      <trkpt lat="44.9468" lon="5.54086">
        <ele>1224</ele>
        <time>2013-09-15T10:20:33.000Z</time>
      </trkpt>
      <trkpt lat="44.94684" lon="5.54088">
        <ele>1224</ele>
        <time>2013-09-15T10:20:34.000Z</time>
      </trkpt>
      <trkpt lat="44.94688" lon="5.54091">
        <ele>1224</ele>
        <time>2013-09-15T10:20:35.000Z</time>
      </trkpt>
      <trkpt lat="44.94692" lon="5.54093">
        <ele>1223</ele>
        <time>2013-09-15T10:20:36.000Z</time>
      </trkpt>
      <trkpt lat="44.94697" lon="5.54095">
        <ele>1223</ele>
        <time>2013-09-15T10:20:37.000Z</time>
      </trkpt>
      <trkpt lat="44.94702" lon="5.54095">
        <ele>1223</ele>
        <time>2013-09-15T10:20:38.000Z</time>
      </trkpt>
      <trkpt lat="44.94706" lon="5.54097">
        <ele>1223</ele>
        <time>2013-09-15T10:20:39.000Z</time>
      </trkpt>
      <trkpt lat="44.94714" lon="5.54099">
        <ele>1223</ele>
        <time>2013-09-15T10:20:41.000Z</time>
      </trkpt>
      <trkpt lat="44.94722" lon="5.54099">
        <ele>1223</ele>
        <time>2013-09-15T10:20:43.000Z</time>
      </trkpt>
      <trkpt lat="44.94727" lon="5.54101">
        <ele>1223</ele>
        <time>2013-09-15T10:20:44.000Z</time>
      </trkpt>
      <trkpt lat="44.94734" lon="5.54101">
        <ele>1222</ele>
        <time>2013-09-15T10:20:46.000Z</time>
      </trkpt>
      <trkpt lat="44.94738" lon="5.54104">
        <ele>1222</ele>
        <time>2013-09-15T10:20:47.000Z</time>
      </trkpt>
      <trkpt lat="44.94745" lon="5.54104">
        <ele>1222</ele>
        <time>2013-09-15T10:20:49.000Z</time>
      </trkpt>
      <trkpt lat="44.94751" lon="5.54106">
        <ele>1222</ele>
        <time>2013-09-15T10:20:51.000Z</time>
      </trkpt>
      <trkpt lat="44.94758" lon="5.54108">
        <ele>1222</ele>
        <time>2013-09-15T10:20:53.000Z</time>
      </trkpt>
      <trkpt lat="44.94763" lon="5.5411">
        <ele>1222</ele>
        <time>2013-09-15T10:20:55.000Z</time>
      </trkpt>
      <trkpt lat="44.94771" lon="5.54112">
        <ele>1222</ele>
        <time>2013-09-15T10:20:58.000Z</time>
      </trkpt>
      <trkpt lat="44.94776" lon="5.54114">
        <ele>1222</ele>
        <time>2013-09-15T10:21:01.000Z</time>
      </trkpt>
      <trkpt lat="44.94782" lon="5.54116">
        <ele>1222</ele>
        <time>2013-09-15T10:21:04.000Z</time>
      </trkpt>
      <trkpt lat="44.94789" lon="5.54116">
        <ele>1222</ele>
        <time>2013-09-15T10:21:07.000Z</time>
      </trkpt>
      <trkpt lat="44.94794" lon="5.54116">
        <ele>1221</ele>
        <time>2013-09-15T10:21:10.000Z</time>
      </trkpt>
      <trkpt lat="44.94801" lon="5.54119">
        <ele>1221</ele>
        <time>2013-09-15T10:21:13.000Z</time>
      </trkpt>
      <trkpt lat="44.94801" lon="5.54119">
        <ele>1221</ele>
        <time>2013-09-15T10:21:13.000Z</time>
      </trkpt>
      <trkpt lat="44.94801" lon="5.54119">
        <ele>1221</ele>
        <time>2013-09-15T10:21:22.000Z</time>
      </trkpt>
      <trkpt lat="44.9481" lon="5.54119">
        <ele>1221</ele>
        <time>2013-09-15T10:21:23.000Z</time>
      </trkpt>
      <trkpt lat="44.9481" lon="5.54119">
        <ele>1221</ele>
        <time>2013-09-15T10:21:23.000Z</time>
      </trkpt>
      <trkpt lat="44.9481" lon="5.54119">
        <ele>1221</ele>
        <time>2013-09-15T10:21:29.000Z</time>
      </trkpt>
      <trkpt lat="44.9482" lon="5.54119">
        <ele>1220</ele>
        <time>2013-09-15T10:21:30.000Z</time>
      </trkpt>
      <trkpt lat="44.9482" lon="5.54119">
        <ele>1220</ele>
        <time>2013-09-15T10:21:30.000Z</time>
      </trkpt>
      <trkpt lat="44.9482" lon="5.54119">
        <ele>1220</ele>
        <time>2013-09-15T10:21:34.000Z</time>
      </trkpt>
      <trkpt lat="44.9483" lon="5.54116">
        <ele>1219</ele>
        <time>2013-09-15T10:21:35.000Z</time>
      </trkpt>
      <trkpt lat="44.9483" lon="5.54116">
        <ele>1219</ele>
        <time>2013-09-15T10:21:35.000Z</time>
      </trkpt>
      <trkpt lat="44.9483" lon="5.54116">
        <ele>1219</ele>
        <time>2013-09-15T10:21:39.000Z</time>
      </trkpt>
      <trkpt lat="44.94839" lon="5.54112">
        <ele>1218</ele>
        <time>2013-09-15T10:21:40.000Z</time>
      </trkpt>
      <trkpt lat="44.94839" lon="5.54112">
        <ele>1218</ele>
        <time>2013-09-15T10:21:40.000Z</time>
      </trkpt>
      <trkpt lat="44.94839" lon="5.54112">
        <ele>1218</ele>
        <time>2013-09-15T10:21:44.000Z</time>
      </trkpt>
      <trkpt lat="44.94847" lon="5.54104">
        <ele>1218</ele>
        <time>2013-09-15T10:21:45.000Z</time>
      </trkpt>
      <trkpt lat="44.94847" lon="5.54104">
        <ele>1218</ele>
        <time>2013-09-15T10:21:45.000Z</time>
      </trkpt>
      <trkpt lat="44.94847" lon="5.54104">
        <ele>1218</ele>
        <time>2013-09-15T10:21:49.000Z</time>
      </trkpt>
      <trkpt lat="44.94854" lon="5.54095">
        <ele>1218</ele>
        <time>2013-09-15T10:21:50.000Z</time>
      </trkpt>
      <trkpt lat="44.94854" lon="5.54095">
        <ele>1218</ele>
        <time>2013-09-15T10:21:50.000Z</time>
      </trkpt>
      <trkpt lat="44.94854" lon="5.54095">
        <ele>1218</ele>
        <time>2013-09-15T10:21:55.000Z</time>
      </trkpt>
      <trkpt lat="44.94862" lon="5.54086">
        <ele>1217</ele>
        <time>2013-09-15T10:21:56.000Z</time>
      </trkpt>
      <trkpt lat="44.94862" lon="5.54086">
        <ele>1217</ele>
        <time>2013-09-15T10:21:56.000Z</time>
      </trkpt>
      <trkpt lat="44.94862" lon="5.54086">
        <ele>1217</ele>
        <time>2013-09-15T10:22:00.000Z</time>
      </trkpt>
      <trkpt lat="44.94869" lon="5.54076">
        <ele>1217</ele>
        <time>2013-09-15T10:22:01.000Z</time>
      </trkpt>
      <trkpt lat="44.94869" lon="5.54076">
        <ele>1217</ele>
        <time>2013-09-15T10:22:01.000Z</time>
      </trkpt>
      <trkpt lat="44.94869" lon="5.54076">
        <ele>1217</ele>
        <time>2013-09-15T10:22:04.000Z</time>
      </trkpt>
      <trkpt lat="44.94876" lon="5.54065">
        <ele>1217</ele>
        <time>2013-09-15T10:22:05.000Z</time>
      </trkpt>
      <trkpt lat="44.94876" lon="5.54065">
        <ele>1217</ele>
        <time>2013-09-15T10:22:05.000Z</time>
      </trkpt>
      <trkpt lat="44.94876" lon="5.54065">
        <ele>1217</ele>
        <time>2013-09-15T10:22:08.000Z</time>
      </trkpt>
      <trkpt lat="44.94879" lon="5.54048">
        <ele>1216</ele>
        <time>2013-09-15T10:22:09.000Z</time>
      </trkpt>
      <trkpt lat="44.94879" lon="5.54048">
        <ele>1216</ele>
        <time>2013-09-15T10:22:09.000Z</time>
      </trkpt>
      <trkpt lat="44.94879" lon="5.54048">
        <ele>1216</ele>
        <time>2013-09-15T10:22:12.000Z</time>
      </trkpt>
      <trkpt lat="44.94878" lon="5.54031">
        <ele>1216</ele>
        <time>2013-09-15T10:22:13.000Z</time>
      </trkpt>
      <trkpt lat="44.94878" lon="5.54031">
        <ele>1216</ele>
        <time>2013-09-15T10:22:13.000Z</time>
      </trkpt>
      <trkpt lat="44.94878" lon="5.54031">
        <ele>1216</ele>
        <time>2013-09-15T10:22:16.000Z</time>
      </trkpt>
      <trkpt lat="44.94878" lon="5.54018">
        <ele>1216</ele>
        <time>2013-09-15T10:22:17.000Z</time>
      </trkpt>
      <trkpt lat="44.94878" lon="5.54018">
        <ele>1216</ele>
        <time>2013-09-15T10:22:17.000Z</time>
      </trkpt>
      <trkpt lat="44.94878" lon="5.54018">
        <ele>1216</ele>
        <time>2013-09-15T10:22:21.000Z</time>
      </trkpt>
      <trkpt lat="44.94878" lon="5.54003">
        <ele>1216</ele>
        <time>2013-09-15T10:22:22.000Z</time>
      </trkpt>
      <trkpt lat="44.94878" lon="5.54003">
        <ele>1216</ele>
        <time>2013-09-15T10:22:22.000Z</time>
      </trkpt>
      <trkpt lat="44.94878" lon="5.54003">
        <ele>1216</ele>
        <time>2013-09-15T10:22:25.000Z</time>
      </trkpt>
      <trkpt lat="44.94876" lon="5.5399">
        <ele>1216</ele>
        <time>2013-09-15T10:22:26.000Z</time>
      </trkpt>
      <trkpt lat="44.94876" lon="5.5399">
        <ele>1216</ele>
        <time>2013-09-15T10:22:26.000Z</time>
      </trkpt>
      <trkpt lat="44.94876" lon="5.5399">
        <ele>1216</ele>
        <time>2013-09-15T10:22:29.000Z</time>
      </trkpt>
      <trkpt lat="44.94873" lon="5.53977">
        <ele>1216</ele>
        <time>2013-09-15T10:22:30.000Z</time>
      </trkpt>
      <trkpt lat="44.94873" lon="5.53977">
        <ele>1216</ele>
        <time>2013-09-15T10:22:30.000Z</time>
      </trkpt>
      <trkpt lat="44.94873" lon="5.53977">
        <ele>1216</ele>
        <time>2013-09-15T10:22:34.000Z</time>
      </trkpt>
      <trkpt lat="44.94872" lon="5.53962">
        <ele>1216</ele>
        <time>2013-09-15T10:22:35.000Z</time>
      </trkpt>
      <trkpt lat="44.94872" lon="5.53962">
        <ele>1216</ele>
        <time>2013-09-15T10:22:35.000Z</time>
      </trkpt>
      <trkpt lat="44.94872" lon="5.53962">
        <ele>1216</ele>
        <time>2013-09-15T10:22:40.000Z</time>
      </trkpt>
      <trkpt lat="44.94872" lon="5.53949">
        <ele>1216</ele>
        <time>2013-09-15T10:22:41.000Z</time>
      </trkpt>
      <trkpt lat="44.94872" lon="5.53949">
        <ele>1216</ele>
        <time>2013-09-15T10:22:41.000Z</time>
      </trkpt>
      <trkpt lat="44.94872" lon="5.53949">
        <ele>1216</ele>
        <time>2013-09-15T10:22:47.000Z</time>
      </trkpt>
      <trkpt lat="44.94875" lon="5.53936">
        <ele>1216</ele>
        <time>2013-09-15T10:22:48.000Z</time>
      </trkpt>
      <trkpt lat="44.94875" lon="5.53936">
        <ele>1216</ele>
        <time>2013-09-15T10:22:48.000Z</time>
      </trkpt>
      <trkpt lat="44.94875" lon="5.53936">
        <ele>1216</ele>
        <time>2013-09-15T10:22:55.000Z</time>
      </trkpt>
      <trkpt lat="44.94884" lon="5.53932">
        <ele>1217</ele>
        <time>2013-09-15T10:22:56.000Z</time>
      </trkpt>
      <trkpt lat="44.94884" lon="5.53932">
        <ele>1217</ele>
        <time>2013-09-15T10:22:56.000Z</time>
      </trkpt>
      <trkpt lat="44.94884" lon="5.53932">
        <ele>1217</ele>
        <time>2013-09-15T10:23:00.000Z</time>
      </trkpt>
      <trkpt lat="44.94894" lon="5.53936">
        <ele>1217</ele>
        <time>2013-09-15T10:23:01.000Z</time>
      </trkpt>
      <trkpt lat="44.94894" lon="5.53936">
        <ele>1217</ele>
        <time>2013-09-15T10:23:01.000Z</time>
      </trkpt>
      <trkpt lat="44.94894" lon="5.53936">
        <ele>1217</ele>
        <time>2013-09-15T10:23:05.000Z</time>
      </trkpt>
      <trkpt lat="44.94905" lon="5.53938">
        <ele>1218</ele>
        <time>2013-09-15T10:23:06.000Z</time>
      </trkpt>
      <trkpt lat="44.94905" lon="5.53938">
        <ele>1218</ele>
        <time>2013-09-15T10:23:06.000Z</time>
      </trkpt>
      <trkpt lat="44.94905" lon="5.53938">
        <ele>1218</ele>
        <time>2013-09-15T10:23:10.000Z</time>
      </trkpt>
      <trkpt lat="44.94916" lon="5.5394">
        <ele>1218</ele>
        <time>2013-09-15T10:23:11.000Z</time>
      </trkpt>
      <trkpt lat="44.94916" lon="5.5394">
        <ele>1218</ele>
        <time>2013-09-15T10:23:11.000Z</time>
      </trkpt>
      <trkpt lat="44.94916" lon="5.5394">
        <ele>1218</ele>
        <time>2013-09-15T10:23:15.000Z</time>
      </trkpt>
      <trkpt lat="44.94926" lon="5.53943">
        <ele>1219</ele>
        <time>2013-09-15T10:23:16.000Z</time>
      </trkpt>
      <trkpt lat="44.94926" lon="5.53943">
        <ele>1219</ele>
        <time>2013-09-15T10:23:16.000Z</time>
      </trkpt>
      <trkpt lat="44.94926" lon="5.53943">
        <ele>1219</ele>
        <time>2013-09-15T10:23:20.000Z</time>
      </trkpt>
      <trkpt lat="44.94935" lon="5.53947">
        <ele>1219</ele>
        <time>2013-09-15T10:23:21.000Z</time>
      </trkpt>
      <trkpt lat="44.94935" lon="5.53947">
        <ele>1219</ele>
        <time>2013-09-15T10:23:21.000Z</time>
      </trkpt>
      <trkpt lat="44.94935" lon="5.53947">
        <ele>1219</ele>
        <time>2013-09-15T10:23:25.000Z</time>
      </trkpt>
      <trkpt lat="44.94944" lon="5.53949">
        <ele>1220</ele>
        <time>2013-09-15T10:23:26.000Z</time>
      </trkpt>
      <trkpt lat="44.94944" lon="5.53949">
        <ele>1220</ele>
        <time>2013-09-15T10:23:26.000Z</time>
      </trkpt>
      <trkpt lat="44.94944" lon="5.53949">
        <ele>1220</ele>
        <time>2013-09-15T10:23:31.000Z</time>
      </trkpt>
      <trkpt lat="44.94953" lon="5.53949">
        <ele>1221</ele>
        <time>2013-09-15T10:23:32.000Z</time>
      </trkpt>
      <trkpt lat="44.94953" lon="5.53949">
        <ele>1221</ele>
        <time>2013-09-15T10:23:32.000Z</time>
      </trkpt>
      <trkpt lat="44.94953" lon="5.53949">
        <ele>1221</ele>
        <time>2013-09-15T10:23:39.000Z</time>
      </trkpt>
      <trkpt lat="44.94962" lon="5.53943">
        <ele>1221</ele>
        <time>2013-09-15T10:23:40.000Z</time>
      </trkpt>
      <trkpt lat="44.94962" lon="5.53943">
        <ele>1221</ele>
        <time>2013-09-15T10:23:40.000Z</time>
      </trkpt>
      <trkpt lat="44.94962" lon="5.53943">
        <ele>1221</ele>
        <time>2013-09-15T10:23:48.000Z</time>
      </trkpt>
      <trkpt lat="44.94966" lon="5.53932">
        <ele>1222</ele>
        <time>2013-09-15T10:23:49.000Z</time>
      </trkpt>
      <trkpt lat="44.94966" lon="5.53926">
        <ele>1223</ele>
        <time>2013-09-15T10:23:54.000Z</time>
      </trkpt>
      <trkpt lat="44.94966" lon="5.53926">
        <ele>1223</ele>
        <time>2013-09-15T10:23:54.000Z</time>
      </trkpt>
      <trkpt lat="44.94966" lon="5.53926">
        <ele>1223</ele>
        <time>2013-09-15T10:23:55.000Z</time>
      </trkpt>
      <trkpt lat="44.94967" lon="5.53919">
        <ele>1223</ele>
        <time>2013-09-15T10:23:59.000Z</time>
      </trkpt>
      <trkpt lat="44.94967" lon="5.53919">
        <ele>1223</ele>
        <time>2013-09-15T10:23:59.000Z</time>
      </trkpt>
      <trkpt lat="44.94967" lon="5.53919">
        <ele>1224</ele>
        <time>2013-09-15T10:24:00.000Z</time>
      </trkpt>
      <trkpt lat="44.94969" lon="5.53913">
        <ele>1224</ele>
        <time>2013-09-15T10:24:05.000Z</time>
      </trkpt>
      <trkpt lat="44.94972" lon="5.53906">
        <ele>1225</ele>
        <time>2013-09-15T10:24:09.000Z</time>
      </trkpt>
      <trkpt lat="44.94977" lon="5.53902">
        <ele>1225</ele>
        <time>2013-09-15T10:24:13.000Z</time>
      </trkpt>
      <trkpt lat="44.94982" lon="5.53895">
        <ele>1225</ele>
        <time>2013-09-15T10:24:17.000Z</time>
      </trkpt>
      <trkpt lat="44.94986" lon="5.53893">
        <ele>1226</ele>
        <time>2013-09-15T10:24:20.000Z</time>
      </trkpt>
      <trkpt lat="44.94992" lon="5.53891">
        <ele>1226</ele>
        <time>2013-09-15T10:24:23.000Z</time>
      </trkpt>
      <trkpt lat="44.94997" lon="5.53891">
        <ele>1227</ele>
        <time>2013-09-15T10:24:26.000Z</time>
      </trkpt>
      <trkpt lat="44.95004" lon="5.53891">
        <ele>1227</ele>
        <time>2013-09-15T10:24:29.000Z</time>
      </trkpt>
      <trkpt lat="44.9501" lon="5.53891">
        <ele>1228</ele>
        <time>2013-09-15T10:24:32.000Z</time>
      </trkpt>
      <trkpt lat="44.95015" lon="5.53893">
        <ele>1228</ele>
        <time>2013-09-15T10:24:34.000Z</time>
      </trkpt>
      <trkpt lat="44.9502" lon="5.53895">
        <ele>1229</ele>
        <time>2013-09-15T10:24:36.000Z</time>
      </trkpt>
      <trkpt lat="44.95026" lon="5.53898">
        <ele>1230</ele>
        <time>2013-09-15T10:24:39.000Z</time>
      </trkpt>
      <trkpt lat="44.95032" lon="5.539">
        <ele>1230</ele>
        <time>2013-09-15T10:24:42.000Z</time>
      </trkpt>
      <trkpt lat="44.95039" lon="5.539">
        <ele>1231</ele>
        <time>2013-09-15T10:24:45.000Z</time>
      </trkpt>
      <trkpt lat="44.95044" lon="5.53902">
        <ele>1232</ele>
        <time>2013-09-15T10:24:48.000Z</time>
      </trkpt>
      <trkpt lat="44.9505" lon="5.53902">
        <ele>1232</ele>
        <time>2013-09-15T10:24:51.000Z</time>
      </trkpt>
      <trkpt lat="44.95054" lon="5.53904">
        <ele>1233</ele>
        <time>2013-09-15T10:24:53.000Z</time>
      </trkpt>
      <trkpt lat="44.95059" lon="5.53904">
        <ele>1233</ele>
        <time>2013-09-15T10:24:56.000Z</time>
      </trkpt>
      <trkpt lat="44.95066" lon="5.53902">
        <ele>1234</ele>
        <time>2013-09-15T10:25:00.000Z</time>
      </trkpt>
      <trkpt lat="44.95071" lon="5.53902">
        <ele>1235</ele>
        <time>2013-09-15T10:25:03.000Z</time>
      </trkpt>
      <trkpt lat="44.95076" lon="5.539">
        <ele>1235</ele>
        <time>2013-09-15T10:25:06.000Z</time>
      </trkpt>
      <trkpt lat="44.95082" lon="5.539">
        <ele>1236</ele>
        <time>2013-09-15T10:25:09.000Z</time>
      </trkpt>
      <trkpt lat="44.95086" lon="5.53898">
        <ele>1236</ele>
        <time>2013-09-15T10:25:11.000Z</time>
      </trkpt>
      <trkpt lat="44.9509" lon="5.53895">
        <ele>1237</ele>
        <time>2013-09-15T10:25:14.000Z</time>
      </trkpt>
      <trkpt lat="44.95096" lon="5.53891">
        <ele>1237</ele>
        <time>2013-09-15T10:25:17.000Z</time>
      </trkpt>
      <trkpt lat="44.951" lon="5.53887">
        <ele>1238</ele>
        <time>2013-09-15T10:25:20.000Z</time>
      </trkpt>
      <trkpt lat="44.95104" lon="5.53882">
        <ele>1238</ele>
        <time>2013-09-15T10:25:23.000Z</time>
      </trkpt>
      <trkpt lat="44.95109" lon="5.53878">
        <ele>1238</ele>
        <time>2013-09-15T10:25:26.000Z</time>
      </trkpt>
      <trkpt lat="44.95113" lon="5.53874">
        <ele>1238</ele>
        <time>2013-09-15T10:25:29.000Z</time>
      </trkpt>
      <trkpt lat="44.95118" lon="5.53868">
        <ele>1238</ele>
        <time>2013-09-15T10:25:33.000Z</time>
      </trkpt>
      <trkpt lat="44.95123" lon="5.53859">
        <ele>1238</ele>
        <time>2013-09-15T10:25:36.000Z</time>
      </trkpt>
      <trkpt lat="44.95127" lon="5.53852">
        <ele>1238</ele>
        <time>2013-09-15T10:25:39.000Z</time>
      </trkpt>
      <trkpt lat="44.9513" lon="5.53844">
        <ele>1238</ele>
        <time>2013-09-15T10:25:41.000Z</time>
      </trkpt>
      <trkpt lat="44.95133" lon="5.53835">
        <ele>1238</ele>
        <time>2013-09-15T10:25:43.000Z</time>
      </trkpt>
      <trkpt lat="44.95136" lon="5.53829">
        <ele>1238</ele>
        <time>2013-09-15T10:25:45.000Z</time>
      </trkpt>
      <trkpt lat="44.95139" lon="5.5382">
        <ele>1238</ele>
        <time>2013-09-15T10:25:47.000Z</time>
      </trkpt>
      <trkpt lat="44.95144" lon="5.53812">
        <ele>1238</ele>
        <time>2013-09-15T10:25:49.000Z</time>
      </trkpt>
      <trkpt lat="44.95152" lon="5.53803">
        <ele>1238</ele>
        <time>2013-09-15T10:25:51.000Z</time>
      </trkpt>
      <trkpt lat="44.95156" lon="5.53799">
        <ele>1238</ele>
        <time>2013-09-15T10:25:52.000Z</time>
      </trkpt>
      <trkpt lat="44.9516" lon="5.53795">
        <ele>1238</ele>
        <time>2013-09-15T10:25:53.000Z</time>
      </trkpt>
      <trkpt lat="44.95166" lon="5.53792">
        <ele>1238</ele>
        <time>2013-09-15T10:25:54.000Z</time>
      </trkpt>
      <trkpt lat="44.95171" lon="5.5379">
        <ele>1238</ele>
        <time>2013-09-15T10:25:55.000Z</time>
      </trkpt>
      <trkpt lat="44.95176" lon="5.5379">
        <ele>1238</ele>
        <time>2013-09-15T10:25:56.000Z</time>
      </trkpt>
      <trkpt lat="44.95182" lon="5.53788">
        <ele>1238</ele>
        <time>2013-09-15T10:25:57.000Z</time>
      </trkpt>
      <trkpt lat="44.95188" lon="5.5379">
        <ele>1237</ele>
        <time>2013-09-15T10:25:58.000Z</time>
      </trkpt>
      <trkpt lat="44.95196" lon="5.53792">
        <ele>1236</ele>
        <time>2013-09-15T10:25:59.000Z</time>
      </trkpt>
      <trkpt lat="44.95202" lon="5.53795">
        <ele>1236</ele>
        <time>2013-09-15T10:26:00.000Z</time>
      </trkpt>
      <trkpt lat="44.9521" lon="5.53795">
        <ele>1236</ele>
        <time>2013-09-15T10:26:01.000Z</time>
      </trkpt>
      <trkpt lat="44.9521" lon="5.53795">
        <ele>1236</ele>
        <time>2013-09-15T10:26:01.000Z</time>
      </trkpt>
      <trkpt lat="44.9521" lon="5.53795">
        <ele>1236</ele>
        <time>2013-09-15T10:26:03.000Z</time>
      </trkpt>
      <trkpt lat="44.95219" lon="5.53797">
        <ele>1235</ele>
        <time>2013-09-15T10:26:04.000Z</time>
      </trkpt>
      <trkpt lat="44.95219" lon="5.53797">
        <ele>1235</ele>
        <time>2013-09-15T10:26:04.000Z</time>
      </trkpt>
      <trkpt lat="44.95219" lon="5.53797">
        <ele>1235</ele>
        <time>2013-09-15T10:26:24.000Z</time>
      </trkpt>
      <trkpt lat="44.9523" lon="5.53799">
        <ele>1235</ele>
        <time>2013-09-15T10:26:25.000Z</time>
      </trkpt>
      <trkpt lat="44.95236" lon="5.53801">
        <ele>1235</ele>
        <time>2013-09-15T10:26:26.000Z</time>
      </trkpt>
      <trkpt lat="44.95243" lon="5.53805">
        <ele>1235</ele>
        <time>2013-09-15T10:26:27.000Z</time>
      </trkpt>
      <trkpt lat="44.95249" lon="5.53807">
        <ele>1235</ele>
        <time>2013-09-15T10:26:28.000Z</time>
      </trkpt>
      <trkpt lat="44.95255" lon="5.53812">
        <ele>1235</ele>
        <time>2013-09-15T10:26:29.000Z</time>
      </trkpt>
      <trkpt lat="44.9526" lon="5.53814">
        <ele>1235</ele>
        <time>2013-09-15T10:26:30.000Z</time>
      </trkpt>
      <trkpt lat="44.95266" lon="5.53816">
        <ele>1236</ele>
        <time>2013-09-15T10:26:31.000Z</time>
      </trkpt>
      <trkpt lat="44.95273" lon="5.53818">
        <ele>1236</ele>
        <time>2013-09-15T10:26:32.000Z</time>
      </trkpt>
      <trkpt lat="44.95279" lon="5.53822">
        <ele>1237</ele>
        <time>2013-09-15T10:26:33.000Z</time>
      </trkpt>
      <trkpt lat="44.95286" lon="5.53825">
        <ele>1237</ele>
        <time>2013-09-15T10:26:34.000Z</time>
      </trkpt>
      <trkpt lat="44.95291" lon="5.53827">
        <ele>1237</ele>
        <time>2013-09-15T10:26:35.000Z</time>
      </trkpt>
      <trkpt lat="44.95298" lon="5.53831">
        <ele>1238</ele>
        <time>2013-09-15T10:26:36.000Z</time>
      </trkpt>
      <trkpt lat="44.95303" lon="5.53835">
        <ele>1238</ele>
        <time>2013-09-15T10:26:37.000Z</time>
      </trkpt>
      <trkpt lat="44.95309" lon="5.5384">
        <ele>1237</ele>
        <time>2013-09-15T10:26:38.000Z</time>
      </trkpt>
      <trkpt lat="44.95316" lon="5.53844">
        <ele>1235</ele>
        <time>2013-09-15T10:26:39.000Z</time>
      </trkpt>
      <trkpt lat="44.95322" lon="5.53848">
        <ele>1234</ele>
        <time>2013-09-15T10:26:40.000Z</time>
      </trkpt>
      <trkpt lat="44.95329" lon="5.5385">
        <ele>1234</ele>
        <time>2013-09-15T10:26:41.000Z</time>
      </trkpt>
      <trkpt lat="44.95334" lon="5.53855">
        <ele>1233</ele>
        <time>2013-09-15T10:26:42.000Z</time>
      </trkpt>
      <trkpt lat="44.9534" lon="5.53859">
        <ele>1232</ele>
        <time>2013-09-15T10:26:43.000Z</time>
      </trkpt>
      <trkpt lat="44.95347" lon="5.53863">
        <ele>1231</ele>
        <time>2013-09-15T10:26:44.000Z</time>
      </trkpt>
      <trkpt lat="44.95354" lon="5.53865">
        <ele>1230</ele>
        <time>2013-09-15T10:26:45.000Z</time>
      </trkpt>
      <trkpt lat="44.95361" lon="5.5387">
        <ele>1230</ele>
        <time>2013-09-15T10:26:46.000Z</time>
      </trkpt>
      <trkpt lat="44.95369" lon="5.53872">
        <ele>1229</ele>
        <time>2013-09-15T10:26:47.000Z</time>
      </trkpt>
      <trkpt lat="44.95377" lon="5.53874">
        <ele>1228</ele>
        <time>2013-09-15T10:26:48.000Z</time>
      </trkpt>
      <trkpt lat="44.95386" lon="5.53874">
        <ele>1227</ele>
        <time>2013-09-15T10:26:49.000Z</time>
      </trkpt>
      <trkpt lat="44.95393" lon="5.53876">
        <ele>1226</ele>
        <time>2013-09-15T10:26:50.000Z</time>
      </trkpt>
      <trkpt lat="44.95402" lon="5.53876">
        <ele>1226</ele>
        <time>2013-09-15T10:26:51.000Z</time>
      </trkpt>
      <trkpt lat="44.95409" lon="5.53878">
        <ele>1225</ele>
        <time>2013-09-15T10:26:52.000Z</time>
      </trkpt>
      <trkpt lat="44.95416" lon="5.53882">
        <ele>1225</ele>
        <time>2013-09-15T10:26:53.000Z</time>
      </trkpt>
      <trkpt lat="44.95423" lon="5.53885">
        <ele>1224</ele>
        <time>2013-09-15T10:26:54.000Z</time>
      </trkpt>
      <trkpt lat="44.9543" lon="5.53889">
        <ele>1224</ele>
        <time>2013-09-15T10:26:55.000Z</time>
      </trkpt>
      <trkpt lat="44.95436" lon="5.53893">
        <ele>1224</ele>
        <time>2013-09-15T10:26:56.000Z</time>
      </trkpt>
      <trkpt lat="44.95441" lon="5.53898">
        <ele>1223</ele>
        <time>2013-09-15T10:26:57.000Z</time>
      </trkpt>
      <trkpt lat="44.95447" lon="5.53904">
        <ele>1223</ele>
        <time>2013-09-15T10:26:58.000Z</time>
      </trkpt>
      <trkpt lat="44.95453" lon="5.53908">
        <ele>1223</ele>
        <time>2013-09-15T10:26:59.000Z</time>
      </trkpt>
      <trkpt lat="44.95458" lon="5.53913">
        <ele>1222</ele>
        <time>2013-09-15T10:27:00.000Z</time>
      </trkpt>
      <trkpt lat="44.95464" lon="5.53917">
        <ele>1222</ele>
        <time>2013-09-15T10:27:01.000Z</time>
      </trkpt>
      <trkpt lat="44.95469" lon="5.53919">
        <ele>1222</ele>
        <time>2013-09-15T10:27:02.000Z</time>
      </trkpt>
      <trkpt lat="44.95476" lon="5.53923">
        <ele>1222</ele>
        <time>2013-09-15T10:27:04.000Z</time>
      </trkpt>
      <trkpt lat="44.95481" lon="5.53926">
        <ele>1222</ele>
        <time>2013-09-15T10:27:06.000Z</time>
      </trkpt>
      <trkpt lat="44.95486" lon="5.53928">
        <ele>1222</ele>
        <time>2013-09-15T10:27:08.000Z</time>
      </trkpt>
      <trkpt lat="44.95491" lon="5.5393">
        <ele>1222</ele>
        <time>2013-09-15T10:27:10.000Z</time>
      </trkpt>
      <trkpt lat="44.95502" lon="5.5393">
        <ele>1222</ele>
        <time>2013-09-15T10:27:15.000Z</time>
      </trkpt>
      <trkpt lat="44.95513" lon="5.53932">
        <ele>1221</ele>
        <time>2013-09-15T10:27:21.000Z</time>
      </trkpt>
      <trkpt lat="44.95513" lon="5.53932">
        <ele>1221</ele>
        <time>2013-09-15T10:27:21.000Z</time>
      </trkpt>
      <trkpt lat="44.95513" lon="5.53932">
        <ele>1221</ele>
        <time>2013-09-15T10:27:25.000Z</time>
      </trkpt>
      <trkpt lat="44.95523" lon="5.53932">
        <ele>1221</ele>
        <time>2013-09-15T10:27:26.000Z</time>
      </trkpt>
      <trkpt lat="44.95523" lon="5.53932">
        <ele>1221</ele>
        <time>2013-09-15T10:27:26.000Z</time>
      </trkpt>
      <trkpt lat="44.95523" lon="5.53932">
        <ele>1221</ele>
        <time>2013-09-15T10:27:30.000Z</time>
      </trkpt>
      <trkpt lat="44.95532" lon="5.53934">
        <ele>1221</ele>
        <time>2013-09-15T10:27:31.000Z</time>
      </trkpt>
      <trkpt lat="44.95532" lon="5.53934">
        <ele>1221</ele>
        <time>2013-09-15T10:27:31.000Z</time>
      </trkpt>
      <trkpt lat="44.95532" lon="5.53934">
        <ele>1221</ele>
        <time>2013-09-15T10:27:35.000Z</time>
      </trkpt>
      <trkpt lat="44.95542" lon="5.53934">
        <ele>1221</ele>
        <time>2013-09-15T10:27:36.000Z</time>
      </trkpt>
      <trkpt lat="44.95542" lon="5.53934">
        <ele>1221</ele>
        <time>2013-09-15T10:27:36.000Z</time>
      </trkpt>
      <trkpt lat="44.95542" lon="5.53934">
        <ele>1221</ele>
        <time>2013-09-15T10:27:41.000Z</time>
      </trkpt>
      <trkpt lat="44.95553" lon="5.53936">
        <ele>1221</ele>
        <time>2013-09-15T10:27:42.000Z</time>
      </trkpt>
      <trkpt lat="44.95553" lon="5.53936">
        <ele>1221</ele>
        <time>2013-09-15T10:27:42.000Z</time>
      </trkpt>
      <trkpt lat="44.95553" lon="5.53936">
        <ele>1221</ele>
        <time>2013-09-15T10:27:47.000Z</time>
      </trkpt>
      <trkpt lat="44.95562" lon="5.5394">
        <ele>1221</ele>
        <time>2013-09-15T10:27:48.000Z</time>
      </trkpt>
      <trkpt lat="44.95562" lon="5.5394">
        <ele>1221</ele>
        <time>2013-09-15T10:27:48.000Z</time>
      </trkpt>
      <trkpt lat="44.95562" lon="5.5394">
        <ele>1221</ele>
        <time>2013-09-15T10:27:53.000Z</time>
      </trkpt>
      <trkpt lat="44.95572" lon="5.53943">
        <ele>1221</ele>
        <time>2013-09-15T10:27:54.000Z</time>
      </trkpt>
      <trkpt lat="44.95572" lon="5.53943">
        <ele>1221</ele>
        <time>2013-09-15T10:27:54.000Z</time>
      </trkpt>
      <trkpt lat="44.95572" lon="5.53943">
        <ele>1221</ele>
        <time>2013-09-15T10:27:59.000Z</time>
      </trkpt>
      <trkpt lat="44.95583" lon="5.53945">
        <ele>1221</ele>
        <time>2013-09-15T10:28:00.000Z</time>
      </trkpt>
      <trkpt lat="44.95583" lon="5.53945">
        <ele>1221</ele>
        <time>2013-09-15T10:28:00.000Z</time>
      </trkpt>
      <trkpt lat="44.95583" lon="5.53945">
        <ele>1221</ele>
        <time>2013-09-15T10:28:05.000Z</time>
      </trkpt>
      <trkpt lat="44.95594" lon="5.53947">
        <ele>1222</ele>
        <time>2013-09-15T10:28:06.000Z</time>
      </trkpt>
      <trkpt lat="44.95594" lon="5.53947">
        <ele>1222</ele>
        <time>2013-09-15T10:28:06.000Z</time>
      </trkpt>
      <trkpt lat="44.95594" lon="5.53947">
        <ele>1222</ele>
        <time>2013-09-15T10:28:11.000Z</time>
      </trkpt>
      <trkpt lat="44.95603" lon="5.53951">
        <ele>1223</ele>
        <time>2013-09-15T10:28:12.000Z</time>
      </trkpt>
      <trkpt lat="44.95603" lon="5.53951">
        <ele>1223</ele>
        <time>2013-09-15T10:28:12.000Z</time>
      </trkpt>
      <trkpt lat="44.95603" lon="5.53951">
        <ele>1223</ele>
        <time>2013-09-15T10:28:16.000Z</time>
      </trkpt>
      <trkpt lat="44.95613" lon="5.53956">
        <ele>1223</ele>
        <time>2013-09-15T10:28:17.000Z</time>
      </trkpt>
      <trkpt lat="44.95613" lon="5.53956">
        <ele>1223</ele>
        <time>2013-09-15T10:28:17.000Z</time>
      </trkpt>
      <trkpt lat="44.95613" lon="5.53956">
        <ele>1223</ele>
        <time>2013-09-15T10:28:22.000Z</time>
      </trkpt>
      <trkpt lat="44.9562" lon="5.53964">
        <ele>1224</ele>
        <time>2013-09-15T10:28:23.000Z</time>
      </trkpt>
      <trkpt lat="44.9562" lon="5.53964">
        <ele>1224</ele>
        <time>2013-09-15T10:28:23.000Z</time>
      </trkpt>
      <trkpt lat="44.9562" lon="5.53964">
        <ele>1224</ele>
        <time>2013-09-15T10:28:30.000Z</time>
      </trkpt>
      <trkpt lat="44.95629" lon="5.5397">
        <ele>1225</ele>
        <time>2013-09-15T10:28:31.000Z</time>
      </trkpt>
      <trkpt lat="44.95629" lon="5.5397">
        <ele>1225</ele>
        <time>2013-09-15T10:28:31.000Z</time>
      </trkpt>
      <trkpt lat="44.95629" lon="5.5397">
        <ele>1225</ele>
        <time>2013-09-15T10:28:36.000Z</time>
      </trkpt>
      <trkpt lat="44.95638" lon="5.53977">
        <ele>1225</ele>
        <time>2013-09-15T10:28:37.000Z</time>
      </trkpt>
      <trkpt lat="44.95638" lon="5.53977">
        <ele>1225</ele>
        <time>2013-09-15T10:28:37.000Z</time>
      </trkpt>
      <trkpt lat="44.95638" lon="5.53977">
        <ele>1225</ele>
        <time>2013-09-15T10:28:42.000Z</time>
      </trkpt>
      <trkpt lat="44.95648" lon="5.53981">
        <ele>1226</ele>
        <time>2013-09-15T10:28:43.000Z</time>
      </trkpt>
      <trkpt lat="44.95648" lon="5.53981">
        <ele>1226</ele>
        <time>2013-09-15T10:28:43.000Z</time>
      </trkpt>
      <trkpt lat="44.95648" lon="5.53981">
        <ele>1226</ele>
        <time>2013-09-15T10:28:48.000Z</time>
      </trkpt>
      <trkpt lat="44.95658" lon="5.53986">
        <ele>1227</ele>
        <time>2013-09-15T10:28:49.000Z</time>
      </trkpt>
      <trkpt lat="44.95658" lon="5.53986">
        <ele>1227</ele>
        <time>2013-09-15T10:28:49.000Z</time>
      </trkpt>
      <trkpt lat="44.95658" lon="5.53986">
        <ele>1227</ele>
        <time>2013-09-15T10:28:53.000Z</time>
      </trkpt>
      <trkpt lat="44.95669" lon="5.5399">
        <ele>1227</ele>
        <time>2013-09-15T10:28:54.000Z</time>
      </trkpt>
      <trkpt lat="44.95669" lon="5.5399">
        <ele>1227</ele>
        <time>2013-09-15T10:28:54.000Z</time>
      </trkpt>
      <trkpt lat="44.95669" lon="5.5399">
        <ele>1227</ele>
        <time>2013-09-15T10:28:58.000Z</time>
      </trkpt>
      <trkpt lat="44.95679" lon="5.53992">
        <ele>1228</ele>
        <time>2013-09-15T10:28:59.000Z</time>
      </trkpt>
      <trkpt lat="44.95679" lon="5.53992">
        <ele>1228</ele>
        <time>2013-09-15T10:28:59.000Z</time>
      </trkpt>
      <trkpt lat="44.95679" lon="5.53992">
        <ele>1228</ele>
        <time>2013-09-15T10:29:03.000Z</time>
      </trkpt>
      <trkpt lat="44.9569" lon="5.53994">
        <ele>1228</ele>
        <time>2013-09-15T10:29:04.000Z</time>
      </trkpt>
      <trkpt lat="44.9569" lon="5.53994">
        <ele>1228</ele>
        <time>2013-09-15T10:29:04.000Z</time>
      </trkpt>
      <trkpt lat="44.9569" lon="5.53994">
        <ele>1228</ele>
        <time>2013-09-15T10:29:08.000Z</time>
      </trkpt>
      <trkpt lat="44.95701" lon="5.53996">
        <ele>1228</ele>
        <time>2013-09-15T10:29:09.000Z</time>
      </trkpt>
      <trkpt lat="44.95701" lon="5.53996">
        <ele>1228</ele>
        <time>2013-09-15T10:29:09.000Z</time>
      </trkpt>
      <trkpt lat="44.95701" lon="5.53996">
        <ele>1228</ele>
        <time>2013-09-15T10:29:13.000Z</time>
      </trkpt>
      <trkpt lat="44.95713" lon="5.53996">
        <ele>1229</ele>
        <time>2013-09-15T10:29:14.000Z</time>
      </trkpt>
      <trkpt lat="44.95713" lon="5.53996">
        <ele>1229</ele>
        <time>2013-09-15T10:29:14.000Z</time>
      </trkpt>
      <trkpt lat="44.95713" lon="5.53996">
        <ele>1229</ele>
        <time>2013-09-15T10:29:17.000Z</time>
      </trkpt>
      <trkpt lat="44.95722" lon="5.53998">
        <ele>1229</ele>
        <time>2013-09-15T10:29:18.000Z</time>
      </trkpt>
      <trkpt lat="44.95722" lon="5.53998">
        <ele>1229</ele>
        <time>2013-09-15T10:29:18.000Z</time>
      </trkpt>
      <trkpt lat="44.95722" lon="5.53998">
        <ele>1229</ele>
        <time>2013-09-15T10:29:21.000Z</time>
      </trkpt>
      <trkpt lat="44.95734" lon="5.53998">
        <ele>1229</ele>
        <time>2013-09-15T10:29:22.000Z</time>
      </trkpt>
      <trkpt lat="44.95734" lon="5.53998">
        <ele>1229</ele>
        <time>2013-09-15T10:29:22.000Z</time>
      </trkpt>
      <trkpt lat="44.95734" lon="5.53998">
        <ele>1229</ele>
        <time>2013-09-15T10:29:25.000Z</time>
      </trkpt>
      <trkpt lat="44.95744" lon="5.53998">
        <ele>1230</ele>
        <time>2013-09-15T10:29:26.000Z</time>
      </trkpt>
      <trkpt lat="44.95744" lon="5.53998">
        <ele>1230</ele>
        <time>2013-09-15T10:29:26.000Z</time>
      </trkpt>
      <trkpt lat="44.95744" lon="5.53998">
        <ele>1230</ele>
        <time>2013-09-15T10:29:29.000Z</time>
      </trkpt>
      <trkpt lat="44.95754" lon="5.53998">
        <ele>1230</ele>
        <time>2013-09-15T10:29:30.000Z</time>
      </trkpt>
      <trkpt lat="44.95754" lon="5.53998">
        <ele>1230</ele>
        <time>2013-09-15T10:29:30.000Z</time>
      </trkpt>
      <trkpt lat="44.95754" lon="5.53998">
        <ele>1230</ele>
        <time>2013-09-15T10:29:34.000Z</time>
      </trkpt>
      <trkpt lat="44.95764" lon="5.53996">
        <ele>1230</ele>
        <time>2013-09-15T10:29:35.000Z</time>
      </trkpt>
      <trkpt lat="44.95764" lon="5.53996">
        <ele>1230</ele>
        <time>2013-09-15T10:29:35.000Z</time>
      </trkpt>
      <trkpt lat="44.95764" lon="5.53996">
        <ele>1230</ele>
        <time>2013-09-15T10:29:38.000Z</time>
      </trkpt>
      <trkpt lat="44.95774" lon="5.53996">
        <ele>1230</ele>
        <time>2013-09-15T10:29:39.000Z</time>
      </trkpt>
      <trkpt lat="44.95774" lon="5.53996">
        <ele>1230</ele>
        <time>2013-09-15T10:29:39.000Z</time>
      </trkpt>
      <trkpt lat="44.95774" lon="5.53996">
        <ele>1230</ele>
        <time>2013-09-15T10:29:43.000Z</time>
      </trkpt>
      <trkpt lat="44.95784" lon="5.53994">
        <ele>1230</ele>
        <time>2013-09-15T10:29:44.000Z</time>
      </trkpt>
      <trkpt lat="44.95784" lon="5.53994">
        <ele>1230</ele>
        <time>2013-09-15T10:29:44.000Z</time>
      </trkpt>
      <trkpt lat="44.95784" lon="5.53994">
        <ele>1230</ele>
        <time>2013-09-15T10:29:48.000Z</time>
      </trkpt>
      <trkpt lat="44.95793" lon="5.5399">
        <ele>1231</ele>
        <time>2013-09-15T10:29:49.000Z</time>
      </trkpt>
      <trkpt lat="44.95793" lon="5.5399">
        <ele>1231</ele>
        <time>2013-09-15T10:29:49.000Z</time>
      </trkpt>
      <trkpt lat="44.95793" lon="5.5399">
        <ele>1231</ele>
        <time>2013-09-15T10:29:54.000Z</time>
      </trkpt>
      <trkpt lat="44.95803" lon="5.53986">
        <ele>1231</ele>
        <time>2013-09-15T10:29:55.000Z</time>
      </trkpt>
      <trkpt lat="44.95803" lon="5.53986">
        <ele>1231</ele>
        <time>2013-09-15T10:29:55.000Z</time>
      </trkpt>
      <trkpt lat="44.95803" lon="5.53986">
        <ele>1231</ele>
        <time>2013-09-15T10:30:00.000Z</time>
      </trkpt>
      <trkpt lat="44.95812" lon="5.53983">
        <ele>1231</ele>
        <time>2013-09-15T10:30:01.000Z</time>
      </trkpt>
      <trkpt lat="44.95812" lon="5.53983">
        <ele>1231</ele>
        <time>2013-09-15T10:30:01.000Z</time>
      </trkpt>
      <trkpt lat="44.95812" lon="5.53983">
        <ele>1231</ele>
        <time>2013-09-15T10:30:04.000Z</time>
      </trkpt>
      <trkpt lat="44.95819" lon="5.53979">
        <ele>1231</ele>
        <time>2013-09-15T10:30:05.000Z</time>
      </trkpt>
      <trkpt lat="44.95823" lon="5.53977">
        <ele>1231</ele>
        <time>2013-09-15T10:30:07.000Z</time>
      </trkpt>
      <trkpt lat="44.95829" lon="5.53977">
        <ele>1231</ele>
        <time>2013-09-15T10:30:10.000Z</time>
      </trkpt>
      <trkpt lat="44.95834" lon="5.53977">
        <ele>1232</ele>
        <time>2013-09-15T10:30:13.000Z</time>
      </trkpt>
      <trkpt lat="44.95839" lon="5.53975">
        <ele>1232</ele>
        <time>2013-09-15T10:30:16.000Z</time>
      </trkpt>
      <trkpt lat="44.95846" lon="5.53975">
        <ele>1232</ele>
        <time>2013-09-15T10:30:20.000Z</time>
      </trkpt>
      <trkpt lat="44.95852" lon="5.53973">
        <ele>1232</ele>
        <time>2013-09-15T10:30:24.000Z</time>
      </trkpt>
      <trkpt lat="44.95859" lon="5.53973">
        <ele>1233</ele>
        <time>2013-09-15T10:30:28.000Z</time>
      </trkpt>
      <trkpt lat="44.95863" lon="5.5397">
        <ele>1233</ele>
        <time>2013-09-15T10:30:31.000Z</time>
      </trkpt>
      <trkpt lat="44.95868" lon="5.53968">
        <ele>1234</ele>
        <time>2013-09-15T10:30:34.000Z</time>
      </trkpt>
      <trkpt lat="44.95874" lon="5.53966">
        <ele>1234</ele>
        <time>2013-09-15T10:30:37.000Z</time>
      </trkpt>
      <trkpt lat="44.95878" lon="5.53964">
        <ele>1234</ele>
        <time>2013-09-15T10:30:40.000Z</time>
      </trkpt>
      <trkpt lat="44.95883" lon="5.53962">
        <ele>1234</ele>
        <time>2013-09-15T10:30:43.000Z</time>
      </trkpt>
      <trkpt lat="44.95888" lon="5.5396">
        <ele>1235</ele>
        <time>2013-09-15T10:30:46.000Z</time>
      </trkpt>
      <trkpt lat="44.95893" lon="5.5396">
        <ele>1235</ele>
        <time>2013-09-15T10:30:49.000Z</time>
      </trkpt>
      <trkpt lat="44.95898" lon="5.53958">
        <ele>1236</ele>
        <time>2013-09-15T10:30:52.000Z</time>
      </trkpt>
      <trkpt lat="44.95904" lon="5.53958">
        <ele>1236</ele>
        <time>2013-09-15T10:30:55.000Z</time>
      </trkpt>
      <trkpt lat="44.95909" lon="5.53956">
        <ele>1236</ele>
        <time>2013-09-15T10:30:58.000Z</time>
      </trkpt>
      <trkpt lat="44.95914" lon="5.53956">
        <ele>1237</ele>
        <time>2013-09-15T10:31:01.000Z</time>
      </trkpt>
      <trkpt lat="44.95921" lon="5.53956">
        <ele>1237</ele>
        <time>2013-09-15T10:31:04.000Z</time>
      </trkpt>
      <trkpt lat="44.95926" lon="5.53953">
        <ele>1238</ele>
        <time>2013-09-15T10:31:07.000Z</time>
      </trkpt>
      <trkpt lat="44.95932" lon="5.53953">
        <ele>1238</ele>
        <time>2013-09-15T10:31:09.000Z</time>
      </trkpt>
      <trkpt lat="44.95936" lon="5.53956">
        <ele>1238</ele>
        <time>2013-09-15T10:31:11.000Z</time>
      </trkpt>
      <trkpt lat="44.95942" lon="5.53958">
        <ele>1239</ele>
        <time>2013-09-15T10:31:14.000Z</time>
      </trkpt>
      <trkpt lat="44.95948" lon="5.53958">
        <ele>1239</ele>
        <time>2013-09-15T10:31:16.000Z</time>
      </trkpt>
      <trkpt lat="44.95952" lon="5.5396">
        <ele>1240</ele>
        <time>2013-09-15T10:31:18.000Z</time>
      </trkpt>
      <trkpt lat="44.95956" lon="5.53962">
        <ele>1240</ele>
        <time>2013-09-15T10:31:20.000Z</time>
      </trkpt>
      <trkpt lat="44.95963" lon="5.53964">
        <ele>1241</ele>
        <time>2013-09-15T10:31:23.000Z</time>
      </trkpt>
      <trkpt lat="44.95969" lon="5.53966">
        <ele>1241</ele>
        <time>2013-09-15T10:31:26.000Z</time>
      </trkpt>
      <trkpt lat="44.95973" lon="5.53968">
        <ele>1241</ele>
        <time>2013-09-15T10:31:28.000Z</time>
      </trkpt>
      <trkpt lat="44.95979" lon="5.5397">
        <ele>1242</ele>
        <time>2013-09-15T10:31:30.000Z</time>
      </trkpt>
      <trkpt lat="44.95983" lon="5.53973">
        <ele>1242</ele>
        <time>2013-09-15T10:31:32.000Z</time>
      </trkpt>
      <trkpt lat="44.95987" lon="5.53975">
        <ele>1242</ele>
        <time>2013-09-15T10:31:34.000Z</time>
      </trkpt>
      <trkpt lat="44.95992" lon="5.53979">
        <ele>1243</ele>
        <time>2013-09-15T10:31:36.000Z</time>
      </trkpt>
      <trkpt lat="44.95996" lon="5.53981">
        <ele>1243</ele>
        <time>2013-09-15T10:31:38.000Z</time>
      </trkpt>
      <trkpt lat="44.96" lon="5.53986">
        <ele>1244</ele>
        <time>2013-09-15T10:31:40.000Z</time>
      </trkpt>
      <trkpt lat="44.96004" lon="5.5399">
        <ele>1244</ele>
        <time>2013-09-15T10:31:42.000Z</time>
      </trkpt>
      <trkpt lat="44.96006" lon="5.53996">
        <ele>1244</ele>
        <time>2013-09-15T10:31:47.000Z</time>
      </trkpt>
      <trkpt lat="44.96006" lon="5.53996">
        <ele>1244</ele>
        <time>2013-09-15T10:31:47.000Z</time>
      </trkpt>
      <trkpt lat="44.96006" lon="5.53996">
        <ele>1244</ele>
        <time>2013-09-15T10:31:49.000Z</time>
      </trkpt>
      <trkpt lat="44.96004" lon="5.54003">
        <ele>1244</ele>
        <time>2013-09-15T10:31:58.000Z</time>
      </trkpt>
      <trkpt lat="44.96004" lon="5.54003">
        <ele>1244</ele>
        <time>2013-09-15T10:31:58.000Z</time>
      </trkpt>
      <trkpt lat="44.96004" lon="5.54003">
        <ele>1244</ele>
        <time>2013-09-15T10:32:00.000Z</time>
      </trkpt>
      <trkpt lat="44.96004" lon="5.54009">
        <ele>1245</ele>
        <time>2013-09-15T10:32:07.000Z</time>
      </trkpt>
      <trkpt lat="44.96004" lon="5.54009">
        <ele>1245</ele>
        <time>2013-09-15T10:32:07.000Z</time>
      </trkpt>
      <trkpt lat="44.96004" lon="5.54009">
        <ele>1245</ele>
        <time>2013-09-15T10:32:10.000Z</time>
      </trkpt>
      <trkpt lat="44.96009" lon="5.54011">
        <ele>1245</ele>
        <time>2013-09-15T10:32:30.000Z</time>
      </trkpt>
      <trkpt lat="44.96011" lon="5.54005">
        <ele>1246</ele>
        <time>2013-09-15T10:32:47.000Z</time>
      </trkpt>
      <trkpt lat="44.96011" lon="5.54005">
        <ele>1246</ele>
        <time>2013-09-15T10:32:47.000Z</time>
      </trkpt>
      <trkpt lat="44.96011" lon="5.54005">
        <ele>1246</ele>
        <time>2013-09-15T10:32:52.000Z</time>
      </trkpt>
      <trkpt lat="44.96015" lon="5.54001">
        <ele>1248</ele>
        <time>2013-09-15T10:33:46.000Z</time>
      </trkpt>
      <trkpt lat="44.96015" lon="5.54001">
        <ele>1248</ele>
        <time>2013-09-15T10:33:46.000Z</time>
      </trkpt>
      <trkpt lat="44.96015" lon="5.54001">
        <ele>1248</ele>
        <time>2013-09-15T10:33:49.000Z</time>
      </trkpt>
      <trkpt lat="44.96017" lon="5.53994">
        <ele>1248</ele>
        <time>2013-09-15T10:34:05.000Z</time>
      </trkpt>
      <trkpt lat="44.96017" lon="5.53994">
        <ele>1248</ele>
        <time>2013-09-15T10:34:05.000Z</time>
      </trkpt>
      <trkpt lat="44.96017" lon="5.53994">
        <ele>1248</ele>
        <time>2013-09-15T10:34:11.000Z</time>
      </trkpt>
      <trkpt lat="44.96023" lon="5.53998">
        <ele>1248</ele>
        <time>2013-09-15T10:34:23.000Z</time>
      </trkpt>
      <trkpt lat="44.96027" lon="5.54001">
        <ele>1247</ele>
        <time>2013-09-15T10:34:25.000Z</time>
      </trkpt>
      <trkpt lat="44.96031" lon="5.54003">
        <ele>1247</ele>
        <time>2013-09-15T10:34:27.000Z</time>
      </trkpt>
      <trkpt lat="44.96036" lon="5.54005">
        <ele>1247</ele>
        <time>2013-09-15T10:34:29.000Z</time>
      </trkpt>
      <trkpt lat="44.9604" lon="5.54009">
        <ele>1247</ele>
        <time>2013-09-15T10:34:31.000Z</time>
      </trkpt>
      <trkpt lat="44.96045" lon="5.54011">
        <ele>1247</ele>
        <time>2013-09-15T10:34:34.000Z</time>
      </trkpt>
      <trkpt lat="44.96051" lon="5.54016">
        <ele>1247</ele>
        <time>2013-09-15T10:34:37.000Z</time>
      </trkpt>
      <trkpt lat="44.96055" lon="5.54018">
        <ele>1247</ele>
        <time>2013-09-15T10:34:39.000Z</time>
      </trkpt>
      <trkpt lat="44.9606" lon="5.54022">
        <ele>1247</ele>
        <time>2013-09-15T10:34:42.000Z</time>
      </trkpt>
      <trkpt lat="44.96064" lon="5.54031">
        <ele>1247</ele>
        <time>2013-09-15T10:34:45.000Z</time>
      </trkpt>
      <trkpt lat="44.96066" lon="5.54041">
        <ele>1247</ele>
        <time>2013-09-15T10:34:47.000Z</time>
      </trkpt>
      <trkpt lat="44.96068" lon="5.5405">
        <ele>1247</ele>
        <time>2013-09-15T10:34:48.000Z</time>
      </trkpt>
      <trkpt lat="44.96069" lon="5.54058">
        <ele>1246</ele>
        <time>2013-09-15T10:34:49.000Z</time>
      </trkpt>
      <trkpt lat="44.9607" lon="5.54067">
        <ele>1245</ele>
        <time>2013-09-15T10:34:50.000Z</time>
      </trkpt>
      <trkpt lat="44.9607" lon="5.54076">
        <ele>1244</ele>
        <time>2013-09-15T10:34:51.000Z</time>
      </trkpt>
      <trkpt lat="44.9607" lon="5.54082">
        <ele>1244</ele>
        <time>2013-09-15T10:34:52.000Z</time>
      </trkpt>
      <trkpt lat="44.96071" lon="5.54091">
        <ele>1244</ele>
        <time>2013-09-15T10:34:53.000Z</time>
      </trkpt>
      <trkpt lat="44.96071" lon="5.54097">
        <ele>1244</ele>
        <time>2013-09-15T10:34:54.000Z</time>
      </trkpt>
      <trkpt lat="44.96072" lon="5.54104">
        <ele>1244</ele>
        <time>2013-09-15T10:34:55.000Z</time>
      </trkpt>
      <trkpt lat="44.96072" lon="5.54104">
        <ele>1244</ele>
        <time>2013-09-15T10:34:55.000Z</time>
      </trkpt>
      <trkpt lat="44.96072" lon="5.54104">
        <ele>1244</ele>
        <time>2013-09-15T10:35:21.000Z</time>
      </trkpt>
      <trkpt lat="44.96073" lon="5.54116">
        <ele>1243</ele>
        <time>2013-09-15T10:35:22.000Z</time>
      </trkpt>
      <trkpt lat="44.96073" lon="5.54116">
        <ele>1243</ele>
        <time>2013-09-15T10:35:22.000Z</time>
      </trkpt>
      <trkpt lat="44.96073" lon="5.54116">
        <ele>1243</ele>
        <time>2013-09-15T10:35:25.000Z</time>
      </trkpt>
      <trkpt lat="44.96072" lon="5.54129">
        <ele>1244</ele>
        <time>2013-09-15T10:35:26.000Z</time>
      </trkpt>
      <trkpt lat="44.96072" lon="5.54129">
        <ele>1244</ele>
        <time>2013-09-15T10:35:26.000Z</time>
      </trkpt>
      <trkpt lat="44.96072" lon="5.54129">
        <ele>1244</ele>
        <time>2013-09-15T10:35:45.000Z</time>
      </trkpt>
      <trkpt lat="44.96071" lon="5.54142">
        <ele>1245</ele>
        <time>2013-09-15T10:35:47.000Z</time>
      </trkpt>
      <trkpt lat="44.96069" lon="5.54153">
        <ele>1246</ele>
        <time>2013-09-15T10:35:48.000Z</time>
      </trkpt>
      <trkpt lat="44.96067" lon="5.54166">
        <ele>1247</ele>
        <time>2013-09-15T10:35:49.000Z</time>
      </trkpt>
      <trkpt lat="44.96066" lon="5.54176">
        <ele>1248</ele>
        <time>2013-09-15T10:35:50.000Z</time>
      </trkpt>
      <trkpt lat="44.96066" lon="5.54185">
        <ele>1247</ele>
        <time>2013-09-15T10:35:51.000Z</time>
      </trkpt>
      <trkpt lat="44.96067" lon="5.54196">
        <ele>1246</ele>
        <time>2013-09-15T10:35:52.000Z</time>
      </trkpt>
      <trkpt lat="44.96069" lon="5.54204">
        <ele>1246</ele>
        <time>2013-09-15T10:35:53.000Z</time>
      </trkpt>
      <trkpt lat="44.96071" lon="5.54213">
        <ele>1245</ele>
        <time>2013-09-15T10:35:54.000Z</time>
      </trkpt>
      <trkpt lat="44.96074" lon="5.54222">
        <ele>1244</ele>
        <time>2013-09-15T10:35:55.000Z</time>
      </trkpt>
      <trkpt lat="44.96076" lon="5.5423">
        <ele>1244</ele>
        <time>2013-09-15T10:35:56.000Z</time>
      </trkpt>
      <trkpt lat="44.9608" lon="5.54239">
        <ele>1244</ele>
        <time>2013-09-15T10:35:57.000Z</time>
      </trkpt>
      <trkpt lat="44.96082" lon="5.54247">
        <ele>1243</ele>
        <time>2013-09-15T10:35:58.000Z</time>
      </trkpt>
      <trkpt lat="44.96085" lon="5.54254">
        <ele>1243</ele>
        <time>2013-09-15T10:35:59.000Z</time>
      </trkpt>
      <trkpt lat="44.96088" lon="5.54262">
        <ele>1243</ele>
        <time>2013-09-15T10:36:00.000Z</time>
      </trkpt>
      <trkpt lat="44.96091" lon="5.54269">
        <ele>1242</ele>
        <time>2013-09-15T10:36:01.000Z</time>
      </trkpt>
      <trkpt lat="44.96097" lon="5.54277">
        <ele>1242</ele>
        <time>2013-09-15T10:36:02.000Z</time>
      </trkpt>
      <trkpt lat="44.96103" lon="5.54286">
        <ele>1242</ele>
        <time>2013-09-15T10:36:03.000Z</time>
      </trkpt>
      <trkpt lat="44.9611" lon="5.54294">
        <ele>1242</ele>
        <time>2013-09-15T10:36:04.000Z</time>
      </trkpt>
      <trkpt lat="44.96116" lon="5.54303">
        <ele>1242</ele>
        <time>2013-09-15T10:36:05.000Z</time>
      </trkpt>
      <trkpt lat="44.96122" lon="5.54314">
        <ele>1241</ele>
        <time>2013-09-15T10:36:06.000Z</time>
      </trkpt>
      <trkpt lat="44.96128" lon="5.54322">
        <ele>1240</ele>
        <time>2013-09-15T10:36:07.000Z</time>
      </trkpt>
      <trkpt lat="44.96133" lon="5.54333">
        <ele>1239</ele>
        <time>2013-09-15T10:36:08.000Z</time>
      </trkpt>
      <trkpt lat="44.96139" lon="5.54344">
        <ele>1238</ele>
        <time>2013-09-15T10:36:09.000Z</time>
      </trkpt>
      <trkpt lat="44.96144" lon="5.54355">
        <ele>1237</ele>
        <time>2013-09-15T10:36:10.000Z</time>
      </trkpt>
      <trkpt lat="44.96149" lon="5.54368">
        <ele>1235</ele>
        <time>2013-09-15T10:36:11.000Z</time>
      </trkpt>
      <trkpt lat="44.96155" lon="5.54378">
        <ele>1234</ele>
        <time>2013-09-15T10:36:12.000Z</time>
      </trkpt>
      <trkpt lat="44.9616" lon="5.54391">
        <ele>1233</ele>
        <time>2013-09-15T10:36:13.000Z</time>
      </trkpt>
      <trkpt lat="44.96164" lon="5.54402">
        <ele>1232</ele>
        <time>2013-09-15T10:36:14.000Z</time>
      </trkpt>
      <trkpt lat="44.9617" lon="5.54413">
        <ele>1232</ele>
        <time>2013-09-15T10:36:15.000Z</time>
      </trkpt>
      <trkpt lat="44.96174" lon="5.54425">
        <ele>1231</ele>
        <time>2013-09-15T10:36:16.000Z</time>
      </trkpt>
      <trkpt lat="44.96178" lon="5.54436">
        <ele>1230</ele>
        <time>2013-09-15T10:36:17.000Z</time>
      </trkpt>
      <trkpt lat="44.96183" lon="5.54447">
        <ele>1230</ele>
        <time>2013-09-15T10:36:18.000Z</time>
      </trkpt>
      <trkpt lat="44.96188" lon="5.54458">
        <ele>1230</ele>
        <time>2013-09-15T10:36:19.000Z</time>
      </trkpt>
      <trkpt lat="44.96193" lon="5.54468">
        <ele>1229</ele>
        <time>2013-09-15T10:36:20.000Z</time>
      </trkpt>
      <trkpt lat="44.96199" lon="5.54479">
        <ele>1229</ele>
        <time>2013-09-15T10:36:21.000Z</time>
      </trkpt>
      <trkpt lat="44.96205" lon="5.5449">
        <ele>1229</ele>
        <time>2013-09-15T10:36:22.000Z</time>
      </trkpt>
      <trkpt lat="44.96212" lon="5.54498">
        <ele>1228</ele>
        <time>2013-09-15T10:36:23.000Z</time>
      </trkpt>
      <trkpt lat="44.96218" lon="5.54509">
        <ele>1228</ele>
        <time>2013-09-15T10:36:24.000Z</time>
      </trkpt>
      <trkpt lat="44.96224" lon="5.5452">
        <ele>1228</ele>
        <time>2013-09-15T10:36:25.000Z</time>
      </trkpt>
      <trkpt lat="44.9623" lon="5.54533">
        <ele>1227</ele>
        <time>2013-09-15T10:36:26.000Z</time>
      </trkpt>
      <trkpt lat="44.96235" lon="5.54546">
        <ele>1227</ele>
        <time>2013-09-15T10:36:27.000Z</time>
      </trkpt>
      <trkpt lat="44.9624" lon="5.54558">
        <ele>1227</ele>
        <time>2013-09-15T10:36:28.000Z</time>
      </trkpt>
      <trkpt lat="44.96244" lon="5.54569">
        <ele>1227</ele>
        <time>2013-09-15T10:36:29.000Z</time>
      </trkpt>
      <trkpt lat="44.96248" lon="5.54582">
        <ele>1227</ele>
        <time>2013-09-15T10:36:30.000Z</time>
      </trkpt>
      <trkpt lat="44.96251" lon="5.54595">
        <ele>1226</ele>
        <time>2013-09-15T10:36:31.000Z</time>
      </trkpt>
      <trkpt lat="44.96252" lon="5.5461">
        <ele>1226</ele>
        <time>2013-09-15T10:36:32.000Z</time>
      </trkpt>
      <trkpt lat="44.96254" lon="5.54625">
        <ele>1225</ele>
        <time>2013-09-15T10:36:33.000Z</time>
      </trkpt>
      <trkpt lat="44.96256" lon="5.5464">
        <ele>1224</ele>
        <time>2013-09-15T10:36:34.000Z</time>
      </trkpt>
      <trkpt lat="44.96257" lon="5.54655">
        <ele>1224</ele>
        <time>2013-09-15T10:36:35.000Z</time>
      </trkpt>
      <trkpt lat="44.96257" lon="5.5467">
        <ele>1224</ele>
        <time>2013-09-15T10:36:36.000Z</time>
      </trkpt>
      <trkpt lat="44.96259" lon="5.54683">
        <ele>1223</ele>
        <time>2013-09-15T10:36:37.000Z</time>
      </trkpt>
      <trkpt lat="44.9626" lon="5.54698">
        <ele>1222</ele>
        <time>2013-09-15T10:36:38.000Z</time>
      </trkpt>
      <trkpt lat="44.96261" lon="5.54713">
        <ele>1222</ele>
        <time>2013-09-15T10:36:39.000Z</time>
      </trkpt>
      <trkpt lat="44.96262" lon="5.54726">
        <ele>1221</ele>
        <time>2013-09-15T10:36:40.000Z</time>
      </trkpt>
      <trkpt lat="44.96263" lon="5.54739">
        <ele>1220</ele>
        <time>2013-09-15T10:36:41.000Z</time>
      </trkpt>
      <trkpt lat="44.96264" lon="5.54754">
        <ele>1219</ele>
        <time>2013-09-15T10:36:42.000Z</time>
      </trkpt>
      <trkpt lat="44.96264" lon="5.54764">
        <ele>1218</ele>
        <time>2013-09-15T10:36:43.000Z</time>
      </trkpt>
      <trkpt lat="44.96264" lon="5.54777">
        <ele>1217</ele>
        <time>2013-09-15T10:36:44.000Z</time>
      </trkpt>
      <trkpt lat="44.96265" lon="5.54788">
        <ele>1216</ele>
        <time>2013-09-15T10:36:45.000Z</time>
      </trkpt>
      <trkpt lat="44.96268" lon="5.54792">
        <ele>1216</ele>
        <time>2013-09-15T10:36:46.000Z</time>
      </trkpt>
      <trkpt lat="44.96274" lon="5.54801">
        <ele>1215</ele>
        <time>2013-09-15T10:36:48.000Z</time>
      </trkpt>
      <trkpt lat="44.96279" lon="5.54805">
        <ele>1215</ele>
        <time>2013-09-15T10:36:50.000Z</time>
      </trkpt>
      <trkpt lat="44.96285" lon="5.5481">
        <ele>1215</ele>
        <time>2013-09-15T10:36:52.000Z</time>
      </trkpt>
      <trkpt lat="44.9629" lon="5.5481">
        <ele>1215</ele>
        <time>2013-09-15T10:36:54.000Z</time>
      </trkpt>
      <trkpt lat="44.96294" lon="5.54812">
        <ele>1215</ele>
        <time>2013-09-15T10:36:56.000Z</time>
      </trkpt>
      <trkpt lat="44.96302" lon="5.5481">
        <ele>1214</ele>
        <time>2013-09-15T10:36:59.000Z</time>
      </trkpt>
      <trkpt lat="44.96307" lon="5.54807">
        <ele>1214</ele>
        <time>2013-09-15T10:37:01.000Z</time>
      </trkpt>
      <trkpt lat="44.96314" lon="5.54801">
        <ele>1214</ele>
        <time>2013-09-15T10:37:03.000Z</time>
      </trkpt>
      <trkpt lat="44.9632" lon="5.54797">
        <ele>1214</ele>
        <time>2013-09-15T10:37:05.000Z</time>
      </trkpt>
      <trkpt lat="44.96326" lon="5.54792">
        <ele>1214</ele>
        <time>2013-09-15T10:37:07.000Z</time>
      </trkpt>
      <trkpt lat="44.96334" lon="5.54786">
        <ele>1213</ele>
        <time>2013-09-15T10:37:09.000Z</time>
      </trkpt>
      <trkpt lat="44.9634" lon="5.5478">
        <ele>1213</ele>
        <time>2013-09-15T10:37:11.000Z</time>
      </trkpt>
      <trkpt lat="44.96347" lon="5.54773">
        <ele>1213</ele>
        <time>2013-09-15T10:37:13.000Z</time>
      </trkpt>
      <trkpt lat="44.96351" lon="5.54769">
        <ele>1212</ele>
        <time>2013-09-15T10:37:14.000Z</time>
      </trkpt>
      <trkpt lat="44.9636" lon="5.54764">
        <ele>1211</ele>
        <time>2013-09-15T10:37:16.000Z</time>
      </trkpt>
      <trkpt lat="44.96365" lon="5.5476">
        <ele>1209</ele>
        <time>2013-09-15T10:37:17.000Z</time>
      </trkpt>
      <trkpt lat="44.96372" lon="5.54756">
        <ele>1208</ele>
        <time>2013-09-15T10:37:18.000Z</time>
      </trkpt>
      <trkpt lat="44.96378" lon="5.54754">
        <ele>1207</ele>
        <time>2013-09-15T10:37:19.000Z</time>
      </trkpt>
      <trkpt lat="44.96383" lon="5.54752">
        <ele>1206</ele>
        <time>2013-09-15T10:37:20.000Z</time>
      </trkpt>
      <trkpt lat="44.96391" lon="5.54747">
        <ele>1204</ele>
        <time>2013-09-15T10:37:21.000Z</time>
      </trkpt>
      <trkpt lat="44.964" lon="5.54741">
        <ele>1201</ele>
        <time>2013-09-15T10:37:22.000Z</time>
      </trkpt>
      <trkpt lat="44.9641" lon="5.54737">
        <ele>1201</ele>
        <time>2013-09-15T10:37:23.000Z</time>
      </trkpt>
      <trkpt lat="44.9641" lon="5.54737">
        <ele>1201</ele>
        <time>2013-09-15T10:37:23.000Z</time>
      </trkpt>
      <trkpt lat="44.9641" lon="5.54737">
        <ele>1201</ele>
        <time>2013-09-15T10:37:24.000Z</time>
      </trkpt>
      <trkpt lat="44.96428" lon="5.54737">
        <ele>1200</ele>
        <time>2013-09-15T10:37:25.000Z</time>
      </trkpt>
      <trkpt lat="44.96428" lon="5.54737">
        <ele>1200</ele>
        <time>2013-09-15T10:37:25.000Z</time>
      </trkpt>
      <trkpt lat="44.96428" lon="5.54737">
        <ele>1200</ele>
        <time>2013-09-15T10:37:26.000Z</time>
      </trkpt>
      <trkpt lat="44.96442" lon="5.54739">
        <ele>1200</ele>
        <time>2013-09-15T10:37:27.000Z</time>
      </trkpt>
      <trkpt lat="44.96442" lon="5.54739">
        <ele>1200</ele>
        <time>2013-09-15T10:37:27.000Z</time>
      </trkpt>
      <trkpt lat="44.96442" lon="5.54739">
        <ele>1200</ele>
        <time>2013-09-15T10:37:29.000Z</time>
      </trkpt>
      <trkpt lat="44.96452" lon="5.54739">
        <ele>1200</ele>
        <time>2013-09-15T10:37:30.000Z</time>
      </trkpt>
      <trkpt lat="44.96452" lon="5.54739">
        <ele>1200</ele>
        <time>2013-09-15T10:37:30.000Z</time>
      </trkpt>
      <trkpt lat="44.96452" lon="5.54739">
        <ele>1200</ele>
        <time>2013-09-15T10:38:52.000Z</time>
      </trkpt>
      <trkpt lat="44.96463" lon="5.54737">
        <ele>1198</ele>
        <time>2013-09-15T10:38:53.000Z</time>
      </trkpt>
      <trkpt lat="44.96463" lon="5.54737">
        <ele>1198</ele>
        <time>2013-09-15T10:38:53.000Z</time>
      </trkpt>
      <trkpt lat="44.96463" lon="5.54737">
        <ele>1198</ele>
        <time>2013-09-15T10:38:55.000Z</time>
      </trkpt>
      <trkpt lat="44.96472" lon="5.54741">
        <ele>1198</ele>
        <time>2013-09-15T10:38:56.000Z</time>
      </trkpt>
      <trkpt lat="44.96472" lon="5.54741">
        <ele>1198</ele>
        <time>2013-09-15T10:38:56.000Z</time>
      </trkpt>
      <trkpt lat="44.96472" lon="5.54741">
        <ele>1198</ele>
        <time>2013-09-15T10:38:57.000Z</time>
      </trkpt>
      <trkpt lat="44.96482" lon="5.54745">
        <ele>1198</ele>
        <time>2013-09-15T10:38:58.000Z</time>
      </trkpt>
      <trkpt lat="44.96482" lon="5.54745">
        <ele>1198</ele>
        <time>2013-09-15T10:38:58.000Z</time>
      </trkpt>
      <trkpt lat="44.96482" lon="5.54745">
        <ele>1198</ele>
        <time>2013-09-15T10:39:01.000Z</time>
      </trkpt>
      <trkpt lat="44.96488" lon="5.54756">
        <ele>1198</ele>
        <time>2013-09-15T10:39:02.000Z</time>
      </trkpt>
      <trkpt lat="44.96488" lon="5.54756">
        <ele>1198</ele>
        <time>2013-09-15T10:39:02.000Z</time>
      </trkpt>
      <trkpt lat="44.96488" lon="5.54756">
        <ele>1198</ele>
        <time>2013-09-15T10:39:08.000Z</time>
      </trkpt>
      <trkpt lat="44.96496" lon="5.54764">
        <ele>1198</ele>
        <time>2013-09-15T10:39:09.000Z</time>
      </trkpt>
      <trkpt lat="44.96496" lon="5.54764">
        <ele>1198</ele>
        <time>2013-09-15T10:39:09.000Z</time>
      </trkpt>
      <trkpt lat="44.96496" lon="5.54764">
        <ele>1198</ele>
        <time>2013-09-15T10:39:13.000Z</time>
      </trkpt>
      <trkpt lat="44.96501" lon="5.54775">
        <ele>1198</ele>
        <time>2013-09-15T10:39:14.000Z</time>
      </trkpt>
      <trkpt lat="44.96501" lon="5.54775">
        <ele>1198</ele>
        <time>2013-09-15T10:39:14.000Z</time>
      </trkpt>
      <trkpt lat="44.96501" lon="5.54775">
        <ele>1198</ele>
        <time>2013-09-15T10:39:17.000Z</time>
      </trkpt>
      <trkpt lat="44.96513" lon="5.5478">
        <ele>1198</ele>
        <time>2013-09-15T10:39:18.000Z</time>
      </trkpt>
      <trkpt lat="44.96513" lon="5.5478">
        <ele>1198</ele>
        <time>2013-09-15T10:39:18.000Z</time>
      </trkpt>
      <trkpt lat="44.96513" lon="5.5478">
        <ele>1198</ele>
        <time>2013-09-15T10:39:21.000Z</time>
      </trkpt>
      <trkpt lat="44.9652" lon="5.5479">
        <ele>1198</ele>
        <time>2013-09-15T10:39:22.000Z</time>
      </trkpt>
      <trkpt lat="44.9652" lon="5.5479">
        <ele>1198</ele>
        <time>2013-09-15T10:39:22.000Z</time>
      </trkpt>
      <trkpt lat="44.9652" lon="5.5479">
        <ele>1198</ele>
        <time>2013-09-15T10:39:26.000Z</time>
      </trkpt>
      <trkpt lat="44.96526" lon="5.54801">
        <ele>1198</ele>
        <time>2013-09-15T10:39:27.000Z</time>
      </trkpt>
      <trkpt lat="44.96526" lon="5.54801">
        <ele>1198</ele>
        <time>2013-09-15T10:39:27.000Z</time>
      </trkpt>
      <trkpt lat="44.96526" lon="5.54801">
        <ele>1198</ele>
        <time>2013-09-15T10:39:32.000Z</time>
      </trkpt>
      <trkpt lat="44.96531" lon="5.54812">
        <ele>1197</ele>
        <time>2013-09-15T10:39:33.000Z</time>
      </trkpt>
      <trkpt lat="44.96531" lon="5.54812">
        <ele>1197</ele>
        <time>2013-09-15T10:39:33.000Z</time>
      </trkpt>
      <trkpt lat="44.96531" lon="5.54812">
        <ele>1197</ele>
        <time>2013-09-15T10:39:38.000Z</time>
      </trkpt>
      <trkpt lat="44.96538" lon="5.54824">
        <ele>1197</ele>
        <time>2013-09-15T10:39:39.000Z</time>
      </trkpt>
      <trkpt lat="44.96538" lon="5.54824">
        <ele>1197</ele>
        <time>2013-09-15T10:39:39.000Z</time>
      </trkpt>
      <trkpt lat="44.96538" lon="5.54824">
        <ele>1197</ele>
        <time>2013-09-15T10:39:42.000Z</time>
      </trkpt>
      <trkpt lat="44.96544" lon="5.54835">
        <ele>1197</ele>
        <time>2013-09-15T10:39:43.000Z</time>
      </trkpt>
      <trkpt lat="44.96544" lon="5.54835">
        <ele>1197</ele>
        <time>2013-09-15T10:39:43.000Z</time>
      </trkpt>
      <trkpt lat="44.96544" lon="5.54835">
        <ele>1197</ele>
        <time>2013-09-15T10:39:45.000Z</time>
      </trkpt>
      <trkpt lat="44.96553" lon="5.54842">
        <ele>1197</ele>
        <time>2013-09-15T10:39:46.000Z</time>
      </trkpt>
      <trkpt lat="44.96567" lon="5.54848">
        <ele>1197</ele>
        <time>2013-09-15T10:39:50.000Z</time>
      </trkpt>
      <trkpt lat="44.96567" lon="5.54848">
        <ele>1197</ele>
        <time>2013-09-15T10:39:50.000Z</time>
      </trkpt>
      <trkpt lat="44.96567" lon="5.54848">
        <ele>1197</ele>
        <time>2013-09-15T10:39:52.000Z</time>
      </trkpt>
      <trkpt lat="44.96575" lon="5.54855">
        <ele>1197</ele>
        <time>2013-09-15T10:39:53.000Z</time>
      </trkpt>
      <trkpt lat="44.96575" lon="5.54855">
        <ele>1197</ele>
        <time>2013-09-15T10:39:53.000Z</time>
      </trkpt>
      <trkpt lat="44.96575" lon="5.54855">
        <ele>1197</ele>
        <time>2013-09-15T10:39:55.000Z</time>
      </trkpt>
      <trkpt lat="44.96585" lon="5.54857">
        <ele>1197</ele>
        <time>2013-09-15T10:39:56.000Z</time>
      </trkpt>
      <trkpt lat="44.96585" lon="5.54857">
        <ele>1197</ele>
        <time>2013-09-15T10:39:56.000Z</time>
      </trkpt>
      <trkpt lat="44.96585" lon="5.54857">
        <ele>1197</ele>
        <time>2013-09-15T10:39:58.000Z</time>
      </trkpt>
      <trkpt lat="44.96595" lon="5.54857">
        <ele>1197</ele>
        <time>2013-09-15T10:39:59.000Z</time>
      </trkpt>
      <trkpt lat="44.96595" lon="5.54857">
        <ele>1197</ele>
        <time>2013-09-15T10:39:59.000Z</time>
      </trkpt>
      <trkpt lat="44.96595" lon="5.54857">
        <ele>1197</ele>
        <time>2013-09-15T10:40:01.000Z</time>
      </trkpt>
      <trkpt lat="44.96604" lon="5.54857">
        <ele>1197</ele>
        <time>2013-09-15T10:40:02.000Z</time>
      </trkpt>
      <trkpt lat="44.96604" lon="5.54857">
        <ele>1197</ele>
        <time>2013-09-15T10:40:02.000Z</time>
      </trkpt>
      <trkpt lat="44.96604" lon="5.54857">
        <ele>1197</ele>
        <time>2013-09-15T10:40:05.000Z</time>
      </trkpt>
      <trkpt lat="44.96615" lon="5.54855">
        <ele>1196</ele>
        <time>2013-09-15T10:40:06.000Z</time>
      </trkpt>
      <trkpt lat="44.96615" lon="5.54855">
        <ele>1196</ele>
        <time>2013-09-15T10:40:06.000Z</time>
      </trkpt>
      <trkpt lat="44.96615" lon="5.54855">
        <ele>1196</ele>
        <time>2013-09-15T10:40:07.000Z</time>
      </trkpt>
      <trkpt lat="44.96621" lon="5.54844">
        <ele>1196</ele>
        <time>2013-09-15T10:40:08.000Z</time>
      </trkpt>
      <trkpt lat="44.96626" lon="5.54837">
        <ele>1196</ele>
        <time>2013-09-15T10:40:09.000Z</time>
      </trkpt>
      <trkpt lat="44.96629" lon="5.54831">
        <ele>1196</ele>
        <time>2013-09-15T10:40:10.000Z</time>
      </trkpt>
      <trkpt lat="44.96633" lon="5.54827">
        <ele>1196</ele>
        <time>2013-09-15T10:40:11.000Z</time>
      </trkpt>
      <trkpt lat="44.96638" lon="5.54822">
        <ele>1196</ele>
        <time>2013-09-15T10:40:12.000Z</time>
      </trkpt>
      <trkpt lat="44.96641" lon="5.54816">
        <ele>1195</ele>
        <time>2013-09-15T10:40:13.000Z</time>
      </trkpt>
      <trkpt lat="44.96648" lon="5.54805">
        <ele>1195</ele>
        <time>2013-09-15T10:40:15.000Z</time>
      </trkpt>
      <trkpt lat="44.96654" lon="5.54794">
        <ele>1195</ele>
        <time>2013-09-15T10:40:17.000Z</time>
      </trkpt>
      <trkpt lat="44.96657" lon="5.54788">
        <ele>1195</ele>
        <time>2013-09-15T10:40:18.000Z</time>
      </trkpt>
      <trkpt lat="44.96661" lon="5.54782">
        <ele>1195</ele>
        <time>2013-09-15T10:40:19.000Z</time>
      </trkpt>
      <trkpt lat="44.96665" lon="5.54777">
        <ele>1195</ele>
        <time>2013-09-15T10:40:20.000Z</time>
      </trkpt>
      <trkpt lat="44.96669" lon="5.54771">
        <ele>1195</ele>
        <time>2013-09-15T10:40:21.000Z</time>
      </trkpt>
      <trkpt lat="44.96675" lon="5.54762">
        <ele>1195</ele>
        <time>2013-09-15T10:40:23.000Z</time>
      </trkpt>
      <trkpt lat="44.96678" lon="5.54756">
        <ele>1195</ele>
        <time>2013-09-15T10:40:24.000Z</time>
      </trkpt>
      <trkpt lat="44.96685" lon="5.54747">
        <ele>1195</ele>
        <time>2013-09-15T10:40:26.000Z</time>
      </trkpt>
      <trkpt lat="44.96692" lon="5.54737">
        <ele>1194</ele>
        <time>2013-09-15T10:40:28.000Z</time>
      </trkpt>
      <trkpt lat="44.96696" lon="5.54732">
        <ele>1194</ele>
        <time>2013-09-15T10:40:29.000Z</time>
      </trkpt>
      <trkpt lat="44.96704" lon="5.54724">
        <ele>1194</ele>
        <time>2013-09-15T10:40:31.000Z</time>
      </trkpt>
      <trkpt lat="44.96708" lon="5.54719">
        <ele>1193</ele>
        <time>2013-09-15T10:40:32.000Z</time>
      </trkpt>
      <trkpt lat="44.96713" lon="5.54715">
        <ele>1193</ele>
        <time>2013-09-15T10:40:33.000Z</time>
      </trkpt>
      <trkpt lat="44.96717" lon="5.54713">
        <ele>1193</ele>
        <time>2013-09-15T10:40:34.000Z</time>
      </trkpt>
      <trkpt lat="44.96721" lon="5.54709">
        <ele>1192</ele>
        <time>2013-09-15T10:40:35.000Z</time>
      </trkpt>
      <trkpt lat="44.96726" lon="5.54706">
        <ele>1192</ele>
        <time>2013-09-15T10:40:36.000Z</time>
      </trkpt>
      <trkpt lat="44.9673" lon="5.54702">
        <ele>1192</ele>
        <time>2013-09-15T10:40:37.000Z</time>
      </trkpt>
      <trkpt lat="44.96737" lon="5.54696">
        <ele>1191</ele>
        <time>2013-09-15T10:40:39.000Z</time>
      </trkpt>
      <trkpt lat="44.96737" lon="5.54696">
        <ele>1191</ele>
        <time>2013-09-15T10:40:39.000Z</time>
      </trkpt>
      <trkpt lat="44.96737" lon="5.54696">
        <ele>1191</ele>
        <time>2013-09-15T10:40:53.000Z</time>
      </trkpt>
      <trkpt lat="44.96743" lon="5.54692">
        <ele>1191</ele>
        <time>2013-09-15T10:40:54.000Z</time>
      </trkpt>
      <trkpt lat="44.96743" lon="5.54692">
        <ele>1191</ele>
        <time>2013-09-15T10:40:54.000Z</time>
      </trkpt>
      <trkpt lat="44.96743" lon="5.54692">
        <ele>1191</ele>
        <time>2013-09-15T10:41:59.000Z</time>
      </trkpt>
      <trkpt lat="44.96751" lon="5.54689">
        <ele>1191</ele>
        <time>2013-09-15T10:42:00.000Z</time>
      </trkpt>
      <trkpt lat="44.96751" lon="5.54689">
        <ele>1191</ele>
        <time>2013-09-15T10:42:00.000Z</time>
      </trkpt>
      <trkpt lat="44.96751" lon="5.54689">
        <ele>1191</ele>
        <time>2013-09-15T10:42:01.000Z</time>
      </trkpt>
      <trkpt lat="44.9676" lon="5.54685">
        <ele>1191</ele>
        <time>2013-09-15T10:42:02.000Z</time>
      </trkpt>
      <trkpt lat="44.96767" lon="5.54681">
        <ele>1191</ele>
        <time>2013-09-15T10:42:03.000Z</time>
      </trkpt>
      <trkpt lat="44.96774" lon="5.54679">
        <ele>1191</ele>
        <time>2013-09-15T10:42:04.000Z</time>
      </trkpt>
      <trkpt lat="44.96781" lon="5.54676">
        <ele>1191</ele>
        <time>2013-09-15T10:42:05.000Z</time>
      </trkpt>
      <trkpt lat="44.96787" lon="5.54672">
        <ele>1191</ele>
        <time>2013-09-15T10:42:06.000Z</time>
      </trkpt>
      <trkpt lat="44.96792" lon="5.5467">
        <ele>1191</ele>
        <time>2013-09-15T10:42:07.000Z</time>
      </trkpt>
      <trkpt lat="44.96796" lon="5.54668">
        <ele>1191</ele>
        <time>2013-09-15T10:42:08.000Z</time>
      </trkpt>
      <trkpt lat="44.96801" lon="5.54666">
        <ele>1191</ele>
        <time>2013-09-15T10:42:09.000Z</time>
      </trkpt>
      <trkpt lat="44.96807" lon="5.54662">
        <ele>1191</ele>
        <time>2013-09-15T10:42:11.000Z</time>
      </trkpt>
      <trkpt lat="44.96814" lon="5.54657">
        <ele>1191</ele>
        <time>2013-09-15T10:42:13.000Z</time>
      </trkpt>
      <trkpt lat="44.96819" lon="5.54653">
        <ele>1191</ele>
        <time>2013-09-15T10:42:15.000Z</time>
      </trkpt>
      <trkpt lat="44.96825" lon="5.54649">
        <ele>1191</ele>
        <time>2013-09-15T10:42:17.000Z</time>
      </trkpt>
      <trkpt lat="44.96833" lon="5.54644">
        <ele>1191</ele>
        <time>2013-09-15T10:42:19.000Z</time>
      </trkpt>
      <trkpt lat="44.9684" lon="5.5464">
        <ele>1191</ele>
        <time>2013-09-15T10:42:21.000Z</time>
      </trkpt>
      <trkpt lat="44.96848" lon="5.54634">
        <ele>1191</ele>
        <time>2013-09-15T10:42:23.000Z</time>
      </trkpt>
      <trkpt lat="44.96854" lon="5.54629">
        <ele>1191</ele>
        <time>2013-09-15T10:42:25.000Z</time>
      </trkpt>
      <trkpt lat="44.96861" lon="5.54621">
        <ele>1190</ele>
        <time>2013-09-15T10:42:27.000Z</time>
      </trkpt>
      <trkpt lat="44.96863" lon="5.54614">
        <ele>1189</ele>
        <time>2013-09-15T10:42:28.000Z</time>
      </trkpt>
      <trkpt lat="44.9687" lon="5.54606">
        <ele>1189</ele>
        <time>2013-09-15T10:42:30.000Z</time>
      </trkpt>
      <trkpt lat="44.96875" lon="5.54601">
        <ele>1189</ele>
        <time>2013-09-15T10:42:31.000Z</time>
      </trkpt>
      <trkpt lat="44.96879" lon="5.54597">
        <ele>1188</ele>
        <time>2013-09-15T10:42:32.000Z</time>
      </trkpt>
      <trkpt lat="44.96883" lon="5.54595">
        <ele>1188</ele>
        <time>2013-09-15T10:42:33.000Z</time>
      </trkpt>
      <trkpt lat="44.96889" lon="5.54591">
        <ele>1188</ele>
        <time>2013-09-15T10:42:34.000Z</time>
      </trkpt>
      <trkpt lat="44.96897" lon="5.54588">
        <ele>1188</ele>
        <time>2013-09-15T10:42:36.000Z</time>
      </trkpt>
      <trkpt lat="44.96902" lon="5.54591">
        <ele>1187</ele>
        <time>2013-09-15T10:42:37.000Z</time>
      </trkpt>
      <trkpt lat="44.96911" lon="5.54593">
        <ele>1187</ele>
        <time>2013-09-15T10:42:39.000Z</time>
      </trkpt>
      <trkpt lat="44.96918" lon="5.54593">
        <ele>1187</ele>
        <time>2013-09-15T10:42:41.000Z</time>
      </trkpt>
      <trkpt lat="44.96924" lon="5.54593">
        <ele>1187</ele>
        <time>2013-09-15T10:42:43.000Z</time>
      </trkpt>
      <trkpt lat="44.9693" lon="5.54593">
        <ele>1187</ele>
        <time>2013-09-15T10:42:45.000Z</time>
      </trkpt>
      <trkpt lat="44.96938" lon="5.54584">
        <ele>1188</ele>
        <time>2013-09-15T10:42:47.000Z</time>
      </trkpt>
      <trkpt lat="44.96942" lon="5.5458">
        <ele>1188</ele>
        <time>2013-09-15T10:42:48.000Z</time>
      </trkpt>
      <trkpt lat="44.9695" lon="5.54571">
        <ele>1189</ele>
        <time>2013-09-15T10:42:50.000Z</time>
      </trkpt>
      <trkpt lat="44.96957" lon="5.54563">
        <ele>1189</ele>
        <time>2013-09-15T10:42:52.000Z</time>
      </trkpt>
      <trkpt lat="44.96964" lon="5.54554">
        <ele>1188</ele>
        <time>2013-09-15T10:42:54.000Z</time>
      </trkpt>
      <trkpt lat="44.9697" lon="5.54546">
        <ele>1188</ele>
        <time>2013-09-15T10:42:56.000Z</time>
      </trkpt>
      <trkpt lat="44.96977" lon="5.54539">
        <ele>1188</ele>
        <time>2013-09-15T10:42:58.000Z</time>
      </trkpt>
      <trkpt lat="44.96982" lon="5.54531">
        <ele>1188</ele>
        <time>2013-09-15T10:43:00.000Z</time>
      </trkpt>
      <trkpt lat="44.96987" lon="5.54524">
        <ele>1188</ele>
        <time>2013-09-15T10:43:02.000Z</time>
      </trkpt>
      <trkpt lat="44.96994" lon="5.54518">
        <ele>1188</ele>
        <time>2013-09-15T10:43:04.000Z</time>
      </trkpt>
      <trkpt lat="44.96998" lon="5.54509">
        <ele>1187</ele>
        <time>2013-09-15T10:43:06.000Z</time>
      </trkpt>
      <trkpt lat="44.97003" lon="5.54503">
        <ele>1187</ele>
        <time>2013-09-15T10:43:08.000Z</time>
      </trkpt>
      <trkpt lat="44.9701" lon="5.54496">
        <ele>1187</ele>
        <time>2013-09-15T10:43:10.000Z</time>
      </trkpt>
      <trkpt lat="44.97015" lon="5.5449">
        <ele>1187</ele>
        <time>2013-09-15T10:43:12.000Z</time>
      </trkpt>
      <trkpt lat="44.97021" lon="5.54483">
        <ele>1187</ele>
        <time>2013-09-15T10:43:14.000Z</time>
      </trkpt>
      <trkpt lat="44.97026" lon="5.54477">
        <ele>1187</ele>
        <time>2013-09-15T10:43:16.000Z</time>
      </trkpt>
      <trkpt lat="44.97031" lon="5.5447">
        <ele>1186</ele>
        <time>2013-09-15T10:43:18.000Z</time>
      </trkpt>
      <trkpt lat="44.97038" lon="5.54464">
        <ele>1186</ele>
        <time>2013-09-15T10:43:20.000Z</time>
      </trkpt>
      <trkpt lat="44.97044" lon="5.54458">
        <ele>1186</ele>
        <time>2013-09-15T10:43:22.000Z</time>
      </trkpt>
      <trkpt lat="44.9705" lon="5.54453">
        <ele>1186</ele>
        <time>2013-09-15T10:43:24.000Z</time>
      </trkpt>
      <trkpt lat="44.97055" lon="5.54447">
        <ele>1185</ele>
        <time>2013-09-15T10:43:26.000Z</time>
      </trkpt>
      <trkpt lat="44.97059" lon="5.54443">
        <ele>1185</ele>
        <time>2013-09-15T10:43:28.000Z</time>
      </trkpt>
      <trkpt lat="44.97066" lon="5.54436">
        <ele>1185</ele>
        <time>2013-09-15T10:43:30.000Z</time>
      </trkpt>
      <trkpt lat="44.97073" lon="5.54428">
        <ele>1182</ele>
        <time>2013-09-15T10:43:32.000Z</time>
      </trkpt>
      <trkpt lat="44.97081" lon="5.54419">
        <ele>1180</ele>
        <time>2013-09-15T10:43:34.000Z</time>
      </trkpt>
      <trkpt lat="44.97085" lon="5.54415">
        <ele>1179</ele>
        <time>2013-09-15T10:43:35.000Z</time>
      </trkpt>
      <trkpt lat="44.9709" lon="5.54413">
        <ele>1178</ele>
        <time>2013-09-15T10:43:36.000Z</time>
      </trkpt>
      <trkpt lat="44.97095" lon="5.54408">
        <ele>1178</ele>
        <time>2013-09-15T10:43:37.000Z</time>
      </trkpt>
      <trkpt lat="44.97099" lon="5.54406">
        <ele>1177</ele>
        <time>2013-09-15T10:43:38.000Z</time>
      </trkpt>
      <trkpt lat="44.9711" lon="5.54398">
        <ele>1176</ele>
        <time>2013-09-15T10:43:40.000Z</time>
      </trkpt>
      <trkpt lat="44.97116" lon="5.54391">
        <ele>1176</ele>
        <time>2013-09-15T10:43:41.000Z</time>
      </trkpt>
      <trkpt lat="44.97122" lon="5.54387">
        <ele>1176</ele>
        <time>2013-09-15T10:43:42.000Z</time>
      </trkpt>
      <trkpt lat="44.97129" lon="5.5438">
        <ele>1175</ele>
        <time>2013-09-15T10:43:43.000Z</time>
      </trkpt>
      <trkpt lat="44.97134" lon="5.54376">
        <ele>1175</ele>
        <time>2013-09-15T10:43:44.000Z</time>
      </trkpt>
      <trkpt lat="44.97139" lon="5.5437">
        <ele>1175</ele>
        <time>2013-09-15T10:43:45.000Z</time>
      </trkpt>
      <trkpt lat="44.97144" lon="5.54361">
        <ele>1175</ele>
        <time>2013-09-15T10:43:46.000Z</time>
      </trkpt>
      <trkpt lat="44.97149" lon="5.54352">
        <ele>1175</ele>
        <time>2013-09-15T10:43:47.000Z</time>
      </trkpt>
      <trkpt lat="44.97157" lon="5.54342">
        <ele>1175</ele>
        <time>2013-09-15T10:43:48.000Z</time>
      </trkpt>
      <trkpt lat="44.97163" lon="5.54333">
        <ele>1174</ele>
        <time>2013-09-15T10:43:49.000Z</time>
      </trkpt>
      <trkpt lat="44.9717" lon="5.54327">
        <ele>1174</ele>
        <time>2013-09-15T10:43:50.000Z</time>
      </trkpt>
      <trkpt lat="44.97177" lon="5.54318">
        <ele>1173</ele>
        <time>2013-09-15T10:43:51.000Z</time>
      </trkpt>
      <trkpt lat="44.97184" lon="5.54312">
        <ele>1173</ele>
        <time>2013-09-15T10:43:52.000Z</time>
      </trkpt>
      <trkpt lat="44.97191" lon="5.54305">
        <ele>1172</ele>
        <time>2013-09-15T10:43:53.000Z</time>
      </trkpt>
      <trkpt lat="44.97198" lon="5.54301">
        <ele>1172</ele>
        <time>2013-09-15T10:43:54.000Z</time>
      </trkpt>
      <trkpt lat="44.97205" lon="5.54299">
        <ele>1171</ele>
        <time>2013-09-15T10:43:55.000Z</time>
      </trkpt>
      <trkpt lat="44.97213" lon="5.54297">
        <ele>1171</ele>
        <time>2013-09-15T10:43:56.000Z</time>
      </trkpt>
      <trkpt lat="44.97219" lon="5.54297">
        <ele>1171</ele>
        <time>2013-09-15T10:43:57.000Z</time>
      </trkpt>
      <trkpt lat="44.97226" lon="5.54294">
        <ele>1171</ele>
        <time>2013-09-15T10:43:58.000Z</time>
      </trkpt>
      <trkpt lat="44.97233" lon="5.54301">
        <ele>1172</ele>
        <time>2013-09-15T10:43:59.000Z</time>
      </trkpt>
      <trkpt lat="44.9724" lon="5.54305">
        <ele>1172</ele>
        <time>2013-09-15T10:44:00.000Z</time>
      </trkpt>
      <trkpt lat="44.97246" lon="5.54314">
        <ele>1172</ele>
        <time>2013-09-15T10:44:01.000Z</time>
      </trkpt>
      <trkpt lat="44.97248" lon="5.54325">
        <ele>1173</ele>
        <time>2013-09-15T10:44:02.000Z</time>
      </trkpt>
      <trkpt lat="44.97251" lon="5.54333">
        <ele>1173</ele>
        <time>2013-09-15T10:44:03.000Z</time>
      </trkpt>
      <trkpt lat="44.97254" lon="5.54344">
        <ele>1174</ele>
        <time>2013-09-15T10:44:04.000Z</time>
      </trkpt>
      <trkpt lat="44.97259" lon="5.54352">
        <ele>1174</ele>
        <time>2013-09-15T10:44:05.000Z</time>
      </trkpt>
      <trkpt lat="44.97263" lon="5.54361">
        <ele>1174</ele>
        <time>2013-09-15T10:44:06.000Z</time>
      </trkpt>
      <trkpt lat="44.97268" lon="5.5437">
        <ele>1174</ele>
        <time>2013-09-15T10:44:07.000Z</time>
      </trkpt>
      <trkpt lat="44.97274" lon="5.54376">
        <ele>1174</ele>
        <time>2013-09-15T10:44:08.000Z</time>
      </trkpt>
      <trkpt lat="44.97279" lon="5.54385">
        <ele>1174</ele>
        <time>2013-09-15T10:44:09.000Z</time>
      </trkpt>
      <trkpt lat="44.97284" lon="5.54391">
        <ele>1174</ele>
        <time>2013-09-15T10:44:10.000Z</time>
      </trkpt>
      <trkpt lat="44.9729" lon="5.54398">
        <ele>1174</ele>
        <time>2013-09-15T10:44:11.000Z</time>
      </trkpt>
      <trkpt lat="44.97294" lon="5.54402">
        <ele>1173</ele>
        <time>2013-09-15T10:44:12.000Z</time>
      </trkpt>
      <trkpt lat="44.97303" lon="5.54404">
        <ele>1173</ele>
        <time>2013-09-15T10:44:14.000Z</time>
      </trkpt>
      <trkpt lat="44.97309" lon="5.54406">
        <ele>1173</ele>
        <time>2013-09-15T10:44:16.000Z</time>
      </trkpt>
      <trkpt lat="44.97309" lon="5.54406">
        <ele>1173</ele>
        <time>2013-09-15T10:44:16.000Z</time>
      </trkpt>
      <trkpt lat="44.97309" lon="5.54406">
        <ele>1173</ele>
        <time>2013-09-15T10:44:19.000Z</time>
      </trkpt>
      <trkpt lat="44.9732" lon="5.5441">
        <ele>1173</ele>
        <time>2013-09-15T10:44:20.000Z</time>
      </trkpt>
      <trkpt lat="44.9732" lon="5.5441">
        <ele>1173</ele>
        <time>2013-09-15T10:44:20.000Z</time>
      </trkpt>
      <trkpt lat="44.9732" lon="5.5441">
        <ele>1173</ele>
        <time>2013-09-15T10:44:25.000Z</time>
      </trkpt>
      <trkpt lat="44.9733" lon="5.54417">
        <ele>1173</ele>
        <time>2013-09-15T10:44:26.000Z</time>
      </trkpt>
      <trkpt lat="44.9733" lon="5.54417">
        <ele>1173</ele>
        <time>2013-09-15T10:44:26.000Z</time>
      </trkpt>
      <trkpt lat="44.9733" lon="5.54417">
        <ele>1173</ele>
        <time>2013-09-15T10:44:30.000Z</time>
      </trkpt>
      <trkpt lat="44.97336" lon="5.54425">
        <ele>1172</ele>
        <time>2013-09-15T10:44:31.000Z</time>
      </trkpt>
      <trkpt lat="44.97336" lon="5.54425">
        <ele>1172</ele>
        <time>2013-09-15T10:44:31.000Z</time>
      </trkpt>
      <trkpt lat="44.97336" lon="5.54425">
        <ele>1172</ele>
        <time>2013-09-15T10:44:35.000Z</time>
      </trkpt>
      <trkpt lat="44.97344" lon="5.54438">
        <ele>1172</ele>
        <time>2013-09-15T10:44:36.000Z</time>
      </trkpt>
      <trkpt lat="44.97344" lon="5.54438">
        <ele>1172</ele>
        <time>2013-09-15T10:44:36.000Z</time>
      </trkpt>
      <trkpt lat="44.97344" lon="5.54438">
        <ele>1172</ele>
        <time>2013-09-15T10:44:40.000Z</time>
      </trkpt>
      <trkpt lat="44.97349" lon="5.54451">
        <ele>1172</ele>
        <time>2013-09-15T10:44:41.000Z</time>
      </trkpt>
      <trkpt lat="44.97349" lon="5.54451">
        <ele>1172</ele>
        <time>2013-09-15T10:44:41.000Z</time>
      </trkpt>
      <trkpt lat="44.97349" lon="5.54451">
        <ele>1172</ele>
        <time>2013-09-15T10:44:46.000Z</time>
      </trkpt>
      <trkpt lat="44.97354" lon="5.54462">
        <ele>1172</ele>
        <time>2013-09-15T10:44:47.000Z</time>
      </trkpt>
      <trkpt lat="44.97354" lon="5.54462">
        <ele>1172</ele>
        <time>2013-09-15T10:44:47.000Z</time>
      </trkpt>
      <trkpt lat="44.97354" lon="5.54462">
        <ele>1172</ele>
        <time>2013-09-15T10:44:53.000Z</time>
      </trkpt>
      <trkpt lat="44.97357" lon="5.54475">
        <ele>1172</ele>
        <time>2013-09-15T10:44:54.000Z</time>
      </trkpt>
      <trkpt lat="44.97357" lon="5.54475">
        <ele>1172</ele>
        <time>2013-09-15T10:44:54.000Z</time>
      </trkpt>
      <trkpt lat="44.97357" lon="5.54475">
        <ele>1172</ele>
        <time>2013-09-15T10:44:59.000Z</time>
      </trkpt>
      <trkpt lat="44.97361" lon="5.54488">
        <ele>1172</ele>
        <time>2013-09-15T10:45:00.000Z</time>
      </trkpt>
      <trkpt lat="44.97361" lon="5.54488">
        <ele>1172</ele>
        <time>2013-09-15T10:45:00.000Z</time>
      </trkpt>
      <trkpt lat="44.97361" lon="5.54488">
        <ele>1172</ele>
        <time>2013-09-15T10:45:05.000Z</time>
      </trkpt>
      <trkpt lat="44.97366" lon="5.54498">
        <ele>1172</ele>
        <time>2013-09-15T10:45:06.000Z</time>
      </trkpt>
      <trkpt lat="44.97366" lon="5.54498">
        <ele>1172</ele>
        <time>2013-09-15T10:45:06.000Z</time>
      </trkpt>
      <trkpt lat="44.97366" lon="5.54498">
        <ele>1172</ele>
        <time>2013-09-15T10:45:10.000Z</time>
      </trkpt>
      <trkpt lat="44.97369" lon="5.54511">
        <ele>1172</ele>
        <time>2013-09-15T10:45:11.000Z</time>
      </trkpt>
      <trkpt lat="44.97369" lon="5.54511">
        <ele>1172</ele>
        <time>2013-09-15T10:45:11.000Z</time>
      </trkpt>
      <trkpt lat="44.97369" lon="5.54511">
        <ele>1172</ele>
        <time>2013-09-15T10:45:13.000Z</time>
      </trkpt>
      <trkpt lat="44.97371" lon="5.54518">
        <ele>1172</ele>
        <time>2013-09-15T10:45:14.000Z</time>
      </trkpt>
      <trkpt lat="44.97371" lon="5.54518">
        <ele>1172</ele>
        <time>2013-09-15T10:45:14.000Z</time>
      </trkpt>
      <trkpt lat="44.97371" lon="5.54518">
        <ele>1172</ele>
        <time>2013-09-15T10:45:18.000Z</time>
      </trkpt>
      <trkpt lat="44.97375" lon="5.54531">
        <ele>1172</ele>
        <time>2013-09-15T10:45:19.000Z</time>
      </trkpt>
      <trkpt lat="44.97375" lon="5.54531">
        <ele>1172</ele>
        <time>2013-09-15T10:45:19.000Z</time>
      </trkpt>
      <trkpt lat="44.97375" lon="5.54531">
        <ele>1172</ele>
        <time>2013-09-15T10:45:24.000Z</time>
      </trkpt>
      <trkpt lat="44.97378" lon="5.54543">
        <ele>1173</ele>
        <time>2013-09-15T10:45:25.000Z</time>
      </trkpt>
      <trkpt lat="44.97378" lon="5.54543">
        <ele>1173</ele>
        <time>2013-09-15T10:45:25.000Z</time>
      </trkpt>
      <trkpt lat="44.97378" lon="5.54543">
        <ele>1173</ele>
        <time>2013-09-15T10:45:29.000Z</time>
      </trkpt>
      <trkpt lat="44.97382" lon="5.54554">
        <ele>1173</ele>
        <time>2013-09-15T10:45:30.000Z</time>
      </trkpt>
      <trkpt lat="44.97382" lon="5.54554">
        <ele>1173</ele>
        <time>2013-09-15T10:45:30.000Z</time>
      </trkpt>
      <trkpt lat="44.97382" lon="5.54554">
        <ele>1173</ele>
        <time>2013-09-15T10:45:32.000Z</time>
      </trkpt>
      <trkpt lat="44.97384" lon="5.54561">
        <ele>1173</ele>
        <time>2013-09-15T10:45:33.000Z</time>
      </trkpt>
      <trkpt lat="44.97384" lon="5.54561">
        <ele>1173</ele>
        <time>2013-09-15T10:45:33.000Z</time>
      </trkpt>
      <trkpt lat="44.97384" lon="5.54561">
        <ele>1173</ele>
        <time>2013-09-15T10:45:38.000Z</time>
      </trkpt>
      <trkpt lat="44.97386" lon="5.54574">
        <ele>1174</ele>
        <time>2013-09-15T10:45:39.000Z</time>
      </trkpt>
      <trkpt lat="44.97386" lon="5.54574">
        <ele>1174</ele>
        <time>2013-09-15T10:45:39.000Z</time>
      </trkpt>
      <trkpt lat="44.97386" lon="5.54574">
        <ele>1174</ele>
        <time>2013-09-15T10:45:42.000Z</time>
      </trkpt>
      <trkpt lat="44.97389" lon="5.54584">
        <ele>1174</ele>
        <time>2013-09-15T10:45:43.000Z</time>
      </trkpt>
      <trkpt lat="44.97389" lon="5.54584">
        <ele>1174</ele>
        <time>2013-09-15T10:45:43.000Z</time>
      </trkpt>
      <trkpt lat="44.97389" lon="5.54584">
        <ele>1174</ele>
        <time>2013-09-15T10:45:47.000Z</time>
      </trkpt>
      <trkpt lat="44.97392" lon="5.54595">
        <ele>1174</ele>
        <time>2013-09-15T10:45:48.000Z</time>
      </trkpt>
      <trkpt lat="44.97392" lon="5.54595">
        <ele>1174</ele>
        <time>2013-09-15T10:45:48.000Z</time>
      </trkpt>
      <trkpt lat="44.97392" lon="5.54595">
        <ele>1174</ele>
        <time>2013-09-15T10:45:53.000Z</time>
      </trkpt>
      <trkpt lat="44.97398" lon="5.54604">
        <ele>1175</ele>
        <time>2013-09-15T10:45:54.000Z</time>
      </trkpt>
      <trkpt lat="44.97398" lon="5.54604">
        <ele>1175</ele>
        <time>2013-09-15T10:45:54.000Z</time>
      </trkpt>
      <trkpt lat="44.97398" lon="5.54604">
        <ele>1175</ele>
        <time>2013-09-15T10:45:58.000Z</time>
      </trkpt>
      <trkpt lat="44.97402" lon="5.54612">
        <ele>1175</ele>
        <time>2013-09-15T10:45:59.000Z</time>
      </trkpt>
      <trkpt lat="44.97402" lon="5.54612">
        <ele>1175</ele>
        <time>2013-09-15T10:45:59.000Z</time>
      </trkpt>
      <trkpt lat="44.97402" lon="5.54612">
        <ele>1175</ele>
        <time>2013-09-15T10:46:04.000Z</time>
      </trkpt>
      <trkpt lat="44.97405" lon="5.54625">
        <ele>1175</ele>
        <time>2013-09-15T10:46:05.000Z</time>
      </trkpt>
      <trkpt lat="44.97405" lon="5.54625">
        <ele>1175</ele>
        <time>2013-09-15T10:46:05.000Z</time>
      </trkpt>
      <trkpt lat="44.97405" lon="5.54625">
        <ele>1175</ele>
        <time>2013-09-15T10:46:10.000Z</time>
      </trkpt>
      <trkpt lat="44.97408" lon="5.54638">
        <ele>1176</ele>
        <time>2013-09-15T10:46:11.000Z</time>
      </trkpt>
      <trkpt lat="44.97408" lon="5.54638">
        <ele>1176</ele>
        <time>2013-09-15T10:46:11.000Z</time>
      </trkpt>
      <trkpt lat="44.97408" lon="5.54638">
        <ele>1176</ele>
        <time>2013-09-15T10:46:15.000Z</time>
      </trkpt>
      <trkpt lat="44.97411" lon="5.54649">
        <ele>1176</ele>
        <time>2013-09-15T10:46:16.000Z</time>
      </trkpt>
      <trkpt lat="44.97411" lon="5.54649">
        <ele>1176</ele>
        <time>2013-09-15T10:46:16.000Z</time>
      </trkpt>
      <trkpt lat="44.97411" lon="5.54649">
        <ele>1176</ele>
        <time>2013-09-15T10:46:20.000Z</time>
      </trkpt>
      <trkpt lat="44.97414" lon="5.54659">
        <ele>1176</ele>
        <time>2013-09-15T10:46:21.000Z</time>
      </trkpt>
      <trkpt lat="44.97414" lon="5.54659">
        <ele>1176</ele>
        <time>2013-09-15T10:46:21.000Z</time>
      </trkpt>
      <trkpt lat="44.97414" lon="5.54659">
        <ele>1176</ele>
        <time>2013-09-15T10:46:26.000Z</time>
      </trkpt>
      <trkpt lat="44.97419" lon="5.54672">
        <ele>1177</ele>
        <time>2013-09-15T10:46:27.000Z</time>
      </trkpt>
      <trkpt lat="44.97419" lon="5.54672">
        <ele>1177</ele>
        <time>2013-09-15T10:46:27.000Z</time>
      </trkpt>
      <trkpt lat="44.97419" lon="5.54672">
        <ele>1177</ele>
        <time>2013-09-15T10:46:29.000Z</time>
      </trkpt>
      <trkpt lat="44.97421" lon="5.54679">
        <ele>1177</ele>
        <time>2013-09-15T10:46:30.000Z</time>
      </trkpt>
      <trkpt lat="44.97421" lon="5.54679">
        <ele>1177</ele>
        <time>2013-09-15T10:46:30.000Z</time>
      </trkpt>
      <trkpt lat="44.97421" lon="5.54679">
        <ele>1177</ele>
        <time>2013-09-15T10:46:35.000Z</time>
      </trkpt>
      <trkpt lat="44.97426" lon="5.54689">
        <ele>1177</ele>
        <time>2013-09-15T10:46:36.000Z</time>
      </trkpt>
      <trkpt lat="44.97426" lon="5.54689">
        <ele>1177</ele>
        <time>2013-09-15T10:46:36.000Z</time>
      </trkpt>
      <trkpt lat="44.97426" lon="5.54689">
        <ele>1177</ele>
        <time>2013-09-15T10:46:42.000Z</time>
      </trkpt>
      <trkpt lat="44.97432" lon="5.547">
        <ele>1177</ele>
        <time>2013-09-15T10:46:43.000Z</time>
      </trkpt>
      <trkpt lat="44.97432" lon="5.547">
        <ele>1177</ele>
        <time>2013-09-15T10:46:43.000Z</time>
      </trkpt>
      <trkpt lat="44.97432" lon="5.547">
        <ele>1177</ele>
        <time>2013-09-15T10:46:49.000Z</time>
      </trkpt>
      <trkpt lat="44.97442" lon="5.54706">
        <ele>1177</ele>
        <time>2013-09-15T10:46:50.000Z</time>
      </trkpt>
      <trkpt lat="44.97442" lon="5.54706">
        <ele>1177</ele>
        <time>2013-09-15T10:46:50.000Z</time>
      </trkpt>
      <trkpt lat="44.97442" lon="5.54706">
        <ele>1177</ele>
        <time>2013-09-15T10:46:57.000Z</time>
      </trkpt>
      <trkpt lat="44.97452" lon="5.54711">
        <ele>1177</ele>
        <time>2013-09-15T10:46:58.000Z</time>
      </trkpt>
      <trkpt lat="44.97452" lon="5.54711">
        <ele>1177</ele>
        <time>2013-09-15T10:46:58.000Z</time>
      </trkpt>
      <trkpt lat="44.97452" lon="5.54711">
        <ele>1177</ele>
        <time>2013-09-15T10:47:03.000Z</time>
      </trkpt>
      <trkpt lat="44.97462" lon="5.54713">
        <ele>1177</ele>
        <time>2013-09-15T10:47:04.000Z</time>
      </trkpt>
      <trkpt lat="44.97462" lon="5.54713">
        <ele>1177</ele>
        <time>2013-09-15T10:47:04.000Z</time>
      </trkpt>
      <trkpt lat="44.97462" lon="5.54713">
        <ele>1177</ele>
        <time>2013-09-15T10:47:08.000Z</time>
      </trkpt>
      <trkpt lat="44.9747" lon="5.54715">
        <ele>1177</ele>
        <time>2013-09-15T10:47:09.000Z</time>
      </trkpt>
      <trkpt lat="44.9747" lon="5.54715">
        <ele>1177</ele>
        <time>2013-09-15T10:47:09.000Z</time>
      </trkpt>
      <trkpt lat="44.9747" lon="5.54715">
        <ele>1177</ele>
        <time>2013-09-15T10:47:12.000Z</time>
      </trkpt>
      <trkpt lat="44.97476" lon="5.54717">
        <ele>1177</ele>
        <time>2013-09-15T10:47:13.000Z</time>
      </trkpt>
      <trkpt lat="44.97482" lon="5.54722">
        <ele>1177</ele>
        <time>2013-09-15T10:47:16.000Z</time>
      </trkpt>
      <trkpt lat="44.97485" lon="5.54726">
        <ele>1177</ele>
        <time>2013-09-15T10:47:19.000Z</time>
      </trkpt>
      <trkpt lat="44.97488" lon="5.54732">
        <ele>1178</ele>
        <time>2013-09-15T10:47:22.000Z</time>
      </trkpt>
      <trkpt lat="44.97492" lon="5.54737">
        <ele>1178</ele>
        <time>2013-09-15T10:47:24.000Z</time>
      </trkpt>
      <trkpt lat="44.97495" lon="5.54743">
        <ele>1178</ele>
        <time>2013-09-15T10:47:27.000Z</time>
      </trkpt>
      <trkpt lat="44.97499" lon="5.54749">
        <ele>1178</ele>
        <time>2013-09-15T10:47:30.000Z</time>
      </trkpt>
      <trkpt lat="44.97502" lon="5.54756">
        <ele>1179</ele>
        <time>2013-09-15T10:47:33.000Z</time>
      </trkpt>
      <trkpt lat="44.97507" lon="5.54762">
        <ele>1179</ele>
        <time>2013-09-15T10:47:36.000Z</time>
      </trkpt>
      <trkpt lat="44.9751" lon="5.54769">
        <ele>1179</ele>
        <time>2013-09-15T10:47:39.000Z</time>
      </trkpt>
      <trkpt lat="44.97514" lon="5.54773">
        <ele>1179</ele>
        <time>2013-09-15T10:47:42.000Z</time>
      </trkpt>
      <trkpt lat="44.97518" lon="5.54775">
        <ele>1179</ele>
        <time>2013-09-15T10:47:45.000Z</time>
      </trkpt>
      <trkpt lat="44.97523" lon="5.54777">
        <ele>1179</ele>
        <time>2013-09-15T10:47:48.000Z</time>
      </trkpt>
      <trkpt lat="44.97528" lon="5.54777">
        <ele>1179</ele>
        <time>2013-09-15T10:47:51.000Z</time>
      </trkpt>
      <trkpt lat="44.97533" lon="5.54777">
        <ele>1180</ele>
        <time>2013-09-15T10:47:55.000Z</time>
      </trkpt>
      <trkpt lat="44.97539" lon="5.54775">
        <ele>1180</ele>
        <time>2013-09-15T10:47:59.000Z</time>
      </trkpt>
      <trkpt lat="44.97544" lon="5.54777">
        <ele>1180</ele>
        <time>2013-09-15T10:48:03.000Z</time>
      </trkpt>
      <trkpt lat="44.9755" lon="5.54777">
        <ele>1180</ele>
        <time>2013-09-15T10:48:07.000Z</time>
      </trkpt>
      <trkpt lat="44.97555" lon="5.5478">
        <ele>1180</ele>
        <time>2013-09-15T10:48:10.000Z</time>
      </trkpt>
      <trkpt lat="44.97561" lon="5.5478">
        <ele>1180</ele>
        <time>2013-09-15T10:48:14.000Z</time>
      </trkpt>
      <trkpt lat="44.97567" lon="5.5478">
        <ele>1180</ele>
        <time>2013-09-15T10:48:17.000Z</time>
      </trkpt>
      <trkpt lat="44.97572" lon="5.5478">
        <ele>1180</ele>
        <time>2013-09-15T10:48:20.000Z</time>
      </trkpt>
      <trkpt lat="44.97576" lon="5.54777">
        <ele>1180</ele>
        <time>2013-09-15T10:48:23.000Z</time>
      </trkpt>
      <trkpt lat="44.97581" lon="5.54775">
        <ele>1180</ele>
        <time>2013-09-15T10:48:25.000Z</time>
      </trkpt>
      <trkpt lat="44.97585" lon="5.54773">
        <ele>1181</ele>
        <time>2013-09-15T10:48:28.000Z</time>
      </trkpt>
      <trkpt lat="44.97589" lon="5.54769">
        <ele>1181</ele>
        <time>2013-09-15T10:48:31.000Z</time>
      </trkpt>
      <trkpt lat="44.97594" lon="5.54767">
        <ele>1181</ele>
        <time>2013-09-15T10:48:34.000Z</time>
      </trkpt>
      <trkpt lat="44.97598" lon="5.54764">
        <ele>1181</ele>
        <time>2013-09-15T10:48:37.000Z</time>
      </trkpt>
      <trkpt lat="44.97602" lon="5.5476">
        <ele>1181</ele>
        <time>2013-09-15T10:48:44.000Z</time>
      </trkpt>
      <trkpt lat="44.97606" lon="5.54758">
        <ele>1181</ele>
        <time>2013-09-15T10:48:48.000Z</time>
      </trkpt>
      <trkpt lat="44.97611" lon="5.54754">
        <ele>1181</ele>
        <time>2013-09-15T10:48:52.000Z</time>
      </trkpt>
      <trkpt lat="44.97615" lon="5.54749">
        <ele>1182</ele>
        <time>2013-09-15T10:48:56.000Z</time>
      </trkpt>
      <trkpt lat="44.97619" lon="5.54747">
        <ele>1182</ele>
        <time>2013-09-15T10:48:59.000Z</time>
      </trkpt>
      <trkpt lat="44.97625" lon="5.54745">
        <ele>1182</ele>
        <time>2013-09-15T10:49:03.000Z</time>
      </trkpt>
      <trkpt lat="44.97629" lon="5.54743">
        <ele>1183</ele>
        <time>2013-09-15T10:49:06.000Z</time>
      </trkpt>
      <trkpt lat="44.97633" lon="5.54741">
        <ele>1183</ele>
        <time>2013-09-15T10:49:09.000Z</time>
      </trkpt>
      <trkpt lat="44.97638" lon="5.54739">
        <ele>1184</ele>
        <time>2013-09-15T10:49:12.000Z</time>
      </trkpt>
      <trkpt lat="44.97643" lon="5.54737">
        <ele>1184</ele>
        <time>2013-09-15T10:49:15.000Z</time>
      </trkpt>
      <trkpt lat="44.97647" lon="5.54732">
        <ele>1185</ele>
        <time>2013-09-15T10:49:18.000Z</time>
      </trkpt>
      <trkpt lat="44.97652" lon="5.5473">
        <ele>1185</ele>
        <time>2013-09-15T10:49:21.000Z</time>
      </trkpt>
      <trkpt lat="44.97658" lon="5.54728">
        <ele>1185</ele>
        <time>2013-09-15T10:49:24.000Z</time>
      </trkpt>
      <trkpt lat="44.97662" lon="5.54726">
        <ele>1186</ele>
        <time>2013-09-15T10:49:27.000Z</time>
      </trkpt>
      <trkpt lat="44.97666" lon="5.54724">
        <ele>1186</ele>
        <time>2013-09-15T10:49:29.000Z</time>
      </trkpt>
      <trkpt lat="44.97672" lon="5.54722">
        <ele>1187</ele>
        <time>2013-09-15T10:49:32.000Z</time>
      </trkpt>
      <trkpt lat="44.97676" lon="5.54719">
        <ele>1187</ele>
        <time>2013-09-15T10:49:34.000Z</time>
      </trkpt>
      <trkpt lat="44.9768" lon="5.54717">
        <ele>1187</ele>
        <time>2013-09-15T10:49:36.000Z</time>
      </trkpt>
      <trkpt lat="44.97687" lon="5.54715">
        <ele>1188</ele>
        <time>2013-09-15T10:49:39.000Z</time>
      </trkpt>
      <trkpt lat="44.97693" lon="5.54715">
        <ele>1189</ele>
        <time>2013-09-15T10:49:42.000Z</time>
      </trkpt>
      <trkpt lat="44.977" lon="5.54715">
        <ele>1189</ele>
        <time>2013-09-15T10:49:45.000Z</time>
      </trkpt>
      <trkpt lat="44.97704" lon="5.54717">
        <ele>1190</ele>
        <time>2013-09-15T10:49:47.000Z</time>
      </trkpt>
      <trkpt lat="44.97709" lon="5.54722">
        <ele>1190</ele>
        <time>2013-09-15T10:49:50.000Z</time>
      </trkpt>
      <trkpt lat="44.97715" lon="5.54726">
        <ele>1191</ele>
        <time>2013-09-15T10:49:52.000Z</time>
      </trkpt>
      <trkpt lat="44.97719" lon="5.5473">
        <ele>1192</ele>
        <time>2013-09-15T10:49:54.000Z</time>
      </trkpt>
      <trkpt lat="44.97724" lon="5.54732">
        <ele>1192</ele>
        <time>2013-09-15T10:49:56.000Z</time>
      </trkpt>
      <trkpt lat="44.9773" lon="5.54739">
        <ele>1193</ele>
        <time>2013-09-15T10:49:58.000Z</time>
      </trkpt>
      <trkpt lat="44.97734" lon="5.54743">
        <ele>1194</ele>
        <time>2013-09-15T10:50:00.000Z</time>
      </trkpt>
      <trkpt lat="44.97738" lon="5.54749">
        <ele>1195</ele>
        <time>2013-09-15T10:50:02.000Z</time>
      </trkpt>
      <trkpt lat="44.97743" lon="5.54754">
        <ele>1196</ele>
        <time>2013-09-15T10:50:04.000Z</time>
      </trkpt>
      <trkpt lat="44.97747" lon="5.54758">
        <ele>1196</ele>
        <time>2013-09-15T10:50:06.000Z</time>
      </trkpt>
      <trkpt lat="44.97752" lon="5.54764">
        <ele>1197</ele>
        <time>2013-09-15T10:50:09.000Z</time>
      </trkpt>
      <trkpt lat="44.97757" lon="5.54769">
        <ele>1198</ele>
        <time>2013-09-15T10:50:12.000Z</time>
      </trkpt>
      <trkpt lat="44.97761" lon="5.54775">
        <ele>1199</ele>
        <time>2013-09-15T10:50:15.000Z</time>
      </trkpt>
      <trkpt lat="44.97765" lon="5.5478">
        <ele>1200</ele>
        <time>2013-09-15T10:50:18.000Z</time>
      </trkpt>
      <trkpt lat="44.97768" lon="5.54784">
        <ele>1201</ele>
        <time>2013-09-15T10:50:20.000Z</time>
      </trkpt>
      <trkpt lat="44.97773" lon="5.5479">
        <ele>1202</ele>
        <time>2013-09-15T10:50:24.000Z</time>
      </trkpt>
      <trkpt lat="44.97775" lon="5.54797">
        <ele>1203</ele>
        <time>2013-09-15T10:50:27.000Z</time>
      </trkpt>
      <trkpt lat="44.97776" lon="5.54803">
        <ele>1204</ele>
        <time>2013-09-15T10:50:30.000Z</time>
      </trkpt>
      <trkpt lat="44.97778" lon="5.5481">
        <ele>1205</ele>
        <time>2013-09-15T10:50:34.000Z</time>
      </trkpt>
      <trkpt lat="44.97779" lon="5.54816">
        <ele>1205</ele>
        <time>2013-09-15T10:50:37.000Z</time>
      </trkpt>
      <trkpt lat="44.97779" lon="5.54822">
        <ele>1206</ele>
        <time>2013-09-15T10:50:40.000Z</time>
      </trkpt>
      <trkpt lat="44.9778" lon="5.54829">
        <ele>1207</ele>
        <time>2013-09-15T10:50:44.000Z</time>
      </trkpt>
      <trkpt lat="44.97781" lon="5.54835">
        <ele>1207</ele>
        <time>2013-09-15T10:50:47.000Z</time>
      </trkpt>
      <trkpt lat="44.97781" lon="5.54842">
        <ele>1208</ele>
        <time>2013-09-15T10:50:50.000Z</time>
      </trkpt>
      <trkpt lat="44.97782" lon="5.54848">
        <ele>1208</ele>
        <time>2013-09-15T10:50:53.000Z</time>
      </trkpt>
      <trkpt lat="44.97782" lon="5.54855">
        <ele>1208</ele>
        <time>2013-09-15T10:50:56.000Z</time>
      </trkpt>
      <trkpt lat="44.97783" lon="5.54861">
        <ele>1209</ele>
        <time>2013-09-15T10:50:59.000Z</time>
      </trkpt>
      <trkpt lat="44.97784" lon="5.54868">
        <ele>1209</ele>
        <time>2013-09-15T10:51:02.000Z</time>
      </trkpt>
      <trkpt lat="44.97786" lon="5.54874">
        <ele>1209</ele>
        <time>2013-09-15T10:51:05.000Z</time>
      </trkpt>
      <trkpt lat="44.97786" lon="5.5488">
        <ele>1210</ele>
        <time>2013-09-15T10:51:08.000Z</time>
      </trkpt>
      <trkpt lat="44.97786" lon="5.54887">
        <ele>1210</ele>
        <time>2013-09-15T10:51:10.000Z</time>
      </trkpt>
      <trkpt lat="44.97786" lon="5.54893">
        <ele>1210</ele>
        <time>2013-09-15T10:51:13.000Z</time>
      </trkpt>
      <trkpt lat="44.97784" lon="5.54902">
        <ele>1210</ele>
        <time>2013-09-15T10:51:16.000Z</time>
      </trkpt>
      <trkpt lat="44.97784" lon="5.54908">
        <ele>1211</ele>
        <time>2013-09-15T10:51:19.000Z</time>
      </trkpt>
      <trkpt lat="44.97783" lon="5.54917">
        <ele>1211</ele>
        <time>2013-09-15T10:51:22.000Z</time>
      </trkpt>
      <trkpt lat="44.97782" lon="5.54923">
        <ele>1211</ele>
        <time>2013-09-15T10:51:25.000Z</time>
      </trkpt>
      <trkpt lat="44.97782" lon="5.5493">
        <ele>1211</ele>
        <time>2013-09-15T10:51:27.000Z</time>
      </trkpt>
      <trkpt lat="44.97779" lon="5.54936">
        <ele>1211</ele>
        <time>2013-09-15T10:51:33.000Z</time>
      </trkpt>
      <trkpt lat="44.97779" lon="5.54936">
        <ele>1211</ele>
        <time>2013-09-15T10:51:33.000Z</time>
      </trkpt>
      <trkpt lat="44.97779" lon="5.54936">
        <ele>1211</ele>
        <time>2013-09-15T10:51:35.000Z</time>
      </trkpt>
      <trkpt lat="44.97777" lon="5.54943">
        <ele>1211</ele>
        <time>2013-09-15T10:51:42.000Z</time>
      </trkpt>
      <trkpt lat="44.97777" lon="5.54943">
        <ele>1211</ele>
        <time>2013-09-15T10:51:42.000Z</time>
      </trkpt>
      <trkpt lat="44.97777" lon="5.54943">
        <ele>1212</ele>
        <time>2013-09-15T10:51:44.000Z</time>
      </trkpt>
      <trkpt lat="44.97778" lon="5.54949">
        <ele>1212</ele>
        <time>2013-09-15T10:51:47.000Z</time>
      </trkpt>
      <trkpt lat="44.97778" lon="5.54955">
        <ele>1212</ele>
        <time>2013-09-15T10:51:50.000Z</time>
      </trkpt>
      <trkpt lat="44.97778" lon="5.54962">
        <ele>1212</ele>
        <time>2013-09-15T10:51:53.000Z</time>
      </trkpt>
      <trkpt lat="44.97778" lon="5.54968">
        <ele>1212</ele>
        <time>2013-09-15T10:51:56.000Z</time>
      </trkpt>
      <trkpt lat="44.97778" lon="5.54975">
        <ele>1212</ele>
        <time>2013-09-15T10:51:59.000Z</time>
      </trkpt>
      <trkpt lat="44.97778" lon="5.54981">
        <ele>1212</ele>
        <time>2013-09-15T10:52:02.000Z</time>
      </trkpt>
      <trkpt lat="44.97778" lon="5.54988">
        <ele>1213</ele>
        <time>2013-09-15T10:52:05.000Z</time>
      </trkpt>
      <trkpt lat="44.97778" lon="5.54994">
        <ele>1213</ele>
        <time>2013-09-15T10:52:07.000Z</time>
      </trkpt>
      <trkpt lat="44.97778" lon="5.55">
        <ele>1213</ele>
        <time>2013-09-15T10:52:10.000Z</time>
      </trkpt>
      <trkpt lat="44.97778" lon="5.55007">
        <ele>1213</ele>
        <time>2013-09-15T10:52:13.000Z</time>
      </trkpt>
      <trkpt lat="44.9778" lon="5.55013">
        <ele>1213</ele>
        <time>2013-09-15T10:52:16.000Z</time>
      </trkpt>
      <trkpt lat="44.97784" lon="5.5502">
        <ele>1214</ele>
        <time>2013-09-15T10:52:20.000Z</time>
      </trkpt>
      <trkpt lat="44.97789" lon="5.55024">
        <ele>1214</ele>
        <time>2013-09-15T10:52:23.000Z</time>
      </trkpt>
      <trkpt lat="44.97793" lon="5.55026">
        <ele>1214</ele>
        <time>2013-09-15T10:52:26.000Z</time>
      </trkpt>
      <trkpt lat="44.97798" lon="5.55026">
        <ele>1215</ele>
        <time>2013-09-15T10:52:30.000Z</time>
      </trkpt>
      <trkpt lat="44.97803" lon="5.55024">
        <ele>1215</ele>
        <time>2013-09-15T10:52:34.000Z</time>
      </trkpt>
      <trkpt lat="44.97802" lon="5.5503">
        <ele>1217</ele>
        <time>2013-09-15T10:53:47.000Z</time>
      </trkpt>
      <trkpt lat="44.97802" lon="5.5503">
        <ele>1217</ele>
        <time>2013-09-15T10:53:47.000Z</time>
      </trkpt>
      <trkpt lat="44.97802" lon="5.5503">
        <ele>1218</ele>
        <time>2013-09-15T10:53:59.000Z</time>
      </trkpt>
      <trkpt lat="44.97806" lon="5.55028">
        <ele>1222</ele>
        <time>2013-09-15T10:54:11.000Z</time>
      </trkpt>
      <trkpt lat="44.97806" lon="5.55028">
        <ele>1222</ele>
        <time>2013-09-15T10:54:11.000Z</time>
      </trkpt>
      <trkpt lat="44.97806" lon="5.55028">
        <ele>1222</ele>
        <time>2013-09-15T10:54:12.000Z</time>
      </trkpt>
      <trkpt lat="44.9781" lon="5.55022">
        <ele>1224</ele>
        <time>2013-09-15T10:54:17.000Z</time>
      </trkpt>
      <trkpt lat="44.97814" lon="5.55018">
        <ele>1225</ele>
        <time>2013-09-15T10:54:21.000Z</time>
      </trkpt>
      <trkpt lat="44.97819" lon="5.55011">
        <ele>1226</ele>
        <time>2013-09-15T10:54:25.000Z</time>
      </trkpt>
      <trkpt lat="44.97822" lon="5.55005">
        <ele>1227</ele>
        <time>2013-09-15T10:54:28.000Z</time>
      </trkpt>
      <trkpt lat="44.97826" lon="5.54998">
        <ele>1228</ele>
        <time>2013-09-15T10:54:31.000Z</time>
      </trkpt>
      <trkpt lat="44.97831" lon="5.54992">
        <ele>1229</ele>
        <time>2013-09-15T10:54:34.000Z</time>
      </trkpt>
      <trkpt lat="44.97834" lon="5.54986">
        <ele>1230</ele>
        <time>2013-09-15T10:54:37.000Z</time>
      </trkpt>
      <trkpt lat="44.97838" lon="5.54979">
        <ele>1230</ele>
        <time>2013-09-15T10:54:40.000Z</time>
      </trkpt>
      <trkpt lat="44.97842" lon="5.54975">
        <ele>1231</ele>
        <time>2013-09-15T10:54:42.000Z</time>
      </trkpt>
      <trkpt lat="44.97846" lon="5.54968">
        <ele>1231</ele>
        <time>2013-09-15T10:54:44.000Z</time>
      </trkpt>
      <trkpt lat="44.9785" lon="5.54962">
        <ele>1232</ele>
        <time>2013-09-15T10:54:46.000Z</time>
      </trkpt>
      <trkpt lat="44.97855" lon="5.54953">
        <ele>1232</ele>
        <time>2013-09-15T10:54:49.000Z</time>
      </trkpt>
      <trkpt lat="44.9786" lon="5.54949">
        <ele>1233</ele>
        <time>2013-09-15T10:54:51.000Z</time>
      </trkpt>
      <trkpt lat="44.97863" lon="5.54943">
        <ele>1233</ele>
        <time>2013-09-15T10:54:53.000Z</time>
      </trkpt>
      <trkpt lat="44.97867" lon="5.54936">
        <ele>1234</ele>
        <time>2013-09-15T10:54:55.000Z</time>
      </trkpt>
      <trkpt lat="44.9787" lon="5.5493">
        <ele>1234</ele>
        <time>2013-09-15T10:54:57.000Z</time>
      </trkpt>
      <trkpt lat="44.97874" lon="5.54923">
        <ele>1235</ele>
        <time>2013-09-15T10:54:59.000Z</time>
      </trkpt>
      <trkpt lat="44.97877" lon="5.54917">
        <ele>1235</ele>
        <time>2013-09-15T10:55:01.000Z</time>
      </trkpt>
      <trkpt lat="44.9788" lon="5.5491">
        <ele>1235</ele>
        <time>2013-09-15T10:55:03.000Z</time>
      </trkpt>
      <trkpt lat="44.97883" lon="5.54904">
        <ele>1236</ele>
        <time>2013-09-15T10:55:05.000Z</time>
      </trkpt>
      <trkpt lat="44.97886" lon="5.54895">
        <ele>1236</ele>
        <time>2013-09-15T10:55:07.000Z</time>
      </trkpt>
      <trkpt lat="44.9789" lon="5.54889">
        <ele>1236</ele>
        <time>2013-09-15T10:55:09.000Z</time>
      </trkpt>
      <trkpt lat="44.97893" lon="5.54882">
        <ele>1237</ele>
        <time>2013-09-15T10:55:11.000Z</time>
      </trkpt>
      <trkpt lat="44.97897" lon="5.54874">
        <ele>1237</ele>
        <time>2013-09-15T10:55:14.000Z</time>
      </trkpt>
      <trkpt lat="44.979" lon="5.54868">
        <ele>1237</ele>
        <time>2013-09-15T10:55:16.000Z</time>
      </trkpt>
      <trkpt lat="44.97905" lon="5.54861">
        <ele>1238</ele>
        <time>2013-09-15T10:55:19.000Z</time>
      </trkpt>
      <trkpt lat="44.97908" lon="5.54855">
        <ele>1238</ele>
        <time>2013-09-15T10:55:21.000Z</time>
      </trkpt>
      <trkpt lat="44.97911" lon="5.54848">
        <ele>1238</ele>
        <time>2013-09-15T10:55:23.000Z</time>
      </trkpt>
      <trkpt lat="44.97915" lon="5.54842">
        <ele>1239</ele>
        <time>2013-09-15T10:55:26.000Z</time>
      </trkpt>
      <trkpt lat="44.97919" lon="5.54835">
        <ele>1239</ele>
        <time>2013-09-15T10:55:28.000Z</time>
      </trkpt>
      <trkpt lat="44.97922" lon="5.54829">
        <ele>1239</ele>
        <time>2013-09-15T10:55:31.000Z</time>
      </trkpt>
      <trkpt lat="44.97925" lon="5.54822">
        <ele>1240</ele>
        <time>2013-09-15T10:55:34.000Z</time>
      </trkpt>
      <trkpt lat="44.97928" lon="5.54816">
        <ele>1240</ele>
        <time>2013-09-15T10:55:37.000Z</time>
      </trkpt>
      <trkpt lat="44.97931" lon="5.5481">
        <ele>1240</ele>
        <time>2013-09-15T10:55:40.000Z</time>
      </trkpt>
      <trkpt lat="44.97936" lon="5.54803">
        <ele>1241</ele>
        <time>2013-09-15T10:55:43.000Z</time>
      </trkpt>
      <trkpt lat="44.97939" lon="5.54797">
        <ele>1241</ele>
        <time>2013-09-15T10:55:46.000Z</time>
      </trkpt>
      <trkpt lat="44.97943" lon="5.5479">
        <ele>1241</ele>
        <time>2013-09-15T10:55:50.000Z</time>
      </trkpt>
      <trkpt lat="44.97948" lon="5.54784">
        <ele>1241</ele>
        <time>2013-09-15T10:55:53.000Z</time>
      </trkpt>
      <trkpt lat="44.97951" lon="5.54777">
        <ele>1241</ele>
        <time>2013-09-15T10:55:59.000Z</time>
      </trkpt>
      <trkpt lat="44.97955" lon="5.54771">
        <ele>1241</ele>
        <time>2013-09-15T10:56:04.000Z</time>
      </trkpt>
      <trkpt lat="44.97959" lon="5.54767">
        <ele>1241</ele>
        <time>2013-09-15T10:56:08.000Z</time>
      </trkpt>
      <trkpt lat="44.97964" lon="5.54762">
        <ele>1241</ele>
        <time>2013-09-15T10:56:12.000Z</time>
      </trkpt>
      <trkpt lat="44.97968" lon="5.54758">
        <ele>1241</ele>
        <time>2013-09-15T10:56:15.000Z</time>
      </trkpt>
      <trkpt lat="44.97973" lon="5.54754">
        <ele>1241</ele>
        <time>2013-09-15T10:56:19.000Z</time>
      </trkpt>
      <trkpt lat="44.97979" lon="5.54749">
        <ele>1241</ele>
        <time>2013-09-15T10:56:23.000Z</time>
      </trkpt>
      <trkpt lat="44.97983" lon="5.54747">
        <ele>1241</ele>
        <time>2013-09-15T10:56:26.000Z</time>
      </trkpt>
      <trkpt lat="44.97987" lon="5.54743">
        <ele>1241</ele>
        <time>2013-09-15T10:56:29.000Z</time>
      </trkpt>
      <trkpt lat="44.97992" lon="5.54741">
        <ele>1241</ele>
        <time>2013-09-15T10:56:32.000Z</time>
      </trkpt>
      <trkpt lat="44.97997" lon="5.54737">
        <ele>1240</ele>
        <time>2013-09-15T10:56:36.000Z</time>
      </trkpt>
      <trkpt lat="44.98001" lon="5.54732">
        <ele>1240</ele>
        <time>2013-09-15T10:56:39.000Z</time>
      </trkpt>
      <trkpt lat="44.98006" lon="5.5473">
        <ele>1240</ele>
        <time>2013-09-15T10:56:42.000Z</time>
      </trkpt>
      <trkpt lat="44.9801" lon="5.54726">
        <ele>1240</ele>
        <time>2013-09-15T10:56:45.000Z</time>
      </trkpt>
      <trkpt lat="44.98015" lon="5.54719">
        <ele>1240</ele>
        <time>2013-09-15T10:56:49.000Z</time>
      </trkpt>
      <trkpt lat="44.98019" lon="5.54715">
        <ele>1240</ele>
        <time>2013-09-15T10:56:52.000Z</time>
      </trkpt>
      <trkpt lat="44.98024" lon="5.54711">
        <ele>1240</ele>
        <time>2013-09-15T10:56:55.000Z</time>
      </trkpt>
      <trkpt lat="44.98028" lon="5.54706">
        <ele>1240</ele>
        <time>2013-09-15T10:56:58.000Z</time>
      </trkpt>
      <trkpt lat="44.98032" lon="5.54702">
        <ele>1240</ele>
        <time>2013-09-15T10:57:01.000Z</time>
      </trkpt>
      <trkpt lat="44.98037" lon="5.547">
        <ele>1240</ele>
        <time>2013-09-15T10:57:04.000Z</time>
      </trkpt>
      <trkpt lat="44.98041" lon="5.54696">
        <ele>1240</ele>
        <time>2013-09-15T10:57:07.000Z</time>
      </trkpt>
      <trkpt lat="44.98046" lon="5.54694">
        <ele>1240</ele>
        <time>2013-09-15T10:57:10.000Z</time>
      </trkpt>
      <trkpt lat="44.98052" lon="5.54692">
        <ele>1240</ele>
        <time>2013-09-15T10:57:13.000Z</time>
      </trkpt>
      <trkpt lat="44.98058" lon="5.54689">
        <ele>1241</ele>
        <time>2013-09-15T10:57:16.000Z</time>
      </trkpt>
      <trkpt lat="44.98064" lon="5.54689">
        <ele>1241</ele>
        <time>2013-09-15T10:57:19.000Z</time>
      </trkpt>
      <trkpt lat="44.9807" lon="5.54692">
        <ele>1241</ele>
        <time>2013-09-15T10:57:21.000Z</time>
      </trkpt>
      <trkpt lat="44.98075" lon="5.54696">
        <ele>1241</ele>
        <time>2013-09-15T10:57:23.000Z</time>
      </trkpt>
      <trkpt lat="44.98082" lon="5.547">
        <ele>1241</ele>
        <time>2013-09-15T10:57:25.000Z</time>
      </trkpt>
      <trkpt lat="44.98087" lon="5.54706">
        <ele>1241</ele>
        <time>2013-09-15T10:57:27.000Z</time>
      </trkpt>
      <trkpt lat="44.98091" lon="5.54713">
        <ele>1241</ele>
        <time>2013-09-15T10:57:29.000Z</time>
      </trkpt>
      <trkpt lat="44.98096" lon="5.54715">
        <ele>1241</ele>
        <time>2013-09-15T10:57:31.000Z</time>
      </trkpt>
      <trkpt lat="44.98101" lon="5.54719">
        <ele>1241</ele>
        <time>2013-09-15T10:57:34.000Z</time>
      </trkpt>
      <trkpt lat="44.98106" lon="5.54724">
        <ele>1242</ele>
        <time>2013-09-15T10:57:37.000Z</time>
      </trkpt>
      <trkpt lat="44.98111" lon="5.54726">
        <ele>1242</ele>
        <time>2013-09-15T10:57:40.000Z</time>
      </trkpt>
      <trkpt lat="44.98116" lon="5.54726">
        <ele>1242</ele>
        <time>2013-09-15T10:57:43.000Z</time>
      </trkpt>
      <trkpt lat="44.98122" lon="5.54728">
        <ele>1242</ele>
        <time>2013-09-15T10:57:47.000Z</time>
      </trkpt>
      <trkpt lat="44.98128" lon="5.54728">
        <ele>1242</ele>
        <time>2013-09-15T10:57:51.000Z</time>
      </trkpt>
      <trkpt lat="44.98133" lon="5.54728">
        <ele>1242</ele>
        <time>2013-09-15T10:57:55.000Z</time>
      </trkpt>
      <trkpt lat="44.98138" lon="5.54728">
        <ele>1242</ele>
        <time>2013-09-15T10:57:59.000Z</time>
      </trkpt>
      <trkpt lat="44.98145" lon="5.54728">
        <ele>1242</ele>
        <time>2013-09-15T10:58:03.000Z</time>
      </trkpt>
      <trkpt lat="44.98148" lon="5.54732">
        <ele>1242</ele>
        <time>2013-09-15T10:58:06.000Z</time>
      </trkpt>
      <trkpt lat="44.98152" lon="5.54737">
        <ele>1242</ele>
        <time>2013-09-15T10:58:09.000Z</time>
      </trkpt>
      <trkpt lat="44.98156" lon="5.54741">
        <ele>1242</ele>
        <time>2013-09-15T10:58:12.000Z</time>
      </trkpt>
      <trkpt lat="44.98158" lon="5.54747">
        <ele>1243</ele>
        <time>2013-09-15T10:58:15.000Z</time>
      </trkpt>
      <trkpt lat="44.98162" lon="5.54752">
        <ele>1243</ele>
        <time>2013-09-15T10:58:19.000Z</time>
      </trkpt>
      <trkpt lat="44.98166" lon="5.54754">
        <ele>1243</ele>
        <time>2013-09-15T10:58:22.000Z</time>
      </trkpt>
      <trkpt lat="44.98171" lon="5.54758">
        <ele>1243</ele>
        <time>2013-09-15T10:58:25.000Z</time>
      </trkpt>
      <trkpt lat="44.98175" lon="5.5476">
        <ele>1243</ele>
        <time>2013-09-15T10:58:28.000Z</time>
      </trkpt>
      <trkpt lat="44.98179" lon="5.54762">
        <ele>1243</ele>
        <time>2013-09-15T10:58:31.000Z</time>
      </trkpt>
      <trkpt lat="44.98184" lon="5.54767">
        <ele>1243</ele>
        <time>2013-09-15T10:58:35.000Z</time>
      </trkpt>
      <trkpt lat="44.98187" lon="5.54773">
        <ele>1243</ele>
        <time>2013-09-15T10:58:39.000Z</time>
      </trkpt>
      <trkpt lat="44.98189" lon="5.5478">
        <ele>1244</ele>
        <time>2013-09-15T10:58:43.000Z</time>
      </trkpt>
      <trkpt lat="44.98189" lon="5.54786">
        <ele>1244</ele>
        <time>2013-09-15T10:58:46.000Z</time>
      </trkpt>
      <trkpt lat="44.98189" lon="5.54792">
        <ele>1244</ele>
        <time>2013-09-15T10:58:48.000Z</time>
      </trkpt>
      <trkpt lat="44.98188" lon="5.54799">
        <ele>1244</ele>
        <time>2013-09-15T10:58:50.000Z</time>
      </trkpt>
      <trkpt lat="44.98188" lon="5.54805">
        <ele>1244</ele>
        <time>2013-09-15T10:58:52.000Z</time>
      </trkpt>
      <trkpt lat="44.98188" lon="5.54812">
        <ele>1244</ele>
        <time>2013-09-15T10:58:54.000Z</time>
      </trkpt>
      <trkpt lat="44.98188" lon="5.54818">
        <ele>1244</ele>
        <time>2013-09-15T10:58:56.000Z</time>
      </trkpt>
      <trkpt lat="44.98188" lon="5.54824">
        <ele>1244</ele>
        <time>2013-09-15T10:58:58.000Z</time>
      </trkpt>
      <trkpt lat="44.98188" lon="5.54833">
        <ele>1244</ele>
        <time>2013-09-15T10:59:01.000Z</time>
      </trkpt>
      <trkpt lat="44.98188" lon="5.54842">
        <ele>1244</ele>
        <time>2013-09-15T10:59:04.000Z</time>
      </trkpt>
      <trkpt lat="44.98188" lon="5.54848">
        <ele>1244</ele>
        <time>2013-09-15T10:59:07.000Z</time>
      </trkpt>
      <trkpt lat="44.98186" lon="5.54855">
        <ele>1244</ele>
        <time>2013-09-15T10:59:15.000Z</time>
      </trkpt>
      <trkpt lat="44.98186" lon="5.54855">
        <ele>1244</ele>
        <time>2013-09-15T10:59:15.000Z</time>
      </trkpt>
      <trkpt lat="44.98186" lon="5.54855">
        <ele>1244</ele>
        <time>2013-09-15T10:59:17.000Z</time>
      </trkpt>
      <trkpt lat="44.98185" lon="5.54861">
        <ele>1244</ele>
        <time>2013-09-15T10:59:27.000Z</time>
      </trkpt>
      <trkpt lat="44.98185" lon="5.54861">
        <ele>1244</ele>
        <time>2013-09-15T10:59:27.000Z</time>
      </trkpt>
      <trkpt lat="44.98185" lon="5.54861">
        <ele>1244</ele>
        <time>2013-09-15T10:59:28.000Z</time>
      </trkpt>
      <trkpt lat="44.98186" lon="5.54868">
        <ele>1245</ele>
        <time>2013-09-15T10:59:32.000Z</time>
      </trkpt>
      <trkpt lat="44.98187" lon="5.54874">
        <ele>1245</ele>
        <time>2013-09-15T10:59:36.000Z</time>
      </trkpt>
      <trkpt lat="44.98188" lon="5.5488">
        <ele>1246</ele>
        <time>2013-09-15T10:59:40.000Z</time>
      </trkpt>
      <trkpt lat="44.98189" lon="5.54887">
        <ele>1246</ele>
        <time>2013-09-15T10:59:43.000Z</time>
      </trkpt>
      <trkpt lat="44.98188" lon="5.54895">
        <ele>1246</ele>
        <time>2013-09-15T10:59:46.000Z</time>
      </trkpt>
      <trkpt lat="44.98188" lon="5.54902">
        <ele>1246</ele>
        <time>2013-09-15T10:59:49.000Z</time>
      </trkpt>
      <trkpt lat="44.98187" lon="5.54908">
        <ele>1246</ele>
        <time>2013-09-15T10:59:51.000Z</time>
      </trkpt>
      <trkpt lat="44.98186" lon="5.54915">
        <ele>1246</ele>
        <time>2013-09-15T10:59:54.000Z</time>
      </trkpt>
      <trkpt lat="44.98185" lon="5.54923">
        <ele>1247</ele>
        <time>2013-09-15T10:59:57.000Z</time>
      </trkpt>
      <trkpt lat="44.98185" lon="5.5493">
        <ele>1247</ele>
        <time>2013-09-15T11:00:00.000Z</time>
      </trkpt>
      <trkpt lat="44.98185" lon="5.54936">
        <ele>1247</ele>
        <time>2013-09-15T11:00:03.000Z</time>
      </trkpt>
      <trkpt lat="44.98184" lon="5.54943">
        <ele>1247</ele>
        <time>2013-09-15T11:00:06.000Z</time>
      </trkpt>
      <trkpt lat="44.98184" lon="5.54949">
        <ele>1247</ele>
        <time>2013-09-15T11:00:09.000Z</time>
      </trkpt>
      <trkpt lat="44.98182" lon="5.54955">
        <ele>1248</ele>
        <time>2013-09-15T11:00:12.000Z</time>
      </trkpt>
      <trkpt lat="44.98182" lon="5.54962">
        <ele>1248</ele>
        <time>2013-09-15T11:00:15.000Z</time>
      </trkpt>
      <trkpt lat="44.98182" lon="5.54968">
        <ele>1248</ele>
        <time>2013-09-15T11:00:18.000Z</time>
      </trkpt>
      <trkpt lat="44.98182" lon="5.54975">
        <ele>1248</ele>
        <time>2013-09-15T11:00:21.000Z</time>
      </trkpt>
      <trkpt lat="44.98182" lon="5.54981">
        <ele>1249</ele>
        <time>2013-09-15T11:00:24.000Z</time>
      </trkpt>
      <trkpt lat="44.98181" lon="5.54988">
        <ele>1249</ele>
        <time>2013-09-15T11:00:27.000Z</time>
      </trkpt>
      <trkpt lat="44.98181" lon="5.54988">
        <ele>1249</ele>
        <time>2013-09-15T11:00:27.000Z</time>
      </trkpt>
      <trkpt lat="44.98181" lon="5.54988">
        <ele>1249</ele>
        <time>2013-09-15T11:00:28.000Z</time>
      </trkpt>
      <trkpt lat="44.98179" lon="5.54994">
        <ele>1249</ele>
        <time>2013-09-15T11:00:31.000Z</time>
      </trkpt>
      <trkpt lat="44.98177" lon="5.55">
        <ele>1250</ele>
        <time>2013-09-15T11:00:34.000Z</time>
      </trkpt>
      <trkpt lat="44.98177" lon="5.55">
        <ele>1250</ele>
        <time>2013-09-15T11:00:34.000Z</time>
      </trkpt>
      <trkpt lat="44.98177" lon="5.55">
        <ele>1250</ele>
        <time>2013-09-15T11:00:35.000Z</time>
      </trkpt>
      <trkpt lat="44.98175" lon="5.55007">
        <ele>1250</ele>
        <time>2013-09-15T11:00:38.000Z</time>
      </trkpt>
      <trkpt lat="44.98173" lon="5.55013">
        <ele>1250</ele>
        <time>2013-09-15T11:00:41.000Z</time>
      </trkpt>
      <trkpt lat="44.98171" lon="5.5502">
        <ele>1250</ele>
        <time>2013-09-15T11:00:44.000Z</time>
      </trkpt>
      <trkpt lat="44.98168" lon="5.55026">
        <ele>1251</ele>
        <time>2013-09-15T11:00:47.000Z</time>
      </trkpt>
      <trkpt lat="44.98168" lon="5.55035">
        <ele>1251</ele>
        <time>2013-09-15T11:00:50.000Z</time>
      </trkpt>
      <trkpt lat="44.98165" lon="5.55041">
        <ele>1251</ele>
        <time>2013-09-15T11:00:53.000Z</time>
      </trkpt>
      <trkpt lat="44.98164" lon="5.55048">
        <ele>1251</ele>
        <time>2013-09-15T11:00:55.000Z</time>
      </trkpt>
      <trkpt lat="44.98162" lon="5.55054">
        <ele>1252</ele>
        <time>2013-09-15T11:00:58.000Z</time>
      </trkpt>
      <trkpt lat="44.98161" lon="5.55061">
        <ele>1252</ele>
        <time>2013-09-15T11:01:00.000Z</time>
      </trkpt>
      <trkpt lat="44.98158" lon="5.55067">
        <ele>1252</ele>
        <time>2013-09-15T11:01:03.000Z</time>
      </trkpt>
      <trkpt lat="44.98156" lon="5.55073">
        <ele>1252</ele>
        <time>2013-09-15T11:01:06.000Z</time>
      </trkpt>
      <trkpt lat="44.98155" lon="5.5508">
        <ele>1253</ele>
        <time>2013-09-15T11:01:08.000Z</time>
      </trkpt>
      <trkpt lat="44.98151" lon="5.55086">
        <ele>1253</ele>
        <time>2013-09-15T11:01:11.000Z</time>
      </trkpt>
      <trkpt lat="44.98149" lon="5.55093">
        <ele>1253</ele>
        <time>2013-09-15T11:01:15.000Z</time>
      </trkpt>
      <trkpt lat="44.98144" lon="5.55097">
        <ele>1254</ele>
        <time>2013-09-15T11:01:21.000Z</time>
      </trkpt>
      <trkpt lat="44.98138" lon="5.55104">
        <ele>1255</ele>
        <time>2013-09-15T11:01:26.000Z</time>
      </trkpt>
      <trkpt lat="44.98136" lon="5.5511">
        <ele>1255</ele>
        <time>2013-09-15T11:01:28.000Z</time>
      </trkpt>
      <trkpt lat="44.98135" lon="5.55116">
        <ele>1256</ele>
        <time>2013-09-15T11:01:31.000Z</time>
      </trkpt>
      <trkpt lat="44.98135" lon="5.55125">
        <ele>1257</ele>
        <time>2013-09-15T11:01:34.000Z</time>
      </trkpt>
      <trkpt lat="44.98135" lon="5.55131">
        <ele>1258</ele>
        <time>2013-09-15T11:01:37.000Z</time>
      </trkpt>
      <trkpt lat="44.98137" lon="5.55138">
        <ele>1259</ele>
        <time>2013-09-15T11:01:40.000Z</time>
      </trkpt>
      <trkpt lat="44.98141" lon="5.55142">
        <ele>1260</ele>
        <time>2013-09-15T11:01:53.000Z</time>
      </trkpt>
      <trkpt lat="44.98141" lon="5.55142">
        <ele>1260</ele>
        <time>2013-09-15T11:01:53.000Z</time>
      </trkpt>
      <trkpt lat="44.98141" lon="5.55142">
        <ele>1260</ele>
        <time>2013-09-15T11:01:56.000Z</time>
      </trkpt>
      <trkpt lat="44.98145" lon="5.55144">
        <ele>1262</ele>
        <time>2013-09-15T11:02:07.000Z</time>
      </trkpt>
      <trkpt lat="44.98145" lon="5.55144">
        <ele>1262</ele>
        <time>2013-09-15T11:02:07.000Z</time>
      </trkpt>
      <trkpt lat="44.98145" lon="5.55144">
        <ele>1262</ele>
        <time>2013-09-15T11:02:14.000Z</time>
      </trkpt>
      <trkpt lat="44.98147" lon="5.55138">
        <ele>1264</ele>
        <time>2013-09-15T11:02:46.000Z</time>
      </trkpt>
      <trkpt lat="44.98147" lon="5.55138">
        <ele>1264</ele>
        <time>2013-09-15T11:02:46.000Z</time>
      </trkpt>
      <trkpt lat="44.98147" lon="5.55138">
        <ele>1264</ele>
        <time>2013-09-15T11:03:00.000Z</time>
      </trkpt>
      <trkpt lat="44.98145" lon="5.55144">
        <ele>1266</ele>
        <time>2013-09-15T11:03:48.000Z</time>
      </trkpt>
      <trkpt lat="44.98145" lon="5.55144">
        <ele>1266</ele>
        <time>2013-09-15T11:03:48.000Z</time>
      </trkpt>
      <trkpt lat="44.98145" lon="5.55144">
        <ele>1266</ele>
        <time>2013-09-15T11:03:52.000Z</time>
      </trkpt>
      <trkpt lat="44.9815" lon="5.55144">
        <ele>1268</ele>
        <time>2013-09-15T11:04:01.000Z</time>
      </trkpt>
      <trkpt lat="44.98157" lon="5.55142">
        <ele>1269</ele>
        <time>2013-09-15T11:04:04.000Z</time>
      </trkpt>
      <trkpt lat="44.98162" lon="5.5514">
        <ele>1270</ele>
        <time>2013-09-15T11:04:06.000Z</time>
      </trkpt>
      <trkpt lat="44.98168" lon="5.55138">
        <ele>1271</ele>
        <time>2013-09-15T11:04:08.000Z</time>
      </trkpt>
      <trkpt lat="44.98173" lon="5.55138">
        <ele>1271</ele>
        <time>2013-09-15T11:04:10.000Z</time>
      </trkpt>
      <trkpt lat="44.98178" lon="5.55138">
        <ele>1272</ele>
        <time>2013-09-15T11:04:12.000Z</time>
      </trkpt>
      <trkpt lat="44.98185" lon="5.5514">
        <ele>1273</ele>
        <time>2013-09-15T11:04:15.000Z</time>
      </trkpt>
      <trkpt lat="44.98189" lon="5.55142">
        <ele>1273</ele>
        <time>2013-09-15T11:04:17.000Z</time>
      </trkpt>
      <trkpt lat="44.98193" lon="5.55144">
        <ele>1274</ele>
        <time>2013-09-15T11:04:19.000Z</time>
      </trkpt>
      <trkpt lat="44.98198" lon="5.55153">
        <ele>1274</ele>
        <time>2013-09-15T11:04:22.000Z</time>
      </trkpt>
      <trkpt lat="44.98199" lon="5.55159">
        <ele>1275</ele>
        <time>2013-09-15T11:04:24.000Z</time>
      </trkpt>
      <trkpt lat="44.98201" lon="5.55166">
        <ele>1275</ele>
        <time>2013-09-15T11:04:26.000Z</time>
      </trkpt>
      <trkpt lat="44.98201" lon="5.55172">
        <ele>1276</ele>
        <time>2013-09-15T11:04:28.000Z</time>
      </trkpt>
      <trkpt lat="44.98202" lon="5.55179">
        <ele>1276</ele>
        <time>2013-09-15T11:04:30.000Z</time>
      </trkpt>
      <trkpt lat="44.98202" lon="5.55185">
        <ele>1277</ele>
        <time>2013-09-15T11:04:32.000Z</time>
      </trkpt>
      <trkpt lat="44.98202" lon="5.55192">
        <ele>1277</ele>
        <time>2013-09-15T11:04:34.000Z</time>
      </trkpt>
      <trkpt lat="44.98201" lon="5.552">
        <ele>1278</ele>
        <time>2013-09-15T11:04:37.000Z</time>
      </trkpt>
      <trkpt lat="44.98201" lon="5.55206">
        <ele>1278</ele>
        <time>2013-09-15T11:04:39.000Z</time>
      </trkpt>
      <trkpt lat="44.98202" lon="5.55215">
        <ele>1278</ele>
        <time>2013-09-15T11:04:42.000Z</time>
      </trkpt>
      <trkpt lat="44.98203" lon="5.55224">
        <ele>1279</ele>
        <time>2013-09-15T11:04:45.000Z</time>
      </trkpt>
      <trkpt lat="44.98204" lon="5.5523">
        <ele>1279</ele>
        <time>2013-09-15T11:04:48.000Z</time>
      </trkpt>
      <trkpt lat="44.98205" lon="5.55236">
        <ele>1280</ele>
        <time>2013-09-15T11:04:50.000Z</time>
      </trkpt>
      <trkpt lat="44.98207" lon="5.55245">
        <ele>1280</ele>
        <time>2013-09-15T11:04:53.000Z</time>
      </trkpt>
      <trkpt lat="44.9821" lon="5.55252">
        <ele>1281</ele>
        <time>2013-09-15T11:04:56.000Z</time>
      </trkpt>
      <trkpt lat="44.98214" lon="5.55258">
        <ele>1282</ele>
        <time>2013-09-15T11:04:59.000Z</time>
      </trkpt>
      <trkpt lat="44.98216" lon="5.55264">
        <ele>1282</ele>
        <time>2013-09-15T11:05:01.000Z</time>
      </trkpt>
      <trkpt lat="44.98219" lon="5.55271">
        <ele>1282</ele>
        <time>2013-09-15T11:05:04.000Z</time>
      </trkpt>
      <trkpt lat="44.98223" lon="5.55275">
        <ele>1283</ele>
        <time>2013-09-15T11:05:07.000Z</time>
      </trkpt>
      <trkpt lat="44.98229" lon="5.55282">
        <ele>1283</ele>
        <time>2013-09-15T11:05:10.000Z</time>
      </trkpt>
      <trkpt lat="44.98234" lon="5.55286">
        <ele>1284</ele>
        <time>2013-09-15T11:05:13.000Z</time>
      </trkpt>
      <trkpt lat="44.98239" lon="5.55286">
        <ele>1284</ele>
        <time>2013-09-15T11:05:15.000Z</time>
      </trkpt>
      <trkpt lat="44.98245" lon="5.55288">
        <ele>1285</ele>
        <time>2013-09-15T11:05:17.000Z</time>
      </trkpt>
      <trkpt lat="44.9825" lon="5.55288">
        <ele>1285</ele>
        <time>2013-09-15T11:05:19.000Z</time>
      </trkpt>
      <trkpt lat="44.98256" lon="5.55286">
        <ele>1285</ele>
        <time>2013-09-15T11:05:21.000Z</time>
      </trkpt>
      <trkpt lat="44.98262" lon="5.55286">
        <ele>1286</ele>
        <time>2013-09-15T11:05:23.000Z</time>
      </trkpt>
      <trkpt lat="44.98269" lon="5.55286">
        <ele>1286</ele>
        <time>2013-09-15T11:05:26.000Z</time>
      </trkpt>
      <trkpt lat="44.98276" lon="5.55286">
        <ele>1286</ele>
        <time>2013-09-15T11:05:29.000Z</time>
      </trkpt>
      <trkpt lat="44.98281" lon="5.55288">
        <ele>1287</ele>
        <time>2013-09-15T11:05:32.000Z</time>
      </trkpt>
      <trkpt lat="44.98287" lon="5.55292">
        <ele>1287</ele>
        <time>2013-09-15T11:05:35.000Z</time>
      </trkpt>
      <trkpt lat="44.98292" lon="5.55294">
        <ele>1287</ele>
        <time>2013-09-15T11:05:38.000Z</time>
      </trkpt>
      <trkpt lat="44.98295" lon="5.55301">
        <ele>1288</ele>
        <time>2013-09-15T11:05:41.000Z</time>
      </trkpt>
      <trkpt lat="44.98297" lon="5.55307">
        <ele>1288</ele>
        <time>2013-09-15T11:05:44.000Z</time>
      </trkpt>
      <trkpt lat="44.98298" lon="5.55314">
        <ele>1288</ele>
        <time>2013-09-15T11:05:46.000Z</time>
      </trkpt>
      <trkpt lat="44.983" lon="5.55322">
        <ele>1289</ele>
        <time>2013-09-15T11:05:49.000Z</time>
      </trkpt>
      <trkpt lat="44.983" lon="5.55331">
        <ele>1289</ele>
        <time>2013-09-15T11:05:52.000Z</time>
      </trkpt>
      <trkpt lat="44.98303" lon="5.5534">
        <ele>1289</ele>
        <time>2013-09-15T11:05:55.000Z</time>
      </trkpt>
      <trkpt lat="44.98304" lon="5.55348">
        <ele>1290</ele>
        <time>2013-09-15T11:05:58.000Z</time>
      </trkpt>
      <trkpt lat="44.98305" lon="5.55354">
        <ele>1290</ele>
        <time>2013-09-15T11:06:01.000Z</time>
      </trkpt>
      <trkpt lat="44.98305" lon="5.55361">
        <ele>1290</ele>
        <time>2013-09-15T11:06:03.000Z</time>
      </trkpt>
      <trkpt lat="44.98306" lon="5.55367">
        <ele>1290</ele>
        <time>2013-09-15T11:06:05.000Z</time>
      </trkpt>
      <trkpt lat="44.98307" lon="5.55374">
        <ele>1291</ele>
        <time>2013-09-15T11:06:08.000Z</time>
      </trkpt>
      <trkpt lat="44.98307" lon="5.5538">
        <ele>1291</ele>
        <time>2013-09-15T11:06:10.000Z</time>
      </trkpt>
      <trkpt lat="44.98308" lon="5.55387">
        <ele>1291</ele>
        <time>2013-09-15T11:06:13.000Z</time>
      </trkpt>
      <trkpt lat="44.9831" lon="5.55393">
        <ele>1291</ele>
        <time>2013-09-15T11:06:16.000Z</time>
      </trkpt>
      <trkpt lat="44.98311" lon="5.554">
        <ele>1291</ele>
        <time>2013-09-15T11:06:18.000Z</time>
      </trkpt>
      <trkpt lat="44.98312" lon="5.55406">
        <ele>1291</ele>
        <time>2013-09-15T11:06:21.000Z</time>
      </trkpt>
      <trkpt lat="44.98314" lon="5.55415">
        <ele>1292</ele>
        <time>2013-09-15T11:06:24.000Z</time>
      </trkpt>
      <trkpt lat="44.98317" lon="5.55421">
        <ele>1292</ele>
        <time>2013-09-15T11:06:27.000Z</time>
      </trkpt>
      <trkpt lat="44.98318" lon="5.55428">
        <ele>1292</ele>
        <time>2013-09-15T11:06:29.000Z</time>
      </trkpt>
      <trkpt lat="44.9832" lon="5.55436">
        <ele>1293</ele>
        <time>2013-09-15T11:06:32.000Z</time>
      </trkpt>
      <trkpt lat="44.98323" lon="5.55442">
        <ele>1293</ele>
        <time>2013-09-15T11:06:35.000Z</time>
      </trkpt>
      <trkpt lat="44.98326" lon="5.55447">
        <ele>1294</ele>
        <time>2013-09-15T11:06:38.000Z</time>
      </trkpt>
      <trkpt lat="44.98332" lon="5.55451">
        <ele>1294</ele>
        <time>2013-09-15T11:06:41.000Z</time>
      </trkpt>
      <trkpt lat="44.98336" lon="5.55455">
        <ele>1294</ele>
        <time>2013-09-15T11:06:43.000Z</time>
      </trkpt>
      <trkpt lat="44.98341" lon="5.55458">
        <ele>1295</ele>
        <time>2013-09-15T11:06:46.000Z</time>
      </trkpt>
      <trkpt lat="44.98347" lon="5.55462">
        <ele>1295</ele>
        <time>2013-09-15T11:06:49.000Z</time>
      </trkpt>
      <trkpt lat="44.98351" lon="5.55466">
        <ele>1295</ele>
        <time>2013-09-15T11:06:52.000Z</time>
      </trkpt>
      <trkpt lat="44.98356" lon="5.55466">
        <ele>1295</ele>
        <time>2013-09-15T11:06:55.000Z</time>
      </trkpt>
      <trkpt lat="44.98361" lon="5.55468">
        <ele>1295</ele>
        <time>2013-09-15T11:06:57.000Z</time>
      </trkpt>
      <trkpt lat="44.98366" lon="5.5547">
        <ele>1296</ele>
        <time>2013-09-15T11:07:00.000Z</time>
      </trkpt>
      <trkpt lat="44.9837" lon="5.55473">
        <ele>1296</ele>
        <time>2013-09-15T11:07:03.000Z</time>
      </trkpt>
      <trkpt lat="44.98376" lon="5.55475">
        <ele>1296</ele>
        <time>2013-09-15T11:07:06.000Z</time>
      </trkpt>
      <trkpt lat="44.9838" lon="5.55477">
        <ele>1297</ele>
        <time>2013-09-15T11:07:09.000Z</time>
      </trkpt>
      <trkpt lat="44.98385" lon="5.55481">
        <ele>1297</ele>
        <time>2013-09-15T11:07:12.000Z</time>
      </trkpt>
      <trkpt lat="44.9839" lon="5.55485">
        <ele>1297</ele>
        <time>2013-09-15T11:07:15.000Z</time>
      </trkpt>
      <trkpt lat="44.98394" lon="5.5549">
        <ele>1297</ele>
        <time>2013-09-15T11:07:18.000Z</time>
      </trkpt>
      <trkpt lat="44.98398" lon="5.55492">
        <ele>1298</ele>
        <time>2013-09-15T11:07:21.000Z</time>
      </trkpt>
      <trkpt lat="44.98402" lon="5.55496">
        <ele>1298</ele>
        <time>2013-09-15T11:07:24.000Z</time>
      </trkpt>
      <trkpt lat="44.98408" lon="5.55503">
        <ele>1298</ele>
        <time>2013-09-15T11:07:28.000Z</time>
      </trkpt>
      <trkpt lat="44.98412" lon="5.55507">
        <ele>1298</ele>
        <time>2013-09-15T11:07:31.000Z</time>
      </trkpt>
      <trkpt lat="44.98416" lon="5.55511">
        <ele>1298</ele>
        <time>2013-09-15T11:07:34.000Z</time>
      </trkpt>
      <trkpt lat="44.98421" lon="5.55513">
        <ele>1298</ele>
        <time>2013-09-15T11:07:37.000Z</time>
      </trkpt>
      <trkpt lat="44.98426" lon="5.55518">
        <ele>1298</ele>
        <time>2013-09-15T11:07:41.000Z</time>
      </trkpt>
      <trkpt lat="44.9843" lon="5.5552">
        <ele>1298</ele>
        <time>2013-09-15T11:07:44.000Z</time>
      </trkpt>
      <trkpt lat="44.98435" lon="5.55522">
        <ele>1298</ele>
        <time>2013-09-15T11:07:46.000Z</time>
      </trkpt>
      <trkpt lat="44.98442" lon="5.5552">
        <ele>1298</ele>
        <time>2013-09-15T11:07:49.000Z</time>
      </trkpt>
      <trkpt lat="44.98449" lon="5.55518">
        <ele>1298</ele>
        <time>2013-09-15T11:07:51.000Z</time>
      </trkpt>
      <trkpt lat="44.98455" lon="5.55516">
        <ele>1298</ele>
        <time>2013-09-15T11:07:53.000Z</time>
      </trkpt>
      <trkpt lat="44.9846" lon="5.55516">
        <ele>1298</ele>
        <time>2013-09-15T11:07:55.000Z</time>
      </trkpt>
      <trkpt lat="44.98465" lon="5.55513">
        <ele>1298</ele>
        <time>2013-09-15T11:07:57.000Z</time>
      </trkpt>
      <trkpt lat="44.9847" lon="5.55513">
        <ele>1298</ele>
        <time>2013-09-15T11:07:59.000Z</time>
      </trkpt>
      <trkpt lat="44.98475" lon="5.55513">
        <ele>1298</ele>
        <time>2013-09-15T11:08:01.000Z</time>
      </trkpt>
      <trkpt lat="44.98483" lon="5.55511">
        <ele>1298</ele>
        <time>2013-09-15T11:08:04.000Z</time>
      </trkpt>
      <trkpt lat="44.98488" lon="5.55511">
        <ele>1297</ele>
        <time>2013-09-15T11:08:06.000Z</time>
      </trkpt>
      <trkpt lat="44.98495" lon="5.55509">
        <ele>1297</ele>
        <time>2013-09-15T11:08:08.000Z</time>
      </trkpt>
      <trkpt lat="44.98501" lon="5.55507">
        <ele>1297</ele>
        <time>2013-09-15T11:08:10.000Z</time>
      </trkpt>
      <trkpt lat="44.98508" lon="5.55503">
        <ele>1297</ele>
        <time>2013-09-15T11:08:12.000Z</time>
      </trkpt>
      <trkpt lat="44.98514" lon="5.555">
        <ele>1297</ele>
        <time>2013-09-15T11:08:14.000Z</time>
      </trkpt>
      <trkpt lat="44.98519" lon="5.55498">
        <ele>1297</ele>
        <time>2013-09-15T11:08:16.000Z</time>
      </trkpt>
      <trkpt lat="44.98524" lon="5.55496">
        <ele>1297</ele>
        <time>2013-09-15T11:08:18.000Z</time>
      </trkpt>
      <trkpt lat="44.98528" lon="5.55494">
        <ele>1297</ele>
        <time>2013-09-15T11:08:20.000Z</time>
      </trkpt>
      <trkpt lat="44.98534" lon="5.55494">
        <ele>1296</ele>
        <time>2013-09-15T11:08:23.000Z</time>
      </trkpt>
      <trkpt lat="44.98539" lon="5.55492">
        <ele>1296</ele>
        <time>2013-09-15T11:08:25.000Z</time>
      </trkpt>
      <trkpt lat="44.98545" lon="5.55492">
        <ele>1296</ele>
        <time>2013-09-15T11:08:28.000Z</time>
      </trkpt>
      <trkpt lat="44.98549" lon="5.5549">
        <ele>1296</ele>
        <time>2013-09-15T11:08:30.000Z</time>
      </trkpt>
      <trkpt lat="44.98556" lon="5.5549">
        <ele>1296</ele>
        <time>2013-09-15T11:08:33.000Z</time>
      </trkpt>
      <trkpt lat="44.9856" lon="5.55488">
        <ele>1295</ele>
        <time>2013-09-15T11:08:35.000Z</time>
      </trkpt>
      <trkpt lat="44.98566" lon="5.55488">
        <ele>1295</ele>
        <time>2013-09-15T11:08:38.000Z</time>
      </trkpt>
      <trkpt lat="44.98572" lon="5.55488">
        <ele>1295</ele>
        <time>2013-09-15T11:08:41.000Z</time>
      </trkpt>
      <trkpt lat="44.98578" lon="5.55488">
        <ele>1295</ele>
        <time>2013-09-15T11:08:44.000Z</time>
      </trkpt>
      <trkpt lat="44.98585" lon="5.55488">
        <ele>1294</ele>
        <time>2013-09-15T11:08:47.000Z</time>
      </trkpt>
      <trkpt lat="44.9859" lon="5.55488">
        <ele>1294</ele>
        <time>2013-09-15T11:08:49.000Z</time>
      </trkpt>
      <trkpt lat="44.98597" lon="5.55488">
        <ele>1294</ele>
        <time>2013-09-15T11:08:52.000Z</time>
      </trkpt>
      <trkpt lat="44.98603" lon="5.55488">
        <ele>1294</ele>
        <time>2013-09-15T11:08:55.000Z</time>
      </trkpt>
      <trkpt lat="44.9861" lon="5.55488">
        <ele>1293</ele>
        <time>2013-09-15T11:08:58.000Z</time>
      </trkpt>
      <trkpt lat="44.98616" lon="5.55488">
        <ele>1293</ele>
        <time>2013-09-15T11:09:01.000Z</time>
      </trkpt>
      <trkpt lat="44.98622" lon="5.55488">
        <ele>1293</ele>
        <time>2013-09-15T11:09:04.000Z</time>
      </trkpt>
      <trkpt lat="44.98628" lon="5.55488">
        <ele>1293</ele>
        <time>2013-09-15T11:09:06.000Z</time>
      </trkpt>
      <trkpt lat="44.98633" lon="5.55485">
        <ele>1293</ele>
        <time>2013-09-15T11:09:08.000Z</time>
      </trkpt>
      <trkpt lat="44.9864" lon="5.55485">
        <ele>1292</ele>
        <time>2013-09-15T11:09:11.000Z</time>
      </trkpt>
      <trkpt lat="44.98645" lon="5.55483">
        <ele>1292</ele>
        <time>2013-09-15T11:09:13.000Z</time>
      </trkpt>
      <trkpt lat="44.98651" lon="5.55481">
        <ele>1292</ele>
        <time>2013-09-15T11:09:16.000Z</time>
      </trkpt>
      <trkpt lat="44.98657" lon="5.55481">
        <ele>1292</ele>
        <time>2013-09-15T11:09:18.000Z</time>
      </trkpt>
      <trkpt lat="44.98663" lon="5.55479">
        <ele>1292</ele>
        <time>2013-09-15T11:09:21.000Z</time>
      </trkpt>
      <trkpt lat="44.9867" lon="5.55479">
        <ele>1291</ele>
        <time>2013-09-15T11:09:24.000Z</time>
      </trkpt>
      <trkpt lat="44.98676" lon="5.55479">
        <ele>1291</ele>
        <time>2013-09-15T11:09:27.000Z</time>
      </trkpt>
      <trkpt lat="44.9868" lon="5.55477">
        <ele>1291</ele>
        <time>2013-09-15T11:09:29.000Z</time>
      </trkpt>
      <trkpt lat="44.98688" lon="5.55477">
        <ele>1291</ele>
        <time>2013-09-15T11:09:32.000Z</time>
      </trkpt>
      <trkpt lat="44.98694" lon="5.55477">
        <ele>1291</ele>
        <time>2013-09-15T11:09:35.000Z</time>
      </trkpt>
      <trkpt lat="44.98701" lon="5.55477">
        <ele>1290</ele>
        <time>2013-09-15T11:09:38.000Z</time>
      </trkpt>
      <trkpt lat="44.98705" lon="5.55475">
        <ele>1290</ele>
        <time>2013-09-15T11:09:40.000Z</time>
      </trkpt>
      <trkpt lat="44.98711" lon="5.55475">
        <ele>1290</ele>
        <time>2013-09-15T11:09:43.000Z</time>
      </trkpt>
      <trkpt lat="44.98718" lon="5.55475">
        <ele>1290</ele>
        <time>2013-09-15T11:09:46.000Z</time>
      </trkpt>
      <trkpt lat="44.98722" lon="5.55473">
        <ele>1290</ele>
        <time>2013-09-15T11:09:48.000Z</time>
      </trkpt>
      <trkpt lat="44.98729" lon="5.55473">
        <ele>1289</ele>
        <time>2013-09-15T11:09:51.000Z</time>
      </trkpt>
      <trkpt lat="44.98735" lon="5.55473">
        <ele>1289</ele>
        <time>2013-09-15T11:09:54.000Z</time>
      </trkpt>
      <trkpt lat="44.98742" lon="5.55473">
        <ele>1289</ele>
        <time>2013-09-15T11:09:57.000Z</time>
      </trkpt>
      <trkpt lat="44.98748" lon="5.55473">
        <ele>1288</ele>
        <time>2013-09-15T11:10:00.000Z</time>
      </trkpt>
      <trkpt lat="44.98754" lon="5.55473">
        <ele>1288</ele>
        <time>2013-09-15T11:10:03.000Z</time>
      </trkpt>
      <trkpt lat="44.9876" lon="5.55473">
        <ele>1288</ele>
        <time>2013-09-15T11:10:05.000Z</time>
      </trkpt>
      <trkpt lat="44.98766" lon="5.55475">
        <ele>1287</ele>
        <time>2013-09-15T11:10:08.000Z</time>
      </trkpt>
      <trkpt lat="44.98774" lon="5.55475">
        <ele>1287</ele>
        <time>2013-09-15T11:10:11.000Z</time>
      </trkpt>
      <trkpt lat="44.98778" lon="5.55477">
        <ele>1287</ele>
        <time>2013-09-15T11:10:13.000Z</time>
      </trkpt>
      <trkpt lat="44.98783" lon="5.55479">
        <ele>1286</ele>
        <time>2013-09-15T11:10:15.000Z</time>
      </trkpt>
      <trkpt lat="44.98789" lon="5.55481">
        <ele>1286</ele>
        <time>2013-09-15T11:10:17.000Z</time>
      </trkpt>
      <trkpt lat="44.98794" lon="5.55485">
        <ele>1286</ele>
        <time>2013-09-15T11:10:19.000Z</time>
      </trkpt>
      <trkpt lat="44.98798" lon="5.55488">
        <ele>1285</ele>
        <time>2013-09-15T11:10:21.000Z</time>
      </trkpt>
      <trkpt lat="44.98804" lon="5.5549">
        <ele>1285</ele>
        <time>2013-09-15T11:10:23.000Z</time>
      </trkpt>
      <trkpt lat="44.98809" lon="5.55492">
        <ele>1285</ele>
        <time>2013-09-15T11:10:25.000Z</time>
      </trkpt>
      <trkpt lat="44.98813" lon="5.55494">
        <ele>1285</ele>
        <time>2013-09-15T11:10:27.000Z</time>
      </trkpt>
      <trkpt lat="44.98818" lon="5.55498">
        <ele>1285</ele>
        <time>2013-09-15T11:10:29.000Z</time>
      </trkpt>
      <trkpt lat="44.98821" lon="5.55505">
        <ele>1284</ele>
        <time>2013-09-15T11:10:32.000Z</time>
      </trkpt>
      <trkpt lat="44.98822" lon="5.55511">
        <ele>1284</ele>
        <time>2013-09-15T11:10:34.000Z</time>
      </trkpt>
      <trkpt lat="44.98823" lon="5.55518">
        <ele>1284</ele>
        <time>2013-09-15T11:10:35.000Z</time>
      </trkpt>
      <trkpt lat="44.98823" lon="5.55524">
        <ele>1284</ele>
        <time>2013-09-15T11:10:36.000Z</time>
      </trkpt>
      <trkpt lat="44.98824" lon="5.5553">
        <ele>1283</ele>
        <time>2013-09-15T11:10:37.000Z</time>
      </trkpt>
      <trkpt lat="44.98824" lon="5.55539">
        <ele>1283</ele>
        <time>2013-09-15T11:10:38.000Z</time>
      </trkpt>
      <trkpt lat="44.98824" lon="5.55548">
        <ele>1282</ele>
        <time>2013-09-15T11:10:39.000Z</time>
      </trkpt>
      <trkpt lat="44.98825" lon="5.55556">
        <ele>1282</ele>
        <time>2013-09-15T11:10:40.000Z</time>
      </trkpt>
      <trkpt lat="44.98825" lon="5.55563">
        <ele>1282</ele>
        <time>2013-09-15T11:10:41.000Z</time>
      </trkpt>
      <trkpt lat="44.98825" lon="5.55571">
        <ele>1282</ele>
        <time>2013-09-15T11:10:42.000Z</time>
      </trkpt>
      <trkpt lat="44.98825" lon="5.5558">
        <ele>1282</ele>
        <time>2013-09-15T11:10:43.000Z</time>
      </trkpt>
      <trkpt lat="44.98825" lon="5.55588">
        <ele>1282</ele>
        <time>2013-09-15T11:10:44.000Z</time>
      </trkpt>
      <trkpt lat="44.98825" lon="5.55597">
        <ele>1282</ele>
        <time>2013-09-15T11:10:45.000Z</time>
      </trkpt>
      <trkpt lat="44.98824" lon="5.55604">
        <ele>1282</ele>
        <time>2013-09-15T11:10:46.000Z</time>
      </trkpt>
      <trkpt lat="44.98824" lon="5.55612">
        <ele>1283</ele>
        <time>2013-09-15T11:10:47.000Z</time>
      </trkpt>
      <trkpt lat="44.98823" lon="5.55621">
        <ele>1284</ele>
        <time>2013-09-15T11:10:48.000Z</time>
      </trkpt>
      <trkpt lat="44.98822" lon="5.55629">
        <ele>1285</ele>
        <time>2013-09-15T11:10:49.000Z</time>
      </trkpt>
      <trkpt lat="44.9882" lon="5.55638">
        <ele>1286</ele>
        <time>2013-09-15T11:10:50.000Z</time>
      </trkpt>
      <trkpt lat="44.98817" lon="5.55646">
        <ele>1287</ele>
        <time>2013-09-15T11:10:51.000Z</time>
      </trkpt>
      <trkpt lat="44.98813" lon="5.55655">
        <ele>1288</ele>
        <time>2013-09-15T11:10:52.000Z</time>
      </trkpt>
      <trkpt lat="44.9881" lon="5.55661">
        <ele>1289</ele>
        <time>2013-09-15T11:10:53.000Z</time>
      </trkpt>
      <trkpt lat="44.98806" lon="5.55668">
        <ele>1289</ele>
        <time>2013-09-15T11:10:54.000Z</time>
      </trkpt>
      <trkpt lat="44.98803" lon="5.55676">
        <ele>1290</ele>
        <time>2013-09-15T11:10:55.000Z</time>
      </trkpt>
      <trkpt lat="44.98798" lon="5.55683">
        <ele>1290</ele>
        <time>2013-09-15T11:10:56.000Z</time>
      </trkpt>
      <trkpt lat="44.98794" lon="5.55689">
        <ele>1290</ele>
        <time>2013-09-15T11:10:57.000Z</time>
      </trkpt>
      <trkpt lat="44.9879" lon="5.55696">
        <ele>1290</ele>
        <time>2013-09-15T11:10:58.000Z</time>
      </trkpt>
      <trkpt lat="44.98786" lon="5.55702">
        <ele>1291</ele>
        <time>2013-09-15T11:10:59.000Z</time>
      </trkpt>
      <trkpt lat="44.98782" lon="5.55706">
        <ele>1291</ele>
        <time>2013-09-15T11:11:00.000Z</time>
      </trkpt>
      <trkpt lat="44.98779" lon="5.55713">
        <ele>1291</ele>
        <time>2013-09-15T11:11:01.000Z</time>
      </trkpt>
      <trkpt lat="44.98777" lon="5.55719">
        <ele>1291</ele>
        <time>2013-09-15T11:11:02.000Z</time>
      </trkpt>
      <trkpt lat="44.98775" lon="5.55726">
        <ele>1291</ele>
        <time>2013-09-15T11:11:03.000Z</time>
      </trkpt>
      <trkpt lat="44.98776" lon="5.55732">
        <ele>1291</ele>
        <time>2013-09-15T11:11:04.000Z</time>
      </trkpt>
      <trkpt lat="44.98778" lon="5.55739">
        <ele>1290</ele>
        <time>2013-09-15T11:11:05.000Z</time>
      </trkpt>
      <trkpt lat="44.98783" lon="5.55747">
        <ele>1290</ele>
        <time>2013-09-15T11:11:07.000Z</time>
      </trkpt>
      <trkpt lat="44.98785" lon="5.55754">
        <ele>1289</ele>
        <time>2013-09-15T11:11:08.000Z</time>
      </trkpt>
      <trkpt lat="44.98789" lon="5.55758">
        <ele>1289</ele>
        <time>2013-09-15T11:11:09.000Z</time>
      </trkpt>
      <trkpt lat="44.98793" lon="5.55762">
        <ele>1288</ele>
        <time>2013-09-15T11:11:10.000Z</time>
      </trkpt>
      <trkpt lat="44.988" lon="5.55771">
        <ele>1287</ele>
        <time>2013-09-15T11:11:12.000Z</time>
      </trkpt>
      <trkpt lat="44.98805" lon="5.55777">
        <ele>1287</ele>
        <time>2013-09-15T11:11:13.000Z</time>
      </trkpt>
      <trkpt lat="44.98809" lon="5.55784">
        <ele>1287</ele>
        <time>2013-09-15T11:11:14.000Z</time>
      </trkpt>
      <trkpt lat="44.98813" lon="5.5579">
        <ele>1286</ele>
        <time>2013-09-15T11:11:15.000Z</time>
      </trkpt>
      <trkpt lat="44.98818" lon="5.55797">
        <ele>1286</ele>
        <time>2013-09-15T11:11:16.000Z</time>
      </trkpt>
      <trkpt lat="44.98822" lon="5.55803">
        <ele>1286</ele>
        <time>2013-09-15T11:11:17.000Z</time>
      </trkpt>
      <trkpt lat="44.98826" lon="5.55809">
        <ele>1285</ele>
        <time>2013-09-15T11:11:18.000Z</time>
      </trkpt>
      <trkpt lat="44.98832" lon="5.55816">
        <ele>1285</ele>
        <time>2013-09-15T11:11:19.000Z</time>
      </trkpt>
      <trkpt lat="44.98836" lon="5.5582">
        <ele>1285</ele>
        <time>2013-09-15T11:11:20.000Z</time>
      </trkpt>
      <trkpt lat="44.9884" lon="5.55824">
        <ele>1285</ele>
        <time>2013-09-15T11:11:21.000Z</time>
      </trkpt>
      <trkpt lat="44.98844" lon="5.55831">
        <ele>1285</ele>
        <time>2013-09-15T11:11:22.000Z</time>
      </trkpt>
      <trkpt lat="44.98849" lon="5.55835">
        <ele>1284</ele>
        <time>2013-09-15T11:11:23.000Z</time>
      </trkpt>
      <trkpt lat="44.98852" lon="5.5584">
        <ele>1284</ele>
        <time>2013-09-15T11:11:24.000Z</time>
      </trkpt>
      <trkpt lat="44.98855" lon="5.5585">
        <ele>1283</ele>
        <time>2013-09-15T11:11:26.000Z</time>
      </trkpt>
      <trkpt lat="44.98858" lon="5.55859">
        <ele>1283</ele>
        <time>2013-09-15T11:11:28.000Z</time>
      </trkpt>
      <trkpt lat="44.98862" lon="5.55867">
        <ele>1283</ele>
        <time>2013-09-15T11:11:32.000Z</time>
      </trkpt>
      <trkpt lat="44.98862" lon="5.55867">
        <ele>1283</ele>
        <time>2013-09-15T11:11:32.000Z</time>
      </trkpt>
      <trkpt lat="44.98862" lon="5.55867">
        <ele>1283</ele>
        <time>2013-09-15T11:11:34.000Z</time>
      </trkpt>
      <trkpt lat="44.98864" lon="5.55876">
        <ele>1283</ele>
        <time>2013-09-15T11:11:35.000Z</time>
      </trkpt>
      <trkpt lat="44.98864" lon="5.55876">
        <ele>1283</ele>
        <time>2013-09-15T11:11:35.000Z</time>
      </trkpt>
      <trkpt lat="44.98864" lon="5.55876">
        <ele>1283</ele>
        <time>2013-09-15T11:11:39.000Z</time>
      </trkpt>
      <trkpt lat="44.98872" lon="5.5588">
        <ele>1282</ele>
        <time>2013-09-15T11:11:40.000Z</time>
      </trkpt>
      <trkpt lat="44.98872" lon="5.5588">
        <ele>1282</ele>
        <time>2013-09-15T11:11:40.000Z</time>
      </trkpt>
      <trkpt lat="44.98872" lon="5.5588">
        <ele>1282</ele>
        <time>2013-09-15T11:11:43.000Z</time>
      </trkpt>
      <trkpt lat="44.98881" lon="5.55887">
        <ele>1282</ele>
        <time>2013-09-15T11:11:44.000Z</time>
      </trkpt>
      <trkpt lat="44.98885" lon="5.55893">
        <ele>1282</ele>
        <time>2013-09-15T11:11:46.000Z</time>
      </trkpt>
      <trkpt lat="44.98887" lon="5.55902">
        <ele>1281</ele>
        <time>2013-09-15T11:11:48.000Z</time>
      </trkpt>
      <trkpt lat="44.98884" lon="5.5591">
        <ele>1281</ele>
        <time>2013-09-15T11:11:50.000Z</time>
      </trkpt>
      <trkpt lat="44.98881" lon="5.55919">
        <ele>1281</ele>
        <time>2013-09-15T11:11:52.000Z</time>
      </trkpt>
      <trkpt lat="44.98877" lon="5.55928">
        <ele>1281</ele>
        <time>2013-09-15T11:11:54.000Z</time>
      </trkpt>
      <trkpt lat="44.98873" lon="5.55936">
        <ele>1281</ele>
        <time>2013-09-15T11:11:56.000Z</time>
      </trkpt>
      <trkpt lat="44.98869" lon="5.55945">
        <ele>1281</ele>
        <time>2013-09-15T11:11:58.000Z</time>
      </trkpt>
      <trkpt lat="44.98866" lon="5.55951">
        <ele>1281</ele>
        <time>2013-09-15T11:12:00.000Z</time>
      </trkpt>
      <trkpt lat="44.98862" lon="5.5596">
        <ele>1280</ele>
        <time>2013-09-15T11:12:02.000Z</time>
      </trkpt>
      <trkpt lat="44.98858" lon="5.55968">
        <ele>1280</ele>
        <time>2013-09-15T11:12:04.000Z</time>
      </trkpt>
      <trkpt lat="44.98854" lon="5.55977">
        <ele>1280</ele>
        <time>2013-09-15T11:12:06.000Z</time>
      </trkpt>
      <trkpt lat="44.98854" lon="5.55977">
        <ele>1280</ele>
        <time>2013-09-15T11:12:06.000Z</time>
      </trkpt>
      <trkpt lat="44.98854" lon="5.55977">
        <ele>1280</ele>
        <time>2013-09-15T11:12:09.000Z</time>
      </trkpt>
      <trkpt lat="44.98849" lon="5.55988">
        <ele>1280</ele>
        <time>2013-09-15T11:12:10.000Z</time>
      </trkpt>
      <trkpt lat="44.98849" lon="5.55988">
        <ele>1280</ele>
        <time>2013-09-15T11:12:10.000Z</time>
      </trkpt>
      <trkpt lat="44.98849" lon="5.55988">
        <ele>1280</ele>
        <time>2013-09-15T11:12:12.000Z</time>
      </trkpt>
      <trkpt lat="44.98843" lon="5.55996">
        <ele>1280</ele>
        <time>2013-09-15T11:12:13.000Z</time>
      </trkpt>
      <trkpt lat="44.9884" lon="5.56003">
        <ele>1280</ele>
        <time>2013-09-15T11:12:15.000Z</time>
      </trkpt>
      <trkpt lat="44.98836" lon="5.56007">
        <ele>1280</ele>
        <time>2013-09-15T11:12:17.000Z</time>
      </trkpt>
      <trkpt lat="44.98833" lon="5.56013">
        <ele>1280</ele>
        <time>2013-09-15T11:12:19.000Z</time>
      </trkpt>
      <trkpt lat="44.98834" lon="5.56022">
        <ele>1280</ele>
        <time>2013-09-15T11:12:21.000Z</time>
      </trkpt>
      <trkpt lat="44.98837" lon="5.5603">
        <ele>1280</ele>
        <time>2013-09-15T11:12:23.000Z</time>
      </trkpt>
      <trkpt lat="44.9884" lon="5.56039">
        <ele>1280</ele>
        <time>2013-09-15T11:12:25.000Z</time>
      </trkpt>
      <trkpt lat="44.98844" lon="5.56046">
        <ele>1280</ele>
        <time>2013-09-15T11:12:27.000Z</time>
      </trkpt>
      <trkpt lat="44.9885" lon="5.5605">
        <ele>1280</ele>
        <time>2013-09-15T11:12:29.000Z</time>
      </trkpt>
      <trkpt lat="44.98854" lon="5.56052">
        <ele>1280</ele>
        <time>2013-09-15T11:12:31.000Z</time>
      </trkpt>
      <trkpt lat="44.9886" lon="5.56056">
        <ele>1280</ele>
        <time>2013-09-15T11:12:33.000Z</time>
      </trkpt>
      <trkpt lat="44.98868" lon="5.5606">
        <ele>1280</ele>
        <time>2013-09-15T11:12:35.000Z</time>
      </trkpt>
      <trkpt lat="44.98873" lon="5.56063">
        <ele>1281</ele>
        <time>2013-09-15T11:12:36.000Z</time>
      </trkpt>
      <trkpt lat="44.98879" lon="5.56065">
        <ele>1281</ele>
        <time>2013-09-15T11:12:37.000Z</time>
      </trkpt>
      <trkpt lat="44.98885" lon="5.56067">
        <ele>1282</ele>
        <time>2013-09-15T11:12:38.000Z</time>
      </trkpt>
      <trkpt lat="44.98891" lon="5.56071">
        <ele>1282</ele>
        <time>2013-09-15T11:12:39.000Z</time>
      </trkpt>
      <trkpt lat="44.98896" lon="5.56073">
        <ele>1282</ele>
        <time>2013-09-15T11:12:40.000Z</time>
      </trkpt>
      <trkpt lat="44.98901" lon="5.56078">
        <ele>1282</ele>
        <time>2013-09-15T11:12:41.000Z</time>
      </trkpt>
      <trkpt lat="44.98906" lon="5.5608">
        <ele>1282</ele>
        <time>2013-09-15T11:12:42.000Z</time>
      </trkpt>
      <trkpt lat="44.98911" lon="5.56084">
        <ele>1282</ele>
        <time>2013-09-15T11:12:43.000Z</time>
      </trkpt>
      <trkpt lat="44.98916" lon="5.56088">
        <ele>1281</ele>
        <time>2013-09-15T11:12:44.000Z</time>
      </trkpt>
      <trkpt lat="44.98922" lon="5.56093">
        <ele>1281</ele>
        <time>2013-09-15T11:12:45.000Z</time>
      </trkpt>
      <trkpt lat="44.98927" lon="5.56099">
        <ele>1281</ele>
        <time>2013-09-15T11:12:46.000Z</time>
      </trkpt>
      <trkpt lat="44.98934" lon="5.56106">
        <ele>1280</ele>
        <time>2013-09-15T11:12:47.000Z</time>
      </trkpt>
      <trkpt lat="44.9894" lon="5.56114">
        <ele>1280</ele>
        <time>2013-09-15T11:12:48.000Z</time>
      </trkpt>
      <trkpt lat="44.98944" lon="5.56127">
        <ele>1280</ele>
        <time>2013-09-15T11:12:49.000Z</time>
      </trkpt>
      <trkpt lat="44.9895" lon="5.56138">
        <ele>1279</ele>
        <time>2013-09-15T11:12:50.000Z</time>
      </trkpt>
      <trkpt lat="44.98954" lon="5.56148">
        <ele>1279</ele>
        <time>2013-09-15T11:12:51.000Z</time>
      </trkpt>
      <trkpt lat="44.98959" lon="5.56159">
        <ele>1278</ele>
        <time>2013-09-15T11:12:52.000Z</time>
      </trkpt>
      <trkpt lat="44.98965" lon="5.5617">
        <ele>1278</ele>
        <time>2013-09-15T11:12:53.000Z</time>
      </trkpt>
      <trkpt lat="44.98971" lon="5.56176">
        <ele>1278</ele>
        <time>2013-09-15T11:12:54.000Z</time>
      </trkpt>
      <trkpt lat="44.98978" lon="5.56183">
        <ele>1278</ele>
        <time>2013-09-15T11:12:55.000Z</time>
      </trkpt>
      <trkpt lat="44.98982" lon="5.56189">
        <ele>1279</ele>
        <time>2013-09-15T11:12:56.000Z</time>
      </trkpt>
      <trkpt lat="44.98985" lon="5.56194">
        <ele>1278</ele>
        <time>2013-09-15T11:12:57.000Z</time>
      </trkpt>
      <trkpt lat="44.98988" lon="5.56198">
        <ele>1278</ele>
        <time>2013-09-15T11:12:58.000Z</time>
      </trkpt>
      <trkpt lat="44.98994" lon="5.56204">
        <ele>1278</ele>
        <time>2013-09-15T11:13:00.000Z</time>
      </trkpt>
      <trkpt lat="44.98998" lon="5.56211">
        <ele>1277</ele>
        <time>2013-09-15T11:13:01.000Z</time>
      </trkpt>
      <trkpt lat="44.99003" lon="5.56215">
        <ele>1277</ele>
        <time>2013-09-15T11:13:02.000Z</time>
      </trkpt>
      <trkpt lat="44.99008" lon="5.56221">
        <ele>1276</ele>
        <time>2013-09-15T11:13:03.000Z</time>
      </trkpt>
      <trkpt lat="44.99013" lon="5.56228">
        <ele>1275</ele>
        <time>2013-09-15T11:13:05.000Z</time>
      </trkpt>
      <trkpt lat="44.99016" lon="5.56239">
        <ele>1273</ele>
        <time>2013-09-15T11:13:07.000Z</time>
      </trkpt>
      <trkpt lat="44.99013" lon="5.56247">
        <ele>1273</ele>
        <time>2013-09-15T11:13:08.000Z</time>
      </trkpt>
      <trkpt lat="44.99011" lon="5.56254">
        <ele>1273</ele>
        <time>2013-09-15T11:13:09.000Z</time>
      </trkpt>
      <trkpt lat="44.9901" lon="5.56262">
        <ele>1273</ele>
        <time>2013-09-15T11:13:10.000Z</time>
      </trkpt>
      <trkpt lat="44.99009" lon="5.56269">
        <ele>1272</ele>
        <time>2013-09-15T11:13:11.000Z</time>
      </trkpt>
      <trkpt lat="44.9901" lon="5.56279">
        <ele>1272</ele>
        <time>2013-09-15T11:13:12.000Z</time>
      </trkpt>
      <trkpt lat="44.99012" lon="5.56288">
        <ele>1271</ele>
        <time>2013-09-15T11:13:13.000Z</time>
      </trkpt>
      <trkpt lat="44.99014" lon="5.56296">
        <ele>1271</ele>
        <time>2013-09-15T11:13:14.000Z</time>
      </trkpt>
      <trkpt lat="44.99017" lon="5.56305">
        <ele>1270</ele>
        <time>2013-09-15T11:13:15.000Z</time>
      </trkpt>
      <trkpt lat="44.99019" lon="5.56314">
        <ele>1270</ele>
        <time>2013-09-15T11:13:16.000Z</time>
      </trkpt>
      <trkpt lat="44.99023" lon="5.56322">
        <ele>1270</ele>
        <time>2013-09-15T11:13:17.000Z</time>
      </trkpt>
      <trkpt lat="44.99028" lon="5.56331">
        <ele>1269</ele>
        <time>2013-09-15T11:13:18.000Z</time>
      </trkpt>
      <trkpt lat="44.99033" lon="5.5634">
        <ele>1269</ele>
        <time>2013-09-15T11:13:19.000Z</time>
      </trkpt>
      <trkpt lat="44.9904" lon="5.56348">
        <ele>1269</ele>
        <time>2013-09-15T11:13:20.000Z</time>
      </trkpt>
      <trkpt lat="44.99045" lon="5.56354">
        <ele>1269</ele>
        <time>2013-09-15T11:13:21.000Z</time>
      </trkpt>
      <trkpt lat="44.99052" lon="5.56363">
        <ele>1269</ele>
        <time>2013-09-15T11:13:22.000Z</time>
      </trkpt>
      <trkpt lat="44.99057" lon="5.5637">
        <ele>1269</ele>
        <time>2013-09-15T11:13:23.000Z</time>
      </trkpt>
      <trkpt lat="44.99062" lon="5.56378">
        <ele>1270</ele>
        <time>2013-09-15T11:13:24.000Z</time>
      </trkpt>
      <trkpt lat="44.99069" lon="5.56384">
        <ele>1270</ele>
        <time>2013-09-15T11:13:25.000Z</time>
      </trkpt>
      <trkpt lat="44.99071" lon="5.56395">
        <ele>1271</ele>
        <time>2013-09-15T11:13:26.000Z</time>
      </trkpt>
      <trkpt lat="44.99073" lon="5.56404">
        <ele>1271</ele>
        <time>2013-09-15T11:13:27.000Z</time>
      </trkpt>
      <trkpt lat="44.99075" lon="5.5641">
        <ele>1271</ele>
        <time>2013-09-15T11:13:28.000Z</time>
      </trkpt>
      <trkpt lat="44.99074" lon="5.56417">
        <ele>1271</ele>
        <time>2013-09-15T11:13:29.000Z</time>
      </trkpt>
      <trkpt lat="44.99073" lon="5.56423">
        <ele>1271</ele>
        <time>2013-09-15T11:13:30.000Z</time>
      </trkpt>
      <trkpt lat="44.99069" lon="5.56432">
        <ele>1271</ele>
        <time>2013-09-15T11:13:32.000Z</time>
      </trkpt>
      <trkpt lat="44.99063" lon="5.5644">
        <ele>1271</ele>
        <time>2013-09-15T11:13:34.000Z</time>
      </trkpt>
      <trkpt lat="44.99058" lon="5.56447">
        <ele>1271</ele>
        <time>2013-09-15T11:13:36.000Z</time>
      </trkpt>
      <trkpt lat="44.99054" lon="5.56451">
        <ele>1271</ele>
        <time>2013-09-15T11:13:37.000Z</time>
      </trkpt>
      <trkpt lat="44.99049" lon="5.56458">
        <ele>1271</ele>
        <time>2013-09-15T11:13:39.000Z</time>
      </trkpt>
      <trkpt lat="44.99045" lon="5.56466">
        <ele>1272</ele>
        <time>2013-09-15T11:13:42.000Z</time>
      </trkpt>
      <trkpt lat="44.99041" lon="5.56475">
        <ele>1272</ele>
        <time>2013-09-15T11:13:45.000Z</time>
      </trkpt>
      <trkpt lat="44.99036" lon="5.56483">
        <ele>1272</ele>
        <time>2013-09-15T11:13:48.000Z</time>
      </trkpt>
      <trkpt lat="44.99033" lon="5.5649">
        <ele>1272</ele>
        <time>2013-09-15T11:13:50.000Z</time>
      </trkpt>
      <trkpt lat="44.99029" lon="5.56498">
        <ele>1272</ele>
        <time>2013-09-15T11:13:53.000Z</time>
      </trkpt>
      <trkpt lat="44.99025" lon="5.56505">
        <ele>1272</ele>
        <time>2013-09-15T11:13:56.000Z</time>
      </trkpt>
      <trkpt lat="44.99016" lon="5.56522">
        <ele>1272</ele>
        <time>2013-09-15T11:14:03.000Z</time>
      </trkpt>
      <trkpt lat="44.99016" lon="5.56522">
        <ele>1272</ele>
        <time>2013-09-15T11:14:03.000Z</time>
      </trkpt>
      <trkpt lat="44.99016" lon="5.56522">
        <ele>1272</ele>
        <time>2013-09-15T11:14:08.000Z</time>
      </trkpt>
      <trkpt lat="44.9901" lon="5.5653">
        <ele>1272</ele>
        <time>2013-09-15T11:14:09.000Z</time>
      </trkpt>
      <trkpt lat="44.9901" lon="5.5653">
        <ele>1272</ele>
        <time>2013-09-15T11:14:09.000Z</time>
      </trkpt>
      <trkpt lat="44.9901" lon="5.5653">
        <ele>1272</ele>
        <time>2013-09-15T11:14:14.000Z</time>
      </trkpt>
      <trkpt lat="44.99001" lon="5.56539">
        <ele>1273</ele>
        <time>2013-09-15T11:14:15.000Z</time>
      </trkpt>
      <trkpt lat="44.99001" lon="5.56539">
        <ele>1273</ele>
        <time>2013-09-15T11:14:15.000Z</time>
      </trkpt>
      <trkpt lat="44.99001" lon="5.56539">
        <ele>1273</ele>
        <time>2013-09-15T11:14:19.000Z</time>
      </trkpt>
      <trkpt lat="44.98992" lon="5.56545">
        <ele>1273</ele>
        <time>2013-09-15T11:14:20.000Z</time>
      </trkpt>
      <trkpt lat="44.98992" lon="5.56545">
        <ele>1273</ele>
        <time>2013-09-15T11:14:20.000Z</time>
      </trkpt>
      <trkpt lat="44.98992" lon="5.56545">
        <ele>1273</ele>
        <time>2013-09-15T11:14:24.000Z</time>
      </trkpt>
      <trkpt lat="44.98984" lon="5.5655">
        <ele>1274</ele>
        <time>2013-09-15T11:14:25.000Z</time>
      </trkpt>
      <trkpt lat="44.98984" lon="5.5655">
        <ele>1274</ele>
        <time>2013-09-15T11:14:25.000Z</time>
      </trkpt>
      <trkpt lat="44.98984" lon="5.5655">
        <ele>1274</ele>
        <time>2013-09-15T11:14:29.000Z</time>
      </trkpt>
      <trkpt lat="44.98975" lon="5.56556">
        <ele>1275</ele>
        <time>2013-09-15T11:14:30.000Z</time>
      </trkpt>
      <trkpt lat="44.98975" lon="5.56556">
        <ele>1275</ele>
        <time>2013-09-15T11:14:30.000Z</time>
      </trkpt>
      <trkpt lat="44.98975" lon="5.56556">
        <ele>1275</ele>
        <time>2013-09-15T11:14:34.000Z</time>
      </trkpt>
      <trkpt lat="44.98966" lon="5.56565">
        <ele>1276</ele>
        <time>2013-09-15T11:14:35.000Z</time>
      </trkpt>
      <trkpt lat="44.98966" lon="5.56565">
        <ele>1276</ele>
        <time>2013-09-15T11:14:35.000Z</time>
      </trkpt>
      <trkpt lat="44.98966" lon="5.56565">
        <ele>1276</ele>
        <time>2013-09-15T11:14:39.000Z</time>
      </trkpt>
      <trkpt lat="44.98956" lon="5.56573">
        <ele>1277</ele>
        <time>2013-09-15T11:14:40.000Z</time>
      </trkpt>
      <trkpt lat="44.98956" lon="5.56573">
        <ele>1277</ele>
        <time>2013-09-15T11:14:40.000Z</time>
      </trkpt>
      <trkpt lat="44.98956" lon="5.56573">
        <ele>1277</ele>
        <time>2013-09-15T11:14:43.000Z</time>
      </trkpt>
      <trkpt lat="44.98948" lon="5.56578">
        <ele>1277</ele>
        <time>2013-09-15T11:14:44.000Z</time>
      </trkpt>
      <trkpt lat="44.98948" lon="5.56578">
        <ele>1277</ele>
        <time>2013-09-15T11:14:44.000Z</time>
      </trkpt>
      <trkpt lat="44.98948" lon="5.56578">
        <ele>1277</ele>
        <time>2013-09-15T11:14:48.000Z</time>
      </trkpt>
      <trkpt lat="44.98937" lon="5.56582">
        <ele>1278</ele>
        <time>2013-09-15T11:14:49.000Z</time>
      </trkpt>
      <trkpt lat="44.98937" lon="5.56582">
        <ele>1278</ele>
        <time>2013-09-15T11:14:49.000Z</time>
      </trkpt>
      <trkpt lat="44.98937" lon="5.56582">
        <ele>1278</ele>
        <time>2013-09-15T11:14:53.000Z</time>
      </trkpt>
      <trkpt lat="44.98926" lon="5.56584">
        <ele>1278</ele>
        <time>2013-09-15T11:14:54.000Z</time>
      </trkpt>
      <trkpt lat="44.98926" lon="5.56584">
        <ele>1278</ele>
        <time>2013-09-15T11:14:54.000Z</time>
      </trkpt>
      <trkpt lat="44.98926" lon="5.56584">
        <ele>1278</ele>
        <time>2013-09-15T11:14:57.000Z</time>
      </trkpt>
      <trkpt lat="44.98917" lon="5.56586">
        <ele>1279</ele>
        <time>2013-09-15T11:14:58.000Z</time>
      </trkpt>
      <trkpt lat="44.98917" lon="5.56586">
        <ele>1279</ele>
        <time>2013-09-15T11:14:58.000Z</time>
      </trkpt>
      <trkpt lat="44.98917" lon="5.56586">
        <ele>1279</ele>
        <time>2013-09-15T11:15:01.000Z</time>
      </trkpt>
      <trkpt lat="44.98908" lon="5.5659">
        <ele>1279</ele>
        <time>2013-09-15T11:15:02.000Z</time>
      </trkpt>
      <trkpt lat="44.98908" lon="5.5659">
        <ele>1279</ele>
        <time>2013-09-15T11:15:02.000Z</time>
      </trkpt>
      <trkpt lat="44.98908" lon="5.5659">
        <ele>1279</ele>
        <time>2013-09-15T11:15:06.000Z</time>
      </trkpt>
      <trkpt lat="44.98897" lon="5.56593">
        <ele>1279</ele>
        <time>2013-09-15T11:15:07.000Z</time>
      </trkpt>
      <trkpt lat="44.98897" lon="5.56593">
        <ele>1279</ele>
        <time>2013-09-15T11:15:07.000Z</time>
      </trkpt>
      <trkpt lat="44.98897" lon="5.56593">
        <ele>1279</ele>
        <time>2013-09-15T11:15:11.000Z</time>
      </trkpt>
      <trkpt lat="44.98886" lon="5.56599">
        <ele>1280</ele>
        <time>2013-09-15T11:15:12.000Z</time>
      </trkpt>
      <trkpt lat="44.98886" lon="5.56599">
        <ele>1280</ele>
        <time>2013-09-15T11:15:12.000Z</time>
      </trkpt>
      <trkpt lat="44.98886" lon="5.56599">
        <ele>1280</ele>
        <time>2013-09-15T11:15:15.000Z</time>
      </trkpt>
      <trkpt lat="44.98878" lon="5.56603">
        <ele>1280</ele>
        <time>2013-09-15T11:15:16.000Z</time>
      </trkpt>
      <trkpt lat="44.98872" lon="5.56606">
        <ele>1280</ele>
        <time>2013-09-15T11:15:18.000Z</time>
      </trkpt>
      <trkpt lat="44.98868" lon="5.5661">
        <ele>1281</ele>
        <time>2013-09-15T11:15:20.000Z</time>
      </trkpt>
      <trkpt lat="44.98864" lon="5.56612">
        <ele>1281</ele>
        <time>2013-09-15T11:15:22.000Z</time>
      </trkpt>
      <trkpt lat="44.98858" lon="5.56614">
        <ele>1281</ele>
        <time>2013-09-15T11:15:24.000Z</time>
      </trkpt>
      <trkpt lat="44.98853" lon="5.56618">
        <ele>1281</ele>
        <time>2013-09-15T11:15:26.000Z</time>
      </trkpt>
      <trkpt lat="44.98847" lon="5.56623">
        <ele>1281</ele>
        <time>2013-09-15T11:15:29.000Z</time>
      </trkpt>
      <trkpt lat="44.98841" lon="5.56627">
        <ele>1281</ele>
        <time>2013-09-15T11:15:31.000Z</time>
      </trkpt>
      <trkpt lat="44.98835" lon="5.56631">
        <ele>1282</ele>
        <time>2013-09-15T11:15:34.000Z</time>
      </trkpt>
      <trkpt lat="44.9883" lon="5.56633">
        <ele>1282</ele>
        <time>2013-09-15T11:15:36.000Z</time>
      </trkpt>
      <trkpt lat="44.98825" lon="5.56638">
        <ele>1282</ele>
        <time>2013-09-15T11:15:38.000Z</time>
      </trkpt>
      <trkpt lat="44.98821" lon="5.56642">
        <ele>1282</ele>
        <time>2013-09-15T11:15:40.000Z</time>
      </trkpt>
      <trkpt lat="44.98816" lon="5.56644">
        <ele>1282</ele>
        <time>2013-09-15T11:15:42.000Z</time>
      </trkpt>
      <trkpt lat="44.98811" lon="5.56646">
        <ele>1282</ele>
        <time>2013-09-15T11:15:44.000Z</time>
      </trkpt>
      <trkpt lat="44.98806" lon="5.56651">
        <ele>1282</ele>
        <time>2013-09-15T11:15:46.000Z</time>
      </trkpt>
      <trkpt lat="44.98799" lon="5.56655">
        <ele>1283</ele>
        <time>2013-09-15T11:15:49.000Z</time>
      </trkpt>
      <trkpt lat="44.98794" lon="5.56657">
        <ele>1283</ele>
        <time>2013-09-15T11:15:51.000Z</time>
      </trkpt>
      <trkpt lat="44.98781" lon="5.56666">
        <ele>1283</ele>
        <time>2013-09-15T11:15:57.000Z</time>
      </trkpt>
      <trkpt lat="44.98781" lon="5.56666">
        <ele>1283</ele>
        <time>2013-09-15T11:15:57.000Z</time>
      </trkpt>
      <trkpt lat="44.98781" lon="5.56666">
        <ele>1283</ele>
        <time>2013-09-15T11:16:00.000Z</time>
      </trkpt>
      <trkpt lat="44.98773" lon="5.5667">
        <ele>1284</ele>
        <time>2013-09-15T11:16:01.000Z</time>
      </trkpt>
      <trkpt lat="44.98773" lon="5.5667">
        <ele>1284</ele>
        <time>2013-09-15T11:16:01.000Z</time>
      </trkpt>
      <trkpt lat="44.98773" lon="5.5667">
        <ele>1284</ele>
        <time>2013-09-15T11:16:05.000Z</time>
      </trkpt>
      <trkpt lat="44.98763" lon="5.56676">
        <ele>1284</ele>
        <time>2013-09-15T11:16:06.000Z</time>
      </trkpt>
      <trkpt lat="44.98763" lon="5.56676">
        <ele>1284</ele>
        <time>2013-09-15T11:16:06.000Z</time>
      </trkpt>
      <trkpt lat="44.98763" lon="5.56676">
        <ele>1284</ele>
        <time>2013-09-15T11:16:12.000Z</time>
      </trkpt>
      <trkpt lat="44.98753" lon="5.56681">
        <ele>1285</ele>
        <time>2013-09-15T11:16:13.000Z</time>
      </trkpt>
      <trkpt lat="44.98753" lon="5.56681">
        <ele>1285</ele>
        <time>2013-09-15T11:16:13.000Z</time>
      </trkpt>
      <trkpt lat="44.98753" lon="5.56681">
        <ele>1285</ele>
        <time>2013-09-15T11:16:18.000Z</time>
      </trkpt>
      <trkpt lat="44.98742" lon="5.56683">
        <ele>1286</ele>
        <time>2013-09-15T11:16:19.000Z</time>
      </trkpt>
      <trkpt lat="44.98742" lon="5.56683">
        <ele>1286</ele>
        <time>2013-09-15T11:16:19.000Z</time>
      </trkpt>
      <trkpt lat="44.98742" lon="5.56683">
        <ele>1286</ele>
        <time>2013-09-15T11:16:24.000Z</time>
      </trkpt>
      <trkpt lat="44.98733" lon="5.56685">
        <ele>1287</ele>
        <time>2013-09-15T11:16:25.000Z</time>
      </trkpt>
      <trkpt lat="44.98733" lon="5.56685">
        <ele>1287</ele>
        <time>2013-09-15T11:16:25.000Z</time>
      </trkpt>
      <trkpt lat="44.98733" lon="5.56685">
        <ele>1287</ele>
        <time>2013-09-15T11:16:30.000Z</time>
      </trkpt>
      <trkpt lat="44.98724" lon="5.56687">
        <ele>1288</ele>
        <time>2013-09-15T11:16:31.000Z</time>
      </trkpt>
      <trkpt lat="44.98724" lon="5.56687">
        <ele>1288</ele>
        <time>2013-09-15T11:16:31.000Z</time>
      </trkpt>
      <trkpt lat="44.98724" lon="5.56687">
        <ele>1288</ele>
        <time>2013-09-15T11:16:36.000Z</time>
      </trkpt>
      <trkpt lat="44.98715" lon="5.56689">
        <ele>1289</ele>
        <time>2013-09-15T11:16:37.000Z</time>
      </trkpt>
      <trkpt lat="44.98715" lon="5.56689">
        <ele>1289</ele>
        <time>2013-09-15T11:16:37.000Z</time>
      </trkpt>
      <trkpt lat="44.98715" lon="5.56689">
        <ele>1289</ele>
        <time>2013-09-15T11:16:38.000Z</time>
      </trkpt>
      <trkpt lat="44.98708" lon="5.56691">
        <ele>1290</ele>
        <time>2013-09-15T11:16:41.000Z</time>
      </trkpt>
      <trkpt lat="44.98703" lon="5.56691">
        <ele>1291</ele>
        <time>2013-09-15T11:16:45.000Z</time>
      </trkpt>
      <trkpt lat="44.98701" lon="5.56698">
        <ele>1292</ele>
        <time>2013-09-15T11:16:49.000Z</time>
      </trkpt>
      <trkpt lat="44.98702" lon="5.56706">
        <ele>1293</ele>
        <time>2013-09-15T11:16:52.000Z</time>
      </trkpt>
      <trkpt lat="44.98706" lon="5.56711">
        <ele>1293</ele>
        <time>2013-09-15T11:16:55.000Z</time>
      </trkpt>
      <trkpt lat="44.98711" lon="5.56715">
        <ele>1294</ele>
        <time>2013-09-15T11:16:58.000Z</time>
      </trkpt>
      <trkpt lat="44.98716" lon="5.56719">
        <ele>1294</ele>
        <time>2013-09-15T11:17:01.000Z</time>
      </trkpt>
      <trkpt lat="44.98722" lon="5.56721">
        <ele>1295</ele>
        <time>2013-09-15T11:17:04.000Z</time>
      </trkpt>
      <trkpt lat="44.98729" lon="5.56721">
        <ele>1295</ele>
        <time>2013-09-15T11:17:07.000Z</time>
      </trkpt>
      <trkpt lat="44.98733" lon="5.56724">
        <ele>1295</ele>
        <time>2013-09-15T11:17:09.000Z</time>
      </trkpt>
      <trkpt lat="44.98738" lon="5.56726">
        <ele>1295</ele>
        <time>2013-09-15T11:17:11.000Z</time>
      </trkpt>
      <trkpt lat="44.98742" lon="5.5673">
        <ele>1296</ele>
        <time>2013-09-15T11:17:12.000Z</time>
      </trkpt>
      <trkpt lat="44.98746" lon="5.56732">
        <ele>1296</ele>
        <time>2013-09-15T11:17:13.000Z</time>
      </trkpt>
      <trkpt lat="44.98752" lon="5.56736">
        <ele>1296</ele>
        <time>2013-09-15T11:17:15.000Z</time>
      </trkpt>
      <trkpt lat="44.98756" lon="5.56739">
        <ele>1296</ele>
        <time>2013-09-15T11:17:16.000Z</time>
      </trkpt>
      <trkpt lat="44.98761" lon="5.56741">
        <ele>1296</ele>
        <time>2013-09-15T11:17:17.000Z</time>
      </trkpt>
      <trkpt lat="44.98765" lon="5.56743">
        <ele>1296</ele>
        <time>2013-09-15T11:17:18.000Z</time>
      </trkpt>
      <trkpt lat="44.98769" lon="5.56745">
        <ele>1296</ele>
        <time>2013-09-15T11:17:19.000Z</time>
      </trkpt>
      <trkpt lat="44.98774" lon="5.56747">
        <ele>1297</ele>
        <time>2013-09-15T11:17:20.000Z</time>
      </trkpt>
      <trkpt lat="44.98778" lon="5.56749">
        <ele>1297</ele>
        <time>2013-09-15T11:17:21.000Z</time>
      </trkpt>
      <trkpt lat="44.98782" lon="5.56754">
        <ele>1298</ele>
        <time>2013-09-15T11:17:22.000Z</time>
      </trkpt>
      <trkpt lat="44.98786" lon="5.56756">
        <ele>1298</ele>
        <time>2013-09-15T11:17:23.000Z</time>
      </trkpt>
      <trkpt lat="44.98791" lon="5.5676">
        <ele>1298</ele>
        <time>2013-09-15T11:17:24.000Z</time>
      </trkpt>
      <trkpt lat="44.98795" lon="5.56764">
        <ele>1299</ele>
        <time>2013-09-15T11:17:25.000Z</time>
      </trkpt>
      <trkpt lat="44.98798" lon="5.56769">
        <ele>1300</ele>
        <time>2013-09-15T11:17:26.000Z</time>
      </trkpt>
      <trkpt lat="44.98803" lon="5.56775">
        <ele>1300</ele>
        <time>2013-09-15T11:17:27.000Z</time>
      </trkpt>
      <trkpt lat="44.98807" lon="5.56779">
        <ele>1301</ele>
        <time>2013-09-15T11:17:28.000Z</time>
      </trkpt>
      <trkpt lat="44.9881" lon="5.56788">
        <ele>1302</ele>
        <time>2013-09-15T11:17:29.000Z</time>
      </trkpt>
      <trkpt lat="44.98813" lon="5.56794">
        <ele>1302</ele>
        <time>2013-09-15T11:17:30.000Z</time>
      </trkpt>
      <trkpt lat="44.98817" lon="5.56801">
        <ele>1302</ele>
        <time>2013-09-15T11:17:31.000Z</time>
      </trkpt>
      <trkpt lat="44.9882" lon="5.56807">
        <ele>1302</ele>
        <time>2013-09-15T11:17:32.000Z</time>
      </trkpt>
      <trkpt lat="44.98825" lon="5.56818">
        <ele>1302</ele>
        <time>2013-09-15T11:17:34.000Z</time>
      </trkpt>
      <trkpt lat="44.98827" lon="5.56824">
        <ele>1302</ele>
        <time>2013-09-15T11:17:35.000Z</time>
      </trkpt>
      <trkpt lat="44.98833" lon="5.56833">
        <ele>1300</ele>
        <time>2013-09-15T11:17:37.000Z</time>
      </trkpt>
      <trkpt lat="44.98836" lon="5.56839">
        <ele>1299</ele>
        <time>2013-09-15T11:17:38.000Z</time>
      </trkpt>
      <trkpt lat="44.98841" lon="5.5685">
        <ele>1298</ele>
        <time>2013-09-15T11:17:40.000Z</time>
      </trkpt>
      <trkpt lat="44.98844" lon="5.56854">
        <ele>1298</ele>
        <time>2013-09-15T11:17:41.000Z</time>
      </trkpt>
      <trkpt lat="44.9885" lon="5.56865">
        <ele>1298</ele>
        <time>2013-09-15T11:17:43.000Z</time>
      </trkpt>
      <trkpt lat="44.98855" lon="5.56874">
        <ele>1298</ele>
        <time>2013-09-15T11:17:45.000Z</time>
      </trkpt>
      <trkpt lat="44.98858" lon="5.5688">
        <ele>1298</ele>
        <time>2013-09-15T11:17:46.000Z</time>
      </trkpt>
      <trkpt lat="44.9886" lon="5.56887">
        <ele>1298</ele>
        <time>2013-09-15T11:17:47.000Z</time>
      </trkpt>
      <trkpt lat="44.98864" lon="5.56893">
        <ele>1298</ele>
        <time>2013-09-15T11:17:48.000Z</time>
      </trkpt>
      <trkpt lat="44.98867" lon="5.569">
        <ele>1298</ele>
        <time>2013-09-15T11:17:49.000Z</time>
      </trkpt>
      <trkpt lat="44.9887" lon="5.56906">
        <ele>1298</ele>
        <time>2013-09-15T11:17:50.000Z</time>
      </trkpt>
      <trkpt lat="44.98872" lon="5.56912">
        <ele>1298</ele>
        <time>2013-09-15T11:17:51.000Z</time>
      </trkpt>
      <trkpt lat="44.98876" lon="5.56919">
        <ele>1298</ele>
        <time>2013-09-15T11:17:52.000Z</time>
      </trkpt>
      <trkpt lat="44.98878" lon="5.56925">
        <ele>1298</ele>
        <time>2013-09-15T11:17:53.000Z</time>
      </trkpt>
      <trkpt lat="44.9888" lon="5.56932">
        <ele>1298</ele>
        <time>2013-09-15T11:17:54.000Z</time>
      </trkpt>
      <trkpt lat="44.98882" lon="5.5694">
        <ele>1298</ele>
        <time>2013-09-15T11:17:55.000Z</time>
      </trkpt>
      <trkpt lat="44.98888" lon="5.56951">
        <ele>1299</ele>
        <time>2013-09-15T11:17:57.000Z</time>
      </trkpt>
      <trkpt lat="44.98893" lon="5.56957">
        <ele>1299</ele>
        <time>2013-09-15T11:17:58.000Z</time>
      </trkpt>
      <trkpt lat="44.98896" lon="5.56964">
        <ele>1299</ele>
        <time>2013-09-15T11:17:59.000Z</time>
      </trkpt>
      <trkpt lat="44.98902" lon="5.56975">
        <ele>1299</ele>
        <time>2013-09-15T11:18:01.000Z</time>
      </trkpt>
      <trkpt lat="44.98907" lon="5.56979">
        <ele>1299</ele>
        <time>2013-09-15T11:18:02.000Z</time>
      </trkpt>
      <trkpt lat="44.98913" lon="5.5699">
        <ele>1299</ele>
        <time>2013-09-15T11:18:04.000Z</time>
      </trkpt>
      <trkpt lat="44.98916" lon="5.56994">
        <ele>1298</ele>
        <time>2013-09-15T11:18:05.000Z</time>
      </trkpt>
      <trkpt lat="44.9892" lon="5.56998">
        <ele>1298</ele>
        <time>2013-09-15T11:18:06.000Z</time>
      </trkpt>
      <trkpt lat="44.98925" lon="5.57007">
        <ele>1298</ele>
        <time>2013-09-15T11:18:08.000Z</time>
      </trkpt>
      <trkpt lat="44.9893" lon="5.57015">
        <ele>1298</ele>
        <time>2013-09-15T11:18:10.000Z</time>
      </trkpt>
      <trkpt lat="44.98935" lon="5.57026">
        <ele>1298</ele>
        <time>2013-09-15T11:18:12.000Z</time>
      </trkpt>
      <trkpt lat="44.98936" lon="5.57035">
        <ele>1298</ele>
        <time>2013-09-15T11:18:13.000Z</time>
      </trkpt>
      <trkpt lat="44.98937" lon="5.57041">
        <ele>1298</ele>
        <time>2013-09-15T11:18:14.000Z</time>
      </trkpt>
      <trkpt lat="44.98938" lon="5.5705">
        <ele>1298</ele>
        <time>2013-09-15T11:18:15.000Z</time>
      </trkpt>
      <trkpt lat="44.98939" lon="5.57056">
        <ele>1298</ele>
        <time>2013-09-15T11:18:16.000Z</time>
      </trkpt>
      <trkpt lat="44.98939" lon="5.57063">
        <ele>1297</ele>
        <time>2013-09-15T11:18:17.000Z</time>
      </trkpt>
      <trkpt lat="44.9894" lon="5.57071">
        <ele>1297</ele>
        <time>2013-09-15T11:18:18.000Z</time>
      </trkpt>
      <trkpt lat="44.98941" lon="5.57078">
        <ele>1297</ele>
        <time>2013-09-15T11:18:19.000Z</time>
      </trkpt>
      <trkpt lat="44.98942" lon="5.57086">
        <ele>1297</ele>
        <time>2013-09-15T11:18:20.000Z</time>
      </trkpt>
      <trkpt lat="44.98942" lon="5.57095">
        <ele>1296</ele>
        <time>2013-09-15T11:18:21.000Z</time>
      </trkpt>
      <trkpt lat="44.98943" lon="5.57101">
        <ele>1296</ele>
        <time>2013-09-15T11:18:22.000Z</time>
      </trkpt>
      <trkpt lat="44.98943" lon="5.5711">
        <ele>1296</ele>
        <time>2013-09-15T11:18:23.000Z</time>
      </trkpt>
      <trkpt lat="44.98946" lon="5.57118">
        <ele>1296</ele>
        <time>2013-09-15T11:18:24.000Z</time>
      </trkpt>
      <trkpt lat="44.9895" lon="5.57125">
        <ele>1296</ele>
        <time>2013-09-15T11:18:25.000Z</time>
      </trkpt>
      <trkpt lat="44.98955" lon="5.57129">
        <ele>1296</ele>
        <time>2013-09-15T11:18:26.000Z</time>
      </trkpt>
      <trkpt lat="44.9896" lon="5.57136">
        <ele>1295</ele>
        <time>2013-09-15T11:18:27.000Z</time>
      </trkpt>
      <trkpt lat="44.98966" lon="5.5714">
        <ele>1295</ele>
        <time>2013-09-15T11:18:28.000Z</time>
      </trkpt>
      <trkpt lat="44.98971" lon="5.57144">
        <ele>1296</ele>
        <time>2013-09-15T11:18:29.000Z</time>
      </trkpt>
      <trkpt lat="44.98975" lon="5.57148">
        <ele>1296</ele>
        <time>2013-09-15T11:18:30.000Z</time>
      </trkpt>
      <trkpt lat="44.98981" lon="5.57151">
        <ele>1296</ele>
        <time>2013-09-15T11:18:31.000Z</time>
      </trkpt>
      <trkpt lat="44.98986" lon="5.57153">
        <ele>1296</ele>
        <time>2013-09-15T11:18:32.000Z</time>
      </trkpt>
      <trkpt lat="44.98991" lon="5.57157">
        <ele>1295</ele>
        <time>2013-09-15T11:18:33.000Z</time>
      </trkpt>
      <trkpt lat="44.98997" lon="5.57159">
        <ele>1295</ele>
        <time>2013-09-15T11:18:34.000Z</time>
      </trkpt>
      <trkpt lat="44.99002" lon="5.57161">
        <ele>1295</ele>
        <time>2013-09-15T11:18:35.000Z</time>
      </trkpt>
      <trkpt lat="44.99008" lon="5.57166">
        <ele>1295</ele>
        <time>2013-09-15T11:18:36.000Z</time>
      </trkpt>
      <trkpt lat="44.99011" lon="5.5717">
        <ele>1295</ele>
        <time>2013-09-15T11:18:37.000Z</time>
      </trkpt>
      <trkpt lat="44.99015" lon="5.57174">
        <ele>1295</ele>
        <time>2013-09-15T11:18:38.000Z</time>
      </trkpt>
      <trkpt lat="44.99017" lon="5.57181">
        <ele>1295</ele>
        <time>2013-09-15T11:18:39.000Z</time>
      </trkpt>
      <trkpt lat="44.99017" lon="5.57191">
        <ele>1295</ele>
        <time>2013-09-15T11:18:41.000Z</time>
      </trkpt>
      <trkpt lat="44.99014" lon="5.57202">
        <ele>1295</ele>
        <time>2013-09-15T11:18:43.000Z</time>
      </trkpt>
      <trkpt lat="44.99012" lon="5.57213">
        <ele>1295</ele>
        <time>2013-09-15T11:18:45.000Z</time>
      </trkpt>
      <trkpt lat="44.99011" lon="5.57224">
        <ele>1295</ele>
        <time>2013-09-15T11:18:47.000Z</time>
      </trkpt>
      <trkpt lat="44.99009" lon="5.57234">
        <ele>1295</ele>
        <time>2013-09-15T11:18:49.000Z</time>
      </trkpt>
      <trkpt lat="44.99008" lon="5.57245">
        <ele>1295</ele>
        <time>2013-09-15T11:18:51.000Z</time>
      </trkpt>
      <trkpt lat="44.99008" lon="5.57256">
        <ele>1295</ele>
        <time>2013-09-15T11:18:53.000Z</time>
      </trkpt>
      <trkpt lat="44.99008" lon="5.57262">
        <ele>1295</ele>
        <time>2013-09-15T11:18:54.000Z</time>
      </trkpt>
      <trkpt lat="44.99008" lon="5.57273">
        <ele>1295</ele>
        <time>2013-09-15T11:18:56.000Z</time>
      </trkpt>
      <trkpt lat="44.99008" lon="5.57279">
        <ele>1295</ele>
        <time>2013-09-15T11:18:57.000Z</time>
      </trkpt>
      <trkpt lat="44.99006" lon="5.57286">
        <ele>1295</ele>
        <time>2013-09-15T11:18:58.000Z</time>
      </trkpt>
      <trkpt lat="44.99006" lon="5.57292">
        <ele>1295</ele>
        <time>2013-09-15T11:18:59.000Z</time>
      </trkpt>
      <trkpt lat="44.99006" lon="5.57299">
        <ele>1295</ele>
        <time>2013-09-15T11:19:00.000Z</time>
      </trkpt>
      <trkpt lat="44.99005" lon="5.57307">
        <ele>1295</ele>
        <time>2013-09-15T11:19:01.000Z</time>
      </trkpt>
      <trkpt lat="44.99004" lon="5.57314">
        <ele>1295</ele>
        <time>2013-09-15T11:19:02.000Z</time>
      </trkpt>
      <trkpt lat="44.99003" lon="5.5732">
        <ele>1295</ele>
        <time>2013-09-15T11:19:03.000Z</time>
      </trkpt>
      <trkpt lat="44.99002" lon="5.57326">
        <ele>1295</ele>
        <time>2013-09-15T11:19:04.000Z</time>
      </trkpt>
      <trkpt lat="44.99" lon="5.57333">
        <ele>1295</ele>
        <time>2013-09-15T11:19:05.000Z</time>
      </trkpt>
      <trkpt lat="44.98997" lon="5.57344">
        <ele>1295</ele>
        <time>2013-09-15T11:19:07.000Z</time>
      </trkpt>
      <trkpt lat="44.98995" lon="5.5735">
        <ele>1295</ele>
        <time>2013-09-15T11:19:08.000Z</time>
      </trkpt>
      <trkpt lat="44.98994" lon="5.57356">
        <ele>1295</ele>
        <time>2013-09-15T11:19:09.000Z</time>
      </trkpt>
      <trkpt lat="44.98988" lon="5.57367">
        <ele>1295</ele>
        <time>2013-09-15T11:19:11.000Z</time>
      </trkpt>
      <trkpt lat="44.98983" lon="5.57376">
        <ele>1295</ele>
        <time>2013-09-15T11:19:13.000Z</time>
      </trkpt>
      <trkpt lat="44.98981" lon="5.57382">
        <ele>1295</ele>
        <time>2013-09-15T11:19:14.000Z</time>
      </trkpt>
      <trkpt lat="44.98975" lon="5.57391">
        <ele>1295</ele>
        <time>2013-09-15T11:19:16.000Z</time>
      </trkpt>
      <trkpt lat="44.98969" lon="5.574">
        <ele>1296</ele>
        <time>2013-09-15T11:19:18.000Z</time>
      </trkpt>
      <trkpt lat="44.98964" lon="5.57408">
        <ele>1296</ele>
        <time>2013-09-15T11:19:20.000Z</time>
      </trkpt>
      <trkpt lat="44.98956" lon="5.57414">
        <ele>1296</ele>
        <time>2013-09-15T11:19:22.000Z</time>
      </trkpt>
      <trkpt lat="44.9895" lon="5.57421">
        <ele>1296</ele>
        <time>2013-09-15T11:19:24.000Z</time>
      </trkpt>
      <trkpt lat="44.98943" lon="5.5743">
        <ele>1296</ele>
        <time>2013-09-15T11:19:26.000Z</time>
      </trkpt>
      <trkpt lat="44.98937" lon="5.57436">
        <ele>1296</ele>
        <time>2013-09-15T11:19:28.000Z</time>
      </trkpt>
      <trkpt lat="44.98937" lon="5.57436">
        <ele>1296</ele>
        <time>2013-09-15T11:19:28.000Z</time>
      </trkpt>
      <trkpt lat="44.98937" lon="5.57436">
        <ele>1296</ele>
        <time>2013-09-15T11:19:43.000Z</time>
      </trkpt>
      <trkpt lat="44.98932" lon="5.5744">
        <ele>1296</ele>
        <time>2013-09-15T11:19:44.000Z</time>
      </trkpt>
      <trkpt lat="44.98932" lon="5.5744">
        <ele>1296</ele>
        <time>2013-09-15T11:19:44.000Z</time>
      </trkpt>
      <trkpt lat="44.98932" lon="5.5744">
        <ele>1296</ele>
        <time>2013-09-15T11:20:29.000Z</time>
      </trkpt>
      <trkpt lat="44.9893" lon="5.57451">
        <ele>1299</ele>
        <time>2013-09-15T11:20:30.000Z</time>
      </trkpt>
      <trkpt lat="44.9893" lon="5.57451">
        <ele>1299</ele>
        <time>2013-09-15T11:20:30.000Z</time>
      </trkpt>
      <trkpt lat="44.9893" lon="5.57451">
        <ele>1299</ele>
        <time>2013-09-15T11:20:31.000Z</time>
      </trkpt>
      <trkpt lat="44.98928" lon="5.57464">
        <ele>1300</ele>
        <time>2013-09-15T11:20:32.000Z</time>
      </trkpt>
      <trkpt lat="44.98928" lon="5.57464">
        <ele>1300</ele>
        <time>2013-09-15T11:20:32.000Z</time>
      </trkpt>
      <trkpt lat="44.98928" lon="5.57464">
        <ele>1300</ele>
        <time>2013-09-15T11:20:35.000Z</time>
      </trkpt>
      <trkpt lat="44.98924" lon="5.57477">
        <ele>1301</ele>
        <time>2013-09-15T11:20:36.000Z</time>
      </trkpt>
      <trkpt lat="44.98924" lon="5.57477">
        <ele>1301</ele>
        <time>2013-09-15T11:20:36.000Z</time>
      </trkpt>
      <trkpt lat="44.98924" lon="5.57477">
        <ele>1301</ele>
        <time>2013-09-15T11:20:38.000Z</time>
      </trkpt>
      <trkpt lat="44.98917" lon="5.57487">
        <ele>1302</ele>
        <time>2013-09-15T11:20:39.000Z</time>
      </trkpt>
      <trkpt lat="44.98917" lon="5.57487">
        <ele>1302</ele>
        <time>2013-09-15T11:20:39.000Z</time>
      </trkpt>
      <trkpt lat="44.98917" lon="5.57487">
        <ele>1302</ele>
        <time>2013-09-15T11:20:42.000Z</time>
      </trkpt>
      <trkpt lat="44.98911" lon="5.575">
        <ele>1303</ele>
        <time>2013-09-15T11:20:43.000Z</time>
      </trkpt>
      <trkpt lat="44.98911" lon="5.575">
        <ele>1303</ele>
        <time>2013-09-15T11:20:43.000Z</time>
      </trkpt>
      <trkpt lat="44.98911" lon="5.575">
        <ele>1303</ele>
        <time>2013-09-15T11:20:44.000Z</time>
      </trkpt>
      <trkpt lat="44.98904" lon="5.57509">
        <ele>1304</ele>
        <time>2013-09-15T11:20:45.000Z</time>
      </trkpt>
      <trkpt lat="44.989" lon="5.57513">
        <ele>1304</ele>
        <time>2013-09-15T11:20:46.000Z</time>
      </trkpt>
      <trkpt lat="44.98896" lon="5.57518">
        <ele>1304</ele>
        <time>2013-09-15T11:20:47.000Z</time>
      </trkpt>
      <trkpt lat="44.9889" lon="5.57524">
        <ele>1307</ele>
        <time>2013-09-15T11:20:48.000Z</time>
      </trkpt>
      <trkpt lat="44.98882" lon="5.57528">
        <ele>1309</ele>
        <time>2013-09-15T11:20:49.000Z</time>
      </trkpt>
      <trkpt lat="44.98876" lon="5.57532">
        <ele>1310</ele>
        <time>2013-09-15T11:20:50.000Z</time>
      </trkpt>
      <trkpt lat="44.98866" lon="5.57539">
        <ele>1312</ele>
        <time>2013-09-15T11:20:51.000Z</time>
      </trkpt>
      <trkpt lat="44.98857" lon="5.57545">
        <ele>1313</ele>
        <time>2013-09-15T11:20:52.000Z</time>
      </trkpt>
      <trkpt lat="44.9885" lon="5.57554">
        <ele>1313</ele>
        <time>2013-09-15T11:20:53.000Z</time>
      </trkpt>
      <trkpt lat="44.98842" lon="5.57565">
        <ele>1314</ele>
        <time>2013-09-15T11:20:54.000Z</time>
      </trkpt>
      <trkpt lat="44.98837" lon="5.57573">
        <ele>1315</ele>
        <time>2013-09-15T11:20:55.000Z</time>
      </trkpt>
      <trkpt lat="44.9883" lon="5.57584">
        <ele>1315</ele>
        <time>2013-09-15T11:20:56.000Z</time>
      </trkpt>
      <trkpt lat="44.98825" lon="5.57595">
        <ele>1316</ele>
        <time>2013-09-15T11:20:57.000Z</time>
      </trkpt>
      <trkpt lat="44.98819" lon="5.57606">
        <ele>1316</ele>
        <time>2013-09-15T11:20:58.000Z</time>
      </trkpt>
      <trkpt lat="44.98814" lon="5.5762">
        <ele>1316</ele>
        <time>2013-09-15T11:20:59.000Z</time>
      </trkpt>
      <trkpt lat="44.98809" lon="5.57633">
        <ele>1316</ele>
        <time>2013-09-15T11:21:00.000Z</time>
      </trkpt>
      <trkpt lat="44.98805" lon="5.57646">
        <ele>1316</ele>
        <time>2013-09-15T11:21:01.000Z</time>
      </trkpt>
      <trkpt lat="44.988" lon="5.57659">
        <ele>1316</ele>
        <time>2013-09-15T11:21:02.000Z</time>
      </trkpt>
      <trkpt lat="44.98796" lon="5.57672">
        <ele>1316</ele>
        <time>2013-09-15T11:21:03.000Z</time>
      </trkpt>
      <trkpt lat="44.98794" lon="5.57685">
        <ele>1316</ele>
        <time>2013-09-15T11:21:04.000Z</time>
      </trkpt>
      <trkpt lat="44.98791" lon="5.57698">
        <ele>1316</ele>
        <time>2013-09-15T11:21:05.000Z</time>
      </trkpt>
      <trkpt lat="44.98788" lon="5.57711">
        <ele>1316</ele>
        <time>2013-09-15T11:21:06.000Z</time>
      </trkpt>
      <trkpt lat="44.98785" lon="5.57724">
        <ele>1316</ele>
        <time>2013-09-15T11:21:07.000Z</time>
      </trkpt>
      <trkpt lat="44.98782" lon="5.57736">
        <ele>1317</ele>
        <time>2013-09-15T11:21:08.000Z</time>
      </trkpt>
      <trkpt lat="44.9878" lon="5.57749">
        <ele>1317</ele>
        <time>2013-09-15T11:21:09.000Z</time>
      </trkpt>
      <trkpt lat="44.98778" lon="5.57764">
        <ele>1317</ele>
        <time>2013-09-15T11:21:10.000Z</time>
      </trkpt>
      <trkpt lat="44.98777" lon="5.57777">
        <ele>1317</ele>
        <time>2013-09-15T11:21:11.000Z</time>
      </trkpt>
      <trkpt lat="44.98776" lon="5.5779">
        <ele>1317</ele>
        <time>2013-09-15T11:21:12.000Z</time>
      </trkpt>
      <trkpt lat="44.98775" lon="5.57805">
        <ele>1317</ele>
        <time>2013-09-15T11:21:13.000Z</time>
      </trkpt>
      <trkpt lat="44.98775" lon="5.57818">
        <ele>1317</ele>
        <time>2013-09-15T11:21:14.000Z</time>
      </trkpt>
      <trkpt lat="44.98774" lon="5.57831">
        <ele>1318</ele>
        <time>2013-09-15T11:21:15.000Z</time>
      </trkpt>
      <trkpt lat="44.98774" lon="5.57844">
        <ele>1318</ele>
        <time>2013-09-15T11:21:16.000Z</time>
      </trkpt>
      <trkpt lat="44.98774" lon="5.57856">
        <ele>1317</ele>
        <time>2013-09-15T11:21:17.000Z</time>
      </trkpt>
      <trkpt lat="44.98776" lon="5.57867">
        <ele>1317</ele>
        <time>2013-09-15T11:21:18.000Z</time>
      </trkpt>
      <trkpt lat="44.98778" lon="5.5788">
        <ele>1316</ele>
        <time>2013-09-15T11:21:19.000Z</time>
      </trkpt>
      <trkpt lat="44.9878" lon="5.57893">
        <ele>1315</ele>
        <time>2013-09-15T11:21:20.000Z</time>
      </trkpt>
      <trkpt lat="44.98781" lon="5.57902">
        <ele>1314</ele>
        <time>2013-09-15T11:21:21.000Z</time>
      </trkpt>
      <trkpt lat="44.98783" lon="5.57912">
        <ele>1314</ele>
        <time>2013-09-15T11:21:22.000Z</time>
      </trkpt>
      <trkpt lat="44.98784" lon="5.57921">
        <ele>1313</ele>
        <time>2013-09-15T11:21:23.000Z</time>
      </trkpt>
      <trkpt lat="44.98785" lon="5.5793">
        <ele>1312</ele>
        <time>2013-09-15T11:21:24.000Z</time>
      </trkpt>
      <trkpt lat="44.98786" lon="5.57938">
        <ele>1312</ele>
        <time>2013-09-15T11:21:25.000Z</time>
      </trkpt>
      <trkpt lat="44.98788" lon="5.57947">
        <ele>1311</ele>
        <time>2013-09-15T11:21:26.000Z</time>
      </trkpt>
      <trkpt lat="44.98788" lon="5.57955">
        <ele>1310</ele>
        <time>2013-09-15T11:21:27.000Z</time>
      </trkpt>
      <trkpt lat="44.98789" lon="5.57962">
        <ele>1310</ele>
        <time>2013-09-15T11:21:28.000Z</time>
      </trkpt>
      <trkpt lat="44.98789" lon="5.5797">
        <ele>1309</ele>
        <time>2013-09-15T11:21:29.000Z</time>
      </trkpt>
      <trkpt lat="44.98789" lon="5.57977">
        <ele>1309</ele>
        <time>2013-09-15T11:21:30.000Z</time>
      </trkpt>
      <trkpt lat="44.98789" lon="5.57983">
        <ele>1308</ele>
        <time>2013-09-15T11:21:31.000Z</time>
      </trkpt>
      <trkpt lat="44.9879" lon="5.5799">
        <ele>1308</ele>
        <time>2013-09-15T11:21:32.000Z</time>
      </trkpt>
      <trkpt lat="44.9879" lon="5.57996">
        <ele>1308</ele>
        <time>2013-09-15T11:21:33.000Z</time>
      </trkpt>
      <trkpt lat="44.9879" lon="5.58002">
        <ele>1307</ele>
        <time>2013-09-15T11:21:34.000Z</time>
      </trkpt>
      <trkpt lat="44.9879" lon="5.58011">
        <ele>1307</ele>
        <time>2013-09-15T11:21:35.000Z</time>
      </trkpt>
      <trkpt lat="44.9879" lon="5.58017">
        <ele>1307</ele>
        <time>2013-09-15T11:21:36.000Z</time>
      </trkpt>
      <trkpt lat="44.9879" lon="5.58024">
        <ele>1307</ele>
        <time>2013-09-15T11:21:37.000Z</time>
      </trkpt>
      <trkpt lat="44.9879" lon="5.5803">
        <ele>1307</ele>
        <time>2013-09-15T11:21:38.000Z</time>
      </trkpt>
      <trkpt lat="44.98789" lon="5.58037">
        <ele>1307</ele>
        <time>2013-09-15T11:21:39.000Z</time>
      </trkpt>
      <trkpt lat="44.98789" lon="5.58043">
        <ele>1308</ele>
        <time>2013-09-15T11:21:40.000Z</time>
      </trkpt>
      <trkpt lat="44.98788" lon="5.58052">
        <ele>1308</ele>
        <time>2013-09-15T11:21:41.000Z</time>
      </trkpt>
      <trkpt lat="44.98788" lon="5.58058">
        <ele>1308</ele>
        <time>2013-09-15T11:21:42.000Z</time>
      </trkpt>
      <trkpt lat="44.98786" lon="5.58065">
        <ele>1308</ele>
        <time>2013-09-15T11:21:43.000Z</time>
      </trkpt>
      <trkpt lat="44.98786" lon="5.58071">
        <ele>1308</ele>
        <time>2013-09-15T11:21:44.000Z</time>
      </trkpt>
      <trkpt lat="44.98786" lon="5.58078">
        <ele>1308</ele>
        <time>2013-09-15T11:21:45.000Z</time>
      </trkpt>
      <trkpt lat="44.98785" lon="5.58084">
        <ele>1308</ele>
        <time>2013-09-15T11:21:46.000Z</time>
      </trkpt>
      <trkpt lat="44.98785" lon="5.58095">
        <ele>1308</ele>
        <time>2013-09-15T11:21:48.000Z</time>
      </trkpt>
      <trkpt lat="44.98784" lon="5.58101">
        <ele>1307</ele>
        <time>2013-09-15T11:21:49.000Z</time>
      </trkpt>
      <trkpt lat="44.98784" lon="5.58108">
        <ele>1307</ele>
        <time>2013-09-15T11:21:50.000Z</time>
      </trkpt>
      <trkpt lat="44.98784" lon="5.58114">
        <ele>1306</ele>
        <time>2013-09-15T11:21:51.000Z</time>
      </trkpt>
      <trkpt lat="44.98784" lon="5.5812">
        <ele>1306</ele>
        <time>2013-09-15T11:21:52.000Z</time>
      </trkpt>
      <trkpt lat="44.98784" lon="5.58131">
        <ele>1305</ele>
        <time>2013-09-15T11:21:54.000Z</time>
      </trkpt>
      <trkpt lat="44.98784" lon="5.58142">
        <ele>1304</ele>
        <time>2013-09-15T11:21:56.000Z</time>
      </trkpt>
      <trkpt lat="44.98784" lon="5.58148">
        <ele>1304</ele>
        <time>2013-09-15T11:21:57.000Z</time>
      </trkpt>
      <trkpt lat="44.98783" lon="5.58159">
        <ele>1303</ele>
        <time>2013-09-15T11:21:59.000Z</time>
      </trkpt>
      <trkpt lat="44.98783" lon="5.58168">
        <ele>1303</ele>
        <time>2013-09-15T11:22:01.000Z</time>
      </trkpt>
      <trkpt lat="44.98783" lon="5.58176">
        <ele>1303</ele>
        <time>2013-09-15T11:22:03.000Z</time>
      </trkpt>
      <trkpt lat="44.98783" lon="5.58185">
        <ele>1303</ele>
        <time>2013-09-15T11:22:05.000Z</time>
      </trkpt>
      <trkpt lat="44.98783" lon="5.58193">
        <ele>1303</ele>
        <time>2013-09-15T11:22:07.000Z</time>
      </trkpt>
      <trkpt lat="44.98783" lon="5.58202">
        <ele>1302</ele>
        <time>2013-09-15T11:22:09.000Z</time>
      </trkpt>
      <trkpt lat="44.98784" lon="5.58211">
        <ele>1302</ele>
        <time>2013-09-15T11:22:11.000Z</time>
      </trkpt>
      <trkpt lat="44.98784" lon="5.58217">
        <ele>1302</ele>
        <time>2013-09-15T11:22:12.000Z</time>
      </trkpt>
      <trkpt lat="44.98785" lon="5.58228">
        <ele>1302</ele>
        <time>2013-09-15T11:22:14.000Z</time>
      </trkpt>
      <trkpt lat="44.98786" lon="5.58236">
        <ele>1302</ele>
        <time>2013-09-15T11:22:16.000Z</time>
      </trkpt>
      <trkpt lat="44.98788" lon="5.58243">
        <ele>1302</ele>
        <time>2013-09-15T11:22:17.000Z</time>
      </trkpt>
      <trkpt lat="44.98789" lon="5.58254">
        <ele>1301</ele>
        <time>2013-09-15T11:22:19.000Z</time>
      </trkpt>
      <trkpt lat="44.98789" lon="5.58264">
        <ele>1301</ele>
        <time>2013-09-15T11:22:21.000Z</time>
      </trkpt>
      <trkpt lat="44.98789" lon="5.58271">
        <ele>1301</ele>
        <time>2013-09-15T11:22:23.000Z</time>
      </trkpt>
      <trkpt lat="44.98789" lon="5.58279">
        <ele>1301</ele>
        <time>2013-09-15T11:22:25.000Z</time>
      </trkpt>
      <trkpt lat="44.98789" lon="5.58279">
        <ele>1301</ele>
        <time>2013-09-15T11:22:25.000Z</time>
      </trkpt>
      <trkpt lat="44.98789" lon="5.58279">
        <ele>1301</ele>
        <time>2013-09-15T11:24:59.000Z</time>
      </trkpt>
      <trkpt lat="44.98784" lon="5.58281">
        <ele>1293</ele>
        <time>2013-09-15T11:25:12.000Z</time>
      </trkpt>
      <trkpt lat="44.98785" lon="5.58288">
        <ele>1292</ele>
        <time>2013-09-15T11:25:52.000Z</time>
      </trkpt>
      <trkpt lat="44.98781" lon="5.58284">
        <ele>1291</ele>
        <time>2013-09-15T11:26:12.000Z</time>
      </trkpt>
      <trkpt lat="44.98781" lon="5.58284">
        <ele>1291</ele>
        <time>2013-09-15T11:26:12.000Z</time>
      </trkpt>
      <trkpt lat="44.98781" lon="5.58284">
        <ele>1290</ele>
        <time>2013-09-15T11:26:55.000Z</time>
      </trkpt>
      <trkpt lat="44.98786" lon="5.58284">
        <ele>1289</ele>
        <time>2013-09-15T11:27:11.000Z</time>
      </trkpt>
      <trkpt lat="44.98786" lon="5.58284">
        <ele>1289</ele>
        <time>2013-09-15T11:27:11.000Z</time>
      </trkpt>
      <trkpt lat="44.98786" lon="5.58284">
        <ele>1287</ele>
        <time>2013-09-15T11:28:16.000Z</time>
      </trkpt>
      <trkpt lat="44.98783" lon="5.5829">
        <ele>1287</ele>
        <time>2013-09-15T11:28:22.000Z</time>
      </trkpt>
      <trkpt lat="44.98783" lon="5.5829">
        <ele>1287</ele>
        <time>2013-09-15T11:28:22.000Z</time>
      </trkpt>
      <trkpt lat="44.98783" lon="5.5829">
        <ele>1287</ele>
        <time>2013-09-15T11:28:24.000Z</time>
      </trkpt>
      <trkpt lat="44.98784" lon="5.58296">
        <ele>1284</ele>
        <time>2013-09-15T11:28:55.000Z</time>
      </trkpt>
      <trkpt lat="44.98789" lon="5.58301">
        <ele>1283</ele>
        <time>2013-09-15T11:28:57.000Z</time>
      </trkpt>
      <trkpt lat="44.98793" lon="5.58307">
        <ele>1282</ele>
        <time>2013-09-15T11:28:59.000Z</time>
      </trkpt>
      <trkpt lat="44.98796" lon="5.58316">
        <ele>1282</ele>
        <time>2013-09-15T11:29:01.000Z</time>
      </trkpt>
      <trkpt lat="44.98797" lon="5.58322">
        <ele>1282</ele>
        <time>2013-09-15T11:29:02.000Z</time>
      </trkpt>
      <trkpt lat="44.988" lon="5.58331">
        <ele>1281</ele>
        <time>2013-09-15T11:29:04.000Z</time>
      </trkpt>
      <trkpt lat="44.98802" lon="5.58337">
        <ele>1281</ele>
        <time>2013-09-15T11:29:05.000Z</time>
      </trkpt>
      <trkpt lat="44.98804" lon="5.58346">
        <ele>1280</ele>
        <time>2013-09-15T11:29:07.000Z</time>
      </trkpt>
      <trkpt lat="44.98806" lon="5.58354">
        <ele>1280</ele>
        <time>2013-09-15T11:29:09.000Z</time>
      </trkpt>
      <trkpt lat="44.98808" lon="5.58361">
        <ele>1280</ele>
        <time>2013-09-15T11:29:10.000Z</time>
      </trkpt>
      <trkpt lat="44.98811" lon="5.58367">
        <ele>1279</ele>
        <time>2013-09-15T11:29:12.000Z</time>
      </trkpt>
      <trkpt lat="44.98816" lon="5.58374">
        <ele>1279</ele>
        <time>2013-09-15T11:29:14.000Z</time>
      </trkpt>
      <trkpt lat="44.98819" lon="5.58378">
        <ele>1279</ele>
        <time>2013-09-15T11:29:15.000Z</time>
      </trkpt>
      <trkpt lat="44.98823" lon="5.58382">
        <ele>1279</ele>
        <time>2013-09-15T11:29:17.000Z</time>
      </trkpt>
      <trkpt lat="44.98827" lon="5.58389">
        <ele>1278</ele>
        <time>2013-09-15T11:29:19.000Z</time>
      </trkpt>
      <trkpt lat="44.98833" lon="5.58393">
        <ele>1278</ele>
        <time>2013-09-15T11:29:21.000Z</time>
      </trkpt>
      <trkpt lat="44.98837" lon="5.58399">
        <ele>1278</ele>
        <time>2013-09-15T11:29:23.000Z</time>
      </trkpt>
      <trkpt lat="44.98841" lon="5.58404">
        <ele>1277</ele>
        <time>2013-09-15T11:29:25.000Z</time>
      </trkpt>
      <trkpt lat="44.98846" lon="5.5841">
        <ele>1277</ele>
        <time>2013-09-15T11:29:27.000Z</time>
      </trkpt>
      <trkpt lat="44.9885" lon="5.58414">
        <ele>1277</ele>
        <time>2013-09-15T11:29:29.000Z</time>
      </trkpt>
      <trkpt lat="44.98855" lon="5.58419">
        <ele>1277</ele>
        <time>2013-09-15T11:29:31.000Z</time>
      </trkpt>
      <trkpt lat="44.9886" lon="5.58421">
        <ele>1276</ele>
        <time>2013-09-15T11:29:33.000Z</time>
      </trkpt>
      <trkpt lat="44.98865" lon="5.58423">
        <ele>1276</ele>
        <time>2013-09-15T11:29:35.000Z</time>
      </trkpt>
      <trkpt lat="44.98869" lon="5.58425">
        <ele>1276</ele>
        <time>2013-09-15T11:29:37.000Z</time>
      </trkpt>
      <trkpt lat="44.98877" lon="5.58427">
        <ele>1276</ele>
        <time>2013-09-15T11:29:40.000Z</time>
      </trkpt>
      <trkpt lat="44.98881" lon="5.58429">
        <ele>1276</ele>
        <time>2013-09-15T11:29:42.000Z</time>
      </trkpt>
      <trkpt lat="44.98885" lon="5.58432">
        <ele>1275</ele>
        <time>2013-09-15T11:29:44.000Z</time>
      </trkpt>
      <trkpt lat="44.98891" lon="5.58434">
        <ele>1275</ele>
        <time>2013-09-15T11:29:46.000Z</time>
      </trkpt>
      <trkpt lat="44.98895" lon="5.58436">
        <ele>1275</ele>
        <time>2013-09-15T11:29:48.000Z</time>
      </trkpt>
      <trkpt lat="44.98899" lon="5.58438">
        <ele>1275</ele>
        <time>2013-09-15T11:29:50.000Z</time>
      </trkpt>
      <trkpt lat="44.98904" lon="5.5844">
        <ele>1275</ele>
        <time>2013-09-15T11:29:53.000Z</time>
      </trkpt>
      <trkpt lat="44.98911" lon="5.5844">
        <ele>1275</ele>
        <time>2013-09-15T11:29:56.000Z</time>
      </trkpt>
      <trkpt lat="44.98916" lon="5.58442">
        <ele>1275</ele>
        <time>2013-09-15T11:29:59.000Z</time>
      </trkpt>
      <trkpt lat="44.98922" lon="5.58442">
        <ele>1274</ele>
        <time>2013-09-15T11:30:02.000Z</time>
      </trkpt>
      <trkpt lat="44.98926" lon="5.58444">
        <ele>1274</ele>
        <time>2013-09-15T11:30:04.000Z</time>
      </trkpt>
      <trkpt lat="44.98932" lon="5.58444">
        <ele>1274</ele>
        <time>2013-09-15T11:30:07.000Z</time>
      </trkpt>
      <trkpt lat="44.98939" lon="5.58444">
        <ele>1274</ele>
        <time>2013-09-15T11:30:10.000Z</time>
      </trkpt>
      <trkpt lat="44.98943" lon="5.58447">
        <ele>1274</ele>
        <time>2013-09-15T11:30:12.000Z</time>
      </trkpt>
      <trkpt lat="44.98948" lon="5.58449">
        <ele>1274</ele>
        <time>2013-09-15T11:30:14.000Z</time>
      </trkpt>
      <trkpt lat="44.98954" lon="5.58449">
        <ele>1274</ele>
        <time>2013-09-15T11:30:17.000Z</time>
      </trkpt>
      <trkpt lat="44.98959" lon="5.58451">
        <ele>1274</ele>
        <time>2013-09-15T11:30:20.000Z</time>
      </trkpt>
      <trkpt lat="44.98966" lon="5.58453">
        <ele>1274</ele>
        <time>2013-09-15T11:30:23.000Z</time>
      </trkpt>
      <trkpt lat="44.98971" lon="5.58455">
        <ele>1274</ele>
        <time>2013-09-15T11:30:26.000Z</time>
      </trkpt>
      <trkpt lat="44.98976" lon="5.58455">
        <ele>1274</ele>
        <time>2013-09-15T11:30:29.000Z</time>
      </trkpt>
      <trkpt lat="44.98981" lon="5.58457">
        <ele>1274</ele>
        <time>2013-09-15T11:30:31.000Z</time>
      </trkpt>
      <trkpt lat="44.98986" lon="5.5846">
        <ele>1275</ele>
        <time>2013-09-15T11:30:34.000Z</time>
      </trkpt>
      <trkpt lat="44.98991" lon="5.58462">
        <ele>1275</ele>
        <time>2013-09-15T11:30:37.000Z</time>
      </trkpt>
      <trkpt lat="44.98997" lon="5.58462">
        <ele>1275</ele>
        <time>2013-09-15T11:30:40.000Z</time>
      </trkpt>
      <trkpt lat="44.99001" lon="5.58464">
        <ele>1275</ele>
        <time>2013-09-15T11:30:42.000Z</time>
      </trkpt>
      <trkpt lat="44.99006" lon="5.58466">
        <ele>1276</ele>
        <time>2013-09-15T11:30:45.000Z</time>
      </trkpt>
      <trkpt lat="44.99012" lon="5.58468">
        <ele>1276</ele>
        <time>2013-09-15T11:30:48.000Z</time>
      </trkpt>
      <trkpt lat="44.99017" lon="5.5847">
        <ele>1276</ele>
        <time>2013-09-15T11:30:51.000Z</time>
      </trkpt>
      <trkpt lat="44.99023" lon="5.58472">
        <ele>1276</ele>
        <time>2013-09-15T11:30:54.000Z</time>
      </trkpt>
      <trkpt lat="44.99028" lon="5.58474">
        <ele>1277</ele>
        <time>2013-09-15T11:30:57.000Z</time>
      </trkpt>
      <trkpt lat="44.99032" lon="5.58477">
        <ele>1277</ele>
        <time>2013-09-15T11:30:59.000Z</time>
      </trkpt>
      <trkpt lat="44.99039" lon="5.58481">
        <ele>1277</ele>
        <time>2013-09-15T11:31:03.000Z</time>
      </trkpt>
      <trkpt lat="44.99042" lon="5.58485">
        <ele>1278</ele>
        <time>2013-09-15T11:31:05.000Z</time>
      </trkpt>
      <trkpt lat="44.99046" lon="5.5849">
        <ele>1278</ele>
        <time>2013-09-15T11:31:08.000Z</time>
      </trkpt>
      <trkpt lat="44.9905" lon="5.58494">
        <ele>1278</ele>
        <time>2013-09-15T11:31:11.000Z</time>
      </trkpt>
      <trkpt lat="44.99053" lon="5.585">
        <ele>1278</ele>
        <time>2013-09-15T11:31:13.000Z</time>
      </trkpt>
      <trkpt lat="44.99056" lon="5.58504">
        <ele>1279</ele>
        <time>2013-09-15T11:31:15.000Z</time>
      </trkpt>
      <trkpt lat="44.99058" lon="5.58511">
        <ele>1279</ele>
        <time>2013-09-15T11:31:17.000Z</time>
      </trkpt>
      <trkpt lat="44.99059" lon="5.58517">
        <ele>1279</ele>
        <time>2013-09-15T11:31:19.000Z</time>
      </trkpt>
      <trkpt lat="44.99061" lon="5.58524">
        <ele>1279</ele>
        <time>2013-09-15T11:31:21.000Z</time>
      </trkpt>
      <trkpt lat="44.99062" lon="5.58532">
        <ele>1279</ele>
        <time>2013-09-15T11:31:23.000Z</time>
      </trkpt>
      <trkpt lat="44.99062" lon="5.58541">
        <ele>1279</ele>
        <time>2013-09-15T11:31:25.000Z</time>
      </trkpt>
      <trkpt lat="44.9906" lon="5.58552">
        <ele>1280</ele>
        <time>2013-09-15T11:31:27.000Z</time>
      </trkpt>
      <trkpt lat="44.99059" lon="5.5856">
        <ele>1280</ele>
        <time>2013-09-15T11:31:29.000Z</time>
      </trkpt>
      <trkpt lat="44.99057" lon="5.58569">
        <ele>1280</ele>
        <time>2013-09-15T11:31:31.000Z</time>
      </trkpt>
      <trkpt lat="44.99056" lon="5.58575">
        <ele>1280</ele>
        <time>2013-09-15T11:31:32.000Z</time>
      </trkpt>
      <trkpt lat="44.99054" lon="5.58584">
        <ele>1280</ele>
        <time>2013-09-15T11:31:34.000Z</time>
      </trkpt>
      <trkpt lat="44.9905" lon="5.58595">
        <ele>1281</ele>
        <time>2013-09-15T11:31:36.000Z</time>
      </trkpt>
      <trkpt lat="44.99047" lon="5.58603">
        <ele>1281</ele>
        <time>2013-09-15T11:31:38.000Z</time>
      </trkpt>
      <trkpt lat="44.99045" lon="5.58612">
        <ele>1281</ele>
        <time>2013-09-15T11:31:40.000Z</time>
      </trkpt>
      <trkpt lat="44.99042" lon="5.58618">
        <ele>1282</ele>
        <time>2013-09-15T11:31:42.000Z</time>
      </trkpt>
      <trkpt lat="44.99039" lon="5.58627">
        <ele>1282</ele>
        <time>2013-09-15T11:31:44.000Z</time>
      </trkpt>
      <trkpt lat="44.99033" lon="5.58635">
        <ele>1282</ele>
        <time>2013-09-15T11:31:46.000Z</time>
      </trkpt>
      <trkpt lat="44.99031" lon="5.58642">
        <ele>1282</ele>
        <time>2013-09-15T11:31:47.000Z</time>
      </trkpt>
      <trkpt lat="44.99026" lon="5.5865">
        <ele>1283</ele>
        <time>2013-09-15T11:31:49.000Z</time>
      </trkpt>
      <trkpt lat="44.9902" lon="5.58659">
        <ele>1283</ele>
        <time>2013-09-15T11:31:51.000Z</time>
      </trkpt>
      <trkpt lat="44.99015" lon="5.58668">
        <ele>1284</ele>
        <time>2013-09-15T11:31:53.000Z</time>
      </trkpt>
      <trkpt lat="44.9901" lon="5.58676">
        <ele>1284</ele>
        <time>2013-09-15T11:31:55.000Z</time>
      </trkpt>
      <trkpt lat="44.99003" lon="5.58683">
        <ele>1284</ele>
        <time>2013-09-15T11:31:57.000Z</time>
      </trkpt>
      <trkpt lat="44.98997" lon="5.58687">
        <ele>1284</ele>
        <time>2013-09-15T11:31:59.000Z</time>
      </trkpt>
      <trkpt lat="44.98992" lon="5.58691">
        <ele>1285</ele>
        <time>2013-09-15T11:32:00.000Z</time>
      </trkpt>
      <trkpt lat="44.98988" lon="5.58693">
        <ele>1285</ele>
        <time>2013-09-15T11:32:01.000Z</time>
      </trkpt>
      <trkpt lat="44.98982" lon="5.58702">
        <ele>1285</ele>
        <time>2013-09-15T11:32:03.000Z</time>
      </trkpt>
      <trkpt lat="44.98975" lon="5.58708">
        <ele>1285</ele>
        <time>2013-09-15T11:32:05.000Z</time>
      </trkpt>
      <trkpt lat="44.98972" lon="5.58715">
        <ele>1285</ele>
        <time>2013-09-15T11:32:07.000Z</time>
      </trkpt>
      <trkpt lat="44.98968" lon="5.58719">
        <ele>1285</ele>
        <time>2013-09-15T11:32:10.000Z</time>
      </trkpt>
      <trkpt lat="44.98965" lon="5.58726">
        <ele>1285</ele>
        <time>2013-09-15T11:32:14.000Z</time>
      </trkpt>
      <trkpt lat="44.98965" lon="5.58726">
        <ele>1285</ele>
        <time>2013-09-15T11:32:14.000Z</time>
      </trkpt>
      <trkpt lat="44.98965" lon="5.58726">
        <ele>1285</ele>
        <time>2013-09-15T11:32:15.000Z</time>
      </trkpt>
      <trkpt lat="44.98961" lon="5.58732">
        <ele>1285</ele>
        <time>2013-09-15T11:32:23.000Z</time>
      </trkpt>
      <trkpt lat="44.98961" lon="5.58732">
        <ele>1285</ele>
        <time>2013-09-15T11:32:23.000Z</time>
      </trkpt>
      <trkpt lat="44.98961" lon="5.58732">
        <ele>1286</ele>
        <time>2013-09-15T11:32:26.000Z</time>
      </trkpt>
      <trkpt lat="44.98959" lon="5.58738">
        <ele>1286</ele>
        <time>2013-09-15T11:32:42.000Z</time>
      </trkpt>
      <trkpt lat="44.98959" lon="5.58738">
        <ele>1286</ele>
        <time>2013-09-15T11:32:42.000Z</time>
      </trkpt>
      <trkpt lat="44.98959" lon="5.58738">
        <ele>1286</ele>
        <time>2013-09-15T11:32:45.000Z</time>
      </trkpt>
      <trkpt lat="44.98955" lon="5.58745">
        <ele>1290</ele>
        <time>2013-09-15T11:33:08.000Z</time>
      </trkpt>
      <trkpt lat="44.98954" lon="5.58753">
        <ele>1291</ele>
        <time>2013-09-15T11:33:10.000Z</time>
      </trkpt>
      <trkpt lat="44.98953" lon="5.5876">
        <ele>1295</ele>
        <time>2013-09-15T11:33:11.000Z</time>
      </trkpt>
      <trkpt lat="44.98952" lon="5.58766">
        <ele>1299</ele>
        <time>2013-09-15T11:33:12.000Z</time>
      </trkpt>
      <trkpt lat="44.98951" lon="5.58773">
        <ele>1302</ele>
        <time>2013-09-15T11:33:13.000Z</time>
      </trkpt>
      <trkpt lat="44.98948" lon="5.58779">
        <ele>1304</ele>
        <time>2013-09-15T11:33:14.000Z</time>
      </trkpt>
      <trkpt lat="44.98943" lon="5.58788">
        <ele>1306</ele>
        <time>2013-09-15T11:33:15.000Z</time>
      </trkpt>
      <trkpt lat="44.98938" lon="5.58796">
        <ele>1307</ele>
        <time>2013-09-15T11:33:16.000Z</time>
      </trkpt>
      <trkpt lat="44.9893" lon="5.58805">
        <ele>1307</ele>
        <time>2013-09-15T11:33:17.000Z</time>
      </trkpt>
      <trkpt lat="44.98924" lon="5.58816">
        <ele>1308</ele>
        <time>2013-09-15T11:33:18.000Z</time>
      </trkpt>
      <trkpt lat="44.9892" lon="5.58826">
        <ele>1308</ele>
        <time>2013-09-15T11:33:19.000Z</time>
      </trkpt>
      <trkpt lat="44.98914" lon="5.58835">
        <ele>1308</ele>
        <time>2013-09-15T11:33:20.000Z</time>
      </trkpt>
      <trkpt lat="44.9891" lon="5.58844">
        <ele>1308</ele>
        <time>2013-09-15T11:33:21.000Z</time>
      </trkpt>
      <trkpt lat="44.98904" lon="5.58854">
        <ele>1308</ele>
        <time>2013-09-15T11:33:22.000Z</time>
      </trkpt>
      <trkpt lat="44.98896" lon="5.58867">
        <ele>1308</ele>
        <time>2013-09-15T11:33:23.000Z</time>
      </trkpt>
      <trkpt lat="44.98888" lon="5.58878">
        <ele>1308</ele>
        <time>2013-09-15T11:33:24.000Z</time>
      </trkpt>
      <trkpt lat="44.98881" lon="5.58891">
        <ele>1308</ele>
        <time>2013-09-15T11:33:25.000Z</time>
      </trkpt>
      <trkpt lat="44.98873" lon="5.58902">
        <ele>1308</ele>
        <time>2013-09-15T11:33:26.000Z</time>
      </trkpt>
      <trkpt lat="44.98866" lon="5.58912">
        <ele>1308</ele>
        <time>2013-09-15T11:33:27.000Z</time>
      </trkpt>
      <trkpt lat="44.9886" lon="5.58923">
        <ele>1307</ele>
        <time>2013-09-15T11:33:28.000Z</time>
      </trkpt>
      <trkpt lat="44.98853" lon="5.58936">
        <ele>1307</ele>
        <time>2013-09-15T11:33:29.000Z</time>
      </trkpt>
      <trkpt lat="44.98848" lon="5.58947">
        <ele>1308</ele>
        <time>2013-09-15T11:33:30.000Z</time>
      </trkpt>
      <trkpt lat="44.98842" lon="5.58959">
        <ele>1308</ele>
        <time>2013-09-15T11:33:31.000Z</time>
      </trkpt>
      <trkpt lat="44.98838" lon="5.5897">
        <ele>1308</ele>
        <time>2013-09-15T11:33:32.000Z</time>
      </trkpt>
      <trkpt lat="44.98833" lon="5.58979">
        <ele>1308</ele>
        <time>2013-09-15T11:33:33.000Z</time>
      </trkpt>
      <trkpt lat="44.98828" lon="5.58987">
        <ele>1305</ele>
        <time>2013-09-15T11:33:34.000Z</time>
      </trkpt>
      <trkpt lat="44.98825" lon="5.59">
        <ele>1303</ele>
        <time>2013-09-15T11:33:35.000Z</time>
      </trkpt>
      <trkpt lat="44.98822" lon="5.59011">
        <ele>1301</ele>
        <time>2013-09-15T11:33:36.000Z</time>
      </trkpt>
      <trkpt lat="44.9882" lon="5.59022">
        <ele>1300</ele>
        <time>2013-09-15T11:33:37.000Z</time>
      </trkpt>
      <trkpt lat="44.98819" lon="5.5903">
        <ele>1299</ele>
        <time>2013-09-15T11:33:38.000Z</time>
      </trkpt>
      <trkpt lat="44.98819" lon="5.59039">
        <ele>1297</ele>
        <time>2013-09-15T11:33:39.000Z</time>
      </trkpt>
      <trkpt lat="44.98818" lon="5.59045">
        <ele>1296</ele>
        <time>2013-09-15T11:33:40.000Z</time>
      </trkpt>
      <trkpt lat="44.98816" lon="5.59052">
        <ele>1296</ele>
        <time>2013-09-15T11:33:41.000Z</time>
      </trkpt>
      <trkpt lat="44.98811" lon="5.59065">
        <ele>1295</ele>
        <time>2013-09-15T11:33:46.000Z</time>
      </trkpt>
      <trkpt lat="44.98811" lon="5.59065">
        <ele>1295</ele>
        <time>2013-09-15T11:33:46.000Z</time>
      </trkpt>
      <trkpt lat="44.98811" lon="5.59065">
        <ele>1295</ele>
        <time>2013-09-15T11:33:47.000Z</time>
      </trkpt>
      <trkpt lat="44.98818" lon="5.59078">
        <ele>1293</ele>
        <time>2013-09-15T11:33:50.000Z</time>
      </trkpt>
      <trkpt lat="44.98824" lon="5.59088">
        <ele>1287</ele>
        <time>2013-09-15T11:33:52.000Z</time>
      </trkpt>
      <trkpt lat="44.98828" lon="5.59097">
        <ele>1284</ele>
        <time>2013-09-15T11:33:53.000Z</time>
      </trkpt>
      <trkpt lat="44.98832" lon="5.59103">
        <ele>1281</ele>
        <time>2013-09-15T11:33:54.000Z</time>
      </trkpt>
      <trkpt lat="44.98835" lon="5.5911">
        <ele>1279</ele>
        <time>2013-09-15T11:33:55.000Z</time>
      </trkpt>
      <trkpt lat="44.98839" lon="5.59116">
        <ele>1278</ele>
        <time>2013-09-15T11:33:56.000Z</time>
      </trkpt>
      <trkpt lat="44.98842" lon="5.59125">
        <ele>1276</ele>
        <time>2013-09-15T11:33:57.000Z</time>
      </trkpt>
      <trkpt lat="44.98847" lon="5.59131">
        <ele>1275</ele>
        <time>2013-09-15T11:33:58.000Z</time>
      </trkpt>
      <trkpt lat="44.98851" lon="5.59138">
        <ele>1273</ele>
        <time>2013-09-15T11:33:59.000Z</time>
      </trkpt>
      <trkpt lat="44.98855" lon="5.59146">
        <ele>1272</ele>
        <time>2013-09-15T11:34:00.000Z</time>
      </trkpt>
      <trkpt lat="44.9886" lon="5.59153">
        <ele>1272</ele>
        <time>2013-09-15T11:34:01.000Z</time>
      </trkpt>
      <trkpt lat="44.98864" lon="5.59159">
        <ele>1271</ele>
        <time>2013-09-15T11:34:02.000Z</time>
      </trkpt>
      <trkpt lat="44.98868" lon="5.59165">
        <ele>1270</ele>
        <time>2013-09-15T11:34:03.000Z</time>
      </trkpt>
      <trkpt lat="44.98871" lon="5.59172">
        <ele>1270</ele>
        <time>2013-09-15T11:34:04.000Z</time>
      </trkpt>
      <trkpt lat="44.98873" lon="5.59178">
        <ele>1270</ele>
        <time>2013-09-15T11:34:05.000Z</time>
      </trkpt>
      <trkpt lat="44.98874" lon="5.59185">
        <ele>1270</ele>
        <time>2013-09-15T11:34:07.000Z</time>
      </trkpt>
      <trkpt lat="44.98874" lon="5.59185">
        <ele>1270</ele>
        <time>2013-09-15T11:34:07.000Z</time>
      </trkpt>
      <trkpt lat="44.98874" lon="5.59185">
        <ele>1270</ele>
        <time>2013-09-15T11:36:26.000Z</time>
      </trkpt>
      <trkpt lat="44.98884" lon="5.59191">
        <ele>1259</ele>
        <time>2013-09-15T11:36:27.000Z</time>
      </trkpt>
      <trkpt lat="44.98884" lon="5.59191">
        <ele>1259</ele>
        <time>2013-09-15T11:36:27.000Z</time>
      </trkpt>
      <trkpt lat="44.98884" lon="5.59191">
        <ele>1259</ele>
        <time>2013-09-15T11:36:28.000Z</time>
      </trkpt>
      <trkpt lat="44.98892" lon="5.592">
        <ele>1258</ele>
        <time>2013-09-15T11:36:29.000Z</time>
      </trkpt>
      <trkpt lat="44.98892" lon="5.592">
        <ele>1258</ele>
        <time>2013-09-15T11:36:29.000Z</time>
      </trkpt>
      <trkpt lat="44.98892" lon="5.592">
        <ele>1258</ele>
        <time>2013-09-15T11:36:30.000Z</time>
      </trkpt>
      <trkpt lat="44.98904" lon="5.5921">
        <ele>1258</ele>
        <time>2013-09-15T11:36:31.000Z</time>
      </trkpt>
      <trkpt lat="44.98904" lon="5.5921">
        <ele>1258</ele>
        <time>2013-09-15T11:36:31.000Z</time>
      </trkpt>
      <trkpt lat="44.98904" lon="5.5921">
        <ele>1258</ele>
        <time>2013-09-15T11:36:32.000Z</time>
      </trkpt>
      <trkpt lat="44.98916" lon="5.59221">
        <ele>1257</ele>
        <time>2013-09-15T11:36:33.000Z</time>
      </trkpt>
      <trkpt lat="44.98916" lon="5.59221">
        <ele>1257</ele>
        <time>2013-09-15T11:36:33.000Z</time>
      </trkpt>
      <trkpt lat="44.98916" lon="5.59221">
        <ele>1257</ele>
        <time>2013-09-15T11:36:34.000Z</time>
      </trkpt>
      <trkpt lat="44.98931" lon="5.5923">
        <ele>1256</ele>
        <time>2013-09-15T11:36:35.000Z</time>
      </trkpt>
      <trkpt lat="44.98931" lon="5.5923">
        <ele>1256</ele>
        <time>2013-09-15T11:36:35.000Z</time>
      </trkpt>
      <trkpt lat="44.98931" lon="5.5923">
        <ele>1256</ele>
        <time>2013-09-15T11:36:36.000Z</time>
      </trkpt>
      <trkpt lat="44.98944" lon="5.59236">
        <ele>1255</ele>
        <time>2013-09-15T11:36:37.000Z</time>
      </trkpt>
      <trkpt lat="44.98944" lon="5.59236">
        <ele>1255</ele>
        <time>2013-09-15T11:36:37.000Z</time>
      </trkpt>
      <trkpt lat="44.98944" lon="5.59236">
        <ele>1255</ele>
        <time>2013-09-15T11:36:38.000Z</time>
      </trkpt>
      <trkpt lat="44.98956" lon="5.59243">
        <ele>1255</ele>
        <time>2013-09-15T11:36:39.000Z</time>
      </trkpt>
      <trkpt lat="44.98956" lon="5.59243">
        <ele>1255</ele>
        <time>2013-09-15T11:36:39.000Z</time>
      </trkpt>
      <trkpt lat="44.98956" lon="5.59243">
        <ele>1255</ele>
        <time>2013-09-15T11:36:40.000Z</time>
      </trkpt>
      <trkpt lat="44.98966" lon="5.59247">
        <ele>1254</ele>
        <time>2013-09-15T11:36:41.000Z</time>
      </trkpt>
      <trkpt lat="44.98966" lon="5.59247">
        <ele>1254</ele>
        <time>2013-09-15T11:36:41.000Z</time>
      </trkpt>
      <trkpt lat="44.98966" lon="5.59247">
        <ele>1254</ele>
        <time>2013-09-15T11:36:43.000Z</time>
      </trkpt>
      <trkpt lat="44.98976" lon="5.59251">
        <ele>1253</ele>
        <time>2013-09-15T11:36:44.000Z</time>
      </trkpt>
      <trkpt lat="44.98976" lon="5.59251">
        <ele>1253</ele>
        <time>2013-09-15T11:36:44.000Z</time>
      </trkpt>
      <trkpt lat="44.98976" lon="5.59251">
        <ele>1253</ele>
        <time>2013-09-15T11:36:46.000Z</time>
      </trkpt>
      <trkpt lat="44.98984" lon="5.59256">
        <ele>1252</ele>
        <time>2013-09-15T11:36:47.000Z</time>
      </trkpt>
      <trkpt lat="44.98984" lon="5.59256">
        <ele>1252</ele>
        <time>2013-09-15T11:36:47.000Z</time>
      </trkpt>
      <trkpt lat="44.98984" lon="5.59256">
        <ele>1252</ele>
        <time>2013-09-15T11:36:49.000Z</time>
      </trkpt>
      <trkpt lat="44.98991" lon="5.5926">
        <ele>1251</ele>
        <time>2013-09-15T11:36:50.000Z</time>
      </trkpt>
      <trkpt lat="44.98991" lon="5.5926">
        <ele>1251</ele>
        <time>2013-09-15T11:36:50.000Z</time>
      </trkpt>
      <trkpt lat="44.98991" lon="5.5926">
        <ele>1251</ele>
        <time>2013-09-15T11:36:51.000Z</time>
      </trkpt>
      <trkpt lat="44.98996" lon="5.59264">
        <ele>1251</ele>
        <time>2013-09-15T11:36:52.000Z</time>
      </trkpt>
      <trkpt lat="44.98996" lon="5.59264">
        <ele>1251</ele>
        <time>2013-09-15T11:36:52.000Z</time>
      </trkpt>
      <trkpt lat="44.98996" lon="5.59264">
        <ele>1251</ele>
        <time>2013-09-15T11:36:54.000Z</time>
      </trkpt>
      <trkpt lat="44.99001" lon="5.59268">
        <ele>1250</ele>
        <time>2013-09-15T11:36:55.000Z</time>
      </trkpt>
      <trkpt lat="44.99005" lon="5.59273">
        <ele>1249</ele>
        <time>2013-09-15T11:36:57.000Z</time>
      </trkpt>
      <trkpt lat="44.99009" lon="5.59281">
        <ele>1246</ele>
        <time>2013-09-15T11:36:59.000Z</time>
      </trkpt>
      <trkpt lat="44.99009" lon="5.59288">
        <ele>1244</ele>
        <time>2013-09-15T11:37:00.000Z</time>
      </trkpt>
      <trkpt lat="44.99006" lon="5.59296">
        <ele>1242</ele>
        <time>2013-09-15T11:37:01.000Z</time>
      </trkpt>
      <trkpt lat="44.99004" lon="5.59307">
        <ele>1241</ele>
        <time>2013-09-15T11:37:02.000Z</time>
      </trkpt>
      <trkpt lat="44.99003" lon="5.59316">
        <ele>1240</ele>
        <time>2013-09-15T11:37:03.000Z</time>
      </trkpt>
      <trkpt lat="44.99001" lon="5.59322">
        <ele>1238</ele>
        <time>2013-09-15T11:37:04.000Z</time>
      </trkpt>
      <trkpt lat="44.98999" lon="5.59331">
        <ele>1237</ele>
        <time>2013-09-15T11:37:05.000Z</time>
      </trkpt>
      <trkpt lat="44.98997" lon="5.59337">
        <ele>1236</ele>
        <time>2013-09-15T11:37:06.000Z</time>
      </trkpt>
      <trkpt lat="44.98995" lon="5.59346">
        <ele>1234</ele>
        <time>2013-09-15T11:37:07.000Z</time>
      </trkpt>
      <trkpt lat="44.98994" lon="5.59352">
        <ele>1232</ele>
        <time>2013-09-15T11:37:08.000Z</time>
      </trkpt>
      <trkpt lat="44.98991" lon="5.59358">
        <ele>1230</ele>
        <time>2013-09-15T11:37:09.000Z</time>
      </trkpt>
      <trkpt lat="44.98991" lon="5.59367">
        <ele>1229</ele>
        <time>2013-09-15T11:37:10.000Z</time>
      </trkpt>
      <trkpt lat="44.98991" lon="5.59376">
        <ele>1228</ele>
        <time>2013-09-15T11:37:11.000Z</time>
      </trkpt>
      <trkpt lat="44.98991" lon="5.59384">
        <ele>1229</ele>
        <time>2013-09-15T11:37:12.000Z</time>
      </trkpt>
      <trkpt lat="44.98991" lon="5.59393">
        <ele>1230</ele>
        <time>2013-09-15T11:37:13.000Z</time>
      </trkpt>
      <trkpt lat="44.98994" lon="5.59402">
        <ele>1230</ele>
        <time>2013-09-15T11:37:14.000Z</time>
      </trkpt>
      <trkpt lat="44.98996" lon="5.5941">
        <ele>1231</ele>
        <time>2013-09-15T11:37:15.000Z</time>
      </trkpt>
      <trkpt lat="44.98998" lon="5.59421">
        <ele>1231</ele>
        <time>2013-09-15T11:37:16.000Z</time>
      </trkpt>
      <trkpt lat="44.99" lon="5.59429">
        <ele>1231</ele>
        <time>2013-09-15T11:37:17.000Z</time>
      </trkpt>
      <trkpt lat="44.99002" lon="5.59438">
        <ele>1231</ele>
        <time>2013-09-15T11:37:18.000Z</time>
      </trkpt>
      <trkpt lat="44.99003" lon="5.59444">
        <ele>1231</ele>
        <time>2013-09-15T11:37:19.000Z</time>
      </trkpt>
      <trkpt lat="44.99005" lon="5.59451">
        <ele>1231</ele>
        <time>2013-09-15T11:37:20.000Z</time>
      </trkpt>
      <trkpt lat="44.99017" lon="5.59453">
        <ele>1231</ele>
        <time>2013-09-15T11:37:28.000Z</time>
      </trkpt>
      <trkpt lat="44.99017" lon="5.59453">
        <ele>1231</ele>
        <time>2013-09-15T11:37:28.000Z</time>
      </trkpt>
      <trkpt lat="44.99017" lon="5.59453">
        <ele>1231</ele>
        <time>2013-09-15T11:40:20.000Z</time>
      </trkpt>
      <trkpt lat="44.99022" lon="5.59457">
        <ele>1233</ele>
        <time>2013-09-15T11:40:30.000Z</time>
      </trkpt>
      <trkpt lat="44.99022" lon="5.59457">
        <ele>1233</ele>
        <time>2013-09-15T11:40:30.000Z</time>
      </trkpt>
      <trkpt lat="44.99022" lon="5.59457">
        <ele>1233</ele>
        <time>2013-09-15T11:40:31.000Z</time>
      </trkpt>
      <trkpt lat="44.99026" lon="5.59462">
        <ele>1234</ele>
        <time>2013-09-15T11:40:42.000Z</time>
      </trkpt>
      <trkpt lat="44.99026" lon="5.59462">
        <ele>1234</ele>
        <time>2013-09-15T11:40:42.000Z</time>
      </trkpt>
      <trkpt lat="44.99026" lon="5.59462">
        <ele>1234</ele>
        <time>2013-09-15T11:40:44.000Z</time>
      </trkpt>
      <trkpt lat="44.99031" lon="5.59462">
        <ele>1235</ele>
        <time>2013-09-15T11:40:53.000Z</time>
      </trkpt>
      <trkpt lat="44.99031" lon="5.59462">
        <ele>1235</ele>
        <time>2013-09-15T11:40:53.000Z</time>
      </trkpt>
      <trkpt lat="44.99031" lon="5.59462">
        <ele>1235</ele>
        <time>2013-09-15T11:40:54.000Z</time>
      </trkpt>
      <trkpt lat="44.99036" lon="5.59459">
        <ele>1235</ele>
        <time>2013-09-15T11:41:02.000Z</time>
      </trkpt>
      <trkpt lat="44.99041" lon="5.59466">
        <ele>1236</ele>
        <time>2013-09-15T11:41:09.000Z</time>
      </trkpt>
      <trkpt lat="44.99045" lon="5.59464">
        <ele>1237</ele>
        <time>2013-09-15T11:41:21.000Z</time>
      </trkpt>
      <trkpt lat="44.99045" lon="5.59464">
        <ele>1237</ele>
        <time>2013-09-15T11:41:21.000Z</time>
      </trkpt>
      <trkpt lat="44.99045" lon="5.59464">
        <ele>1237</ele>
        <time>2013-09-15T11:41:23.000Z</time>
      </trkpt>
      <trkpt lat="44.9904" lon="5.59462">
        <ele>1238</ele>
        <time>2013-09-15T11:41:28.000Z</time>
      </trkpt>
      <trkpt lat="44.99032" lon="5.59459">
        <ele>1237</ele>
        <time>2013-09-15T11:41:31.000Z</time>
      </trkpt>
      <trkpt lat="44.99027" lon="5.59457">
        <ele>1237</ele>
        <time>2013-09-15T11:41:34.000Z</time>
      </trkpt>
      <trkpt lat="44.99022" lon="5.59459">
        <ele>1236</ele>
        <time>2013-09-15T11:41:58.000Z</time>
      </trkpt>
      <trkpt lat="44.99022" lon="5.59459">
        <ele>1236</ele>
        <time>2013-09-15T11:41:58.000Z</time>
      </trkpt>
      <trkpt lat="44.99022" lon="5.59459">
        <ele>1236</ele>
        <time>2013-09-15T11:41:59.000Z</time>
      </trkpt>
      <trkpt lat="44.99017" lon="5.59466">
        <ele>1236</ele>
        <time>2013-09-15T11:42:03.000Z</time>
      </trkpt>
      <trkpt lat="44.99012" lon="5.59472">
        <ele>1236</ele>
        <time>2013-09-15T11:42:07.000Z</time>
      </trkpt>
      <trkpt lat="44.99008" lon="5.59477">
        <ele>1235</ele>
        <time>2013-09-15T11:42:12.000Z</time>
      </trkpt>
      <trkpt lat="44.99002" lon="5.59477">
        <ele>1234</ele>
        <time>2013-09-15T11:42:29.000Z</time>
      </trkpt>
      <trkpt lat="44.98998" lon="5.59479">
        <ele>1231</ele>
        <time>2013-09-15T11:43:01.000Z</time>
      </trkpt>
      <trkpt lat="44.98995" lon="5.59485">
        <ele>1229</ele>
        <time>2013-09-15T11:43:12.000Z</time>
      </trkpt>
      <trkpt lat="44.98995" lon="5.59485">
        <ele>1229</ele>
        <time>2013-09-15T11:43:12.000Z</time>
      </trkpt>
      <trkpt lat="44.98995" lon="5.59485">
        <ele>1227</ele>
        <time>2013-09-15T11:43:37.000Z</time>
      </trkpt>
      <trkpt lat="44.98999" lon="5.59481">
        <ele>1226</ele>
        <time>2013-09-15T11:43:43.000Z</time>
      </trkpt>
      <trkpt lat="44.99002" lon="5.59477">
        <ele>1226</ele>
        <time>2013-09-15T11:43:47.000Z</time>
      </trkpt>
      <trkpt lat="44.99002" lon="5.59477">
        <ele>1226</ele>
        <time>2013-09-15T11:43:47.000Z</time>
      </trkpt>
      <trkpt lat="44.99002" lon="5.59477">
        <ele>1226</ele>
        <time>2013-09-15T11:43:48.000Z</time>
      </trkpt>
      <trkpt lat="44.98998" lon="5.59479">
        <ele>1223</ele>
        <time>2013-09-15T11:44:40.000Z</time>
      </trkpt>
      <trkpt lat="44.98998" lon="5.59479">
        <ele>1223</ele>
        <time>2013-09-15T11:44:40.000Z</time>
      </trkpt>
      <trkpt lat="44.98998" lon="5.59479">
        <ele>1222</ele>
        <time>2013-09-15T11:44:42.000Z</time>
      </trkpt>
      <trkpt lat="44.98994" lon="5.59477">
        <ele>1222</ele>
        <time>2013-09-15T11:44:48.000Z</time>
      </trkpt>
      <trkpt lat="44.98994" lon="5.59477">
        <ele>1222</ele>
        <time>2013-09-15T11:44:48.000Z</time>
      </trkpt>
      <trkpt lat="44.98994" lon="5.59477">
        <ele>1222</ele>
        <time>2013-09-15T11:44:50.000Z</time>
      </trkpt>
      <trkpt lat="44.98989" lon="5.59479">
        <ele>1221</ele>
        <time>2013-09-15T11:44:59.000Z</time>
      </trkpt>
      <trkpt lat="44.98986" lon="5.59485">
        <ele>1220</ele>
        <time>2013-09-15T11:45:06.000Z</time>
      </trkpt>
      <trkpt lat="44.98986" lon="5.59485">
        <ele>1220</ele>
        <time>2013-09-15T11:45:06.000Z</time>
      </trkpt>
      <trkpt lat="44.98986" lon="5.59485">
        <ele>1219</ele>
        <time>2013-09-15T11:45:20.000Z</time>
      </trkpt>
      <trkpt lat="44.98988" lon="5.59479">
        <ele>1217</ele>
        <time>2013-09-15T11:45:34.000Z</time>
      </trkpt>
      <trkpt lat="44.98992" lon="5.59474">
        <ele>1217</ele>
        <time>2013-09-15T11:45:40.000Z</time>
      </trkpt>
      <trkpt lat="44.98992" lon="5.59474">
        <ele>1217</ele>
        <time>2013-09-15T11:45:40.000Z</time>
      </trkpt>
      <trkpt lat="44.98992" lon="5.59474">
        <ele>1217</ele>
        <time>2013-09-15T11:45:41.000Z</time>
      </trkpt>
      <trkpt lat="44.98997" lon="5.5947">
        <ele>1217</ele>
        <time>2013-09-15T11:45:45.000Z</time>
      </trkpt>
      <trkpt lat="44.98997" lon="5.5947">
        <ele>1217</ele>
        <time>2013-09-15T11:45:45.000Z</time>
      </trkpt>
      <trkpt lat="44.98997" lon="5.5947">
        <ele>1217</ele>
        <time>2013-09-15T11:45:46.000Z</time>
      </trkpt>
      <trkpt lat="44.99001" lon="5.59466">
        <ele>1217</ele>
        <time>2013-09-15T11:45:51.000Z</time>
      </trkpt>
      <trkpt lat="44.99001" lon="5.59466">
        <ele>1217</ele>
        <time>2013-09-15T11:45:51.000Z</time>
      </trkpt>
      <trkpt lat="44.99001" lon="5.59466">
        <ele>1217</ele>
        <time>2013-09-15T11:45:52.000Z</time>
      </trkpt>
      <trkpt lat="44.99005" lon="5.59462">
        <ele>1217</ele>
        <time>2013-09-15T11:46:00.000Z</time>
      </trkpt>
      <trkpt lat="44.99005" lon="5.59462">
        <ele>1217</ele>
        <time>2013-09-15T11:46:00.000Z</time>
      </trkpt>
      <trkpt lat="44.99005" lon="5.59462">
        <ele>1217</ele>
        <time>2013-09-15T11:46:01.000Z</time>
      </trkpt>
      <trkpt lat="44.99011" lon="5.59462">
        <ele>1217</ele>
        <time>2013-09-15T11:46:14.000Z</time>
      </trkpt>
      <trkpt lat="44.99011" lon="5.59462">
        <ele>1217</ele>
        <time>2013-09-15T11:46:14.000Z</time>
      </trkpt>
      <trkpt lat="44.99011" lon="5.59462">
        <ele>1217</ele>
        <time>2013-09-15T11:46:18.000Z</time>
      </trkpt>
      <trkpt lat="44.99012" lon="5.59468">
        <ele>1217</ele>
        <time>2013-09-15T11:46:31.000Z</time>
      </trkpt>
      <trkpt lat="44.99012" lon="5.59468">
        <ele>1217</ele>
        <time>2013-09-15T11:46:31.000Z</time>
      </trkpt>
      <trkpt lat="44.99012" lon="5.59468">
        <ele>1217</ele>
        <time>2013-09-15T11:46:33.000Z</time>
      </trkpt>
      <trkpt lat="44.99012" lon="5.59474">
        <ele>1216</ele>
        <time>2013-09-15T11:46:46.000Z</time>
      </trkpt>
      <trkpt lat="44.99012" lon="5.59474">
        <ele>1216</ele>
        <time>2013-09-15T11:46:46.000Z</time>
      </trkpt>
      <trkpt lat="44.99012" lon="5.59474">
        <ele>1216</ele>
        <time>2013-09-15T11:46:51.000Z</time>
      </trkpt>
      <trkpt lat="44.9901" lon="5.59481">
        <ele>1215</ele>
        <time>2013-09-15T11:47:33.000Z</time>
      </trkpt>
      <trkpt lat="44.9901" lon="5.59481">
        <ele>1215</ele>
        <time>2013-09-15T11:47:33.000Z</time>
      </trkpt>
      <trkpt lat="44.9901" lon="5.59481">
        <ele>1215</ele>
        <time>2013-09-15T11:47:37.000Z</time>
      </trkpt>
      <trkpt lat="44.99014" lon="5.59483">
        <ele>1215</ele>
        <time>2013-09-15T11:47:57.000Z</time>
      </trkpt>
      <trkpt lat="44.99014" lon="5.59483">
        <ele>1215</ele>
        <time>2013-09-15T11:47:57.000Z</time>
      </trkpt>
      <trkpt lat="44.99014" lon="5.59483">
        <ele>1216</ele>
        <time>2013-09-15T11:47:59.000Z</time>
      </trkpt>
      <trkpt lat="44.99017" lon="5.59477">
        <ele>1216</ele>
        <time>2013-09-15T11:48:16.000Z</time>
      </trkpt>
      <trkpt lat="44.99017" lon="5.59477">
        <ele>1216</ele>
        <time>2013-09-15T11:48:16.000Z</time>
      </trkpt>
      <trkpt lat="44.99017" lon="5.59477">
        <ele>1215</ele>
        <time>2013-09-15T11:48:50.000Z</time>
      </trkpt>
      <trkpt lat="44.99012" lon="5.59477">
        <ele>1215</ele>
        <time>2013-09-15T11:48:56.000Z</time>
      </trkpt>
      <trkpt lat="44.99012" lon="5.59477">
        <ele>1215</ele>
        <time>2013-09-15T11:48:56.000Z</time>
      </trkpt>
      <trkpt lat="44.99012" lon="5.59477">
        <ele>1215</ele>
        <time>2013-09-15T11:48:57.000Z</time>
      </trkpt>
      <trkpt lat="44.99006" lon="5.59477">
        <ele>1215</ele>
        <time>2013-09-15T11:49:06.000Z</time>
      </trkpt>
      <trkpt lat="44.99006" lon="5.59477">
        <ele>1215</ele>
        <time>2013-09-15T11:49:06.000Z</time>
      </trkpt>
      <trkpt lat="44.99006" lon="5.59477">
        <ele>1215</ele>
        <time>2013-09-15T11:49:08.000Z</time>
      </trkpt>
      <trkpt lat="44.99001" lon="5.59477">
        <ele>1215</ele>
        <time>2013-09-15T11:49:26.000Z</time>
      </trkpt>
      <trkpt lat="44.99001" lon="5.59477">
        <ele>1215</ele>
        <time>2013-09-15T11:49:26.000Z</time>
      </trkpt>
      <trkpt lat="44.99001" lon="5.59477">
        <ele>1215</ele>
        <time>2013-09-15T11:49:33.000Z</time>
      </trkpt>
      <trkpt lat="44.98996" lon="5.59477">
        <ele>1214</ele>
        <time>2013-09-15T11:49:46.000Z</time>
      </trkpt>
      <trkpt lat="44.98996" lon="5.59477">
        <ele>1214</ele>
        <time>2013-09-15T11:49:46.000Z</time>
      </trkpt>
      <trkpt lat="44.98996" lon="5.59477">
        <ele>1214</ele>
        <time>2013-09-15T11:49:49.000Z</time>
      </trkpt>
      <trkpt lat="44.9899" lon="5.59479">
        <ele>1214</ele>
        <time>2013-09-15T11:50:06.000Z</time>
      </trkpt>
      <trkpt lat="44.9899" lon="5.59479">
        <ele>1214</ele>
        <time>2013-09-15T11:50:06.000Z</time>
      </trkpt>
      <trkpt lat="44.9899" lon="5.59479">
        <ele>1213</ele>
        <time>2013-09-15T11:50:21.000Z</time>
      </trkpt>
      <trkpt lat="44.98992" lon="5.59472">
        <ele>1212</ele>
        <time>2013-09-15T11:50:34.000Z</time>
      </trkpt>
      <trkpt lat="44.98992" lon="5.59472">
        <ele>1212</ele>
        <time>2013-09-15T11:50:34.000Z</time>
      </trkpt>
      <trkpt lat="44.98992" lon="5.59472">
        <ele>1212</ele>
        <time>2013-09-15T11:50:36.000Z</time>
      </trkpt>
      <trkpt lat="44.98995" lon="5.59466">
        <ele>1212</ele>
        <time>2013-09-15T11:50:43.000Z</time>
      </trkpt>
      <trkpt lat="44.99" lon="5.59466">
        <ele>1210</ele>
        <time>2013-09-15T11:51:07.000Z</time>
      </trkpt>
      <trkpt lat="44.99004" lon="5.59468">
        <ele>1208</ele>
        <time>2013-09-15T11:51:35.000Z</time>
      </trkpt>
      <trkpt lat="44.99004" lon="5.59468">
        <ele>1208</ele>
        <time>2013-09-15T11:51:35.000Z</time>
      </trkpt>
      <trkpt lat="44.99004" lon="5.59468">
        <ele>1208</ele>
        <time>2013-09-15T11:51:37.000Z</time>
      </trkpt>
      <trkpt lat="44.98999" lon="5.59466">
        <ele>1206</ele>
        <time>2013-09-15T11:51:52.000Z</time>
      </trkpt>
      <trkpt lat="44.98995" lon="5.59462">
        <ele>1205</ele>
        <time>2013-09-15T11:52:07.000Z</time>
      </trkpt>
      <trkpt lat="44.98995" lon="5.59462">
        <ele>1205</ele>
        <time>2013-09-15T11:52:07.000Z</time>
      </trkpt>
      <trkpt lat="44.98995" lon="5.59462">
        <ele>1204</ele>
        <time>2013-09-15T11:52:08.000Z</time>
      </trkpt>
      <trkpt lat="44.9899" lon="5.59464">
        <ele>1201</ele>
        <time>2013-09-15T11:52:44.000Z</time>
      </trkpt>
      <trkpt lat="44.9899" lon="5.59464">
        <ele>1201</ele>
        <time>2013-09-15T11:52:44.000Z</time>
      </trkpt>
      <trkpt lat="44.9899" lon="5.59464">
        <ele>1200</ele>
        <time>2013-09-15T11:52:59.000Z</time>
      </trkpt>
      <trkpt lat="44.98995" lon="5.59466">
        <ele>1199</ele>
        <time>2013-09-15T11:53:16.000Z</time>
      </trkpt>
      <trkpt lat="44.98995" lon="5.59466">
        <ele>1199</ele>
        <time>2013-09-15T11:53:16.000Z</time>
      </trkpt>
      <trkpt lat="44.98995" lon="5.59466">
        <ele>1199</ele>
        <time>2013-09-15T11:53:18.000Z</time>
      </trkpt>
      <trkpt lat="44.98999" lon="5.59464">
        <ele>1198</ele>
        <time>2013-09-15T11:53:27.000Z</time>
      </trkpt>
      <trkpt lat="44.98999" lon="5.59464">
        <ele>1198</ele>
        <time>2013-09-15T11:53:27.000Z</time>
      </trkpt>
      <trkpt lat="44.98999" lon="5.59464">
        <ele>1198</ele>
        <time>2013-09-15T11:53:28.000Z</time>
      </trkpt>
      <trkpt lat="44.99003" lon="5.59462">
        <ele>1198</ele>
        <time>2013-09-15T11:53:40.000Z</time>
      </trkpt>
      <trkpt lat="44.99003" lon="5.59462">
        <ele>1198</ele>
        <time>2013-09-15T11:53:40.000Z</time>
      </trkpt>
      <trkpt lat="44.99003" lon="5.59462">
        <ele>1198</ele>
        <time>2013-09-15T11:53:42.000Z</time>
      </trkpt>
      <trkpt lat="44.99008" lon="5.59459">
        <ele>1198</ele>
        <time>2013-09-15T11:53:48.000Z</time>
      </trkpt>
      <trkpt lat="44.99012" lon="5.59457">
        <ele>1198</ele>
        <time>2013-09-15T11:53:54.000Z</time>
      </trkpt>
      <trkpt lat="44.99016" lon="5.59455">
        <ele>1198</ele>
        <time>2013-09-15T11:54:01.000Z</time>
      </trkpt>
      <trkpt lat="44.99016" lon="5.59455">
        <ele>1198</ele>
        <time>2013-09-15T11:54:01.000Z</time>
      </trkpt>
      <trkpt lat="44.99016" lon="5.59455">
        <ele>1198</ele>
        <time>2013-09-15T11:54:03.000Z</time>
      </trkpt>
      <trkpt lat="44.9902" lon="5.59453">
        <ele>1199</ele>
        <time>2013-09-15T11:54:20.000Z</time>
      </trkpt>
      <trkpt lat="44.99016" lon="5.59457">
        <ele>1200</ele>
        <time>2013-09-15T11:54:42.000Z</time>
      </trkpt>
      <trkpt lat="44.99016" lon="5.59457">
        <ele>1200</ele>
        <time>2013-09-15T11:54:42.000Z</time>
      </trkpt>
      <trkpt lat="44.99016" lon="5.59457">
        <ele>1200</ele>
        <time>2013-09-15T11:54:43.000Z</time>
      </trkpt>
      <trkpt lat="44.99011" lon="5.59459">
        <ele>1200</ele>
        <time>2013-09-15T11:54:56.000Z</time>
      </trkpt>
      <trkpt lat="44.99011" lon="5.59459">
        <ele>1200</ele>
        <time>2013-09-15T11:54:56.000Z</time>
      </trkpt>
      <trkpt lat="44.99011" lon="5.59459">
        <ele>1201</ele>
        <time>2013-09-15T11:54:59.000Z</time>
      </trkpt>
      <trkpt lat="44.99008" lon="5.59466">
        <ele>1202</ele>
        <time>2013-09-15T11:55:33.000Z</time>
      </trkpt>
      <trkpt lat="44.99008" lon="5.59466">
        <ele>1202</ele>
        <time>2013-09-15T11:55:33.000Z</time>
      </trkpt>
      <trkpt lat="44.99008" lon="5.59466">
        <ele>1202</ele>
        <time>2013-09-15T11:55:37.000Z</time>
      </trkpt>
      <trkpt lat="44.99008" lon="5.59459">
        <ele>1204</ele>
        <time>2013-09-15T11:56:24.000Z</time>
      </trkpt>
      <trkpt lat="44.99008" lon="5.59459">
        <ele>1204</ele>
        <time>2013-09-15T11:56:24.000Z</time>
      </trkpt>
      <trkpt lat="44.99008" lon="5.59459">
        <ele>1204</ele>
        <time>2013-09-15T11:56:28.000Z</time>
      </trkpt>
      <trkpt lat="44.99012" lon="5.59455">
        <ele>1205</ele>
        <time>2013-09-15T11:56:51.000Z</time>
      </trkpt>
      <trkpt lat="44.99012" lon="5.59455">
        <ele>1205</ele>
        <time>2013-09-15T11:56:51.000Z</time>
      </trkpt>
      <trkpt lat="44.99012" lon="5.59455">
        <ele>1205</ele>
        <time>2013-09-15T11:57:01.000Z</time>
      </trkpt>
      <trkpt lat="44.99008" lon="5.59462">
        <ele>1204</ele>
        <time>2013-09-15T11:57:12.000Z</time>
      </trkpt>
      <trkpt lat="44.99008" lon="5.59462">
        <ele>1204</ele>
        <time>2013-09-15T11:57:12.000Z</time>
      </trkpt>
      <trkpt lat="44.99008" lon="5.59462">
        <ele>1204</ele>
        <time>2013-09-15T11:57:14.000Z</time>
      </trkpt>
      <trkpt lat="44.99004" lon="5.59468">
        <ele>1203</ele>
        <time>2013-09-15T11:57:23.000Z</time>
      </trkpt>
      <trkpt lat="44.99004" lon="5.59468">
        <ele>1203</ele>
        <time>2013-09-15T11:57:23.000Z</time>
      </trkpt>
      <trkpt lat="44.99004" lon="5.59468">
        <ele>1203</ele>
        <time>2013-09-15T11:57:24.000Z</time>
      </trkpt>
      <trkpt lat="44.99" lon="5.5947">
        <ele>1203</ele>
        <time>2013-09-15T11:57:32.000Z</time>
      </trkpt>
      <trkpt lat="44.99" lon="5.5947">
        <ele>1203</ele>
        <time>2013-09-15T11:57:32.000Z</time>
      </trkpt>
      <trkpt lat="44.99" lon="5.5947">
        <ele>1203</ele>
        <time>2013-09-15T11:57:33.000Z</time>
      </trkpt>
      <trkpt lat="44.98998" lon="5.59464">
        <ele>1202</ele>
        <time>2013-09-15T11:57:55.000Z</time>
      </trkpt>
      <trkpt lat="44.98998" lon="5.59464">
        <ele>1202</ele>
        <time>2013-09-15T11:57:55.000Z</time>
      </trkpt>
      <trkpt lat="44.98998" lon="5.59464">
        <ele>1202</ele>
        <time>2013-09-15T11:57:59.000Z</time>
      </trkpt>
      <trkpt lat="44.99002" lon="5.59466">
        <ele>1202</ele>
        <time>2013-09-15T11:58:13.000Z</time>
      </trkpt>
      <trkpt lat="44.99002" lon="5.59466">
        <ele>1202</ele>
        <time>2013-09-15T11:58:13.000Z</time>
      </trkpt>
      <trkpt lat="44.99002" lon="5.59466">
        <ele>1202</ele>
        <time>2013-09-15T11:58:15.000Z</time>
      </trkpt>
      <trkpt lat="44.99006" lon="5.59464">
        <ele>1202</ele>
        <time>2013-09-15T11:58:23.000Z</time>
      </trkpt>
      <trkpt lat="44.99006" lon="5.59464">
        <ele>1202</ele>
        <time>2013-09-15T11:58:23.000Z</time>
      </trkpt>
      <trkpt lat="44.99006" lon="5.59464">
        <ele>1202</ele>
        <time>2013-09-15T11:58:24.000Z</time>
      </trkpt>
      <trkpt lat="44.99009" lon="5.59457">
        <ele>1202</ele>
        <time>2013-09-15T11:58:34.000Z</time>
      </trkpt>
      <trkpt lat="44.99009" lon="5.59457">
        <ele>1202</ele>
        <time>2013-09-15T11:58:34.000Z</time>
      </trkpt>
      <trkpt lat="44.99009" lon="5.59457">
        <ele>1202</ele>
        <time>2013-09-15T11:58:36.000Z</time>
      </trkpt>
      <trkpt lat="44.9901" lon="5.59451">
        <ele>1202</ele>
        <time>2013-09-15T11:58:43.000Z</time>
      </trkpt>
      <trkpt lat="44.9901" lon="5.59451">
        <ele>1202</ele>
        <time>2013-09-15T11:58:43.000Z</time>
      </trkpt>
      <trkpt lat="44.9901" lon="5.59451">
        <ele>1202</ele>
        <time>2013-09-15T11:58:46.000Z</time>
      </trkpt>
      <trkpt lat="44.99012" lon="5.59444">
        <ele>1203</ele>
        <time>2013-09-15T11:59:05.000Z</time>
      </trkpt>
      <trkpt lat="44.99008" lon="5.59449">
        <ele>1204</ele>
        <time>2013-09-15T11:59:29.000Z</time>
      </trkpt>
      <trkpt lat="44.99008" lon="5.59449">
        <ele>1204</ele>
        <time>2013-09-15T11:59:29.000Z</time>
      </trkpt>
      <trkpt lat="44.99008" lon="5.59449">
        <ele>1204</ele>
        <time>2013-09-15T11:59:30.000Z</time>
      </trkpt>
      <trkpt lat="44.99004" lon="5.59455">
        <ele>1203</ele>
        <time>2013-09-15T11:59:38.000Z</time>
      </trkpt>
      <trkpt lat="44.99" lon="5.59462">
        <ele>1203</ele>
        <time>2013-09-15T11:59:48.000Z</time>
      </trkpt>
      <trkpt lat="44.99" lon="5.59462">
        <ele>1203</ele>
        <time>2013-09-15T11:59:48.000Z</time>
      </trkpt>
      <trkpt lat="44.99" lon="5.59462">
        <ele>1203</ele>
        <time>2013-09-15T11:59:52.000Z</time>
      </trkpt>
      <trkpt lat="44.99" lon="5.59468">
        <ele>1203</ele>
        <time>2013-09-15T12:00:04.000Z</time>
      </trkpt>
      <trkpt lat="44.99" lon="5.59468">
        <ele>1203</ele>
        <time>2013-09-15T12:00:04.000Z</time>
      </trkpt>
      <trkpt lat="44.99" lon="5.59468">
        <ele>1203</ele>
        <time>2013-09-15T12:00:10.000Z</time>
      </trkpt>
      <trkpt lat="44.99001" lon="5.59462">
        <ele>1203</ele>
        <time>2013-09-15T12:00:28.000Z</time>
      </trkpt>
      <trkpt lat="44.99001" lon="5.59462">
        <ele>1203</ele>
        <time>2013-09-15T12:00:28.000Z</time>
      </trkpt>
      <trkpt lat="44.99001" lon="5.59462">
        <ele>1203</ele>
        <time>2013-09-15T12:00:34.000Z</time>
      </trkpt>
      <trkpt lat="44.99006" lon="5.59462">
        <ele>1202</ele>
        <time>2013-09-15T12:01:03.000Z</time>
      </trkpt>
      <trkpt lat="44.99006" lon="5.59462">
        <ele>1202</ele>
        <time>2013-09-15T12:01:03.000Z</time>
      </trkpt>
      <trkpt lat="44.99006" lon="5.59462">
        <ele>1202</ele>
        <time>2013-09-15T12:01:04.000Z</time>
      </trkpt>
      <trkpt lat="44.99011" lon="5.59459">
        <ele>1203</ele>
        <time>2013-09-15T12:01:12.000Z</time>
      </trkpt>
      <trkpt lat="44.99011" lon="5.59459">
        <ele>1203</ele>
        <time>2013-09-15T12:01:12.000Z</time>
      </trkpt>
      <trkpt lat="44.99011" lon="5.59459">
        <ele>1203</ele>
        <time>2013-09-15T12:01:45.000Z</time>
      </trkpt>
      <trkpt lat="44.99009" lon="5.59466">
        <ele>1203</ele>
        <time>2013-09-15T12:01:54.000Z</time>
      </trkpt>
      <trkpt lat="44.99004" lon="5.5947">
        <ele>1203</ele>
        <time>2013-09-15T12:02:02.000Z</time>
      </trkpt>
      <trkpt lat="44.99004" lon="5.5947">
        <ele>1203</ele>
        <time>2013-09-15T12:02:02.000Z</time>
      </trkpt>
      <trkpt lat="44.99004" lon="5.5947">
        <ele>1203</ele>
        <time>2013-09-15T12:02:04.000Z</time>
      </trkpt>
      <trkpt lat="44.99" lon="5.59472">
        <ele>1203</ele>
        <time>2013-09-15T12:02:14.000Z</time>
      </trkpt>
      <trkpt lat="44.99" lon="5.59472">
        <ele>1203</ele>
        <time>2013-09-15T12:02:14.000Z</time>
      </trkpt>
      <trkpt lat="44.99" lon="5.59472">
        <ele>1203</ele>
        <time>2013-09-15T12:02:16.000Z</time>
      </trkpt>
      <trkpt lat="44.98999" lon="5.59479">
        <ele>1203</ele>
        <time>2013-09-15T12:02:30.000Z</time>
      </trkpt>
      <trkpt lat="44.98999" lon="5.59479">
        <ele>1203</ele>
        <time>2013-09-15T12:02:30.000Z</time>
      </trkpt>
      <trkpt lat="44.98999" lon="5.59479">
        <ele>1203</ele>
        <time>2013-09-15T12:02:42.000Z</time>
      </trkpt>
      <trkpt lat="44.99002" lon="5.59472">
        <ele>1202</ele>
        <time>2013-09-15T12:02:53.000Z</time>
      </trkpt>
      <trkpt lat="44.99006" lon="5.59468">
        <ele>1202</ele>
        <time>2013-09-15T12:02:57.000Z</time>
      </trkpt>
      <trkpt lat="44.99011" lon="5.59462">
        <ele>1202</ele>
        <time>2013-09-15T12:03:02.000Z</time>
      </trkpt>
      <trkpt lat="44.99011" lon="5.59462">
        <ele>1202</ele>
        <time>2013-09-15T12:03:02.000Z</time>
      </trkpt>
      <trkpt lat="44.99011" lon="5.59462">
        <ele>1202</ele>
        <time>2013-09-15T12:03:03.000Z</time>
      </trkpt>
      <trkpt lat="44.99015" lon="5.59457">
        <ele>1202</ele>
        <time>2013-09-15T12:03:10.000Z</time>
      </trkpt>
      <trkpt lat="44.99015" lon="5.59457">
        <ele>1202</ele>
        <time>2013-09-15T12:03:10.000Z</time>
      </trkpt>
      <trkpt lat="44.99015" lon="5.59457">
        <ele>1202</ele>
        <time>2013-09-15T12:03:12.000Z</time>
      </trkpt>
      <trkpt lat="44.99015" lon="5.59451">
        <ele>1201</ele>
        <time>2013-09-15T12:03:19.000Z</time>
      </trkpt>
      <trkpt lat="44.99015" lon="5.59451">
        <ele>1201</ele>
        <time>2013-09-15T12:03:19.000Z</time>
      </trkpt>
      <trkpt lat="44.99015" lon="5.59451">
        <ele>1201</ele>
        <time>2013-09-15T12:03:20.000Z</time>
      </trkpt>
      <trkpt lat="44.99017" lon="5.59444">
        <ele>1199</ele>
        <time>2013-09-15T12:04:19.000Z</time>
      </trkpt>
      <trkpt lat="44.99017" lon="5.59444">
        <ele>1199</ele>
        <time>2013-09-15T12:04:19.000Z</time>
      </trkpt>
      <trkpt lat="44.99017" lon="5.59444">
        <ele>1199</ele>
        <time>2013-09-15T12:04:21.000Z</time>
      </trkpt>
      <trkpt lat="44.99013" lon="5.59449">
        <ele>1199</ele>
        <time>2013-09-15T12:04:41.000Z</time>
      </trkpt>
      <trkpt lat="44.99013" lon="5.59449">
        <ele>1199</ele>
        <time>2013-09-15T12:04:41.000Z</time>
      </trkpt>
      <trkpt lat="44.99013" lon="5.59449">
        <ele>1199</ele>
        <time>2013-09-15T12:04:42.000Z</time>
      </trkpt>
      <trkpt lat="44.99011" lon="5.59455">
        <ele>1198</ele>
        <time>2013-09-15T12:04:51.000Z</time>
      </trkpt>
      <trkpt lat="44.99011" lon="5.59455">
        <ele>1198</ele>
        <time>2013-09-15T12:04:51.000Z</time>
      </trkpt>
      <trkpt lat="44.99011" lon="5.59455">
        <ele>1199</ele>
        <time>2013-09-15T12:05:26.000Z</time>
      </trkpt>
      <trkpt lat="44.9901" lon="5.59462">
        <ele>1199</ele>
        <time>2013-09-15T12:05:30.000Z</time>
      </trkpt>
      <trkpt lat="44.9901" lon="5.59462">
        <ele>1199</ele>
        <time>2013-09-15T12:05:30.000Z</time>
      </trkpt>
      <trkpt lat="44.9901" lon="5.59462">
        <ele>1199</ele>
        <time>2013-09-15T12:05:31.000Z</time>
      </trkpt>
      <trkpt lat="44.99009" lon="5.59468">
        <ele>1199</ele>
        <time>2013-09-15T12:05:40.000Z</time>
      </trkpt>
      <trkpt lat="44.99009" lon="5.59468">
        <ele>1199</ele>
        <time>2013-09-15T12:05:40.000Z</time>
      </trkpt>
      <trkpt lat="44.99009" lon="5.59468">
        <ele>1199</ele>
        <time>2013-09-15T12:05:44.000Z</time>
      </trkpt>
      <trkpt lat="44.99006" lon="5.59474">
        <ele>1199</ele>
        <time>2013-09-15T12:06:01.000Z</time>
      </trkpt>
      <trkpt lat="44.99006" lon="5.59474">
        <ele>1199</ele>
        <time>2013-09-15T12:06:01.000Z</time>
      </trkpt>
      <trkpt lat="44.99006" lon="5.59474">
        <ele>1199</ele>
        <time>2013-09-15T12:06:07.000Z</time>
      </trkpt>
      <trkpt lat="44.99005" lon="5.59468">
        <ele>1199</ele>
        <time>2013-09-15T12:07:20.000Z</time>
      </trkpt>
      <trkpt lat="44.99005" lon="5.59468">
        <ele>1199</ele>
        <time>2013-09-15T12:07:20.000Z</time>
      </trkpt>
      <trkpt lat="44.99005" lon="5.59468">
        <ele>1199</ele>
        <time>2013-09-15T12:07:23.000Z</time>
      </trkpt>
      <trkpt lat="44.99009" lon="5.59462">
        <ele>1198</ele>
        <time>2013-09-15T12:07:40.000Z</time>
      </trkpt>
      <trkpt lat="44.99009" lon="5.59462">
        <ele>1198</ele>
        <time>2013-09-15T12:07:40.000Z</time>
      </trkpt>
      <trkpt lat="44.99009" lon="5.59462">
        <ele>1196</ele>
        <time>2013-09-15T12:08:01.000Z</time>
      </trkpt>
      <trkpt lat="44.99004" lon="5.59466">
        <ele>1195</ele>
        <time>2013-09-15T12:08:13.000Z</time>
      </trkpt>
      <trkpt lat="44.99004" lon="5.59466">
        <ele>1195</ele>
        <time>2013-09-15T12:08:13.000Z</time>
      </trkpt>
      <trkpt lat="44.99004" lon="5.59466">
        <ele>1195</ele>
        <time>2013-09-15T12:08:14.000Z</time>
      </trkpt>
      <trkpt lat="44.99004" lon="5.59459">
        <ele>1194</ele>
        <time>2013-09-15T12:08:45.000Z</time>
      </trkpt>
      <trkpt lat="44.99004" lon="5.59459">
        <ele>1194</ele>
        <time>2013-09-15T12:08:45.000Z</time>
      </trkpt>
      <trkpt lat="44.99004" lon="5.59459">
        <ele>1194</ele>
        <time>2013-09-15T12:08:47.000Z</time>
      </trkpt>
      <trkpt lat="44.99009" lon="5.59457">
        <ele>1194</ele>
        <time>2013-09-15T12:08:54.000Z</time>
      </trkpt>
      <trkpt lat="44.99009" lon="5.59457">
        <ele>1194</ele>
        <time>2013-09-15T12:08:54.000Z</time>
      </trkpt>
      <trkpt lat="44.99009" lon="5.59457">
        <ele>1194</ele>
        <time>2013-09-15T12:08:56.000Z</time>
      </trkpt>
      <trkpt lat="44.99013" lon="5.59459">
        <ele>1192</ele>
        <time>2013-09-15T12:11:14.000Z</time>
      </trkpt>
      <trkpt lat="44.99013" lon="5.59459">
        <ele>1192</ele>
        <time>2013-09-15T12:11:14.000Z</time>
      </trkpt>
      <trkpt lat="44.99013" lon="5.59459">
        <ele>1192</ele>
        <time>2013-09-15T12:11:21.000Z</time>
      </trkpt>
      <trkpt lat="44.99008" lon="5.59462">
        <ele>1192</ele>
        <time>2013-09-15T12:11:33.000Z</time>
      </trkpt>
      <trkpt lat="44.99008" lon="5.59462">
        <ele>1192</ele>
        <time>2013-09-15T12:11:33.000Z</time>
      </trkpt>
      <trkpt lat="44.99008" lon="5.59462">
        <ele>1194</ele>
        <time>2013-09-15T12:12:31.000Z</time>
      </trkpt>
      <trkpt lat="44.99012" lon="5.59459">
        <ele>1194</ele>
        <time>2013-09-15T12:12:38.000Z</time>
      </trkpt>
      <trkpt lat="44.99012" lon="5.59459">
        <ele>1194</ele>
        <time>2013-09-15T12:12:38.000Z</time>
      </trkpt>
      <trkpt lat="44.99012" lon="5.59459">
        <ele>1194</ele>
        <time>2013-09-15T12:12:41.000Z</time>
      </trkpt>
      <trkpt lat="44.99012" lon="5.59466">
        <ele>1195</ele>
        <time>2013-09-15T12:12:56.000Z</time>
      </trkpt>
      <trkpt lat="44.99012" lon="5.59466">
        <ele>1195</ele>
        <time>2013-09-15T12:12:56.000Z</time>
      </trkpt>
      <trkpt lat="44.99012" lon="5.59466">
        <ele>1197</ele>
        <time>2013-09-15T12:14:19.000Z</time>
      </trkpt>
      <trkpt lat="44.99015" lon="5.59472">
        <ele>1197</ele>
        <time>2013-09-15T12:14:23.000Z</time>
      </trkpt>
      <trkpt lat="44.99019" lon="5.59477">
        <ele>1198</ele>
        <time>2013-09-15T12:14:29.000Z</time>
      </trkpt>
      <trkpt lat="44.99023" lon="5.59485">
        <ele>1199</ele>
        <time>2013-09-15T12:14:31.000Z</time>
      </trkpt>
      <trkpt lat="44.99025" lon="5.59492">
        <ele>1200</ele>
        <time>2013-09-15T12:14:32.000Z</time>
      </trkpt>
      <trkpt lat="44.99028" lon="5.59498">
        <ele>1200</ele>
        <time>2013-09-15T12:14:34.000Z</time>
      </trkpt>
      <trkpt lat="44.99031" lon="5.59502">
        <ele>1201</ele>
        <time>2013-09-15T12:14:35.000Z</time>
      </trkpt>
      <trkpt lat="44.99036" lon="5.59507">
        <ele>1201</ele>
        <time>2013-09-15T12:14:37.000Z</time>
      </trkpt>
      <trkpt lat="44.99044" lon="5.59509">
        <ele>1202</ele>
        <time>2013-09-15T12:14:39.000Z</time>
      </trkpt>
      <trkpt lat="44.9905" lon="5.59513">
        <ele>1203</ele>
        <time>2013-09-15T12:14:41.000Z</time>
      </trkpt>
      <trkpt lat="44.99057" lon="5.59517">
        <ele>1203</ele>
        <time>2013-09-15T12:14:43.000Z</time>
      </trkpt>
      <trkpt lat="44.99063" lon="5.59522">
        <ele>1203</ele>
        <time>2013-09-15T12:14:45.000Z</time>
      </trkpt>
      <trkpt lat="44.9907" lon="5.59524">
        <ele>1203</ele>
        <time>2013-09-15T12:14:47.000Z</time>
      </trkpt>
      <trkpt lat="44.99076" lon="5.59528">
        <ele>1203</ele>
        <time>2013-09-15T12:14:49.000Z</time>
      </trkpt>
      <trkpt lat="44.99082" lon="5.59532">
        <ele>1203</ele>
        <time>2013-09-15T12:14:51.000Z</time>
      </trkpt>
      <trkpt lat="44.99088" lon="5.59537">
        <ele>1204</ele>
        <time>2013-09-15T12:14:53.000Z</time>
      </trkpt>
      <trkpt lat="44.99094" lon="5.59541">
        <ele>1204</ele>
        <time>2013-09-15T12:14:55.000Z</time>
      </trkpt>
      <trkpt lat="44.99101" lon="5.59543">
        <ele>1204</ele>
        <time>2013-09-15T12:14:57.000Z</time>
      </trkpt>
      <trkpt lat="44.99108" lon="5.59545">
        <ele>1204</ele>
        <time>2013-09-15T12:14:59.000Z</time>
      </trkpt>
      <trkpt lat="44.99116" lon="5.5955">
        <ele>1205</ele>
        <time>2013-09-15T12:15:01.000Z</time>
      </trkpt>
      <trkpt lat="44.99124" lon="5.59552">
        <ele>1207</ele>
        <time>2013-09-15T12:15:03.000Z</time>
      </trkpt>
      <trkpt lat="44.99133" lon="5.59552">
        <ele>1208</ele>
        <time>2013-09-15T12:15:05.000Z</time>
      </trkpt>
      <trkpt lat="44.9914" lon="5.59552">
        <ele>1208</ele>
        <time>2013-09-15T12:15:07.000Z</time>
      </trkpt>
      <trkpt lat="44.99146" lon="5.5955">
        <ele>1208</ele>
        <time>2013-09-15T12:15:09.000Z</time>
      </trkpt>
      <trkpt lat="44.99152" lon="5.59545">
        <ele>1208</ele>
        <time>2013-09-15T12:15:11.000Z</time>
      </trkpt>
      <trkpt lat="44.9916" lon="5.59541">
        <ele>1208</ele>
        <time>2013-09-15T12:15:13.000Z</time>
      </trkpt>
      <trkpt lat="44.99165" lon="5.59539">
        <ele>1209</ele>
        <time>2013-09-15T12:15:15.000Z</time>
      </trkpt>
      <trkpt lat="44.99171" lon="5.59537">
        <ele>1209</ele>
        <time>2013-09-15T12:15:17.000Z</time>
      </trkpt>
      <trkpt lat="44.99171" lon="5.59537">
        <ele>1209</ele>
        <time>2013-09-15T12:15:17.000Z</time>
      </trkpt>
      <trkpt lat="44.99171" lon="5.59537">
        <ele>1209</ele>
        <time>2013-09-15T12:15:26.000Z</time>
      </trkpt>
      <trkpt lat="44.99176" lon="5.59534">
        <ele>1209</ele>
        <time>2013-09-15T12:15:27.000Z</time>
      </trkpt>
      <trkpt lat="44.99176" lon="5.59534">
        <ele>1209</ele>
        <time>2013-09-15T12:15:27.000Z</time>
      </trkpt>
      <trkpt lat="44.99176" lon="5.59534">
        <ele>1209</ele>
        <time>2013-09-15T12:15:29.000Z</time>
      </trkpt>
      <trkpt lat="44.99181" lon="5.5953">
        <ele>1209</ele>
        <time>2013-09-15T12:15:30.000Z</time>
      </trkpt>
      <trkpt lat="44.99181" lon="5.5953">
        <ele>1209</ele>
        <time>2013-09-15T12:15:30.000Z</time>
      </trkpt>
      <trkpt lat="44.99181" lon="5.5953">
        <ele>1209</ele>
        <time>2013-09-15T12:15:41.000Z</time>
      </trkpt>
      <trkpt lat="44.99187" lon="5.59528">
        <ele>1209</ele>
        <time>2013-09-15T12:15:42.000Z</time>
      </trkpt>
      <trkpt lat="44.99187" lon="5.59528">
        <ele>1209</ele>
        <time>2013-09-15T12:15:42.000Z</time>
      </trkpt>
      <trkpt lat="44.99187" lon="5.59528">
        <ele>1209</ele>
        <time>2013-09-15T12:15:52.000Z</time>
      </trkpt>
      <trkpt lat="44.99197" lon="5.59524">
        <ele>1209</ele>
        <time>2013-09-15T12:15:53.000Z</time>
      </trkpt>
      <trkpt lat="44.99202" lon="5.59522">
        <ele>1209</ele>
        <time>2013-09-15T12:15:54.000Z</time>
      </trkpt>
      <trkpt lat="44.99208" lon="5.59517">
        <ele>1209</ele>
        <time>2013-09-15T12:15:56.000Z</time>
      </trkpt>
      <trkpt lat="44.99214" lon="5.59511">
        <ele>1210</ele>
        <time>2013-09-15T12:15:58.000Z</time>
      </trkpt>
      <trkpt lat="44.99224" lon="5.595">
        <ele>1210</ele>
        <time>2013-09-15T12:16:04.000Z</time>
      </trkpt>
      <trkpt lat="44.99224" lon="5.595">
        <ele>1210</ele>
        <time>2013-09-15T12:16:04.000Z</time>
      </trkpt>
      <trkpt lat="44.99224" lon="5.595">
        <ele>1210</ele>
        <time>2013-09-15T12:16:08.000Z</time>
      </trkpt>
      <trkpt lat="44.99233" lon="5.59494">
        <ele>1211</ele>
        <time>2013-09-15T12:16:09.000Z</time>
      </trkpt>
      <trkpt lat="44.99233" lon="5.59494">
        <ele>1211</ele>
        <time>2013-09-15T12:16:09.000Z</time>
      </trkpt>
      <trkpt lat="44.99233" lon="5.59494">
        <ele>1211</ele>
        <time>2013-09-15T12:16:11.000Z</time>
      </trkpt>
      <trkpt lat="44.99239" lon="5.59487">
        <ele>1211</ele>
        <time>2013-09-15T12:16:12.000Z</time>
      </trkpt>
      <trkpt lat="44.99246" lon="5.59481">
        <ele>1211</ele>
        <time>2013-09-15T12:16:14.000Z</time>
      </trkpt>
      <trkpt lat="44.99252" lon="5.59477">
        <ele>1211</ele>
        <time>2013-09-15T12:16:16.000Z</time>
      </trkpt>
      <trkpt lat="44.99258" lon="5.59474">
        <ele>1212</ele>
        <time>2013-09-15T12:16:17.000Z</time>
      </trkpt>
      <trkpt lat="44.99262" lon="5.59472">
        <ele>1213</ele>
        <time>2013-09-15T12:16:18.000Z</time>
      </trkpt>
      <trkpt lat="44.99267" lon="5.59472">
        <ele>1214</ele>
        <time>2013-09-15T12:16:19.000Z</time>
      </trkpt>
      <trkpt lat="44.99274" lon="5.59472">
        <ele>1214</ele>
        <time>2013-09-15T12:16:20.000Z</time>
      </trkpt>
      <trkpt lat="44.99279" lon="5.59472">
        <ele>1214</ele>
        <time>2013-09-15T12:16:21.000Z</time>
      </trkpt>
      <trkpt lat="44.99284" lon="5.59472">
        <ele>1214</ele>
        <time>2013-09-15T12:16:22.000Z</time>
      </trkpt>
      <trkpt lat="44.9929" lon="5.59472">
        <ele>1214</ele>
        <time>2013-09-15T12:16:23.000Z</time>
      </trkpt>
      <trkpt lat="44.99295" lon="5.59472">
        <ele>1214</ele>
        <time>2013-09-15T12:16:24.000Z</time>
      </trkpt>
      <trkpt lat="44.99304" lon="5.59472">
        <ele>1214</ele>
        <time>2013-09-15T12:16:26.000Z</time>
      </trkpt>
      <trkpt lat="44.99309" lon="5.59472">
        <ele>1213</ele>
        <time>2013-09-15T12:16:27.000Z</time>
      </trkpt>
      <trkpt lat="44.99318" lon="5.59472">
        <ele>1213</ele>
        <time>2013-09-15T12:16:29.000Z</time>
      </trkpt>
      <trkpt lat="44.99326" lon="5.59472">
        <ele>1213</ele>
        <time>2013-09-15T12:16:31.000Z</time>
      </trkpt>
      <trkpt lat="44.99335" lon="5.59472">
        <ele>1214</ele>
        <time>2013-09-15T12:16:33.000Z</time>
      </trkpt>
      <trkpt lat="44.99343" lon="5.59472">
        <ele>1215</ele>
        <time>2013-09-15T12:16:35.000Z</time>
      </trkpt>
      <trkpt lat="44.99351" lon="5.59472">
        <ele>1215</ele>
        <time>2013-09-15T12:16:37.000Z</time>
      </trkpt>
      <trkpt lat="44.99359" lon="5.59472">
        <ele>1216</ele>
        <time>2013-09-15T12:16:39.000Z</time>
      </trkpt>
      <trkpt lat="44.99367" lon="5.59472">
        <ele>1216</ele>
        <time>2013-09-15T12:16:41.000Z</time>
      </trkpt>
      <trkpt lat="44.99371" lon="5.5947">
        <ele>1216</ele>
        <time>2013-09-15T12:16:42.000Z</time>
      </trkpt>
      <trkpt lat="44.99378" lon="5.5947">
        <ele>1215</ele>
        <time>2013-09-15T12:16:44.000Z</time>
      </trkpt>
      <trkpt lat="44.99384" lon="5.59468">
        <ele>1215</ele>
        <time>2013-09-15T12:16:46.000Z</time>
      </trkpt>
      <trkpt lat="44.99391" lon="5.59468">
        <ele>1215</ele>
        <time>2013-09-15T12:16:48.000Z</time>
      </trkpt>
      <trkpt lat="44.99396" lon="5.59464">
        <ele>1215</ele>
        <time>2013-09-15T12:16:50.000Z</time>
      </trkpt>
      <trkpt lat="44.99402" lon="5.59462">
        <ele>1215</ele>
        <time>2013-09-15T12:16:52.000Z</time>
      </trkpt>
      <trkpt lat="44.99408" lon="5.59459">
        <ele>1215</ele>
        <time>2013-09-15T12:16:54.000Z</time>
      </trkpt>
      <trkpt lat="44.99412" lon="5.59455">
        <ele>1215</ele>
        <time>2013-09-15T12:16:56.000Z</time>
      </trkpt>
      <trkpt lat="44.99416" lon="5.59453">
        <ele>1215</ele>
        <time>2013-09-15T12:16:58.000Z</time>
      </trkpt>
      <trkpt lat="44.99422" lon="5.59449">
        <ele>1215</ele>
        <time>2013-09-15T12:17:00.000Z</time>
      </trkpt>
      <trkpt lat="44.99426" lon="5.59446">
        <ele>1215</ele>
        <time>2013-09-15T12:17:02.000Z</time>
      </trkpt>
      <trkpt lat="44.99431" lon="5.59444">
        <ele>1215</ele>
        <time>2013-09-15T12:17:04.000Z</time>
      </trkpt>
      <trkpt lat="44.99436" lon="5.59442">
        <ele>1215</ele>
        <time>2013-09-15T12:17:06.000Z</time>
      </trkpt>
      <trkpt lat="44.99441" lon="5.5944">
        <ele>1215</ele>
        <time>2013-09-15T12:17:08.000Z</time>
      </trkpt>
      <trkpt lat="44.99445" lon="5.59438">
        <ele>1215</ele>
        <time>2013-09-15T12:17:10.000Z</time>
      </trkpt>
      <trkpt lat="44.9945" lon="5.59436">
        <ele>1215</ele>
        <time>2013-09-15T12:17:12.000Z</time>
      </trkpt>
      <trkpt lat="44.99454" lon="5.59434">
        <ele>1215</ele>
        <time>2013-09-15T12:17:14.000Z</time>
      </trkpt>
      <trkpt lat="44.99454" lon="5.59434">
        <ele>1215</ele>
        <time>2013-09-15T12:17:14.000Z</time>
      </trkpt>
      <trkpt lat="44.99454" lon="5.59434">
        <ele>1215</ele>
        <time>2013-09-15T12:17:20.000Z</time>
      </trkpt>
      <trkpt lat="44.99464" lon="5.59434">
        <ele>1215</ele>
        <time>2013-09-15T12:17:21.000Z</time>
      </trkpt>
      <trkpt lat="44.99464" lon="5.59434">
        <ele>1215</ele>
        <time>2013-09-15T12:17:21.000Z</time>
      </trkpt>
      <trkpt lat="44.99464" lon="5.59434">
        <ele>1215</ele>
        <time>2013-09-15T12:17:30.000Z</time>
      </trkpt>
      <trkpt lat="44.99472" lon="5.59442">
        <ele>1215</ele>
        <time>2013-09-15T12:17:31.000Z</time>
      </trkpt>
      <trkpt lat="44.99472" lon="5.59442">
        <ele>1215</ele>
        <time>2013-09-15T12:17:31.000Z</time>
      </trkpt>
      <trkpt lat="44.99472" lon="5.59442">
        <ele>1215</ele>
        <time>2013-09-15T12:17:34.000Z</time>
      </trkpt>
      <trkpt lat="44.99483" lon="5.59451">
        <ele>1215</ele>
        <time>2013-09-15T12:17:35.000Z</time>
      </trkpt>
      <trkpt lat="44.99483" lon="5.59451">
        <ele>1215</ele>
        <time>2013-09-15T12:17:35.000Z</time>
      </trkpt>
      <trkpt lat="44.99483" lon="5.59451">
        <ele>1215</ele>
        <time>2013-09-15T12:17:37.000Z</time>
      </trkpt>
      <trkpt lat="44.99491" lon="5.59455">
        <ele>1215</ele>
        <time>2013-09-15T12:17:38.000Z</time>
      </trkpt>
      <trkpt lat="44.99491" lon="5.59455">
        <ele>1215</ele>
        <time>2013-09-15T12:17:38.000Z</time>
      </trkpt>
      <trkpt lat="44.99491" lon="5.59455">
        <ele>1215</ele>
        <time>2013-09-15T12:17:41.000Z</time>
      </trkpt>
      <trkpt lat="44.99502" lon="5.59462">
        <ele>1215</ele>
        <time>2013-09-15T12:17:42.000Z</time>
      </trkpt>
      <trkpt lat="44.99502" lon="5.59462">
        <ele>1215</ele>
        <time>2013-09-15T12:17:42.000Z</time>
      </trkpt>
      <trkpt lat="44.99502" lon="5.59462">
        <ele>1215</ele>
        <time>2013-09-15T12:17:43.000Z</time>
      </trkpt>
      <trkpt lat="44.99506" lon="5.59464">
        <ele>1215</ele>
        <time>2013-09-15T12:17:44.000Z</time>
      </trkpt>
      <trkpt lat="44.99506" lon="5.59464">
        <ele>1215</ele>
        <time>2013-09-15T12:17:44.000Z</time>
      </trkpt>
      <trkpt lat="44.99506" lon="5.59464">
        <ele>1215</ele>
        <time>2013-09-15T12:17:45.000Z</time>
      </trkpt>
      <trkpt lat="44.99512" lon="5.59466">
        <ele>1215</ele>
        <time>2013-09-15T12:17:46.000Z</time>
      </trkpt>
      <trkpt lat="44.99512" lon="5.59466">
        <ele>1215</ele>
        <time>2013-09-15T12:17:46.000Z</time>
      </trkpt>
      <trkpt lat="44.99512" lon="5.59466">
        <ele>1215</ele>
        <time>2013-09-15T12:17:49.000Z</time>
      </trkpt>
      <trkpt lat="44.9952" lon="5.5947">
        <ele>1216</ele>
        <time>2013-09-15T12:17:50.000Z</time>
      </trkpt>
      <trkpt lat="44.9952" lon="5.5947">
        <ele>1216</ele>
        <time>2013-09-15T12:17:50.000Z</time>
      </trkpt>
      <trkpt lat="44.9952" lon="5.5947">
        <ele>1216</ele>
        <time>2013-09-15T12:17:52.000Z</time>
      </trkpt>
      <trkpt lat="44.99526" lon="5.59472">
        <ele>1216</ele>
        <time>2013-09-15T12:17:53.000Z</time>
      </trkpt>
      <trkpt lat="44.99526" lon="5.59472">
        <ele>1216</ele>
        <time>2013-09-15T12:17:53.000Z</time>
      </trkpt>
      <trkpt lat="44.99526" lon="5.59472">
        <ele>1216</ele>
        <time>2013-09-15T12:17:57.000Z</time>
      </trkpt>
      <trkpt lat="44.99536" lon="5.59477">
        <ele>1217</ele>
        <time>2013-09-15T12:17:58.000Z</time>
      </trkpt>
      <trkpt lat="44.99536" lon="5.59477">
        <ele>1217</ele>
        <time>2013-09-15T12:17:58.000Z</time>
      </trkpt>
      <trkpt lat="44.99536" lon="5.59477">
        <ele>1217</ele>
        <time>2013-09-15T12:18:02.000Z</time>
      </trkpt>
      <trkpt lat="44.99545" lon="5.59479">
        <ele>1217</ele>
        <time>2013-09-15T12:18:03.000Z</time>
      </trkpt>
      <trkpt lat="44.99545" lon="5.59479">
        <ele>1217</ele>
        <time>2013-09-15T12:18:03.000Z</time>
      </trkpt>
      <trkpt lat="44.99545" lon="5.59479">
        <ele>1217</ele>
        <time>2013-09-15T12:18:07.000Z</time>
      </trkpt>
      <trkpt lat="44.99554" lon="5.59485">
        <ele>1218</ele>
        <time>2013-09-15T12:18:08.000Z</time>
      </trkpt>
      <trkpt lat="44.99554" lon="5.59485">
        <ele>1218</ele>
        <time>2013-09-15T12:18:08.000Z</time>
      </trkpt>
      <trkpt lat="44.99554" lon="5.59485">
        <ele>1218</ele>
        <time>2013-09-15T12:18:12.000Z</time>
      </trkpt>
      <trkpt lat="44.99563" lon="5.59489">
        <ele>1218</ele>
        <time>2013-09-15T12:18:13.000Z</time>
      </trkpt>
      <trkpt lat="44.99563" lon="5.59489">
        <ele>1218</ele>
        <time>2013-09-15T12:18:13.000Z</time>
      </trkpt>
      <trkpt lat="44.99563" lon="5.59489">
        <ele>1218</ele>
        <time>2013-09-15T12:18:15.000Z</time>
      </trkpt>
      <trkpt lat="44.9957" lon="5.59492">
        <ele>1219</ele>
        <time>2013-09-15T12:18:16.000Z</time>
      </trkpt>
      <trkpt lat="44.9957" lon="5.59492">
        <ele>1219</ele>
        <time>2013-09-15T12:18:16.000Z</time>
      </trkpt>
      <trkpt lat="44.9957" lon="5.59492">
        <ele>1219</ele>
        <time>2013-09-15T12:18:18.000Z</time>
      </trkpt>
      <trkpt lat="44.99576" lon="5.59494">
        <ele>1219</ele>
        <time>2013-09-15T12:18:19.000Z</time>
      </trkpt>
      <trkpt lat="44.99576" lon="5.59494">
        <ele>1219</ele>
        <time>2013-09-15T12:18:19.000Z</time>
      </trkpt>
      <trkpt lat="44.99576" lon="5.59494">
        <ele>1219</ele>
        <time>2013-09-15T12:18:20.000Z</time>
      </trkpt>
      <trkpt lat="44.9958" lon="5.59496">
        <ele>1219</ele>
        <time>2013-09-15T12:18:21.000Z</time>
      </trkpt>
      <trkpt lat="44.9958" lon="5.59496">
        <ele>1219</ele>
        <time>2013-09-15T12:18:21.000Z</time>
      </trkpt>
      <trkpt lat="44.9958" lon="5.59496">
        <ele>1219</ele>
        <time>2013-09-15T12:18:22.000Z</time>
      </trkpt>
      <trkpt lat="44.99593" lon="5.595">
        <ele>1220</ele>
        <time>2013-09-15T12:18:27.000Z</time>
      </trkpt>
      <trkpt lat="44.99593" lon="5.595">
        <ele>1220</ele>
        <time>2013-09-15T12:18:27.000Z</time>
      </trkpt>
      <trkpt lat="44.99593" lon="5.595">
        <ele>1220</ele>
        <time>2013-09-15T12:18:29.000Z</time>
      </trkpt>
      <trkpt lat="44.996" lon="5.59502">
        <ele>1221</ele>
        <time>2013-09-15T12:18:30.000Z</time>
      </trkpt>
      <trkpt lat="44.996" lon="5.59502">
        <ele>1221</ele>
        <time>2013-09-15T12:18:30.000Z</time>
      </trkpt>
      <trkpt lat="44.996" lon="5.59502">
        <ele>1221</ele>
        <time>2013-09-15T12:18:33.000Z</time>
      </trkpt>
      <trkpt lat="44.99608" lon="5.59504">
        <ele>1221</ele>
        <time>2013-09-15T12:18:34.000Z</time>
      </trkpt>
      <trkpt lat="44.99608" lon="5.59504">
        <ele>1221</ele>
        <time>2013-09-15T12:18:34.000Z</time>
      </trkpt>
      <trkpt lat="44.99608" lon="5.59504">
        <ele>1221</ele>
        <time>2013-09-15T12:18:36.000Z</time>
      </trkpt>
      <trkpt lat="44.99614" lon="5.59507">
        <ele>1222</ele>
        <time>2013-09-15T12:18:37.000Z</time>
      </trkpt>
      <trkpt lat="44.99614" lon="5.59507">
        <ele>1222</ele>
        <time>2013-09-15T12:18:37.000Z</time>
      </trkpt>
      <trkpt lat="44.99614" lon="5.59507">
        <ele>1222</ele>
        <time>2013-09-15T12:18:39.000Z</time>
      </trkpt>
      <trkpt lat="44.99618" lon="5.59511">
        <ele>1222</ele>
        <time>2013-09-15T12:18:40.000Z</time>
      </trkpt>
      <trkpt lat="44.99618" lon="5.59511">
        <ele>1222</ele>
        <time>2013-09-15T12:18:40.000Z</time>
      </trkpt>
      <trkpt lat="44.99618" lon="5.59511">
        <ele>1222</ele>
        <time>2013-09-15T12:18:42.000Z</time>
      </trkpt>
      <trkpt lat="44.99622" lon="5.59513">
        <ele>1223</ele>
        <time>2013-09-15T12:18:43.000Z</time>
      </trkpt>
      <trkpt lat="44.99622" lon="5.59513">
        <ele>1223</ele>
        <time>2013-09-15T12:18:43.000Z</time>
      </trkpt>
      <trkpt lat="44.99622" lon="5.59513">
        <ele>1223</ele>
        <time>2013-09-15T12:18:45.000Z</time>
      </trkpt>
      <trkpt lat="44.99628" lon="5.59517">
        <ele>1223</ele>
        <time>2013-09-15T12:18:46.000Z</time>
      </trkpt>
      <trkpt lat="44.99628" lon="5.59517">
        <ele>1223</ele>
        <time>2013-09-15T12:18:46.000Z</time>
      </trkpt>
      <trkpt lat="44.99628" lon="5.59517">
        <ele>1223</ele>
        <time>2013-09-15T12:18:51.000Z</time>
      </trkpt>
      <trkpt lat="44.99635" lon="5.59524">
        <ele>1224</ele>
        <time>2013-09-15T12:18:52.000Z</time>
      </trkpt>
      <trkpt lat="44.99635" lon="5.59524">
        <ele>1224</ele>
        <time>2013-09-15T12:18:52.000Z</time>
      </trkpt>
      <trkpt lat="44.99635" lon="5.59524">
        <ele>1224</ele>
        <time>2013-09-15T12:18:56.000Z</time>
      </trkpt>
      <trkpt lat="44.99643" lon="5.59528">
        <ele>1225</ele>
        <time>2013-09-15T12:18:57.000Z</time>
      </trkpt>
      <trkpt lat="44.99643" lon="5.59528">
        <ele>1225</ele>
        <time>2013-09-15T12:18:57.000Z</time>
      </trkpt>
      <trkpt lat="44.99643" lon="5.59528">
        <ele>1225</ele>
        <time>2013-09-15T12:19:00.000Z</time>
      </trkpt>
      <trkpt lat="44.99649" lon="5.59532">
        <ele>1225</ele>
        <time>2013-09-15T12:19:01.000Z</time>
      </trkpt>
      <trkpt lat="44.99649" lon="5.59532">
        <ele>1225</ele>
        <time>2013-09-15T12:19:01.000Z</time>
      </trkpt>
      <trkpt lat="44.99649" lon="5.59532">
        <ele>1225</ele>
        <time>2013-09-15T12:19:03.000Z</time>
      </trkpt>
      <trkpt lat="44.99653" lon="5.59537">
        <ele>1226</ele>
        <time>2013-09-15T12:19:04.000Z</time>
      </trkpt>
      <trkpt lat="44.99653" lon="5.59537">
        <ele>1226</ele>
        <time>2013-09-15T12:19:04.000Z</time>
      </trkpt>
      <trkpt lat="44.99653" lon="5.59537">
        <ele>1226</ele>
        <time>2013-09-15T12:19:07.000Z</time>
      </trkpt>
      <trkpt lat="44.9966" lon="5.59541">
        <ele>1226</ele>
        <time>2013-09-15T12:19:08.000Z</time>
      </trkpt>
      <trkpt lat="44.9966" lon="5.59541">
        <ele>1226</ele>
        <time>2013-09-15T12:19:08.000Z</time>
      </trkpt>
      <trkpt lat="44.9966" lon="5.59541">
        <ele>1226</ele>
        <time>2013-09-15T12:19:14.000Z</time>
      </trkpt>
      <trkpt lat="44.99668" lon="5.5955">
        <ele>1227</ele>
        <time>2013-09-15T12:19:15.000Z</time>
      </trkpt>
      <trkpt lat="44.99668" lon="5.5955">
        <ele>1227</ele>
        <time>2013-09-15T12:19:15.000Z</time>
      </trkpt>
      <trkpt lat="44.99668" lon="5.5955">
        <ele>1227</ele>
        <time>2013-09-15T12:19:21.000Z</time>
      </trkpt>
      <trkpt lat="44.99677" lon="5.59556">
        <ele>1228</ele>
        <time>2013-09-15T12:19:22.000Z</time>
      </trkpt>
      <trkpt lat="44.99677" lon="5.59556">
        <ele>1228</ele>
        <time>2013-09-15T12:19:22.000Z</time>
      </trkpt>
      <trkpt lat="44.99677" lon="5.59556">
        <ele>1228</ele>
        <time>2013-09-15T12:19:27.000Z</time>
      </trkpt>
      <trkpt lat="44.99687" lon="5.5956">
        <ele>1229</ele>
        <time>2013-09-15T12:19:28.000Z</time>
      </trkpt>
      <trkpt lat="44.99687" lon="5.5956">
        <ele>1229</ele>
        <time>2013-09-15T12:19:28.000Z</time>
      </trkpt>
      <trkpt lat="44.99687" lon="5.5956">
        <ele>1229</ele>
        <time>2013-09-15T12:19:32.000Z</time>
      </trkpt>
      <trkpt lat="44.99695" lon="5.59562">
        <ele>1230</ele>
        <time>2013-09-15T12:19:33.000Z</time>
      </trkpt>
      <trkpt lat="44.99695" lon="5.59562">
        <ele>1230</ele>
        <time>2013-09-15T12:19:33.000Z</time>
      </trkpt>
      <trkpt lat="44.99695" lon="5.59562">
        <ele>1230</ele>
        <time>2013-09-15T12:19:35.000Z</time>
      </trkpt>
      <trkpt lat="44.99701" lon="5.59564">
        <ele>1230</ele>
        <time>2013-09-15T12:19:36.000Z</time>
      </trkpt>
      <trkpt lat="44.99701" lon="5.59564">
        <ele>1230</ele>
        <time>2013-09-15T12:19:36.000Z</time>
      </trkpt>
      <trkpt lat="44.99701" lon="5.59564">
        <ele>1230</ele>
        <time>2013-09-15T12:19:38.000Z</time>
      </trkpt>
      <trkpt lat="44.99706" lon="5.59567">
        <ele>1231</ele>
        <time>2013-09-15T12:19:39.000Z</time>
      </trkpt>
      <trkpt lat="44.99706" lon="5.59567">
        <ele>1231</ele>
        <time>2013-09-15T12:19:39.000Z</time>
      </trkpt>
      <trkpt lat="44.99706" lon="5.59567">
        <ele>1231</ele>
        <time>2013-09-15T12:19:41.000Z</time>
      </trkpt>
      <trkpt lat="44.99711" lon="5.59567">
        <ele>1231</ele>
        <time>2013-09-15T12:19:42.000Z</time>
      </trkpt>
      <trkpt lat="44.99711" lon="5.59567">
        <ele>1231</ele>
        <time>2013-09-15T12:19:42.000Z</time>
      </trkpt>
      <trkpt lat="44.99711" lon="5.59567">
        <ele>1231</ele>
        <time>2013-09-15T12:19:43.000Z</time>
      </trkpt>
      <trkpt lat="44.99717" lon="5.59569">
        <ele>1232</ele>
        <time>2013-09-15T12:19:45.000Z</time>
      </trkpt>
      <trkpt lat="44.99722" lon="5.59571">
        <ele>1232</ele>
        <time>2013-09-15T12:19:48.000Z</time>
      </trkpt>
      <trkpt lat="44.99728" lon="5.59571">
        <ele>1233</ele>
        <time>2013-09-15T12:19:52.000Z</time>
      </trkpt>
      <trkpt lat="44.99734" lon="5.59573">
        <ele>1233</ele>
        <time>2013-09-15T12:19:55.000Z</time>
      </trkpt>
      <trkpt lat="44.99738" lon="5.59575">
        <ele>1234</ele>
        <time>2013-09-15T12:19:58.000Z</time>
      </trkpt>
      <trkpt lat="44.99745" lon="5.59575">
        <ele>1235</ele>
        <time>2013-09-15T12:20:02.000Z</time>
      </trkpt>
      <trkpt lat="44.99749" lon="5.59577">
        <ele>1235</ele>
        <time>2013-09-15T12:20:05.000Z</time>
      </trkpt>
      <trkpt lat="44.99754" lon="5.59577">
        <ele>1236</ele>
        <time>2013-09-15T12:20:09.000Z</time>
      </trkpt>
      <trkpt lat="44.99759" lon="5.5958">
        <ele>1236</ele>
        <time>2013-09-15T12:20:12.000Z</time>
      </trkpt>
      <trkpt lat="44.99763" lon="5.59582">
        <ele>1236</ele>
        <time>2013-09-15T12:20:15.000Z</time>
      </trkpt>
      <trkpt lat="44.99767" lon="5.59584">
        <ele>1237</ele>
        <time>2013-09-15T12:20:18.000Z</time>
      </trkpt>
      <trkpt lat="44.99771" lon="5.59588">
        <ele>1237</ele>
        <time>2013-09-15T12:20:21.000Z</time>
      </trkpt>
      <trkpt lat="44.99777" lon="5.59592">
        <ele>1238</ele>
        <time>2013-09-15T12:20:25.000Z</time>
      </trkpt>
      <trkpt lat="44.99781" lon="5.59597">
        <ele>1238</ele>
        <time>2013-09-15T12:20:28.000Z</time>
      </trkpt>
      <trkpt lat="44.99786" lon="5.59603">
        <ele>1239</ele>
        <time>2013-09-15T12:20:32.000Z</time>
      </trkpt>
      <trkpt lat="44.9979" lon="5.59608">
        <ele>1239</ele>
        <time>2013-09-15T12:20:35.000Z</time>
      </trkpt>
      <trkpt lat="44.99794" lon="5.59612">
        <ele>1239</ele>
        <time>2013-09-15T12:20:38.000Z</time>
      </trkpt>
      <trkpt lat="44.99798" lon="5.59616">
        <ele>1240</ele>
        <time>2013-09-15T12:20:41.000Z</time>
      </trkpt>
      <trkpt lat="44.99802" lon="5.59618">
        <ele>1240</ele>
        <time>2013-09-15T12:20:44.000Z</time>
      </trkpt>
      <trkpt lat="44.99807" lon="5.5962">
        <ele>1240</ele>
        <time>2013-09-15T12:20:47.000Z</time>
      </trkpt>
      <trkpt lat="44.99811" lon="5.59625">
        <ele>1240</ele>
        <time>2013-09-15T12:20:50.000Z</time>
      </trkpt>
      <trkpt lat="44.99815" lon="5.59627">
        <ele>1241</ele>
        <time>2013-09-15T12:20:53.000Z</time>
      </trkpt>
      <trkpt lat="44.99821" lon="5.59629">
        <ele>1241</ele>
        <time>2013-09-15T12:20:56.000Z</time>
      </trkpt>
      <trkpt lat="44.99825" lon="5.59631">
        <ele>1241</ele>
        <time>2013-09-15T12:20:59.000Z</time>
      </trkpt>
      <trkpt lat="44.9983" lon="5.59633">
        <ele>1241</ele>
        <time>2013-09-15T12:21:02.000Z</time>
      </trkpt>
      <trkpt lat="44.99836" lon="5.59633">
        <ele>1241</ele>
        <time>2013-09-15T12:21:05.000Z</time>
      </trkpt>
      <trkpt lat="44.99841" lon="5.59635">
        <ele>1241</ele>
        <time>2013-09-15T12:21:08.000Z</time>
      </trkpt>
      <trkpt lat="44.99846" lon="5.59635">
        <ele>1241</ele>
        <time>2013-09-15T12:21:11.000Z</time>
      </trkpt>
      <trkpt lat="44.99852" lon="5.59635">
        <ele>1242</ele>
        <time>2013-09-15T12:21:14.000Z</time>
      </trkpt>
      <trkpt lat="44.99856" lon="5.59638">
        <ele>1242</ele>
        <time>2013-09-15T12:21:16.000Z</time>
      </trkpt>
      <trkpt lat="44.99862" lon="5.59638">
        <ele>1242</ele>
        <time>2013-09-15T12:21:19.000Z</time>
      </trkpt>
      <trkpt lat="44.99868" lon="5.59638">
        <ele>1243</ele>
        <time>2013-09-15T12:21:22.000Z</time>
      </trkpt>
      <trkpt lat="44.99873" lon="5.59638">
        <ele>1243</ele>
        <time>2013-09-15T12:21:25.000Z</time>
      </trkpt>
      <trkpt lat="44.9988" lon="5.59638">
        <ele>1243</ele>
        <time>2013-09-15T12:21:28.000Z</time>
      </trkpt>
      <trkpt lat="44.99886" lon="5.59638">
        <ele>1244</ele>
        <time>2013-09-15T12:21:31.000Z</time>
      </trkpt>
      <trkpt lat="44.99892" lon="5.59638">
        <ele>1244</ele>
        <time>2013-09-15T12:21:33.000Z</time>
      </trkpt>
      <trkpt lat="44.99897" lon="5.59638">
        <ele>1244</ele>
        <time>2013-09-15T12:21:35.000Z</time>
      </trkpt>
      <trkpt lat="44.99903" lon="5.59638">
        <ele>1244</ele>
        <time>2013-09-15T12:21:37.000Z</time>
      </trkpt>
      <trkpt lat="44.99909" lon="5.5964">
        <ele>1244</ele>
        <time>2013-09-15T12:21:39.000Z</time>
      </trkpt>
      <trkpt lat="44.99914" lon="5.5964">
        <ele>1244</ele>
        <time>2013-09-15T12:21:41.000Z</time>
      </trkpt>
      <trkpt lat="44.99921" lon="5.59642">
        <ele>1244</ele>
        <time>2013-09-15T12:21:43.000Z</time>
      </trkpt>
      <trkpt lat="44.99926" lon="5.59646">
        <ele>1245</ele>
        <time>2013-09-15T12:21:45.000Z</time>
      </trkpt>
      <trkpt lat="44.99931" lon="5.59652">
        <ele>1245</ele>
        <time>2013-09-15T12:21:48.000Z</time>
      </trkpt>
      <trkpt lat="44.99933" lon="5.59659">
        <ele>1245</ele>
        <time>2013-09-15T12:21:50.000Z</time>
      </trkpt>
      <trkpt lat="44.99933" lon="5.59668">
        <ele>1244</ele>
        <time>2013-09-15T12:21:52.000Z</time>
      </trkpt>
      <trkpt lat="44.99933" lon="5.59674">
        <ele>1244</ele>
        <time>2013-09-15T12:21:53.000Z</time>
      </trkpt>
      <trkpt lat="44.99932" lon="5.5968">
        <ele>1244</ele>
        <time>2013-09-15T12:21:54.000Z</time>
      </trkpt>
      <trkpt lat="44.99932" lon="5.59691">
        <ele>1245</ele>
        <time>2013-09-15T12:21:56.000Z</time>
      </trkpt>
      <trkpt lat="44.99932" lon="5.59698">
        <ele>1246</ele>
        <time>2013-09-15T12:21:57.000Z</time>
      </trkpt>
      <trkpt lat="44.99933" lon="5.59704">
        <ele>1247</ele>
        <time>2013-09-15T12:21:58.000Z</time>
      </trkpt>
      <trkpt lat="44.99936" lon="5.5971">
        <ele>1248</ele>
        <time>2013-09-15T12:21:59.000Z</time>
      </trkpt>
      <trkpt lat="44.99937" lon="5.59717">
        <ele>1248</ele>
        <time>2013-09-15T12:22:00.000Z</time>
      </trkpt>
      <trkpt lat="44.99941" lon="5.59728">
        <ele>1249</ele>
        <time>2013-09-15T12:22:02.000Z</time>
      </trkpt>
      <trkpt lat="44.99945" lon="5.59738">
        <ele>1250</ele>
        <time>2013-09-15T12:22:04.000Z</time>
      </trkpt>
      <trkpt lat="44.9995" lon="5.59747">
        <ele>1250</ele>
        <time>2013-09-15T12:22:06.000Z</time>
      </trkpt>
      <trkpt lat="44.99952" lon="5.59753">
        <ele>1250</ele>
        <time>2013-09-15T12:22:07.000Z</time>
      </trkpt>
      <trkpt lat="44.99956" lon="5.59762">
        <ele>1251</ele>
        <time>2013-09-15T12:22:09.000Z</time>
      </trkpt>
      <trkpt lat="44.99961" lon="5.59768">
        <ele>1251</ele>
        <time>2013-09-15T12:22:11.000Z</time>
      </trkpt>
      <trkpt lat="44.99966" lon="5.59775">
        <ele>1251</ele>
        <time>2013-09-15T12:22:13.000Z</time>
      </trkpt>
      <trkpt lat="44.9997" lon="5.59781">
        <ele>1251</ele>
        <time>2013-09-15T12:22:15.000Z</time>
      </trkpt>
      <trkpt lat="44.99975" lon="5.59788">
        <ele>1252</ele>
        <time>2013-09-15T12:22:17.000Z</time>
      </trkpt>
      <trkpt lat="44.99981" lon="5.59792">
        <ele>1252</ele>
        <time>2013-09-15T12:22:19.000Z</time>
      </trkpt>
      <trkpt lat="44.99984" lon="5.59798">
        <ele>1252</ele>
        <time>2013-09-15T12:22:21.000Z</time>
      </trkpt>
      <trkpt lat="44.99988" lon="5.59805">
        <ele>1252</ele>
        <time>2013-09-15T12:22:23.000Z</time>
      </trkpt>
      <trkpt lat="44.9999" lon="5.59813">
        <ele>1252</ele>
        <time>2013-09-15T12:22:25.000Z</time>
      </trkpt>
      <trkpt lat="44.99994" lon="5.59822">
        <ele>1253</ele>
        <time>2013-09-15T12:22:27.000Z</time>
      </trkpt>
      <trkpt lat="44.99997" lon="5.59828">
        <ele>1253</ele>
        <time>2013-09-15T12:22:29.000Z</time>
      </trkpt>
      <trkpt lat="45" lon="5.59835">
        <ele>1253</ele>
        <time>2013-09-15T12:22:31.000Z</time>
      </trkpt>
      <trkpt lat="45.00002" lon="5.59844">
        <ele>1253</ele>
        <time>2013-09-15T12:22:34.000Z</time>
      </trkpt>
      <trkpt lat="45.00004" lon="5.5985">
        <ele>1254</ele>
        <time>2013-09-15T12:22:36.000Z</time>
      </trkpt>
      <trkpt lat="45.00006" lon="5.59856">
        <ele>1254</ele>
        <time>2013-09-15T12:22:38.000Z</time>
      </trkpt>
      <trkpt lat="45.00008" lon="5.59863">
        <ele>1255</ele>
        <time>2013-09-15T12:22:40.000Z</time>
      </trkpt>
      <trkpt lat="45.0001" lon="5.59871">
        <ele>1255</ele>
        <time>2013-09-15T12:22:42.000Z</time>
      </trkpt>
      <trkpt lat="45.00012" lon="5.59878">
        <ele>1255</ele>
        <time>2013-09-15T12:22:44.000Z</time>
      </trkpt>
      <trkpt lat="45.00014" lon="5.59889">
        <ele>1256</ele>
        <time>2013-09-15T12:22:46.000Z</time>
      </trkpt>
      <trkpt lat="45.00016" lon="5.59897">
        <ele>1256</ele>
        <time>2013-09-15T12:22:48.000Z</time>
      </trkpt>
      <trkpt lat="45.00017" lon="5.59904">
        <ele>1256</ele>
        <time>2013-09-15T12:22:49.000Z</time>
      </trkpt>
      <trkpt lat="45.00019" lon="5.59914">
        <ele>1257</ele>
        <time>2013-09-15T12:22:51.000Z</time>
      </trkpt>
      <trkpt lat="45.00022" lon="5.59925">
        <ele>1257</ele>
        <time>2013-09-15T12:22:53.000Z</time>
      </trkpt>
      <trkpt lat="45.00024" lon="5.59932">
        <ele>1257</ele>
        <time>2013-09-15T12:22:54.000Z</time>
      </trkpt>
      <trkpt lat="45.00025" lon="5.59938">
        <ele>1257</ele>
        <time>2013-09-15T12:22:55.000Z</time>
      </trkpt>
      <trkpt lat="45.00027" lon="5.59944">
        <ele>1258</ele>
        <time>2013-09-15T12:22:56.000Z</time>
      </trkpt>
      <trkpt lat="45.00028" lon="5.59951">
        <ele>1258</ele>
        <time>2013-09-15T12:22:57.000Z</time>
      </trkpt>
      <trkpt lat="45.0003" lon="5.59957">
        <ele>1258</ele>
        <time>2013-09-15T12:22:58.000Z</time>
      </trkpt>
      <trkpt lat="45.00031" lon="5.59964">
        <ele>1258</ele>
        <time>2013-09-15T12:22:59.000Z</time>
      </trkpt>
      <trkpt lat="45.00033" lon="5.5997">
        <ele>1258</ele>
        <time>2013-09-15T12:23:00.000Z</time>
      </trkpt>
      <trkpt lat="45.00035" lon="5.59976">
        <ele>1260</ele>
        <time>2013-09-15T12:23:01.000Z</time>
      </trkpt>
      <trkpt lat="45.00038" lon="5.59983">
        <ele>1262</ele>
        <time>2013-09-15T12:23:02.000Z</time>
      </trkpt>
      <trkpt lat="45.0004" lon="5.59992">
        <ele>1263</ele>
        <time>2013-09-15T12:23:03.000Z</time>
      </trkpt>
      <trkpt lat="45.00042" lon="5.59998">
        <ele>1264</ele>
        <time>2013-09-15T12:23:04.000Z</time>
      </trkpt>
      <trkpt lat="45.00044" lon="5.60004">
        <ele>1265</ele>
        <time>2013-09-15T12:23:05.000Z</time>
      </trkpt>
      <trkpt lat="45.00046" lon="5.60011">
        <ele>1266</ele>
        <time>2013-09-15T12:23:06.000Z</time>
      </trkpt>
      <trkpt lat="45.00049" lon="5.60022">
        <ele>1267</ele>
        <time>2013-09-15T12:23:08.000Z</time>
      </trkpt>
      <trkpt lat="45.00052" lon="5.60032">
        <ele>1267</ele>
        <time>2013-09-15T12:23:10.000Z</time>
      </trkpt>
      <trkpt lat="45.00057" lon="5.60043">
        <ele>1267</ele>
        <time>2013-09-15T12:23:12.000Z</time>
      </trkpt>
      <trkpt lat="45.0006" lon="5.60052">
        <ele>1267</ele>
        <time>2013-09-15T12:23:14.000Z</time>
      </trkpt>
      <trkpt lat="45.00064" lon="5.60058">
        <ele>1267</ele>
        <time>2013-09-15T12:23:16.000Z</time>
      </trkpt>
      <trkpt lat="45.00068" lon="5.60067">
        <ele>1268</ele>
        <time>2013-09-15T12:23:18.000Z</time>
      </trkpt>
      <trkpt lat="45.00073" lon="5.60069">
        <ele>1268</ele>
        <time>2013-09-15T12:23:20.000Z</time>
      </trkpt>
      <trkpt lat="45.00087" lon="5.60075">
        <ele>1268</ele>
        <time>2013-09-15T12:23:25.000Z</time>
      </trkpt>
      <trkpt lat="45.00087" lon="5.60075">
        <ele>1268</ele>
        <time>2013-09-15T12:23:25.000Z</time>
      </trkpt>
      <trkpt lat="45.00087" lon="5.60075">
        <ele>1268</ele>
        <time>2013-09-15T12:24:36.000Z</time>
      </trkpt>
      <trkpt lat="45.00096" lon="5.6008">
        <ele>1265</ele>
        <time>2013-09-15T12:24:37.000Z</time>
      </trkpt>
      <trkpt lat="45.00102" lon="5.60084">
        <ele>1265</ele>
        <time>2013-09-15T12:24:39.000Z</time>
      </trkpt>
      <trkpt lat="45.00108" lon="5.60088">
        <ele>1264</ele>
        <time>2013-09-15T12:24:41.000Z</time>
      </trkpt>
      <trkpt lat="45.00113" lon="5.6009">
        <ele>1264</ele>
        <time>2013-09-15T12:24:42.000Z</time>
      </trkpt>
      <trkpt lat="45.00118" lon="5.60094">
        <ele>1264</ele>
        <time>2013-09-15T12:24:44.000Z</time>
      </trkpt>
      <trkpt lat="45.00123" lon="5.60094">
        <ele>1263</ele>
        <time>2013-09-15T12:24:46.000Z</time>
      </trkpt>
      <trkpt lat="45.00129" lon="5.60092">
        <ele>1263</ele>
        <time>2013-09-15T12:24:48.000Z</time>
      </trkpt>
      <trkpt lat="45.00134" lon="5.60092">
        <ele>1263</ele>
        <time>2013-09-15T12:24:50.000Z</time>
      </trkpt>
      <trkpt lat="45.0014" lon="5.6009">
        <ele>1262</ele>
        <time>2013-09-15T12:24:52.000Z</time>
      </trkpt>
      <trkpt lat="45.0015" lon="5.60086">
        <ele>1260</ele>
        <time>2013-09-15T12:24:54.000Z</time>
      </trkpt>
      <trkpt lat="45.00156" lon="5.60084">
        <ele>1259</ele>
        <time>2013-09-15T12:24:55.000Z</time>
      </trkpt>
      <trkpt lat="45.00161" lon="5.60082">
        <ele>1257</ele>
        <time>2013-09-15T12:24:56.000Z</time>
      </trkpt>
      <trkpt lat="45.00166" lon="5.6008">
        <ele>1256</ele>
        <time>2013-09-15T12:24:57.000Z</time>
      </trkpt>
      <trkpt lat="45.00172" lon="5.60077">
        <ele>1255</ele>
        <time>2013-09-15T12:24:58.000Z</time>
      </trkpt>
      <trkpt lat="45.00177" lon="5.60073">
        <ele>1255</ele>
        <time>2013-09-15T12:24:59.000Z</time>
      </trkpt>
      <trkpt lat="45.00183" lon="5.60071">
        <ele>1254</ele>
        <time>2013-09-15T12:25:00.000Z</time>
      </trkpt>
      <trkpt lat="45.00193" lon="5.60069">
        <ele>1253</ele>
        <time>2013-09-15T12:25:02.000Z</time>
      </trkpt>
      <trkpt lat="45.00202" lon="5.60067">
        <ele>1251</ele>
        <time>2013-09-15T12:25:04.000Z</time>
      </trkpt>
      <trkpt lat="45.00214" lon="5.60067">
        <ele>1251</ele>
        <time>2013-09-15T12:25:26.000Z</time>
      </trkpt>
      <trkpt lat="45.00214" lon="5.60067">
        <ele>1251</ele>
        <time>2013-09-15T12:25:26.000Z</time>
      </trkpt>
      <trkpt lat="45.00214" lon="5.60067">
        <ele>1251</ele>
        <time>2013-09-15T12:25:31.000Z</time>
      </trkpt>
      <trkpt lat="45.00223" lon="5.60067">
        <ele>1251</ele>
        <time>2013-09-15T12:25:32.000Z</time>
      </trkpt>
      <trkpt lat="45.00223" lon="5.60067">
        <ele>1251</ele>
        <time>2013-09-15T12:25:32.000Z</time>
      </trkpt>
      <trkpt lat="45.00223" lon="5.60067">
        <ele>1251</ele>
        <time>2013-09-15T12:25:35.000Z</time>
      </trkpt>
      <trkpt lat="45.00235" lon="5.60067">
        <ele>1251</ele>
        <time>2013-09-15T12:25:36.000Z</time>
      </trkpt>
      <trkpt lat="45.00235" lon="5.60067">
        <ele>1251</ele>
        <time>2013-09-15T12:25:36.000Z</time>
      </trkpt>
      <trkpt lat="45.00235" lon="5.60067">
        <ele>1251</ele>
        <time>2013-09-15T12:25:38.000Z</time>
      </trkpt>
      <trkpt lat="45.00244" lon="5.60067">
        <ele>1250</ele>
        <time>2013-09-15T12:25:39.000Z</time>
      </trkpt>
      <trkpt lat="45.00244" lon="5.60067">
        <ele>1250</ele>
        <time>2013-09-15T12:25:39.000Z</time>
      </trkpt>
      <trkpt lat="45.00244" lon="5.60067">
        <ele>1250</ele>
        <time>2013-09-15T12:25:41.000Z</time>
      </trkpt>
      <trkpt lat="45.00254" lon="5.60067">
        <ele>1250</ele>
        <time>2013-09-15T12:25:42.000Z</time>
      </trkpt>
      <trkpt lat="45.00261" lon="5.60067">
        <ele>1249</ele>
        <time>2013-09-15T12:25:44.000Z</time>
      </trkpt>
      <trkpt lat="45.00269" lon="5.60069">
        <ele>1249</ele>
        <time>2013-09-15T12:25:46.000Z</time>
      </trkpt>
      <trkpt lat="45.00274" lon="5.60071">
        <ele>1249</ele>
        <time>2013-09-15T12:25:47.000Z</time>
      </trkpt>
      <trkpt lat="45.00278" lon="5.60073">
        <ele>1249</ele>
        <time>2013-09-15T12:25:48.000Z</time>
      </trkpt>
      <trkpt lat="45.00284" lon="5.60077">
        <ele>1248</ele>
        <time>2013-09-15T12:25:50.000Z</time>
      </trkpt>
      <trkpt lat="45.00291" lon="5.6008">
        <ele>1248</ele>
        <time>2013-09-15T12:25:52.000Z</time>
      </trkpt>
      <trkpt lat="45.00296" lon="5.60084">
        <ele>1248</ele>
        <time>2013-09-15T12:25:54.000Z</time>
      </trkpt>
      <trkpt lat="45.00296" lon="5.60084">
        <ele>1248</ele>
        <time>2013-09-15T12:25:54.000Z</time>
      </trkpt>
      <trkpt lat="45.00296" lon="5.60084">
        <ele>1248</ele>
        <time>2013-09-15T12:25:59.000Z</time>
      </trkpt>
      <trkpt lat="45.00299" lon="5.60099">
        <ele>1248</ele>
        <time>2013-09-15T12:26:00.000Z</time>
      </trkpt>
      <trkpt lat="45.003" lon="5.60105">
        <ele>1247</ele>
        <time>2013-09-15T12:26:01.000Z</time>
      </trkpt>
      <trkpt lat="45.00302" lon="5.60112">
        <ele>1247</ele>
        <time>2013-09-15T12:26:02.000Z</time>
      </trkpt>
      <trkpt lat="45.00308" lon="5.6012">
        <ele>1245</ele>
        <time>2013-09-15T12:26:04.000Z</time>
      </trkpt>
      <trkpt lat="45.00314" lon="5.60129">
        <ele>1245</ele>
        <time>2013-09-15T12:26:06.000Z</time>
      </trkpt>
      <trkpt lat="45.0032" lon="5.60138">
        <ele>1244</ele>
        <time>2013-09-15T12:26:08.000Z</time>
      </trkpt>
      <trkpt lat="45.00324" lon="5.60146">
        <ele>1244</ele>
        <time>2013-09-15T12:26:10.000Z</time>
      </trkpt>
      <trkpt lat="45.00327" lon="5.60152">
        <ele>1244</ele>
        <time>2013-09-15T12:26:11.000Z</time>
      </trkpt>
      <trkpt lat="45.0033" lon="5.60159">
        <ele>1244</ele>
        <time>2013-09-15T12:26:12.000Z</time>
      </trkpt>
      <trkpt lat="45.00336" lon="5.60163">
        <ele>1244</ele>
        <time>2013-09-15T12:26:13.000Z</time>
      </trkpt>
      <trkpt lat="45.00341" lon="5.60168">
        <ele>1245</ele>
        <time>2013-09-15T12:26:14.000Z</time>
      </trkpt>
      <trkpt lat="45.00345" lon="5.60174">
        <ele>1245</ele>
        <time>2013-09-15T12:26:15.000Z</time>
      </trkpt>
      <trkpt lat="45.00351" lon="5.60178">
        <ele>1245</ele>
        <time>2013-09-15T12:26:16.000Z</time>
      </trkpt>
      <trkpt lat="45.00357" lon="5.60182">
        <ele>1246</ele>
        <time>2013-09-15T12:26:17.000Z</time>
      </trkpt>
      <trkpt lat="45.00363" lon="5.60187">
        <ele>1246</ele>
        <time>2013-09-15T12:26:18.000Z</time>
      </trkpt>
      <trkpt lat="45.00367" lon="5.60191">
        <ele>1246</ele>
        <time>2013-09-15T12:26:19.000Z</time>
      </trkpt>
      <trkpt lat="45.00371" lon="5.60195">
        <ele>1246</ele>
        <time>2013-09-15T12:26:20.000Z</time>
      </trkpt>
      <trkpt lat="45.00378" lon="5.60204">
        <ele>1244</ele>
        <time>2013-09-15T12:26:22.000Z</time>
      </trkpt>
      <trkpt lat="45.00384" lon="5.60213">
        <ele>1243</ele>
        <time>2013-09-15T12:26:24.000Z</time>
      </trkpt>
      <trkpt lat="45.00389" lon="5.60219">
        <ele>1242</ele>
        <time>2013-09-15T12:26:26.000Z</time>
      </trkpt>
      <trkpt lat="45.00394" lon="5.60225">
        <ele>1242</ele>
        <time>2013-09-15T12:26:28.000Z</time>
      </trkpt>
      <trkpt lat="45.00398" lon="5.60232">
        <ele>1242</ele>
        <time>2013-09-15T12:26:30.000Z</time>
      </trkpt>
      <trkpt lat="45.00402" lon="5.60238">
        <ele>1242</ele>
        <time>2013-09-15T12:26:32.000Z</time>
      </trkpt>
      <trkpt lat="45.00406" lon="5.60247">
        <ele>1242</ele>
        <time>2013-09-15T12:26:34.000Z</time>
      </trkpt>
      <trkpt lat="45.00409" lon="5.60256">
        <ele>1242</ele>
        <time>2013-09-15T12:26:36.000Z</time>
      </trkpt>
      <trkpt lat="45.00408" lon="5.60264">
        <ele>1241</ele>
        <time>2013-09-15T12:26:39.000Z</time>
      </trkpt>
      <trkpt lat="45.00409" lon="5.6027">
        <ele>1240</ele>
        <time>2013-09-15T12:26:42.000Z</time>
      </trkpt>
      <trkpt lat="45.0041" lon="5.60277">
        <ele>1240</ele>
        <time>2013-09-15T12:26:44.000Z</time>
      </trkpt>
      <trkpt lat="45.0041" lon="5.60283">
        <ele>1240</ele>
        <time>2013-09-15T12:26:46.000Z</time>
      </trkpt>
      <trkpt lat="45.00412" lon="5.60292">
        <ele>1239</ele>
        <time>2013-09-15T12:26:50.000Z</time>
      </trkpt>
      <trkpt lat="45.00417" lon="5.603">
        <ele>1239</ele>
        <time>2013-09-15T12:26:52.000Z</time>
      </trkpt>
      <trkpt lat="45.0042" lon="5.60309">
        <ele>1238</ele>
        <time>2013-09-15T12:26:54.000Z</time>
      </trkpt>
      <trkpt lat="45.00424" lon="5.60316">
        <ele>1237</ele>
        <time>2013-09-15T12:26:56.000Z</time>
      </trkpt>
      <trkpt lat="45.00428" lon="5.60322">
        <ele>1237</ele>
        <time>2013-09-15T12:26:58.000Z</time>
      </trkpt>
      <trkpt lat="45.00434" lon="5.60339">
        <ele>1235</ele>
        <time>2013-09-15T12:27:04.000Z</time>
      </trkpt>
      <trkpt lat="45.00434" lon="5.60339">
        <ele>1235</ele>
        <time>2013-09-15T12:27:04.000Z</time>
      </trkpt>
      <trkpt lat="45.00434" lon="5.60339">
        <ele>1235</ele>
        <time>2013-09-15T12:27:07.000Z</time>
      </trkpt>
      <trkpt lat="45.0044" lon="5.60354">
        <ele>1234</ele>
        <time>2013-09-15T12:27:08.000Z</time>
      </trkpt>
      <trkpt lat="45.00443" lon="5.60365">
        <ele>1233</ele>
        <time>2013-09-15T12:27:10.000Z</time>
      </trkpt>
      <trkpt lat="45.00447" lon="5.60374">
        <ele>1232</ele>
        <time>2013-09-15T12:27:12.000Z</time>
      </trkpt>
      <trkpt lat="45.00452" lon="5.60382">
        <ele>1231</ele>
        <time>2013-09-15T12:27:15.000Z</time>
      </trkpt>
      <trkpt lat="45.00455" lon="5.60391">
        <ele>1230</ele>
        <time>2013-09-15T12:27:17.000Z</time>
      </trkpt>
      <trkpt lat="45.00459" lon="5.60397">
        <ele>1230</ele>
        <time>2013-09-15T12:27:19.000Z</time>
      </trkpt>
      <trkpt lat="45.00463" lon="5.60406">
        <ele>1229</ele>
        <time>2013-09-15T12:27:21.000Z</time>
      </trkpt>
      <trkpt lat="45.00466" lon="5.60412">
        <ele>1228</ele>
        <time>2013-09-15T12:27:22.000Z</time>
      </trkpt>
      <trkpt lat="45.0047" lon="5.60421">
        <ele>1228</ele>
        <time>2013-09-15T12:27:24.000Z</time>
      </trkpt>
      <trkpt lat="45.00474" lon="5.60429">
        <ele>1227</ele>
        <time>2013-09-15T12:27:26.000Z</time>
      </trkpt>
      <trkpt lat="45.00478" lon="5.60436">
        <ele>1226</ele>
        <time>2013-09-15T12:27:28.000Z</time>
      </trkpt>
      <trkpt lat="45.00482" lon="5.60444">
        <ele>1225</ele>
        <time>2013-09-15T12:27:30.000Z</time>
      </trkpt>
      <trkpt lat="45.00485" lon="5.60455">
        <ele>1224</ele>
        <time>2013-09-15T12:27:32.000Z</time>
      </trkpt>
      <trkpt lat="45.00488" lon="5.60464">
        <ele>1224</ele>
        <time>2013-09-15T12:27:34.000Z</time>
      </trkpt>
      <trkpt lat="45.00489" lon="5.6047">
        <ele>1223</ele>
        <time>2013-09-15T12:27:35.000Z</time>
      </trkpt>
      <trkpt lat="45.00491" lon="5.60481">
        <ele>1223</ele>
        <time>2013-09-15T12:27:37.000Z</time>
      </trkpt>
      <trkpt lat="45.00492" lon="5.60489">
        <ele>1222</ele>
        <time>2013-09-15T12:27:39.000Z</time>
      </trkpt>
      <trkpt lat="45.00494" lon="5.60498">
        <ele>1221</ele>
        <time>2013-09-15T12:27:41.000Z</time>
      </trkpt>
      <trkpt lat="45.00496" lon="5.60509">
        <ele>1221</ele>
        <time>2013-09-15T12:27:43.000Z</time>
      </trkpt>
      <trkpt lat="45.00499" lon="5.60524">
        <ele>1217</ele>
        <time>2013-09-15T12:27:46.000Z</time>
      </trkpt>
      <trkpt lat="45.005" lon="5.6053">
        <ele>1217</ele>
        <time>2013-09-15T12:27:47.000Z</time>
      </trkpt>
      <trkpt lat="45.00501" lon="5.60537">
        <ele>1217</ele>
        <time>2013-09-15T12:27:48.000Z</time>
      </trkpt>
      <trkpt lat="45.00503" lon="5.60543">
        <ele>1216</ele>
        <time>2013-09-15T12:27:49.000Z</time>
      </trkpt>
      <trkpt lat="45.00505" lon="5.60549">
        <ele>1215</ele>
        <time>2013-09-15T12:27:50.000Z</time>
      </trkpt>
      <trkpt lat="45.00508" lon="5.60556">
        <ele>1215</ele>
        <time>2013-09-15T12:27:51.000Z</time>
      </trkpt>
      <trkpt lat="45.0051" lon="5.60562">
        <ele>1214</ele>
        <time>2013-09-15T12:27:52.000Z</time>
      </trkpt>
      <trkpt lat="45.00513" lon="5.60569">
        <ele>1213</ele>
        <time>2013-09-15T12:27:53.000Z</time>
      </trkpt>
      <trkpt lat="45.00516" lon="5.60575">
        <ele>1212</ele>
        <time>2013-09-15T12:27:54.000Z</time>
      </trkpt>
      <trkpt lat="45.00519" lon="5.60584">
        <ele>1211</ele>
        <time>2013-09-15T12:27:55.000Z</time>
      </trkpt>
      <trkpt lat="45.00525" lon="5.60592">
        <ele>1210</ele>
        <time>2013-09-15T12:27:56.000Z</time>
      </trkpt>
      <trkpt lat="45.0053" lon="5.60597">
        <ele>1208</ele>
        <time>2013-09-15T12:27:57.000Z</time>
      </trkpt>
      <trkpt lat="45.00536" lon="5.60605">
        <ele>1207</ele>
        <time>2013-09-15T12:27:58.000Z</time>
      </trkpt>
      <trkpt lat="45.00545" lon="5.60612">
        <ele>1206</ele>
        <time>2013-09-15T12:27:59.000Z</time>
      </trkpt>
      <trkpt lat="45.00552" lon="5.6062">
        <ele>1205</ele>
        <time>2013-09-15T12:28:00.000Z</time>
      </trkpt>
      <trkpt lat="45.0056" lon="5.60627">
        <ele>1192</ele>
        <time>2013-09-15T12:28:01.000Z</time>
      </trkpt>
      <trkpt lat="45.00569" lon="5.60631">
        <ele>1181</ele>
        <time>2013-09-15T12:28:02.000Z</time>
      </trkpt>
      <trkpt lat="45.00576" lon="5.60637">
        <ele>1173</ele>
        <time>2013-09-15T12:28:03.000Z</time>
      </trkpt>
      <trkpt lat="45.00584" lon="5.60642">
        <ele>1166</ele>
        <time>2013-09-15T12:28:04.000Z</time>
      </trkpt>
      <trkpt lat="45.00591" lon="5.60646">
        <ele>1160</ele>
        <time>2013-09-15T12:28:05.000Z</time>
      </trkpt>
      <trkpt lat="45.00599" lon="5.60648">
        <ele>1156</ele>
        <time>2013-09-15T12:28:06.000Z</time>
      </trkpt>
      <trkpt lat="45.00606" lon="5.60652">
        <ele>1151</ele>
        <time>2013-09-15T12:28:07.000Z</time>
      </trkpt>
      <trkpt lat="45.00615" lon="5.60657">
        <ele>1147</ele>
        <time>2013-09-15T12:28:08.000Z</time>
      </trkpt>
      <trkpt lat="45.00622" lon="5.60659">
        <ele>1143</ele>
        <time>2013-09-15T12:28:09.000Z</time>
      </trkpt>
      <trkpt lat="45.00629" lon="5.60663">
        <ele>1140</ele>
        <time>2013-09-15T12:28:10.000Z</time>
      </trkpt>
      <trkpt lat="45.00635" lon="5.60665">
        <ele>1138</ele>
        <time>2013-09-15T12:28:11.000Z</time>
      </trkpt>
      <trkpt lat="45.0064" lon="5.60668">
        <ele>1136</ele>
        <time>2013-09-15T12:28:12.000Z</time>
      </trkpt>
      <trkpt lat="45.00646" lon="5.60672">
        <ele>1134</ele>
        <time>2013-09-15T12:28:13.000Z</time>
      </trkpt>
      <trkpt lat="45.00653" lon="5.60678">
        <ele>1132</ele>
        <time>2013-09-15T12:28:15.000Z</time>
      </trkpt>
      <trkpt lat="45.00659" lon="5.60687">
        <ele>1131</ele>
        <time>2013-09-15T12:28:17.000Z</time>
      </trkpt>
      <trkpt lat="45.00664" lon="5.60693">
        <ele>1131</ele>
        <time>2013-09-15T12:28:19.000Z</time>
      </trkpt>
      <trkpt lat="45.00669" lon="5.60698">
        <ele>1131</ele>
        <time>2013-09-15T12:28:21.000Z</time>
      </trkpt>
      <trkpt lat="45.00675" lon="5.60702">
        <ele>1131</ele>
        <time>2013-09-15T12:28:23.000Z</time>
      </trkpt>
      <trkpt lat="45.00679" lon="5.60704">
        <ele>1130</ele>
        <time>2013-09-15T12:28:24.000Z</time>
      </trkpt>
      <trkpt lat="45.00686" lon="5.6071">
        <ele>1128</ele>
        <time>2013-09-15T12:28:26.000Z</time>
      </trkpt>
      <trkpt lat="45.0069" lon="5.60712">
        <ele>1127</ele>
        <time>2013-09-15T12:28:27.000Z</time>
      </trkpt>
      <trkpt lat="45.00696" lon="5.60719">
        <ele>1127</ele>
        <time>2013-09-15T12:28:29.000Z</time>
      </trkpt>
      <trkpt lat="45.00702" lon="5.60723">
        <ele>1126</ele>
        <time>2013-09-15T12:28:31.000Z</time>
      </trkpt>
      <trkpt lat="45.00707" lon="5.6073">
        <ele>1126</ele>
        <time>2013-09-15T12:28:33.000Z</time>
      </trkpt>
      <trkpt lat="45.00712" lon="5.60738">
        <ele>1126</ele>
        <time>2013-09-15T12:28:35.000Z</time>
      </trkpt>
      <trkpt lat="45.00716" lon="5.60747">
        <ele>1126</ele>
        <time>2013-09-15T12:28:37.000Z</time>
      </trkpt>
      <trkpt lat="45.00719" lon="5.60753">
        <ele>1126</ele>
        <time>2013-09-15T12:28:39.000Z</time>
      </trkpt>
      <trkpt lat="45.00719" lon="5.60753">
        <ele>1126</ele>
        <time>2013-09-15T12:28:39.000Z</time>
      </trkpt>
      <trkpt lat="45.00719" lon="5.60753">
        <ele>1126</ele>
        <time>2013-09-15T12:28:43.000Z</time>
      </trkpt>
      <trkpt lat="45.00721" lon="5.6076">
        <ele>1126</ele>
        <time>2013-09-15T12:28:44.000Z</time>
      </trkpt>
      <trkpt lat="45.00721" lon="5.6076">
        <ele>1126</ele>
        <time>2013-09-15T12:28:44.000Z</time>
      </trkpt>
      <trkpt lat="45.00721" lon="5.6076">
        <ele>1126</ele>
        <time>2013-09-15T12:28:47.000Z</time>
      </trkpt>
      <trkpt lat="45.00726" lon="5.60773">
        <ele>1125</ele>
        <time>2013-09-15T12:28:48.000Z</time>
      </trkpt>
      <trkpt lat="45.00726" lon="5.60773">
        <ele>1125</ele>
        <time>2013-09-15T12:28:48.000Z</time>
      </trkpt>
      <trkpt lat="45.00726" lon="5.60773">
        <ele>1125</ele>
        <time>2013-09-15T12:28:50.000Z</time>
      </trkpt>
      <trkpt lat="45.00728" lon="5.60786">
        <ele>1125</ele>
        <time>2013-09-15T12:28:51.000Z</time>
      </trkpt>
      <trkpt lat="45.00731" lon="5.60794">
        <ele>1125</ele>
        <time>2013-09-15T12:28:53.000Z</time>
      </trkpt>
      <trkpt lat="45.00804" lon="5.60972">
        <ele>1122</ele>
        <time>2013-09-15T12:29:37.000Z</time>
      </trkpt>
      <trkpt lat="45.00809" lon="5.60979">
        <ele>1122</ele>
        <time>2013-09-15T12:29:38.000Z</time>
      </trkpt>
      <trkpt lat="45.00815" lon="5.60983">
        <ele>1121</ele>
        <time>2013-09-15T12:29:39.000Z</time>
      </trkpt>
      <trkpt lat="45.0082" lon="5.60989">
        <ele>1120</ele>
        <time>2013-09-15T12:29:40.000Z</time>
      </trkpt>
      <trkpt lat="45.00825" lon="5.60994">
        <ele>1120</ele>
        <time>2013-09-15T12:29:41.000Z</time>
      </trkpt>
      <trkpt lat="45.0083" lon="5.61">
        <ele>1120</ele>
        <time>2013-09-15T12:29:42.000Z</time>
      </trkpt>
      <trkpt lat="45.00835" lon="5.61004">
        <ele>1120</ele>
        <time>2013-09-15T12:29:43.000Z</time>
      </trkpt>
      <trkpt lat="45.00842" lon="5.61013">
        <ele>1119</ele>
        <time>2013-09-15T12:29:45.000Z</time>
      </trkpt>
      <trkpt lat="45.00842" lon="5.61013">
        <ele>1119</ele>
        <time>2013-09-15T12:29:45.000Z</time>
      </trkpt>
      <trkpt lat="45.00842" lon="5.61013">
        <ele>1119</ele>
        <time>2013-09-15T12:29:48.000Z</time>
      </trkpt>
      <trkpt lat="45.0085" lon="5.61024">
        <ele>1119</ele>
        <time>2013-09-15T12:29:49.000Z</time>
      </trkpt>
      <trkpt lat="45.0085" lon="5.61024">
        <ele>1119</ele>
        <time>2013-09-15T12:29:49.000Z</time>
      </trkpt>
      <trkpt lat="45.0085" lon="5.61024">
        <ele>1119</ele>
        <time>2013-09-15T12:29:53.000Z</time>
      </trkpt>
      <trkpt lat="45.00853" lon="5.61034">
        <ele>1119</ele>
        <time>2013-09-15T12:29:54.000Z</time>
      </trkpt>
      <trkpt lat="45.00853" lon="5.61034">
        <ele>1119</ele>
        <time>2013-09-15T12:29:54.000Z</time>
      </trkpt>
      <trkpt lat="45.00853" lon="5.61034">
        <ele>1119</ele>
        <time>2013-09-15T12:29:58.000Z</time>
      </trkpt>
      <trkpt lat="45.00859" lon="5.61043">
        <ele>1119</ele>
        <time>2013-09-15T12:29:59.000Z</time>
      </trkpt>
      <trkpt lat="45.00859" lon="5.61043">
        <ele>1119</ele>
        <time>2013-09-15T12:29:59.000Z</time>
      </trkpt>
      <trkpt lat="45.00859" lon="5.61043">
        <ele>1119</ele>
        <time>2013-09-15T12:30:01.000Z</time>
      </trkpt>
      <trkpt lat="45.00868" lon="5.61052">
        <ele>1119</ele>
        <time>2013-09-15T12:30:02.000Z</time>
      </trkpt>
      <trkpt lat="45.00872" lon="5.61056">
        <ele>1119</ele>
        <time>2013-09-15T12:30:03.000Z</time>
      </trkpt>
      <trkpt lat="45.00876" lon="5.61058">
        <ele>1119</ele>
        <time>2013-09-15T12:30:04.000Z</time>
      </trkpt>
      <trkpt lat="45.00882" lon="5.6106">
        <ele>1119</ele>
        <time>2013-09-15T12:30:05.000Z</time>
      </trkpt>
      <trkpt lat="45.00887" lon="5.61062">
        <ele>1119</ele>
        <time>2013-09-15T12:30:06.000Z</time>
      </trkpt>
      <trkpt lat="45.00894" lon="5.61067">
        <ele>1119</ele>
        <time>2013-09-15T12:30:07.000Z</time>
      </trkpt>
      <trkpt lat="45.00902" lon="5.61073">
        <ele>1119</ele>
        <time>2013-09-15T12:30:08.000Z</time>
      </trkpt>
      <trkpt lat="45.00913" lon="5.6108">
        <ele>1119</ele>
        <time>2013-09-15T12:30:09.000Z</time>
      </trkpt>
      <trkpt lat="45.00923" lon="5.61084">
        <ele>1119</ele>
        <time>2013-09-15T12:30:10.000Z</time>
      </trkpt>
      <trkpt lat="45.00931" lon="5.61088">
        <ele>1119</ele>
        <time>2013-09-15T12:30:11.000Z</time>
      </trkpt>
      <trkpt lat="45.00939" lon="5.61092">
        <ele>1119</ele>
        <time>2013-09-15T12:30:12.000Z</time>
      </trkpt>
      <trkpt lat="45.00945" lon="5.61094">
        <ele>1118</ele>
        <time>2013-09-15T12:30:13.000Z</time>
      </trkpt>
      <trkpt lat="45.00952" lon="5.61097">
        <ele>1118</ele>
        <time>2013-09-15T12:30:14.000Z</time>
      </trkpt>
      <trkpt lat="45.00958" lon="5.61099">
        <ele>1118</ele>
        <time>2013-09-15T12:30:15.000Z</time>
      </trkpt>
      <trkpt lat="45.00963" lon="5.61101">
        <ele>1118</ele>
        <time>2013-09-15T12:30:16.000Z</time>
      </trkpt>
      <trkpt lat="45.0097" lon="5.61103">
        <ele>1117</ele>
        <time>2013-09-15T12:30:17.000Z</time>
      </trkpt>
      <trkpt lat="45.00976" lon="5.61107">
        <ele>1114</ele>
        <time>2013-09-15T12:30:18.000Z</time>
      </trkpt>
      <trkpt lat="45.00982" lon="5.6111">
        <ele>1112</ele>
        <time>2013-09-15T12:30:19.000Z</time>
      </trkpt>
      <trkpt lat="45.00987" lon="5.61112">
        <ele>1110</ele>
        <time>2013-09-15T12:30:20.000Z</time>
      </trkpt>
      <trkpt lat="45.00992" lon="5.61114">
        <ele>1109</ele>
        <time>2013-09-15T12:30:21.000Z</time>
      </trkpt>
      <trkpt lat="45.00998" lon="5.61116">
        <ele>1108</ele>
        <time>2013-09-15T12:30:22.000Z</time>
      </trkpt>
      <trkpt lat="45.01003" lon="5.61118">
        <ele>1107</ele>
        <time>2013-09-15T12:30:23.000Z</time>
      </trkpt>
      <trkpt lat="45.01007" lon="5.6112">
        <ele>1106</ele>
        <time>2013-09-15T12:30:24.000Z</time>
      </trkpt>
      <trkpt lat="45.01013" lon="5.61122">
        <ele>1105</ele>
        <time>2013-09-15T12:30:25.000Z</time>
      </trkpt>
      <trkpt lat="45.01017" lon="5.61127">
        <ele>1105</ele>
        <time>2013-09-15T12:30:26.000Z</time>
      </trkpt>
      <trkpt lat="45.01022" lon="5.61129">
        <ele>1104</ele>
        <time>2013-09-15T12:30:27.000Z</time>
      </trkpt>
      <trkpt lat="45.01027" lon="5.61131">
        <ele>1103</ele>
        <time>2013-09-15T12:30:28.000Z</time>
      </trkpt>
      <trkpt lat="45.01032" lon="5.61133">
        <ele>1103</ele>
        <time>2013-09-15T12:30:29.000Z</time>
      </trkpt>
      <trkpt lat="45.01036" lon="5.61137">
        <ele>1102</ele>
        <time>2013-09-15T12:30:30.000Z</time>
      </trkpt>
      <trkpt lat="45.01041" lon="5.6114">
        <ele>1102</ele>
        <time>2013-09-15T12:30:31.000Z</time>
      </trkpt>
      <trkpt lat="45.01045" lon="5.61144">
        <ele>1101</ele>
        <time>2013-09-15T12:30:32.000Z</time>
      </trkpt>
      <trkpt lat="45.01049" lon="5.61146">
        <ele>1101</ele>
        <time>2013-09-15T12:30:33.000Z</time>
      </trkpt>
      <trkpt lat="45.01054" lon="5.6115">
        <ele>1100</ele>
        <time>2013-09-15T12:30:34.000Z</time>
      </trkpt>
      <trkpt lat="45.01059" lon="5.61155">
        <ele>1100</ele>
        <time>2013-09-15T12:30:35.000Z</time>
      </trkpt>
      <trkpt lat="45.01065" lon="5.61159">
        <ele>1100</ele>
        <time>2013-09-15T12:30:36.000Z</time>
      </trkpt>
      <trkpt lat="45.01071" lon="5.61163">
        <ele>1099</ele>
        <time>2013-09-15T12:30:37.000Z</time>
      </trkpt>
      <trkpt lat="45.01076" lon="5.6117">
        <ele>1099</ele>
        <time>2013-09-15T12:30:38.000Z</time>
      </trkpt>
      <trkpt lat="45.01081" lon="5.61174">
        <ele>1099</ele>
        <time>2013-09-15T12:30:39.000Z</time>
      </trkpt>
      <trkpt lat="45.01087" lon="5.61178">
        <ele>1099</ele>
        <time>2013-09-15T12:30:40.000Z</time>
      </trkpt>
      <trkpt lat="45.01092" lon="5.61182">
        <ele>1099</ele>
        <time>2013-09-15T12:30:41.000Z</time>
      </trkpt>
      <trkpt lat="45.011" lon="5.61187">
        <ele>1099</ele>
        <time>2013-09-15T12:30:43.000Z</time>
      </trkpt>
      <trkpt lat="45.011" lon="5.61187">
        <ele>1099</ele>
        <time>2013-09-15T12:30:43.000Z</time>
      </trkpt>
      <trkpt lat="45.01104" lon="5.6118">
        <ele>1094</ele>
        <time>2013-09-15T12:31:30.000Z</time>
      </trkpt>
      <trkpt lat="45.01104" lon="5.6118">
        <ele>1094</ele>
        <time>2013-09-15T12:31:30.000Z</time>
      </trkpt>
      <trkpt lat="45.01104" lon="5.6118">
        <ele>1094</ele>
        <time>2013-09-15T12:33:13.000Z</time>
      </trkpt>
      <trkpt lat="45.01115" lon="5.61182">
        <ele>1078</ele>
        <time>2013-09-15T12:33:14.000Z</time>
      </trkpt>
      <trkpt lat="45.01115" lon="5.61182">
        <ele>1078</ele>
        <time>2013-09-15T12:33:14.000Z</time>
      </trkpt>
      <trkpt lat="45.01115" lon="5.61182">
        <ele>1078</ele>
        <time>2013-09-15T12:33:18.000Z</time>
      </trkpt>
      <trkpt lat="45.01124" lon="5.6118">
        <ele>1074</ele>
        <time>2013-09-15T12:33:19.000Z</time>
      </trkpt>
      <trkpt lat="45.01124" lon="5.6118">
        <ele>1074</ele>
        <time>2013-09-15T12:33:19.000Z</time>
      </trkpt>
      <trkpt lat="45.01124" lon="5.6118">
        <ele>1074</ele>
        <time>2013-09-15T12:33:23.000Z</time>
      </trkpt>
      <trkpt lat="45.01133" lon="5.61176">
        <ele>1070</ele>
        <time>2013-09-15T12:33:24.000Z</time>
      </trkpt>
      <trkpt lat="45.01133" lon="5.61176">
        <ele>1070</ele>
        <time>2013-09-15T12:33:24.000Z</time>
      </trkpt>
      <trkpt lat="45.01133" lon="5.61176">
        <ele>1070</ele>
        <time>2013-09-15T12:33:43.000Z</time>
      </trkpt>
      <trkpt lat="45.01136" lon="5.6117">
        <ele>1065</ele>
        <time>2013-09-15T12:33:46.000Z</time>
      </trkpt>
      <trkpt lat="45.01137" lon="5.61163">
        <ele>1063</ele>
        <time>2013-09-15T12:33:49.000Z</time>
      </trkpt>
      <trkpt lat="45.01137" lon="5.61157">
        <ele>1063</ele>
        <time>2013-09-15T12:33:53.000Z</time>
      </trkpt>
      <trkpt lat="45.01137" lon="5.61157">
        <ele>1063</ele>
        <time>2013-09-15T12:33:53.000Z</time>
      </trkpt>
      <trkpt lat="45.01137" lon="5.61157">
        <ele>1063</ele>
        <time>2013-09-15T12:33:54.000Z</time>
      </trkpt>
      <trkpt lat="45.01142" lon="5.61161">
        <ele>1060</ele>
        <time>2013-09-15T12:34:02.000Z</time>
      </trkpt>
      <trkpt lat="45.01145" lon="5.61167">
        <ele>1058</ele>
        <time>2013-09-15T12:34:05.000Z</time>
      </trkpt>
      <trkpt lat="45.0115" lon="5.61172">
        <ele>1057</ele>
        <time>2013-09-15T12:34:07.000Z</time>
      </trkpt>
      <trkpt lat="45.01154" lon="5.61174">
        <ele>1052</ele>
        <time>2013-09-15T12:34:08.000Z</time>
      </trkpt>
      <trkpt lat="45.01159" lon="5.61176">
        <ele>1048</ele>
        <time>2013-09-15T12:34:09.000Z</time>
      </trkpt>
      <trkpt lat="45.01165" lon="5.6118">
        <ele>1044</ele>
        <time>2013-09-15T12:34:11.000Z</time>
      </trkpt>
      <trkpt lat="45.01165" lon="5.6118">
        <ele>1044</ele>
        <time>2013-09-15T12:34:11.000Z</time>
      </trkpt>
      <trkpt lat="45.01165" lon="5.6118">
        <ele>1044</ele>
        <time>2013-09-15T12:35:43.000Z</time>
      </trkpt>
      <trkpt lat="45.01177" lon="5.61187">
        <ele>1039</ele>
        <time>2013-09-15T12:35:44.000Z</time>
      </trkpt>
      <trkpt lat="45.01181" lon="5.61191">
        <ele>1039</ele>
        <time>2013-09-15T12:35:45.000Z</time>
      </trkpt>
      <trkpt lat="45.01186" lon="5.61193">
        <ele>1039</ele>
        <time>2013-09-15T12:35:46.000Z</time>
      </trkpt>
      <trkpt lat="45.01193" lon="5.612">
        <ele>1038</ele>
        <time>2013-09-15T12:35:48.000Z</time>
      </trkpt>
      <trkpt lat="45.01193" lon="5.612">
        <ele>1038</ele>
        <time>2013-09-15T12:35:48.000Z</time>
      </trkpt>
      <trkpt lat="45.01193" lon="5.612">
        <ele>1038</ele>
        <time>2013-09-15T12:35:49.000Z</time>
      </trkpt>
      <trkpt lat="45.01199" lon="5.61206">
        <ele>1037</ele>
        <time>2013-09-15T12:35:50.000Z</time>
      </trkpt>
      <trkpt lat="45.01199" lon="5.61206">
        <ele>1037</ele>
        <time>2013-09-15T12:35:50.000Z</time>
      </trkpt>
      <trkpt lat="45.01199" lon="5.61206">
        <ele>1037</ele>
        <time>2013-09-15T12:35:53.000Z</time>
      </trkpt>
      <trkpt lat="45.01207" lon="5.61215">
        <ele>1036</ele>
        <time>2013-09-15T12:35:54.000Z</time>
      </trkpt>
      <trkpt lat="45.01207" lon="5.61215">
        <ele>1036</ele>
        <time>2013-09-15T12:35:54.000Z</time>
      </trkpt>
      <trkpt lat="45.01207" lon="5.61215">
        <ele>1036</ele>
        <time>2013-09-15T12:35:56.000Z</time>
      </trkpt>
      <trkpt lat="45.01209" lon="5.61223">
        <ele>1035</ele>
        <time>2013-09-15T12:35:57.000Z</time>
      </trkpt>
      <trkpt lat="45.0121" lon="5.6123">
        <ele>1034</ele>
        <time>2013-09-15T12:35:59.000Z</time>
      </trkpt>
      <trkpt lat="45.01211" lon="5.61238">
        <ele>1034</ele>
        <time>2013-09-15T12:36:01.000Z</time>
      </trkpt>
      <trkpt lat="45.01211" lon="5.61238">
        <ele>1034</ele>
        <time>2013-09-15T12:36:01.000Z</time>
      </trkpt>
      <trkpt lat="45.01211" lon="5.61238">
        <ele>1034</ele>
        <time>2013-09-15T12:36:04.000Z</time>
      </trkpt>
      <trkpt lat="45.01219" lon="5.61251">
        <ele>1034</ele>
        <time>2013-09-15T12:36:05.000Z</time>
      </trkpt>
      <trkpt lat="45.01219" lon="5.61251">
        <ele>1034</ele>
        <time>2013-09-15T12:36:05.000Z</time>
      </trkpt>
      <trkpt lat="45.01219" lon="5.61251">
        <ele>1034</ele>
        <time>2013-09-15T12:36:08.000Z</time>
      </trkpt>
      <trkpt lat="45.01225" lon="5.6126">
        <ele>1032</ele>
        <time>2013-09-15T12:36:09.000Z</time>
      </trkpt>
      <trkpt lat="45.01225" lon="5.6126">
        <ele>1032</ele>
        <time>2013-09-15T12:36:09.000Z</time>
      </trkpt>
      <trkpt lat="45.01225" lon="5.6126">
        <ele>1032</ele>
        <time>2013-09-15T12:36:11.000Z</time>
      </trkpt>
      <trkpt lat="45.0123" lon="5.61268">
        <ele>1031</ele>
        <time>2013-09-15T12:36:12.000Z</time>
      </trkpt>
      <trkpt lat="45.01234" lon="5.61275">
        <ele>1031</ele>
        <time>2013-09-15T12:36:13.000Z</time>
      </trkpt>
      <trkpt lat="45.01238" lon="5.61279">
        <ele>1031</ele>
        <time>2013-09-15T12:36:14.000Z</time>
      </trkpt>
      <trkpt lat="45.01242" lon="5.61281">
        <ele>1030</ele>
        <time>2013-09-15T12:36:15.000Z</time>
      </trkpt>
      <trkpt lat="45.01247" lon="5.61283">
        <ele>1030</ele>
        <time>2013-09-15T12:36:16.000Z</time>
      </trkpt>
      <trkpt lat="45.01252" lon="5.61285">
        <ele>1025</ele>
        <time>2013-09-15T12:36:17.000Z</time>
      </trkpt>
      <trkpt lat="45.01257" lon="5.61285">
        <ele>1021</ele>
        <time>2013-09-15T12:36:18.000Z</time>
      </trkpt>
      <trkpt lat="45.01263" lon="5.61285">
        <ele>1017</ele>
        <time>2013-09-15T12:36:19.000Z</time>
      </trkpt>
      <trkpt lat="45.01268" lon="5.61288">
        <ele>1014</ele>
        <time>2013-09-15T12:36:20.000Z</time>
      </trkpt>
      <trkpt lat="45.01274" lon="5.61288">
        <ele>1012</ele>
        <time>2013-09-15T12:36:21.000Z</time>
      </trkpt>
      <trkpt lat="45.0128" lon="5.61288">
        <ele>1010</ele>
        <time>2013-09-15T12:36:22.000Z</time>
      </trkpt>
      <trkpt lat="45.01285" lon="5.61288">
        <ele>1008</ele>
        <time>2013-09-15T12:36:23.000Z</time>
      </trkpt>
      <trkpt lat="45.01292" lon="5.6129">
        <ele>1007</ele>
        <time>2013-09-15T12:36:24.000Z</time>
      </trkpt>
      <trkpt lat="45.01297" lon="5.6129">
        <ele>1005</ele>
        <time>2013-09-15T12:36:25.000Z</time>
      </trkpt>
      <trkpt lat="45.01304" lon="5.61292">
        <ele>1004</ele>
        <time>2013-09-15T12:36:26.000Z</time>
      </trkpt>
      <trkpt lat="45.01309" lon="5.61294">
        <ele>1003</ele>
        <time>2013-09-15T12:36:27.000Z</time>
      </trkpt>
      <trkpt lat="45.01314" lon="5.61294">
        <ele>1002</ele>
        <time>2013-09-15T12:36:28.000Z</time>
      </trkpt>
      <trkpt lat="45.0132" lon="5.61296">
        <ele>1001</ele>
        <time>2013-09-15T12:36:29.000Z</time>
      </trkpt>
      <trkpt lat="45.01325" lon="5.61298">
        <ele>1001</ele>
        <time>2013-09-15T12:36:30.000Z</time>
      </trkpt>
      <trkpt lat="45.0133" lon="5.613">
        <ele>1000</ele>
        <time>2013-09-15T12:36:31.000Z</time>
      </trkpt>
      <trkpt lat="45.01336" lon="5.61303">
        <ele>1000</ele>
        <time>2013-09-15T12:36:32.000Z</time>
      </trkpt>
      <trkpt lat="45.01342" lon="5.61307">
        <ele>1000</ele>
        <time>2013-09-15T12:36:33.000Z</time>
      </trkpt>
      <trkpt lat="45.01348" lon="5.61309">
        <ele>1000</ele>
        <time>2013-09-15T12:36:34.000Z</time>
      </trkpt>
      <trkpt lat="45.01353" lon="5.61311">
        <ele>999</ele>
        <time>2013-09-15T12:36:35.000Z</time>
      </trkpt>
      <trkpt lat="45.0136" lon="5.61316">
        <ele>999</ele>
        <time>2013-09-15T12:36:36.000Z</time>
      </trkpt>
      <trkpt lat="45.01367" lon="5.6132">
        <ele>1000</ele>
        <time>2013-09-15T12:36:37.000Z</time>
      </trkpt>
      <trkpt lat="45.01373" lon="5.61322">
        <ele>1000</ele>
        <time>2013-09-15T12:36:38.000Z</time>
      </trkpt>
      <trkpt lat="45.01381" lon="5.61326">
        <ele>1000</ele>
        <time>2013-09-15T12:36:39.000Z</time>
      </trkpt>
      <trkpt lat="45.01387" lon="5.61328">
        <ele>1000</ele>
        <time>2013-09-15T12:36:40.000Z</time>
      </trkpt>
      <trkpt lat="45.01394" lon="5.6133">
        <ele>1000</ele>
        <time>2013-09-15T12:36:41.000Z</time>
      </trkpt>
      <trkpt lat="45.014" lon="5.61335">
        <ele>999</ele>
        <time>2013-09-15T12:36:42.000Z</time>
      </trkpt>
      <trkpt lat="45.01405" lon="5.61337">
        <ele>999</ele>
        <time>2013-09-15T12:36:43.000Z</time>
      </trkpt>
      <trkpt lat="45.01411" lon="5.61341">
        <ele>998</ele>
        <time>2013-09-15T12:36:44.000Z</time>
      </trkpt>
      <trkpt lat="45.01416" lon="5.61343">
        <ele>998</ele>
        <time>2013-09-15T12:36:45.000Z</time>
      </trkpt>
      <trkpt lat="45.01422" lon="5.61348">
        <ele>998</ele>
        <time>2013-09-15T12:36:46.000Z</time>
      </trkpt>
      <trkpt lat="45.01426" lon="5.6135">
        <ele>997</ele>
        <time>2013-09-15T12:36:47.000Z</time>
      </trkpt>
      <trkpt lat="45.0143" lon="5.61354">
        <ele>997</ele>
        <time>2013-09-15T12:36:49.000Z</time>
      </trkpt>
      <trkpt lat="45.01436" lon="5.61356">
        <ele>997</ele>
        <time>2013-09-15T12:36:57.000Z</time>
      </trkpt>
      <trkpt lat="45.01436" lon="5.61356">
        <ele>997</ele>
        <time>2013-09-15T12:36:57.000Z</time>
      </trkpt>
      <trkpt lat="45.01436" lon="5.61356">
        <ele>997</ele>
        <time>2013-09-15T12:37:40.000Z</time>
      </trkpt>
      <trkpt lat="45.01442" lon="5.61356">
        <ele>992</ele>
        <time>2013-09-15T12:40:05.000Z</time>
      </trkpt>
      <trkpt lat="45.01447" lon="5.61356">
        <ele>992</ele>
        <time>2013-09-15T12:40:08.000Z</time>
      </trkpt>
      <trkpt lat="45.01453" lon="5.61356">
        <ele>992</ele>
        <time>2013-09-15T12:40:12.000Z</time>
      </trkpt>
      <trkpt lat="45.01455" lon="5.61363">
        <ele>992</ele>
        <time>2013-09-15T12:40:18.000Z</time>
      </trkpt>
      <trkpt lat="45.01454" lon="5.61369">
        <ele>992</ele>
        <time>2013-09-15T12:40:21.000Z</time>
      </trkpt>
      <trkpt lat="45.01456" lon="5.61376">
        <ele>991</ele>
        <time>2013-09-15T12:40:25.000Z</time>
      </trkpt>
      <trkpt lat="45.01459" lon="5.61382">
        <ele>991</ele>
        <time>2013-09-15T12:40:29.000Z</time>
      </trkpt>
      <trkpt lat="45.01462" lon="5.61388">
        <ele>991</ele>
        <time>2013-09-15T12:40:32.000Z</time>
      </trkpt>
      <trkpt lat="45.01466" lon="5.61395">
        <ele>991</ele>
        <time>2013-09-15T12:40:35.000Z</time>
      </trkpt>
      <trkpt lat="45.01471" lon="5.61401">
        <ele>990</ele>
        <time>2013-09-15T12:40:39.000Z</time>
      </trkpt>
      <trkpt lat="45.01475" lon="5.61406">
        <ele>990</ele>
        <time>2013-09-15T12:40:43.000Z</time>
      </trkpt>
      <trkpt lat="45.0148" lon="5.6141">
        <ele>990</ele>
        <time>2013-09-15T12:40:46.000Z</time>
      </trkpt>
      <trkpt lat="45.01485" lon="5.61414">
        <ele>990</ele>
        <time>2013-09-15T12:40:49.000Z</time>
      </trkpt>
      <trkpt lat="45.01489" lon="5.61421">
        <ele>990</ele>
        <time>2013-09-15T12:40:52.000Z</time>
      </trkpt>
      <trkpt lat="45.01492" lon="5.61425">
        <ele>990</ele>
        <time>2013-09-15T12:40:54.000Z</time>
      </trkpt>
      <trkpt lat="45.01496" lon="5.61429">
        <ele>990</ele>
        <time>2013-09-15T12:40:57.000Z</time>
      </trkpt>
      <trkpt lat="45.01499" lon="5.61436">
        <ele>990</ele>
        <time>2013-09-15T12:41:00.000Z</time>
      </trkpt>
      <trkpt lat="45.01503" lon="5.6144">
        <ele>990</ele>
        <time>2013-09-15T12:41:03.000Z</time>
      </trkpt>
      <trkpt lat="45.01507" lon="5.61446">
        <ele>989</ele>
        <time>2013-09-15T12:41:06.000Z</time>
      </trkpt>
      <trkpt lat="45.01513" lon="5.61453">
        <ele>989</ele>
        <time>2013-09-15T12:41:10.000Z</time>
      </trkpt>
      <trkpt lat="45.01516" lon="5.61457">
        <ele>989</ele>
        <time>2013-09-15T12:41:13.000Z</time>
      </trkpt>
      <trkpt lat="45.01519" lon="5.61461">
        <ele>989</ele>
        <time>2013-09-15T12:41:15.000Z</time>
      </trkpt>
      <trkpt lat="45.01523" lon="5.61464">
        <ele>989</ele>
        <time>2013-09-15T12:41:18.000Z</time>
      </trkpt>
      <trkpt lat="45.01529" lon="5.61466">
        <ele>989</ele>
        <time>2013-09-15T12:41:21.000Z</time>
      </trkpt>
      <trkpt lat="45.01533" lon="5.61468">
        <ele>989</ele>
        <time>2013-09-15T12:41:24.000Z</time>
      </trkpt>
      <trkpt lat="45.01537" lon="5.6147">
        <ele>990</ele>
        <time>2013-09-15T12:41:27.000Z</time>
      </trkpt>
      <trkpt lat="45.01544" lon="5.6147">
        <ele>990</ele>
        <time>2013-09-15T12:41:31.000Z</time>
      </trkpt>
      <trkpt lat="45.0155" lon="5.6147">
        <ele>990</ele>
        <time>2013-09-15T12:41:35.000Z</time>
      </trkpt>
      <trkpt lat="45.01556" lon="5.6147">
        <ele>990</ele>
        <time>2013-09-15T12:41:38.000Z</time>
      </trkpt>
      <trkpt lat="45.0156" lon="5.61468">
        <ele>990</ele>
        <time>2013-09-15T12:41:41.000Z</time>
      </trkpt>
      <trkpt lat="45.01565" lon="5.61466">
        <ele>991</ele>
        <time>2013-09-15T12:41:45.000Z</time>
      </trkpt>
      <trkpt lat="45.0157" lon="5.61461">
        <ele>991</ele>
        <time>2013-09-15T12:41:49.000Z</time>
      </trkpt>
      <trkpt lat="45.01574" lon="5.61455">
        <ele>991</ele>
        <time>2013-09-15T12:41:53.000Z</time>
      </trkpt>
      <trkpt lat="45.01577" lon="5.61448">
        <ele>992</ele>
        <time>2013-09-15T12:41:57.000Z</time>
      </trkpt>
      <trkpt lat="45.01581" lon="5.61444">
        <ele>992</ele>
        <time>2013-09-15T12:42:00.000Z</time>
      </trkpt>
      <trkpt lat="45.01586" lon="5.61438">
        <ele>992</ele>
        <time>2013-09-15T12:42:04.000Z</time>
      </trkpt>
      <trkpt lat="45.01591" lon="5.61434">
        <ele>992</ele>
        <time>2013-09-15T12:42:08.000Z</time>
      </trkpt>
      <trkpt lat="45.01595" lon="5.61429">
        <ele>993</ele>
        <time>2013-09-15T12:42:12.000Z</time>
      </trkpt>
      <trkpt lat="45.016" lon="5.61423">
        <ele>993</ele>
        <time>2013-09-15T12:42:17.000Z</time>
      </trkpt>
      <trkpt lat="45.01604" lon="5.61418">
        <ele>994</ele>
        <time>2013-09-15T12:42:21.000Z</time>
      </trkpt>
      <trkpt lat="45.01608" lon="5.61414">
        <ele>994</ele>
        <time>2013-09-15T12:42:25.000Z</time>
      </trkpt>
      <trkpt lat="45.01608" lon="5.61414">
        <ele>994</ele>
        <time>2013-09-15T12:42:25.000Z</time>
      </trkpt>
      <trkpt lat="45.01608" lon="5.61414">
        <ele>994</ele>
        <time>2013-09-15T12:42:26.000Z</time>
      </trkpt>
      <trkpt lat="45.01612" lon="5.61412">
        <ele>994</ele>
        <time>2013-09-15T12:42:29.000Z</time>
      </trkpt>
      <trkpt lat="45.01617" lon="5.61408">
        <ele>995</ele>
        <time>2013-09-15T12:42:33.000Z</time>
      </trkpt>
      <trkpt lat="45.01621" lon="5.61404">
        <ele>996</ele>
        <time>2013-09-15T12:42:37.000Z</time>
      </trkpt>
      <trkpt lat="45.01625" lon="5.61397">
        <ele>996</ele>
        <time>2013-09-15T12:42:40.000Z</time>
      </trkpt>
      <trkpt lat="45.0163" lon="5.61391">
        <ele>996</ele>
        <time>2013-09-15T12:42:43.000Z</time>
      </trkpt>
      <trkpt lat="45.01634" lon="5.61384">
        <ele>997</ele>
        <time>2013-09-15T12:42:46.000Z</time>
      </trkpt>
      <trkpt lat="45.01638" lon="5.61378">
        <ele>997</ele>
        <time>2013-09-15T12:42:50.000Z</time>
      </trkpt>
      <trkpt lat="45.01642" lon="5.61373">
        <ele>998</ele>
        <time>2013-09-15T12:42:53.000Z</time>
      </trkpt>
      <trkpt lat="45.01647" lon="5.61367">
        <ele>998</ele>
        <time>2013-09-15T12:42:57.000Z</time>
      </trkpt>
      <trkpt lat="45.01651" lon="5.61363">
        <ele>999</ele>
        <time>2013-09-15T12:43:01.000Z</time>
      </trkpt>
      <trkpt lat="45.01655" lon="5.61358">
        <ele>999</ele>
        <time>2013-09-15T12:43:05.000Z</time>
      </trkpt>
      <trkpt lat="45.0166" lon="5.61356">
        <ele>1000</ele>
        <time>2013-09-15T12:43:08.000Z</time>
      </trkpt>
      <trkpt lat="45.01666" lon="5.61356">
        <ele>1000</ele>
        <time>2013-09-15T12:43:12.000Z</time>
      </trkpt>
      <trkpt lat="45.0167" lon="5.61354">
        <ele>1001</ele>
        <time>2013-09-15T12:43:15.000Z</time>
      </trkpt>
      <trkpt lat="45.01675" lon="5.6135">
        <ele>1002</ele>
        <time>2013-09-15T12:43:18.000Z</time>
      </trkpt>
      <trkpt lat="45.01679" lon="5.61346">
        <ele>1002</ele>
        <time>2013-09-15T12:43:21.000Z</time>
      </trkpt>
      <trkpt lat="45.01683" lon="5.61343">
        <ele>1003</ele>
        <time>2013-09-15T12:43:24.000Z</time>
      </trkpt>
      <trkpt lat="45.01688" lon="5.61341">
        <ele>1004</ele>
        <time>2013-09-15T12:43:27.000Z</time>
      </trkpt>
      <trkpt lat="45.01692" lon="5.61339">
        <ele>1004</ele>
        <time>2013-09-15T12:43:30.000Z</time>
      </trkpt>
      <trkpt lat="45.01697" lon="5.61337">
        <ele>1005</ele>
        <time>2013-09-15T12:43:33.000Z</time>
      </trkpt>
      <trkpt lat="45.01703" lon="5.61335">
        <ele>1006</ele>
        <time>2013-09-15T12:43:36.000Z</time>
      </trkpt>
      <trkpt lat="45.01708" lon="5.61335">
        <ele>1006</ele>
        <time>2013-09-15T12:43:39.000Z</time>
      </trkpt>
      <trkpt lat="45.01714" lon="5.61335">
        <ele>1007</ele>
        <time>2013-09-15T12:43:43.000Z</time>
      </trkpt>
      <trkpt lat="45.0172" lon="5.61337">
        <ele>1008</ele>
        <time>2013-09-15T12:43:46.000Z</time>
      </trkpt>
      <trkpt lat="45.01724" lon="5.61339">
        <ele>1008</ele>
        <time>2013-09-15T12:43:49.000Z</time>
      </trkpt>
      <trkpt lat="45.01728" lon="5.61346">
        <ele>1008</ele>
        <time>2013-09-15T12:43:52.000Z</time>
      </trkpt>
      <trkpt lat="45.01734" lon="5.6135">
        <ele>1009</ele>
        <time>2013-09-15T12:43:55.000Z</time>
      </trkpt>
      <trkpt lat="45.01738" lon="5.61352">
        <ele>1009</ele>
        <time>2013-09-15T12:43:58.000Z</time>
      </trkpt>
      <trkpt lat="45.01743" lon="5.61356">
        <ele>1009</ele>
        <time>2013-09-15T12:44:01.000Z</time>
      </trkpt>
      <trkpt lat="45.01748" lon="5.61358">
        <ele>1010</ele>
        <time>2013-09-15T12:44:04.000Z</time>
      </trkpt>
      <trkpt lat="45.01753" lon="5.6136">
        <ele>1010</ele>
        <time>2013-09-15T12:44:07.000Z</time>
      </trkpt>
      <trkpt lat="45.01757" lon="5.61365">
        <ele>1010</ele>
        <time>2013-09-15T12:44:10.000Z</time>
      </trkpt>
      <trkpt lat="45.01762" lon="5.61367">
        <ele>1011</ele>
        <time>2013-09-15T12:44:13.000Z</time>
      </trkpt>
      <trkpt lat="45.01767" lon="5.61365">
        <ele>1012</ele>
        <time>2013-09-15T12:44:21.000Z</time>
      </trkpt>
      <trkpt lat="45.01767" lon="5.61365">
        <ele>1012</ele>
        <time>2013-09-15T12:44:21.000Z</time>
      </trkpt>
      <trkpt lat="45.01767" lon="5.61365">
        <ele>1012</ele>
        <time>2013-09-15T12:44:22.000Z</time>
      </trkpt>
      <trkpt lat="45.01769" lon="5.61358">
        <ele>1013</ele>
        <time>2013-09-15T12:44:35.000Z</time>
      </trkpt>
      <trkpt lat="45.01765" lon="5.61354">
        <ele>1013</ele>
        <time>2013-09-15T12:44:48.000Z</time>
      </trkpt>
      <trkpt lat="45.01765" lon="5.61354">
        <ele>1013</ele>
        <time>2013-09-15T12:44:48.000Z</time>
      </trkpt>
      <trkpt lat="45.01765" lon="5.61354">
        <ele>1014</ele>
        <time>2013-09-15T12:45:20.000Z</time>
      </trkpt>
      <trkpt lat="45.01771" lon="5.61354">
        <ele>1015</ele>
        <time>2013-09-15T12:45:28.000Z</time>
      </trkpt>
      <trkpt lat="45.01777" lon="5.61354">
        <ele>1015</ele>
        <time>2013-09-15T12:45:31.000Z</time>
      </trkpt>
      <trkpt lat="45.01782" lon="5.61352">
        <ele>1015</ele>
        <time>2013-09-15T12:45:33.000Z</time>
      </trkpt>
      <trkpt lat="45.01788" lon="5.6135">
        <ele>1016</ele>
        <time>2013-09-15T12:45:36.000Z</time>
      </trkpt>
      <trkpt lat="45.01794" lon="5.61348">
        <ele>1016</ele>
        <time>2013-09-15T12:45:39.000Z</time>
      </trkpt>
      <trkpt lat="45.01799" lon="5.61348">
        <ele>1017</ele>
        <time>2013-09-15T12:45:42.000Z</time>
      </trkpt>
      <trkpt lat="45.01804" lon="5.61346">
        <ele>1017</ele>
        <time>2013-09-15T12:45:44.000Z</time>
      </trkpt>
      <trkpt lat="45.01809" lon="5.61343">
        <ele>1017</ele>
        <time>2013-09-15T12:45:47.000Z</time>
      </trkpt>
      <trkpt lat="45.01815" lon="5.61343">
        <ele>1017</ele>
        <time>2013-09-15T12:45:50.000Z</time>
      </trkpt>
      <trkpt lat="45.01821" lon="5.61341">
        <ele>1018</ele>
        <time>2013-09-15T12:45:53.000Z</time>
      </trkpt>
      <trkpt lat="45.01826" lon="5.61341">
        <ele>1018</ele>
        <time>2013-09-15T12:45:55.000Z</time>
      </trkpt>
      <trkpt lat="45.0183" lon="5.61339">
        <ele>1018</ele>
        <time>2013-09-15T12:45:57.000Z</time>
      </trkpt>
      <trkpt lat="45.01837" lon="5.61339">
        <ele>1019</ele>
        <time>2013-09-15T12:46:00.000Z</time>
      </trkpt>
      <trkpt lat="45.01842" lon="5.61337">
        <ele>1019</ele>
        <time>2013-09-15T12:46:03.000Z</time>
      </trkpt>
      <trkpt lat="45.01848" lon="5.61335">
        <ele>1020</ele>
        <time>2013-09-15T12:46:06.000Z</time>
      </trkpt>
      <trkpt lat="45.01853" lon="5.61335">
        <ele>1020</ele>
        <time>2013-09-15T12:46:09.000Z</time>
      </trkpt>
      <trkpt lat="45.01858" lon="5.61333">
        <ele>1020</ele>
        <time>2013-09-15T12:46:12.000Z</time>
      </trkpt>
      <trkpt lat="45.01865" lon="5.6133">
        <ele>1021</ele>
        <time>2013-09-15T12:46:15.000Z</time>
      </trkpt>
      <trkpt lat="45.0187" lon="5.6133">
        <ele>1021</ele>
        <time>2013-09-15T12:46:18.000Z</time>
      </trkpt>
      <trkpt lat="45.01875" lon="5.61328">
        <ele>1021</ele>
        <time>2013-09-15T12:46:21.000Z</time>
      </trkpt>
      <trkpt lat="45.01881" lon="5.61328">
        <ele>1022</ele>
        <time>2013-09-15T12:46:24.000Z</time>
      </trkpt>
      <trkpt lat="45.01885" lon="5.61326">
        <ele>1022</ele>
        <time>2013-09-15T12:46:27.000Z</time>
      </trkpt>
      <trkpt lat="45.01889" lon="5.61324">
        <ele>1022</ele>
        <time>2013-09-15T12:46:30.000Z</time>
      </trkpt>
      <trkpt lat="45.01889" lon="5.61324">
        <ele>1022</ele>
        <time>2013-09-15T12:46:30.000Z</time>
      </trkpt>
      <trkpt lat="45.01889" lon="5.61324">
        <ele>1022</ele>
        <time>2013-09-15T12:46:43.000Z</time>
      </trkpt>
      <trkpt lat="45.01892" lon="5.61318">
        <ele>1023</ele>
        <time>2013-09-15T12:47:47.000Z</time>
      </trkpt>
      <trkpt lat="45.01892" lon="5.61318">
        <ele>1023</ele>
        <time>2013-09-15T12:47:47.000Z</time>
      </trkpt>
      <trkpt lat="45.01892" lon="5.61318">
        <ele>1024</ele>
        <time>2013-09-15T12:48:20.000Z</time>
      </trkpt>
      <trkpt lat="45.01897" lon="5.61316">
        <ele>1025</ele>
        <time>2013-09-15T12:49:10.000Z</time>
      </trkpt>
      <trkpt lat="45.01902" lon="5.61313">
        <ele>1025</ele>
        <time>2013-09-15T12:49:14.000Z</time>
      </trkpt>
      <trkpt lat="45.01906" lon="5.61316">
        <ele>1025</ele>
        <time>2013-09-15T12:49:17.000Z</time>
      </trkpt>
      <trkpt lat="45.01912" lon="5.61316">
        <ele>1025</ele>
        <time>2013-09-15T12:49:21.000Z</time>
      </trkpt>
      <trkpt lat="45.01916" lon="5.61313">
        <ele>1026</ele>
        <time>2013-09-15T12:49:25.000Z</time>
      </trkpt>
      <trkpt lat="45.0192" lon="5.61311">
        <ele>1026</ele>
        <time>2013-09-15T12:49:28.000Z</time>
      </trkpt>
      <trkpt lat="45.01925" lon="5.61307">
        <ele>1026</ele>
        <time>2013-09-15T12:49:32.000Z</time>
      </trkpt>
      <trkpt lat="45.01929" lon="5.61305">
        <ele>1026</ele>
        <time>2013-09-15T12:49:35.000Z</time>
      </trkpt>
      <trkpt lat="45.01933" lon="5.613">
        <ele>1026</ele>
        <time>2013-09-15T12:49:39.000Z</time>
      </trkpt>
      <trkpt lat="45.01938" lon="5.61298">
        <ele>1026</ele>
        <time>2013-09-15T12:49:42.000Z</time>
      </trkpt>
      <trkpt lat="45.01942" lon="5.61296">
        <ele>1026</ele>
        <time>2013-09-15T12:49:46.000Z</time>
      </trkpt>
      <trkpt lat="45.01946" lon="5.61298">
        <ele>1027</ele>
        <time>2013-09-15T12:49:49.000Z</time>
      </trkpt>
      <trkpt lat="45.01952" lon="5.61298">
        <ele>1027</ele>
        <time>2013-09-15T12:49:53.000Z</time>
      </trkpt>
      <trkpt lat="45.01957" lon="5.61298">
        <ele>1027</ele>
        <time>2013-09-15T12:49:57.000Z</time>
      </trkpt>
      <trkpt lat="45.01962" lon="5.61298">
        <ele>1028</ele>
        <time>2013-09-15T12:50:02.000Z</time>
      </trkpt>
      <trkpt lat="45.01966" lon="5.61294">
        <ele>1029</ele>
        <time>2013-09-15T12:50:05.000Z</time>
      </trkpt>
      <trkpt lat="45.01971" lon="5.61285">
        <ele>1029</ele>
        <time>2013-09-15T12:50:08.000Z</time>
      </trkpt>
      <trkpt lat="45.01976" lon="5.61279">
        <ele>1030</ele>
        <time>2013-09-15T12:50:11.000Z</time>
      </trkpt>
      <trkpt lat="45.01982" lon="5.61273">
        <ele>1031</ele>
        <time>2013-09-15T12:50:15.000Z</time>
      </trkpt>
      <trkpt lat="45.01986" lon="5.61266">
        <ele>1032</ele>
        <time>2013-09-15T12:50:19.000Z</time>
      </trkpt>
      <trkpt lat="45.0199" lon="5.61262">
        <ele>1033</ele>
        <time>2013-09-15T12:50:23.000Z</time>
      </trkpt>
      <trkpt lat="45.01994" lon="5.6126">
        <ele>1034</ele>
        <time>2013-09-15T12:50:27.000Z</time>
      </trkpt>
      <trkpt lat="45.01999" lon="5.61255">
        <ele>1034</ele>
        <time>2013-09-15T12:50:31.000Z</time>
      </trkpt>
      <trkpt lat="45.02003" lon="5.61251">
        <ele>1035</ele>
        <time>2013-09-15T12:50:36.000Z</time>
      </trkpt>
      <trkpt lat="45.02007" lon="5.61245">
        <ele>1037</ele>
        <time>2013-09-15T12:50:42.000Z</time>
      </trkpt>
      <trkpt lat="45.02012" lon="5.6124">
        <ele>1038</ele>
        <time>2013-09-15T12:50:47.000Z</time>
      </trkpt>
      <trkpt lat="45.02016" lon="5.61236">
        <ele>1039</ele>
        <time>2013-09-15T12:50:51.000Z</time>
      </trkpt>
      <trkpt lat="45.0202" lon="5.6123">
        <ele>1039</ele>
        <time>2013-09-15T12:50:55.000Z</time>
      </trkpt>
      <trkpt lat="45.02024" lon="5.61223">
        <ele>1040</ele>
        <time>2013-09-15T12:50:59.000Z</time>
      </trkpt>
      <trkpt lat="45.02029" lon="5.61219">
        <ele>1041</ele>
        <time>2013-09-15T12:51:02.000Z</time>
      </trkpt>
      <trkpt lat="45.02033" lon="5.61212">
        <ele>1041</ele>
        <time>2013-09-15T12:51:06.000Z</time>
      </trkpt>
      <trkpt lat="45.02038" lon="5.61208">
        <ele>1042</ele>
        <time>2013-09-15T12:51:10.000Z</time>
      </trkpt>
      <trkpt lat="45.02043" lon="5.61202">
        <ele>1043</ele>
        <time>2013-09-15T12:51:14.000Z</time>
      </trkpt>
      <trkpt lat="45.02047" lon="5.61198">
        <ele>1043</ele>
        <time>2013-09-15T12:51:18.000Z</time>
      </trkpt>
      <trkpt lat="45.02051" lon="5.61193">
        <ele>1044</ele>
        <time>2013-09-15T12:51:22.000Z</time>
      </trkpt>
      <trkpt lat="45.02057" lon="5.61189">
        <ele>1044</ele>
        <time>2013-09-15T12:51:26.000Z</time>
      </trkpt>
      <trkpt lat="45.02061" lon="5.61185">
        <ele>1045</ele>
        <time>2013-09-15T12:51:30.000Z</time>
      </trkpt>
      <trkpt lat="45.02065" lon="5.6118">
        <ele>1045</ele>
        <time>2013-09-15T12:51:34.000Z</time>
      </trkpt>
      <trkpt lat="45.0207" lon="5.61176">
        <ele>1046</ele>
        <time>2013-09-15T12:51:38.000Z</time>
      </trkpt>
      <trkpt lat="45.02074" lon="5.61174">
        <ele>1046</ele>
        <time>2013-09-15T12:51:42.000Z</time>
      </trkpt>
      <trkpt lat="45.02078" lon="5.6117">
        <ele>1046</ele>
        <time>2013-09-15T12:51:45.000Z</time>
      </trkpt>
      <trkpt lat="45.02082" lon="5.61167">
        <ele>1047</ele>
        <time>2013-09-15T12:51:49.000Z</time>
      </trkpt>
      <trkpt lat="45.02087" lon="5.61165">
        <ele>1047</ele>
        <time>2013-09-15T12:51:53.000Z</time>
      </trkpt>
      <trkpt lat="45.02091" lon="5.61163">
        <ele>1048</ele>
        <time>2013-09-15T12:51:57.000Z</time>
      </trkpt>
      <trkpt lat="45.02095" lon="5.61159">
        <ele>1048</ele>
        <time>2013-09-15T12:52:01.000Z</time>
      </trkpt>
      <trkpt lat="45.021" lon="5.61157">
        <ele>1048</ele>
        <time>2013-09-15T12:52:05.000Z</time>
      </trkpt>
      <trkpt lat="45.02104" lon="5.61155">
        <ele>1049</ele>
        <time>2013-09-15T12:52:09.000Z</time>
      </trkpt>
      <trkpt lat="45.02108" lon="5.61152">
        <ele>1049</ele>
        <time>2013-09-15T12:52:13.000Z</time>
      </trkpt>
      <trkpt lat="45.02112" lon="5.6115">
        <ele>1050</ele>
        <time>2013-09-15T12:52:17.000Z</time>
      </trkpt>
      <trkpt lat="45.02117" lon="5.61148">
        <ele>1050</ele>
        <time>2013-09-15T12:52:20.000Z</time>
      </trkpt>
      <trkpt lat="45.02121" lon="5.61146">
        <ele>1050</ele>
        <time>2013-09-15T12:52:24.000Z</time>
      </trkpt>
      <trkpt lat="45.02125" lon="5.61144">
        <ele>1051</ele>
        <time>2013-09-15T12:52:28.000Z</time>
      </trkpt>
      <trkpt lat="45.0213" lon="5.6114">
        <ele>1051</ele>
        <time>2013-09-15T12:52:33.000Z</time>
      </trkpt>
      <trkpt lat="45.02134" lon="5.61137">
        <ele>1052</ele>
        <time>2013-09-15T12:52:37.000Z</time>
      </trkpt>
      <trkpt lat="45.02139" lon="5.61135">
        <ele>1052</ele>
        <time>2013-09-15T12:52:42.000Z</time>
      </trkpt>
      <trkpt lat="45.02144" lon="5.61133">
        <ele>1053</ele>
        <time>2013-09-15T12:52:47.000Z</time>
      </trkpt>
      <trkpt lat="45.02148" lon="5.61131">
        <ele>1054</ele>
        <time>2013-09-15T12:52:51.000Z</time>
      </trkpt>
      <trkpt lat="45.02152" lon="5.61129">
        <ele>1054</ele>
        <time>2013-09-15T12:52:55.000Z</time>
      </trkpt>
      <trkpt lat="45.02156" lon="5.61127">
        <ele>1055</ele>
        <time>2013-09-15T12:52:59.000Z</time>
      </trkpt>
      <trkpt lat="45.02161" lon="5.61124">
        <ele>1056</ele>
        <time>2013-09-15T12:53:04.000Z</time>
      </trkpt>
      <trkpt lat="45.02165" lon="5.61122">
        <ele>1056</ele>
        <time>2013-09-15T12:53:08.000Z</time>
      </trkpt>
      <trkpt lat="45.0217" lon="5.61122">
        <ele>1057</ele>
        <time>2013-09-15T12:53:12.000Z</time>
      </trkpt>
      <trkpt lat="45.02176" lon="5.61122">
        <ele>1058</ele>
        <time>2013-09-15T12:53:16.000Z</time>
      </trkpt>
      <trkpt lat="45.0218" lon="5.6112">
        <ele>1059</ele>
        <time>2013-09-15T12:53:19.000Z</time>
      </trkpt>
      <trkpt lat="45.02185" lon="5.6112">
        <ele>1060</ele>
        <time>2013-09-15T12:53:23.000Z</time>
      </trkpt>
      <trkpt lat="45.0219" lon="5.61116">
        <ele>1061</ele>
        <time>2013-09-15T12:53:27.000Z</time>
      </trkpt>
      <trkpt lat="45.02195" lon="5.61114">
        <ele>1061</ele>
        <time>2013-09-15T12:53:31.000Z</time>
      </trkpt>
      <trkpt lat="45.02199" lon="5.61112">
        <ele>1062</ele>
        <time>2013-09-15T12:53:35.000Z</time>
      </trkpt>
      <trkpt lat="45.02205" lon="5.6111">
        <ele>1063</ele>
        <time>2013-09-15T12:53:40.000Z</time>
      </trkpt>
      <trkpt lat="45.0221" lon="5.61107">
        <ele>1064</ele>
        <time>2013-09-15T12:53:45.000Z</time>
      </trkpt>
      <trkpt lat="45.02216" lon="5.61105">
        <ele>1065</ele>
        <time>2013-09-15T12:53:49.000Z</time>
      </trkpt>
      <trkpt lat="45.02221" lon="5.61103">
        <ele>1066</ele>
        <time>2013-09-15T12:53:54.000Z</time>
      </trkpt>
      <trkpt lat="45.02225" lon="5.61101">
        <ele>1066</ele>
        <time>2013-09-15T12:53:58.000Z</time>
      </trkpt>
      <trkpt lat="45.0223" lon="5.61101">
        <ele>1067</ele>
        <time>2013-09-15T12:54:03.000Z</time>
      </trkpt>
      <trkpt lat="45.02235" lon="5.61099">
        <ele>1068</ele>
        <time>2013-09-15T12:54:07.000Z</time>
      </trkpt>
      <trkpt lat="45.02239" lon="5.61097">
        <ele>1069</ele>
        <time>2013-09-15T12:54:11.000Z</time>
      </trkpt>
      <trkpt lat="45.02244" lon="5.61094">
        <ele>1070</ele>
        <time>2013-09-15T12:54:15.000Z</time>
      </trkpt>
      <trkpt lat="45.02249" lon="5.6109">
        <ele>1070</ele>
        <time>2013-09-15T12:54:19.000Z</time>
      </trkpt>
      <trkpt lat="45.02253" lon="5.61088">
        <ele>1071</ele>
        <time>2013-09-15T12:54:22.000Z</time>
      </trkpt>
      <trkpt lat="45.02258" lon="5.61088">
        <ele>1072</ele>
        <time>2013-09-15T12:54:27.000Z</time>
      </trkpt>
      <trkpt lat="45.02263" lon="5.61086">
        <ele>1072</ele>
        <time>2013-09-15T12:54:30.000Z</time>
      </trkpt>
      <trkpt lat="45.02267" lon="5.61084">
        <ele>1072</ele>
        <time>2013-09-15T12:54:33.000Z</time>
      </trkpt>
      <trkpt lat="45.02272" lon="5.61084">
        <ele>1073</ele>
        <time>2013-09-15T12:54:37.000Z</time>
      </trkpt>
      <trkpt lat="45.02278" lon="5.61084">
        <ele>1074</ele>
        <time>2013-09-15T12:54:41.000Z</time>
      </trkpt>
      <trkpt lat="45.02282" lon="5.61086">
        <ele>1074</ele>
        <time>2013-09-15T12:54:44.000Z</time>
      </trkpt>
      <trkpt lat="45.02287" lon="5.61086">
        <ele>1075</ele>
        <time>2013-09-15T12:54:48.000Z</time>
      </trkpt>
      <trkpt lat="45.02292" lon="5.61088">
        <ele>1076</ele>
        <time>2013-09-15T12:54:51.000Z</time>
      </trkpt>
      <trkpt lat="45.02296" lon="5.6109">
        <ele>1077</ele>
        <time>2013-09-15T12:55:04.000Z</time>
      </trkpt>
      <trkpt lat="45.02296" lon="5.6109">
        <ele>1077</ele>
        <time>2013-09-15T12:55:04.000Z</time>
      </trkpt>
      <trkpt lat="45.02296" lon="5.6109">
        <ele>1077</ele>
        <time>2013-09-15T12:55:14.000Z</time>
      </trkpt>
      <trkpt lat="45.02294" lon="5.61084">
        <ele>1078</ele>
        <time>2013-09-15T12:55:56.000Z</time>
      </trkpt>
      <trkpt lat="45.0229" lon="5.61092">
        <ele>1078</ele>
        <time>2013-09-15T12:55:59.000Z</time>
      </trkpt>
      <trkpt lat="45.02284" lon="5.61101">
        <ele>1078</ele>
        <time>2013-09-15T12:56:01.000Z</time>
      </trkpt>
      <trkpt lat="45.02279" lon="5.61107">
        <ele>1078</ele>
        <time>2013-09-15T12:56:03.000Z</time>
      </trkpt>
      <trkpt lat="45.02273" lon="5.61116">
        <ele>1080</ele>
        <time>2013-09-15T12:56:05.000Z</time>
      </trkpt>
      <trkpt lat="45.02268" lon="5.61124">
        <ele>1082</ele>
        <time>2013-09-15T12:56:07.000Z</time>
      </trkpt>
      <trkpt lat="45.02264" lon="5.61131">
        <ele>1083</ele>
        <time>2013-09-15T12:56:09.000Z</time>
      </trkpt>
      <trkpt lat="45.02262" lon="5.6115">
        <ele>1084</ele>
        <time>2013-09-15T12:56:18.000Z</time>
      </trkpt>
      <trkpt lat="45.02256" lon="5.61155">
        <ele>1086</ele>
        <time>2013-09-15T12:56:19.000Z</time>
      </trkpt>
      <trkpt lat="45.02252" lon="5.61161">
        <ele>1087</ele>
        <time>2013-09-15T12:56:20.000Z</time>
      </trkpt>
      <trkpt lat="45.02247" lon="5.61165">
        <ele>1089</ele>
        <time>2013-09-15T12:56:21.000Z</time>
      </trkpt>
      <trkpt lat="45.02241" lon="5.61172">
        <ele>1090</ele>
        <time>2013-09-15T12:56:22.000Z</time>
      </trkpt>
      <trkpt lat="45.02236" lon="5.61176">
        <ele>1090</ele>
        <time>2013-09-15T12:56:23.000Z</time>
      </trkpt>
      <trkpt lat="45.02229" lon="5.61182">
        <ele>1091</ele>
        <time>2013-09-15T12:56:24.000Z</time>
      </trkpt>
      <trkpt lat="45.02224" lon="5.61187">
        <ele>1091</ele>
        <time>2013-09-15T12:56:25.000Z</time>
      </trkpt>
      <trkpt lat="45.02218" lon="5.61193">
        <ele>1091</ele>
        <time>2013-09-15T12:56:26.000Z</time>
      </trkpt>
      <trkpt lat="45.02212" lon="5.61198">
        <ele>1092</ele>
        <time>2013-09-15T12:56:27.000Z</time>
      </trkpt>
      <trkpt lat="45.02208" lon="5.61206">
        <ele>1092</ele>
        <time>2013-09-15T12:56:28.000Z</time>
      </trkpt>
      <trkpt lat="45.02204" lon="5.61215">
        <ele>1092</ele>
        <time>2013-09-15T12:56:29.000Z</time>
      </trkpt>
      <trkpt lat="45.02199" lon="5.61223">
        <ele>1092</ele>
        <time>2013-09-15T12:56:30.000Z</time>
      </trkpt>
      <trkpt lat="45.02195" lon="5.61232">
        <ele>1091</ele>
        <time>2013-09-15T12:56:31.000Z</time>
      </trkpt>
      <trkpt lat="45.02191" lon="5.61238">
        <ele>1091</ele>
        <time>2013-09-15T12:56:32.000Z</time>
      </trkpt>
      <trkpt lat="45.02186" lon="5.61245">
        <ele>1091</ele>
        <time>2013-09-15T12:56:33.000Z</time>
      </trkpt>
      <trkpt lat="45.02183" lon="5.61251">
        <ele>1090</ele>
        <time>2013-09-15T12:56:34.000Z</time>
      </trkpt>
      <trkpt lat="45.02172" lon="5.61268">
        <ele>1091</ele>
        <time>2013-09-15T12:56:38.000Z</time>
      </trkpt>
      <trkpt lat="45.02172" lon="5.61268">
        <ele>1091</ele>
        <time>2013-09-15T12:56:38.000Z</time>
      </trkpt>
      <trkpt lat="45.02172" lon="5.61268">
        <ele>1091</ele>
        <time>2013-09-15T12:56:40.000Z</time>
      </trkpt>
      <trkpt lat="45.02164" lon="5.61277">
        <ele>1091</ele>
        <time>2013-09-15T12:56:41.000Z</time>
      </trkpt>
      <trkpt lat="45.02164" lon="5.61277">
        <ele>1091</ele>
        <time>2013-09-15T12:56:41.000Z</time>
      </trkpt>
      <trkpt lat="45.02164" lon="5.61277">
        <ele>1091</ele>
        <time>2013-09-15T12:56:45.000Z</time>
      </trkpt>
      <trkpt lat="45.02153" lon="5.61283">
        <ele>1092</ele>
        <time>2013-09-15T12:56:46.000Z</time>
      </trkpt>
      <trkpt lat="45.02153" lon="5.61283">
        <ele>1092</ele>
        <time>2013-09-15T12:56:46.000Z</time>
      </trkpt>
      <trkpt lat="45.02153" lon="5.61283">
        <ele>1092</ele>
        <time>2013-09-15T12:56:50.000Z</time>
      </trkpt>
      <trkpt lat="45.02145" lon="5.6129">
        <ele>1093</ele>
        <time>2013-09-15T12:56:51.000Z</time>
      </trkpt>
      <trkpt lat="45.02145" lon="5.6129">
        <ele>1093</ele>
        <time>2013-09-15T12:56:51.000Z</time>
      </trkpt>
      <trkpt lat="45.02145" lon="5.6129">
        <ele>1093</ele>
        <time>2013-09-15T12:56:54.000Z</time>
      </trkpt>
      <trkpt lat="45.02136" lon="5.61296">
        <ele>1093</ele>
        <time>2013-09-15T12:56:55.000Z</time>
      </trkpt>
      <trkpt lat="45.02132" lon="5.61298">
        <ele>1093</ele>
        <time>2013-09-15T12:56:56.000Z</time>
      </trkpt>
      <trkpt lat="45.02124" lon="5.61303">
        <ele>1093</ele>
        <time>2013-09-15T12:56:58.000Z</time>
      </trkpt>
      <trkpt lat="45.02118" lon="5.61309">
        <ele>1093</ele>
        <time>2013-09-15T12:57:00.000Z</time>
      </trkpt>
      <trkpt lat="45.02114" lon="5.61316">
        <ele>1093</ele>
        <time>2013-09-15T12:57:02.000Z</time>
      </trkpt>
      <trkpt lat="45.0211" lon="5.61324">
        <ele>1093</ele>
        <time>2013-09-15T12:57:04.000Z</time>
      </trkpt>
      <trkpt lat="45.02107" lon="5.6133">
        <ele>1093</ele>
        <time>2013-09-15T12:57:06.000Z</time>
      </trkpt>
      <trkpt lat="45.02105" lon="5.61337">
        <ele>1093</ele>
        <time>2013-09-15T12:57:09.000Z</time>
      </trkpt>
      <trkpt lat="45.02105" lon="5.61337">
        <ele>1093</ele>
        <time>2013-09-15T12:57:09.000Z</time>
      </trkpt>
      <trkpt lat="45.02105" lon="5.61337">
        <ele>1093</ele>
        <time>2013-09-15T12:57:24.000Z</time>
      </trkpt>
      <trkpt lat="45.02101" lon="5.6135">
        <ele>1092</ele>
        <time>2013-09-15T12:57:25.000Z</time>
      </trkpt>
      <trkpt lat="45.02101" lon="5.6135">
        <ele>1092</ele>
        <time>2013-09-15T12:57:25.000Z</time>
      </trkpt>
      <trkpt lat="45.02101" lon="5.6135">
        <ele>1092</ele>
        <time>2013-09-15T12:57:28.000Z</time>
      </trkpt>
      <trkpt lat="45.02096" lon="5.61365">
        <ele>1091</ele>
        <time>2013-09-15T12:57:29.000Z</time>
      </trkpt>
      <trkpt lat="45.02096" lon="5.61365">
        <ele>1091</ele>
        <time>2013-09-15T12:57:29.000Z</time>
      </trkpt>
      <trkpt lat="45.02096" lon="5.61365">
        <ele>1091</ele>
        <time>2013-09-15T12:57:33.000Z</time>
      </trkpt>
      <trkpt lat="45.02091" lon="5.61378">
        <ele>1091</ele>
        <time>2013-09-15T12:57:34.000Z</time>
      </trkpt>
      <trkpt lat="45.02091" lon="5.61378">
        <ele>1091</ele>
        <time>2013-09-15T12:57:34.000Z</time>
      </trkpt>
      <trkpt lat="45.02091" lon="5.61378">
        <ele>1091</ele>
        <time>2013-09-15T12:57:37.000Z</time>
      </trkpt>
      <trkpt lat="45.02081" lon="5.61382">
        <ele>1090</ele>
        <time>2013-09-15T12:57:38.000Z</time>
      </trkpt>
      <trkpt lat="45.02081" lon="5.61382">
        <ele>1090</ele>
        <time>2013-09-15T12:57:38.000Z</time>
      </trkpt>
      <trkpt lat="45.02081" lon="5.61382">
        <ele>1090</ele>
        <time>2013-09-15T12:57:41.000Z</time>
      </trkpt>
      <trkpt lat="45.02074" lon="5.61388">
        <ele>1089</ele>
        <time>2013-09-15T12:57:42.000Z</time>
      </trkpt>
      <trkpt lat="45.02074" lon="5.61388">
        <ele>1089</ele>
        <time>2013-09-15T12:57:42.000Z</time>
      </trkpt>
      <trkpt lat="45.02074" lon="5.61388">
        <ele>1089</ele>
        <time>2013-09-15T12:57:46.000Z</time>
      </trkpt>
      <trkpt lat="45.02066" lon="5.61397">
        <ele>1088</ele>
        <time>2013-09-15T12:57:47.000Z</time>
      </trkpt>
      <trkpt lat="45.02066" lon="5.61397">
        <ele>1088</ele>
        <time>2013-09-15T12:57:47.000Z</time>
      </trkpt>
      <trkpt lat="45.02066" lon="5.61397">
        <ele>1088</ele>
        <time>2013-09-15T12:57:50.000Z</time>
      </trkpt>
      <trkpt lat="45.02062" lon="5.61408">
        <ele>1087</ele>
        <time>2013-09-15T12:57:51.000Z</time>
      </trkpt>
      <trkpt lat="45.02062" lon="5.61408">
        <ele>1087</ele>
        <time>2013-09-15T12:57:51.000Z</time>
      </trkpt>
      <trkpt lat="45.02062" lon="5.61408">
        <ele>1087</ele>
        <time>2013-09-15T12:57:52.000Z</time>
      </trkpt>
      <trkpt lat="45.02061" lon="5.61416">
        <ele>1087</ele>
        <time>2013-09-15T12:57:53.000Z</time>
      </trkpt>
      <trkpt lat="45.02061" lon="5.61416">
        <ele>1087</ele>
        <time>2013-09-15T12:57:53.000Z</time>
      </trkpt>
      <trkpt lat="45.02061" lon="5.61416">
        <ele>1087</ele>
        <time>2013-09-15T12:57:56.000Z</time>
      </trkpt>
      <trkpt lat="45.02058" lon="5.61427">
        <ele>1085</ele>
        <time>2013-09-15T12:57:57.000Z</time>
      </trkpt>
      <trkpt lat="45.02058" lon="5.61427">
        <ele>1085</ele>
        <time>2013-09-15T12:57:57.000Z</time>
      </trkpt>
      <trkpt lat="45.02058" lon="5.61427">
        <ele>1085</ele>
        <time>2013-09-15T12:57:58.000Z</time>
      </trkpt>
      <trkpt lat="45.02056" lon="5.61436">
        <ele>1085</ele>
        <time>2013-09-15T12:57:59.000Z</time>
      </trkpt>
      <trkpt lat="45.02053" lon="5.61444">
        <ele>1084</ele>
        <time>2013-09-15T12:58:01.000Z</time>
      </trkpt>
      <trkpt lat="45.0205" lon="5.61453">
        <ele>1083</ele>
        <time>2013-09-15T12:58:03.000Z</time>
      </trkpt>
      <trkpt lat="45.02049" lon="5.61459">
        <ele>1083</ele>
        <time>2013-09-15T12:58:04.000Z</time>
      </trkpt>
      <trkpt lat="45.02048" lon="5.61472">
        <ele>1082</ele>
        <time>2013-09-15T12:58:06.000Z</time>
      </trkpt>
      <trkpt lat="45.02046" lon="5.61483">
        <ele>1082</ele>
        <time>2013-09-15T12:58:08.000Z</time>
      </trkpt>
      <trkpt lat="45.02046" lon="5.61489">
        <ele>1081</ele>
        <time>2013-09-15T12:58:09.000Z</time>
      </trkpt>
      <trkpt lat="45.02046" lon="5.61496">
        <ele>1081</ele>
        <time>2013-09-15T12:58:10.000Z</time>
      </trkpt>
      <trkpt lat="45.02045" lon="5.61506">
        <ele>1080</ele>
        <time>2013-09-15T12:58:12.000Z</time>
      </trkpt>
      <trkpt lat="45.02045" lon="5.61513">
        <ele>1080</ele>
        <time>2013-09-15T12:58:13.000Z</time>
      </trkpt>
      <trkpt lat="45.02045" lon="5.61524">
        <ele>1079</ele>
        <time>2013-09-15T12:58:15.000Z</time>
      </trkpt>
      <trkpt lat="45.02046" lon="5.61534">
        <ele>1079</ele>
        <time>2013-09-15T12:58:17.000Z</time>
      </trkpt>
      <trkpt lat="45.02046" lon="5.61541">
        <ele>1078</ele>
        <time>2013-09-15T12:58:18.000Z</time>
      </trkpt>
      <trkpt lat="45.02046" lon="5.61552">
        <ele>1078</ele>
        <time>2013-09-15T12:58:20.000Z</time>
      </trkpt>
      <trkpt lat="45.02046" lon="5.61558">
        <ele>1077</ele>
        <time>2013-09-15T12:58:21.000Z</time>
      </trkpt>
      <trkpt lat="45.02046" lon="5.61564">
        <ele>1077</ele>
        <time>2013-09-15T12:58:22.000Z</time>
      </trkpt>
      <trkpt lat="45.02046" lon="5.61571">
        <ele>1077</ele>
        <time>2013-09-15T12:58:23.000Z</time>
      </trkpt>
      <trkpt lat="45.02047" lon="5.61582">
        <ele>1076</ele>
        <time>2013-09-15T12:58:25.000Z</time>
      </trkpt>
      <trkpt lat="45.02047" lon="5.61588">
        <ele>1076</ele>
        <time>2013-09-15T12:58:26.000Z</time>
      </trkpt>
      <trkpt lat="45.02047" lon="5.61599">
        <ele>1075</ele>
        <time>2013-09-15T12:58:28.000Z</time>
      </trkpt>
      <trkpt lat="45.02048" lon="5.61607">
        <ele>1074</ele>
        <time>2013-09-15T12:58:30.000Z</time>
      </trkpt>
      <trkpt lat="45.02048" lon="5.61614">
        <ele>1074</ele>
        <time>2013-09-15T12:58:31.000Z</time>
      </trkpt>
      <trkpt lat="45.02049" lon="5.61622">
        <ele>1074</ele>
        <time>2013-09-15T12:58:33.000Z</time>
      </trkpt>
      <trkpt lat="45.02049" lon="5.61631">
        <ele>1073</ele>
        <time>2013-09-15T12:58:35.000Z</time>
      </trkpt>
      <trkpt lat="45.02049" lon="5.61642">
        <ele>1073</ele>
        <time>2013-09-15T12:58:37.000Z</time>
      </trkpt>
      <trkpt lat="45.02053" lon="5.6165">
        <ele>1072</ele>
        <time>2013-09-15T12:58:39.000Z</time>
      </trkpt>
      <trkpt lat="45.02056" lon="5.61657">
        <ele>1072</ele>
        <time>2013-09-15T12:58:40.000Z</time>
      </trkpt>
      <trkpt lat="45.0206" lon="5.61663">
        <ele>1071</ele>
        <time>2013-09-15T12:58:41.000Z</time>
      </trkpt>
      <trkpt lat="45.02063" lon="5.6167">
        <ele>1071</ele>
        <time>2013-09-15T12:58:42.000Z</time>
      </trkpt>
      <trkpt lat="45.02065" lon="5.61676">
        <ele>1071</ele>
        <time>2013-09-15T12:58:43.000Z</time>
      </trkpt>
      <trkpt lat="45.02067" lon="5.61682">
        <ele>1071</ele>
        <time>2013-09-15T12:58:44.000Z</time>
      </trkpt>
      <trkpt lat="45.0207" lon="5.61689">
        <ele>1071</ele>
        <time>2013-09-15T12:58:45.000Z</time>
      </trkpt>
      <trkpt lat="45.02072" lon="5.61695">
        <ele>1070</ele>
        <time>2013-09-15T12:58:46.000Z</time>
      </trkpt>
      <trkpt lat="45.02073" lon="5.61702">
        <ele>1070</ele>
        <time>2013-09-15T12:58:47.000Z</time>
      </trkpt>
      <trkpt lat="45.02075" lon="5.61712">
        <ele>1070</ele>
        <time>2013-09-15T12:58:49.000Z</time>
      </trkpt>
      <trkpt lat="45.02075" lon="5.61721">
        <ele>1069</ele>
        <time>2013-09-15T12:58:51.000Z</time>
      </trkpt>
      <trkpt lat="45.02075" lon="5.6173">
        <ele>1069</ele>
        <time>2013-09-15T12:58:53.000Z</time>
      </trkpt>
      <trkpt lat="45.02074" lon="5.61738">
        <ele>1068</ele>
        <time>2013-09-15T12:58:55.000Z</time>
      </trkpt>
      <trkpt lat="45.02073" lon="5.61747">
        <ele>1068</ele>
        <time>2013-09-15T12:58:57.000Z</time>
      </trkpt>
      <trkpt lat="45.02072" lon="5.61753">
        <ele>1067</ele>
        <time>2013-09-15T12:58:58.000Z</time>
      </trkpt>
      <trkpt lat="45.0207" lon="5.6176">
        <ele>1067</ele>
        <time>2013-09-15T12:59:00.000Z</time>
      </trkpt>
      <trkpt lat="45.02067" lon="5.61768">
        <ele>1067</ele>
        <time>2013-09-15T12:59:02.000Z</time>
      </trkpt>
      <trkpt lat="45.02067" lon="5.61768">
        <ele>1067</ele>
        <time>2013-09-15T12:59:02.000Z</time>
      </trkpt>
      <trkpt lat="45.02067" lon="5.61768">
        <ele>1067</ele>
        <time>2013-09-15T12:59:10.000Z</time>
      </trkpt>
      <trkpt lat="45.02066" lon="5.61777">
        <ele>1065</ele>
        <time>2013-09-15T12:59:11.000Z</time>
      </trkpt>
      <trkpt lat="45.02066" lon="5.61777">
        <ele>1065</ele>
        <time>2013-09-15T12:59:11.000Z</time>
      </trkpt>
      <trkpt lat="45.02066" lon="5.61777">
        <ele>1065</ele>
        <time>2013-09-15T12:59:14.000Z</time>
      </trkpt>
      <trkpt lat="45.02061" lon="5.61788">
        <ele>1065</ele>
        <time>2013-09-15T12:59:15.000Z</time>
      </trkpt>
      <trkpt lat="45.0206" lon="5.61796">
        <ele>1065</ele>
        <time>2013-09-15T12:59:17.000Z</time>
      </trkpt>
      <trkpt lat="45.02058" lon="5.61805">
        <ele>1064</ele>
        <time>2013-09-15T12:59:19.000Z</time>
      </trkpt>
      <trkpt lat="45.02058" lon="5.61811">
        <ele>1064</ele>
        <time>2013-09-15T12:59:20.000Z</time>
      </trkpt>
      <trkpt lat="45.02059" lon="5.61818">
        <ele>1063</ele>
        <time>2013-09-15T12:59:21.000Z</time>
      </trkpt>
      <trkpt lat="45.02059" lon="5.61824">
        <ele>1063</ele>
        <time>2013-09-15T12:59:22.000Z</time>
      </trkpt>
      <trkpt lat="45.02057" lon="5.61833">
        <ele>1063</ele>
        <time>2013-09-15T12:59:24.000Z</time>
      </trkpt>
      <trkpt lat="45.02053" lon="5.61841">
        <ele>1062</ele>
        <time>2013-09-15T12:59:26.000Z</time>
      </trkpt>
      <trkpt lat="45.0205" lon="5.6185">
        <ele>1062</ele>
        <time>2013-09-15T12:59:28.000Z</time>
      </trkpt>
      <trkpt lat="45.02048" lon="5.6186">
        <ele>1062</ele>
        <time>2013-09-15T12:59:30.000Z</time>
      </trkpt>
      <trkpt lat="45.02047" lon="5.61869">
        <ele>1062</ele>
        <time>2013-09-15T12:59:32.000Z</time>
      </trkpt>
      <trkpt lat="45.02046" lon="5.6188">
        <ele>1063</ele>
        <time>2013-09-15T12:59:34.000Z</time>
      </trkpt>
      <trkpt lat="45.02046" lon="5.61888">
        <ele>1063</ele>
        <time>2013-09-15T12:59:36.000Z</time>
      </trkpt>
      <trkpt lat="45.02046" lon="5.61897">
        <ele>1063</ele>
        <time>2013-09-15T12:59:38.000Z</time>
      </trkpt>
      <trkpt lat="45.02045" lon="5.61906">
        <ele>1063</ele>
        <time>2013-09-15T12:59:40.000Z</time>
      </trkpt>
      <trkpt lat="45.02044" lon="5.61914">
        <ele>1063</ele>
        <time>2013-09-15T12:59:42.000Z</time>
      </trkpt>
      <trkpt lat="45.02044" lon="5.61923">
        <ele>1063</ele>
        <time>2013-09-15T12:59:44.000Z</time>
      </trkpt>
      <trkpt lat="45.02044" lon="5.61929">
        <ele>1063</ele>
        <time>2013-09-15T12:59:46.000Z</time>
      </trkpt>
      <trkpt lat="45.02043" lon="5.61938">
        <ele>1063</ele>
        <time>2013-09-15T12:59:48.000Z</time>
      </trkpt>
      <trkpt lat="45.02044" lon="5.61944">
        <ele>1063</ele>
        <time>2013-09-15T12:59:50.000Z</time>
      </trkpt>
      <trkpt lat="45.02044" lon="5.61951">
        <ele>1063</ele>
        <time>2013-09-15T12:59:52.000Z</time>
      </trkpt>
      <trkpt lat="45.02044" lon="5.61951">
        <ele>1063</ele>
        <time>2013-09-15T12:59:52.000Z</time>
      </trkpt>
      <trkpt lat="45.02044" lon="5.61951">
        <ele>1063</ele>
        <time>2013-09-15T12:59:53.000Z</time>
      </trkpt>
      <trkpt lat="45.02044" lon="5.61957">
        <ele>1063</ele>
        <time>2013-09-15T12:59:54.000Z</time>
      </trkpt>
      <trkpt lat="45.02044" lon="5.61957">
        <ele>1063</ele>
        <time>2013-09-15T12:59:54.000Z</time>
      </trkpt>
      <trkpt lat="45.02044" lon="5.61957">
        <ele>1063</ele>
        <time>2013-09-15T12:59:56.000Z</time>
      </trkpt>
      <trkpt lat="45.02044" lon="5.61968">
        <ele>1063</ele>
        <time>2013-09-15T12:59:57.000Z</time>
      </trkpt>
      <trkpt lat="45.02044" lon="5.61974">
        <ele>1063</ele>
        <time>2013-09-15T12:59:59.000Z</time>
      </trkpt>
      <trkpt lat="45.02044" lon="5.61981">
        <ele>1063</ele>
        <time>2013-09-15T13:00:01.000Z</time>
      </trkpt>
      <trkpt lat="45.02044" lon="5.61989">
        <ele>1063</ele>
        <time>2013-09-15T13:00:03.000Z</time>
      </trkpt>
      <trkpt lat="45.02044" lon="5.61998">
        <ele>1063</ele>
        <time>2013-09-15T13:00:05.000Z</time>
      </trkpt>
      <trkpt lat="45.02044" lon="5.62004">
        <ele>1063</ele>
        <time>2013-09-15T13:00:07.000Z</time>
      </trkpt>
      <trkpt lat="45.02043" lon="5.62011">
        <ele>1063</ele>
        <time>2013-09-15T13:00:09.000Z</time>
      </trkpt>
      <trkpt lat="45.02038" lon="5.62017">
        <ele>1063</ele>
        <time>2013-09-15T13:00:12.000Z</time>
      </trkpt>
      <trkpt lat="45.02036" lon="5.62024">
        <ele>1063</ele>
        <time>2013-09-15T13:00:14.000Z</time>
      </trkpt>
      <trkpt lat="45.02033" lon="5.6203">
        <ele>1063</ele>
        <time>2013-09-15T13:00:16.000Z</time>
      </trkpt>
      <trkpt lat="45.02028" lon="5.62036">
        <ele>1063</ele>
        <time>2013-09-15T13:00:19.000Z</time>
      </trkpt>
      <trkpt lat="45.02026" lon="5.62043">
        <ele>1063</ele>
        <time>2013-09-15T13:00:21.000Z</time>
      </trkpt>
      <trkpt lat="45.02024" lon="5.62049">
        <ele>1063</ele>
        <time>2013-09-15T13:00:23.000Z</time>
      </trkpt>
      <trkpt lat="45.02022" lon="5.6206">
        <ele>1063</ele>
        <time>2013-09-15T13:00:26.000Z</time>
      </trkpt>
      <trkpt lat="45.02021" lon="5.62069">
        <ele>1063</ele>
        <time>2013-09-15T13:00:28.000Z</time>
      </trkpt>
      <trkpt lat="45.02021" lon="5.62069">
        <ele>1063</ele>
        <time>2013-09-15T13:00:28.000Z</time>
      </trkpt>
      <trkpt lat="45.02021" lon="5.62069">
        <ele>1063</ele>
        <time>2013-09-15T13:00:32.000Z</time>
      </trkpt>
      <trkpt lat="45.02019" lon="5.62084">
        <ele>1063</ele>
        <time>2013-09-15T13:00:33.000Z</time>
      </trkpt>
      <trkpt lat="45.02019" lon="5.62084">
        <ele>1063</ele>
        <time>2013-09-15T13:00:33.000Z</time>
      </trkpt>
      <trkpt lat="45.02019" lon="5.62084">
        <ele>1063</ele>
        <time>2013-09-15T13:00:37.000Z</time>
      </trkpt>
      <trkpt lat="45.02017" lon="5.62099">
        <ele>1063</ele>
        <time>2013-09-15T13:00:38.000Z</time>
      </trkpt>
      <trkpt lat="45.02017" lon="5.62099">
        <ele>1063</ele>
        <time>2013-09-15T13:00:38.000Z</time>
      </trkpt>
      <trkpt lat="45.02017" lon="5.62099">
        <ele>1063</ele>
        <time>2013-09-15T13:00:39.000Z</time>
      </trkpt>
      <trkpt lat="45.02015" lon="5.62105">
        <ele>1063</ele>
        <time>2013-09-15T13:00:40.000Z</time>
      </trkpt>
      <trkpt lat="45.02014" lon="5.62112">
        <ele>1063</ele>
        <time>2013-09-15T13:00:42.000Z</time>
      </trkpt>
      <trkpt lat="45.02013" lon="5.62118">
        <ele>1063</ele>
        <time>2013-09-15T13:00:44.000Z</time>
      </trkpt>
      <trkpt lat="45.0201" lon="5.62127">
        <ele>1063</ele>
        <time>2013-09-15T13:00:46.000Z</time>
      </trkpt>
      <trkpt lat="45.0201" lon="5.62133">
        <ele>1063</ele>
        <time>2013-09-15T13:00:48.000Z</time>
      </trkpt>
      <trkpt lat="45.0201" lon="5.62133">
        <ele>1063</ele>
        <time>2013-09-15T13:00:48.000Z</time>
      </trkpt>
      <trkpt lat="45.0201" lon="5.62133">
        <ele>1063</ele>
        <time>2013-09-15T13:00:49.000Z</time>
      </trkpt>
      <trkpt lat="45.02008" lon="5.6214">
        <ele>1064</ele>
        <time>2013-09-15T13:00:50.000Z</time>
      </trkpt>
      <trkpt lat="45.02008" lon="5.6214">
        <ele>1064</ele>
        <time>2013-09-15T13:00:50.000Z</time>
      </trkpt>
      <trkpt lat="45.02008" lon="5.6214">
        <ele>1064</ele>
        <time>2013-09-15T13:00:51.000Z</time>
      </trkpt>
      <trkpt lat="45.02006" lon="5.62146">
        <ele>1064</ele>
        <time>2013-09-15T13:00:52.000Z</time>
      </trkpt>
      <trkpt lat="45.02006" lon="5.62146">
        <ele>1064</ele>
        <time>2013-09-15T13:00:52.000Z</time>
      </trkpt>
      <trkpt lat="45.02006" lon="5.62146">
        <ele>1064</ele>
        <time>2013-09-15T13:00:56.000Z</time>
      </trkpt>
      <trkpt lat="45.02003" lon="5.62159">
        <ele>1064</ele>
        <time>2013-09-15T13:00:57.000Z</time>
      </trkpt>
      <trkpt lat="45.02003" lon="5.62159">
        <ele>1064</ele>
        <time>2013-09-15T13:00:57.000Z</time>
      </trkpt>
      <trkpt lat="45.02003" lon="5.62159">
        <ele>1064</ele>
        <time>2013-09-15T13:00:58.000Z</time>
      </trkpt>
      <trkpt lat="45.02002" lon="5.62165">
        <ele>1064</ele>
        <time>2013-09-15T13:00:59.000Z</time>
      </trkpt>
      <trkpt lat="45.02002" lon="5.62165">
        <ele>1064</ele>
        <time>2013-09-15T13:00:59.000Z</time>
      </trkpt>
      <trkpt lat="45.02002" lon="5.62165">
        <ele>1064</ele>
        <time>2013-09-15T13:01:01.000Z</time>
      </trkpt>
      <trkpt lat="45.02001" lon="5.62174">
        <ele>1064</ele>
        <time>2013-09-15T13:01:02.000Z</time>
      </trkpt>
      <trkpt lat="45.02001" lon="5.62174">
        <ele>1064</ele>
        <time>2013-09-15T13:01:02.000Z</time>
      </trkpt>
      <trkpt lat="45.02001" lon="5.62174">
        <ele>1064</ele>
        <time>2013-09-15T13:01:04.000Z</time>
      </trkpt>
      <trkpt lat="45.01999" lon="5.62184">
        <ele>1064</ele>
        <time>2013-09-15T13:01:05.000Z</time>
      </trkpt>
      <trkpt lat="45.01999" lon="5.62184">
        <ele>1064</ele>
        <time>2013-09-15T13:01:05.000Z</time>
      </trkpt>
      <trkpt lat="45.01999" lon="5.62184">
        <ele>1064</ele>
        <time>2013-09-15T13:01:06.000Z</time>
      </trkpt>
      <trkpt lat="45.01998" lon="5.62191">
        <ele>1064</ele>
        <time>2013-09-15T13:01:07.000Z</time>
      </trkpt>
      <trkpt lat="45.01998" lon="5.62197">
        <ele>1064</ele>
        <time>2013-09-15T13:01:09.000Z</time>
      </trkpt>
      <trkpt lat="45.01997" lon="5.62204">
        <ele>1064</ele>
        <time>2013-09-15T13:01:11.000Z</time>
      </trkpt>
      <trkpt lat="45.01996" lon="5.6221">
        <ele>1064</ele>
        <time>2013-09-15T13:01:13.000Z</time>
      </trkpt>
      <trkpt lat="45.01994" lon="5.62219">
        <ele>1064</ele>
        <time>2013-09-15T13:01:15.000Z</time>
      </trkpt>
      <trkpt lat="45.01993" lon="5.62225">
        <ele>1064</ele>
        <time>2013-09-15T13:01:17.000Z</time>
      </trkpt>
      <trkpt lat="45.01993" lon="5.62234">
        <ele>1064</ele>
        <time>2013-09-15T13:01:19.000Z</time>
      </trkpt>
      <trkpt lat="45.01992" lon="5.6224">
        <ele>1064</ele>
        <time>2013-09-15T13:01:21.000Z</time>
      </trkpt>
      <trkpt lat="45.01991" lon="5.62255">
        <ele>1064</ele>
        <time>2013-09-15T13:01:26.000Z</time>
      </trkpt>
      <trkpt lat="45.01992" lon="5.62262">
        <ele>1064</ele>
        <time>2013-09-15T13:01:28.000Z</time>
      </trkpt>
      <trkpt lat="45.01992" lon="5.6227">
        <ele>1064</ele>
        <time>2013-09-15T13:01:30.000Z</time>
      </trkpt>
      <trkpt lat="45.01992" lon="5.62279">
        <ele>1064</ele>
        <time>2013-09-15T13:01:32.000Z</time>
      </trkpt>
      <trkpt lat="45.01992" lon="5.6229">
        <ele>1065</ele>
        <time>2013-09-15T13:01:34.000Z</time>
      </trkpt>
      <trkpt lat="45.01992" lon="5.62296">
        <ele>1065</ele>
        <time>2013-09-15T13:01:35.000Z</time>
      </trkpt>
      <trkpt lat="45.01992" lon="5.62302">
        <ele>1065</ele>
        <time>2013-09-15T13:01:36.000Z</time>
      </trkpt>
      <trkpt lat="45.01993" lon="5.62309">
        <ele>1065</ele>
        <time>2013-09-15T13:01:37.000Z</time>
      </trkpt>
      <trkpt lat="45.01999" lon="5.6232">
        <ele>1065</ele>
        <time>2013-09-15T13:01:39.000Z</time>
      </trkpt>
      <trkpt lat="45.02002" lon="5.62324">
        <ele>1066</ele>
        <time>2013-09-15T13:01:40.000Z</time>
      </trkpt>
      <trkpt lat="45.02006" lon="5.62328">
        <ele>1066</ele>
        <time>2013-09-15T13:01:41.000Z</time>
      </trkpt>
      <trkpt lat="45.0201" lon="5.62333">
        <ele>1066</ele>
        <time>2013-09-15T13:01:42.000Z</time>
      </trkpt>
      <trkpt lat="45.02015" lon="5.62337">
        <ele>1065</ele>
        <time>2013-09-15T13:01:43.000Z</time>
      </trkpt>
      <trkpt lat="45.0202" lon="5.62341">
        <ele>1065</ele>
        <time>2013-09-15T13:01:44.000Z</time>
      </trkpt>
      <trkpt lat="45.02026" lon="5.62346">
        <ele>1065</ele>
        <time>2013-09-15T13:01:45.000Z</time>
      </trkpt>
      <trkpt lat="45.02031" lon="5.62348">
        <ele>1064</ele>
        <time>2013-09-15T13:01:46.000Z</time>
      </trkpt>
      <trkpt lat="45.02036" lon="5.62352">
        <ele>1064</ele>
        <time>2013-09-15T13:01:47.000Z</time>
      </trkpt>
      <trkpt lat="45.02042" lon="5.62356">
        <ele>1064</ele>
        <time>2013-09-15T13:01:48.000Z</time>
      </trkpt>
      <trkpt lat="45.02048" lon="5.6236">
        <ele>1064</ele>
        <time>2013-09-15T13:01:49.000Z</time>
      </trkpt>
      <trkpt lat="45.02053" lon="5.62365">
        <ele>1064</ele>
        <time>2013-09-15T13:01:50.000Z</time>
      </trkpt>
      <trkpt lat="45.02059" lon="5.62369">
        <ele>1064</ele>
        <time>2013-09-15T13:01:51.000Z</time>
      </trkpt>
      <trkpt lat="45.02065" lon="5.62371">
        <ele>1064</ele>
        <time>2013-09-15T13:01:52.000Z</time>
      </trkpt>
      <trkpt lat="45.02072" lon="5.62376">
        <ele>1064</ele>
        <time>2013-09-15T13:01:53.000Z</time>
      </trkpt>
      <trkpt lat="45.02078" lon="5.62378">
        <ele>1064</ele>
        <time>2013-09-15T13:01:54.000Z</time>
      </trkpt>
      <trkpt lat="45.02086" lon="5.62382">
        <ele>1063</ele>
        <time>2013-09-15T13:01:55.000Z</time>
      </trkpt>
      <trkpt lat="45.02092" lon="5.62384">
        <ele>1063</ele>
        <time>2013-09-15T13:01:56.000Z</time>
      </trkpt>
      <trkpt lat="45.02098" lon="5.62386">
        <ele>1063</ele>
        <time>2013-09-15T13:01:57.000Z</time>
      </trkpt>
      <trkpt lat="45.02105" lon="5.6239">
        <ele>1063</ele>
        <time>2013-09-15T13:01:58.000Z</time>
      </trkpt>
      <trkpt lat="45.02111" lon="5.62393">
        <ele>1062</ele>
        <time>2013-09-15T13:01:59.000Z</time>
      </trkpt>
      <trkpt lat="45.02118" lon="5.62395">
        <ele>1062</ele>
        <time>2013-09-15T13:02:00.000Z</time>
      </trkpt>
      <trkpt lat="45.02123" lon="5.62397">
        <ele>1063</ele>
        <time>2013-09-15T13:02:01.000Z</time>
      </trkpt>
      <trkpt lat="45.0213" lon="5.62397">
        <ele>1063</ele>
        <time>2013-09-15T13:02:02.000Z</time>
      </trkpt>
      <trkpt lat="45.02135" lon="5.62399">
        <ele>1063</ele>
        <time>2013-09-15T13:02:03.000Z</time>
      </trkpt>
      <trkpt lat="45.0214" lon="5.62401">
        <ele>1063</ele>
        <time>2013-09-15T13:02:04.000Z</time>
      </trkpt>
      <trkpt lat="45.02147" lon="5.62401">
        <ele>1063</ele>
        <time>2013-09-15T13:02:05.000Z</time>
      </trkpt>
      <trkpt lat="45.02152" lon="5.62403">
        <ele>1063</ele>
        <time>2013-09-15T13:02:06.000Z</time>
      </trkpt>
      <trkpt lat="45.02158" lon="5.62403">
        <ele>1063</ele>
        <time>2013-09-15T13:02:07.000Z</time>
      </trkpt>
      <trkpt lat="45.02163" lon="5.62406">
        <ele>1063</ele>
        <time>2013-09-15T13:02:08.000Z</time>
      </trkpt>
      <trkpt lat="45.02168" lon="5.62408">
        <ele>1063</ele>
        <time>2013-09-15T13:02:09.000Z</time>
      </trkpt>
      <trkpt lat="45.02174" lon="5.6241">
        <ele>1063</ele>
        <time>2013-09-15T13:02:10.000Z</time>
      </trkpt>
      <trkpt lat="45.02179" lon="5.62412">
        <ele>1063</ele>
        <time>2013-09-15T13:02:11.000Z</time>
      </trkpt>
      <trkpt lat="45.02184" lon="5.62414">
        <ele>1063</ele>
        <time>2013-09-15T13:02:12.000Z</time>
      </trkpt>
      <trkpt lat="45.0219" lon="5.62416">
        <ele>1063</ele>
        <time>2013-09-15T13:02:13.000Z</time>
      </trkpt>
      <trkpt lat="45.02195" lon="5.62418">
        <ele>1063</ele>
        <time>2013-09-15T13:02:14.000Z</time>
      </trkpt>
      <trkpt lat="45.022" lon="5.62418">
        <ele>1063</ele>
        <time>2013-09-15T13:02:15.000Z</time>
      </trkpt>
      <trkpt lat="45.02207" lon="5.62421">
        <ele>1063</ele>
        <time>2013-09-15T13:02:16.000Z</time>
      </trkpt>
      <trkpt lat="45.02213" lon="5.62423">
        <ele>1062</ele>
        <time>2013-09-15T13:02:17.000Z</time>
      </trkpt>
      <trkpt lat="45.0222" lon="5.62425">
        <ele>1062</ele>
        <time>2013-09-15T13:02:18.000Z</time>
      </trkpt>
      <trkpt lat="45.02226" lon="5.62427">
        <ele>1062</ele>
        <time>2013-09-15T13:02:19.000Z</time>
      </trkpt>
      <trkpt lat="45.02234" lon="5.62431">
        <ele>1061</ele>
        <time>2013-09-15T13:02:20.000Z</time>
      </trkpt>
      <trkpt lat="45.02239" lon="5.62433">
        <ele>1061</ele>
        <time>2013-09-15T13:02:21.000Z</time>
      </trkpt>
      <trkpt lat="45.02244" lon="5.62436">
        <ele>1061</ele>
        <time>2013-09-15T13:02:22.000Z</time>
      </trkpt>
      <trkpt lat="45.02251" lon="5.62444">
        <ele>1061</ele>
        <time>2013-09-15T13:02:24.000Z</time>
      </trkpt>
      <trkpt lat="45.02252" lon="5.62451">
        <ele>1061</ele>
        <time>2013-09-15T13:02:25.000Z</time>
      </trkpt>
      <trkpt lat="45.02253" lon="5.62457">
        <ele>1061</ele>
        <time>2013-09-15T13:02:26.000Z</time>
      </trkpt>
      <trkpt lat="45.02254" lon="5.62464">
        <ele>1061</ele>
        <time>2013-09-15T13:02:27.000Z</time>
      </trkpt>
      <trkpt lat="45.02254" lon="5.6247">
        <ele>1061</ele>
        <time>2013-09-15T13:02:28.000Z</time>
      </trkpt>
      <trkpt lat="45.02255" lon="5.62481">
        <ele>1061</ele>
        <time>2013-09-15T13:02:29.000Z</time>
      </trkpt>
      <trkpt lat="45.02255" lon="5.62489">
        <ele>1061</ele>
        <time>2013-09-15T13:02:30.000Z</time>
      </trkpt>
      <trkpt lat="45.02256" lon="5.625">
        <ele>1061</ele>
        <time>2013-09-15T13:02:31.000Z</time>
      </trkpt>
      <trkpt lat="45.02258" lon="5.62508">
        <ele>1061</ele>
        <time>2013-09-15T13:02:32.000Z</time>
      </trkpt>
      <trkpt lat="45.02262" lon="5.62517">
        <ele>1061</ele>
        <time>2013-09-15T13:02:33.000Z</time>
      </trkpt>
      <trkpt lat="45.02264" lon="5.62528">
        <ele>1061</ele>
        <time>2013-09-15T13:03:07.000Z</time>
      </trkpt>
      <trkpt lat="45.02264" lon="5.62534">
        <ele>1061</ele>
        <time>2013-09-15T13:03:08.000Z</time>
      </trkpt>
      <trkpt lat="45.02264" lon="5.62541">
        <ele>1061</ele>
        <time>2013-09-15T13:03:09.000Z</time>
      </trkpt>
      <trkpt lat="45.02265" lon="5.62547">
        <ele>1061</ele>
        <time>2013-09-15T13:03:10.000Z</time>
      </trkpt>
      <trkpt lat="45.02265" lon="5.62556">
        <ele>1061</ele>
        <time>2013-09-15T13:03:11.000Z</time>
      </trkpt>
      <trkpt lat="45.02266" lon="5.62562">
        <ele>1060</ele>
        <time>2013-09-15T13:03:12.000Z</time>
      </trkpt>
      <trkpt lat="45.02267" lon="5.62569">
        <ele>1060</ele>
        <time>2013-09-15T13:03:13.000Z</time>
      </trkpt>
      <trkpt lat="45.02269" lon="5.62577">
        <ele>1059</ele>
        <time>2013-09-15T13:03:15.000Z</time>
      </trkpt>
      <trkpt lat="45.02269" lon="5.62586">
        <ele>1059</ele>
        <time>2013-09-15T13:03:17.000Z</time>
      </trkpt>
      <trkpt lat="45.02267" lon="5.62594">
        <ele>1059</ele>
        <time>2013-09-15T13:03:19.000Z</time>
      </trkpt>
      <trkpt lat="45.02267" lon="5.62603">
        <ele>1059</ele>
        <time>2013-09-15T13:03:20.000Z</time>
      </trkpt>
      <trkpt lat="45.02266" lon="5.62609">
        <ele>1060</ele>
        <time>2013-09-15T13:03:21.000Z</time>
      </trkpt>
      <trkpt lat="45.02266" lon="5.62616">
        <ele>1060</ele>
        <time>2013-09-15T13:03:22.000Z</time>
      </trkpt>
      <trkpt lat="45.02266" lon="5.62622">
        <ele>1060</ele>
        <time>2013-09-15T13:03:23.000Z</time>
      </trkpt>
      <trkpt lat="45.02265" lon="5.62631">
        <ele>1060</ele>
        <time>2013-09-15T13:03:24.000Z</time>
      </trkpt>
      <trkpt lat="45.02265" lon="5.62642">
        <ele>1060</ele>
        <time>2013-09-15T13:03:25.000Z</time>
      </trkpt>
      <trkpt lat="45.02265" lon="5.6265">
        <ele>1061</ele>
        <time>2013-09-15T13:03:26.000Z</time>
      </trkpt>
      <trkpt lat="45.02265" lon="5.62661">
        <ele>1062</ele>
        <time>2013-09-15T13:03:27.000Z</time>
      </trkpt>
      <trkpt lat="45.02265" lon="5.62672">
        <ele>1064</ele>
        <time>2013-09-15T13:03:28.000Z</time>
      </trkpt>
      <trkpt lat="45.02267" lon="5.62682">
        <ele>1065</ele>
        <time>2013-09-15T13:03:29.000Z</time>
      </trkpt>
      <trkpt lat="45.02271" lon="5.62695">
        <ele>1064</ele>
        <time>2013-09-15T13:03:30.000Z</time>
      </trkpt>
      <trkpt lat="45.02276" lon="5.62706">
        <ele>1064</ele>
        <time>2013-09-15T13:03:31.000Z</time>
      </trkpt>
      <trkpt lat="45.0228" lon="5.62717">
        <ele>1062</ele>
        <time>2013-09-15T13:03:32.000Z</time>
      </trkpt>
      <trkpt lat="45.02286" lon="5.6273">
        <ele>1060</ele>
        <time>2013-09-15T13:03:33.000Z</time>
      </trkpt>
      <trkpt lat="45.02293" lon="5.62742">
        <ele>1057</ele>
        <time>2013-09-15T13:03:34.000Z</time>
      </trkpt>
      <trkpt lat="45.02299" lon="5.62753">
        <ele>1054</ele>
        <time>2013-09-15T13:03:35.000Z</time>
      </trkpt>
      <trkpt lat="45.02307" lon="5.62764">
        <ele>1050</ele>
        <time>2013-09-15T13:03:36.000Z</time>
      </trkpt>
      <trkpt lat="45.02313" lon="5.62772">
        <ele>1047</ele>
        <time>2013-09-15T13:03:37.000Z</time>
      </trkpt>
      <trkpt lat="45.0232" lon="5.62783">
        <ele>1044</ele>
        <time>2013-09-15T13:03:38.000Z</time>
      </trkpt>
      <trkpt lat="45.02326" lon="5.6279">
        <ele>1040</ele>
        <time>2013-09-15T13:03:39.000Z</time>
      </trkpt>
      <trkpt lat="45.02332" lon="5.62798">
        <ele>1037</ele>
        <time>2013-09-15T13:03:40.000Z</time>
      </trkpt>
      <trkpt lat="45.02339" lon="5.62805">
        <ele>1034</ele>
        <time>2013-09-15T13:03:41.000Z</time>
      </trkpt>
      <trkpt lat="45.02344" lon="5.62809">
        <ele>1031</ele>
        <time>2013-09-15T13:03:42.000Z</time>
      </trkpt>
      <trkpt lat="45.0235" lon="5.62815">
        <ele>1028</ele>
        <time>2013-09-15T13:03:43.000Z</time>
      </trkpt>
      <trkpt lat="45.02355" lon="5.62822">
        <ele>1026</ele>
        <time>2013-09-15T13:03:44.000Z</time>
      </trkpt>
      <trkpt lat="45.02359" lon="5.62828">
        <ele>1024</ele>
        <time>2013-09-15T13:03:45.000Z</time>
      </trkpt>
      <trkpt lat="45.02364" lon="5.62832">
        <ele>1023</ele>
        <time>2013-09-15T13:03:46.000Z</time>
      </trkpt>
      <trkpt lat="45.02368" lon="5.62839">
        <ele>1022</ele>
        <time>2013-09-15T13:03:47.000Z</time>
      </trkpt>
      <trkpt lat="45.02373" lon="5.62848">
        <ele>1020</ele>
        <time>2013-09-15T13:03:49.000Z</time>
      </trkpt>
      <trkpt lat="45.02376" lon="5.62854">
        <ele>1020</ele>
        <time>2013-09-15T13:03:50.000Z</time>
      </trkpt>
      <trkpt lat="45.02381" lon="5.6286">
        <ele>1020</ele>
        <time>2013-09-15T13:03:52.000Z</time>
      </trkpt>
      <trkpt lat="45.02385" lon="5.62867">
        <ele>1020</ele>
        <time>2013-09-15T13:03:54.000Z</time>
      </trkpt>
      <trkpt lat="45.02389" lon="5.62876">
        <ele>1020</ele>
        <time>2013-09-15T13:03:56.000Z</time>
      </trkpt>
      <trkpt lat="45.02394" lon="5.62886">
        <ele>1020</ele>
        <time>2013-09-15T13:03:58.000Z</time>
      </trkpt>
      <trkpt lat="45.02396" lon="5.62893">
        <ele>1020</ele>
        <time>2013-09-15T13:03:59.000Z</time>
      </trkpt>
      <trkpt lat="45.02398" lon="5.62899">
        <ele>1020</ele>
        <time>2013-09-15T13:04:00.000Z</time>
      </trkpt>
      <trkpt lat="45.024" lon="5.62906">
        <ele>1020</ele>
        <time>2013-09-15T13:04:01.000Z</time>
      </trkpt>
      <trkpt lat="45.02405" lon="5.62916">
        <ele>1020</ele>
        <time>2013-09-15T13:04:03.000Z</time>
      </trkpt>
      <trkpt lat="45.02411" lon="5.62925">
        <ele>1019</ele>
        <time>2013-09-15T13:04:05.000Z</time>
      </trkpt>
      <trkpt lat="45.02413" lon="5.62931">
        <ele>1019</ele>
        <time>2013-09-15T13:04:06.000Z</time>
      </trkpt>
      <trkpt lat="45.02418" lon="5.62942">
        <ele>1019</ele>
        <time>2013-09-15T13:04:08.000Z</time>
      </trkpt>
      <trkpt lat="45.02421" lon="5.62946">
        <ele>1019</ele>
        <time>2013-09-15T13:04:09.000Z</time>
      </trkpt>
      <trkpt lat="45.02427" lon="5.62955">
        <ele>1018</ele>
        <time>2013-09-15T13:04:11.000Z</time>
      </trkpt>
      <trkpt lat="45.02433" lon="5.62963">
        <ele>1015</ele>
        <time>2013-09-15T13:04:13.000Z</time>
      </trkpt>
      <trkpt lat="45.02436" lon="5.6297">
        <ele>1012</ele>
        <time>2013-09-15T13:04:14.000Z</time>
      </trkpt>
      <trkpt lat="45.02443" lon="5.62978">
        <ele>1012</ele>
        <time>2013-09-15T13:04:16.000Z</time>
      </trkpt>
      <trkpt lat="45.02446" lon="5.62985">
        <ele>1011</ele>
        <time>2013-09-15T13:04:17.000Z</time>
      </trkpt>
      <trkpt lat="45.0245" lon="5.62991">
        <ele>1009</ele>
        <time>2013-09-15T13:04:18.000Z</time>
      </trkpt>
      <trkpt lat="45.02456" lon="5.63">
        <ele>1008</ele>
        <time>2013-09-15T13:04:19.000Z</time>
      </trkpt>
      <trkpt lat="45.02462" lon="5.63008">
        <ele>1006</ele>
        <time>2013-09-15T13:04:20.000Z</time>
      </trkpt>
      <trkpt lat="45.02468" lon="5.63017">
        <ele>1004</ele>
        <time>2013-09-15T13:04:21.000Z</time>
      </trkpt>
      <trkpt lat="45.02472" lon="5.63021">
        <ele>1004</ele>
        <time>2013-09-15T13:04:22.000Z</time>
      </trkpt>
      <trkpt lat="45.02477" lon="5.63026">
        <ele>1004</ele>
        <time>2013-09-15T13:04:23.000Z</time>
      </trkpt>
      <trkpt lat="45.02482" lon="5.63032">
        <ele>1004</ele>
        <time>2013-09-15T13:04:24.000Z</time>
      </trkpt>
      <trkpt lat="45.02487" lon="5.63036">
        <ele>1003</ele>
        <time>2013-09-15T13:04:25.000Z</time>
      </trkpt>
      <trkpt lat="45.02492" lon="5.63041">
        <ele>1003</ele>
        <time>2013-09-15T13:04:26.000Z</time>
      </trkpt>
      <trkpt lat="45.02497" lon="5.63045">
        <ele>998</ele>
        <time>2013-09-15T13:04:27.000Z</time>
      </trkpt>
      <trkpt lat="45.02502" lon="5.63049">
        <ele>994</ele>
        <time>2013-09-15T13:04:28.000Z</time>
      </trkpt>
      <trkpt lat="45.02506" lon="5.63054">
        <ele>991</ele>
        <time>2013-09-15T13:04:29.000Z</time>
      </trkpt>
      <trkpt lat="45.02512" lon="5.63056">
        <ele>988</ele>
        <time>2013-09-15T13:04:30.000Z</time>
      </trkpt>
      <trkpt lat="45.02518" lon="5.6306">
        <ele>986</ele>
        <time>2013-09-15T13:04:31.000Z</time>
      </trkpt>
      <trkpt lat="45.02523" lon="5.63062">
        <ele>984</ele>
        <time>2013-09-15T13:04:32.000Z</time>
      </trkpt>
      <trkpt lat="45.02528" lon="5.63066">
        <ele>983</ele>
        <time>2013-09-15T13:04:33.000Z</time>
      </trkpt>
      <trkpt lat="45.02534" lon="5.63071">
        <ele>982</ele>
        <time>2013-09-15T13:04:35.000Z</time>
      </trkpt>
      <trkpt lat="45.02547" lon="5.63077">
        <ele>981</ele>
        <time>2013-09-15T13:04:42.000Z</time>
      </trkpt>
      <trkpt lat="45.02556" lon="5.63082">
        <ele>980</ele>
        <time>2013-09-15T13:04:44.000Z</time>
      </trkpt>
      <trkpt lat="45.02561" lon="5.63086">
        <ele>979</ele>
        <time>2013-09-15T13:04:45.000Z</time>
      </trkpt>
      <trkpt lat="45.02568" lon="5.63088">
        <ele>977</ele>
        <time>2013-09-15T13:04:46.000Z</time>
      </trkpt>
      <trkpt lat="45.02576" lon="5.63088">
        <ele>976</ele>
        <time>2013-09-15T13:04:47.000Z</time>
      </trkpt>
      <trkpt lat="45.02584" lon="5.6309">
        <ele>975</ele>
        <time>2013-09-15T13:04:48.000Z</time>
      </trkpt>
      <trkpt lat="45.02591" lon="5.6309">
        <ele>974</ele>
        <time>2013-09-15T13:04:49.000Z</time>
      </trkpt>
      <trkpt lat="45.026" lon="5.6309">
        <ele>972</ele>
        <time>2013-09-15T13:04:50.000Z</time>
      </trkpt>
      <trkpt lat="45.02606" lon="5.6309">
        <ele>971</ele>
        <time>2013-09-15T13:04:51.000Z</time>
      </trkpt>
      <trkpt lat="45.02614" lon="5.6309">
        <ele>970</ele>
        <time>2013-09-15T13:04:52.000Z</time>
      </trkpt>
      <trkpt lat="45.02619" lon="5.6309">
        <ele>968</ele>
        <time>2013-09-15T13:04:53.000Z</time>
      </trkpt>
      <trkpt lat="45.02625" lon="5.63092">
        <ele>968</ele>
        <time>2013-09-15T13:04:54.000Z</time>
      </trkpt>
      <trkpt lat="45.02631" lon="5.63094">
        <ele>967</ele>
        <time>2013-09-15T13:04:55.000Z</time>
      </trkpt>
      <trkpt lat="45.02637" lon="5.63099">
        <ele>966</ele>
        <time>2013-09-15T13:04:56.000Z</time>
      </trkpt>
      <trkpt lat="45.02642" lon="5.63101">
        <ele>965</ele>
        <time>2013-09-15T13:04:57.000Z</time>
      </trkpt>
      <trkpt lat="45.02649" lon="5.63105">
        <ele>964</ele>
        <time>2013-09-15T13:04:58.000Z</time>
      </trkpt>
      <trkpt lat="45.02653" lon="5.63107">
        <ele>964</ele>
        <time>2013-09-15T13:04:59.000Z</time>
      </trkpt>
      <trkpt lat="45.02659" lon="5.63107">
        <ele>964</ele>
        <time>2013-09-15T13:05:00.000Z</time>
      </trkpt>
      <trkpt lat="45.02667" lon="5.63107">
        <ele>964</ele>
        <time>2013-09-15T13:05:02.000Z</time>
      </trkpt>
      <trkpt lat="45.02675" lon="5.63112">
        <ele>964</ele>
        <time>2013-09-15T13:05:04.000Z</time>
      </trkpt>
      <trkpt lat="45.02682" lon="5.63116">
        <ele>963</ele>
        <time>2013-09-15T13:05:06.000Z</time>
      </trkpt>
      <trkpt lat="45.02686" lon="5.6312">
        <ele>962</ele>
        <time>2013-09-15T13:05:07.000Z</time>
      </trkpt>
      <trkpt lat="45.02691" lon="5.63122">
        <ele>961</ele>
        <time>2013-09-15T13:05:08.000Z</time>
      </trkpt>
      <trkpt lat="45.02696" lon="5.63124">
        <ele>960</ele>
        <time>2013-09-15T13:05:09.000Z</time>
      </trkpt>
      <trkpt lat="45.02702" lon="5.63126">
        <ele>960</ele>
        <time>2013-09-15T13:05:10.000Z</time>
      </trkpt>
      <trkpt lat="45.02706" lon="5.63129">
        <ele>959</ele>
        <time>2013-09-15T13:05:11.000Z</time>
      </trkpt>
      <trkpt lat="45.02714" lon="5.63131">
        <ele>958</ele>
        <time>2013-09-15T13:05:13.000Z</time>
      </trkpt>
      <trkpt lat="45.02722" lon="5.63133">
        <ele>958</ele>
        <time>2013-09-15T13:05:15.000Z</time>
      </trkpt>
      <trkpt lat="45.02726" lon="5.63135">
        <ele>957</ele>
        <time>2013-09-15T13:05:16.000Z</time>
      </trkpt>
      <trkpt lat="45.02733" lon="5.63139">
        <ele>957</ele>
        <time>2013-09-15T13:05:18.000Z</time>
      </trkpt>
      <trkpt lat="45.02739" lon="5.63142">
        <ele>957</ele>
        <time>2013-09-15T13:05:20.000Z</time>
      </trkpt>
      <trkpt lat="45.02746" lon="5.63146">
        <ele>957</ele>
        <time>2013-09-15T13:05:22.000Z</time>
      </trkpt>
      <trkpt lat="45.02751" lon="5.6315">
        <ele>957</ele>
        <time>2013-09-15T13:05:24.000Z</time>
      </trkpt>
      <trkpt lat="45.02757" lon="5.63157">
        <ele>957</ele>
        <time>2013-09-15T13:05:26.000Z</time>
      </trkpt>
      <trkpt lat="45.02763" lon="5.63161">
        <ele>957</ele>
        <time>2013-09-15T13:05:28.000Z</time>
      </trkpt>
      <trkpt lat="45.02767" lon="5.63165">
        <ele>957</ele>
        <time>2013-09-15T13:05:30.000Z</time>
      </trkpt>
      <trkpt lat="45.02772" lon="5.63172">
        <ele>957</ele>
        <time>2013-09-15T13:05:32.000Z</time>
      </trkpt>
      <trkpt lat="45.02776" lon="5.63178">
        <ele>957</ele>
        <time>2013-09-15T13:05:34.000Z</time>
      </trkpt>
      <trkpt lat="45.02777" lon="5.63184">
        <ele>957</ele>
        <time>2013-09-15T13:05:35.000Z</time>
      </trkpt>
      <trkpt lat="45.02781" lon="5.63191">
        <ele>958</ele>
        <time>2013-09-15T13:05:37.000Z</time>
      </trkpt>
      <trkpt lat="45.02792" lon="5.63206">
        <ele>958</ele>
        <time>2013-09-15T13:05:42.000Z</time>
      </trkpt>
      <trkpt lat="45.02792" lon="5.63206">
        <ele>958</ele>
        <time>2013-09-15T13:05:42.000Z</time>
      </trkpt>
      <trkpt lat="45.02792" lon="5.63206">
        <ele>958</ele>
        <time>2013-09-15T13:05:58.000Z</time>
      </trkpt>
      <trkpt lat="45.02797" lon="5.63206">
        <ele>957</ele>
        <time>2013-09-15T13:05:59.000Z</time>
      </trkpt>
      <trkpt lat="45.02802" lon="5.63204">
        <ele>956</ele>
        <time>2013-09-15T13:06:00.000Z</time>
      </trkpt>
      <trkpt lat="45.02807" lon="5.63202">
        <ele>956</ele>
        <time>2013-09-15T13:06:01.000Z</time>
      </trkpt>
      <trkpt lat="45.02811" lon="5.63193">
        <ele>955</ele>
        <time>2013-09-15T13:06:03.000Z</time>
      </trkpt>
      <trkpt lat="45.02812" lon="5.63187">
        <ele>954</ele>
        <time>2013-09-15T13:06:05.000Z</time>
      </trkpt>
      <trkpt lat="45.02812" lon="5.6318">
        <ele>954</ele>
        <time>2013-09-15T13:06:07.000Z</time>
      </trkpt>
      <trkpt lat="45.02812" lon="5.63169">
        <ele>947</ele>
        <time>2013-09-15T13:06:09.000Z</time>
      </trkpt>
      <trkpt lat="45.02812" lon="5.63163">
        <ele>945</ele>
        <time>2013-09-15T13:06:10.000Z</time>
      </trkpt>
      <trkpt lat="45.0281" lon="5.63157">
        <ele>944</ele>
        <time>2013-09-15T13:06:12.000Z</time>
      </trkpt>
      <trkpt lat="45.02808" lon="5.63148">
        <ele>944</ele>
        <time>2013-09-15T13:06:14.000Z</time>
      </trkpt>
      <trkpt lat="45.02808" lon="5.63142">
        <ele>943</ele>
        <time>2013-09-15T13:06:16.000Z</time>
      </trkpt>
      <trkpt lat="45.02814" lon="5.63135">
        <ele>943</ele>
        <time>2013-09-15T13:06:18.000Z</time>
      </trkpt>
      <trkpt lat="45.0282" lon="5.63129">
        <ele>942</ele>
        <time>2013-09-15T13:06:20.000Z</time>
      </trkpt>
      <trkpt lat="45.02827" lon="5.63126">
        <ele>942</ele>
        <time>2013-09-15T13:06:22.000Z</time>
      </trkpt>
      <trkpt lat="45.02832" lon="5.63124">
        <ele>941</ele>
        <time>2013-09-15T13:06:23.000Z</time>
      </trkpt>
      <trkpt lat="45.02838" lon="5.63124">
        <ele>941</ele>
        <time>2013-09-15T13:06:24.000Z</time>
      </trkpt>
      <trkpt lat="45.02842" lon="5.63122">
        <ele>940</ele>
        <time>2013-09-15T13:06:25.000Z</time>
      </trkpt>
      <trkpt lat="45.02842" lon="5.63122">
        <ele>940</ele>
        <time>2013-09-15T13:06:25.000Z</time>
      </trkpt>
      <trkpt lat="45.02842" lon="5.63122">
        <ele>940</ele>
        <time>2013-09-15T13:06:28.000Z</time>
      </trkpt>
      <trkpt lat="45.02853" lon="5.6312">
        <ele>939</ele>
        <time>2013-09-15T13:06:29.000Z</time>
      </trkpt>
      <trkpt lat="45.02853" lon="5.6312">
        <ele>939</ele>
        <time>2013-09-15T13:06:29.000Z</time>
      </trkpt>
      <trkpt lat="45.02853" lon="5.6312">
        <ele>939</ele>
        <time>2013-09-15T13:06:32.000Z</time>
      </trkpt>
      <trkpt lat="45.02864" lon="5.63118">
        <ele>937</ele>
        <time>2013-09-15T13:06:33.000Z</time>
      </trkpt>
      <trkpt lat="45.02864" lon="5.63118">
        <ele>937</ele>
        <time>2013-09-15T13:06:33.000Z</time>
      </trkpt>
      <trkpt lat="45.02864" lon="5.63118">
        <ele>937</ele>
        <time>2013-09-15T13:06:34.000Z</time>
      </trkpt>
      <trkpt lat="45.02871" lon="5.63118">
        <ele>937</ele>
        <time>2013-09-15T13:06:35.000Z</time>
      </trkpt>
      <trkpt lat="45.02875" lon="5.6312">
        <ele>936</ele>
        <time>2013-09-15T13:06:36.000Z</time>
      </trkpt>
      <trkpt lat="45.0288" lon="5.63118">
        <ele>936</ele>
        <time>2013-09-15T13:06:37.000Z</time>
      </trkpt>
      <trkpt lat="45.02888" lon="5.63118">
        <ele>935</ele>
        <time>2013-09-15T13:06:39.000Z</time>
      </trkpt>
      <trkpt lat="45.02894" lon="5.63118">
        <ele>934</ele>
        <time>2013-09-15T13:06:40.000Z</time>
      </trkpt>
      <trkpt lat="45.02899" lon="5.63118">
        <ele>934</ele>
        <time>2013-09-15T13:06:41.000Z</time>
      </trkpt>
      <trkpt lat="45.02904" lon="5.63116">
        <ele>933</ele>
        <time>2013-09-15T13:06:42.000Z</time>
      </trkpt>
      <trkpt lat="45.02908" lon="5.63114">
        <ele>933</ele>
        <time>2013-09-15T13:06:43.000Z</time>
      </trkpt>
      <trkpt lat="45.02917" lon="5.63112">
        <ele>932</ele>
        <time>2013-09-15T13:06:45.000Z</time>
      </trkpt>
      <trkpt lat="45.02921" lon="5.63109">
        <ele>931</ele>
        <time>2013-09-15T13:06:46.000Z</time>
      </trkpt>
      <trkpt lat="45.02927" lon="5.63107">
        <ele>931</ele>
        <time>2013-09-15T13:06:47.000Z</time>
      </trkpt>
      <trkpt lat="45.02934" lon="5.63103">
        <ele>929</ele>
        <time>2013-09-15T13:06:49.000Z</time>
      </trkpt>
      <trkpt lat="45.02942" lon="5.63099">
        <ele>928</ele>
        <time>2013-09-15T13:06:51.000Z</time>
      </trkpt>
      <trkpt lat="45.02955" lon="5.63092">
        <ele>925</ele>
        <time>2013-09-15T13:06:56.000Z</time>
      </trkpt>
      <trkpt lat="45.02955" lon="5.63092">
        <ele>925</ele>
        <time>2013-09-15T13:06:56.000Z</time>
      </trkpt>
      <trkpt lat="45.02955" lon="5.63092">
        <ele>925</ele>
        <time>2013-09-15T13:06:57.000Z</time>
      </trkpt>
      <trkpt lat="45.02962" lon="5.63082">
        <ele>917</ele>
        <time>2013-09-15T13:06:58.000Z</time>
      </trkpt>
      <trkpt lat="45.02965" lon="5.63073">
        <ele>912</ele>
        <time>2013-09-15T13:06:59.000Z</time>
      </trkpt>
      <trkpt lat="45.02968" lon="5.63066">
        <ele>910</ele>
        <time>2013-09-15T13:07:00.000Z</time>
      </trkpt>
      <trkpt lat="45.0297" lon="5.63058">
        <ele>908</ele>
        <time>2013-09-15T13:07:01.000Z</time>
      </trkpt>
      <trkpt lat="45.02972" lon="5.63051">
        <ele>907</ele>
        <time>2013-09-15T13:07:02.000Z</time>
      </trkpt>
      <trkpt lat="45.02974" lon="5.63043">
        <ele>905</ele>
        <time>2013-09-15T13:07:03.000Z</time>
      </trkpt>
      <trkpt lat="45.02983" lon="5.63038">
        <ele>905</ele>
        <time>2013-09-15T13:07:05.000Z</time>
      </trkpt>
      <trkpt lat="45.02987" lon="5.63036">
        <ele>904</ele>
        <time>2013-09-15T13:07:06.000Z</time>
      </trkpt>
      <trkpt lat="45.02996" lon="5.63036">
        <ele>904</ele>
        <time>2013-09-15T13:07:08.000Z</time>
      </trkpt>
      <trkpt lat="45.03003" lon="5.63038">
        <ele>905</ele>
        <time>2013-09-15T13:07:10.000Z</time>
      </trkpt>
      <trkpt lat="45.03009" lon="5.63036">
        <ele>904</ele>
        <time>2013-09-15T13:07:12.000Z</time>
      </trkpt>
      <trkpt lat="45.03014" lon="5.63034">
        <ele>904</ele>
        <time>2013-09-15T13:07:13.000Z</time>
      </trkpt>
      <trkpt lat="45.03019" lon="5.63032">
        <ele>903</ele>
        <time>2013-09-15T13:07:14.000Z</time>
      </trkpt>
      <trkpt lat="45.03024" lon="5.63032">
        <ele>902</ele>
        <time>2013-09-15T13:07:15.000Z</time>
      </trkpt>
      <trkpt lat="45.0303" lon="5.6303">
        <ele>901</ele>
        <time>2013-09-15T13:07:16.000Z</time>
      </trkpt>
      <trkpt lat="45.03035" lon="5.6303">
        <ele>899</ele>
        <time>2013-09-15T13:07:17.000Z</time>
      </trkpt>
      <trkpt lat="45.0304" lon="5.63028">
        <ele>897</ele>
        <time>2013-09-15T13:07:18.000Z</time>
      </trkpt>
      <trkpt lat="45.03047" lon="5.63028">
        <ele>895</ele>
        <time>2013-09-15T13:07:19.000Z</time>
      </trkpt>
      <trkpt lat="45.03052" lon="5.63026">
        <ele>892</ele>
        <time>2013-09-15T13:07:20.000Z</time>
      </trkpt>
      <trkpt lat="45.03057" lon="5.63024">
        <ele>890</ele>
        <time>2013-09-15T13:07:21.000Z</time>
      </trkpt>
      <trkpt lat="45.03062" lon="5.63024">
        <ele>888</ele>
        <time>2013-09-15T13:07:22.000Z</time>
      </trkpt>
      <trkpt lat="45.03066" lon="5.63021">
        <ele>887</ele>
        <time>2013-09-15T13:07:23.000Z</time>
      </trkpt>
      <trkpt lat="45.0307" lon="5.63017">
        <ele>886</ele>
        <time>2013-09-15T13:07:24.000Z</time>
      </trkpt>
      <trkpt lat="45.03075" lon="5.63015">
        <ele>884</ele>
        <time>2013-09-15T13:07:25.000Z</time>
      </trkpt>
      <trkpt lat="45.03082" lon="5.63015">
        <ele>884</ele>
        <time>2013-09-15T13:07:27.000Z</time>
      </trkpt>
      <trkpt lat="45.0309" lon="5.63017">
        <ele>884</ele>
        <time>2013-09-15T13:07:29.000Z</time>
      </trkpt>
      <trkpt lat="45.03097" lon="5.63019">
        <ele>883</ele>
        <time>2013-09-15T13:07:31.000Z</time>
      </trkpt>
      <trkpt lat="45.03105" lon="5.63021">
        <ele>883</ele>
        <time>2013-09-15T13:07:33.000Z</time>
      </trkpt>
      <trkpt lat="45.03101" lon="5.63024">
        <ele>880</ele>
        <time>2013-09-15T13:07:43.000Z</time>
      </trkpt>
      <trkpt lat="45.03096" lon="5.63028">
        <ele>880</ele>
        <time>2013-09-15T13:07:45.000Z</time>
      </trkpt>
      <trkpt lat="45.03092" lon="5.63032">
        <ele>879</ele>
        <time>2013-09-15T13:07:47.000Z</time>
      </trkpt>
      <trkpt lat="45.03089" lon="5.63038">
        <ele>878</ele>
        <time>2013-09-15T13:07:50.000Z</time>
      </trkpt>
      <trkpt lat="45.03089" lon="5.63038">
        <ele>878</ele>
        <time>2013-09-15T13:07:50.000Z</time>
      </trkpt>
      <trkpt lat="45.03089" lon="5.63038">
        <ele>878</ele>
        <time>2013-09-15T13:07:51.000Z</time>
      </trkpt>
      <trkpt lat="45.03097" lon="5.63043">
        <ele>873</ele>
        <time>2013-09-15T13:08:03.000Z</time>
      </trkpt>
      <trkpt lat="45.03097" lon="5.63043">
        <ele>873</ele>
        <time>2013-09-15T13:08:03.000Z</time>
      </trkpt>
      <trkpt lat="45.03097" lon="5.63043">
        <ele>873</ele>
        <time>2013-09-15T13:08:04.000Z</time>
      </trkpt>
      <trkpt lat="45.03103" lon="5.63045">
        <ele>872</ele>
        <time>2013-09-15T13:08:05.000Z</time>
      </trkpt>
      <trkpt lat="45.03109" lon="5.63045">
        <ele>871</ele>
        <time>2013-09-15T13:08:07.000Z</time>
      </trkpt>
      <trkpt lat="45.03114" lon="5.63049">
        <ele>869</ele>
        <time>2013-09-15T13:08:09.000Z</time>
      </trkpt>
      <trkpt lat="45.03119" lon="5.63054">
        <ele>868</ele>
        <time>2013-09-15T13:08:11.000Z</time>
      </trkpt>
      <trkpt lat="45.03122" lon="5.6306">
        <ele>867</ele>
        <time>2013-09-15T13:08:13.000Z</time>
      </trkpt>
      <trkpt lat="45.03126" lon="5.63066">
        <ele>866</ele>
        <time>2013-09-15T13:08:15.000Z</time>
      </trkpt>
      <trkpt lat="45.0313" lon="5.63075">
        <ele>865</ele>
        <time>2013-09-15T13:08:17.000Z</time>
      </trkpt>
      <trkpt lat="45.0313" lon="5.63082">
        <ele>864</ele>
        <time>2013-09-15T13:08:19.000Z</time>
      </trkpt>
      <trkpt lat="45.03132" lon="5.6309">
        <ele>860</ele>
        <time>2013-09-15T13:09:05.000Z</time>
      </trkpt>
      <trkpt lat="45.03135" lon="5.63094">
        <ele>860</ele>
        <time>2013-09-15T13:09:06.000Z</time>
      </trkpt>
      <trkpt lat="45.03141" lon="5.63101">
        <ele>855</ele>
        <time>2013-09-15T13:09:08.000Z</time>
      </trkpt>
      <trkpt lat="45.03148" lon="5.63109">
        <ele>849</ele>
        <time>2013-09-15T13:09:10.000Z</time>
      </trkpt>
      <trkpt lat="45.03152" lon="5.63114">
        <ele>847</ele>
        <time>2013-09-15T13:09:11.000Z</time>
      </trkpt>
      <trkpt lat="45.03158" lon="5.63118">
        <ele>847</ele>
        <time>2013-09-15T13:09:13.000Z</time>
      </trkpt>
      <trkpt lat="45.03167" lon="5.63118">
        <ele>847</ele>
        <time>2013-09-15T13:09:15.000Z</time>
      </trkpt>
      <trkpt lat="45.03175" lon="5.63118">
        <ele>846</ele>
        <time>2013-09-15T13:09:17.000Z</time>
      </trkpt>
      <trkpt lat="45.03181" lon="5.63118">
        <ele>846</ele>
        <time>2013-09-15T13:09:19.000Z</time>
      </trkpt>
      <trkpt lat="45.03189" lon="5.63124">
        <ele>843</ele>
        <time>2013-09-15T13:09:21.000Z</time>
      </trkpt>
      <trkpt lat="45.03194" lon="5.63129">
        <ele>842</ele>
        <time>2013-09-15T13:09:22.000Z</time>
      </trkpt>
      <trkpt lat="45.03198" lon="5.63133">
        <ele>841</ele>
        <time>2013-09-15T13:09:23.000Z</time>
      </trkpt>
      <trkpt lat="45.03204" lon="5.63137">
        <ele>840</ele>
        <time>2013-09-15T13:09:24.000Z</time>
      </trkpt>
      <trkpt lat="45.03208" lon="5.63142">
        <ele>839</ele>
        <time>2013-09-15T13:09:25.000Z</time>
      </trkpt>
      <trkpt lat="45.03213" lon="5.63148">
        <ele>839</ele>
        <time>2013-09-15T13:09:26.000Z</time>
      </trkpt>
      <trkpt lat="45.03219" lon="5.63154">
        <ele>838</ele>
        <time>2013-09-15T13:09:27.000Z</time>
      </trkpt>
      <trkpt lat="45.03223" lon="5.63159">
        <ele>837</ele>
        <time>2013-09-15T13:09:28.000Z</time>
      </trkpt>
      <trkpt lat="45.03228" lon="5.63165">
        <ele>837</ele>
        <time>2013-09-15T13:09:29.000Z</time>
      </trkpt>
      <trkpt lat="45.03232" lon="5.63172">
        <ele>836</ele>
        <time>2013-09-15T13:09:30.000Z</time>
      </trkpt>
      <trkpt lat="45.03237" lon="5.63178">
        <ele>836</ele>
        <time>2013-09-15T13:09:31.000Z</time>
      </trkpt>
      <trkpt lat="45.03243" lon="5.63182">
        <ele>835</ele>
        <time>2013-09-15T13:09:32.000Z</time>
      </trkpt>
      <trkpt lat="45.03249" lon="5.63187">
        <ele>835</ele>
        <time>2013-09-15T13:09:33.000Z</time>
      </trkpt>
      <trkpt lat="45.03254" lon="5.63193">
        <ele>834</ele>
        <time>2013-09-15T13:09:34.000Z</time>
      </trkpt>
      <trkpt lat="45.03258" lon="5.63197">
        <ele>833</ele>
        <time>2013-09-15T13:09:35.000Z</time>
      </trkpt>
      <trkpt lat="45.03262" lon="5.63202">
        <ele>833</ele>
        <time>2013-09-15T13:09:36.000Z</time>
      </trkpt>
      <trkpt lat="45.03264" lon="5.63208">
        <ele>831</ele>
        <time>2013-09-15T13:09:37.000Z</time>
      </trkpt>
      <trkpt lat="45.03268" lon="5.63217">
        <ele>823</ele>
        <time>2013-09-15T13:09:39.000Z</time>
      </trkpt>
      <trkpt lat="45.03271" lon="5.63223">
        <ele>817</ele>
        <time>2013-09-15T13:09:40.000Z</time>
      </trkpt>
      <trkpt lat="45.03273" lon="5.6323">
        <ele>811</ele>
        <time>2013-09-15T13:09:41.000Z</time>
      </trkpt>
      <trkpt lat="45.03276" lon="5.63238">
        <ele>809</ele>
        <time>2013-09-15T13:09:45.000Z</time>
      </trkpt>
      <trkpt lat="45.03284" lon="5.63247">
        <ele>803</ele>
        <time>2013-09-15T13:09:56.000Z</time>
      </trkpt>
      <trkpt lat="45.03284" lon="5.63247">
        <ele>803</ele>
        <time>2013-09-15T13:09:56.000Z</time>
      </trkpt>
      <trkpt lat="45.03284" lon="5.63247">
        <ele>786</ele>
        <time>2013-09-15T13:12:42.000Z</time>
      </trkpt>
      <trkpt lat="45.03288" lon="5.63249">
        <ele>786</ele>
        <time>2013-09-15T13:12:46.000Z</time>
      </trkpt>
      <trkpt lat="45.03295" lon="5.63251">
        <ele>785</ele>
        <time>2013-09-15T13:12:49.000Z</time>
      </trkpt>
      <trkpt lat="45.033" lon="5.63253">
        <ele>785</ele>
        <time>2013-09-15T13:12:52.000Z</time>
      </trkpt>
      <trkpt lat="45.03304" lon="5.63255">
        <ele>785</ele>
        <time>2013-09-15T13:12:55.000Z</time>
      </trkpt>
      <trkpt lat="45.03309" lon="5.6326">
        <ele>784</ele>
        <time>2013-09-15T13:13:00.000Z</time>
      </trkpt>
      <trkpt lat="45.03309" lon="5.6326">
        <ele>784</ele>
        <time>2013-09-15T13:13:00.000Z</time>
      </trkpt>
      <trkpt lat="45.03309" lon="5.6326">
        <ele>779</ele>
        <time>2013-09-15T13:13:59.000Z</time>
      </trkpt>
      <trkpt lat="45.03308" lon="5.63266">
        <ele>778</ele>
        <time>2013-09-15T13:14:18.000Z</time>
      </trkpt>
      <trkpt lat="45.03308" lon="5.63266">
        <ele>778</ele>
        <time>2013-09-15T13:14:18.000Z</time>
      </trkpt>
      <trkpt lat="45.03308" lon="5.63266">
        <ele>776</ele>
        <time>2013-09-15T13:14:24.000Z</time>
      </trkpt>
      <trkpt lat="45.0331" lon="5.63272">
        <ele>774</ele>
        <time>2013-09-15T13:14:44.000Z</time>
      </trkpt>
      <trkpt lat="45.0331" lon="5.63272">
        <ele>774</ele>
        <time>2013-09-15T13:14:44.000Z</time>
      </trkpt>
      <trkpt lat="45.0331" lon="5.63272">
        <ele>772</ele>
        <time>2013-09-15T13:15:13.000Z</time>
      </trkpt>
      <trkpt lat="45.03312" lon="5.63266">
        <ele>769</ele>
        <time>2013-09-15T13:15:28.000Z</time>
      </trkpt>
      <trkpt lat="45.03316" lon="5.6326">
        <ele>766</ele>
        <time>2013-09-15T13:15:34.000Z</time>
      </trkpt>
      <trkpt lat="45.03316" lon="5.6326">
        <ele>766</ele>
        <time>2013-09-15T13:15:34.000Z</time>
      </trkpt>
      <trkpt lat="45.03316" lon="5.6326">
        <ele>766</ele>
        <time>2013-09-15T13:15:35.000Z</time>
      </trkpt>
      <trkpt lat="45.0332" lon="5.63253">
        <ele>763</ele>
        <time>2013-09-15T13:16:11.000Z</time>
      </trkpt>
      <trkpt lat="45.03326" lon="5.63253">
        <ele>760</ele>
        <time>2013-09-15T13:16:23.000Z</time>
      </trkpt>
      <trkpt lat="45.03326" lon="5.63253">
        <ele>760</ele>
        <time>2013-09-15T13:16:23.000Z</time>
      </trkpt>
      <trkpt lat="45.03326" lon="5.63253">
        <ele>760</ele>
        <time>2013-09-15T13:16:24.000Z</time>
      </trkpt>
      <trkpt lat="45.0333" lon="5.63255">
        <ele>757</ele>
        <time>2013-09-15T13:16:40.000Z</time>
      </trkpt>
      <trkpt lat="45.03334" lon="5.63253">
        <ele>755</ele>
        <time>2013-09-15T13:16:43.000Z</time>
      </trkpt>
      <trkpt lat="45.0334" lon="5.63253">
        <ele>754</ele>
        <time>2013-09-15T13:16:46.000Z</time>
      </trkpt>
      <trkpt lat="45.03344" lon="5.63251">
        <ele>753</ele>
        <time>2013-09-15T13:16:48.000Z</time>
      </trkpt>
      <trkpt lat="45.03348" lon="5.63247">
        <ele>752</ele>
        <time>2013-09-15T13:16:50.000Z</time>
      </trkpt>
      <trkpt lat="45.03354" lon="5.63242">
        <ele>751</ele>
        <time>2013-09-15T13:16:52.000Z</time>
      </trkpt>
      <trkpt lat="45.03358" lon="5.63238">
        <ele>750</ele>
        <time>2013-09-15T13:16:54.000Z</time>
      </trkpt>
      <trkpt lat="45.03363" lon="5.63232">
        <ele>749</ele>
        <time>2013-09-15T13:16:57.000Z</time>
      </trkpt>
      <trkpt lat="45.03368" lon="5.63225">
        <ele>749</ele>
        <time>2013-09-15T13:16:59.000Z</time>
      </trkpt>
      <trkpt lat="45.03372" lon="5.63221">
        <ele>748</ele>
        <time>2013-09-15T13:17:01.000Z</time>
      </trkpt>
      <trkpt lat="45.03377" lon="5.63214">
        <ele>747</ele>
        <time>2013-09-15T13:17:04.000Z</time>
      </trkpt>
      <trkpt lat="45.03382" lon="5.63212">
        <ele>746</ele>
        <time>2013-09-15T13:17:06.000Z</time>
      </trkpt>
      <trkpt lat="45.03386" lon="5.6321">
        <ele>746</ele>
        <time>2013-09-15T13:17:08.000Z</time>
      </trkpt>
      <trkpt lat="45.03391" lon="5.6321">
        <ele>745</ele>
        <time>2013-09-15T13:17:10.000Z</time>
      </trkpt>
      <trkpt lat="45.03396" lon="5.63212">
        <ele>745</ele>
        <time>2013-09-15T13:17:12.000Z</time>
      </trkpt>
      <trkpt lat="45.03402" lon="5.63212">
        <ele>744</ele>
        <time>2013-09-15T13:17:15.000Z</time>
      </trkpt>
      <trkpt lat="45.03408" lon="5.63212">
        <ele>744</ele>
        <time>2013-09-15T13:17:18.000Z</time>
      </trkpt>
      <trkpt lat="45.03413" lon="5.6321">
        <ele>743</ele>
        <time>2013-09-15T13:17:20.000Z</time>
      </trkpt>
      <trkpt lat="45.03417" lon="5.63208">
        <ele>743</ele>
        <time>2013-09-15T13:17:22.000Z</time>
      </trkpt>
      <trkpt lat="45.03422" lon="5.63204">
        <ele>743</ele>
        <time>2013-09-15T13:17:25.000Z</time>
      </trkpt>
      <trkpt lat="45.03428" lon="5.632">
        <ele>742</ele>
        <time>2013-09-15T13:17:28.000Z</time>
      </trkpt>
      <trkpt lat="45.03433" lon="5.63195">
        <ele>742</ele>
        <time>2013-09-15T13:17:31.000Z</time>
      </trkpt>
      <trkpt lat="45.03438" lon="5.63191">
        <ele>742</ele>
        <time>2013-09-15T13:17:34.000Z</time>
      </trkpt>
      <trkpt lat="45.03443" lon="5.63189">
        <ele>741</ele>
        <time>2013-09-15T13:17:36.000Z</time>
      </trkpt>
      <trkpt lat="45.03448" lon="5.63189">
        <ele>741</ele>
        <time>2013-09-15T13:17:39.000Z</time>
      </trkpt>
      <trkpt lat="45.03454" lon="5.63191">
        <ele>741</ele>
        <time>2013-09-15T13:17:42.000Z</time>
      </trkpt>
      <trkpt lat="45.0346" lon="5.63191">
        <ele>740</ele>
        <time>2013-09-15T13:17:46.000Z</time>
      </trkpt>
      <trkpt lat="45.03465" lon="5.63189">
        <ele>740</ele>
        <time>2013-09-15T13:17:51.000Z</time>
      </trkpt>
      <trkpt lat="45.0347" lon="5.63184">
        <ele>740</ele>
        <time>2013-09-15T13:17:55.000Z</time>
      </trkpt>
      <trkpt lat="45.03474" lon="5.63178">
        <ele>740</ele>
        <time>2013-09-15T13:17:58.000Z</time>
      </trkpt>
      <trkpt lat="45.03478" lon="5.63174">
        <ele>740</ele>
        <time>2013-09-15T13:18:01.000Z</time>
      </trkpt>
      <trkpt lat="45.03484" lon="5.63169">
        <ele>741</ele>
        <time>2013-09-15T13:18:04.000Z</time>
      </trkpt>
      <trkpt lat="45.03488" lon="5.63165">
        <ele>741</ele>
        <time>2013-09-15T13:18:07.000Z</time>
      </trkpt>
      <trkpt lat="45.03492" lon="5.63159">
        <ele>741</ele>
        <time>2013-09-15T13:18:10.000Z</time>
      </trkpt>
      <trkpt lat="45.03496" lon="5.63154">
        <ele>741</ele>
        <time>2013-09-15T13:18:13.000Z</time>
      </trkpt>
      <trkpt lat="45.03502" lon="5.6315">
        <ele>741</ele>
        <time>2013-09-15T13:18:16.000Z</time>
      </trkpt>
      <trkpt lat="45.03506" lon="5.63146">
        <ele>741</ele>
        <time>2013-09-15T13:18:18.000Z</time>
      </trkpt>
      <trkpt lat="45.03512" lon="5.63142">
        <ele>741</ele>
        <time>2013-09-15T13:18:21.000Z</time>
      </trkpt>
      <trkpt lat="45.03517" lon="5.63137">
        <ele>741</ele>
        <time>2013-09-15T13:18:24.000Z</time>
      </trkpt>
      <trkpt lat="45.03521" lon="5.63133">
        <ele>741</ele>
        <time>2013-09-15T13:18:27.000Z</time>
      </trkpt>
      <trkpt lat="45.03525" lon="5.63131">
        <ele>742</ele>
        <time>2013-09-15T13:18:29.000Z</time>
      </trkpt>
      <trkpt lat="45.0353" lon="5.63126">
        <ele>742</ele>
        <time>2013-09-15T13:18:32.000Z</time>
      </trkpt>
      <trkpt lat="45.03534" lon="5.63122">
        <ele>742</ele>
        <time>2013-09-15T13:18:35.000Z</time>
      </trkpt>
      <trkpt lat="45.03539" lon="5.63118">
        <ele>742</ele>
        <time>2013-09-15T13:18:38.000Z</time>
      </trkpt>
      <trkpt lat="45.03545" lon="5.63116">
        <ele>743</ele>
        <time>2013-09-15T13:18:41.000Z</time>
      </trkpt>
      <trkpt lat="45.0355" lon="5.63114">
        <ele>743</ele>
        <time>2013-09-15T13:18:44.000Z</time>
      </trkpt>
      <trkpt lat="45.03557" lon="5.63112">
        <ele>743</ele>
        <time>2013-09-15T13:18:47.000Z</time>
      </trkpt>
      <trkpt lat="45.03562" lon="5.63109">
        <ele>744</ele>
        <time>2013-09-15T13:18:50.000Z</time>
      </trkpt>
      <trkpt lat="45.03567" lon="5.63107">
        <ele>744</ele>
        <time>2013-09-15T13:18:53.000Z</time>
      </trkpt>
      <trkpt lat="45.03573" lon="5.63105">
        <ele>744</ele>
        <time>2013-09-15T13:18:56.000Z</time>
      </trkpt>
      <trkpt lat="45.03577" lon="5.63103">
        <ele>745</ele>
        <time>2013-09-15T13:18:58.000Z</time>
      </trkpt>
      <trkpt lat="45.03581" lon="5.63099">
        <ele>745</ele>
        <time>2013-09-15T13:19:00.000Z</time>
      </trkpt>
      <trkpt lat="45.03586" lon="5.63096">
        <ele>745</ele>
        <time>2013-09-15T13:19:02.000Z</time>
      </trkpt>
      <trkpt lat="45.03591" lon="5.63092">
        <ele>745</ele>
        <time>2013-09-15T13:19:05.000Z</time>
      </trkpt>
      <trkpt lat="45.03595" lon="5.63088">
        <ele>746</ele>
        <time>2013-09-15T13:19:07.000Z</time>
      </trkpt>
      <trkpt lat="45.036" lon="5.63086">
        <ele>746</ele>
        <time>2013-09-15T13:19:09.000Z</time>
      </trkpt>
      <trkpt lat="45.03605" lon="5.63082">
        <ele>746</ele>
        <time>2013-09-15T13:19:11.000Z</time>
      </trkpt>
      <trkpt lat="45.0361" lon="5.63079">
        <ele>747</ele>
        <time>2013-09-15T13:19:13.000Z</time>
      </trkpt>
      <trkpt lat="45.03616" lon="5.63075">
        <ele>747</ele>
        <time>2013-09-15T13:19:15.000Z</time>
      </trkpt>
      <trkpt lat="45.03621" lon="5.63073">
        <ele>747</ele>
        <time>2013-09-15T13:19:17.000Z</time>
      </trkpt>
      <trkpt lat="45.03626" lon="5.63069">
        <ele>747</ele>
        <time>2013-09-15T13:19:19.000Z</time>
      </trkpt>
      <trkpt lat="45.03631" lon="5.63066">
        <ele>748</ele>
        <time>2013-09-15T13:19:21.000Z</time>
      </trkpt>
      <trkpt lat="45.03636" lon="5.63064">
        <ele>748</ele>
        <time>2013-09-15T13:19:23.000Z</time>
      </trkpt>
      <trkpt lat="45.03641" lon="5.63062">
        <ele>748</ele>
        <time>2013-09-15T13:19:25.000Z</time>
      </trkpt>
      <trkpt lat="45.03646" lon="5.6306">
        <ele>749</ele>
        <time>2013-09-15T13:19:27.000Z</time>
      </trkpt>
      <trkpt lat="45.03651" lon="5.6306">
        <ele>749</ele>
        <time>2013-09-15T13:19:29.000Z</time>
      </trkpt>
      <trkpt lat="45.03657" lon="5.63058">
        <ele>750</ele>
        <time>2013-09-15T13:19:32.000Z</time>
      </trkpt>
      <trkpt lat="45.03663" lon="5.63058">
        <ele>750</ele>
        <time>2013-09-15T13:19:34.000Z</time>
      </trkpt>
      <trkpt lat="45.0367" lon="5.63058">
        <ele>751</ele>
        <time>2013-09-15T13:19:37.000Z</time>
      </trkpt>
      <trkpt lat="45.03675" lon="5.63056">
        <ele>752</ele>
        <time>2013-09-15T13:19:39.000Z</time>
      </trkpt>
      <trkpt lat="45.03682" lon="5.63056">
        <ele>752</ele>
        <time>2013-09-15T13:19:42.000Z</time>
      </trkpt>
      <trkpt lat="45.03688" lon="5.63058">
        <ele>753</ele>
        <time>2013-09-15T13:19:44.000Z</time>
      </trkpt>
      <trkpt lat="45.03695" lon="5.63058">
        <ele>753</ele>
        <time>2013-09-15T13:19:47.000Z</time>
      </trkpt>
      <trkpt lat="45.03701" lon="5.6306">
        <ele>754</ele>
        <time>2013-09-15T13:19:49.000Z</time>
      </trkpt>
      <trkpt lat="45.03706" lon="5.63062">
        <ele>754</ele>
        <time>2013-09-15T13:19:50.000Z</time>
      </trkpt>
      <trkpt lat="45.03711" lon="5.63064">
        <ele>755</ele>
        <time>2013-09-15T13:19:51.000Z</time>
      </trkpt>
      <trkpt lat="45.03715" lon="5.63066">
        <ele>755</ele>
        <time>2013-09-15T13:19:52.000Z</time>
      </trkpt>
      <trkpt lat="45.0372" lon="5.63069">
        <ele>755</ele>
        <time>2013-09-15T13:19:53.000Z</time>
      </trkpt>
      <trkpt lat="45.03725" lon="5.63071">
        <ele>756</ele>
        <time>2013-09-15T13:19:54.000Z</time>
      </trkpt>
      <trkpt lat="45.03729" lon="5.63073">
        <ele>756</ele>
        <time>2013-09-15T13:19:55.000Z</time>
      </trkpt>
      <trkpt lat="45.03737" lon="5.63077">
        <ele>757</ele>
        <time>2013-09-15T13:19:57.000Z</time>
      </trkpt>
      <trkpt lat="45.03744" lon="5.63082">
        <ele>757</ele>
        <time>2013-09-15T13:19:59.000Z</time>
      </trkpt>
      <trkpt lat="45.03751" lon="5.63084">
        <ele>758</ele>
        <time>2013-09-15T13:20:01.000Z</time>
      </trkpt>
      <trkpt lat="45.03758" lon="5.63086">
        <ele>759</ele>
        <time>2013-09-15T13:20:03.000Z</time>
      </trkpt>
      <trkpt lat="45.03766" lon="5.63086">
        <ele>759</ele>
        <time>2013-09-15T13:20:05.000Z</time>
      </trkpt>
      <trkpt lat="45.03772" lon="5.63084">
        <ele>760</ele>
        <time>2013-09-15T13:20:07.000Z</time>
      </trkpt>
      <trkpt lat="45.03778" lon="5.63084">
        <ele>760</ele>
        <time>2013-09-15T13:20:09.000Z</time>
      </trkpt>
      <trkpt lat="45.03784" lon="5.63082">
        <ele>761</ele>
        <time>2013-09-15T13:20:11.000Z</time>
      </trkpt>
      <trkpt lat="45.0379" lon="5.63082">
        <ele>761</ele>
        <time>2013-09-15T13:20:13.000Z</time>
      </trkpt>
      <trkpt lat="45.03796" lon="5.63079">
        <ele>761</ele>
        <time>2013-09-15T13:20:15.000Z</time>
      </trkpt>
      <trkpt lat="45.03801" lon="5.63079">
        <ele>762</ele>
        <time>2013-09-15T13:20:17.000Z</time>
      </trkpt>
      <trkpt lat="45.03806" lon="5.63079">
        <ele>762</ele>
        <time>2013-09-15T13:20:19.000Z</time>
      </trkpt>
      <trkpt lat="45.03814" lon="5.63079">
        <ele>763</ele>
        <time>2013-09-15T13:20:22.000Z</time>
      </trkpt>
      <trkpt lat="45.03818" lon="5.63077">
        <ele>763</ele>
        <time>2013-09-15T13:20:24.000Z</time>
      </trkpt>
      <trkpt lat="45.03826" lon="5.63077">
        <ele>764</ele>
        <time>2013-09-15T13:20:26.000Z</time>
      </trkpt>
      <trkpt lat="45.0383" lon="5.63079">
        <ele>764</ele>
        <time>2013-09-15T13:20:27.000Z</time>
      </trkpt>
      <trkpt lat="45.03839" lon="5.63079">
        <ele>765</ele>
        <time>2013-09-15T13:20:29.000Z</time>
      </trkpt>
      <trkpt lat="45.03847" lon="5.63079">
        <ele>765</ele>
        <time>2013-09-15T13:20:31.000Z</time>
      </trkpt>
      <trkpt lat="45.03856" lon="5.63079">
        <ele>766</ele>
        <time>2013-09-15T13:20:33.000Z</time>
      </trkpt>
      <trkpt lat="45.03863" lon="5.63077">
        <ele>766</ele>
        <time>2013-09-15T13:20:35.000Z</time>
      </trkpt>
      <trkpt lat="45.03868" lon="5.63075">
        <ele>766</ele>
        <time>2013-09-15T13:20:36.000Z</time>
      </trkpt>
      <trkpt lat="45.03872" lon="5.63073">
        <ele>767</ele>
        <time>2013-09-15T13:20:37.000Z</time>
      </trkpt>
      <trkpt lat="45.03876" lon="5.63071">
        <ele>767</ele>
        <time>2013-09-15T13:20:38.000Z</time>
      </trkpt>
      <trkpt lat="45.03881" lon="5.63069">
        <ele>767</ele>
        <time>2013-09-15T13:20:39.000Z</time>
      </trkpt>
      <trkpt lat="45.03888" lon="5.63066">
        <ele>767</ele>
        <time>2013-09-15T13:20:41.000Z</time>
      </trkpt>
      <trkpt lat="45.03892" lon="5.63064">
        <ele>768</ele>
        <time>2013-09-15T13:20:42.000Z</time>
      </trkpt>
      <trkpt lat="45.03901" lon="5.63062">
        <ele>768</ele>
        <time>2013-09-15T13:20:44.000Z</time>
      </trkpt>
      <trkpt lat="45.03906" lon="5.6306">
        <ele>768</ele>
        <time>2013-09-15T13:20:45.000Z</time>
      </trkpt>
      <trkpt lat="45.03915" lon="5.63058">
        <ele>768</ele>
        <time>2013-09-15T13:20:47.000Z</time>
      </trkpt>
      <trkpt lat="45.03924" lon="5.63056">
        <ele>768</ele>
        <time>2013-09-15T13:20:49.000Z</time>
      </trkpt>
      <trkpt lat="45.03928" lon="5.63054">
        <ele>768</ele>
        <time>2013-09-15T13:20:50.000Z</time>
      </trkpt>
      <trkpt lat="45.03932" lon="5.63051">
        <ele>768</ele>
        <time>2013-09-15T13:20:51.000Z</time>
      </trkpt>
      <trkpt lat="45.03941" lon="5.63049">
        <ele>768</ele>
        <time>2013-09-15T13:20:53.000Z</time>
      </trkpt>
      <trkpt lat="45.03948" lon="5.63047">
        <ele>768</ele>
        <time>2013-09-15T13:20:55.000Z</time>
      </trkpt>
      <trkpt lat="45.03957" lon="5.63045">
        <ele>768</ele>
        <time>2013-09-15T13:20:57.000Z</time>
      </trkpt>
      <trkpt lat="45.03963" lon="5.63043">
        <ele>768</ele>
        <time>2013-09-15T13:20:59.000Z</time>
      </trkpt>
      <trkpt lat="45.03968" lon="5.63041">
        <ele>769</ele>
        <time>2013-09-15T13:21:01.000Z</time>
      </trkpt>
      <trkpt lat="45.03976" lon="5.63041">
        <ele>769</ele>
        <time>2013-09-15T13:21:04.000Z</time>
      </trkpt>
      <trkpt lat="45.03981" lon="5.63038">
        <ele>769</ele>
        <time>2013-09-15T13:21:06.000Z</time>
      </trkpt>
      <trkpt lat="45.03988" lon="5.63036">
        <ele>769</ele>
        <time>2013-09-15T13:21:08.000Z</time>
      </trkpt>
      <trkpt lat="45.03993" lon="5.63032">
        <ele>770</ele>
        <time>2013-09-15T13:21:10.000Z</time>
      </trkpt>
      <trkpt lat="45.04" lon="5.6303">
        <ele>770</ele>
        <time>2013-09-15T13:21:12.000Z</time>
      </trkpt>
      <trkpt lat="45.04005" lon="5.63028">
        <ele>770</ele>
        <time>2013-09-15T13:21:14.000Z</time>
      </trkpt>
      <trkpt lat="45.0401" lon="5.63026">
        <ele>771</ele>
        <time>2013-09-15T13:21:16.000Z</time>
      </trkpt>
      <trkpt lat="45.04017" lon="5.63026">
        <ele>771</ele>
        <time>2013-09-15T13:21:18.000Z</time>
      </trkpt>
      <trkpt lat="45.04024" lon="5.63024">
        <ele>772</ele>
        <time>2013-09-15T13:21:20.000Z</time>
      </trkpt>
      <trkpt lat="45.04031" lon="5.63021">
        <ele>772</ele>
        <time>2013-09-15T13:21:22.000Z</time>
      </trkpt>
      <trkpt lat="45.04038" lon="5.63021">
        <ele>772</ele>
        <time>2013-09-15T13:21:24.000Z</time>
      </trkpt>
      <trkpt lat="45.04046" lon="5.63021">
        <ele>772</ele>
        <time>2013-09-15T13:21:26.000Z</time>
      </trkpt>
      <trkpt lat="45.04053" lon="5.63017">
        <ele>772</ele>
        <time>2013-09-15T13:21:28.000Z</time>
      </trkpt>
      <trkpt lat="45.04061" lon="5.63015">
        <ele>772</ele>
        <time>2013-09-15T13:21:30.000Z</time>
      </trkpt>
      <trkpt lat="45.04065" lon="5.63013">
        <ele>772</ele>
        <time>2013-09-15T13:21:31.000Z</time>
      </trkpt>
      <trkpt lat="45.04072" lon="5.63011">
        <ele>772</ele>
        <time>2013-09-15T13:21:33.000Z</time>
      </trkpt>
      <trkpt lat="45.04076" lon="5.63008">
        <ele>772</ele>
        <time>2013-09-15T13:21:34.000Z</time>
      </trkpt>
      <trkpt lat="45.04082" lon="5.63006">
        <ele>772</ele>
        <time>2013-09-15T13:21:36.000Z</time>
      </trkpt>
      <trkpt lat="45.0409" lon="5.63004">
        <ele>772</ele>
        <time>2013-09-15T13:21:38.000Z</time>
      </trkpt>
      <trkpt lat="45.04096" lon="5.63004">
        <ele>772</ele>
        <time>2013-09-15T13:21:40.000Z</time>
      </trkpt>
      <trkpt lat="45.04103" lon="5.63004">
        <ele>772</ele>
        <time>2013-09-15T13:21:42.000Z</time>
      </trkpt>
      <trkpt lat="45.04109" lon="5.63004">
        <ele>772</ele>
        <time>2013-09-15T13:21:44.000Z</time>
      </trkpt>
      <trkpt lat="45.04116" lon="5.63006">
        <ele>772</ele>
        <time>2013-09-15T13:21:46.000Z</time>
      </trkpt>
      <trkpt lat="45.04121" lon="5.63004">
        <ele>772</ele>
        <time>2013-09-15T13:21:48.000Z</time>
      </trkpt>
      <trkpt lat="45.04127" lon="5.63004">
        <ele>773</ele>
        <time>2013-09-15T13:21:50.000Z</time>
      </trkpt>
      <trkpt lat="45.04133" lon="5.63004">
        <ele>773</ele>
        <time>2013-09-15T13:21:52.000Z</time>
      </trkpt>
      <trkpt lat="45.04139" lon="5.63004">
        <ele>773</ele>
        <time>2013-09-15T13:21:54.000Z</time>
      </trkpt>
      <trkpt lat="45.04146" lon="5.63002">
        <ele>773</ele>
        <time>2013-09-15T13:21:56.000Z</time>
      </trkpt>
      <trkpt lat="45.04153" lon="5.63002">
        <ele>773</ele>
        <time>2013-09-15T13:21:58.000Z</time>
      </trkpt>
      <trkpt lat="45.0416" lon="5.63002">
        <ele>774</ele>
        <time>2013-09-15T13:22:00.000Z</time>
      </trkpt>
      <trkpt lat="45.04166" lon="5.63002">
        <ele>774</ele>
        <time>2013-09-15T13:22:02.000Z</time>
      </trkpt>
      <trkpt lat="45.04172" lon="5.63002">
        <ele>775</ele>
        <time>2013-09-15T13:22:04.000Z</time>
      </trkpt>
      <trkpt lat="45.04179" lon="5.63004">
        <ele>775</ele>
        <time>2013-09-15T13:22:06.000Z</time>
      </trkpt>
      <trkpt lat="45.04184" lon="5.63004">
        <ele>776</ele>
        <time>2013-09-15T13:22:08.000Z</time>
      </trkpt>
      <trkpt lat="45.04188" lon="5.63006">
        <ele>777</ele>
        <time>2013-09-15T13:22:10.000Z</time>
      </trkpt>
      <trkpt lat="45.04194" lon="5.63006">
        <ele>777</ele>
        <time>2013-09-15T13:22:12.000Z</time>
      </trkpt>
      <trkpt lat="45.04199" lon="5.63006">
        <ele>778</ele>
        <time>2013-09-15T13:22:15.000Z</time>
      </trkpt>
      <trkpt lat="45.04206" lon="5.63006">
        <ele>778</ele>
        <time>2013-09-15T13:22:18.000Z</time>
      </trkpt>
      <trkpt lat="45.04211" lon="5.63006">
        <ele>778</ele>
        <time>2013-09-15T13:22:20.000Z</time>
      </trkpt>
      <trkpt lat="45.04215" lon="5.63008">
        <ele>779</ele>
        <time>2013-09-15T13:22:22.000Z</time>
      </trkpt>
      <trkpt lat="45.04223" lon="5.63011">
        <ele>779</ele>
        <time>2013-09-15T13:22:25.000Z</time>
      </trkpt>
      <trkpt lat="45.04228" lon="5.63011">
        <ele>780</ele>
        <time>2013-09-15T13:22:27.000Z</time>
      </trkpt>
      <trkpt lat="45.04235" lon="5.63008">
        <ele>780</ele>
        <time>2013-09-15T13:22:29.000Z</time>
      </trkpt>
      <trkpt lat="45.0424" lon="5.63004">
        <ele>780</ele>
        <time>2013-09-15T13:22:31.000Z</time>
      </trkpt>
      <trkpt lat="45.04246" lon="5.63002">
        <ele>780</ele>
        <time>2013-09-15T13:22:33.000Z</time>
      </trkpt>
      <trkpt lat="45.04252" lon="5.63">
        <ele>780</ele>
        <time>2013-09-15T13:22:35.000Z</time>
      </trkpt>
      <trkpt lat="45.04258" lon="5.62998">
        <ele>780</ele>
        <time>2013-09-15T13:22:38.000Z</time>
      </trkpt>
      <trkpt lat="45.04264" lon="5.62998">
        <ele>780</ele>
        <time>2013-09-15T13:22:41.000Z</time>
      </trkpt>
      <trkpt lat="45.04269" lon="5.63">
        <ele>780</ele>
        <time>2013-09-15T13:22:44.000Z</time>
      </trkpt>
      <trkpt lat="45.04273" lon="5.63002">
        <ele>780</ele>
        <time>2013-09-15T13:22:46.000Z</time>
      </trkpt>
      <trkpt lat="45.04279" lon="5.63002">
        <ele>780</ele>
        <time>2013-09-15T13:22:49.000Z</time>
      </trkpt>
      <trkpt lat="45.04283" lon="5.63004">
        <ele>780</ele>
        <time>2013-09-15T13:22:52.000Z</time>
      </trkpt>
      <trkpt lat="45.04288" lon="5.63004">
        <ele>780</ele>
        <time>2013-09-15T13:22:56.000Z</time>
      </trkpt>
      <trkpt lat="45.04293" lon="5.63006">
        <ele>780</ele>
        <time>2013-09-15T13:22:59.000Z</time>
      </trkpt>
      <trkpt lat="45.04298" lon="5.63008">
        <ele>780</ele>
        <time>2013-09-15T13:23:03.000Z</time>
      </trkpt>
      <trkpt lat="45.04302" lon="5.63011">
        <ele>781</ele>
        <time>2013-09-15T13:23:07.000Z</time>
      </trkpt>
      <trkpt lat="45.04306" lon="5.63013">
        <ele>781</ele>
        <time>2013-09-15T13:23:11.000Z</time>
      </trkpt>
      <trkpt lat="45.04312" lon="5.63013">
        <ele>782</ele>
        <time>2013-09-15T13:23:15.000Z</time>
      </trkpt>
      <trkpt lat="45.04317" lon="5.63013">
        <ele>782</ele>
        <time>2013-09-15T13:23:19.000Z</time>
      </trkpt>
      <trkpt lat="45.04322" lon="5.63015">
        <ele>782</ele>
        <time>2013-09-15T13:23:22.000Z</time>
      </trkpt>
      <trkpt lat="45.04327" lon="5.63015">
        <ele>783</ele>
        <time>2013-09-15T13:23:27.000Z</time>
      </trkpt>
      <trkpt lat="45.04331" lon="5.63017">
        <ele>783</ele>
        <time>2013-09-15T13:23:31.000Z</time>
      </trkpt>
      <trkpt lat="45.04336" lon="5.63017">
        <ele>783</ele>
        <time>2013-09-15T13:23:35.000Z</time>
      </trkpt>
      <trkpt lat="45.04341" lon="5.63019">
        <ele>783</ele>
        <time>2013-09-15T13:23:39.000Z</time>
      </trkpt>
      <trkpt lat="45.04346" lon="5.63019">
        <ele>784</ele>
        <time>2013-09-15T13:23:43.000Z</time>
      </trkpt>
      <trkpt lat="45.04352" lon="5.63021">
        <ele>784</ele>
        <time>2013-09-15T13:23:47.000Z</time>
      </trkpt>
      <trkpt lat="45.04356" lon="5.63024">
        <ele>784</ele>
        <time>2013-09-15T13:23:51.000Z</time>
      </trkpt>
      <trkpt lat="45.04361" lon="5.63024">
        <ele>785</ele>
        <time>2013-09-15T13:23:55.000Z</time>
      </trkpt>
      <trkpt lat="45.04367" lon="5.63024">
        <ele>785</ele>
        <time>2013-09-15T13:23:59.000Z</time>
      </trkpt>
      <trkpt lat="45.04371" lon="5.63021">
        <ele>785</ele>
        <time>2013-09-15T13:24:02.000Z</time>
      </trkpt>
      <trkpt lat="45.04375" lon="5.63019">
        <ele>786</ele>
        <time>2013-09-15T13:24:05.000Z</time>
      </trkpt>
      <trkpt lat="45.0438" lon="5.63015">
        <ele>786</ele>
        <time>2013-09-15T13:24:08.000Z</time>
      </trkpt>
      <trkpt lat="45.04384" lon="5.63011">
        <ele>787</ele>
        <time>2013-09-15T13:24:12.000Z</time>
      </trkpt>
      <trkpt lat="45.04388" lon="5.63004">
        <ele>787</ele>
        <time>2013-09-15T13:24:17.000Z</time>
      </trkpt>
      <trkpt lat="45.04392" lon="5.63002">
        <ele>788</ele>
        <time>2013-09-15T13:24:21.000Z</time>
      </trkpt>
      <trkpt lat="45.04397" lon="5.63">
        <ele>788</ele>
        <time>2013-09-15T13:24:25.000Z</time>
      </trkpt>
      <trkpt lat="45.04401" lon="5.62996">
        <ele>789</ele>
        <time>2013-09-15T13:24:29.000Z</time>
      </trkpt>
      <trkpt lat="45.04405" lon="5.62994">
        <ele>789</ele>
        <time>2013-09-15T13:24:32.000Z</time>
      </trkpt>
      <trkpt lat="45.0441" lon="5.62991">
        <ele>790</ele>
        <time>2013-09-15T13:24:36.000Z</time>
      </trkpt>
      <trkpt lat="45.04414" lon="5.62989">
        <ele>790</ele>
        <time>2013-09-15T13:24:39.000Z</time>
      </trkpt>
      <trkpt lat="45.04418" lon="5.62987">
        <ele>791</ele>
        <time>2013-09-15T13:24:43.000Z</time>
      </trkpt>
      <trkpt lat="45.04422" lon="5.62983">
        <ele>791</ele>
        <time>2013-09-15T13:24:46.000Z</time>
      </trkpt>
      <trkpt lat="45.04427" lon="5.62978">
        <ele>792</ele>
        <time>2013-09-15T13:24:49.000Z</time>
      </trkpt>
      <trkpt lat="45.04432" lon="5.62972">
        <ele>792</ele>
        <time>2013-09-15T13:24:52.000Z</time>
      </trkpt>
      <trkpt lat="45.04437" lon="5.62966">
        <ele>792</ele>
        <time>2013-09-15T13:24:55.000Z</time>
      </trkpt>
      <trkpt lat="45.04442" lon="5.62961">
        <ele>792</ele>
        <time>2013-09-15T13:24:57.000Z</time>
      </trkpt>
      <trkpt lat="45.04446" lon="5.62955">
        <ele>793</ele>
        <time>2013-09-15T13:25:00.000Z</time>
      </trkpt>
      <trkpt lat="45.0445" lon="5.62951">
        <ele>793</ele>
        <time>2013-09-15T13:25:03.000Z</time>
      </trkpt>
      <trkpt lat="45.04456" lon="5.62946">
        <ele>793</ele>
        <time>2013-09-15T13:25:06.000Z</time>
      </trkpt>
      <trkpt lat="45.04461" lon="5.62944">
        <ele>793</ele>
        <time>2013-09-15T13:25:09.000Z</time>
      </trkpt>
      <trkpt lat="45.04466" lon="5.62942">
        <ele>793</ele>
        <time>2013-09-15T13:25:11.000Z</time>
      </trkpt>
      <trkpt lat="45.04471" lon="5.6294">
        <ele>793</ele>
        <time>2013-09-15T13:25:13.000Z</time>
      </trkpt>
      <trkpt lat="45.04476" lon="5.6294">
        <ele>793</ele>
        <time>2013-09-15T13:25:15.000Z</time>
      </trkpt>
      <trkpt lat="45.0448" lon="5.62938">
        <ele>793</ele>
        <time>2013-09-15T13:25:17.000Z</time>
      </trkpt>
      <trkpt lat="45.04486" lon="5.62938">
        <ele>793</ele>
        <time>2013-09-15T13:25:20.000Z</time>
      </trkpt>
      <trkpt lat="45.04492" lon="5.62938">
        <ele>793</ele>
        <time>2013-09-15T13:25:23.000Z</time>
      </trkpt>
      <trkpt lat="45.04496" lon="5.62936">
        <ele>794</ele>
        <time>2013-09-15T13:25:25.000Z</time>
      </trkpt>
      <trkpt lat="45.04502" lon="5.62936">
        <ele>794</ele>
        <time>2013-09-15T13:25:28.000Z</time>
      </trkpt>
      <trkpt lat="45.04506" lon="5.62933">
        <ele>794</ele>
        <time>2013-09-15T13:25:30.000Z</time>
      </trkpt>
      <trkpt lat="45.04511" lon="5.62933">
        <ele>795</ele>
        <time>2013-09-15T13:25:33.000Z</time>
      </trkpt>
      <trkpt lat="45.04518" lon="5.62933">
        <ele>796</ele>
        <time>2013-09-15T13:25:36.000Z</time>
      </trkpt>
      <trkpt lat="45.04523" lon="5.62933">
        <ele>796</ele>
        <time>2013-09-15T13:25:39.000Z</time>
      </trkpt>
      <trkpt lat="45.04529" lon="5.62931">
        <ele>797</ele>
        <time>2013-09-15T13:25:42.000Z</time>
      </trkpt>
      <trkpt lat="45.04534" lon="5.62929">
        <ele>798</ele>
        <time>2013-09-15T13:25:45.000Z</time>
      </trkpt>
      <trkpt lat="45.04539" lon="5.62927">
        <ele>799</ele>
        <time>2013-09-15T13:25:48.000Z</time>
      </trkpt>
      <trkpt lat="45.04544" lon="5.62925">
        <ele>799</ele>
        <time>2013-09-15T13:25:51.000Z</time>
      </trkpt>
      <trkpt lat="45.04549" lon="5.6292">
        <ele>800</ele>
        <time>2013-09-15T13:25:54.000Z</time>
      </trkpt>
      <trkpt lat="45.04554" lon="5.62916">
        <ele>800</ele>
        <time>2013-09-15T13:25:57.000Z</time>
      </trkpt>
      <trkpt lat="45.04561" lon="5.62914">
        <ele>800</ele>
        <time>2013-09-15T13:26:00.000Z</time>
      </trkpt>
      <trkpt lat="45.04567" lon="5.62914">
        <ele>801</ele>
        <time>2013-09-15T13:26:03.000Z</time>
      </trkpt>
      <trkpt lat="45.04575" lon="5.62914">
        <ele>801</ele>
        <time>2013-09-15T13:26:06.000Z</time>
      </trkpt>
      <trkpt lat="45.04581" lon="5.62914">
        <ele>801</ele>
        <time>2013-09-15T13:26:09.000Z</time>
      </trkpt>
      <trkpt lat="45.04586" lon="5.62916">
        <ele>801</ele>
        <time>2013-09-15T13:26:11.000Z</time>
      </trkpt>
      <trkpt lat="45.04592" lon="5.62918">
        <ele>802</ele>
        <time>2013-09-15T13:26:13.000Z</time>
      </trkpt>
      <trkpt lat="45.04597" lon="5.62918">
        <ele>802</ele>
        <time>2013-09-15T13:26:15.000Z</time>
      </trkpt>
      <trkpt lat="45.04603" lon="5.6292">
        <ele>802</ele>
        <time>2013-09-15T13:26:17.000Z</time>
      </trkpt>
      <trkpt lat="45.04608" lon="5.62923">
        <ele>802</ele>
        <time>2013-09-15T13:26:19.000Z</time>
      </trkpt>
      <trkpt lat="45.04613" lon="5.62925">
        <ele>803</ele>
        <time>2013-09-15T13:26:22.000Z</time>
      </trkpt>
      <trkpt lat="45.04619" lon="5.62925">
        <ele>803</ele>
        <time>2013-09-15T13:26:25.000Z</time>
      </trkpt>
      <trkpt lat="45.04624" lon="5.62927">
        <ele>804</ele>
        <time>2013-09-15T13:26:28.000Z</time>
      </trkpt>
      <trkpt lat="45.04629" lon="5.62929">
        <ele>804</ele>
        <time>2013-09-15T13:26:30.000Z</time>
      </trkpt>
      <trkpt lat="45.04634" lon="5.62931">
        <ele>804</ele>
        <time>2013-09-15T13:26:32.000Z</time>
      </trkpt>
      <trkpt lat="45.04638" lon="5.62929">
        <ele>805</ele>
        <time>2013-09-15T13:26:39.000Z</time>
      </trkpt>
      <trkpt lat="45.04642" lon="5.62925">
        <ele>806</ele>
        <time>2013-09-15T13:26:58.000Z</time>
      </trkpt>
      <trkpt lat="45.04648" lon="5.62925">
        <ele>806</ele>
        <time>2013-09-15T13:27:00.000Z</time>
      </trkpt>
      <trkpt lat="45.04654" lon="5.62927">
        <ele>807</ele>
        <time>2013-09-15T13:27:02.000Z</time>
      </trkpt>
      <trkpt lat="45.04661" lon="5.62929">
        <ele>807</ele>
        <time>2013-09-15T13:27:04.000Z</time>
      </trkpt>
      <trkpt lat="45.04667" lon="5.62929">
        <ele>807</ele>
        <time>2013-09-15T13:27:06.000Z</time>
      </trkpt>
      <trkpt lat="45.04672" lon="5.62931">
        <ele>808</ele>
        <time>2013-09-15T13:27:08.000Z</time>
      </trkpt>
      <trkpt lat="45.04677" lon="5.62933">
        <ele>808</ele>
        <time>2013-09-15T13:27:11.000Z</time>
      </trkpt>
      <trkpt lat="45.04681" lon="5.62938">
        <ele>809</ele>
        <time>2013-09-15T13:27:15.000Z</time>
      </trkpt>
      <trkpt lat="45.04684" lon="5.62942">
        <ele>809</ele>
        <time>2013-09-15T13:27:23.000Z</time>
      </trkpt>
      <trkpt lat="45.04684" lon="5.62942">
        <ele>809</ele>
        <time>2013-09-15T13:27:23.000Z</time>
      </trkpt>
      <trkpt lat="45.04684" lon="5.62942">
        <ele>810</ele>
        <time>2013-09-15T13:27:25.000Z</time>
      </trkpt>
      <trkpt lat="45.04688" lon="5.62946">
        <ele>810</ele>
        <time>2013-09-15T13:27:35.000Z</time>
      </trkpt>
      <trkpt lat="45.04694" lon="5.62946">
        <ele>810</ele>
        <time>2013-09-15T13:27:44.000Z</time>
      </trkpt>
      <trkpt lat="45.04699" lon="5.62946">
        <ele>810</ele>
        <time>2013-09-15T13:27:49.000Z</time>
      </trkpt>
      <trkpt lat="45.04704" lon="5.62946">
        <ele>810</ele>
        <time>2013-09-15T13:27:53.000Z</time>
      </trkpt>
      <trkpt lat="45.04713" lon="5.62946">
        <ele>810</ele>
        <time>2013-09-15T13:27:56.000Z</time>
      </trkpt>
      <trkpt lat="45.04717" lon="5.62944">
        <ele>809</ele>
        <time>2013-09-15T13:27:57.000Z</time>
      </trkpt>
      <trkpt lat="45.04723" lon="5.62944">
        <ele>809</ele>
        <time>2013-09-15T13:27:58.000Z</time>
      </trkpt>
      <trkpt lat="45.04727" lon="5.62942">
        <ele>809</ele>
        <time>2013-09-15T13:27:59.000Z</time>
      </trkpt>
      <trkpt lat="45.04735" lon="5.6294">
        <ele>809</ele>
        <time>2013-09-15T13:28:01.000Z</time>
      </trkpt>
      <trkpt lat="45.0474" lon="5.6294">
        <ele>809</ele>
        <time>2013-09-15T13:28:03.000Z</time>
      </trkpt>
      <trkpt lat="45.04748" lon="5.6294">
        <ele>807</ele>
        <time>2013-09-15T13:28:05.000Z</time>
      </trkpt>
      <trkpt lat="45.04756" lon="5.62942">
        <ele>804</ele>
        <time>2013-09-15T13:28:07.000Z</time>
      </trkpt>
      <trkpt lat="45.04764" lon="5.62942">
        <ele>803</ele>
        <time>2013-09-15T13:28:09.000Z</time>
      </trkpt>
      <trkpt lat="45.04771" lon="5.62944">
        <ele>803</ele>
        <time>2013-09-15T13:28:11.000Z</time>
      </trkpt>
      <trkpt lat="45.04779" lon="5.62944">
        <ele>803</ele>
        <time>2013-09-15T13:28:13.000Z</time>
      </trkpt>
      <trkpt lat="45.04786" lon="5.62944">
        <ele>803</ele>
        <time>2013-09-15T13:28:15.000Z</time>
      </trkpt>
      <trkpt lat="45.04792" lon="5.62944">
        <ele>803</ele>
        <time>2013-09-15T13:28:17.000Z</time>
      </trkpt>
      <trkpt lat="45.04801" lon="5.62944">
        <ele>804</ele>
        <time>2013-09-15T13:28:19.000Z</time>
      </trkpt>
      <trkpt lat="45.04806" lon="5.62946">
        <ele>804</ele>
        <time>2013-09-15T13:28:20.000Z</time>
      </trkpt>
      <trkpt lat="45.04812" lon="5.62944">
        <ele>805</ele>
        <time>2013-09-15T13:28:21.000Z</time>
      </trkpt>
      <trkpt lat="45.04817" lon="5.62944">
        <ele>805</ele>
        <time>2013-09-15T13:28:22.000Z</time>
      </trkpt>
      <trkpt lat="45.04823" lon="5.62944">
        <ele>805</ele>
        <time>2013-09-15T13:28:23.000Z</time>
      </trkpt>
      <trkpt lat="45.04831" lon="5.62942">
        <ele>805</ele>
        <time>2013-09-15T13:28:25.000Z</time>
      </trkpt>
      <trkpt lat="45.0484" lon="5.62942">
        <ele>805</ele>
        <time>2013-09-15T13:28:27.000Z</time>
      </trkpt>
      <trkpt lat="45.04847" lon="5.62936">
        <ele>805</ele>
        <time>2013-09-15T13:28:29.000Z</time>
      </trkpt>
      <trkpt lat="45.0485" lon="5.62925">
        <ele>806</ele>
        <time>2013-09-15T13:28:31.000Z</time>
      </trkpt>
      <trkpt lat="45.04852" lon="5.62918">
        <ele>806</ele>
        <time>2013-09-15T13:28:32.000Z</time>
      </trkpt>
      <trkpt lat="45.04852" lon="5.62912">
        <ele>806</ele>
        <time>2013-09-15T13:28:33.000Z</time>
      </trkpt>
      <trkpt lat="45.04852" lon="5.62903">
        <ele>805</ele>
        <time>2013-09-15T13:28:34.000Z</time>
      </trkpt>
      <trkpt lat="45.04849" lon="5.62893">
        <ele>802</ele>
        <time>2013-09-15T13:28:35.000Z</time>
      </trkpt>
      <trkpt lat="45.04846" lon="5.62884">
        <ele>800</ele>
        <time>2013-09-15T13:28:36.000Z</time>
      </trkpt>
      <trkpt lat="45.04844" lon="5.62876">
        <ele>798</ele>
        <time>2013-09-15T13:28:37.000Z</time>
      </trkpt>
      <trkpt lat="45.04841" lon="5.62867">
        <ele>796</ele>
        <time>2013-09-15T13:28:38.000Z</time>
      </trkpt>
      <trkpt lat="45.04836" lon="5.62856">
        <ele>795</ele>
        <time>2013-09-15T13:28:40.000Z</time>
      </trkpt>
      <trkpt lat="45.04833" lon="5.62848">
        <ele>795</ele>
        <time>2013-09-15T13:28:42.000Z</time>
      </trkpt>
      <trkpt lat="45.04833" lon="5.62848">
        <ele>795</ele>
        <time>2013-09-15T13:28:42.000Z</time>
      </trkpt>
      <trkpt lat="45.04833" lon="5.62848">
        <ele>795</ele>
        <time>2013-09-15T13:28:44.000Z</time>
      </trkpt>
      <trkpt lat="45.04835" lon="5.62835">
        <ele>793</ele>
        <time>2013-09-15T13:28:45.000Z</time>
      </trkpt>
      <trkpt lat="45.04839" lon="5.62826">
        <ele>793</ele>
        <time>2013-09-15T13:28:47.000Z</time>
      </trkpt>
      <trkpt lat="45.04843" lon="5.62818">
        <ele>792</ele>
        <time>2013-09-15T13:28:49.000Z</time>
      </trkpt>
      <trkpt lat="45.04847" lon="5.62811">
        <ele>791</ele>
        <time>2013-09-15T13:28:51.000Z</time>
      </trkpt>
      <trkpt lat="45.04853" lon="5.62805">
        <ele>791</ele>
        <time>2013-09-15T13:28:53.000Z</time>
      </trkpt>
      <trkpt lat="45.04858" lon="5.62796">
        <ele>790</ele>
        <time>2013-09-15T13:28:55.000Z</time>
      </trkpt>
      <trkpt lat="45.04863" lon="5.6279">
        <ele>790</ele>
        <time>2013-09-15T13:28:57.000Z</time>
      </trkpt>
      <trkpt lat="45.04868" lon="5.62783">
        <ele>789</ele>
        <time>2013-09-15T13:28:59.000Z</time>
      </trkpt>
      <trkpt lat="45.04873" lon="5.62777">
        <ele>789</ele>
        <time>2013-09-15T13:29:01.000Z</time>
      </trkpt>
      <trkpt lat="45.04877" lon="5.6277">
        <ele>789</ele>
        <time>2013-09-15T13:29:03.000Z</time>
      </trkpt>
      <trkpt lat="45.04883" lon="5.62764">
        <ele>788</ele>
        <time>2013-09-15T13:29:05.000Z</time>
      </trkpt>
      <trkpt lat="45.04886" lon="5.62757">
        <ele>783</ele>
        <time>2013-09-15T13:29:06.000Z</time>
      </trkpt>
      <trkpt lat="45.0489" lon="5.62753">
        <ele>779</ele>
        <time>2013-09-15T13:29:07.000Z</time>
      </trkpt>
      <trkpt lat="45.04893" lon="5.62747">
        <ele>779</ele>
        <time>2013-09-15T13:29:08.000Z</time>
      </trkpt>
      <trkpt lat="45.04899" lon="5.62738">
        <ele>778</ele>
        <time>2013-09-15T13:29:10.000Z</time>
      </trkpt>
      <trkpt lat="45.04903" lon="5.62734">
        <ele>773</ele>
        <time>2013-09-15T13:29:11.000Z</time>
      </trkpt>
      <trkpt lat="45.04908" lon="5.62727">
        <ele>771</ele>
        <time>2013-09-15T13:29:12.000Z</time>
      </trkpt>
      <trkpt lat="45.04913" lon="5.62721">
        <ele>769</ele>
        <time>2013-09-15T13:29:13.000Z</time>
      </trkpt>
      <trkpt lat="45.04923" lon="5.6271">
        <ele>768</ele>
        <time>2013-09-15T13:29:18.000Z</time>
      </trkpt>
      <trkpt lat="45.04928" lon="5.62708">
        <ele>768</ele>
        <time>2013-09-15T13:29:20.000Z</time>
      </trkpt>
      <trkpt lat="45.04932" lon="5.62704">
        <ele>768</ele>
        <time>2013-09-15T13:29:22.000Z</time>
      </trkpt>
      <trkpt lat="45.04934" lon="5.62697">
        <ele>767</ele>
        <time>2013-09-15T13:29:24.000Z</time>
      </trkpt>
      <trkpt lat="45.04934" lon="5.62697">
        <ele>767</ele>
        <time>2013-09-15T13:29:24.000Z</time>
      </trkpt>
      <trkpt lat="45.04934" lon="5.62697">
        <ele>767</ele>
        <time>2013-09-15T13:29:26.000Z</time>
      </trkpt>
      <trkpt lat="45.04936" lon="5.62684">
        <ele>766</ele>
        <time>2013-09-15T13:29:27.000Z</time>
      </trkpt>
      <trkpt lat="45.04936" lon="5.62684">
        <ele>766</ele>
        <time>2013-09-15T13:29:27.000Z</time>
      </trkpt>
      <trkpt lat="45.04936" lon="5.62684">
        <ele>766</ele>
        <time>2013-09-15T13:29:30.000Z</time>
      </trkpt>
      <trkpt lat="45.04942" lon="5.62674">
        <ele>763</ele>
        <time>2013-09-15T13:29:31.000Z</time>
      </trkpt>
      <trkpt lat="45.04942" lon="5.62674">
        <ele>763</ele>
        <time>2013-09-15T13:29:31.000Z</time>
      </trkpt>
      <trkpt lat="45.04942" lon="5.62674">
        <ele>763</ele>
        <time>2013-09-15T13:29:35.000Z</time>
      </trkpt>
      <trkpt lat="45.04951" lon="5.62672">
        <ele>761</ele>
        <time>2013-09-15T13:29:36.000Z</time>
      </trkpt>
      <trkpt lat="45.04951" lon="5.62672">
        <ele>761</ele>
        <time>2013-09-15T13:29:36.000Z</time>
      </trkpt>
      <trkpt lat="45.04951" lon="5.62672">
        <ele>761</ele>
        <time>2013-09-15T13:29:51.000Z</time>
      </trkpt>
      <trkpt lat="45.04961" lon="5.62667">
        <ele>757</ele>
        <time>2013-09-15T13:29:52.000Z</time>
      </trkpt>
      <trkpt lat="45.04966" lon="5.62665">
        <ele>756</ele>
        <time>2013-09-15T13:29:53.000Z</time>
      </trkpt>
      <trkpt lat="45.04972" lon="5.62663">
        <ele>756</ele>
        <time>2013-09-15T13:29:54.000Z</time>
      </trkpt>
      <trkpt lat="45.04976" lon="5.62661">
        <ele>756</ele>
        <time>2013-09-15T13:29:55.000Z</time>
      </trkpt>
      <trkpt lat="45.04981" lon="5.62659">
        <ele>755</ele>
        <time>2013-09-15T13:29:56.000Z</time>
      </trkpt>
      <trkpt lat="45.04986" lon="5.62654">
        <ele>751</ele>
        <time>2013-09-15T13:29:57.000Z</time>
      </trkpt>
      <trkpt lat="45.0499" lon="5.62648">
        <ele>750</ele>
        <time>2013-09-15T13:29:58.000Z</time>
      </trkpt>
      <trkpt lat="45.04997" lon="5.62642">
        <ele>749</ele>
        <time>2013-09-15T13:30:00.000Z</time>
      </trkpt>
      <trkpt lat="45.05004" lon="5.62637">
        <ele>749</ele>
        <time>2013-09-15T13:30:02.000Z</time>
      </trkpt>
      <trkpt lat="45.0501" lon="5.62631">
        <ele>748</ele>
        <time>2013-09-15T13:30:04.000Z</time>
      </trkpt>
      <trkpt lat="45.05017" lon="5.62629">
        <ele>747</ele>
        <time>2013-09-15T13:30:06.000Z</time>
      </trkpt>
      <trkpt lat="45.05024" lon="5.62627">
        <ele>747</ele>
        <time>2013-09-15T13:30:08.000Z</time>
      </trkpt>
      <trkpt lat="45.05031" lon="5.62627">
        <ele>746</ele>
        <time>2013-09-15T13:30:10.000Z</time>
      </trkpt>
      <trkpt lat="45.05037" lon="5.62631">
        <ele>743</ele>
        <time>2013-09-15T13:30:12.000Z</time>
      </trkpt>
      <trkpt lat="45.05041" lon="5.62635">
        <ele>741</ele>
        <time>2013-09-15T13:30:13.000Z</time>
      </trkpt>
      <trkpt lat="45.05046" lon="5.62637">
        <ele>738</ele>
        <time>2013-09-15T13:30:14.000Z</time>
      </trkpt>
      <trkpt lat="45.0505" lon="5.62639">
        <ele>736</ele>
        <time>2013-09-15T13:30:15.000Z</time>
      </trkpt>
      <trkpt lat="45.0506" lon="5.62639">
        <ele>734</ele>
        <time>2013-09-15T13:30:17.000Z</time>
      </trkpt>
      <trkpt lat="45.05065" lon="5.62639">
        <ele>733</ele>
        <time>2013-09-15T13:30:18.000Z</time>
      </trkpt>
      <trkpt lat="45.05072" lon="5.62637">
        <ele>732</ele>
        <time>2013-09-15T13:30:19.000Z</time>
      </trkpt>
      <trkpt lat="45.05078" lon="5.62635">
        <ele>730</ele>
        <time>2013-09-15T13:30:20.000Z</time>
      </trkpt>
      <trkpt lat="45.05083" lon="5.62629">
        <ele>730</ele>
        <time>2013-09-15T13:30:21.000Z</time>
      </trkpt>
      <trkpt lat="45.0509" lon="5.62624">
        <ele>729</ele>
        <time>2013-09-15T13:30:22.000Z</time>
      </trkpt>
      <trkpt lat="45.05097" lon="5.6262">
        <ele>729</ele>
        <time>2013-09-15T13:30:23.000Z</time>
      </trkpt>
      <trkpt lat="45.05104" lon="5.62616">
        <ele>731</ele>
        <time>2013-09-15T13:30:24.000Z</time>
      </trkpt>
      <trkpt lat="45.0511" lon="5.62612">
        <ele>733</ele>
        <time>2013-09-15T13:30:25.000Z</time>
      </trkpt>
      <trkpt lat="45.05114" lon="5.62607">
        <ele>735</ele>
        <time>2013-09-15T13:30:26.000Z</time>
      </trkpt>
      <trkpt lat="45.05119" lon="5.62605">
        <ele>737</ele>
        <time>2013-09-15T13:30:27.000Z</time>
      </trkpt>
      <trkpt lat="45.05123" lon="5.62603">
        <ele>737</ele>
        <time>2013-09-15T13:30:28.000Z</time>
      </trkpt>
      <trkpt lat="45.05127" lon="5.62601">
        <ele>737</ele>
        <time>2013-09-15T13:30:29.000Z</time>
      </trkpt>
      <trkpt lat="45.05136" lon="5.62601">
        <ele>738</ele>
        <time>2013-09-15T13:30:31.000Z</time>
      </trkpt>
      <trkpt lat="45.0514" lon="5.62603">
        <ele>739</ele>
        <time>2013-09-15T13:30:32.000Z</time>
      </trkpt>
      <trkpt lat="45.05146" lon="5.62603">
        <ele>740</ele>
        <time>2013-09-15T13:30:33.000Z</time>
      </trkpt>
      <trkpt lat="45.05151" lon="5.62605">
        <ele>741</ele>
        <time>2013-09-15T13:30:34.000Z</time>
      </trkpt>
      <trkpt lat="45.05157" lon="5.62605">
        <ele>741</ele>
        <time>2013-09-15T13:30:35.000Z</time>
      </trkpt>
      <trkpt lat="45.05164" lon="5.62607">
        <ele>741</ele>
        <time>2013-09-15T13:30:36.000Z</time>
      </trkpt>
      <trkpt lat="45.05171" lon="5.62607">
        <ele>742</ele>
        <time>2013-09-15T13:30:37.000Z</time>
      </trkpt>
      <trkpt lat="45.05179" lon="5.62609">
        <ele>742</ele>
        <time>2013-09-15T13:30:38.000Z</time>
      </trkpt>
      <trkpt lat="45.05186" lon="5.62614">
        <ele>742</ele>
        <time>2013-09-15T13:30:39.000Z</time>
      </trkpt>
      <trkpt lat="45.05194" lon="5.62616">
        <ele>742</ele>
        <time>2013-09-15T13:30:40.000Z</time>
      </trkpt>
      <trkpt lat="45.05199" lon="5.6262">
        <ele>742</ele>
        <time>2013-09-15T13:30:41.000Z</time>
      </trkpt>
      <trkpt lat="45.05206" lon="5.62622">
        <ele>742</ele>
        <time>2013-09-15T13:30:42.000Z</time>
      </trkpt>
      <trkpt lat="45.05212" lon="5.62624">
        <ele>744</ele>
        <time>2013-09-15T13:30:43.000Z</time>
      </trkpt>
      <trkpt lat="45.05217" lon="5.62627">
        <ele>744</ele>
        <time>2013-09-15T13:30:44.000Z</time>
      </trkpt>
      <trkpt lat="45.05224" lon="5.62627">
        <ele>745</ele>
        <time>2013-09-15T13:30:46.000Z</time>
      </trkpt>
      <trkpt lat="45.05237" lon="5.62629">
        <ele>746</ele>
        <time>2013-09-15T13:30:53.000Z</time>
      </trkpt>
      <trkpt lat="45.05237" lon="5.62629">
        <ele>746</ele>
        <time>2013-09-15T13:30:53.000Z</time>
      </trkpt>
      <trkpt lat="45.05237" lon="5.62629">
        <ele>746</ele>
        <time>2013-09-15T13:30:56.000Z</time>
      </trkpt>
      <trkpt lat="45.05247" lon="5.62624">
        <ele>743</ele>
        <time>2013-09-15T13:30:57.000Z</time>
      </trkpt>
      <trkpt lat="45.05247" lon="5.62624">
        <ele>743</ele>
        <time>2013-09-15T13:30:57.000Z</time>
      </trkpt>
      <trkpt lat="45.05247" lon="5.62624">
        <ele>743</ele>
        <time>2013-09-15T13:31:03.000Z</time>
      </trkpt>
      <trkpt lat="45.05251" lon="5.62614">
        <ele>740</ele>
        <time>2013-09-15T13:31:04.000Z</time>
      </trkpt>
      <trkpt lat="45.05251" lon="5.62614">
        <ele>740</ele>
        <time>2013-09-15T13:31:04.000Z</time>
      </trkpt>
      <trkpt lat="45.05251" lon="5.62614">
        <ele>740</ele>
        <time>2013-09-15T13:31:46.000Z</time>
      </trkpt>
      <trkpt lat="45.05261" lon="5.62612">
        <ele>730</ele>
        <time>2013-09-15T13:31:47.000Z</time>
      </trkpt>
      <trkpt lat="45.05268" lon="5.62614">
        <ele>729</ele>
        <time>2013-09-15T13:31:48.000Z</time>
      </trkpt>
      <trkpt lat="45.05274" lon="5.62614">
        <ele>728</ele>
        <time>2013-09-15T13:31:49.000Z</time>
      </trkpt>
      <trkpt lat="45.05282" lon="5.62612">
        <ele>728</ele>
        <time>2013-09-15T13:31:50.000Z</time>
      </trkpt>
      <trkpt lat="45.0529" lon="5.62609">
        <ele>727</ele>
        <time>2013-09-15T13:31:51.000Z</time>
      </trkpt>
      <trkpt lat="45.05298" lon="5.62607">
        <ele>726</ele>
        <time>2013-09-15T13:31:52.000Z</time>
      </trkpt>
      <trkpt lat="45.05305" lon="5.62607">
        <ele>725</ele>
        <time>2013-09-15T13:31:53.000Z</time>
      </trkpt>
      <trkpt lat="45.05312" lon="5.62605">
        <ele>724</ele>
        <time>2013-09-15T13:31:54.000Z</time>
      </trkpt>
      <trkpt lat="45.05318" lon="5.62603">
        <ele>723</ele>
        <time>2013-09-15T13:31:55.000Z</time>
      </trkpt>
      <trkpt lat="45.05324" lon="5.62601">
        <ele>722</ele>
        <time>2013-09-15T13:31:56.000Z</time>
      </trkpt>
      <trkpt lat="45.05328" lon="5.62596">
        <ele>722</ele>
        <time>2013-09-15T13:31:57.000Z</time>
      </trkpt>
      <trkpt lat="45.05332" lon="5.62592">
        <ele>721</ele>
        <time>2013-09-15T13:31:58.000Z</time>
      </trkpt>
      <trkpt lat="45.05336" lon="5.6259">
        <ele>720</ele>
        <time>2013-09-15T13:31:59.000Z</time>
      </trkpt>
      <trkpt lat="45.05341" lon="5.62588">
        <ele>720</ele>
        <time>2013-09-15T13:32:00.000Z</time>
      </trkpt>
      <trkpt lat="45.05345" lon="5.62584">
        <ele>719</ele>
        <time>2013-09-15T13:32:01.000Z</time>
      </trkpt>
      <trkpt lat="45.05349" lon="5.62579">
        <ele>713</ele>
        <time>2013-09-15T13:32:02.000Z</time>
      </trkpt>
      <trkpt lat="45.05355" lon="5.62575">
        <ele>709</ele>
        <time>2013-09-15T13:32:03.000Z</time>
      </trkpt>
      <trkpt lat="45.05359" lon="5.62571">
        <ele>705</ele>
        <time>2013-09-15T13:32:04.000Z</time>
      </trkpt>
      <trkpt lat="45.05363" lon="5.62564">
        <ele>703</ele>
        <time>2013-09-15T13:32:05.000Z</time>
      </trkpt>
      <trkpt lat="45.05371" lon="5.62556">
        <ele>700</ele>
        <time>2013-09-15T13:32:07.000Z</time>
      </trkpt>
      <trkpt lat="45.05375" lon="5.62549">
        <ele>699</ele>
        <time>2013-09-15T13:32:08.000Z</time>
      </trkpt>
      <trkpt lat="45.05382" lon="5.62541">
        <ele>699</ele>
        <time>2013-09-15T13:32:10.000Z</time>
      </trkpt>
      <trkpt lat="45.05386" lon="5.62536">
        <ele>700</ele>
        <time>2013-09-15T13:32:11.000Z</time>
      </trkpt>
      <trkpt lat="45.0539" lon="5.62534">
        <ele>701</ele>
        <time>2013-09-15T13:32:12.000Z</time>
      </trkpt>
      <trkpt lat="45.05394" lon="5.6253">
        <ele>701</ele>
        <time>2013-09-15T13:32:13.000Z</time>
      </trkpt>
      <trkpt lat="45.05399" lon="5.62524">
        <ele>702</ele>
        <time>2013-09-15T13:32:14.000Z</time>
      </trkpt>
      <trkpt lat="45.05403" lon="5.62519">
        <ele>703</ele>
        <time>2013-09-15T13:32:15.000Z</time>
      </trkpt>
      <trkpt lat="45.05407" lon="5.62517">
        <ele>704</ele>
        <time>2013-09-15T13:32:16.000Z</time>
      </trkpt>
      <trkpt lat="45.05415" lon="5.62511">
        <ele>705</ele>
        <time>2013-09-15T13:32:18.000Z</time>
      </trkpt>
      <trkpt lat="45.05421" lon="5.62506">
        <ele>706</ele>
        <time>2013-09-15T13:32:20.000Z</time>
      </trkpt>
      <trkpt lat="45.05428" lon="5.62502">
        <ele>706</ele>
        <time>2013-09-15T13:32:22.000Z</time>
      </trkpt>
      <trkpt lat="45.05436" lon="5.625">
        <ele>707</ele>
        <time>2013-09-15T13:32:24.000Z</time>
      </trkpt>
      <trkpt lat="45.05443" lon="5.625">
        <ele>707</ele>
        <time>2013-09-15T13:32:26.000Z</time>
      </trkpt>
      <trkpt lat="45.05448" lon="5.62504">
        <ele>708</ele>
        <time>2013-09-15T13:32:27.000Z</time>
      </trkpt>
      <trkpt lat="45.05452" lon="5.62506">
        <ele>709</ele>
        <time>2013-09-15T13:32:28.000Z</time>
      </trkpt>
      <trkpt lat="45.05457" lon="5.62511">
        <ele>709</ele>
        <time>2013-09-15T13:32:29.000Z</time>
      </trkpt>
      <trkpt lat="45.05462" lon="5.62513">
        <ele>708</ele>
        <time>2013-09-15T13:32:30.000Z</time>
      </trkpt>
      <trkpt lat="45.05466" lon="5.62517">
        <ele>707</ele>
        <time>2013-09-15T13:32:31.000Z</time>
      </trkpt>
      <trkpt lat="45.05472" lon="5.62521">
        <ele>707</ele>
        <time>2013-09-15T13:32:32.000Z</time>
      </trkpt>
      <trkpt lat="45.05478" lon="5.62526">
        <ele>706</ele>
        <time>2013-09-15T13:32:33.000Z</time>
      </trkpt>
      <trkpt lat="45.05484" lon="5.62532">
        <ele>706</ele>
        <time>2013-09-15T13:32:34.000Z</time>
      </trkpt>
      <trkpt lat="45.05491" lon="5.62536">
        <ele>705</ele>
        <time>2013-09-15T13:32:35.000Z</time>
      </trkpt>
      <trkpt lat="45.05496" lon="5.62541">
        <ele>703</ele>
        <time>2013-09-15T13:32:36.000Z</time>
      </trkpt>
      <trkpt lat="45.05503" lon="5.62547">
        <ele>702</ele>
        <time>2013-09-15T13:32:37.000Z</time>
      </trkpt>
      <trkpt lat="45.05508" lon="5.62549">
        <ele>702</ele>
        <time>2013-09-15T13:32:38.000Z</time>
      </trkpt>
      <trkpt lat="45.05515" lon="5.62554">
        <ele>702</ele>
        <time>2013-09-15T13:32:39.000Z</time>
      </trkpt>
      <trkpt lat="45.0552" lon="5.62556">
        <ele>702</ele>
        <time>2013-09-15T13:32:40.000Z</time>
      </trkpt>
      <trkpt lat="45.05524" lon="5.62558">
        <ele>702</ele>
        <time>2013-09-15T13:32:41.000Z</time>
      </trkpt>
      <trkpt lat="45.0553" lon="5.6256">
        <ele>702</ele>
        <time>2013-09-15T13:32:42.000Z</time>
      </trkpt>
      <trkpt lat="45.05534" lon="5.62564">
        <ele>703</ele>
        <time>2013-09-15T13:32:43.000Z</time>
      </trkpt>
      <trkpt lat="45.05539" lon="5.62566">
        <ele>703</ele>
        <time>2013-09-15T13:32:44.000Z</time>
      </trkpt>
      <trkpt lat="45.05544" lon="5.62569">
        <ele>703</ele>
        <time>2013-09-15T13:32:45.000Z</time>
      </trkpt>
      <trkpt lat="45.05548" lon="5.62571">
        <ele>703</ele>
        <time>2013-09-15T13:32:46.000Z</time>
      </trkpt>
      <trkpt lat="45.05555" lon="5.62575">
        <ele>703</ele>
        <time>2013-09-15T13:32:48.000Z</time>
      </trkpt>
      <trkpt lat="45.05563" lon="5.62579">
        <ele>703</ele>
        <time>2013-09-15T13:32:50.000Z</time>
      </trkpt>
      <trkpt lat="45.05569" lon="5.62584">
        <ele>703</ele>
        <time>2013-09-15T13:32:52.000Z</time>
      </trkpt>
      <trkpt lat="45.05574" lon="5.62586">
        <ele>704</ele>
        <time>2013-09-15T13:32:53.000Z</time>
      </trkpt>
      <trkpt lat="45.05586" lon="5.62596">
        <ele>704</ele>
        <time>2013-09-15T13:32:57.000Z</time>
      </trkpt>
      <trkpt lat="45.05586" lon="5.62596">
        <ele>704</ele>
        <time>2013-09-15T13:32:57.000Z</time>
      </trkpt>
      <trkpt lat="45.05586" lon="5.62596">
        <ele>704</ele>
        <time>2013-09-15T13:32:59.000Z</time>
      </trkpt>
      <trkpt lat="45.05596" lon="5.62607">
        <ele>704</ele>
        <time>2013-09-15T13:33:00.000Z</time>
      </trkpt>
      <trkpt lat="45.05596" lon="5.62607">
        <ele>704</ele>
        <time>2013-09-15T13:33:00.000Z</time>
      </trkpt>
      <trkpt lat="45.05596" lon="5.62607">
        <ele>704</ele>
        <time>2013-09-15T13:33:02.000Z</time>
      </trkpt>
      <trkpt lat="45.05606" lon="5.62616">
        <ele>704</ele>
        <time>2013-09-15T13:33:03.000Z</time>
      </trkpt>
      <trkpt lat="45.05606" lon="5.62616">
        <ele>704</ele>
        <time>2013-09-15T13:33:03.000Z</time>
      </trkpt>
      <trkpt lat="45.05606" lon="5.62616">
        <ele>704</ele>
        <time>2013-09-15T13:33:04.000Z</time>
      </trkpt>
      <trkpt lat="45.05612" lon="5.62622">
        <ele>704</ele>
        <time>2013-09-15T13:33:05.000Z</time>
      </trkpt>
      <trkpt lat="45.05612" lon="5.62622">
        <ele>704</ele>
        <time>2013-09-15T13:33:05.000Z</time>
      </trkpt>
      <trkpt lat="45.05612" lon="5.62622">
        <ele>704</ele>
        <time>2013-09-15T13:33:06.000Z</time>
      </trkpt>
      <trkpt lat="45.05619" lon="5.62631">
        <ele>704</ele>
        <time>2013-09-15T13:33:07.000Z</time>
      </trkpt>
      <trkpt lat="45.05621" lon="5.62637">
        <ele>704</ele>
        <time>2013-09-15T13:33:08.000Z</time>
      </trkpt>
      <trkpt lat="45.05623" lon="5.62644">
        <ele>704</ele>
        <time>2013-09-15T13:33:09.000Z</time>
      </trkpt>
      <trkpt lat="45.05626" lon="5.6265">
        <ele>703</ele>
        <time>2013-09-15T13:33:10.000Z</time>
      </trkpt>
      <trkpt lat="45.05628" lon="5.62659">
        <ele>702</ele>
        <time>2013-09-15T13:33:11.000Z</time>
      </trkpt>
      <trkpt lat="45.05632" lon="5.62665">
        <ele>700</ele>
        <time>2013-09-15T13:33:12.000Z</time>
      </trkpt>
      <trkpt lat="45.05635" lon="5.62672">
        <ele>699</ele>
        <time>2013-09-15T13:33:13.000Z</time>
      </trkpt>
      <trkpt lat="45.05638" lon="5.62678">
        <ele>698</ele>
        <time>2013-09-15T13:33:14.000Z</time>
      </trkpt>
      <trkpt lat="45.05641" lon="5.62684">
        <ele>697</ele>
        <time>2013-09-15T13:33:15.000Z</time>
      </trkpt>
      <trkpt lat="45.05644" lon="5.62691">
        <ele>696</ele>
        <time>2013-09-15T13:33:16.000Z</time>
      </trkpt>
      <trkpt lat="45.05649" lon="5.62697">
        <ele>696</ele>
        <time>2013-09-15T13:33:17.000Z</time>
      </trkpt>
      <trkpt lat="45.05652" lon="5.62704">
        <ele>695</ele>
        <time>2013-09-15T13:33:18.000Z</time>
      </trkpt>
      <trkpt lat="45.05656" lon="5.6271">
        <ele>695</ele>
        <time>2013-09-15T13:33:19.000Z</time>
      </trkpt>
      <trkpt lat="45.05659" lon="5.62714">
        <ele>694</ele>
        <time>2013-09-15T13:33:20.000Z</time>
      </trkpt>
      <trkpt lat="45.05664" lon="5.62721">
        <ele>694</ele>
        <time>2013-09-15T13:33:21.000Z</time>
      </trkpt>
      <trkpt lat="45.05668" lon="5.62727">
        <ele>693</ele>
        <time>2013-09-15T13:33:22.000Z</time>
      </trkpt>
      <trkpt lat="45.05676" lon="5.62738">
        <ele>692</ele>
        <time>2013-09-15T13:33:24.000Z</time>
      </trkpt>
      <trkpt lat="45.05679" lon="5.62745">
        <ele>692</ele>
        <time>2013-09-15T13:33:25.000Z</time>
      </trkpt>
      <trkpt lat="45.05683" lon="5.62749">
        <ele>691</ele>
        <time>2013-09-15T13:33:26.000Z</time>
      </trkpt>
      <trkpt lat="45.05686" lon="5.62755">
        <ele>691</ele>
        <time>2013-09-15T13:33:27.000Z</time>
      </trkpt>
      <trkpt lat="45.0569" lon="5.62764">
        <ele>690</ele>
        <time>2013-09-15T13:33:28.000Z</time>
      </trkpt>
      <trkpt lat="45.05694" lon="5.6277">
        <ele>689</ele>
        <time>2013-09-15T13:33:29.000Z</time>
      </trkpt>
      <trkpt lat="45.05698" lon="5.62779">
        <ele>688</ele>
        <time>2013-09-15T13:33:30.000Z</time>
      </trkpt>
      <trkpt lat="45.05702" lon="5.62785">
        <ele>687</ele>
        <time>2013-09-15T13:33:31.000Z</time>
      </trkpt>
      <trkpt lat="45.05706" lon="5.62792">
        <ele>686</ele>
        <time>2013-09-15T13:33:32.000Z</time>
      </trkpt>
      <trkpt lat="45.0571" lon="5.628">
        <ele>685</ele>
        <time>2013-09-15T13:33:33.000Z</time>
      </trkpt>
      <trkpt lat="45.05716" lon="5.62809">
        <ele>684</ele>
        <time>2013-09-15T13:33:35.000Z</time>
      </trkpt>
      <trkpt lat="45.05722" lon="5.62815">
        <ele>683</ele>
        <time>2013-09-15T13:33:36.000Z</time>
      </trkpt>
      <trkpt lat="45.05728" lon="5.62822">
        <ele>681</ele>
        <time>2013-09-15T13:33:37.000Z</time>
      </trkpt>
      <trkpt lat="45.05732" lon="5.62828">
        <ele>679</ele>
        <time>2013-09-15T13:33:38.000Z</time>
      </trkpt>
      <trkpt lat="45.05737" lon="5.62835">
        <ele>678</ele>
        <time>2013-09-15T13:33:39.000Z</time>
      </trkpt>
      <trkpt lat="45.05741" lon="5.62839">
        <ele>677</ele>
        <time>2013-09-15T13:33:40.000Z</time>
      </trkpt>
      <trkpt lat="45.05746" lon="5.62843">
        <ele>676</ele>
        <time>2013-09-15T13:33:41.000Z</time>
      </trkpt>
      <trkpt lat="45.05751" lon="5.6285">
        <ele>675</ele>
        <time>2013-09-15T13:33:42.000Z</time>
      </trkpt>
      <trkpt lat="45.05751" lon="5.6285">
        <ele>675</ele>
        <time>2013-09-15T13:33:42.000Z</time>
      </trkpt>
      <trkpt lat="45.05751" lon="5.6285">
        <ele>675</ele>
        <time>2013-09-15T13:33:46.000Z</time>
      </trkpt>
      <trkpt lat="45.05758" lon="5.62858">
        <ele>675</ele>
        <time>2013-09-15T13:33:47.000Z</time>
      </trkpt>
      <trkpt lat="45.05758" lon="5.62858">
        <ele>675</ele>
        <time>2013-09-15T13:33:47.000Z</time>
      </trkpt>
      <trkpt lat="45.05758" lon="5.62858">
        <ele>675</ele>
        <time>2013-09-15T13:33:51.000Z</time>
      </trkpt>
      <trkpt lat="45.05767" lon="5.62869">
        <ele>675</ele>
        <time>2013-09-15T13:33:52.000Z</time>
      </trkpt>
      <trkpt lat="45.05767" lon="5.62869">
        <ele>675</ele>
        <time>2013-09-15T13:33:52.000Z</time>
      </trkpt>
      <trkpt lat="45.05767" lon="5.62869">
        <ele>675</ele>
        <time>2013-09-15T13:33:54.000Z</time>
      </trkpt>
      <trkpt lat="45.05777" lon="5.62882">
        <ele>675</ele>
        <time>2013-09-15T13:33:55.000Z</time>
      </trkpt>
      <trkpt lat="45.05782" lon="5.62888">
        <ele>675</ele>
        <time>2013-09-15T13:33:56.000Z</time>
      </trkpt>
      <trkpt lat="45.05786" lon="5.62893">
        <ele>675</ele>
        <time>2013-09-15T13:33:57.000Z</time>
      </trkpt>
      <trkpt lat="45.05791" lon="5.62899">
        <ele>675</ele>
        <time>2013-09-15T13:33:58.000Z</time>
      </trkpt>
      <trkpt lat="45.05797" lon="5.62906">
        <ele>674</ele>
        <time>2013-09-15T13:33:59.000Z</time>
      </trkpt>
      <trkpt lat="45.05803" lon="5.62914">
        <ele>673</ele>
        <time>2013-09-15T13:34:00.000Z</time>
      </trkpt>
      <trkpt lat="45.05811" lon="5.62925">
        <ele>672</ele>
        <time>2013-09-15T13:34:01.000Z</time>
      </trkpt>
      <trkpt lat="45.05817" lon="5.62933">
        <ele>671</ele>
        <time>2013-09-15T13:34:02.000Z</time>
      </trkpt>
      <trkpt lat="45.05822" lon="5.6294">
        <ele>671</ele>
        <time>2013-09-15T13:34:03.000Z</time>
      </trkpt>
      <trkpt lat="45.05827" lon="5.62946">
        <ele>671</ele>
        <time>2013-09-15T13:34:04.000Z</time>
      </trkpt>
      <trkpt lat="45.05831" lon="5.62951">
        <ele>670</ele>
        <time>2013-09-15T13:34:05.000Z</time>
      </trkpt>
      <trkpt lat="45.05835" lon="5.62957">
        <ele>670</ele>
        <time>2013-09-15T13:34:06.000Z</time>
      </trkpt>
      <trkpt lat="45.05835" lon="5.62957">
        <ele>670</ele>
        <time>2013-09-15T13:34:06.000Z</time>
      </trkpt>
      <trkpt lat="45.05835" lon="5.62957">
        <ele>670</ele>
        <time>2013-09-15T13:34:13.000Z</time>
      </trkpt>
      <trkpt lat="45.05842" lon="5.6297">
        <ele>670</ele>
        <time>2013-09-15T13:34:14.000Z</time>
      </trkpt>
      <trkpt lat="45.05844" lon="5.62976">
        <ele>669</ele>
        <time>2013-09-15T13:34:15.000Z</time>
      </trkpt>
      <trkpt lat="45.05846" lon="5.62983">
        <ele>669</ele>
        <time>2013-09-15T13:34:16.000Z</time>
      </trkpt>
      <trkpt lat="45.05849" lon="5.62987">
        <ele>669</ele>
        <time>2013-09-15T13:34:17.000Z</time>
      </trkpt>
      <trkpt lat="45.05852" lon="5.62994">
        <ele>669</ele>
        <time>2013-09-15T13:34:18.000Z</time>
      </trkpt>
      <trkpt lat="45.05856" lon="5.63002">
        <ele>668</ele>
        <time>2013-09-15T13:34:19.000Z</time>
      </trkpt>
      <trkpt lat="45.0586" lon="5.63011">
        <ele>666</ele>
        <time>2013-09-15T13:34:20.000Z</time>
      </trkpt>
      <trkpt lat="45.05865" lon="5.63019">
        <ele>664</ele>
        <time>2013-09-15T13:34:21.000Z</time>
      </trkpt>
      <trkpt lat="45.0587" lon="5.63026">
        <ele>662</ele>
        <time>2013-09-15T13:34:22.000Z</time>
      </trkpt>
      <trkpt lat="45.05875" lon="5.6303">
        <ele>659</ele>
        <time>2013-09-15T13:34:23.000Z</time>
      </trkpt>
      <trkpt lat="45.05882" lon="5.63034">
        <ele>657</ele>
        <time>2013-09-15T13:34:24.000Z</time>
      </trkpt>
      <trkpt lat="45.05887" lon="5.63041">
        <ele>656</ele>
        <time>2013-09-15T13:34:25.000Z</time>
      </trkpt>
      <trkpt lat="45.05892" lon="5.63047">
        <ele>654</ele>
        <time>2013-09-15T13:34:26.000Z</time>
      </trkpt>
      <trkpt lat="45.05899" lon="5.63051">
        <ele>653</ele>
        <time>2013-09-15T13:34:27.000Z</time>
      </trkpt>
      <trkpt lat="45.05904" lon="5.63056">
        <ele>652</ele>
        <time>2013-09-15T13:34:28.000Z</time>
      </trkpt>
      <trkpt lat="45.05904" lon="5.63056">
        <ele>652</ele>
        <time>2013-09-15T13:34:28.000Z</time>
      </trkpt>
      <trkpt lat="45.05904" lon="5.63056">
        <ele>652</ele>
        <time>2013-09-15T13:34:30.000Z</time>
      </trkpt>
      <trkpt lat="45.05914" lon="5.63066">
        <ele>652</ele>
        <time>2013-09-15T13:34:31.000Z</time>
      </trkpt>
      <trkpt lat="45.05914" lon="5.63066">
        <ele>652</ele>
        <time>2013-09-15T13:34:31.000Z</time>
      </trkpt>
      <trkpt lat="45.05914" lon="5.63066">
        <ele>652</ele>
        <time>2013-09-15T13:34:33.000Z</time>
      </trkpt>
      <trkpt lat="45.05923" lon="5.63077">
        <ele>652</ele>
        <time>2013-09-15T13:34:34.000Z</time>
      </trkpt>
      <trkpt lat="45.0593" lon="5.63084">
        <ele>651</ele>
        <time>2013-09-15T13:34:36.000Z</time>
      </trkpt>
      <trkpt lat="45.05935" lon="5.6309">
        <ele>651</ele>
        <time>2013-09-15T13:34:38.000Z</time>
      </trkpt>
      <trkpt lat="45.05942" lon="5.63094">
        <ele>650</ele>
        <time>2013-09-15T13:34:40.000Z</time>
      </trkpt>
      <trkpt lat="45.05949" lon="5.63101">
        <ele>647</ele>
        <time>2013-09-15T13:34:42.000Z</time>
      </trkpt>
      <trkpt lat="45.05956" lon="5.63107">
        <ele>644</ele>
        <time>2013-09-15T13:34:43.000Z</time>
      </trkpt>
      <trkpt lat="45.0596" lon="5.63112">
        <ele>642</ele>
        <time>2013-09-15T13:34:44.000Z</time>
      </trkpt>
      <trkpt lat="45.05965" lon="5.63116">
        <ele>640</ele>
        <time>2013-09-15T13:34:45.000Z</time>
      </trkpt>
      <trkpt lat="45.0597" lon="5.6312">
        <ele>638</ele>
        <time>2013-09-15T13:34:46.000Z</time>
      </trkpt>
      <trkpt lat="45.05975" lon="5.63126">
        <ele>637</ele>
        <time>2013-09-15T13:34:47.000Z</time>
      </trkpt>
      <trkpt lat="45.0598" lon="5.63131">
        <ele>636</ele>
        <time>2013-09-15T13:34:48.000Z</time>
      </trkpt>
      <trkpt lat="45.05984" lon="5.63137">
        <ele>635</ele>
        <time>2013-09-15T13:34:49.000Z</time>
      </trkpt>
      <trkpt lat="45.0599" lon="5.63144">
        <ele>634</ele>
        <time>2013-09-15T13:34:50.000Z</time>
      </trkpt>
      <trkpt lat="45.05995" lon="5.6315">
        <ele>633</ele>
        <time>2013-09-15T13:34:51.000Z</time>
      </trkpt>
      <trkpt lat="45.06" lon="5.63157">
        <ele>632</ele>
        <time>2013-09-15T13:34:52.000Z</time>
      </trkpt>
      <trkpt lat="45.06004" lon="5.63163">
        <ele>631</ele>
        <time>2013-09-15T13:34:53.000Z</time>
      </trkpt>
      <trkpt lat="45.0601" lon="5.63172">
        <ele>629</ele>
        <time>2013-09-15T13:34:55.000Z</time>
      </trkpt>
      <trkpt lat="45.06014" lon="5.63176">
        <ele>628</ele>
        <time>2013-09-15T13:34:56.000Z</time>
      </trkpt>
      <trkpt lat="45.06018" lon="5.63182">
        <ele>628</ele>
        <time>2013-09-15T13:34:57.000Z</time>
      </trkpt>
      <trkpt lat="45.06022" lon="5.63189">
        <ele>627</ele>
        <time>2013-09-15T13:34:58.000Z</time>
      </trkpt>
      <trkpt lat="45.06025" lon="5.63195">
        <ele>626</ele>
        <time>2013-09-15T13:34:59.000Z</time>
      </trkpt>
      <trkpt lat="45.0603" lon="5.63202">
        <ele>626</ele>
        <time>2013-09-15T13:35:00.000Z</time>
      </trkpt>
      <trkpt lat="45.06034" lon="5.63208">
        <ele>625</ele>
        <time>2013-09-15T13:35:01.000Z</time>
      </trkpt>
      <trkpt lat="45.06036" lon="5.63217">
        <ele>624</ele>
        <time>2013-09-15T13:35:02.000Z</time>
      </trkpt>
      <trkpt lat="45.0604" lon="5.63223">
        <ele>623</ele>
        <time>2013-09-15T13:35:03.000Z</time>
      </trkpt>
      <trkpt lat="45.06045" lon="5.63227">
        <ele>622</ele>
        <time>2013-09-15T13:35:04.000Z</time>
      </trkpt>
      <trkpt lat="45.0605" lon="5.63232">
        <ele>621</ele>
        <time>2013-09-15T13:35:05.000Z</time>
      </trkpt>
      <trkpt lat="45.06055" lon="5.63234">
        <ele>621</ele>
        <time>2013-09-15T13:35:06.000Z</time>
      </trkpt>
      <trkpt lat="45.06061" lon="5.63236">
        <ele>621</ele>
        <time>2013-09-15T13:35:07.000Z</time>
      </trkpt>
      <trkpt lat="45.06066" lon="5.63238">
        <ele>620</ele>
        <time>2013-09-15T13:35:08.000Z</time>
      </trkpt>
      <trkpt lat="45.06071" lon="5.6324">
        <ele>620</ele>
        <time>2013-09-15T13:35:09.000Z</time>
      </trkpt>
      <trkpt lat="45.06076" lon="5.63244">
        <ele>619</ele>
        <time>2013-09-15T13:35:10.000Z</time>
      </trkpt>
      <trkpt lat="45.06081" lon="5.63247">
        <ele>618</ele>
        <time>2013-09-15T13:35:11.000Z</time>
      </trkpt>
      <trkpt lat="45.06088" lon="5.63251">
        <ele>618</ele>
        <time>2013-09-15T13:35:13.000Z</time>
      </trkpt>
      <trkpt lat="45.06092" lon="5.63253">
        <ele>618</ele>
        <time>2013-09-15T13:35:14.000Z</time>
      </trkpt>
      <trkpt lat="45.06097" lon="5.63257">
        <ele>618</ele>
        <time>2013-09-15T13:35:16.000Z</time>
      </trkpt>
      <trkpt lat="45.06097" lon="5.63257">
        <ele>618</ele>
        <time>2013-09-15T13:35:16.000Z</time>
      </trkpt>
      <trkpt lat="45.06097" lon="5.63257">
        <ele>618</ele>
        <time>2013-09-15T13:36:21.000Z</time>
      </trkpt>
      <trkpt lat="45.06104" lon="5.63262">
        <ele>605</ele>
        <time>2013-09-15T13:36:22.000Z</time>
      </trkpt>
      <trkpt lat="45.06104" lon="5.63262">
        <ele>605</ele>
        <time>2013-09-15T13:36:22.000Z</time>
      </trkpt>
      <trkpt lat="45.06104" lon="5.63262">
        <ele>605</ele>
        <time>2013-09-15T13:36:25.000Z</time>
      </trkpt>
      <trkpt lat="45.06112" lon="5.63272">
        <ele>598</ele>
        <time>2013-09-15T13:36:26.000Z</time>
      </trkpt>
      <trkpt lat="45.06112" lon="5.63272">
        <ele>598</ele>
        <time>2013-09-15T13:36:26.000Z</time>
      </trkpt>
      <trkpt lat="45.06112" lon="5.63272">
        <ele>598</ele>
        <time>2013-09-15T13:36:28.000Z</time>
      </trkpt>
      <trkpt lat="45.0612" lon="5.63281">
        <ele>593</ele>
        <time>2013-09-15T13:36:29.000Z</time>
      </trkpt>
      <trkpt lat="45.06124" lon="5.6329">
        <ele>590</ele>
        <time>2013-09-15T13:36:31.000Z</time>
      </trkpt>
      <trkpt lat="45.06129" lon="5.63296">
        <ele>588</ele>
        <time>2013-09-15T13:36:33.000Z</time>
      </trkpt>
      <trkpt lat="45.06133" lon="5.63302">
        <ele>574</ele>
        <time>2013-09-15T13:36:34.000Z</time>
      </trkpt>
      <trkpt lat="45.06138" lon="5.63307">
        <ele>563</ele>
        <time>2013-09-15T13:36:35.000Z</time>
      </trkpt>
      <trkpt lat="45.06143" lon="5.63313">
        <ele>555</ele>
        <time>2013-09-15T13:36:36.000Z</time>
      </trkpt>
      <trkpt lat="45.06149" lon="5.63318">
        <ele>548</ele>
        <time>2013-09-15T13:36:37.000Z</time>
      </trkpt>
      <trkpt lat="45.06154" lon="5.63322">
        <ele>543</ele>
        <time>2013-09-15T13:36:38.000Z</time>
      </trkpt>
      <trkpt lat="45.06158" lon="5.63328">
        <ele>539</ele>
        <time>2013-09-15T13:36:39.000Z</time>
      </trkpt>
      <trkpt lat="45.06164" lon="5.63335">
        <ele>535</ele>
        <time>2013-09-15T13:36:40.000Z</time>
      </trkpt>
      <trkpt lat="45.06169" lon="5.63341">
        <ele>532</ele>
        <time>2013-09-15T13:36:41.000Z</time>
      </trkpt>
      <trkpt lat="45.06174" lon="5.63348">
        <ele>530</ele>
        <time>2013-09-15T13:36:42.000Z</time>
      </trkpt>
      <trkpt lat="45.06181" lon="5.63354">
        <ele>528</ele>
        <time>2013-09-15T13:36:43.000Z</time>
      </trkpt>
      <trkpt lat="45.06187" lon="5.6336">
        <ele>527</ele>
        <time>2013-09-15T13:36:44.000Z</time>
      </trkpt>
      <trkpt lat="45.06194" lon="5.63367">
        <ele>525</ele>
        <time>2013-09-15T13:36:45.000Z</time>
      </trkpt>
      <trkpt lat="45.06199" lon="5.63373">
        <ele>524</ele>
        <time>2013-09-15T13:36:46.000Z</time>
      </trkpt>
      <trkpt lat="45.06204" lon="5.63382">
        <ele>522</ele>
        <time>2013-09-15T13:36:47.000Z</time>
      </trkpt>
      <trkpt lat="45.06211" lon="5.63388">
        <ele>521</ele>
        <time>2013-09-15T13:36:48.000Z</time>
      </trkpt>
      <trkpt lat="45.06215" lon="5.63397">
        <ele>519</ele>
        <time>2013-09-15T13:36:49.000Z</time>
      </trkpt>
      <trkpt lat="45.0622" lon="5.63408">
        <ele>518</ele>
        <time>2013-09-15T13:36:50.000Z</time>
      </trkpt>
      <trkpt lat="45.06222" lon="5.63416">
        <ele>517</ele>
        <time>2013-09-15T13:36:51.000Z</time>
      </trkpt>
      <trkpt lat="45.06223" lon="5.63427">
        <ele>516</ele>
        <time>2013-09-15T13:36:52.000Z</time>
      </trkpt>
      <trkpt lat="45.06224" lon="5.63438">
        <ele>516</ele>
        <time>2013-09-15T13:36:53.000Z</time>
      </trkpt>
      <trkpt lat="45.06225" lon="5.63446">
        <ele>515</ele>
        <time>2013-09-15T13:36:54.000Z</time>
      </trkpt>
      <trkpt lat="45.06226" lon="5.63455">
        <ele>514</ele>
        <time>2013-09-15T13:36:55.000Z</time>
      </trkpt>
      <trkpt lat="45.06227" lon="5.63463">
        <ele>514</ele>
        <time>2013-09-15T13:36:56.000Z</time>
      </trkpt>
      <trkpt lat="45.06227" lon="5.6347">
        <ele>517</ele>
        <time>2013-09-15T13:39:57.000Z</time>
      </trkpt>
      <trkpt lat="45.06224" lon="5.63476">
        <ele>517</ele>
        <time>2013-09-15T13:40:00.000Z</time>
      </trkpt>
      <trkpt lat="45.0622" lon="5.63483">
        <ele>517</ele>
        <time>2013-09-15T13:40:02.000Z</time>
      </trkpt>
      <trkpt lat="45.06216" lon="5.63491">
        <ele>517</ele>
        <time>2013-09-15T13:40:04.000Z</time>
      </trkpt>
      <trkpt lat="45.06212" lon="5.63502">
        <ele>517</ele>
        <time>2013-09-15T13:40:06.000Z</time>
      </trkpt>
      <trkpt lat="45.06208" lon="5.63513">
        <ele>517</ele>
        <time>2013-09-15T13:40:08.000Z</time>
      </trkpt>
      <trkpt lat="45.06206" lon="5.63519">
        <ele>517</ele>
        <time>2013-09-15T13:40:09.000Z</time>
      </trkpt>
      <trkpt lat="45.06203" lon="5.63526">
        <ele>517</ele>
        <time>2013-09-15T13:40:10.000Z</time>
      </trkpt>
      <trkpt lat="45.06202" lon="5.63532">
        <ele>517</ele>
        <time>2013-09-15T13:40:11.000Z</time>
      </trkpt>
      <trkpt lat="45.062" lon="5.63538">
        <ele>517</ele>
        <time>2013-09-15T13:40:12.000Z</time>
      </trkpt>
      <trkpt lat="45.06198" lon="5.63545">
        <ele>517</ele>
        <time>2013-09-15T13:40:13.000Z</time>
      </trkpt>
      <trkpt lat="45.06197" lon="5.63551">
        <ele>517</ele>
        <time>2013-09-15T13:40:14.000Z</time>
      </trkpt>
      <trkpt lat="45.06196" lon="5.63558">
        <ele>517</ele>
        <time>2013-09-15T13:40:15.000Z</time>
      </trkpt>
      <trkpt lat="45.06194" lon="5.63564">
        <ele>517</ele>
        <time>2013-09-15T13:40:16.000Z</time>
      </trkpt>
      <trkpt lat="45.06194" lon="5.63571">
        <ele>517</ele>
        <time>2013-09-15T13:40:17.000Z</time>
      </trkpt>
      <trkpt lat="45.06193" lon="5.63577">
        <ele>517</ele>
        <time>2013-09-15T13:40:18.000Z</time>
      </trkpt>
      <trkpt lat="45.06192" lon="5.63584">
        <ele>518</ele>
        <time>2013-09-15T13:40:19.000Z</time>
      </trkpt>
      <trkpt lat="45.06192" lon="5.6359">
        <ele>518</ele>
        <time>2013-09-15T13:40:20.000Z</time>
      </trkpt>
      <trkpt lat="45.0619" lon="5.63601">
        <ele>518</ele>
        <time>2013-09-15T13:40:22.000Z</time>
      </trkpt>
      <trkpt lat="45.0619" lon="5.63607">
        <ele>518</ele>
        <time>2013-09-15T13:40:23.000Z</time>
      </trkpt>
      <trkpt lat="45.06192" lon="5.63616">
        <ele>519</ele>
        <time>2013-09-15T13:40:25.000Z</time>
      </trkpt>
      <trkpt lat="45.06192" lon="5.63622">
        <ele>519</ele>
        <time>2013-09-15T13:40:26.000Z</time>
      </trkpt>
      <trkpt lat="45.06193" lon="5.63631">
        <ele>519</ele>
        <time>2013-09-15T13:40:28.000Z</time>
      </trkpt>
      <trkpt lat="45.06193" lon="5.63639">
        <ele>520</ele>
        <time>2013-09-15T13:40:30.000Z</time>
      </trkpt>
      <trkpt lat="45.06194" lon="5.63646">
        <ele>520</ele>
        <time>2013-09-15T13:40:32.000Z</time>
      </trkpt>
      <trkpt lat="45.06195" lon="5.63652">
        <ele>520</ele>
        <time>2013-09-15T13:40:34.000Z</time>
      </trkpt>
      <trkpt lat="45.06196" lon="5.63659">
        <ele>520</ele>
        <time>2013-09-15T13:40:36.000Z</time>
      </trkpt>
      <trkpt lat="45.06197" lon="5.63665">
        <ele>520</ele>
        <time>2013-09-15T13:40:38.000Z</time>
      </trkpt>
      <trkpt lat="45.06198" lon="5.63672">
        <ele>520</ele>
        <time>2013-09-15T13:40:40.000Z</time>
      </trkpt>
      <trkpt lat="45.06199" lon="5.63678">
        <ele>520</ele>
        <time>2013-09-15T13:40:42.000Z</time>
      </trkpt>
      <trkpt lat="45.062" lon="5.63684">
        <ele>521</ele>
        <time>2013-09-15T13:40:45.000Z</time>
      </trkpt>
      <trkpt lat="45.062" lon="5.63691">
        <ele>521</ele>
        <time>2013-09-15T13:40:47.000Z</time>
      </trkpt>
      <trkpt lat="45.06201" lon="5.63697">
        <ele>522</ele>
        <time>2013-09-15T13:40:50.000Z</time>
      </trkpt>
      <trkpt lat="45.06201" lon="5.63704">
        <ele>523</ele>
        <time>2013-09-15T13:40:53.000Z</time>
      </trkpt>
      <trkpt lat="45.06202" lon="5.6371">
        <ele>523</ele>
        <time>2013-09-15T13:40:56.000Z</time>
      </trkpt>
      <trkpt lat="45.06202" lon="5.63717">
        <ele>524</ele>
        <time>2013-09-15T13:40:59.000Z</time>
      </trkpt>
      <trkpt lat="45.06202" lon="5.63723">
        <ele>525</ele>
        <time>2013-09-15T13:41:02.000Z</time>
      </trkpt>
      <trkpt lat="45.06203" lon="5.6373">
        <ele>525</ele>
        <time>2013-09-15T13:41:05.000Z</time>
      </trkpt>
      <trkpt lat="45.06203" lon="5.63736">
        <ele>525</ele>
        <time>2013-09-15T13:41:08.000Z</time>
      </trkpt>
      <trkpt lat="45.06203" lon="5.63742">
        <ele>525</ele>
        <time>2013-09-15T13:41:10.000Z</time>
      </trkpt>
      <trkpt lat="45.06203" lon="5.63742">
        <ele>525</ele>
        <time>2013-09-15T13:41:10.000Z</time>
      </trkpt>
      <trkpt lat="45.06203" lon="5.63742">
        <ele>525</ele>
        <time>2013-09-15T13:41:11.000Z</time>
      </trkpt>
      <trkpt lat="45.06203" lon="5.63749">
        <ele>526</ele>
        <time>2013-09-15T13:41:14.000Z</time>
      </trkpt>
      <trkpt lat="45.06203" lon="5.63749">
        <ele>526</ele>
        <time>2013-09-15T13:41:14.000Z</time>
      </trkpt>
      <trkpt lat="45.06203" lon="5.63749">
        <ele>526</ele>
        <time>2013-09-15T13:41:15.000Z</time>
      </trkpt>
      <trkpt lat="45.06203" lon="5.63755">
        <ele>526</ele>
        <time>2013-09-15T13:41:18.000Z</time>
      </trkpt>
      <trkpt lat="45.06202" lon="5.63762">
        <ele>526</ele>
        <time>2013-09-15T13:41:21.000Z</time>
      </trkpt>
      <trkpt lat="45.06202" lon="5.63768">
        <ele>526</ele>
        <time>2013-09-15T13:41:24.000Z</time>
      </trkpt>
      <trkpt lat="45.062" lon="5.63774">
        <ele>527</ele>
        <time>2013-09-15T13:41:27.000Z</time>
      </trkpt>
      <trkpt lat="45.06198" lon="5.63781">
        <ele>527</ele>
        <time>2013-09-15T13:41:30.000Z</time>
      </trkpt>
      <trkpt lat="45.06197" lon="5.63787">
        <ele>528</ele>
        <time>2013-09-15T13:41:33.000Z</time>
      </trkpt>
      <trkpt lat="45.06195" lon="5.63794">
        <ele>528</ele>
        <time>2013-09-15T13:41:36.000Z</time>
      </trkpt>
      <trkpt lat="45.06195" lon="5.63794">
        <ele>528</ele>
        <time>2013-09-15T13:41:36.000Z</time>
      </trkpt>
      <trkpt lat="45.06195" lon="5.63794">
        <ele>529</ele>
        <time>2013-09-15T13:41:37.000Z</time>
      </trkpt>
      <trkpt lat="45.06194" lon="5.638">
        <ele>529</ele>
        <time>2013-09-15T13:41:40.000Z</time>
      </trkpt>
      <trkpt lat="45.06192" lon="5.63807">
        <ele>530</ele>
        <time>2013-09-15T13:41:44.000Z</time>
      </trkpt>
      <trkpt lat="45.0619" lon="5.63813">
        <ele>530</ele>
        <time>2013-09-15T13:41:47.000Z</time>
      </trkpt>
      <trkpt lat="45.06189" lon="5.6382">
        <ele>530</ele>
        <time>2013-09-15T13:41:51.000Z</time>
      </trkpt>
      <trkpt lat="45.06188" lon="5.63826">
        <ele>531</ele>
        <time>2013-09-15T13:41:55.000Z</time>
      </trkpt>
      <trkpt lat="45.06187" lon="5.63835">
        <ele>531</ele>
        <time>2013-09-15T13:41:58.000Z</time>
      </trkpt>
      <trkpt lat="45.06187" lon="5.63841">
        <ele>531</ele>
        <time>2013-09-15T13:42:01.000Z</time>
      </trkpt>
      <trkpt lat="45.06186" lon="5.63848">
        <ele>531</ele>
        <time>2013-09-15T13:42:04.000Z</time>
      </trkpt>
      <trkpt lat="45.06185" lon="5.63854">
        <ele>532</ele>
        <time>2013-09-15T13:42:07.000Z</time>
      </trkpt>
      <trkpt lat="45.06183" lon="5.6386">
        <ele>532</ele>
        <time>2013-09-15T13:42:10.000Z</time>
      </trkpt>
      <trkpt lat="45.06181" lon="5.63867">
        <ele>532</ele>
        <time>2013-09-15T13:42:14.000Z</time>
      </trkpt>
      <trkpt lat="45.0618" lon="5.63873">
        <ele>533</ele>
        <time>2013-09-15T13:42:17.000Z</time>
      </trkpt>
      <trkpt lat="45.06179" lon="5.6388">
        <ele>533</ele>
        <time>2013-09-15T13:42:21.000Z</time>
      </trkpt>
      <trkpt lat="45.06178" lon="5.63886">
        <ele>533</ele>
        <time>2013-09-15T13:42:24.000Z</time>
      </trkpt>
      <trkpt lat="45.06176" lon="5.63893">
        <ele>533</ele>
        <time>2013-09-15T13:42:28.000Z</time>
      </trkpt>
      <trkpt lat="45.06172" lon="5.63899">
        <ele>533</ele>
        <time>2013-09-15T13:42:33.000Z</time>
      </trkpt>
      <trkpt lat="45.0617" lon="5.63905">
        <ele>534</ele>
        <time>2013-09-15T13:42:37.000Z</time>
      </trkpt>
      <trkpt lat="45.0617" lon="5.63905">
        <ele>534</ele>
        <time>2013-09-15T13:42:37.000Z</time>
      </trkpt>
      <trkpt lat="45.0617" lon="5.63905">
        <ele>534</ele>
        <time>2013-09-15T13:42:38.000Z</time>
      </trkpt>
      <trkpt lat="45.06168" lon="5.63912">
        <ele>534</ele>
        <time>2013-09-15T13:42:41.000Z</time>
      </trkpt>
      <trkpt lat="45.06168" lon="5.63912">
        <ele>534</ele>
        <time>2013-09-15T13:42:41.000Z</time>
      </trkpt>
      <trkpt lat="45.06168" lon="5.63912">
        <ele>534</ele>
        <time>2013-09-15T13:42:42.000Z</time>
      </trkpt>
      <trkpt lat="45.06165" lon="5.63918">
        <ele>534</ele>
        <time>2013-09-15T13:42:46.000Z</time>
      </trkpt>
      <trkpt lat="45.0616" lon="5.63925">
        <ele>534</ele>
        <time>2013-09-15T13:42:51.000Z</time>
      </trkpt>
      <trkpt lat="45.06158" lon="5.63931">
        <ele>534</ele>
        <time>2013-09-15T13:42:55.000Z</time>
      </trkpt>
      <trkpt lat="45.06157" lon="5.63938">
        <ele>534</ele>
        <time>2013-09-15T13:42:57.000Z</time>
      </trkpt>
      <trkpt lat="45.06154" lon="5.63944">
        <ele>534</ele>
        <time>2013-09-15T13:43:01.000Z</time>
      </trkpt>
      <trkpt lat="45.06152" lon="5.6395">
        <ele>534</ele>
        <time>2013-09-15T13:43:05.000Z</time>
      </trkpt>
      <trkpt lat="45.0615" lon="5.63957">
        <ele>534</ele>
        <time>2013-09-15T13:43:09.000Z</time>
      </trkpt>
      <trkpt lat="45.06148" lon="5.63963">
        <ele>534</ele>
        <time>2013-09-15T13:43:13.000Z</time>
      </trkpt>
      <trkpt lat="45.06148" lon="5.63963">
        <ele>534</ele>
        <time>2013-09-15T13:43:13.000Z</time>
      </trkpt>
      <trkpt lat="45.06148" lon="5.63963">
        <ele>534</ele>
        <time>2013-09-15T13:43:14.000Z</time>
      </trkpt>
      <trkpt lat="45.06144" lon="5.6397">
        <ele>535</ele>
        <time>2013-09-15T13:43:19.000Z</time>
      </trkpt>
      <trkpt lat="45.06144" lon="5.6397">
        <ele>535</ele>
        <time>2013-09-15T13:43:19.000Z</time>
      </trkpt>
      <trkpt lat="45.06144" lon="5.6397">
        <ele>535</ele>
        <time>2013-09-15T13:43:20.000Z</time>
      </trkpt>
      <trkpt lat="45.06142" lon="5.63976">
        <ele>535</ele>
        <time>2013-09-15T13:43:24.000Z</time>
      </trkpt>
      <trkpt lat="45.06139" lon="5.63983">
        <ele>535</ele>
        <time>2013-09-15T13:43:29.000Z</time>
      </trkpt>
      <trkpt lat="45.06136" lon="5.63989">
        <ele>535</ele>
        <time>2013-09-15T13:43:34.000Z</time>
      </trkpt>
      <trkpt lat="45.06133" lon="5.63996">
        <ele>536</ele>
        <time>2013-09-15T13:43:39.000Z</time>
      </trkpt>
      <trkpt lat="45.06133" lon="5.63996">
        <ele>536</ele>
        <time>2013-09-15T13:43:39.000Z</time>
      </trkpt>
      <trkpt lat="45.06133" lon="5.63996">
        <ele>536</ele>
        <time>2013-09-15T13:43:40.000Z</time>
      </trkpt>
      <trkpt lat="45.0613" lon="5.64002">
        <ele>536</ele>
        <time>2013-09-15T13:43:43.000Z</time>
      </trkpt>
      <trkpt lat="45.06129" lon="5.64008">
        <ele>537</ele>
        <time>2013-09-15T13:43:47.000Z</time>
      </trkpt>
      <trkpt lat="45.06129" lon="5.64015">
        <ele>537</ele>
        <time>2013-09-15T13:43:50.000Z</time>
      </trkpt>
      <trkpt lat="45.0613" lon="5.64021">
        <ele>537</ele>
        <time>2013-09-15T13:43:53.000Z</time>
      </trkpt>
      <trkpt lat="45.0613" lon="5.64028">
        <ele>538</ele>
        <time>2013-09-15T13:43:56.000Z</time>
      </trkpt>
      <trkpt lat="45.06129" lon="5.64034">
        <ele>538</ele>
        <time>2013-09-15T13:43:59.000Z</time>
      </trkpt>
      <trkpt lat="45.06128" lon="5.64043">
        <ele>538</ele>
        <time>2013-09-15T13:44:01.000Z</time>
      </trkpt>
      <trkpt lat="45.06128" lon="5.64051">
        <ele>538</ele>
        <time>2013-09-15T13:44:03.000Z</time>
      </trkpt>
      <trkpt lat="45.06127" lon="5.64058">
        <ele>538</ele>
        <time>2013-09-15T13:44:05.000Z</time>
      </trkpt>
      <trkpt lat="45.06127" lon="5.64064">
        <ele>538</ele>
        <time>2013-09-15T13:44:07.000Z</time>
      </trkpt>
      <trkpt lat="45.06126" lon="5.64071">
        <ele>538</ele>
        <time>2013-09-15T13:44:10.000Z</time>
      </trkpt>
      <trkpt lat="45.06127" lon="5.64077">
        <ele>538</ele>
        <time>2013-09-15T13:44:15.000Z</time>
      </trkpt>
      <trkpt lat="45.06127" lon="5.64077">
        <ele>538</ele>
        <time>2013-09-15T13:44:15.000Z</time>
      </trkpt>
      <trkpt lat="45.06127" lon="5.64077">
        <ele>538</ele>
        <time>2013-09-15T13:44:16.000Z</time>
      </trkpt>
      <trkpt lat="45.06127" lon="5.64084">
        <ele>538</ele>
        <time>2013-09-15T13:44:21.000Z</time>
      </trkpt>
      <trkpt lat="45.06127" lon="5.64084">
        <ele>538</ele>
        <time>2013-09-15T13:44:21.000Z</time>
      </trkpt>
      <trkpt lat="45.06127" lon="5.64084">
        <ele>539</ele>
        <time>2013-09-15T13:44:24.000Z</time>
      </trkpt>
      <trkpt lat="45.06128" lon="5.6409">
        <ele>539</ele>
        <time>2013-09-15T13:44:37.000Z</time>
      </trkpt>
      <trkpt lat="45.06128" lon="5.6409">
        <ele>539</ele>
        <time>2013-09-15T13:44:37.000Z</time>
      </trkpt>
      <trkpt lat="45.06128" lon="5.6409">
        <ele>539</ele>
        <time>2013-09-15T13:44:40.000Z</time>
      </trkpt>
      <trkpt lat="45.06132" lon="5.64096">
        <ele>540</ele>
        <time>2013-09-15T13:44:57.000Z</time>
      </trkpt>
      <trkpt lat="45.06132" lon="5.64096">
        <ele>540</ele>
        <time>2013-09-15T13:44:57.000Z</time>
      </trkpt>
      <trkpt lat="45.06132" lon="5.64096">
        <ele>540</ele>
        <time>2013-09-15T13:45:00.000Z</time>
      </trkpt>
      <trkpt lat="45.06132" lon="5.64103">
        <ele>541</ele>
        <time>2013-09-15T13:46:00.000Z</time>
      </trkpt>
      <trkpt lat="45.06132" lon="5.64103">
        <ele>541</ele>
        <time>2013-09-15T13:46:00.000Z</time>
      </trkpt>
      <trkpt lat="45.06132" lon="5.64103">
        <ele>541</ele>
        <time>2013-09-15T13:46:04.000Z</time>
      </trkpt>
      <trkpt lat="45.06132" lon="5.64096">
        <ele>542</ele>
        <time>2013-09-15T13:46:36.000Z</time>
      </trkpt>
      <trkpt lat="45.06132" lon="5.64096">
        <ele>542</ele>
        <time>2013-09-15T13:46:36.000Z</time>
      </trkpt>
      <trkpt lat="45.06132" lon="5.64096">
        <ele>542</ele>
        <time>2013-09-15T13:46:38.000Z</time>
      </trkpt>
      <trkpt lat="45.06127" lon="5.64092">
        <ele>544</ele>
        <time>2013-09-15T13:47:28.000Z</time>
      </trkpt>
      <trkpt lat="45.06127" lon="5.64092">
        <ele>544</ele>
        <time>2013-09-15T13:47:28.000Z</time>
      </trkpt>
      <trkpt lat="45.06127" lon="5.64092">
        <ele>544</ele>
        <time>2013-09-15T13:47:33.000Z</time>
      </trkpt>
      <trkpt lat="45.06125" lon="5.64098">
        <ele>546</ele>
        <time>2013-09-15T13:47:52.000Z</time>
      </trkpt>
      <trkpt lat="45.06125" lon="5.64098">
        <ele>546</ele>
        <time>2013-09-15T13:47:52.000Z</time>
      </trkpt>
      <trkpt lat="45.06125" lon="5.64098">
        <ele>546</ele>
        <time>2013-09-15T13:47:53.000Z</time>
      </trkpt>
      <trkpt lat="45.06127" lon="5.64105">
        <ele>546</ele>
        <time>2013-09-15T13:47:58.000Z</time>
      </trkpt>
      <trkpt lat="45.06127" lon="5.64105">
        <ele>546</ele>
        <time>2013-09-15T13:47:58.000Z</time>
      </trkpt>
      <trkpt lat="45.06127" lon="5.64105">
        <ele>546</ele>
        <time>2013-09-15T13:47:59.000Z</time>
      </trkpt>
      <trkpt lat="45.06132" lon="5.64111">
        <ele>546</ele>
        <time>2013-09-15T13:48:04.000Z</time>
      </trkpt>
      <trkpt lat="45.06135" lon="5.64118">
        <ele>548</ele>
        <time>2013-09-15T13:48:10.000Z</time>
      </trkpt>
      <trkpt lat="45.06135" lon="5.64124">
        <ele>548</ele>
        <time>2013-09-15T13:48:15.000Z</time>
      </trkpt>
      <trkpt lat="45.06135" lon="5.64124">
        <ele>548</ele>
        <time>2013-09-15T13:48:15.000Z</time>
      </trkpt>
      <trkpt lat="45.06135" lon="5.64124">
        <ele>549</ele>
        <time>2013-09-15T13:48:16.000Z</time>
      </trkpt>
      <trkpt lat="45.06134" lon="5.64131">
        <ele>549</ele>
        <time>2013-09-15T13:48:20.000Z</time>
      </trkpt>
      <trkpt lat="45.06129" lon="5.64137">
        <ele>550</ele>
        <time>2013-09-15T13:48:26.000Z</time>
      </trkpt>
      <trkpt lat="45.06129" lon="5.64137">
        <ele>550</ele>
        <time>2013-09-15T13:48:26.000Z</time>
      </trkpt>
      <trkpt lat="45.06129" lon="5.64137">
        <ele>550</ele>
        <time>2013-09-15T13:48:27.000Z</time>
      </trkpt>
      <trkpt lat="45.06128" lon="5.64144">
        <ele>551</ele>
        <time>2013-09-15T13:48:31.000Z</time>
      </trkpt>
      <trkpt lat="45.06127" lon="5.6415">
        <ele>551</ele>
        <time>2013-09-15T13:48:36.000Z</time>
      </trkpt>
      <trkpt lat="45.06125" lon="5.64156">
        <ele>552</ele>
        <time>2013-09-15T13:48:42.000Z</time>
      </trkpt>
      <trkpt lat="45.06125" lon="5.64156">
        <ele>552</ele>
        <time>2013-09-15T13:48:42.000Z</time>
      </trkpt>
      <trkpt lat="45.06125" lon="5.64156">
        <ele>552</ele>
        <time>2013-09-15T13:48:43.000Z</time>
      </trkpt>
      <trkpt lat="45.06123" lon="5.64163">
        <ele>553</ele>
        <time>2013-09-15T13:48:48.000Z</time>
      </trkpt>
      <trkpt lat="45.0612" lon="5.64169">
        <ele>553</ele>
        <time>2013-09-15T13:48:54.000Z</time>
      </trkpt>
      <trkpt lat="45.06118" lon="5.64176">
        <ele>554</ele>
        <time>2013-09-15T13:48:59.000Z</time>
      </trkpt>
      <trkpt lat="45.06115" lon="5.64182">
        <ele>554</ele>
        <time>2013-09-15T13:49:03.000Z</time>
      </trkpt>
      <trkpt lat="45.06115" lon="5.64182">
        <ele>554</ele>
        <time>2013-09-15T13:49:03.000Z</time>
      </trkpt>
      <trkpt lat="45.06115" lon="5.64182">
        <ele>555</ele>
        <time>2013-09-15T13:49:04.000Z</time>
      </trkpt>
      <trkpt lat="45.06114" lon="5.64189">
        <ele>555</ele>
        <time>2013-09-15T13:49:07.000Z</time>
      </trkpt>
      <trkpt lat="45.06112" lon="5.64195">
        <ele>556</ele>
        <time>2013-09-15T13:49:12.000Z</time>
      </trkpt>
      <trkpt lat="45.06112" lon="5.64195">
        <ele>556</ele>
        <time>2013-09-15T13:49:12.000Z</time>
      </trkpt>
      <trkpt lat="45.06112" lon="5.64195">
        <ele>556</ele>
        <time>2013-09-15T13:49:13.000Z</time>
      </trkpt>
      <trkpt lat="45.06111" lon="5.64202">
        <ele>556</ele>
        <time>2013-09-15T13:49:17.000Z</time>
      </trkpt>
      <trkpt lat="45.06109" lon="5.64208">
        <ele>557</ele>
        <time>2013-09-15T13:49:22.000Z</time>
      </trkpt>
      <trkpt lat="45.06107" lon="5.64214">
        <ele>558</ele>
        <time>2013-09-15T13:49:27.000Z</time>
      </trkpt>
      <trkpt lat="45.06107" lon="5.64214">
        <ele>558</ele>
        <time>2013-09-15T13:49:27.000Z</time>
      </trkpt>
      <trkpt lat="45.06107" lon="5.64214">
        <ele>558</ele>
        <time>2013-09-15T13:49:28.000Z</time>
      </trkpt>
      <trkpt lat="45.06105" lon="5.64221">
        <ele>558</ele>
        <time>2013-09-15T13:49:32.000Z</time>
      </trkpt>
      <trkpt lat="45.06105" lon="5.64221">
        <ele>558</ele>
        <time>2013-09-15T13:49:32.000Z</time>
      </trkpt>
      <trkpt lat="45.06105" lon="5.64221">
        <ele>559</ele>
        <time>2013-09-15T13:49:33.000Z</time>
      </trkpt>
      <trkpt lat="45.06101" lon="5.64227">
        <ele>559</ele>
        <time>2013-09-15T13:49:38.000Z</time>
      </trkpt>
      <trkpt lat="45.06098" lon="5.64234">
        <ele>560</ele>
        <time>2013-09-15T13:49:44.000Z</time>
      </trkpt>
      <trkpt lat="45.06096" lon="5.6424">
        <ele>561</ele>
        <time>2013-09-15T13:49:49.000Z</time>
      </trkpt>
      <trkpt lat="45.06094" lon="5.64247">
        <ele>562</ele>
        <time>2013-09-15T13:49:53.000Z</time>
      </trkpt>
      <trkpt lat="45.06092" lon="5.64253">
        <ele>563</ele>
        <time>2013-09-15T13:49:57.000Z</time>
      </trkpt>
      <trkpt lat="45.06091" lon="5.6426">
        <ele>563</ele>
        <time>2013-09-15T13:50:01.000Z</time>
      </trkpt>
      <trkpt lat="45.06091" lon="5.6426">
        <ele>563</ele>
        <time>2013-09-15T13:50:01.000Z</time>
      </trkpt>
      <trkpt lat="45.06091" lon="5.6426">
        <ele>563</ele>
        <time>2013-09-15T13:50:02.000Z</time>
      </trkpt>
      <trkpt lat="45.0609" lon="5.64266">
        <ele>564</ele>
        <time>2013-09-15T13:50:06.000Z</time>
      </trkpt>
      <trkpt lat="45.06088" lon="5.64272">
        <ele>564</ele>
        <time>2013-09-15T13:50:14.000Z</time>
      </trkpt>
      <trkpt lat="45.06084" lon="5.64279">
        <ele>565</ele>
        <time>2013-09-15T13:50:21.000Z</time>
      </trkpt>
      <trkpt lat="45.06082" lon="5.64285">
        <ele>566</ele>
        <time>2013-09-15T13:50:26.000Z</time>
      </trkpt>
      <trkpt lat="45.06079" lon="5.64292">
        <ele>567</ele>
        <time>2013-09-15T13:50:31.000Z</time>
      </trkpt>
      <trkpt lat="45.06075" lon="5.64298">
        <ele>568</ele>
        <time>2013-09-15T13:50:36.000Z</time>
      </trkpt>
      <trkpt lat="45.0607" lon="5.64302">
        <ele>569</ele>
        <time>2013-09-15T13:50:41.000Z</time>
      </trkpt>
      <trkpt lat="45.06066" lon="5.64307">
        <ele>570</ele>
        <time>2013-09-15T13:50:46.000Z</time>
      </trkpt>
      <trkpt lat="45.06062" lon="5.64311">
        <ele>570</ele>
        <time>2013-09-15T13:50:50.000Z</time>
      </trkpt>
      <trkpt lat="45.06058" lon="5.64315">
        <ele>571</ele>
        <time>2013-09-15T13:50:54.000Z</time>
      </trkpt>
      <trkpt lat="45.06053" lon="5.6432">
        <ele>572</ele>
        <time>2013-09-15T13:50:59.000Z</time>
      </trkpt>
      <trkpt lat="45.0605" lon="5.64326">
        <ele>573</ele>
        <time>2013-09-15T13:51:04.000Z</time>
      </trkpt>
      <trkpt lat="45.06049" lon="5.64332">
        <ele>573</ele>
        <time>2013-09-15T13:51:08.000Z</time>
      </trkpt>
      <trkpt lat="45.06049" lon="5.64339">
        <ele>574</ele>
        <time>2013-09-15T13:51:12.000Z</time>
      </trkpt>
      <trkpt lat="45.06049" lon="5.64339">
        <ele>574</ele>
        <time>2013-09-15T13:51:12.000Z</time>
      </trkpt>
      <trkpt lat="45.06049" lon="5.64339">
        <ele>574</ele>
        <time>2013-09-15T13:51:13.000Z</time>
      </trkpt>
      <trkpt lat="45.06049" lon="5.64345">
        <ele>574</ele>
        <time>2013-09-15T13:51:16.000Z</time>
      </trkpt>
      <trkpt lat="45.06049" lon="5.64352">
        <ele>575</ele>
        <time>2013-09-15T13:51:19.000Z</time>
      </trkpt>
      <trkpt lat="45.06049" lon="5.64352">
        <ele>575</ele>
        <time>2013-09-15T13:51:19.000Z</time>
      </trkpt>
      <trkpt lat="45.06049" lon="5.64352">
        <ele>575</ele>
        <time>2013-09-15T13:51:20.000Z</time>
      </trkpt>
      <trkpt lat="45.0605" lon="5.64358">
        <ele>575</ele>
        <time>2013-09-15T13:51:23.000Z</time>
      </trkpt>
      <trkpt lat="45.0605" lon="5.64365">
        <ele>575</ele>
        <time>2013-09-15T13:51:26.000Z</time>
      </trkpt>
      <trkpt lat="45.06049" lon="5.64371">
        <ele>576</ele>
        <time>2013-09-15T13:51:29.000Z</time>
      </trkpt>
      <trkpt lat="45.06047" lon="5.64378">
        <ele>576</ele>
        <time>2013-09-15T13:51:32.000Z</time>
      </trkpt>
      <trkpt lat="45.06046" lon="5.64384">
        <ele>577</ele>
        <time>2013-09-15T13:51:35.000Z</time>
      </trkpt>
      <trkpt lat="45.06045" lon="5.6439">
        <ele>577</ele>
        <time>2013-09-15T13:51:37.000Z</time>
      </trkpt>
      <trkpt lat="45.06046" lon="5.64397">
        <ele>578</ele>
        <time>2013-09-15T13:51:40.000Z</time>
      </trkpt>
      <trkpt lat="45.06046" lon="5.64403">
        <ele>578</ele>
        <time>2013-09-15T13:51:42.000Z</time>
      </trkpt>
      <trkpt lat="45.06047" lon="5.6441">
        <ele>579</ele>
        <time>2013-09-15T13:51:46.000Z</time>
      </trkpt>
      <trkpt lat="45.06047" lon="5.64416">
        <ele>579</ele>
        <time>2013-09-15T13:51:49.000Z</time>
      </trkpt>
      <trkpt lat="45.06048" lon="5.64423">
        <ele>580</ele>
        <time>2013-09-15T13:51:53.000Z</time>
      </trkpt>
      <trkpt lat="45.06048" lon="5.64429">
        <ele>580</ele>
        <time>2013-09-15T13:51:56.000Z</time>
      </trkpt>
      <trkpt lat="45.06046" lon="5.64435">
        <ele>581</ele>
        <time>2013-09-15T13:52:01.000Z</time>
      </trkpt>
      <trkpt lat="45.06046" lon="5.64442">
        <ele>582</ele>
        <time>2013-09-15T13:52:05.000Z</time>
      </trkpt>
      <trkpt lat="45.06045" lon="5.64448">
        <ele>582</ele>
        <time>2013-09-15T13:52:09.000Z</time>
      </trkpt>
      <trkpt lat="45.06042" lon="5.64455">
        <ele>583</ele>
        <time>2013-09-15T13:52:15.000Z</time>
      </trkpt>
      <trkpt lat="45.06041" lon="5.64461">
        <ele>583</ele>
        <time>2013-09-15T13:52:19.000Z</time>
      </trkpt>
      <trkpt lat="45.06041" lon="5.64461">
        <ele>583</ele>
        <time>2013-09-15T13:52:19.000Z</time>
      </trkpt>
      <trkpt lat="45.06041" lon="5.64461">
        <ele>583</ele>
        <time>2013-09-15T13:52:20.000Z</time>
      </trkpt>
      <trkpt lat="45.06041" lon="5.64468">
        <ele>584</ele>
        <time>2013-09-15T13:52:24.000Z</time>
      </trkpt>
      <trkpt lat="45.06041" lon="5.64468">
        <ele>584</ele>
        <time>2013-09-15T13:52:24.000Z</time>
      </trkpt>
      <trkpt lat="45.06041" lon="5.64468">
        <ele>584</ele>
        <time>2013-09-15T13:52:25.000Z</time>
      </trkpt>
      <trkpt lat="45.06039" lon="5.64474">
        <ele>584</ele>
        <time>2013-09-15T13:52:30.000Z</time>
      </trkpt>
      <trkpt lat="45.06038" lon="5.6448">
        <ele>585</ele>
        <time>2013-09-15T13:52:35.000Z</time>
      </trkpt>
      <trkpt lat="45.06038" lon="5.64487">
        <ele>585</ele>
        <time>2013-09-15T13:52:39.000Z</time>
      </trkpt>
      <trkpt lat="45.06038" lon="5.64493">
        <ele>586</ele>
        <time>2013-09-15T13:52:43.000Z</time>
      </trkpt>
      <trkpt lat="45.06036" lon="5.645">
        <ele>586</ele>
        <time>2013-09-15T13:52:47.000Z</time>
      </trkpt>
      <trkpt lat="45.06035" lon="5.64506">
        <ele>586</ele>
        <time>2013-09-15T13:52:51.000Z</time>
      </trkpt>
      <trkpt lat="45.06031" lon="5.64513">
        <ele>587</ele>
        <time>2013-09-15T13:52:56.000Z</time>
      </trkpt>
      <trkpt lat="45.06031" lon="5.64513">
        <ele>587</ele>
        <time>2013-09-15T13:52:56.000Z</time>
      </trkpt>
      <trkpt lat="45.06031" lon="5.64513">
        <ele>587</ele>
        <time>2013-09-15T13:52:57.000Z</time>
      </trkpt>
      <trkpt lat="45.06027" lon="5.64519">
        <ele>587</ele>
        <time>2013-09-15T13:53:01.000Z</time>
      </trkpt>
      <trkpt lat="45.06025" lon="5.64526">
        <ele>588</ele>
        <time>2013-09-15T13:53:05.000Z</time>
      </trkpt>
      <trkpt lat="45.06024" lon="5.64532">
        <ele>589</ele>
        <time>2013-09-15T13:53:09.000Z</time>
      </trkpt>
      <trkpt lat="45.06023" lon="5.64538">
        <ele>589</ele>
        <time>2013-09-15T13:53:12.000Z</time>
      </trkpt>
      <trkpt lat="45.06021" lon="5.64545">
        <ele>590</ele>
        <time>2013-09-15T13:53:15.000Z</time>
      </trkpt>
      <trkpt lat="45.0602" lon="5.64551">
        <ele>590</ele>
        <time>2013-09-15T13:53:17.000Z</time>
      </trkpt>
      <trkpt lat="45.06019" lon="5.64558">
        <ele>591</ele>
        <time>2013-09-15T13:53:20.000Z</time>
      </trkpt>
      <trkpt lat="45.06018" lon="5.64564">
        <ele>591</ele>
        <time>2013-09-15T13:53:22.000Z</time>
      </trkpt>
      <trkpt lat="45.06016" lon="5.64571">
        <ele>592</ele>
        <time>2013-09-15T13:53:25.000Z</time>
      </trkpt>
      <trkpt lat="45.06014" lon="5.64577">
        <ele>592</ele>
        <time>2013-09-15T13:53:28.000Z</time>
      </trkpt>
      <trkpt lat="45.06014" lon="5.64584">
        <ele>592</ele>
        <time>2013-09-15T13:53:31.000Z</time>
      </trkpt>
      <trkpt lat="45.06011" lon="5.6459">
        <ele>593</ele>
        <time>2013-09-15T13:53:35.000Z</time>
      </trkpt>
      <trkpt lat="45.06011" lon="5.6459">
        <ele>593</ele>
        <time>2013-09-15T13:53:35.000Z</time>
      </trkpt>
      <trkpt lat="45.06011" lon="5.6459">
        <ele>593</ele>
        <time>2013-09-15T13:53:36.000Z</time>
      </trkpt>
      <trkpt lat="45.06007" lon="5.64596">
        <ele>594</ele>
        <time>2013-09-15T13:53:41.000Z</time>
      </trkpt>
      <trkpt lat="45.06007" lon="5.64596">
        <ele>594</ele>
        <time>2013-09-15T13:53:41.000Z</time>
      </trkpt>
      <trkpt lat="45.06007" lon="5.64596">
        <ele>594</ele>
        <time>2013-09-15T13:53:42.000Z</time>
      </trkpt>
      <trkpt lat="45.06005" lon="5.64603">
        <ele>595</ele>
        <time>2013-09-15T13:53:46.000Z</time>
      </trkpt>
      <trkpt lat="45.06003" lon="5.64609">
        <ele>595</ele>
        <time>2013-09-15T13:53:50.000Z</time>
      </trkpt>
      <trkpt lat="45.06001" lon="5.64616">
        <ele>596</ele>
        <time>2013-09-15T13:53:53.000Z</time>
      </trkpt>
      <trkpt lat="45.06" lon="5.64622">
        <ele>597</ele>
        <time>2013-09-15T13:53:56.000Z</time>
      </trkpt>
      <trkpt lat="45.06" lon="5.64622">
        <ele>597</ele>
        <time>2013-09-15T13:53:56.000Z</time>
      </trkpt>
      <trkpt lat="45.06" lon="5.64622">
        <ele>597</ele>
        <time>2013-09-15T13:53:57.000Z</time>
      </trkpt>
      <trkpt lat="45.05997" lon="5.64629">
        <ele>598</ele>
        <time>2013-09-15T13:54:02.000Z</time>
      </trkpt>
      <trkpt lat="45.05997" lon="5.64629">
        <ele>598</ele>
        <time>2013-09-15T13:54:02.000Z</time>
      </trkpt>
      <trkpt lat="45.05997" lon="5.64629">
        <ele>599</ele>
        <time>2013-09-15T13:54:04.000Z</time>
      </trkpt>
      <trkpt lat="45.05997" lon="5.64635">
        <ele>600</ele>
        <time>2013-09-15T13:54:14.000Z</time>
      </trkpt>
      <trkpt lat="45.05997" lon="5.64635">
        <ele>600</ele>
        <time>2013-09-15T13:54:14.000Z</time>
      </trkpt>
      <trkpt lat="45.05997" lon="5.64635">
        <ele>601</ele>
        <time>2013-09-15T13:54:16.000Z</time>
      </trkpt>
      <trkpt lat="45.05993" lon="5.64639">
        <ele>602</ele>
        <time>2013-09-15T13:54:24.000Z</time>
      </trkpt>
      <trkpt lat="45.05993" lon="5.64639">
        <ele>602</ele>
        <time>2013-09-15T13:54:24.000Z</time>
      </trkpt>
      <trkpt lat="45.05993" lon="5.64639">
        <ele>602</ele>
        <time>2013-09-15T13:54:25.000Z</time>
      </trkpt>
      <trkpt lat="45.05989" lon="5.64641">
        <ele>603</ele>
        <time>2013-09-15T13:54:30.000Z</time>
      </trkpt>
      <trkpt lat="45.05989" lon="5.64641">
        <ele>603</ele>
        <time>2013-09-15T13:54:30.000Z</time>
      </trkpt>
      <trkpt lat="45.05989" lon="5.64641">
        <ele>603</ele>
        <time>2013-09-15T13:54:31.000Z</time>
      </trkpt>
      <trkpt lat="45.05984" lon="5.64646">
        <ele>604</ele>
        <time>2013-09-15T13:54:39.000Z</time>
      </trkpt>
      <trkpt lat="45.05984" lon="5.64646">
        <ele>604</ele>
        <time>2013-09-15T13:54:39.000Z</time>
      </trkpt>
      <trkpt lat="45.05984" lon="5.64646">
        <ele>604</ele>
        <time>2013-09-15T13:54:41.000Z</time>
      </trkpt>
      <trkpt lat="45.05981" lon="5.64652">
        <ele>604</ele>
        <time>2013-09-15T13:54:47.000Z</time>
      </trkpt>
      <trkpt lat="45.05981" lon="5.64652">
        <ele>604</ele>
        <time>2013-09-15T13:54:47.000Z</time>
      </trkpt>
      <trkpt lat="45.05981" lon="5.64652">
        <ele>604</ele>
        <time>2013-09-15T13:54:48.000Z</time>
      </trkpt>
      <trkpt lat="45.05978" lon="5.64659">
        <ele>604</ele>
        <time>2013-09-15T13:54:55.000Z</time>
      </trkpt>
      <trkpt lat="45.05974" lon="5.64661">
        <ele>605</ele>
        <time>2013-09-15T13:55:00.000Z</time>
      </trkpt>
      <trkpt lat="45.05974" lon="5.64661">
        <ele>605</ele>
        <time>2013-09-15T13:55:00.000Z</time>
      </trkpt>
      <trkpt lat="45.05974" lon="5.64661">
        <ele>605</ele>
        <time>2013-09-15T13:55:01.000Z</time>
      </trkpt>
      <trkpt lat="45.0597" lon="5.64667">
        <ele>606</ele>
        <time>2013-09-15T13:55:07.000Z</time>
      </trkpt>
      <trkpt lat="45.05966" lon="5.64672">
        <ele>606</ele>
        <time>2013-09-15T13:55:12.000Z</time>
      </trkpt>
      <trkpt lat="45.05962" lon="5.64674">
        <ele>607</ele>
        <time>2013-09-15T13:55:15.000Z</time>
      </trkpt>
      <trkpt lat="45.05958" lon="5.64676">
        <ele>607</ele>
        <time>2013-09-15T13:55:18.000Z</time>
      </trkpt>
      <trkpt lat="45.05953" lon="5.64678">
        <ele>607</ele>
        <time>2013-09-15T13:55:20.000Z</time>
      </trkpt>
      <trkpt lat="45.05949" lon="5.6468">
        <ele>607</ele>
        <time>2013-09-15T13:55:23.000Z</time>
      </trkpt>
      <trkpt lat="45.05945" lon="5.64684">
        <ele>608</ele>
        <time>2013-09-15T13:55:25.000Z</time>
      </trkpt>
      <trkpt lat="45.0594" lon="5.64686">
        <ele>608</ele>
        <time>2013-09-15T13:55:28.000Z</time>
      </trkpt>
      <trkpt lat="45.05935" lon="5.64691">
        <ele>608</ele>
        <time>2013-09-15T13:55:31.000Z</time>
      </trkpt>
      <trkpt lat="45.05931" lon="5.64695">
        <ele>609</ele>
        <time>2013-09-15T13:55:34.000Z</time>
      </trkpt>
      <trkpt lat="45.05927" lon="5.64699">
        <ele>609</ele>
        <time>2013-09-15T13:55:37.000Z</time>
      </trkpt>
      <trkpt lat="45.05921" lon="5.64708">
        <ele>610</ele>
        <time>2013-09-15T13:55:40.000Z</time>
      </trkpt>
      <trkpt lat="45.05917" lon="5.64712">
        <ele>610</ele>
        <time>2013-09-15T13:55:42.000Z</time>
      </trkpt>
      <trkpt lat="45.05913" lon="5.64719">
        <ele>611</ele>
        <time>2013-09-15T13:55:45.000Z</time>
      </trkpt>
      <trkpt lat="45.05909" lon="5.64725">
        <ele>612</ele>
        <time>2013-09-15T13:55:48.000Z</time>
      </trkpt>
      <trkpt lat="45.05906" lon="5.64732">
        <ele>613</ele>
        <time>2013-09-15T13:55:51.000Z</time>
      </trkpt>
      <trkpt lat="45.05902" lon="5.64736">
        <ele>613</ele>
        <time>2013-09-15T13:55:55.000Z</time>
      </trkpt>
      <trkpt lat="45.05901" lon="5.64742">
        <ele>613</ele>
        <time>2013-09-15T13:56:00.000Z</time>
      </trkpt>
      <trkpt lat="45.05902" lon="5.64749">
        <ele>613</ele>
        <time>2013-09-15T13:56:04.000Z</time>
      </trkpt>
      <trkpt lat="45.05904" lon="5.64755">
        <ele>613</ele>
        <time>2013-09-15T13:56:10.000Z</time>
      </trkpt>
      <trkpt lat="45.05904" lon="5.64755">
        <ele>613</ele>
        <time>2013-09-15T13:56:10.000Z</time>
      </trkpt>
      <trkpt lat="45.05904" lon="5.64755">
        <ele>614</ele>
        <time>2013-09-15T13:56:15.000Z</time>
      </trkpt>
      <trkpt lat="45.05905" lon="5.64762">
        <ele>614</ele>
        <time>2013-09-15T13:56:33.000Z</time>
      </trkpt>
      <trkpt lat="45.05905" lon="5.64762">
        <ele>614</ele>
        <time>2013-09-15T13:56:33.000Z</time>
      </trkpt>
      <trkpt lat="45.05905" lon="5.64762">
        <ele>614</ele>
        <time>2013-09-15T13:56:43.000Z</time>
      </trkpt>
      <trkpt lat="45.05901" lon="5.64757">
        <ele>614</ele>
        <time>2013-09-15T13:56:56.000Z</time>
      </trkpt>
      <trkpt lat="45.05895" lon="5.64759">
        <ele>619</ele>
        <time>2013-09-15T13:57:51.000Z</time>
      </trkpt>
      <trkpt lat="45.05893" lon="5.64766">
        <ele>620</ele>
        <time>2013-09-15T13:58:03.000Z</time>
      </trkpt>
      <trkpt lat="45.05893" lon="5.64766">
        <ele>620</ele>
        <time>2013-09-15T13:58:03.000Z</time>
      </trkpt>
      <trkpt lat="45.05893" lon="5.64766">
        <ele>620</ele>
        <time>2013-09-15T13:58:05.000Z</time>
      </trkpt>
      <trkpt lat="45.05892" lon="5.64772">
        <ele>620</ele>
        <time>2013-09-15T13:58:11.000Z</time>
      </trkpt>
      <trkpt lat="45.05892" lon="5.64772">
        <ele>620</ele>
        <time>2013-09-15T13:58:11.000Z</time>
      </trkpt>
      <trkpt lat="45.05892" lon="5.64772">
        <ele>620</ele>
        <time>2013-09-15T13:58:12.000Z</time>
      </trkpt>
      <trkpt lat="45.05894" lon="5.64779">
        <ele>620</ele>
        <time>2013-09-15T13:58:21.000Z</time>
      </trkpt>
      <trkpt lat="45.05899" lon="5.64783">
        <ele>620</ele>
        <time>2013-09-15T13:58:34.000Z</time>
      </trkpt>
      <trkpt lat="45.05903" lon="5.6479">
        <ele>620</ele>
        <time>2013-09-15T13:58:36.000Z</time>
      </trkpt>
      <trkpt lat="45.0591" lon="5.64796">
        <ele>620</ele>
        <time>2013-09-15T13:58:38.000Z</time>
      </trkpt>
      <trkpt lat="45.05918" lon="5.648">
        <ele>619</ele>
        <time>2013-09-15T13:58:40.000Z</time>
      </trkpt>
      <trkpt lat="45.05922" lon="5.64802">
        <ele>619</ele>
        <time>2013-09-15T13:58:41.000Z</time>
      </trkpt>
      <trkpt lat="45.0593" lon="5.64804">
        <ele>620</ele>
        <time>2013-09-15T13:58:43.000Z</time>
      </trkpt>
      <trkpt lat="45.05936" lon="5.64811">
        <ele>620</ele>
        <time>2013-09-15T13:58:45.000Z</time>
      </trkpt>
      <trkpt lat="45.05939" lon="5.64815">
        <ele>620</ele>
        <time>2013-09-15T13:58:46.000Z</time>
      </trkpt>
      <trkpt lat="45.05947" lon="5.64824">
        <ele>620</ele>
        <time>2013-09-15T13:58:50.000Z</time>
      </trkpt>
      <trkpt lat="45.05947" lon="5.64824">
        <ele>620</ele>
        <time>2013-09-15T13:58:50.000Z</time>
      </trkpt>
      <trkpt lat="45.05947" lon="5.64824">
        <ele>620</ele>
        <time>2013-09-15T13:58:54.000Z</time>
      </trkpt>
      <trkpt lat="45.05954" lon="5.6483">
        <ele>620</ele>
        <time>2013-09-15T13:58:55.000Z</time>
      </trkpt>
      <trkpt lat="45.05959" lon="5.64834">
        <ele>620</ele>
        <time>2013-09-15T13:58:57.000Z</time>
      </trkpt>
      <trkpt lat="45.05963" lon="5.64841">
        <ele>620</ele>
        <time>2013-09-15T13:58:59.000Z</time>
      </trkpt>
      <trkpt lat="45.05967" lon="5.6485">
        <ele>620</ele>
        <time>2013-09-15T13:59:01.000Z</time>
      </trkpt>
      <trkpt lat="45.0597" lon="5.64858">
        <ele>620</ele>
        <time>2013-09-15T13:59:03.000Z</time>
      </trkpt>
      <trkpt lat="45.0597" lon="5.64865">
        <ele>620</ele>
        <time>2013-09-15T13:59:05.000Z</time>
      </trkpt>
      <trkpt lat="45.05972" lon="5.64873">
        <ele>619</ele>
        <time>2013-09-15T13:59:08.000Z</time>
      </trkpt>
      <trkpt lat="45.05972" lon="5.64873">
        <ele>619</ele>
        <time>2013-09-15T13:59:08.000Z</time>
      </trkpt>
      <trkpt lat="45.05972" lon="5.64873">
        <ele>619</ele>
        <time>2013-09-15T13:59:09.000Z</time>
      </trkpt>
      <trkpt lat="45.05977" lon="5.64888">
        <ele>619</ele>
        <time>2013-09-15T13:59:21.000Z</time>
      </trkpt>
      <trkpt lat="45.05977" lon="5.64888">
        <ele>619</ele>
        <time>2013-09-15T13:59:21.000Z</time>
      </trkpt>
      <trkpt lat="45.05977" lon="5.64888">
        <ele>619</ele>
        <time>2013-09-15T13:59:28.000Z</time>
      </trkpt>
      <trkpt lat="45.05982" lon="5.64892">
        <ele>619</ele>
        <time>2013-09-15T13:59:29.000Z</time>
      </trkpt>
      <trkpt lat="45.05982" lon="5.64892">
        <ele>619</ele>
        <time>2013-09-15T13:59:29.000Z</time>
      </trkpt>
      <trkpt lat="45.05982" lon="5.64892">
        <ele>619</ele>
        <time>2013-09-15T13:59:31.000Z</time>
      </trkpt>
      <trkpt lat="45.05989" lon="5.64899">
        <ele>619</ele>
        <time>2013-09-15T13:59:32.000Z</time>
      </trkpt>
      <trkpt lat="45.05993" lon="5.64905">
        <ele>619</ele>
        <time>2013-09-15T13:59:34.000Z</time>
      </trkpt>
      <trkpt lat="45.05997" lon="5.64914">
        <ele>618</ele>
        <time>2013-09-15T13:59:36.000Z</time>
      </trkpt>
      <trkpt lat="45.05998" lon="5.6492">
        <ele>618</ele>
        <time>2013-09-15T13:59:37.000Z</time>
      </trkpt>
      <trkpt lat="45.06002" lon="5.64927">
        <ele>618</ele>
        <time>2013-09-15T13:59:38.000Z</time>
      </trkpt>
      <trkpt lat="45.06004" lon="5.64933">
        <ele>618</ele>
        <time>2013-09-15T13:59:39.000Z</time>
      </trkpt>
      <trkpt lat="45.06009" lon="5.64944">
        <ele>618</ele>
        <time>2013-09-15T13:59:41.000Z</time>
      </trkpt>
      <trkpt lat="45.06016" lon="5.64953">
        <ele>618</ele>
        <time>2013-09-15T13:59:43.000Z</time>
      </trkpt>
      <trkpt lat="45.06019" lon="5.64959">
        <ele>618</ele>
        <time>2013-09-15T13:59:44.000Z</time>
      </trkpt>
      <trkpt lat="45.06024" lon="5.64968">
        <ele>618</ele>
        <time>2013-09-15T13:59:46.000Z</time>
      </trkpt>
      <trkpt lat="45.0603" lon="5.64974">
        <ele>618</ele>
        <time>2013-09-15T13:59:48.000Z</time>
      </trkpt>
      <trkpt lat="45.06035" lon="5.64978">
        <ele>618</ele>
        <time>2013-09-15T13:59:50.000Z</time>
      </trkpt>
      <trkpt lat="45.06035" lon="5.64978">
        <ele>618</ele>
        <time>2013-09-15T13:59:50.000Z</time>
      </trkpt>
      <trkpt lat="45.06035" lon="5.64978">
        <ele>618</ele>
        <time>2013-09-15T13:59:52.000Z</time>
      </trkpt>
      <trkpt lat="45.06041" lon="5.64976">
        <ele>618</ele>
        <time>2013-09-15T13:59:53.000Z</time>
      </trkpt>
      <trkpt lat="45.06042" lon="5.64968">
        <ele>618</ele>
        <time>2013-09-15T13:59:55.000Z</time>
      </trkpt>
      <trkpt lat="45.06042" lon="5.64957">
        <ele>617</ele>
        <time>2013-09-15T13:59:57.000Z</time>
      </trkpt>
      <trkpt lat="45.06045" lon="5.6495">
        <ele>616</ele>
        <time>2013-09-15T13:59:58.000Z</time>
      </trkpt>
      <trkpt lat="45.06046" lon="5.64942">
        <ele>616</ele>
        <time>2013-09-15T14:00:00.000Z</time>
      </trkpt>
      <trkpt lat="45.06051" lon="5.64935">
        <ele>616</ele>
        <time>2013-09-15T14:00:04.000Z</time>
      </trkpt>
      <trkpt lat="45.06056" lon="5.64927">
        <ele>615</ele>
        <time>2013-09-15T14:00:07.000Z</time>
      </trkpt>
      <trkpt lat="45.06063" lon="5.64918">
        <ele>614</ele>
        <time>2013-09-15T14:00:12.000Z</time>
      </trkpt>
      <trkpt lat="45.06063" lon="5.64918">
        <ele>614</ele>
        <time>2013-09-15T14:00:12.000Z</time>
      </trkpt>
      <trkpt lat="45.06063" lon="5.64918">
        <ele>614</ele>
        <time>2013-09-15T14:00:13.000Z</time>
      </trkpt>
      <trkpt lat="45.06068" lon="5.64914">
        <ele>614</ele>
        <time>2013-09-15T14:00:14.000Z</time>
      </trkpt>
      <trkpt lat="45.06081" lon="5.64908">
        <ele>612</ele>
        <time>2013-09-15T14:00:28.000Z</time>
      </trkpt>
      <trkpt lat="45.06081" lon="5.64908">
        <ele>612</ele>
        <time>2013-09-15T14:00:28.000Z</time>
      </trkpt>
      <trkpt lat="45.06081" lon="5.64908">
        <ele>612</ele>
        <time>2013-09-15T14:00:30.000Z</time>
      </trkpt>
      <trkpt lat="45.06091" lon="5.6491">
        <ele>611</ele>
        <time>2013-09-15T14:00:31.000Z</time>
      </trkpt>
      <trkpt lat="45.06097" lon="5.64914">
        <ele>610</ele>
        <time>2013-09-15T14:00:33.000Z</time>
      </trkpt>
      <trkpt lat="45.06101" lon="5.64918">
        <ele>610</ele>
        <time>2013-09-15T14:00:35.000Z</time>
      </trkpt>
      <trkpt lat="45.06106" lon="5.64929">
        <ele>606</ele>
        <time>2013-09-15T14:00:37.000Z</time>
      </trkpt>
      <trkpt lat="45.06109" lon="5.64935">
        <ele>603</ele>
        <time>2013-09-15T14:00:38.000Z</time>
      </trkpt>
      <trkpt lat="45.06112" lon="5.64942">
        <ele>600</ele>
        <time>2013-09-15T14:00:39.000Z</time>
      </trkpt>
      <trkpt lat="45.06116" lon="5.64946">
        <ele>598</ele>
        <time>2013-09-15T14:00:40.000Z</time>
      </trkpt>
      <trkpt lat="45.06121" lon="5.6495">
        <ele>596</ele>
        <time>2013-09-15T14:00:41.000Z</time>
      </trkpt>
      <trkpt lat="45.06125" lon="5.64955">
        <ele>595</ele>
        <time>2013-09-15T14:00:42.000Z</time>
      </trkpt>
      <trkpt lat="45.06129" lon="5.64957">
        <ele>594</ele>
        <time>2013-09-15T14:00:43.000Z</time>
      </trkpt>
      <trkpt lat="45.06137" lon="5.64965">
        <ele>593</ele>
        <time>2013-09-15T14:00:45.000Z</time>
      </trkpt>
      <trkpt lat="45.06143" lon="5.6497">
        <ele>593</ele>
        <time>2013-09-15T14:00:47.000Z</time>
      </trkpt>
      <trkpt lat="45.0615" lon="5.64976">
        <ele>592</ele>
        <time>2013-09-15T14:00:49.000Z</time>
      </trkpt>
      <trkpt lat="45.06156" lon="5.6498">
        <ele>592</ele>
        <time>2013-09-15T14:00:51.000Z</time>
      </trkpt>
      <trkpt lat="45.0616" lon="5.64985">
        <ele>592</ele>
        <time>2013-09-15T14:00:52.000Z</time>
      </trkpt>
      <trkpt lat="45.06167" lon="5.64991">
        <ele>591</ele>
        <time>2013-09-15T14:00:54.000Z</time>
      </trkpt>
      <trkpt lat="45.0617" lon="5.65">
        <ele>591</ele>
        <time>2013-09-15T14:00:56.000Z</time>
      </trkpt>
      <trkpt lat="45.06171" lon="5.6501">
        <ele>588</ele>
        <time>2013-09-15T14:00:58.000Z</time>
      </trkpt>
      <trkpt lat="45.06172" lon="5.65017">
        <ele>586</ele>
        <time>2013-09-15T14:00:59.000Z</time>
      </trkpt>
      <trkpt lat="45.06172" lon="5.65023">
        <ele>584</ele>
        <time>2013-09-15T14:01:00.000Z</time>
      </trkpt>
      <trkpt lat="45.06176" lon="5.65028">
        <ele>582</ele>
        <time>2013-09-15T14:01:01.000Z</time>
      </trkpt>
      <trkpt lat="45.06183" lon="5.65036">
        <ele>579</ele>
        <time>2013-09-15T14:01:03.000Z</time>
      </trkpt>
      <trkpt lat="45.06187" lon="5.65043">
        <ele>579</ele>
        <time>2013-09-15T14:01:04.000Z</time>
      </trkpt>
      <trkpt lat="45.06192" lon="5.65049">
        <ele>579</ele>
        <time>2013-09-15T14:01:05.000Z</time>
      </trkpt>
      <trkpt lat="45.06197" lon="5.65053">
        <ele>579</ele>
        <time>2013-09-15T14:01:06.000Z</time>
      </trkpt>
      <trkpt lat="45.06202" lon="5.6506">
        <ele>580</ele>
        <time>2013-09-15T14:01:07.000Z</time>
      </trkpt>
      <trkpt lat="45.06208" lon="5.65066">
        <ele>581</ele>
        <time>2013-09-15T14:01:08.000Z</time>
      </trkpt>
      <trkpt lat="45.06213" lon="5.65071">
        <ele>582</ele>
        <time>2013-09-15T14:01:09.000Z</time>
      </trkpt>
      <trkpt lat="45.06218" lon="5.65073">
        <ele>582</ele>
        <time>2013-09-15T14:01:10.000Z</time>
      </trkpt>
      <trkpt lat="45.06224" lon="5.65077">
        <ele>582</ele>
        <time>2013-09-15T14:01:11.000Z</time>
      </trkpt>
      <trkpt lat="45.06229" lon="5.65081">
        <ele>582</ele>
        <time>2013-09-15T14:01:12.000Z</time>
      </trkpt>
      <trkpt lat="45.06233" lon="5.65086">
        <ele>582</ele>
        <time>2013-09-15T14:01:13.000Z</time>
      </trkpt>
      <trkpt lat="45.06239" lon="5.6509">
        <ele>581</ele>
        <time>2013-09-15T14:01:14.000Z</time>
      </trkpt>
      <trkpt lat="45.06243" lon="5.65096">
        <ele>580</ele>
        <time>2013-09-15T14:01:15.000Z</time>
      </trkpt>
      <trkpt lat="45.06247" lon="5.65101">
        <ele>579</ele>
        <time>2013-09-15T14:01:16.000Z</time>
      </trkpt>
      <trkpt lat="45.06252" lon="5.65105">
        <ele>578</ele>
        <time>2013-09-15T14:01:17.000Z</time>
      </trkpt>
      <trkpt lat="45.06256" lon="5.65116">
        <ele>577</ele>
        <time>2013-09-15T14:01:20.000Z</time>
      </trkpt>
      <trkpt lat="45.06259" lon="5.6512">
        <ele>577</ele>
        <time>2013-09-15T14:01:21.000Z</time>
      </trkpt>
      <trkpt lat="45.06263" lon="5.65124">
        <ele>573</ele>
        <time>2013-09-15T14:01:22.000Z</time>
      </trkpt>
      <trkpt lat="45.06269" lon="5.65126">
        <ele>570</ele>
        <time>2013-09-15T14:01:23.000Z</time>
      </trkpt>
      <trkpt lat="45.06273" lon="5.65131">
        <ele>568</ele>
        <time>2013-09-15T14:01:24.000Z</time>
      </trkpt>
      <trkpt lat="45.06277" lon="5.65133">
        <ele>565</ele>
        <time>2013-09-15T14:01:25.000Z</time>
      </trkpt>
      <trkpt lat="45.06282" lon="5.65137">
        <ele>565</ele>
        <time>2013-09-15T14:01:26.000Z</time>
      </trkpt>
      <trkpt lat="45.06284" lon="5.65144">
        <ele>562</ele>
        <time>2013-09-15T14:01:27.000Z</time>
      </trkpt>
      <trkpt lat="45.06288" lon="5.65154">
        <ele>558</ele>
        <time>2013-09-15T14:01:29.000Z</time>
      </trkpt>
      <trkpt lat="45.06291" lon="5.65161">
        <ele>557</ele>
        <time>2013-09-15T14:01:30.000Z</time>
      </trkpt>
      <trkpt lat="45.06296" lon="5.65167">
        <ele>556</ele>
        <time>2013-09-15T14:01:31.000Z</time>
      </trkpt>
      <trkpt lat="45.06299" lon="5.65174">
        <ele>555</ele>
        <time>2013-09-15T14:01:32.000Z</time>
      </trkpt>
      <trkpt lat="45.06303" lon="5.65178">
        <ele>554</ele>
        <time>2013-09-15T14:01:33.000Z</time>
      </trkpt>
      <trkpt lat="45.06307" lon="5.65182">
        <ele>553</ele>
        <time>2013-09-15T14:01:34.000Z</time>
      </trkpt>
      <trkpt lat="45.06317" lon="5.65182">
        <ele>552</ele>
        <time>2013-09-15T14:01:36.000Z</time>
      </trkpt>
      <trkpt lat="45.06324" lon="5.6518">
        <ele>551</ele>
        <time>2013-09-15T14:01:37.000Z</time>
      </trkpt>
      <trkpt lat="45.06329" lon="5.65176">
        <ele>550</ele>
        <time>2013-09-15T14:01:38.000Z</time>
      </trkpt>
      <trkpt lat="45.06334" lon="5.65174">
        <ele>550</ele>
        <time>2013-09-15T14:01:39.000Z</time>
      </trkpt>
      <trkpt lat="45.06338" lon="5.65171">
        <ele>549</ele>
        <time>2013-09-15T14:01:40.000Z</time>
      </trkpt>
      <trkpt lat="45.06343" lon="5.65167">
        <ele>548</ele>
        <time>2013-09-15T14:01:41.000Z</time>
      </trkpt>
      <trkpt lat="45.06347" lon="5.65165">
        <ele>548</ele>
        <time>2013-09-15T14:01:42.000Z</time>
      </trkpt>
      <trkpt lat="45.06351" lon="5.65161">
        <ele>545</ele>
        <time>2013-09-15T14:01:43.000Z</time>
      </trkpt>
      <trkpt lat="45.06356" lon="5.65156">
        <ele>540</ele>
        <time>2013-09-15T14:01:44.000Z</time>
      </trkpt>
      <trkpt lat="45.06361" lon="5.65152">
        <ele>537</ele>
        <time>2013-09-15T14:01:45.000Z</time>
      </trkpt>
      <trkpt lat="45.06364" lon="5.65146">
        <ele>534</ele>
        <time>2013-09-15T14:01:46.000Z</time>
      </trkpt>
      <trkpt lat="45.06366" lon="5.65137">
        <ele>532</ele>
        <time>2013-09-15T14:01:47.000Z</time>
      </trkpt>
      <trkpt lat="45.06368" lon="5.65128">
        <ele>530</ele>
        <time>2013-09-15T14:01:48.000Z</time>
      </trkpt>
      <trkpt lat="45.0637" lon="5.65118">
        <ele>528</ele>
        <time>2013-09-15T14:01:49.000Z</time>
      </trkpt>
      <trkpt lat="45.06373" lon="5.65109">
        <ele>527</ele>
        <time>2013-09-15T14:01:50.000Z</time>
      </trkpt>
      <trkpt lat="45.06376" lon="5.65101">
        <ele>524</ele>
        <time>2013-09-15T14:01:52.000Z</time>
      </trkpt>
      <trkpt lat="45.06376" lon="5.65101">
        <ele>524</ele>
        <time>2013-09-15T14:01:52.000Z</time>
      </trkpt>
      <trkpt lat="45.06376" lon="5.65101">
        <ele>524</ele>
        <time>2013-09-15T14:02:06.000Z</time>
      </trkpt>
      <trkpt lat="45.0638" lon="5.65092">
        <ele>522</ele>
        <time>2013-09-15T14:02:07.000Z</time>
      </trkpt>
      <trkpt lat="45.0638" lon="5.65092">
        <ele>522</ele>
        <time>2013-09-15T14:02:07.000Z</time>
      </trkpt>
      <trkpt lat="45.0638" lon="5.65092">
        <ele>522</ele>
        <time>2013-09-15T14:02:08.000Z</time>
      </trkpt>
      <trkpt lat="45.06386" lon="5.6509">
        <ele>520</ele>
        <time>2013-09-15T14:02:09.000Z</time>
      </trkpt>
      <trkpt lat="45.06386" lon="5.6509">
        <ele>520</ele>
        <time>2013-09-15T14:02:09.000Z</time>
      </trkpt>
      <trkpt lat="45.06386" lon="5.6509">
        <ele>520</ele>
        <time>2013-09-15T14:02:10.000Z</time>
      </trkpt>
      <trkpt lat="45.06394" lon="5.65086">
        <ele>518</ele>
        <time>2013-09-15T14:02:11.000Z</time>
      </trkpt>
      <trkpt lat="45.06394" lon="5.65086">
        <ele>518</ele>
        <time>2013-09-15T14:02:11.000Z</time>
      </trkpt>
      <trkpt lat="45.06394" lon="5.65086">
        <ele>518</ele>
        <time>2013-09-15T14:02:26.000Z</time>
      </trkpt>
      <trkpt lat="45.06402" lon="5.65088">
        <ele>512</ele>
        <time>2013-09-15T14:02:27.000Z</time>
      </trkpt>
      <trkpt lat="45.06402" lon="5.65088">
        <ele>512</ele>
        <time>2013-09-15T14:02:27.000Z</time>
      </trkpt>
      <trkpt lat="45.06402" lon="5.65088">
        <ele>512</ele>
        <time>2013-09-15T14:02:56.000Z</time>
      </trkpt>
      <trkpt lat="45.06413" lon="5.65094">
        <ele>506</ele>
        <time>2013-09-15T14:02:57.000Z</time>
      </trkpt>
      <trkpt lat="45.06417" lon="5.65096">
        <ele>505</ele>
        <time>2013-09-15T14:02:58.000Z</time>
      </trkpt>
      <trkpt lat="45.06421" lon="5.65098">
        <ele>505</ele>
        <time>2013-09-15T14:02:59.000Z</time>
      </trkpt>
      <trkpt lat="45.06425" lon="5.65103">
        <ele>504</ele>
        <time>2013-09-15T14:03:00.000Z</time>
      </trkpt>
      <trkpt lat="45.06433" lon="5.65107">
        <ele>502</ele>
        <time>2013-09-15T14:03:02.000Z</time>
      </trkpt>
      <trkpt lat="45.06439" lon="5.65111">
        <ele>501</ele>
        <time>2013-09-15T14:03:04.000Z</time>
      </trkpt>
      <trkpt lat="45.06434" lon="5.65122">
        <ele>485</ele>
        <time>2013-09-15T14:04:35.000Z</time>
      </trkpt>
      <trkpt lat="45.06434" lon="5.65122">
        <ele>485</ele>
        <time>2013-09-15T14:04:35.000Z</time>
      </trkpt>
      <trkpt lat="45.06434" lon="5.65122">
        <ele>485</ele>
        <time>2013-09-15T14:04:36.000Z</time>
      </trkpt>
      <trkpt lat="45.06432" lon="5.65128">
        <ele>484</ele>
        <time>2013-09-15T14:04:37.000Z</time>
      </trkpt>
      <trkpt lat="45.06425" lon="5.65139">
        <ele>479</ele>
        <time>2013-09-15T14:04:52.000Z</time>
      </trkpt>
      <trkpt lat="45.06428" lon="5.65146">
        <ele>478</ele>
        <time>2013-09-15T14:04:55.000Z</time>
      </trkpt>
      <trkpt lat="45.06429" lon="5.65152">
        <ele>478</ele>
        <time>2013-09-15T14:04:57.000Z</time>
      </trkpt>
      <trkpt lat="45.06431" lon="5.65161">
        <ele>477</ele>
        <time>2013-09-15T14:04:59.000Z</time>
      </trkpt>
      <trkpt lat="45.06432" lon="5.65167">
        <ele>476</ele>
        <time>2013-09-15T14:05:01.000Z</time>
      </trkpt>
      <trkpt lat="45.06432" lon="5.65176">
        <ele>476</ele>
        <time>2013-09-15T14:05:03.000Z</time>
      </trkpt>
      <trkpt lat="45.06432" lon="5.65184">
        <ele>475</ele>
        <time>2013-09-15T14:05:05.000Z</time>
      </trkpt>
      <trkpt lat="45.06431" lon="5.65191">
        <ele>474</ele>
        <time>2013-09-15T14:05:07.000Z</time>
      </trkpt>
      <trkpt lat="45.06429" lon="5.65199">
        <ele>474</ele>
        <time>2013-09-15T14:05:09.000Z</time>
      </trkpt>
      <trkpt lat="45.06425" lon="5.65206">
        <ele>473</ele>
        <time>2013-09-15T14:05:11.000Z</time>
      </trkpt>
      <trkpt lat="45.06422" lon="5.65214">
        <ele>473</ele>
        <time>2013-09-15T14:05:13.000Z</time>
      </trkpt>
      <trkpt lat="45.0642" lon="5.65223">
        <ele>472</ele>
        <time>2013-09-15T14:05:15.000Z</time>
      </trkpt>
      <trkpt lat="45.06418" lon="5.65229">
        <ele>471</ele>
        <time>2013-09-15T14:05:17.000Z</time>
      </trkpt>
      <trkpt lat="45.06416" lon="5.65236">
        <ele>470</ele>
        <time>2013-09-15T14:05:20.000Z</time>
      </trkpt>
      <trkpt lat="45.06416" lon="5.65242">
        <ele>470</ele>
        <time>2013-09-15T14:05:24.000Z</time>
      </trkpt>
      <trkpt lat="45.06416" lon="5.65249">
        <ele>469</ele>
        <time>2013-09-15T14:05:27.000Z</time>
      </trkpt>
      <trkpt lat="45.06417" lon="5.65255">
        <ele>469</ele>
        <time>2013-09-15T14:05:30.000Z</time>
      </trkpt>
      <trkpt lat="45.06418" lon="5.65262">
        <ele>468</ele>
        <time>2013-09-15T14:05:34.000Z</time>
      </trkpt>
      <trkpt lat="45.06419" lon="5.65268">
        <ele>467</ele>
        <time>2013-09-15T14:05:38.000Z</time>
      </trkpt>
      <trkpt lat="45.06419" lon="5.65268">
        <ele>467</ele>
        <time>2013-09-15T14:05:38.000Z</time>
      </trkpt>
      <trkpt lat="45.06419" lon="5.65268">
        <ele>467</ele>
        <time>2013-09-15T14:05:39.000Z</time>
      </trkpt>
      <trkpt lat="45.06419" lon="5.65274">
        <ele>467</ele>
        <time>2013-09-15T14:05:45.000Z</time>
      </trkpt>
      <trkpt lat="45.06419" lon="5.65274">
        <ele>467</ele>
        <time>2013-09-15T14:05:45.000Z</time>
      </trkpt>
      <trkpt lat="45.06419" lon="5.65274">
        <ele>466</ele>
        <time>2013-09-15T14:05:47.000Z</time>
      </trkpt>
      <trkpt lat="45.06418" lon="5.65281">
        <ele>466</ele>
        <time>2013-09-15T14:05:59.000Z</time>
      </trkpt>
      <trkpt lat="45.06415" lon="5.65287">
        <ele>463</ele>
        <time>2013-09-15T14:06:06.000Z</time>
      </trkpt>
      <trkpt lat="45.06412" lon="5.65294">
        <ele>461</ele>
        <time>2013-09-15T14:06:11.000Z</time>
      </trkpt>
      <trkpt lat="45.06412" lon="5.65294">
        <ele>461</ele>
        <time>2013-09-15T14:06:11.000Z</time>
      </trkpt>
      <trkpt lat="45.06412" lon="5.65294">
        <ele>460</ele>
        <time>2013-09-15T14:06:14.000Z</time>
      </trkpt>
      <trkpt lat="45.0641" lon="5.653">
        <ele>459</ele>
        <time>2013-09-15T14:06:19.000Z</time>
      </trkpt>
      <trkpt lat="45.06413" lon="5.65307">
        <ele>459</ele>
        <time>2013-09-15T14:06:21.000Z</time>
      </trkpt>
      <trkpt lat="45.06414" lon="5.65313">
        <ele>458</ele>
        <time>2013-09-15T14:06:23.000Z</time>
      </trkpt>
      <trkpt lat="45.06417" lon="5.6532">
        <ele>457</ele>
        <time>2013-09-15T14:06:29.000Z</time>
      </trkpt>
      <trkpt lat="45.06417" lon="5.6532">
        <ele>457</ele>
        <time>2013-09-15T14:06:29.000Z</time>
      </trkpt>
      <trkpt lat="45.06417" lon="5.6532">
        <ele>457</ele>
        <time>2013-09-15T14:06:30.000Z</time>
      </trkpt>
      <trkpt lat="45.06421" lon="5.65322">
        <ele>457</ele>
        <time>2013-09-15T14:06:35.000Z</time>
      </trkpt>
      <trkpt lat="45.06426" lon="5.6532">
        <ele>456</ele>
        <time>2013-09-15T14:06:42.000Z</time>
      </trkpt>
      <trkpt lat="45.06426" lon="5.6532">
        <ele>456</ele>
        <time>2013-09-15T14:06:42.000Z</time>
      </trkpt>
      <trkpt lat="45.06426" lon="5.6532">
        <ele>456</ele>
        <time>2013-09-15T14:06:43.000Z</time>
      </trkpt>
      <trkpt lat="45.06428" lon="5.65313">
        <ele>456</ele>
        <time>2013-09-15T14:06:47.000Z</time>
      </trkpt>
      <trkpt lat="45.06428" lon="5.65313">
        <ele>456</ele>
        <time>2013-09-15T14:06:47.000Z</time>
      </trkpt>
      <trkpt lat="45.06428" lon="5.65313">
        <ele>456</ele>
        <time>2013-09-15T14:06:48.000Z</time>
      </trkpt>
      <trkpt lat="45.06426" lon="5.65307">
        <ele>456</ele>
        <time>2013-09-15T14:06:52.000Z</time>
      </trkpt>
      <trkpt lat="45.06432" lon="5.65311">
        <ele>456</ele>
        <time>2013-09-15T14:07:03.000Z</time>
      </trkpt>
      <trkpt lat="45.06434" lon="5.65317">
        <ele>456</ele>
        <time>2013-09-15T14:07:05.000Z</time>
      </trkpt>
      <trkpt lat="45.06434" lon="5.65324">
        <ele>456</ele>
        <time>2013-09-15T14:07:07.000Z</time>
      </trkpt>
      <trkpt lat="45.06434" lon="5.6533">
        <ele>456</ele>
        <time>2013-09-15T14:07:10.000Z</time>
      </trkpt>
      <trkpt lat="45.06435" lon="5.65337">
        <ele>456</ele>
        <time>2013-09-15T14:07:12.000Z</time>
      </trkpt>
      <trkpt lat="45.06437" lon="5.65343">
        <ele>456</ele>
        <time>2013-09-15T14:07:14.000Z</time>
      </trkpt>
      <trkpt lat="45.06438" lon="5.65352">
        <ele>456</ele>
        <time>2013-09-15T14:07:16.000Z</time>
      </trkpt>
      <trkpt lat="45.06438" lon="5.65358">
        <ele>456</ele>
        <time>2013-09-15T14:07:18.000Z</time>
      </trkpt>
      <trkpt lat="45.06437" lon="5.65367">
        <ele>457</ele>
        <time>2013-09-15T14:07:20.000Z</time>
      </trkpt>
      <trkpt lat="45.06438" lon="5.65373">
        <ele>457</ele>
        <time>2013-09-15T14:07:21.000Z</time>
      </trkpt>
      <trkpt lat="45.0644" lon="5.65384">
        <ele>458</ele>
        <time>2013-09-15T14:07:23.000Z</time>
      </trkpt>
      <trkpt lat="45.06443" lon="5.65395">
        <ele>459</ele>
        <time>2013-09-15T14:07:25.000Z</time>
      </trkpt>
      <trkpt lat="45.06444" lon="5.65401">
        <ele>459</ele>
        <time>2013-09-15T14:07:26.000Z</time>
      </trkpt>
      <trkpt lat="45.06444" lon="5.65401">
        <ele>459</ele>
        <time>2013-09-15T14:07:26.000Z</time>
      </trkpt>
      <trkpt lat="45.06444" lon="5.65401">
        <ele>459</ele>
        <time>2013-09-15T14:07:33.000Z</time>
      </trkpt>
      <trkpt lat="45.06447" lon="5.65414">
        <ele>459</ele>
        <time>2013-09-15T14:07:34.000Z</time>
      </trkpt>
      <trkpt lat="45.06447" lon="5.65414">
        <ele>459</ele>
        <time>2013-09-15T14:07:34.000Z</time>
      </trkpt>
      <trkpt lat="45.06447" lon="5.65414">
        <ele>459</ele>
        <time>2013-09-15T14:07:36.000Z</time>
      </trkpt>
      <trkpt lat="45.0645" lon="5.65422">
        <ele>459</ele>
        <time>2013-09-15T14:07:37.000Z</time>
      </trkpt>
      <trkpt lat="45.06461" lon="5.65433">
        <ele>459</ele>
        <time>2013-09-15T14:07:43.000Z</time>
      </trkpt>
      <trkpt lat="45.06461" lon="5.65433">
        <ele>459</ele>
        <time>2013-09-15T14:07:43.000Z</time>
      </trkpt>
      <trkpt lat="45.06461" lon="5.65433">
        <ele>459</ele>
        <time>2013-09-15T14:07:45.000Z</time>
      </trkpt>
      <trkpt lat="45.06463" lon="5.65442">
        <ele>458</ele>
        <time>2013-09-15T14:07:46.000Z</time>
      </trkpt>
      <trkpt lat="45.06463" lon="5.65442">
        <ele>458</ele>
        <time>2013-09-15T14:07:46.000Z</time>
      </trkpt>
      <trkpt lat="45.06463" lon="5.65442">
        <ele>458</ele>
        <time>2013-09-15T14:08:50.000Z</time>
      </trkpt>
      <trkpt lat="45.06467" lon="5.6545">
        <ele>453</ele>
        <time>2013-09-15T14:08:51.000Z</time>
      </trkpt>
      <trkpt lat="45.06467" lon="5.6545">
        <ele>453</ele>
        <time>2013-09-15T14:08:51.000Z</time>
      </trkpt>
      <trkpt lat="45.06467" lon="5.6545">
        <ele>453</ele>
        <time>2013-09-15T14:08:52.000Z</time>
      </trkpt>
      <trkpt lat="45.06474" lon="5.65461">
        <ele>452</ele>
        <time>2013-09-15T14:08:53.000Z</time>
      </trkpt>
      <trkpt lat="45.06477" lon="5.65465">
        <ele>452</ele>
        <time>2013-09-15T14:08:54.000Z</time>
      </trkpt>
      <trkpt lat="45.06477" lon="5.65465">
        <ele>452</ele>
        <time>2013-09-15T14:08:54.000Z</time>
      </trkpt>
      <trkpt lat="45.06477" lon="5.65465">
        <ele>451</ele>
        <time>2013-09-15T14:08:55.000Z</time>
      </trkpt>
      <trkpt lat="45.06483" lon="5.65468">
        <ele>449</ele>
        <time>2013-09-15T14:09:00.000Z</time>
      </trkpt>
      <trkpt lat="45.06495" lon="5.65472">
        <ele>447</ele>
        <time>2013-09-15T14:09:06.000Z</time>
      </trkpt>
      <trkpt lat="45.06495" lon="5.65472">
        <ele>447</ele>
        <time>2013-09-15T14:09:06.000Z</time>
      </trkpt>
      <trkpt lat="45.06495" lon="5.65472">
        <ele>447</ele>
        <time>2013-09-15T14:09:08.000Z</time>
      </trkpt>
      <trkpt lat="45.06504" lon="5.65476">
        <ele>446</ele>
        <time>2013-09-15T14:09:09.000Z</time>
      </trkpt>
      <trkpt lat="45.06508" lon="5.65478">
        <ele>443</ele>
        <time>2013-09-15T14:09:10.000Z</time>
      </trkpt>
      <trkpt lat="45.06513" lon="5.6548">
        <ele>442</ele>
        <time>2013-09-15T14:09:11.000Z</time>
      </trkpt>
      <trkpt lat="45.06513" lon="5.6548">
        <ele>442</ele>
        <time>2013-09-15T14:09:11.000Z</time>
      </trkpt>
      <trkpt lat="45.06513" lon="5.6548">
        <ele>442</ele>
        <time>2013-09-15T14:09:13.000Z</time>
      </trkpt>
      <trkpt lat="45.06523" lon="5.65487">
        <ele>442</ele>
        <time>2013-09-15T14:09:14.000Z</time>
      </trkpt>
      <trkpt lat="45.06532" lon="5.65489">
        <ele>441</ele>
        <time>2013-09-15T14:09:19.000Z</time>
      </trkpt>
      <trkpt lat="45.06538" lon="5.65491">
        <ele>440</ele>
        <time>2013-09-15T14:09:21.000Z</time>
      </trkpt>
      <trkpt lat="45.06546" lon="5.65495">
        <ele>440</ele>
        <time>2013-09-15T14:09:23.000Z</time>
      </trkpt>
      <trkpt lat="45.06551" lon="5.65498">
        <ele>438</ele>
        <time>2013-09-15T14:09:24.000Z</time>
      </trkpt>
      <trkpt lat="45.06558" lon="5.65498">
        <ele>438</ele>
        <time>2013-09-15T14:09:26.000Z</time>
      </trkpt>
      <trkpt lat="45.06566" lon="5.65495">
        <ele>438</ele>
        <time>2013-09-15T14:09:28.000Z</time>
      </trkpt>
      <trkpt lat="45.06569" lon="5.655">
        <ele>438</ele>
        <time>2013-09-15T14:09:29.000Z</time>
      </trkpt>
      <trkpt lat="45.06577" lon="5.65504">
        <ele>438</ele>
        <time>2013-09-15T14:09:31.000Z</time>
      </trkpt>
      <trkpt lat="45.06582" lon="5.6551">
        <ele>438</ele>
        <time>2013-09-15T14:09:33.000Z</time>
      </trkpt>
      <trkpt lat="45.06588" lon="5.65519">
        <ele>438</ele>
        <time>2013-09-15T14:09:35.000Z</time>
      </trkpt>
      <trkpt lat="45.06594" lon="5.65526">
        <ele>438</ele>
        <time>2013-09-15T14:09:37.000Z</time>
      </trkpt>
      <trkpt lat="45.066" lon="5.65532">
        <ele>437</ele>
        <time>2013-09-15T14:09:39.000Z</time>
      </trkpt>
      <trkpt lat="45.06604" lon="5.65536">
        <ele>437</ele>
        <time>2013-09-15T14:09:40.000Z</time>
      </trkpt>
      <trkpt lat="45.06607" lon="5.65543">
        <ele>436</ele>
        <time>2013-09-15T14:09:41.000Z</time>
      </trkpt>
      <trkpt lat="45.06613" lon="5.65551">
        <ele>434</ele>
        <time>2013-09-15T14:09:43.000Z</time>
      </trkpt>
      <trkpt lat="45.06616" lon="5.65556">
        <ele>434</ele>
        <time>2013-09-15T14:09:44.000Z</time>
      </trkpt>
      <trkpt lat="45.0662" lon="5.6556">
        <ele>433</ele>
        <time>2013-09-15T14:09:45.000Z</time>
      </trkpt>
      <trkpt lat="45.06623" lon="5.65564">
        <ele>433</ele>
        <time>2013-09-15T14:09:46.000Z</time>
      </trkpt>
      <trkpt lat="45.06627" lon="5.6557">
        <ele>433</ele>
        <time>2013-09-15T14:09:48.000Z</time>
      </trkpt>
      <trkpt lat="45.06638" lon="5.65583">
        <ele>432</ele>
        <time>2013-09-15T14:09:53.000Z</time>
      </trkpt>
      <trkpt lat="45.06643" lon="5.6559">
        <ele>432</ele>
        <time>2013-09-15T14:09:55.000Z</time>
      </trkpt>
      <trkpt lat="45.06649" lon="5.65598">
        <ele>432</ele>
        <time>2013-09-15T14:09:57.000Z</time>
      </trkpt>
      <trkpt lat="45.06653" lon="5.65605">
        <ele>432</ele>
        <time>2013-09-15T14:09:59.000Z</time>
      </trkpt>
      <trkpt lat="45.06656" lon="5.65611">
        <ele>432</ele>
        <time>2013-09-15T14:10:00.000Z</time>
      </trkpt>
      <trkpt lat="45.06662" lon="5.6562">
        <ele>431</ele>
        <time>2013-09-15T14:10:02.000Z</time>
      </trkpt>
      <trkpt lat="45.06672" lon="5.65628">
        <ele>431</ele>
        <time>2013-09-15T14:10:06.000Z</time>
      </trkpt>
      <trkpt lat="45.06676" lon="5.65633">
        <ele>429</ele>
        <time>2013-09-15T14:10:07.000Z</time>
      </trkpt>
      <trkpt lat="45.06681" lon="5.65637">
        <ele>428</ele>
        <time>2013-09-15T14:10:08.000Z</time>
      </trkpt>
      <trkpt lat="45.06685" lon="5.65641">
        <ele>428</ele>
        <time>2013-09-15T14:10:09.000Z</time>
      </trkpt>
      <trkpt lat="45.06685" lon="5.65641">
        <ele>428</ele>
        <time>2013-09-15T14:10:09.000Z</time>
      </trkpt>
      <trkpt lat="45.06685" lon="5.65641">
        <ele>428</ele>
        <time>2013-09-15T14:10:12.000Z</time>
      </trkpt>
      <trkpt lat="45.06694" lon="5.6565">
        <ele>427</ele>
        <time>2013-09-15T14:10:13.000Z</time>
      </trkpt>
      <trkpt lat="45.06694" lon="5.6565">
        <ele>427</ele>
        <time>2013-09-15T14:10:13.000Z</time>
      </trkpt>
      <trkpt lat="45.06694" lon="5.6565">
        <ele>427</ele>
        <time>2013-09-15T14:10:17.000Z</time>
      </trkpt>
      <trkpt lat="45.06701" lon="5.65663">
        <ele>427</ele>
        <time>2013-09-15T14:10:18.000Z</time>
      </trkpt>
      <trkpt lat="45.06701" lon="5.65663">
        <ele>427</ele>
        <time>2013-09-15T14:10:18.000Z</time>
      </trkpt>
      <trkpt lat="45.06701" lon="5.65663">
        <ele>427</ele>
        <time>2013-09-15T14:10:29.000Z</time>
      </trkpt>
      <trkpt lat="45.06702" lon="5.65674">
        <ele>426</ele>
        <time>2013-09-15T14:10:30.000Z</time>
      </trkpt>
      <trkpt lat="45.06702" lon="5.65674">
        <ele>426</ele>
        <time>2013-09-15T14:10:30.000Z</time>
      </trkpt>
      <trkpt lat="45.06702" lon="5.65674">
        <ele>426</ele>
        <time>2013-09-15T14:10:40.000Z</time>
      </trkpt>
      <trkpt lat="45.06706" lon="5.6568">
        <ele>425</ele>
        <time>2013-09-15T14:10:41.000Z</time>
      </trkpt>
      <trkpt lat="45.06711" lon="5.65686">
        <ele>425</ele>
        <time>2013-09-15T14:10:42.000Z</time>
      </trkpt>
      <trkpt lat="45.06715" lon="5.65693">
        <ele>424</ele>
        <time>2013-09-15T14:10:43.000Z</time>
      </trkpt>
      <trkpt lat="45.06719" lon="5.65697">
        <ele>424</ele>
        <time>2013-09-15T14:10:44.000Z</time>
      </trkpt>
      <trkpt lat="45.06729" lon="5.65706">
        <ele>423</ele>
        <time>2013-09-15T14:10:47.000Z</time>
      </trkpt>
      <trkpt lat="45.06729" lon="5.65706">
        <ele>423</ele>
        <time>2013-09-15T14:10:47.000Z</time>
      </trkpt>
      <trkpt lat="45.06729" lon="5.65706">
        <ele>423</ele>
        <time>2013-09-15T14:10:48.000Z</time>
      </trkpt>
      <trkpt lat="45.06734" lon="5.65712">
        <ele>422</ele>
        <time>2013-09-15T14:10:49.000Z</time>
      </trkpt>
      <trkpt lat="45.06734" lon="5.65712">
        <ele>422</ele>
        <time>2013-09-15T14:10:49.000Z</time>
      </trkpt>
      <trkpt lat="45.06734" lon="5.65712">
        <ele>422</ele>
        <time>2013-09-15T14:10:50.000Z</time>
      </trkpt>
      <trkpt lat="45.0674" lon="5.65719">
        <ele>422</ele>
        <time>2013-09-15T14:10:51.000Z</time>
      </trkpt>
      <trkpt lat="45.06746" lon="5.65723">
        <ele>421</ele>
        <time>2013-09-15T14:10:53.000Z</time>
      </trkpt>
      <trkpt lat="45.06752" lon="5.65727">
        <ele>421</ele>
        <time>2013-09-15T14:10:55.000Z</time>
      </trkpt>
      <trkpt lat="45.06759" lon="5.65734">
        <ele>416</ele>
        <time>2013-09-15T14:10:57.000Z</time>
      </trkpt>
      <trkpt lat="45.06763" lon="5.65736">
        <ele>415</ele>
        <time>2013-09-15T14:10:58.000Z</time>
      </trkpt>
      <trkpt lat="45.06771" lon="5.65742">
        <ele>413</ele>
        <time>2013-09-15T14:11:00.000Z</time>
      </trkpt>
      <trkpt lat="45.06774" lon="5.65746">
        <ele>413</ele>
        <time>2013-09-15T14:11:01.000Z</time>
      </trkpt>
      <trkpt lat="45.06777" lon="5.65753">
        <ele>413</ele>
        <time>2013-09-15T14:11:02.000Z</time>
      </trkpt>
      <trkpt lat="45.06782" lon="5.65759">
        <ele>412</ele>
        <time>2013-09-15T14:11:03.000Z</time>
      </trkpt>
      <trkpt lat="45.06785" lon="5.65768">
        <ele>412</ele>
        <time>2013-09-15T14:11:04.000Z</time>
      </trkpt>
      <trkpt lat="45.06788" lon="5.65776">
        <ele>411</ele>
        <time>2013-09-15T14:11:05.000Z</time>
      </trkpt>
      <trkpt lat="45.06791" lon="5.65785">
        <ele>411</ele>
        <time>2013-09-15T14:11:06.000Z</time>
      </trkpt>
      <trkpt lat="45.06796" lon="5.65792">
        <ele>410</ele>
        <time>2013-09-15T14:11:07.000Z</time>
      </trkpt>
      <trkpt lat="45.06799" lon="5.658">
        <ele>410</ele>
        <time>2013-09-15T14:11:08.000Z</time>
      </trkpt>
      <trkpt lat="45.06803" lon="5.65807">
        <ele>410</ele>
        <time>2013-09-15T14:11:09.000Z</time>
      </trkpt>
      <trkpt lat="45.06806" lon="5.65813">
        <ele>410</ele>
        <time>2013-09-15T14:11:10.000Z</time>
      </trkpt>
      <trkpt lat="45.06811" lon="5.65817">
        <ele>410</ele>
        <time>2013-09-15T14:11:11.000Z</time>
      </trkpt>
      <trkpt lat="45.06815" lon="5.6582">
        <ele>411</ele>
        <time>2013-09-15T14:11:12.000Z</time>
      </trkpt>
      <trkpt lat="45.06819" lon="5.65824">
        <ele>412</ele>
        <time>2013-09-15T14:11:13.000Z</time>
      </trkpt>
      <trkpt lat="45.06822" lon="5.65828">
        <ele>413</ele>
        <time>2013-09-15T14:11:14.000Z</time>
      </trkpt>
      <trkpt lat="45.06827" lon="5.65832">
        <ele>414</ele>
        <time>2013-09-15T14:11:15.000Z</time>
      </trkpt>
      <trkpt lat="45.0683" lon="5.65837">
        <ele>415</ele>
        <time>2013-09-15T14:11:16.000Z</time>
      </trkpt>
      <trkpt lat="45.06833" lon="5.65841">
        <ele>416</ele>
        <time>2013-09-15T14:11:17.000Z</time>
      </trkpt>
      <trkpt lat="45.06836" lon="5.65845">
        <ele>416</ele>
        <time>2013-09-15T14:11:18.000Z</time>
      </trkpt>
      <trkpt lat="45.06844" lon="5.65854">
        <ele>418</ele>
        <time>2013-09-15T14:11:20.000Z</time>
      </trkpt>
      <trkpt lat="45.0685" lon="5.65862">
        <ele>419</ele>
        <time>2013-09-15T14:11:22.000Z</time>
      </trkpt>
      <trkpt lat="45.06856" lon="5.65871">
        <ele>418</ele>
        <time>2013-09-15T14:11:24.000Z</time>
      </trkpt>
      <trkpt lat="45.06861" lon="5.6588">
        <ele>418</ele>
        <time>2013-09-15T14:11:26.000Z</time>
      </trkpt>
      <trkpt lat="45.06864" lon="5.65884">
        <ele>418</ele>
        <time>2013-09-15T14:11:27.000Z</time>
      </trkpt>
      <trkpt lat="45.06871" lon="5.65892">
        <ele>418</ele>
        <time>2013-09-15T14:11:29.000Z</time>
      </trkpt>
      <trkpt lat="45.06878" lon="5.65903">
        <ele>418</ele>
        <time>2013-09-15T14:11:31.000Z</time>
      </trkpt>
      <trkpt lat="45.06882" lon="5.65905">
        <ele>418</ele>
        <time>2013-09-15T14:11:32.000Z</time>
      </trkpt>
      <trkpt lat="45.06892" lon="5.65918">
        <ele>417</ele>
        <time>2013-09-15T14:11:36.000Z</time>
      </trkpt>
      <trkpt lat="45.06892" lon="5.65918">
        <ele>417</ele>
        <time>2013-09-15T14:11:36.000Z</time>
      </trkpt>
      <trkpt lat="45.06892" lon="5.65918">
        <ele>417</ele>
        <time>2013-09-15T14:11:39.000Z</time>
      </trkpt>
      <trkpt lat="45.06903" lon="5.65927">
        <ele>416</ele>
        <time>2013-09-15T14:11:40.000Z</time>
      </trkpt>
      <trkpt lat="45.06903" lon="5.65927">
        <ele>416</ele>
        <time>2013-09-15T14:11:40.000Z</time>
      </trkpt>
      <trkpt lat="45.06903" lon="5.65927">
        <ele>416</ele>
        <time>2013-09-15T14:11:41.000Z</time>
      </trkpt>
      <trkpt lat="45.06908" lon="5.65931">
        <ele>416</ele>
        <time>2013-09-15T14:11:42.000Z</time>
      </trkpt>
      <trkpt lat="45.06915" lon="5.65935">
        <ele>415</ele>
        <time>2013-09-15T14:11:44.000Z</time>
      </trkpt>
      <trkpt lat="45.06921" lon="5.65942">
        <ele>415</ele>
        <time>2013-09-15T14:11:46.000Z</time>
      </trkpt>
      <trkpt lat="45.06926" lon="5.65946">
        <ele>411</ele>
        <time>2013-09-15T14:11:47.000Z</time>
      </trkpt>
      <trkpt lat="45.06931" lon="5.65948">
        <ele>407</ele>
        <time>2013-09-15T14:11:48.000Z</time>
      </trkpt>
      <trkpt lat="45.06936" lon="5.65948">
        <ele>403</ele>
        <time>2013-09-15T14:11:49.000Z</time>
      </trkpt>
      <trkpt lat="45.0694" lon="5.65952">
        <ele>403</ele>
        <time>2013-09-15T14:11:50.000Z</time>
      </trkpt>
      <trkpt lat="45.06945" lon="5.65955">
        <ele>403</ele>
        <time>2013-09-15T14:11:51.000Z</time>
      </trkpt>
      <trkpt lat="45.06948" lon="5.65959">
        <ele>402</ele>
        <time>2013-09-15T14:11:52.000Z</time>
      </trkpt>
      <trkpt lat="45.06952" lon="5.65961">
        <ele>402</ele>
        <time>2013-09-15T14:11:53.000Z</time>
      </trkpt>
      <trkpt lat="45.06956" lon="5.65965">
        <ele>401</ele>
        <time>2013-09-15T14:11:54.000Z</time>
      </trkpt>
      <trkpt lat="45.06962" lon="5.6597">
        <ele>401</ele>
        <time>2013-09-15T14:11:56.000Z</time>
      </trkpt>
      <trkpt lat="45.06967" lon="5.65974">
        <ele>400</ele>
        <time>2013-09-15T14:11:58.000Z</time>
      </trkpt>
      <trkpt lat="45.06973" lon="5.65978">
        <ele>399</ele>
        <time>2013-09-15T14:12:00.000Z</time>
      </trkpt>
      <trkpt lat="45.06979" lon="5.65985">
        <ele>398</ele>
        <time>2013-09-15T14:12:02.000Z</time>
      </trkpt>
      <trkpt lat="45.06983" lon="5.65991">
        <ele>398</ele>
        <time>2013-09-15T14:12:04.000Z</time>
      </trkpt>
      <trkpt lat="45.06988" lon="5.65998">
        <ele>397</ele>
        <time>2013-09-15T14:12:06.000Z</time>
      </trkpt>
      <trkpt lat="45.06995" lon="5.66006">
        <ele>393</ele>
        <time>2013-09-15T14:12:08.000Z</time>
      </trkpt>
      <trkpt lat="45.06999" lon="5.6601">
        <ele>391</ele>
        <time>2013-09-15T14:12:09.000Z</time>
      </trkpt>
      <trkpt lat="45.07004" lon="5.66015">
        <ele>389</ele>
        <time>2013-09-15T14:12:10.000Z</time>
      </trkpt>
      <trkpt lat="45.07009" lon="5.66017">
        <ele>388</ele>
        <time>2013-09-15T14:12:11.000Z</time>
      </trkpt>
      <trkpt lat="45.07014" lon="5.66021">
        <ele>386</ele>
        <time>2013-09-15T14:12:12.000Z</time>
      </trkpt>
      <trkpt lat="45.0702" lon="5.66023">
        <ele>385</ele>
        <time>2013-09-15T14:12:13.000Z</time>
      </trkpt>
      <trkpt lat="45.07024" lon="5.66028">
        <ele>384</ele>
        <time>2013-09-15T14:12:14.000Z</time>
      </trkpt>
      <trkpt lat="45.0703" lon="5.66032">
        <ele>383</ele>
        <time>2013-09-15T14:12:16.000Z</time>
      </trkpt>
      <trkpt lat="45.0704" lon="5.6604">
        <ele>383</ele>
        <time>2013-09-15T14:12:20.000Z</time>
      </trkpt>
      <trkpt lat="45.07046" lon="5.66045">
        <ele>383</ele>
        <time>2013-09-15T14:12:22.000Z</time>
      </trkpt>
      <trkpt lat="45.0705" lon="5.66053">
        <ele>383</ele>
        <time>2013-09-15T14:12:24.000Z</time>
      </trkpt>
      <trkpt lat="45.07054" lon="5.66062">
        <ele>384</ele>
        <time>2013-09-15T14:12:26.000Z</time>
      </trkpt>
      <trkpt lat="45.0706" lon="5.6607">
        <ele>384</ele>
        <time>2013-09-15T14:12:28.000Z</time>
      </trkpt>
      <trkpt lat="45.07064" lon="5.66077">
        <ele>384</ele>
        <time>2013-09-15T14:12:30.000Z</time>
      </trkpt>
      <trkpt lat="45.07069" lon="5.66083">
        <ele>384</ele>
        <time>2013-09-15T14:12:32.000Z</time>
      </trkpt>
      <trkpt lat="45.07077" lon="5.66092">
        <ele>384</ele>
        <time>2013-09-15T14:12:34.000Z</time>
      </trkpt>
      <trkpt lat="45.07084" lon="5.661">
        <ele>384</ele>
        <time>2013-09-15T14:12:36.000Z</time>
      </trkpt>
      <trkpt lat="45.07088" lon="5.66105">
        <ele>382</ele>
        <time>2013-09-15T14:12:37.000Z</time>
      </trkpt>
      <trkpt lat="45.07093" lon="5.66109">
        <ele>381</ele>
        <time>2013-09-15T14:12:38.000Z</time>
      </trkpt>
      <trkpt lat="45.07098" lon="5.66111">
        <ele>381</ele>
        <time>2013-09-15T14:12:39.000Z</time>
      </trkpt>
      <trkpt lat="45.07102" lon="5.66113">
        <ele>380</ele>
        <time>2013-09-15T14:12:40.000Z</time>
      </trkpt>
      <trkpt lat="45.07107" lon="5.66118">
        <ele>380</ele>
        <time>2013-09-15T14:12:41.000Z</time>
      </trkpt>
      <trkpt lat="45.07113" lon="5.66124">
        <ele>380</ele>
        <time>2013-09-15T14:12:43.000Z</time>
      </trkpt>
      <trkpt lat="45.0712" lon="5.66131">
        <ele>380</ele>
        <time>2013-09-15T14:12:45.000Z</time>
      </trkpt>
      <trkpt lat="45.07125" lon="5.66135">
        <ele>380</ele>
        <time>2013-09-15T14:12:47.000Z</time>
      </trkpt>
      <trkpt lat="45.0713" lon="5.66141">
        <ele>379</ele>
        <time>2013-09-15T14:12:49.000Z</time>
      </trkpt>
      <trkpt lat="45.07134" lon="5.66146">
        <ele>379</ele>
        <time>2013-09-15T14:12:50.000Z</time>
      </trkpt>
      <trkpt lat="45.0714" lon="5.66152">
        <ele>378</ele>
        <time>2013-09-15T14:12:52.000Z</time>
      </trkpt>
      <trkpt lat="45.07144" lon="5.66154">
        <ele>378</ele>
        <time>2013-09-15T14:12:53.000Z</time>
      </trkpt>
      <trkpt lat="45.07152" lon="5.66161">
        <ele>377</ele>
        <time>2013-09-15T14:12:55.000Z</time>
      </trkpt>
      <trkpt lat="45.07156" lon="5.66165">
        <ele>376</ele>
        <time>2013-09-15T14:12:56.000Z</time>
      </trkpt>
      <trkpt lat="45.0716" lon="5.66169">
        <ele>376</ele>
        <time>2013-09-15T14:12:57.000Z</time>
      </trkpt>
      <trkpt lat="45.07165" lon="5.66174">
        <ele>376</ele>
        <time>2013-09-15T14:12:58.000Z</time>
      </trkpt>
      <trkpt lat="45.0717" lon="5.66178">
        <ele>375</ele>
        <time>2013-09-15T14:12:59.000Z</time>
      </trkpt>
      <trkpt lat="45.07175" lon="5.66182">
        <ele>375</ele>
        <time>2013-09-15T14:13:00.000Z</time>
      </trkpt>
      <trkpt lat="45.07181" lon="5.66184">
        <ele>374</ele>
        <time>2013-09-15T14:13:01.000Z</time>
      </trkpt>
      <trkpt lat="45.07186" lon="5.66182">
        <ele>374</ele>
        <time>2013-09-15T14:13:02.000Z</time>
      </trkpt>
      <trkpt lat="45.0719" lon="5.6618">
        <ele>374</ele>
        <time>2013-09-15T14:13:03.000Z</time>
      </trkpt>
      <trkpt lat="45.07195" lon="5.66176">
        <ele>374</ele>
        <time>2013-09-15T14:13:04.000Z</time>
      </trkpt>
      <trkpt lat="45.07201" lon="5.66167">
        <ele>374</ele>
        <time>2013-09-15T14:13:06.000Z</time>
      </trkpt>
      <trkpt lat="45.07206" lon="5.66161">
        <ele>374</ele>
        <time>2013-09-15T14:13:08.000Z</time>
      </trkpt>
      <trkpt lat="45.07212" lon="5.66154">
        <ele>374</ele>
        <time>2013-09-15T14:13:10.000Z</time>
      </trkpt>
      <trkpt lat="45.07216" lon="5.6615">
        <ele>374</ele>
        <time>2013-09-15T14:13:12.000Z</time>
      </trkpt>
      <trkpt lat="45.07216" lon="5.6615">
        <ele>374</ele>
        <time>2013-09-15T14:13:12.000Z</time>
      </trkpt>
      <trkpt lat="45.07216" lon="5.6615">
        <ele>374</ele>
        <time>2013-09-15T14:13:16.000Z</time>
      </trkpt>
      <trkpt lat="45.07223" lon="5.66139">
        <ele>374</ele>
        <time>2013-09-15T14:13:17.000Z</time>
      </trkpt>
      <trkpt lat="45.07223" lon="5.66139">
        <ele>374</ele>
        <time>2013-09-15T14:13:17.000Z</time>
      </trkpt>
      <trkpt lat="45.07223" lon="5.66139">
        <ele>374</ele>
        <time>2013-09-15T14:13:21.000Z</time>
      </trkpt>
      <trkpt lat="45.0723" lon="5.66135">
        <ele>373</ele>
        <time>2013-09-15T14:13:22.000Z</time>
      </trkpt>
      <trkpt lat="45.07236" lon="5.66135">
        <ele>373</ele>
        <time>2013-09-15T14:13:25.000Z</time>
      </trkpt>
      <trkpt lat="45.07236" lon="5.66135">
        <ele>373</ele>
        <time>2013-09-15T14:13:25.000Z</time>
      </trkpt>
      <trkpt lat="45.07236" lon="5.66135">
        <ele>373</ele>
        <time>2013-09-15T14:16:03.000Z</time>
      </trkpt>
      <trkpt lat="45.0724" lon="5.66133">
        <ele>375</ele>
        <time>2013-09-15T14:16:05.000Z</time>
      </trkpt>
      <trkpt lat="45.07244" lon="5.66126">
        <ele>376</ele>
        <time>2013-09-15T14:16:09.000Z</time>
      </trkpt>
      <trkpt lat="45.07249" lon="5.66124">
        <ele>376</ele>
        <time>2013-09-15T14:16:12.000Z</time>
      </trkpt>
      <trkpt lat="45.07256" lon="5.66124">
        <ele>376</ele>
        <time>2013-09-15T14:16:15.000Z</time>
      </trkpt>
      <trkpt lat="45.0726" lon="5.66126">
        <ele>376</ele>
        <time>2013-09-15T14:16:18.000Z</time>
      </trkpt>
      <trkpt lat="45.07266" lon="5.66128">
        <ele>376</ele>
        <time>2013-09-15T14:16:23.000Z</time>
      </trkpt>
      <trkpt lat="45.07264" lon="5.66122">
        <ele>377</ele>
        <time>2013-09-15T14:17:12.000Z</time>
      </trkpt>
      <trkpt lat="45.07259" lon="5.66124">
        <ele>377</ele>
        <time>2013-09-15T14:17:20.000Z</time>
      </trkpt>
      <trkpt lat="45.07259" lon="5.66124">
        <ele>377</ele>
        <time>2013-09-15T14:17:20.000Z</time>
      </trkpt>
      <trkpt lat="45.07259" lon="5.66124">
        <ele>377</ele>
        <time>2013-09-15T14:17:22.000Z</time>
      </trkpt>
      <trkpt lat="45.07258" lon="5.66118">
        <ele>377</ele>
        <time>2013-09-15T14:18:18.000Z</time>
      </trkpt>
      <trkpt lat="45.07258" lon="5.66118">
        <ele>377</ele>
        <time>2013-09-15T14:18:18.000Z</time>
      </trkpt>
      <trkpt lat="45.07258" lon="5.66118">
        <ele>377</ele>
        <time>2013-09-15T14:18:21.000Z</time>
      </trkpt>
      <trkpt lat="45.07256" lon="5.66111">
        <ele>377</ele>
        <time>2013-09-15T14:18:45.000Z</time>
      </trkpt>
      <trkpt lat="45.0725" lon="5.66109">
        <ele>376</ele>
        <time>2013-09-15T14:18:57.000Z</time>
      </trkpt>
      <trkpt lat="45.07244" lon="5.66109">
        <ele>376</ele>
        <time>2013-09-15T14:19:00.000Z</time>
      </trkpt>
      <trkpt lat="45.0724" lon="5.66111">
        <ele>376</ele>
        <time>2013-09-15T14:19:02.000Z</time>
      </trkpt>
      <trkpt lat="45.07234" lon="5.66116">
        <ele>376</ele>
        <time>2013-09-15T14:19:04.000Z</time>
      </trkpt>
      <trkpt lat="45.07229" lon="5.66124">
        <ele>376</ele>
        <time>2013-09-15T14:19:06.000Z</time>
      </trkpt>
      <trkpt lat="45.07225" lon="5.66133">
        <ele>376</ele>
        <time>2013-09-15T14:19:08.000Z</time>
      </trkpt>
      <trkpt lat="45.07219" lon="5.66141">
        <ele>376</ele>
        <time>2013-09-15T14:19:10.000Z</time>
      </trkpt>
      <trkpt lat="45.07215" lon="5.6615">
        <ele>376</ele>
        <time>2013-09-15T14:19:12.000Z</time>
      </trkpt>
      <trkpt lat="45.0721" lon="5.66156">
        <ele>376</ele>
        <time>2013-09-15T14:19:14.000Z</time>
      </trkpt>
      <trkpt lat="45.07205" lon="5.66163">
        <ele>376</ele>
        <time>2013-09-15T14:19:16.000Z</time>
      </trkpt>
      <trkpt lat="45.07204" lon="5.66169">
        <ele>375</ele>
        <time>2013-09-15T14:19:18.000Z</time>
      </trkpt>
      <trkpt lat="45.07204" lon="5.66178">
        <ele>375</ele>
        <time>2013-09-15T14:19:20.000Z</time>
      </trkpt>
      <trkpt lat="45.07209" lon="5.66184">
        <ele>375</ele>
        <time>2013-09-15T14:19:22.000Z</time>
      </trkpt>
      <trkpt lat="45.07213" lon="5.66195">
        <ele>375</ele>
        <time>2013-09-15T14:19:24.000Z</time>
      </trkpt>
      <trkpt lat="45.07218" lon="5.66204">
        <ele>375</ele>
        <time>2013-09-15T14:19:26.000Z</time>
      </trkpt>
      <trkpt lat="45.07223" lon="5.66212">
        <ele>375</ele>
        <time>2013-09-15T14:19:28.000Z</time>
      </trkpt>
      <trkpt lat="45.07226" lon="5.66216">
        <ele>375</ele>
        <time>2013-09-15T14:19:29.000Z</time>
      </trkpt>
      <trkpt lat="45.07228" lon="5.66223">
        <ele>375</ele>
        <time>2013-09-15T14:19:30.000Z</time>
      </trkpt>
      <trkpt lat="45.07234" lon="5.66231">
        <ele>375</ele>
        <time>2013-09-15T14:19:32.000Z</time>
      </trkpt>
      <trkpt lat="45.07239" lon="5.66236">
        <ele>375</ele>
        <time>2013-09-15T14:19:33.000Z</time>
      </trkpt>
      <trkpt lat="45.07242" lon="5.6624">
        <ele>375</ele>
        <time>2013-09-15T14:19:34.000Z</time>
      </trkpt>
      <trkpt lat="45.07246" lon="5.66244">
        <ele>375</ele>
        <time>2013-09-15T14:19:35.000Z</time>
      </trkpt>
      <trkpt lat="45.07249" lon="5.66249">
        <ele>374</ele>
        <time>2013-09-15T14:19:36.000Z</time>
      </trkpt>
      <trkpt lat="45.07254" lon="5.66253">
        <ele>374</ele>
        <time>2013-09-15T14:19:37.000Z</time>
      </trkpt>
      <trkpt lat="45.07257" lon="5.66259">
        <ele>374</ele>
        <time>2013-09-15T14:19:38.000Z</time>
      </trkpt>
      <trkpt lat="45.07261" lon="5.66264">
        <ele>374</ele>
        <time>2013-09-15T14:19:39.000Z</time>
      </trkpt>
      <trkpt lat="45.07264" lon="5.6627">
        <ele>374</ele>
        <time>2013-09-15T14:19:40.000Z</time>
      </trkpt>
      <trkpt lat="45.07269" lon="5.66276">
        <ele>375</ele>
        <time>2013-09-15T14:19:41.000Z</time>
      </trkpt>
      <trkpt lat="45.07273" lon="5.66281">
        <ele>375</ele>
        <time>2013-09-15T14:19:42.000Z</time>
      </trkpt>
      <trkpt lat="45.07277" lon="5.66287">
        <ele>375</ele>
        <time>2013-09-15T14:19:43.000Z</time>
      </trkpt>
      <trkpt lat="45.07282" lon="5.66294">
        <ele>376</ele>
        <time>2013-09-15T14:19:44.000Z</time>
      </trkpt>
      <trkpt lat="45.07287" lon="5.66298">
        <ele>376</ele>
        <time>2013-09-15T14:19:45.000Z</time>
      </trkpt>
      <trkpt lat="45.07291" lon="5.66304">
        <ele>376</ele>
        <time>2013-09-15T14:19:46.000Z</time>
      </trkpt>
      <trkpt lat="45.07296" lon="5.66311">
        <ele>377</ele>
        <time>2013-09-15T14:19:47.000Z</time>
      </trkpt>
      <trkpt lat="45.073" lon="5.66315">
        <ele>377</ele>
        <time>2013-09-15T14:19:48.000Z</time>
      </trkpt>
      <trkpt lat="45.07305" lon="5.66317">
        <ele>377</ele>
        <time>2013-09-15T14:19:49.000Z</time>
      </trkpt>
      <trkpt lat="45.07312" lon="5.66322">
        <ele>377</ele>
        <time>2013-09-15T14:19:51.000Z</time>
      </trkpt>
      <trkpt lat="45.07317" lon="5.66328">
        <ele>377</ele>
        <time>2013-09-15T14:19:53.000Z</time>
      </trkpt>
      <trkpt lat="45.07321" lon="5.6633">
        <ele>377</ele>
        <time>2013-09-15T14:19:55.000Z</time>
      </trkpt>
      <trkpt lat="45.07328" lon="5.66337">
        <ele>377</ele>
        <time>2013-09-15T14:20:00.000Z</time>
      </trkpt>
      <trkpt lat="45.07333" lon="5.66343">
        <ele>377</ele>
        <time>2013-09-15T14:20:03.000Z</time>
      </trkpt>
      <trkpt lat="45.07333" lon="5.66343">
        <ele>377</ele>
        <time>2013-09-15T14:20:03.000Z</time>
      </trkpt>
      <trkpt lat="45.07333" lon="5.66343">
        <ele>377</ele>
        <time>2013-09-15T14:20:07.000Z</time>
      </trkpt>
      <trkpt lat="45.0734" lon="5.66354">
        <ele>376</ele>
        <time>2013-09-15T14:20:08.000Z</time>
      </trkpt>
      <trkpt lat="45.07345" lon="5.6636">
        <ele>376</ele>
        <time>2013-09-15T14:20:10.000Z</time>
      </trkpt>
      <trkpt lat="45.07351" lon="5.66367">
        <ele>377</ele>
        <time>2013-09-15T14:20:12.000Z</time>
      </trkpt>
      <trkpt lat="45.07355" lon="5.66371">
        <ele>377</ele>
        <time>2013-09-15T14:20:13.000Z</time>
      </trkpt>
      <trkpt lat="45.0736" lon="5.66377">
        <ele>377</ele>
        <time>2013-09-15T14:20:15.000Z</time>
      </trkpt>
      <trkpt lat="45.07365" lon="5.66386">
        <ele>377</ele>
        <time>2013-09-15T14:20:17.000Z</time>
      </trkpt>
      <trkpt lat="45.07372" lon="5.66392">
        <ele>378</ele>
        <time>2013-09-15T14:20:19.000Z</time>
      </trkpt>
      <trkpt lat="45.07375" lon="5.66397">
        <ele>379</ele>
        <time>2013-09-15T14:20:20.000Z</time>
      </trkpt>
      <trkpt lat="45.07379" lon="5.66399">
        <ele>379</ele>
        <time>2013-09-15T14:20:21.000Z</time>
      </trkpt>
      <trkpt lat="45.07384" lon="5.66403">
        <ele>380</ele>
        <time>2013-09-15T14:20:22.000Z</time>
      </trkpt>
      <trkpt lat="45.07388" lon="5.66405">
        <ele>380</ele>
        <time>2013-09-15T14:20:23.000Z</time>
      </trkpt>
      <trkpt lat="45.07392" lon="5.66407">
        <ele>381</ele>
        <time>2013-09-15T14:20:24.000Z</time>
      </trkpt>
      <trkpt lat="45.07396" lon="5.66412">
        <ele>381</ele>
        <time>2013-09-15T14:20:25.000Z</time>
      </trkpt>
      <trkpt lat="45.07401" lon="5.66416">
        <ele>381</ele>
        <time>2013-09-15T14:20:26.000Z</time>
      </trkpt>
      <trkpt lat="45.07407" lon="5.66422">
        <ele>381</ele>
        <time>2013-09-15T14:20:28.000Z</time>
      </trkpt>
      <trkpt lat="45.07411" lon="5.66429">
        <ele>382</ele>
        <time>2013-09-15T14:20:30.000Z</time>
      </trkpt>
      <trkpt lat="45.07416" lon="5.66435">
        <ele>382</ele>
        <time>2013-09-15T14:20:32.000Z</time>
      </trkpt>
      <trkpt lat="45.07422" lon="5.6644">
        <ele>382</ele>
        <time>2013-09-15T14:20:34.000Z</time>
      </trkpt>
      <trkpt lat="45.07426" lon="5.66442">
        <ele>382</ele>
        <time>2013-09-15T14:20:35.000Z</time>
      </trkpt>
      <trkpt lat="45.07431" lon="5.66446">
        <ele>383</ele>
        <time>2013-09-15T14:20:36.000Z</time>
      </trkpt>
      <trkpt lat="45.07435" lon="5.66448">
        <ele>384</ele>
        <time>2013-09-15T14:20:37.000Z</time>
      </trkpt>
      <trkpt lat="45.07442" lon="5.66455">
        <ele>385</ele>
        <time>2013-09-15T14:20:39.000Z</time>
      </trkpt>
      <trkpt lat="45.07447" lon="5.66459">
        <ele>385</ele>
        <time>2013-09-15T14:20:40.000Z</time>
      </trkpt>
      <trkpt lat="45.07453" lon="5.66465">
        <ele>386</ele>
        <time>2013-09-15T14:20:42.000Z</time>
      </trkpt>
      <trkpt lat="45.07458" lon="5.6647">
        <ele>386</ele>
        <time>2013-09-15T14:20:43.000Z</time>
      </trkpt>
      <trkpt lat="45.07462" lon="5.66472">
        <ele>386</ele>
        <time>2013-09-15T14:20:44.000Z</time>
      </trkpt>
      <trkpt lat="45.07466" lon="5.66476">
        <ele>385</ele>
        <time>2013-09-15T14:20:45.000Z</time>
      </trkpt>
      <trkpt lat="45.0747" lon="5.66482">
        <ele>385</ele>
        <time>2013-09-15T14:20:46.000Z</time>
      </trkpt>
      <trkpt lat="45.07474" lon="5.66487">
        <ele>385</ele>
        <time>2013-09-15T14:20:47.000Z</time>
      </trkpt>
      <trkpt lat="45.07481" lon="5.66495">
        <ele>384</ele>
        <time>2013-09-15T14:20:49.000Z</time>
      </trkpt>
      <trkpt lat="45.07486" lon="5.66502">
        <ele>383</ele>
        <time>2013-09-15T14:20:50.000Z</time>
      </trkpt>
      <trkpt lat="45.0749" lon="5.66506">
        <ele>382</ele>
        <time>2013-09-15T14:20:51.000Z</time>
      </trkpt>
      <trkpt lat="45.07497" lon="5.66515">
        <ele>382</ele>
        <time>2013-09-15T14:20:53.000Z</time>
      </trkpt>
      <trkpt lat="45.075" lon="5.66521">
        <ele>381</ele>
        <time>2013-09-15T14:20:54.000Z</time>
      </trkpt>
      <trkpt lat="45.07507" lon="5.6653">
        <ele>381</ele>
        <time>2013-09-15T14:20:56.000Z</time>
      </trkpt>
      <trkpt lat="45.0751" lon="5.66534">
        <ele>382</ele>
        <time>2013-09-15T14:20:57.000Z</time>
      </trkpt>
      <trkpt lat="45.07513" lon="5.6654">
        <ele>382</ele>
        <time>2013-09-15T14:20:58.000Z</time>
      </trkpt>
      <trkpt lat="45.07517" lon="5.66547">
        <ele>382</ele>
        <time>2013-09-15T14:20:59.000Z</time>
      </trkpt>
      <trkpt lat="45.07523" lon="5.66553">
        <ele>382</ele>
        <time>2013-09-15T14:21:00.000Z</time>
      </trkpt>
      <trkpt lat="45.07528" lon="5.66558">
        <ele>382</ele>
        <time>2013-09-15T14:21:01.000Z</time>
      </trkpt>
      <trkpt lat="45.07534" lon="5.66562">
        <ele>382</ele>
        <time>2013-09-15T14:21:02.000Z</time>
      </trkpt>
      <trkpt lat="45.07538" lon="5.66566">
        <ele>382</ele>
        <time>2013-09-15T14:21:03.000Z</time>
      </trkpt>
      <trkpt lat="45.07541" lon="5.6657">
        <ele>382</ele>
        <time>2013-09-15T14:21:04.000Z</time>
      </trkpt>
      <trkpt lat="45.07547" lon="5.66579">
        <ele>382</ele>
        <time>2013-09-15T14:21:06.000Z</time>
      </trkpt>
      <trkpt lat="45.07553" lon="5.66581">
        <ele>382</ele>
        <time>2013-09-15T14:21:08.000Z</time>
      </trkpt>
      <trkpt lat="45.0756" lon="5.66579">
        <ele>382</ele>
        <time>2013-09-15T14:21:10.000Z</time>
      </trkpt>
      <trkpt lat="45.0756" lon="5.66579">
        <ele>382</ele>
        <time>2013-09-15T14:21:10.000Z</time>
      </trkpt>
      <trkpt lat="45.0756" lon="5.66579">
        <ele>382</ele>
        <time>2013-09-15T14:21:13.000Z</time>
      </trkpt>
      <trkpt lat="45.07569" lon="5.66581">
        <ele>382</ele>
        <time>2013-09-15T14:21:14.000Z</time>
      </trkpt>
      <trkpt lat="45.07574" lon="5.66586">
        <ele>382</ele>
        <time>2013-09-15T14:21:16.000Z</time>
      </trkpt>
      <trkpt lat="45.07574" lon="5.66586">
        <ele>382</ele>
        <time>2013-09-15T14:21:16.000Z</time>
      </trkpt>
      <trkpt lat="45.07574" lon="5.66586">
        <ele>382</ele>
        <time>2013-09-15T14:21:19.000Z</time>
      </trkpt>
      <trkpt lat="45.07584" lon="5.6659">
        <ele>382</ele>
        <time>2013-09-15T14:21:20.000Z</time>
      </trkpt>
      <trkpt lat="45.07584" lon="5.6659">
        <ele>382</ele>
        <time>2013-09-15T14:21:20.000Z</time>
      </trkpt>
      <trkpt lat="45.07584" lon="5.6659">
        <ele>382</ele>
        <time>2013-09-15T14:21:24.000Z</time>
      </trkpt>
      <trkpt lat="45.07594" lon="5.66598">
        <ele>382</ele>
        <time>2013-09-15T14:21:25.000Z</time>
      </trkpt>
      <trkpt lat="45.07594" lon="5.66598">
        <ele>382</ele>
        <time>2013-09-15T14:21:25.000Z</time>
      </trkpt>
      <trkpt lat="45.07594" lon="5.66598">
        <ele>382</ele>
        <time>2013-09-15T14:21:28.000Z</time>
      </trkpt>
      <trkpt lat="45.07602" lon="5.66605">
        <ele>382</ele>
        <time>2013-09-15T14:21:29.000Z</time>
      </trkpt>
      <trkpt lat="45.07602" lon="5.66605">
        <ele>382</ele>
        <time>2013-09-15T14:21:29.000Z</time>
      </trkpt>
      <trkpt lat="45.07602" lon="5.66605">
        <ele>382</ele>
        <time>2013-09-15T14:21:32.000Z</time>
      </trkpt>
      <trkpt lat="45.07613" lon="5.66607">
        <ele>382</ele>
        <time>2013-09-15T14:21:33.000Z</time>
      </trkpt>
      <trkpt lat="45.07613" lon="5.66607">
        <ele>382</ele>
        <time>2013-09-15T14:21:33.000Z</time>
      </trkpt>
      <trkpt lat="45.07613" lon="5.66607">
        <ele>382</ele>
        <time>2013-09-15T14:21:38.000Z</time>
      </trkpt>
      <trkpt lat="45.07622" lon="5.66611">
        <ele>382</ele>
        <time>2013-09-15T14:21:39.000Z</time>
      </trkpt>
      <trkpt lat="45.07622" lon="5.66611">
        <ele>382</ele>
        <time>2013-09-15T14:21:39.000Z</time>
      </trkpt>
      <trkpt lat="45.07622" lon="5.66611">
        <ele>382</ele>
        <time>2013-09-15T14:21:41.000Z</time>
      </trkpt>
      <trkpt lat="45.07627" lon="5.66618">
        <ele>382</ele>
        <time>2013-09-15T14:21:42.000Z</time>
      </trkpt>
      <trkpt lat="45.07627" lon="5.66618">
        <ele>382</ele>
        <time>2013-09-15T14:21:42.000Z</time>
      </trkpt>
      <trkpt lat="45.07627" lon="5.66618">
        <ele>382</ele>
        <time>2013-09-15T14:21:44.000Z</time>
      </trkpt>
      <trkpt lat="45.07634" lon="5.66622">
        <ele>382</ele>
        <time>2013-09-15T14:21:45.000Z</time>
      </trkpt>
      <trkpt lat="45.07639" lon="5.66628">
        <ele>382</ele>
        <time>2013-09-15T14:21:47.000Z</time>
      </trkpt>
      <trkpt lat="45.07644" lon="5.66635">
        <ele>382</ele>
        <time>2013-09-15T14:21:49.000Z</time>
      </trkpt>
      <trkpt lat="45.07648" lon="5.66637">
        <ele>382</ele>
        <time>2013-09-15T14:21:50.000Z</time>
      </trkpt>
      <trkpt lat="45.07652" lon="5.66641">
        <ele>382</ele>
        <time>2013-09-15T14:21:51.000Z</time>
      </trkpt>
      <trkpt lat="45.07658" lon="5.6665">
        <ele>382</ele>
        <time>2013-09-15T14:21:53.000Z</time>
      </trkpt>
      <trkpt lat="45.07665" lon="5.66658">
        <ele>384</ele>
        <time>2013-09-15T14:21:55.000Z</time>
      </trkpt>
      <trkpt lat="45.07669" lon="5.66663">
        <ele>385</ele>
        <time>2013-09-15T14:21:56.000Z</time>
      </trkpt>
      <trkpt lat="45.07673" lon="5.66669">
        <ele>386</ele>
        <time>2013-09-15T14:21:57.000Z</time>
      </trkpt>
      <trkpt lat="45.07678" lon="5.66674">
        <ele>386</ele>
        <time>2013-09-15T14:21:58.000Z</time>
      </trkpt>
      <trkpt lat="45.07682" lon="5.6668">
        <ele>387</ele>
        <time>2013-09-15T14:21:59.000Z</time>
      </trkpt>
      <trkpt lat="45.07686" lon="5.66684">
        <ele>388</ele>
        <time>2013-09-15T14:22:00.000Z</time>
      </trkpt>
      <trkpt lat="45.07694" lon="5.66693">
        <ele>389</ele>
        <time>2013-09-15T14:22:02.000Z</time>
      </trkpt>
      <trkpt lat="45.07701" lon="5.66701">
        <ele>390</ele>
        <time>2013-09-15T14:22:04.000Z</time>
      </trkpt>
      <trkpt lat="45.07706" lon="5.66708">
        <ele>390</ele>
        <time>2013-09-15T14:22:06.000Z</time>
      </trkpt>
      <trkpt lat="45.07712" lon="5.66716">
        <ele>391</ele>
        <time>2013-09-15T14:22:08.000Z</time>
      </trkpt>
      <trkpt lat="45.07715" lon="5.66721">
        <ele>391</ele>
        <time>2013-09-15T14:22:09.000Z</time>
      </trkpt>
      <trkpt lat="45.0772" lon="5.66729">
        <ele>391</ele>
        <time>2013-09-15T14:22:11.000Z</time>
      </trkpt>
      <trkpt lat="45.07726" lon="5.66736">
        <ele>391</ele>
        <time>2013-09-15T14:22:13.000Z</time>
      </trkpt>
      <trkpt lat="45.07732" lon="5.66744">
        <ele>392</ele>
        <time>2013-09-15T14:22:15.000Z</time>
      </trkpt>
      <trkpt lat="45.07739" lon="5.66753">
        <ele>393</ele>
        <time>2013-09-15T14:22:17.000Z</time>
      </trkpt>
      <trkpt lat="45.07745" lon="5.66761">
        <ele>393</ele>
        <time>2013-09-15T14:22:19.000Z</time>
      </trkpt>
      <trkpt lat="45.07752" lon="5.66768">
        <ele>393</ele>
        <time>2013-09-15T14:22:21.000Z</time>
      </trkpt>
      <trkpt lat="45.07757" lon="5.66776">
        <ele>393</ele>
        <time>2013-09-15T14:22:23.000Z</time>
      </trkpt>
      <trkpt lat="45.07762" lon="5.66785">
        <ele>394</ele>
        <time>2013-09-15T14:22:25.000Z</time>
      </trkpt>
      <trkpt lat="45.07768" lon="5.66792">
        <ele>394</ele>
        <time>2013-09-15T14:22:27.000Z</time>
      </trkpt>
      <trkpt lat="45.07771" lon="5.66796">
        <ele>394</ele>
        <time>2013-09-15T14:22:28.000Z</time>
      </trkpt>
      <trkpt lat="45.07775" lon="5.66802">
        <ele>394</ele>
        <time>2013-09-15T14:22:30.000Z</time>
      </trkpt>
      <trkpt lat="45.0778" lon="5.66811">
        <ele>394</ele>
        <time>2013-09-15T14:22:32.000Z</time>
      </trkpt>
      <trkpt lat="45.07786" lon="5.66819">
        <ele>394</ele>
        <time>2013-09-15T14:22:34.000Z</time>
      </trkpt>
      <trkpt lat="45.07792" lon="5.66828">
        <ele>394</ele>
        <time>2013-09-15T14:22:36.000Z</time>
      </trkpt>
      <trkpt lat="45.07797" lon="5.66834">
        <ele>395</ele>
        <time>2013-09-15T14:22:37.000Z</time>
      </trkpt>
      <trkpt lat="45.07803" lon="5.66845">
        <ele>395</ele>
        <time>2013-09-15T14:22:39.000Z</time>
      </trkpt>
      <trkpt lat="45.07806" lon="5.66849">
        <ele>395</ele>
        <time>2013-09-15T14:22:40.000Z</time>
      </trkpt>
      <trkpt lat="45.0781" lon="5.66856">
        <ele>395</ele>
        <time>2013-09-15T14:22:41.000Z</time>
      </trkpt>
      <trkpt lat="45.07815" lon="5.66862">
        <ele>394</ele>
        <time>2013-09-15T14:22:42.000Z</time>
      </trkpt>
      <trkpt lat="45.07819" lon="5.66869">
        <ele>393</ele>
        <time>2013-09-15T14:22:43.000Z</time>
      </trkpt>
      <trkpt lat="45.07824" lon="5.66877">
        <ele>393</ele>
        <time>2013-09-15T14:22:44.000Z</time>
      </trkpt>
      <trkpt lat="45.07829" lon="5.66886">
        <ele>393</ele>
        <time>2013-09-15T14:22:45.000Z</time>
      </trkpt>
      <trkpt lat="45.07834" lon="5.66894">
        <ele>393</ele>
        <time>2013-09-15T14:22:46.000Z</time>
      </trkpt>
      <trkpt lat="45.07838" lon="5.66903">
        <ele>393</ele>
        <time>2013-09-15T14:22:47.000Z</time>
      </trkpt>
      <trkpt lat="45.07843" lon="5.66912">
        <ele>393</ele>
        <time>2013-09-15T14:22:48.000Z</time>
      </trkpt>
      <trkpt lat="45.07848" lon="5.66918">
        <ele>392</ele>
        <time>2013-09-15T14:22:49.000Z</time>
      </trkpt>
      <trkpt lat="45.07852" lon="5.66927">
        <ele>392</ele>
        <time>2013-09-15T14:22:50.000Z</time>
      </trkpt>
      <trkpt lat="45.07857" lon="5.66935">
        <ele>391</ele>
        <time>2013-09-15T14:22:51.000Z</time>
      </trkpt>
      <trkpt lat="45.07862" lon="5.66942">
        <ele>391</ele>
        <time>2013-09-15T14:22:52.000Z</time>
      </trkpt>
      <trkpt lat="45.07867" lon="5.6695">
        <ele>390</ele>
        <time>2013-09-15T14:22:53.000Z</time>
      </trkpt>
      <trkpt lat="45.07872" lon="5.66959">
        <ele>390</ele>
        <time>2013-09-15T14:22:54.000Z</time>
      </trkpt>
      <trkpt lat="45.07876" lon="5.66967">
        <ele>390</ele>
        <time>2013-09-15T14:22:55.000Z</time>
      </trkpt>
      <trkpt lat="45.0788" lon="5.66976">
        <ele>390</ele>
        <time>2013-09-15T14:22:56.000Z</time>
      </trkpt>
      <trkpt lat="45.07884" lon="5.66985">
        <ele>390</ele>
        <time>2013-09-15T14:22:57.000Z</time>
      </trkpt>
      <trkpt lat="45.07887" lon="5.66991">
        <ele>389</ele>
        <time>2013-09-15T14:22:58.000Z</time>
      </trkpt>
      <trkpt lat="45.0789" lon="5.67">
        <ele>389</ele>
        <time>2013-09-15T14:22:59.000Z</time>
      </trkpt>
      <trkpt lat="45.07894" lon="5.67006">
        <ele>388</ele>
        <time>2013-09-15T14:23:00.000Z</time>
      </trkpt>
      <trkpt lat="45.07897" lon="5.67012">
        <ele>387</ele>
        <time>2013-09-15T14:23:01.000Z</time>
      </trkpt>
      <trkpt lat="45.07901" lon="5.67021">
        <ele>387</ele>
        <time>2013-09-15T14:23:02.000Z</time>
      </trkpt>
      <trkpt lat="45.07906" lon="5.67025">
        <ele>385</ele>
        <time>2013-09-15T14:23:03.000Z</time>
      </trkpt>
      <trkpt lat="45.07911" lon="5.67032">
        <ele>383</ele>
        <time>2013-09-15T14:23:04.000Z</time>
      </trkpt>
      <trkpt lat="45.07917" lon="5.67038">
        <ele>381</ele>
        <time>2013-09-15T14:23:05.000Z</time>
      </trkpt>
      <trkpt lat="45.07921" lon="5.67045">
        <ele>379</ele>
        <time>2013-09-15T14:23:06.000Z</time>
      </trkpt>
      <trkpt lat="45.07926" lon="5.67051">
        <ele>378</ele>
        <time>2013-09-15T14:23:07.000Z</time>
      </trkpt>
      <trkpt lat="45.07931" lon="5.67055">
        <ele>377</ele>
        <time>2013-09-15T14:23:08.000Z</time>
      </trkpt>
      <trkpt lat="45.07936" lon="5.6706">
        <ele>376</ele>
        <time>2013-09-15T14:23:09.000Z</time>
      </trkpt>
      <trkpt lat="45.07941" lon="5.67062">
        <ele>375</ele>
        <time>2013-09-15T14:23:10.000Z</time>
      </trkpt>
      <trkpt lat="45.07946" lon="5.67066">
        <ele>374</ele>
        <time>2013-09-15T14:23:11.000Z</time>
      </trkpt>
      <trkpt lat="45.0795" lon="5.6707">
        <ele>374</ele>
        <time>2013-09-15T14:23:12.000Z</time>
      </trkpt>
      <trkpt lat="45.07953" lon="5.67075">
        <ele>374</ele>
        <time>2013-09-15T14:23:13.000Z</time>
      </trkpt>
      <trkpt lat="45.07956" lon="5.67079">
        <ele>373</ele>
        <time>2013-09-15T14:23:14.000Z</time>
      </trkpt>
      <trkpt lat="45.07962" lon="5.67086">
        <ele>374</ele>
        <time>2013-09-15T14:23:16.000Z</time>
      </trkpt>
      <trkpt lat="45.07968" lon="5.67094">
        <ele>374</ele>
        <time>2013-09-15T14:23:18.000Z</time>
      </trkpt>
      <trkpt lat="45.07972" lon="5.67098">
        <ele>375</ele>
        <time>2013-09-15T14:23:19.000Z</time>
      </trkpt>
      <trkpt lat="45.0798" lon="5.67105">
        <ele>375</ele>
        <time>2013-09-15T14:23:21.000Z</time>
      </trkpt>
      <trkpt lat="45.07984" lon="5.67107">
        <ele>376</ele>
        <time>2013-09-15T14:23:22.000Z</time>
      </trkpt>
      <trkpt lat="45.07988" lon="5.67111">
        <ele>376</ele>
        <time>2013-09-15T14:23:23.000Z</time>
      </trkpt>
      <trkpt lat="45.07992" lon="5.67113">
        <ele>376</ele>
        <time>2013-09-15T14:23:24.000Z</time>
      </trkpt>
      <trkpt lat="45.07996" lon="5.67116">
        <ele>375</ele>
        <time>2013-09-15T14:23:25.000Z</time>
      </trkpt>
      <trkpt lat="45.08003" lon="5.67124">
        <ele>375</ele>
        <time>2013-09-15T14:23:27.000Z</time>
      </trkpt>
      <trkpt lat="45.08008" lon="5.6713">
        <ele>375</ele>
        <time>2013-09-15T14:23:29.000Z</time>
      </trkpt>
      <trkpt lat="45.08012" lon="5.67139">
        <ele>374</ele>
        <time>2013-09-15T14:23:31.000Z</time>
      </trkpt>
      <trkpt lat="45.08016" lon="5.67146">
        <ele>374</ele>
        <time>2013-09-15T14:23:33.000Z</time>
      </trkpt>
      <trkpt lat="45.08021" lon="5.67154">
        <ele>374</ele>
        <time>2013-09-15T14:23:35.000Z</time>
      </trkpt>
      <trkpt lat="45.08025" lon="5.67161">
        <ele>374</ele>
        <time>2013-09-15T14:23:37.000Z</time>
      </trkpt>
      <trkpt lat="45.08029" lon="5.67169">
        <ele>373</ele>
        <time>2013-09-15T14:23:39.000Z</time>
      </trkpt>
      <trkpt lat="45.08034" lon="5.67178">
        <ele>373</ele>
        <time>2013-09-15T14:23:41.000Z</time>
      </trkpt>
      <trkpt lat="45.08038" lon="5.67186">
        <ele>373</ele>
        <time>2013-09-15T14:23:43.000Z</time>
      </trkpt>
      <trkpt lat="45.08043" lon="5.67193">
        <ele>372</ele>
        <time>2013-09-15T14:23:45.000Z</time>
      </trkpt>
      <trkpt lat="45.08049" lon="5.67201">
        <ele>372</ele>
        <time>2013-09-15T14:23:47.000Z</time>
      </trkpt>
      <trkpt lat="45.08052" lon="5.67208">
        <ele>371</ele>
        <time>2013-09-15T14:23:48.000Z</time>
      </trkpt>
      <trkpt lat="45.08055" lon="5.67212">
        <ele>370</ele>
        <time>2013-09-15T14:23:49.000Z</time>
      </trkpt>
      <trkpt lat="45.08062" lon="5.67221">
        <ele>367</ele>
        <time>2013-09-15T14:23:51.000Z</time>
      </trkpt>
      <trkpt lat="45.08066" lon="5.67225">
        <ele>366</ele>
        <time>2013-09-15T14:23:52.000Z</time>
      </trkpt>
      <trkpt lat="45.0807" lon="5.67231">
        <ele>364</ele>
        <time>2013-09-15T14:23:53.000Z</time>
      </trkpt>
      <trkpt lat="45.08076" lon="5.67236">
        <ele>361</ele>
        <time>2013-09-15T14:23:54.000Z</time>
      </trkpt>
      <trkpt lat="45.08081" lon="5.67242">
        <ele>359</ele>
        <time>2013-09-15T14:23:55.000Z</time>
      </trkpt>
      <trkpt lat="45.08085" lon="5.67246">
        <ele>358</ele>
        <time>2013-09-15T14:23:56.000Z</time>
      </trkpt>
      <trkpt lat="45.08091" lon="5.67253">
        <ele>356</ele>
        <time>2013-09-15T14:23:57.000Z</time>
      </trkpt>
      <trkpt lat="45.08095" lon="5.67259">
        <ele>355</ele>
        <time>2013-09-15T14:23:58.000Z</time>
      </trkpt>
      <trkpt lat="45.081" lon="5.67266">
        <ele>353</ele>
        <time>2013-09-15T14:23:59.000Z</time>
      </trkpt>
      <trkpt lat="45.08104" lon="5.67274">
        <ele>352</ele>
        <time>2013-09-15T14:24:00.000Z</time>
      </trkpt>
      <trkpt lat="45.08109" lon="5.67283">
        <ele>351</ele>
        <time>2013-09-15T14:24:01.000Z</time>
      </trkpt>
      <trkpt lat="45.08111" lon="5.67289">
        <ele>351</ele>
        <time>2013-09-15T14:24:02.000Z</time>
      </trkpt>
      <trkpt lat="45.08111" lon="5.67298">
        <ele>351</ele>
        <time>2013-09-15T14:24:04.000Z</time>
      </trkpt>
      <trkpt lat="45.08112" lon="5.67304">
        <ele>351</ele>
        <time>2013-09-15T14:24:05.000Z</time>
      </trkpt>
      <trkpt lat="45.08115" lon="5.67315">
        <ele>351</ele>
        <time>2013-09-15T14:24:07.000Z</time>
      </trkpt>
      <trkpt lat="45.08117" lon="5.67326">
        <ele>352</ele>
        <time>2013-09-15T14:24:09.000Z</time>
      </trkpt>
      <trkpt lat="45.0812" lon="5.67334">
        <ele>352</ele>
        <time>2013-09-15T14:24:10.000Z</time>
      </trkpt>
      <trkpt lat="45.08123" lon="5.67341">
        <ele>352</ele>
        <time>2013-09-15T14:24:11.000Z</time>
      </trkpt>
      <trkpt lat="45.08125" lon="5.67347">
        <ele>353</ele>
        <time>2013-09-15T14:24:12.000Z</time>
      </trkpt>
      <trkpt lat="45.08128" lon="5.67354">
        <ele>354</ele>
        <time>2013-09-15T14:24:13.000Z</time>
      </trkpt>
      <trkpt lat="45.08131" lon="5.6736">
        <ele>354</ele>
        <time>2013-09-15T14:24:14.000Z</time>
      </trkpt>
      <trkpt lat="45.08135" lon="5.67367">
        <ele>355</ele>
        <time>2013-09-15T14:24:15.000Z</time>
      </trkpt>
      <trkpt lat="45.08138" lon="5.67373">
        <ele>355</ele>
        <time>2013-09-15T14:24:16.000Z</time>
      </trkpt>
      <trkpt lat="45.08139" lon="5.67379">
        <ele>355</ele>
        <time>2013-09-15T14:24:17.000Z</time>
      </trkpt>
      <trkpt lat="45.08142" lon="5.67388">
        <ele>356</ele>
        <time>2013-09-15T14:24:19.000Z</time>
      </trkpt>
      <trkpt lat="45.08144" lon="5.67394">
        <ele>356</ele>
        <time>2013-09-15T14:24:20.000Z</time>
      </trkpt>
      <trkpt lat="45.0815" lon="5.67405">
        <ele>356</ele>
        <time>2013-09-15T14:24:22.000Z</time>
      </trkpt>
      <trkpt lat="45.08152" lon="5.67412">
        <ele>356</ele>
        <time>2013-09-15T14:24:23.000Z</time>
      </trkpt>
      <trkpt lat="45.08156" lon="5.67422">
        <ele>356</ele>
        <time>2013-09-15T14:24:25.000Z</time>
      </trkpt>
      <trkpt lat="45.08159" lon="5.67433">
        <ele>356</ele>
        <time>2013-09-15T14:24:27.000Z</time>
      </trkpt>
      <trkpt lat="45.08164" lon="5.67442">
        <ele>356</ele>
        <time>2013-09-15T14:24:29.000Z</time>
      </trkpt>
      <trkpt lat="45.08165" lon="5.67448">
        <ele>356</ele>
        <time>2013-09-15T14:24:30.000Z</time>
      </trkpt>
      <trkpt lat="45.08169" lon="5.67457">
        <ele>356</ele>
        <time>2013-09-15T14:24:32.000Z</time>
      </trkpt>
      <trkpt lat="45.08175" lon="5.67463">
        <ele>356</ele>
        <time>2013-09-15T14:24:34.000Z</time>
      </trkpt>
      <trkpt lat="45.0818" lon="5.67465">
        <ele>356</ele>
        <time>2013-09-15T14:24:35.000Z</time>
      </trkpt>
      <trkpt lat="45.08186" lon="5.67472">
        <ele>356</ele>
        <time>2013-09-15T14:24:37.000Z</time>
      </trkpt>
      <trkpt lat="45.08192" lon="5.67478">
        <ele>356</ele>
        <time>2013-09-15T14:24:39.000Z</time>
      </trkpt>
      <trkpt lat="45.08199" lon="5.67485">
        <ele>356</ele>
        <time>2013-09-15T14:24:41.000Z</time>
      </trkpt>
      <trkpt lat="45.0821" lon="5.675">
        <ele>356</ele>
        <time>2013-09-15T14:24:47.000Z</time>
      </trkpt>
      <trkpt lat="45.0821" lon="5.675">
        <ele>356</ele>
        <time>2013-09-15T14:24:47.000Z</time>
      </trkpt>
      <trkpt lat="45.0821" lon="5.675">
        <ele>356</ele>
        <time>2013-09-15T14:24:50.000Z</time>
      </trkpt>
      <trkpt lat="45.08219" lon="5.67508">
        <ele>356</ele>
        <time>2013-09-15T14:24:51.000Z</time>
      </trkpt>
      <trkpt lat="45.08231" lon="5.67512">
        <ele>357</ele>
        <time>2013-09-15T14:24:55.000Z</time>
      </trkpt>
      <trkpt lat="45.08235" lon="5.67515">
        <ele>358</ele>
        <time>2013-09-15T14:24:56.000Z</time>
      </trkpt>
      <trkpt lat="45.08244" lon="5.67517">
        <ele>361</ele>
        <time>2013-09-15T14:24:58.000Z</time>
      </trkpt>
      <trkpt lat="45.08253" lon="5.67519">
        <ele>362</ele>
        <time>2013-09-15T14:25:00.000Z</time>
      </trkpt>
      <trkpt lat="45.08257" lon="5.67521">
        <ele>364</ele>
        <time>2013-09-15T14:25:01.000Z</time>
      </trkpt>
      <trkpt lat="45.08261" lon="5.67523">
        <ele>365</ele>
        <time>2013-09-15T14:25:02.000Z</time>
      </trkpt>
      <trkpt lat="45.08269" lon="5.67528">
        <ele>366</ele>
        <time>2013-09-15T14:25:04.000Z</time>
      </trkpt>
      <trkpt lat="45.08276" lon="5.67532">
        <ele>368</ele>
        <time>2013-09-15T14:25:06.000Z</time>
      </trkpt>
      <trkpt lat="45.08284" lon="5.67536">
        <ele>368</ele>
        <time>2013-09-15T14:25:08.000Z</time>
      </trkpt>
      <trkpt lat="45.08291" lon="5.6754">
        <ele>369</ele>
        <time>2013-09-15T14:25:10.000Z</time>
      </trkpt>
      <trkpt lat="45.08298" lon="5.67542">
        <ele>369</ele>
        <time>2013-09-15T14:25:12.000Z</time>
      </trkpt>
      <trkpt lat="45.08309" lon="5.67547">
        <ele>369</ele>
        <time>2013-09-15T14:25:17.000Z</time>
      </trkpt>
      <trkpt lat="45.08309" lon="5.67547">
        <ele>369</ele>
        <time>2013-09-15T14:25:17.000Z</time>
      </trkpt>
      <trkpt lat="45.08309" lon="5.67547">
        <ele>369</ele>
        <time>2013-09-15T14:25:38.000Z</time>
      </trkpt>
      <trkpt lat="45.08316" lon="5.67549">
        <ele>368</ele>
        <time>2013-09-15T14:25:39.000Z</time>
      </trkpt>
      <trkpt lat="45.08316" lon="5.67549">
        <ele>368</ele>
        <time>2013-09-15T14:25:39.000Z</time>
      </trkpt>
      <trkpt lat="45.08316" lon="5.67549">
        <ele>368</ele>
        <time>2013-09-15T14:25:44.000Z</time>
      </trkpt>
      <trkpt lat="45.08322" lon="5.67558">
        <ele>367</ele>
        <time>2013-09-15T14:25:45.000Z</time>
      </trkpt>
      <trkpt lat="45.08328" lon="5.67562">
        <ele>367</ele>
        <time>2013-09-15T14:25:46.000Z</time>
      </trkpt>
      <trkpt lat="45.08333" lon="5.67568">
        <ele>366</ele>
        <time>2013-09-15T14:25:47.000Z</time>
      </trkpt>
      <trkpt lat="45.08337" lon="5.67572">
        <ele>366</ele>
        <time>2013-09-15T14:25:48.000Z</time>
      </trkpt>
      <trkpt lat="45.08342" lon="5.67577">
        <ele>366</ele>
        <time>2013-09-15T14:25:49.000Z</time>
      </trkpt>
      <trkpt lat="45.08346" lon="5.67581">
        <ele>365</ele>
        <time>2013-09-15T14:25:50.000Z</time>
      </trkpt>
      <trkpt lat="45.08349" lon="5.67585">
        <ele>365</ele>
        <time>2013-09-15T14:25:51.000Z</time>
      </trkpt>
      <trkpt lat="45.08352" lon="5.6759">
        <ele>365</ele>
        <time>2013-09-15T14:25:52.000Z</time>
      </trkpt>
      <trkpt lat="45.08357" lon="5.67592">
        <ele>364</ele>
        <time>2013-09-15T14:25:53.000Z</time>
      </trkpt>
      <trkpt lat="45.08364" lon="5.67598">
        <ele>364</ele>
        <time>2013-09-15T14:25:55.000Z</time>
      </trkpt>
      <trkpt lat="45.08372" lon="5.67605">
        <ele>363</ele>
        <time>2013-09-15T14:25:57.000Z</time>
      </trkpt>
      <trkpt lat="45.08379" lon="5.67611">
        <ele>363</ele>
        <time>2013-09-15T14:25:59.000Z</time>
      </trkpt>
      <trkpt lat="45.08387" lon="5.67618">
        <ele>362</ele>
        <time>2013-09-15T14:26:01.000Z</time>
      </trkpt>
      <trkpt lat="45.08393" lon="5.67624">
        <ele>362</ele>
        <time>2013-09-15T14:26:03.000Z</time>
      </trkpt>
      <trkpt lat="45.08397" lon="5.67626">
        <ele>359</ele>
        <time>2013-09-15T14:26:04.000Z</time>
      </trkpt>
      <trkpt lat="45.08402" lon="5.67628">
        <ele>357</ele>
        <time>2013-09-15T14:26:05.000Z</time>
      </trkpt>
      <trkpt lat="45.08406" lon="5.6763">
        <ele>355</ele>
        <time>2013-09-15T14:26:06.000Z</time>
      </trkpt>
      <trkpt lat="45.08411" lon="5.6763">
        <ele>354</ele>
        <time>2013-09-15T14:26:07.000Z</time>
      </trkpt>
      <trkpt lat="45.08416" lon="5.67633">
        <ele>353</ele>
        <time>2013-09-15T14:26:08.000Z</time>
      </trkpt>
      <trkpt lat="45.0842" lon="5.67635">
        <ele>352</ele>
        <time>2013-09-15T14:26:09.000Z</time>
      </trkpt>
      <trkpt lat="45.08424" lon="5.67637">
        <ele>352</ele>
        <time>2013-09-15T14:26:10.000Z</time>
      </trkpt>
      <trkpt lat="45.08434" lon="5.67639">
        <ele>351</ele>
        <time>2013-09-15T14:26:12.000Z</time>
      </trkpt>
      <trkpt lat="45.08438" lon="5.67641">
        <ele>351</ele>
        <time>2013-09-15T14:26:13.000Z</time>
      </trkpt>
      <trkpt lat="45.08447" lon="5.67643">
        <ele>350</ele>
        <time>2013-09-15T14:26:15.000Z</time>
      </trkpt>
      <trkpt lat="45.08451" lon="5.67646">
        <ele>350</ele>
        <time>2013-09-15T14:26:16.000Z</time>
      </trkpt>
      <trkpt lat="45.0846" lon="5.67648">
        <ele>350</ele>
        <time>2013-09-15T14:26:18.000Z</time>
      </trkpt>
      <trkpt lat="45.08464" lon="5.6765">
        <ele>350</ele>
        <time>2013-09-15T14:26:19.000Z</time>
      </trkpt>
      <trkpt lat="45.08469" lon="5.67652">
        <ele>350</ele>
        <time>2013-09-15T14:26:20.000Z</time>
      </trkpt>
      <trkpt lat="45.08474" lon="5.67654">
        <ele>350</ele>
        <time>2013-09-15T14:26:21.000Z</time>
      </trkpt>
      <trkpt lat="45.08483" lon="5.67656">
        <ele>350</ele>
        <time>2013-09-15T14:26:23.000Z</time>
      </trkpt>
      <trkpt lat="45.08488" lon="5.67658">
        <ele>350</ele>
        <time>2013-09-15T14:26:24.000Z</time>
      </trkpt>
      <trkpt lat="45.08496" lon="5.6766">
        <ele>350</ele>
        <time>2013-09-15T14:26:26.000Z</time>
      </trkpt>
      <trkpt lat="45.085" lon="5.67663">
        <ele>350</ele>
        <time>2013-09-15T14:26:27.000Z</time>
      </trkpt>
      <trkpt lat="45.08506" lon="5.67667">
        <ele>350</ele>
        <time>2013-09-15T14:26:28.000Z</time>
      </trkpt>
      <trkpt lat="45.0851" lon="5.67669">
        <ele>350</ele>
        <time>2013-09-15T14:26:29.000Z</time>
      </trkpt>
      <trkpt lat="45.08514" lon="5.67671">
        <ele>350</ele>
        <time>2013-09-15T14:26:30.000Z</time>
      </trkpt>
      <trkpt lat="45.08519" lon="5.67676">
        <ele>350</ele>
        <time>2013-09-15T14:26:31.000Z</time>
      </trkpt>
      <trkpt lat="45.08523" lon="5.67678">
        <ele>350</ele>
        <time>2013-09-15T14:26:32.000Z</time>
      </trkpt>
      <trkpt lat="45.08528" lon="5.67682">
        <ele>350</ele>
        <time>2013-09-15T14:26:33.000Z</time>
      </trkpt>
      <trkpt lat="45.08533" lon="5.67686">
        <ele>349</ele>
        <time>2013-09-15T14:26:34.000Z</time>
      </trkpt>
      <trkpt lat="45.08537" lon="5.67691">
        <ele>349</ele>
        <time>2013-09-15T14:26:35.000Z</time>
      </trkpt>
      <trkpt lat="45.08541" lon="5.67693">
        <ele>349</ele>
        <time>2013-09-15T14:26:36.000Z</time>
      </trkpt>
      <trkpt lat="45.08546" lon="5.67697">
        <ele>349</ele>
        <time>2013-09-15T14:26:37.000Z</time>
      </trkpt>
      <trkpt lat="45.08551" lon="5.67703">
        <ele>349</ele>
        <time>2013-09-15T14:26:38.000Z</time>
      </trkpt>
      <trkpt lat="45.08557" lon="5.6771">
        <ele>349</ele>
        <time>2013-09-15T14:26:39.000Z</time>
      </trkpt>
      <trkpt lat="45.08563" lon="5.67718">
        <ele>349</ele>
        <time>2013-09-15T14:26:40.000Z</time>
      </trkpt>
      <trkpt lat="45.08569" lon="5.67727">
        <ele>350</ele>
        <time>2013-09-15T14:26:41.000Z</time>
      </trkpt>
      <trkpt lat="45.08574" lon="5.67734">
        <ele>350</ele>
        <time>2013-09-15T14:26:42.000Z</time>
      </trkpt>
      <trkpt lat="45.0858" lon="5.67742">
        <ele>350</ele>
        <time>2013-09-15T14:26:43.000Z</time>
      </trkpt>
      <trkpt lat="45.08584" lon="5.67748">
        <ele>351</ele>
        <time>2013-09-15T14:26:44.000Z</time>
      </trkpt>
      <trkpt lat="45.08588" lon="5.67753">
        <ele>351</ele>
        <time>2013-09-15T14:26:45.000Z</time>
      </trkpt>
      <trkpt lat="45.08593" lon="5.67757">
        <ele>351</ele>
        <time>2013-09-15T14:26:46.000Z</time>
      </trkpt>
      <trkpt lat="45.08599" lon="5.67766">
        <ele>351</ele>
        <time>2013-09-15T14:26:48.000Z</time>
      </trkpt>
      <trkpt lat="45.08603" lon="5.6777">
        <ele>350</ele>
        <time>2013-09-15T14:26:49.000Z</time>
      </trkpt>
      <trkpt lat="45.08611" lon="5.67781">
        <ele>348</ele>
        <time>2013-09-15T14:26:51.000Z</time>
      </trkpt>
      <trkpt lat="45.08617" lon="5.67791">
        <ele>347</ele>
        <time>2013-09-15T14:26:53.000Z</time>
      </trkpt>
      <trkpt lat="45.08621" lon="5.67798">
        <ele>347</ele>
        <time>2013-09-15T14:26:54.000Z</time>
      </trkpt>
      <trkpt lat="45.08624" lon="5.67804">
        <ele>347</ele>
        <time>2013-09-15T14:26:55.000Z</time>
      </trkpt>
      <trkpt lat="45.0863" lon="5.67815">
        <ele>346</ele>
        <time>2013-09-15T14:26:57.000Z</time>
      </trkpt>
      <trkpt lat="45.08633" lon="5.67822">
        <ele>346</ele>
        <time>2013-09-15T14:26:58.000Z</time>
      </trkpt>
      <trkpt lat="45.08638" lon="5.67826">
        <ele>345</ele>
        <time>2013-09-15T14:26:59.000Z</time>
      </trkpt>
      <trkpt lat="45.08642" lon="5.6783">
        <ele>345</ele>
        <time>2013-09-15T14:27:00.000Z</time>
      </trkpt>
      <trkpt lat="45.08646" lon="5.67832">
        <ele>345</ele>
        <time>2013-09-15T14:27:01.000Z</time>
      </trkpt>
      <trkpt lat="45.08652" lon="5.67834">
        <ele>345</ele>
        <time>2013-09-15T14:27:02.000Z</time>
      </trkpt>
      <trkpt lat="45.08661" lon="5.67836">
        <ele>344</ele>
        <time>2013-09-15T14:27:04.000Z</time>
      </trkpt>
      <trkpt lat="45.08668" lon="5.67836">
        <ele>344</ele>
        <time>2013-09-15T14:27:06.000Z</time>
      </trkpt>
      <trkpt lat="45.08674" lon="5.67832">
        <ele>344</ele>
        <time>2013-09-15T14:27:08.000Z</time>
      </trkpt>
      <trkpt lat="45.0868" lon="5.67822">
        <ele>343</ele>
        <time>2013-09-15T14:27:10.000Z</time>
      </trkpt>
      <trkpt lat="45.08681" lon="5.67815">
        <ele>343</ele>
        <time>2013-09-15T14:27:11.000Z</time>
      </trkpt>
      <trkpt lat="45.08683" lon="5.67809">
        <ele>343</ele>
        <time>2013-09-15T14:27:12.000Z</time>
      </trkpt>
      <trkpt lat="45.08685" lon="5.67802">
        <ele>343</ele>
        <time>2013-09-15T14:27:13.000Z</time>
      </trkpt>
      <trkpt lat="45.08687" lon="5.67796">
        <ele>343</ele>
        <time>2013-09-15T14:27:14.000Z</time>
      </trkpt>
      <trkpt lat="45.0869" lon="5.67789">
        <ele>342</ele>
        <time>2013-09-15T14:27:15.000Z</time>
      </trkpt>
      <trkpt lat="45.08695" lon="5.67781">
        <ele>342</ele>
        <time>2013-09-15T14:27:16.000Z</time>
      </trkpt>
      <trkpt lat="45.08699" lon="5.67772">
        <ele>342</ele>
        <time>2013-09-15T14:27:17.000Z</time>
      </trkpt>
      <trkpt lat="45.08704" lon="5.67766">
        <ele>342</ele>
        <time>2013-09-15T14:27:18.000Z</time>
      </trkpt>
      <trkpt lat="45.0871" lon="5.67759">
        <ele>341</ele>
        <time>2013-09-15T14:27:19.000Z</time>
      </trkpt>
      <trkpt lat="45.08715" lon="5.67753">
        <ele>341</ele>
        <time>2013-09-15T14:27:20.000Z</time>
      </trkpt>
      <trkpt lat="45.08719" lon="5.67748">
        <ele>341</ele>
        <time>2013-09-15T14:27:21.000Z</time>
      </trkpt>
      <trkpt lat="45.08725" lon="5.67742">
        <ele>341</ele>
        <time>2013-09-15T14:27:22.000Z</time>
      </trkpt>
      <trkpt lat="45.08729" lon="5.67738">
        <ele>341</ele>
        <time>2013-09-15T14:27:23.000Z</time>
      </trkpt>
      <trkpt lat="45.08733" lon="5.67734">
        <ele>340</ele>
        <time>2013-09-15T14:27:24.000Z</time>
      </trkpt>
      <trkpt lat="45.08736" lon="5.67727">
        <ele>341</ele>
        <time>2013-09-15T14:27:25.000Z</time>
      </trkpt>
      <trkpt lat="45.08743" lon="5.67718">
        <ele>339</ele>
        <time>2013-09-15T14:27:27.000Z</time>
      </trkpt>
      <trkpt lat="45.08743" lon="5.67718">
        <ele>339</ele>
        <time>2013-09-15T14:27:27.000Z</time>
      </trkpt>
      <trkpt lat="45.08743" lon="5.67718">
        <ele>339</ele>
        <time>2013-09-15T14:27:43.000Z</time>
      </trkpt>
      <trkpt lat="45.08735" lon="5.6771">
        <ele>338</ele>
        <time>2013-09-15T14:27:44.000Z</time>
      </trkpt>
      <trkpt lat="45.08735" lon="5.6771">
        <ele>338</ele>
        <time>2013-09-15T14:27:44.000Z</time>
      </trkpt>
      <trkpt lat="45.08735" lon="5.6771">
        <ele>338</ele>
        <time>2013-09-15T14:29:05.000Z</time>
      </trkpt>
      <trkpt lat="45.08743" lon="5.67712">
        <ele>335</ele>
        <time>2013-09-15T14:29:06.000Z</time>
      </trkpt>
      <trkpt lat="45.08747" lon="5.67714">
        <ele>335</ele>
        <time>2013-09-15T14:29:07.000Z</time>
      </trkpt>
      <trkpt lat="45.08752" lon="5.67716">
        <ele>335</ele>
        <time>2013-09-15T14:29:08.000Z</time>
      </trkpt>
      <trkpt lat="45.08757" lon="5.67718">
        <ele>335</ele>
        <time>2013-09-15T14:29:09.000Z</time>
      </trkpt>
      <trkpt lat="45.08765" lon="5.67721">
        <ele>335</ele>
        <time>2013-09-15T14:29:11.000Z</time>
      </trkpt>
      <trkpt lat="45.08772" lon="5.67725">
        <ele>335</ele>
        <time>2013-09-15T14:29:13.000Z</time>
      </trkpt>
      <trkpt lat="45.08778" lon="5.67727">
        <ele>335</ele>
        <time>2013-09-15T14:29:15.000Z</time>
      </trkpt>
      <trkpt lat="45.08783" lon="5.67729">
        <ele>335</ele>
        <time>2013-09-15T14:29:16.000Z</time>
      </trkpt>
      <trkpt lat="45.08791" lon="5.67731">
        <ele>335</ele>
        <time>2013-09-15T14:29:18.000Z</time>
      </trkpt>
      <trkpt lat="45.08795" lon="5.67734">
        <ele>335</ele>
        <time>2013-09-15T14:29:19.000Z</time>
      </trkpt>
      <trkpt lat="45.08804" lon="5.67736">
        <ele>335</ele>
        <time>2013-09-15T14:29:21.000Z</time>
      </trkpt>
      <trkpt lat="45.08813" lon="5.67738">
        <ele>335</ele>
        <time>2013-09-15T14:29:23.000Z</time>
      </trkpt>
      <trkpt lat="45.08821" lon="5.67738">
        <ele>335</ele>
        <time>2013-09-15T14:29:25.000Z</time>
      </trkpt>
      <trkpt lat="45.08826" lon="5.6774">
        <ele>335</ele>
        <time>2013-09-15T14:29:26.000Z</time>
      </trkpt>
      <trkpt lat="45.08834" lon="5.67742">
        <ele>336</ele>
        <time>2013-09-15T14:29:28.000Z</time>
      </trkpt>
      <trkpt lat="45.08842" lon="5.67746">
        <ele>336</ele>
        <time>2013-09-15T14:29:30.000Z</time>
      </trkpt>
      <trkpt lat="45.08846" lon="5.67748">
        <ele>336</ele>
        <time>2013-09-15T14:29:31.000Z</time>
      </trkpt>
      <trkpt lat="45.08853" lon="5.67753">
        <ele>336</ele>
        <time>2013-09-15T14:29:33.000Z</time>
      </trkpt>
      <trkpt lat="45.08858" lon="5.67755">
        <ele>336</ele>
        <time>2013-09-15T14:29:34.000Z</time>
      </trkpt>
      <trkpt lat="45.08863" lon="5.67757">
        <ele>337</ele>
        <time>2013-09-15T14:29:35.000Z</time>
      </trkpt>
      <trkpt lat="45.08867" lon="5.67759">
        <ele>337</ele>
        <time>2013-09-15T14:29:36.000Z</time>
      </trkpt>
      <trkpt lat="45.08872" lon="5.67761">
        <ele>337</ele>
        <time>2013-09-15T14:29:37.000Z</time>
      </trkpt>
      <trkpt lat="45.08876" lon="5.67764">
        <ele>337</ele>
        <time>2013-09-15T14:29:38.000Z</time>
      </trkpt>
      <trkpt lat="45.0888" lon="5.67768">
        <ele>337</ele>
        <time>2013-09-15T14:29:39.000Z</time>
      </trkpt>
      <trkpt lat="45.08884" lon="5.6777">
        <ele>337</ele>
        <time>2013-09-15T14:29:40.000Z</time>
      </trkpt>
      <trkpt lat="45.08889" lon="5.67772">
        <ele>337</ele>
        <time>2013-09-15T14:29:41.000Z</time>
      </trkpt>
      <trkpt lat="45.08897" lon="5.67772">
        <ele>338</ele>
        <time>2013-09-15T14:29:43.000Z</time>
      </trkpt>
      <trkpt lat="45.08906" lon="5.67772">
        <ele>338</ele>
        <time>2013-09-15T14:29:45.000Z</time>
      </trkpt>
      <trkpt lat="45.08914" lon="5.67772">
        <ele>337</ele>
        <time>2013-09-15T14:29:47.000Z</time>
      </trkpt>
      <trkpt lat="45.08919" lon="5.67774">
        <ele>337</ele>
        <time>2013-09-15T14:29:48.000Z</time>
      </trkpt>
      <trkpt lat="45.08923" lon="5.67776">
        <ele>337</ele>
        <time>2013-09-15T14:29:49.000Z</time>
      </trkpt>
      <trkpt lat="45.08928" lon="5.67776">
        <ele>337</ele>
        <time>2013-09-15T14:29:50.000Z</time>
      </trkpt>
      <trkpt lat="45.08933" lon="5.67778">
        <ele>337</ele>
        <time>2013-09-15T14:29:51.000Z</time>
      </trkpt>
      <trkpt lat="45.08937" lon="5.67781">
        <ele>337</ele>
        <time>2013-09-15T14:29:52.000Z</time>
      </trkpt>
      <trkpt lat="45.08942" lon="5.67783">
        <ele>337</ele>
        <time>2013-09-15T14:29:53.000Z</time>
      </trkpt>
      <trkpt lat="45.08947" lon="5.67785">
        <ele>337</ele>
        <time>2013-09-15T14:29:54.000Z</time>
      </trkpt>
      <trkpt lat="45.08951" lon="5.67787">
        <ele>337</ele>
        <time>2013-09-15T14:29:55.000Z</time>
      </trkpt>
      <trkpt lat="45.08956" lon="5.67789">
        <ele>337</ele>
        <time>2013-09-15T14:29:56.000Z</time>
      </trkpt>
      <trkpt lat="45.08961" lon="5.67791">
        <ele>337</ele>
        <time>2013-09-15T14:29:57.000Z</time>
      </trkpt>
      <trkpt lat="45.08966" lon="5.67791">
        <ele>337</ele>
        <time>2013-09-15T14:29:58.000Z</time>
      </trkpt>
      <trkpt lat="45.0897" lon="5.67794">
        <ele>337</ele>
        <time>2013-09-15T14:29:59.000Z</time>
      </trkpt>
      <trkpt lat="45.08976" lon="5.67796">
        <ele>337</ele>
        <time>2013-09-15T14:30:00.000Z</time>
      </trkpt>
      <trkpt lat="45.08981" lon="5.67798">
        <ele>338</ele>
        <time>2013-09-15T14:30:01.000Z</time>
      </trkpt>
      <trkpt lat="45.08986" lon="5.678">
        <ele>338</ele>
        <time>2013-09-15T14:30:02.000Z</time>
      </trkpt>
      <trkpt lat="45.08996" lon="5.67802">
        <ele>337</ele>
        <time>2013-09-15T14:30:04.000Z</time>
      </trkpt>
      <trkpt lat="45.09" lon="5.67804">
        <ele>337</ele>
        <time>2013-09-15T14:30:05.000Z</time>
      </trkpt>
      <trkpt lat="45.09006" lon="5.67806">
        <ele>337</ele>
        <time>2013-09-15T14:30:06.000Z</time>
      </trkpt>
      <trkpt lat="45.09011" lon="5.67809">
        <ele>337</ele>
        <time>2013-09-15T14:30:07.000Z</time>
      </trkpt>
      <trkpt lat="45.09021" lon="5.67811">
        <ele>337</ele>
        <time>2013-09-15T14:30:09.000Z</time>
      </trkpt>
      <trkpt lat="45.09025" lon="5.67813">
        <ele>337</ele>
        <time>2013-09-15T14:30:10.000Z</time>
      </trkpt>
      <trkpt lat="45.09029" lon="5.67815">
        <ele>338</ele>
        <time>2013-09-15T14:30:11.000Z</time>
      </trkpt>
      <trkpt lat="45.09035" lon="5.67815">
        <ele>338</ele>
        <time>2013-09-15T14:30:12.000Z</time>
      </trkpt>
      <trkpt lat="45.09039" lon="5.67817">
        <ele>338</ele>
        <time>2013-09-15T14:30:13.000Z</time>
      </trkpt>
      <trkpt lat="45.09043" lon="5.67819">
        <ele>338</ele>
        <time>2013-09-15T14:30:14.000Z</time>
      </trkpt>
      <trkpt lat="45.09051" lon="5.67824">
        <ele>338</ele>
        <time>2013-09-15T14:30:16.000Z</time>
      </trkpt>
      <trkpt lat="45.09055" lon="5.67826">
        <ele>338</ele>
        <time>2013-09-15T14:30:17.000Z</time>
      </trkpt>
      <trkpt lat="45.09063" lon="5.67832">
        <ele>338</ele>
        <time>2013-09-15T14:30:19.000Z</time>
      </trkpt>
      <trkpt lat="45.0907" lon="5.67841">
        <ele>338</ele>
        <time>2013-09-15T14:30:21.000Z</time>
      </trkpt>
      <trkpt lat="45.09074" lon="5.67845">
        <ele>338</ele>
        <time>2013-09-15T14:30:22.000Z</time>
      </trkpt>
      <trkpt lat="45.09079" lon="5.67847">
        <ele>338</ele>
        <time>2013-09-15T14:30:23.000Z</time>
      </trkpt>
      <trkpt lat="45.09083" lon="5.67852">
        <ele>338</ele>
        <time>2013-09-15T14:30:24.000Z</time>
      </trkpt>
      <trkpt lat="45.0909" lon="5.67856">
        <ele>338</ele>
        <time>2013-09-15T14:30:26.000Z</time>
      </trkpt>
      <trkpt lat="45.09099" lon="5.67858">
        <ele>337</ele>
        <time>2013-09-15T14:30:28.000Z</time>
      </trkpt>
      <trkpt lat="45.09106" lon="5.6786">
        <ele>337</ele>
        <time>2013-09-15T14:30:30.000Z</time>
      </trkpt>
      <trkpt lat="45.09106" lon="5.6786">
        <ele>337</ele>
        <time>2013-09-15T14:30:30.000Z</time>
      </trkpt>
      <trkpt lat="45.09106" lon="5.6786">
        <ele>337</ele>
        <time>2013-09-15T14:30:34.000Z</time>
      </trkpt>
      <trkpt lat="45.09116" lon="5.67862">
        <ele>337</ele>
        <time>2013-09-15T14:30:35.000Z</time>
      </trkpt>
      <trkpt lat="45.09116" lon="5.67862">
        <ele>337</ele>
        <time>2013-09-15T14:30:35.000Z</time>
      </trkpt>
      <trkpt lat="45.09116" lon="5.67862">
        <ele>337</ele>
        <time>2013-09-15T14:30:40.000Z</time>
      </trkpt>
      <trkpt lat="45.09123" lon="5.67852">
        <ele>336</ele>
        <time>2013-09-15T14:30:41.000Z</time>
      </trkpt>
      <trkpt lat="45.09123" lon="5.67852">
        <ele>336</ele>
        <time>2013-09-15T14:30:41.000Z</time>
      </trkpt>
      <trkpt lat="45.09123" lon="5.67852">
        <ele>336</ele>
        <time>2013-09-15T14:30:52.000Z</time>
      </trkpt>
      <trkpt lat="45.09127" lon="5.67856">
        <ele>336</ele>
        <time>2013-09-15T14:30:53.000Z</time>
      </trkpt>
      <trkpt lat="45.09132" lon="5.67858">
        <ele>336</ele>
        <time>2013-09-15T14:30:55.000Z</time>
      </trkpt>
      <trkpt lat="45.0914" lon="5.6786">
        <ele>336</ele>
        <time>2013-09-15T14:30:57.000Z</time>
      </trkpt>
      <trkpt lat="45.09146" lon="5.67862">
        <ele>335</ele>
        <time>2013-09-15T14:30:59.000Z</time>
      </trkpt>
      <trkpt lat="45.09153" lon="5.67866">
        <ele>335</ele>
        <time>2013-09-15T14:31:01.000Z</time>
      </trkpt>
      <trkpt lat="45.09157" lon="5.67875">
        <ele>335</ele>
        <time>2013-09-15T14:31:03.000Z</time>
      </trkpt>
      <trkpt lat="45.09161" lon="5.67886">
        <ele>332</ele>
        <time>2013-09-15T14:31:05.000Z</time>
      </trkpt>
      <trkpt lat="45.09164" lon="5.6789">
        <ele>332</ele>
        <time>2013-09-15T14:31:06.000Z</time>
      </trkpt>
      <trkpt lat="45.09169" lon="5.67899">
        <ele>331</ele>
        <time>2013-09-15T14:31:08.000Z</time>
      </trkpt>
      <trkpt lat="45.09174" lon="5.67907">
        <ele>331</ele>
        <time>2013-09-15T14:31:29.000Z</time>
      </trkpt>
      <trkpt lat="45.09174" lon="5.67907">
        <ele>331</ele>
        <time>2013-09-15T14:31:29.000Z</time>
      </trkpt>
      <trkpt lat="45.09174" lon="5.67907">
        <ele>331</ele>
        <time>2013-09-15T14:31:30.000Z</time>
      </trkpt>
      <trkpt lat="45.09178" lon="5.67914">
        <ele>331</ele>
        <time>2013-09-15T14:31:31.000Z</time>
      </trkpt>
      <trkpt lat="45.09183" lon="5.67922">
        <ele>331</ele>
        <time>2013-09-15T14:31:33.000Z</time>
      </trkpt>
      <trkpt lat="45.09187" lon="5.67931">
        <ele>332</ele>
        <time>2013-09-15T14:31:35.000Z</time>
      </trkpt>
      <trkpt lat="45.09191" lon="5.6794">
        <ele>332</ele>
        <time>2013-09-15T14:31:37.000Z</time>
      </trkpt>
      <trkpt lat="45.09195" lon="5.67944">
        <ele>332</ele>
        <time>2013-09-15T14:31:38.000Z</time>
      </trkpt>
      <trkpt lat="45.092" lon="5.6795">
        <ele>332</ele>
        <time>2013-09-15T14:31:40.000Z</time>
      </trkpt>
      <trkpt lat="45.09203" lon="5.67954">
        <ele>331</ele>
        <time>2013-09-15T14:31:41.000Z</time>
      </trkpt>
      <trkpt lat="45.09205" lon="5.67961">
        <ele>331</ele>
        <time>2013-09-15T14:31:42.000Z</time>
      </trkpt>
      <trkpt lat="45.0921" lon="5.67972">
        <ele>331</ele>
        <time>2013-09-15T14:31:44.000Z</time>
      </trkpt>
      <trkpt lat="45.09216" lon="5.6798">
        <ele>331</ele>
        <time>2013-09-15T14:31:46.000Z</time>
      </trkpt>
      <trkpt lat="45.09219" lon="5.67984">
        <ele>331</ele>
        <time>2013-09-15T14:31:47.000Z</time>
      </trkpt>
      <trkpt lat="45.09222" lon="5.67989">
        <ele>331</ele>
        <time>2013-09-15T14:31:48.000Z</time>
      </trkpt>
      <trkpt lat="45.09229" lon="5.67997">
        <ele>332</ele>
        <time>2013-09-15T14:31:50.000Z</time>
      </trkpt>
      <trkpt lat="45.09233" lon="5.68002">
        <ele>332</ele>
        <time>2013-09-15T14:31:51.000Z</time>
      </trkpt>
      <trkpt lat="45.09241" lon="5.68008">
        <ele>332</ele>
        <time>2013-09-15T14:31:53.000Z</time>
      </trkpt>
      <trkpt lat="45.09245" lon="5.68012">
        <ele>332</ele>
        <time>2013-09-15T14:31:54.000Z</time>
      </trkpt>
      <trkpt lat="45.09249" lon="5.68017">
        <ele>332</ele>
        <time>2013-09-15T14:31:55.000Z</time>
      </trkpt>
      <trkpt lat="45.09254" lon="5.68023">
        <ele>332</ele>
        <time>2013-09-15T14:31:56.000Z</time>
      </trkpt>
      <trkpt lat="45.09259" lon="5.68027">
        <ele>333</ele>
        <time>2013-09-15T14:31:57.000Z</time>
      </trkpt>
      <trkpt lat="45.09263" lon="5.68032">
        <ele>333</ele>
        <time>2013-09-15T14:31:58.000Z</time>
      </trkpt>
      <trkpt lat="45.09268" lon="5.68034">
        <ele>333</ele>
        <time>2013-09-15T14:31:59.000Z</time>
      </trkpt>
      <trkpt lat="45.09273" lon="5.68038">
        <ele>333</ele>
        <time>2013-09-15T14:32:00.000Z</time>
      </trkpt>
      <trkpt lat="45.0928" lon="5.68047">
        <ele>334</ele>
        <time>2013-09-15T14:32:02.000Z</time>
      </trkpt>
      <trkpt lat="45.09285" lon="5.68051">
        <ele>334</ele>
        <time>2013-09-15T14:32:03.000Z</time>
      </trkpt>
      <trkpt lat="45.09289" lon="5.68055">
        <ele>334</ele>
        <time>2013-09-15T14:32:04.000Z</time>
      </trkpt>
      <trkpt lat="45.09293" lon="5.6806">
        <ele>334</ele>
        <time>2013-09-15T14:32:05.000Z</time>
      </trkpt>
      <trkpt lat="45.09298" lon="5.68064">
        <ele>335</ele>
        <time>2013-09-15T14:32:06.000Z</time>
      </trkpt>
      <trkpt lat="45.09302" lon="5.68068">
        <ele>335</ele>
        <time>2013-09-15T14:32:07.000Z</time>
      </trkpt>
      <trkpt lat="45.09309" lon="5.68077">
        <ele>336</ele>
        <time>2013-09-15T14:32:09.000Z</time>
      </trkpt>
      <trkpt lat="45.09314" lon="5.68081">
        <ele>336</ele>
        <time>2013-09-15T14:32:10.000Z</time>
      </trkpt>
      <trkpt lat="45.09322" lon="5.68085">
        <ele>336</ele>
        <time>2013-09-15T14:32:12.000Z</time>
      </trkpt>
      <trkpt lat="45.09328" lon="5.68088">
        <ele>336</ele>
        <time>2013-09-15T14:32:13.000Z</time>
      </trkpt>
      <trkpt lat="45.09332" lon="5.6809">
        <ele>337</ele>
        <time>2013-09-15T14:32:14.000Z</time>
      </trkpt>
      <trkpt lat="45.09337" lon="5.68092">
        <ele>337</ele>
        <time>2013-09-15T14:32:15.000Z</time>
      </trkpt>
      <trkpt lat="45.09342" lon="5.68094">
        <ele>337</ele>
        <time>2013-09-15T14:32:16.000Z</time>
      </trkpt>
      <trkpt lat="45.09347" lon="5.68098">
        <ele>337</ele>
        <time>2013-09-15T14:32:17.000Z</time>
      </trkpt>
      <trkpt lat="45.09351" lon="5.681">
        <ele>337</ele>
        <time>2013-09-15T14:32:18.000Z</time>
      </trkpt>
      <trkpt lat="45.09356" lon="5.68105">
        <ele>337</ele>
        <time>2013-09-15T14:32:19.000Z</time>
      </trkpt>
      <trkpt lat="45.0936" lon="5.68107">
        <ele>337</ele>
        <time>2013-09-15T14:32:20.000Z</time>
      </trkpt>
      <trkpt lat="45.09365" lon="5.68111">
        <ele>337</ele>
        <time>2013-09-15T14:32:21.000Z</time>
      </trkpt>
      <trkpt lat="45.09369" lon="5.68113">
        <ele>337</ele>
        <time>2013-09-15T14:32:22.000Z</time>
      </trkpt>
      <trkpt lat="45.09374" lon="5.68118">
        <ele>336</ele>
        <time>2013-09-15T14:32:23.000Z</time>
      </trkpt>
      <trkpt lat="45.09379" lon="5.6812">
        <ele>335</ele>
        <time>2013-09-15T14:32:24.000Z</time>
      </trkpt>
      <trkpt lat="45.09383" lon="5.68124">
        <ele>335</ele>
        <time>2013-09-15T14:32:25.000Z</time>
      </trkpt>
      <trkpt lat="45.0939" lon="5.68133">
        <ele>335</ele>
        <time>2013-09-15T14:32:27.000Z</time>
      </trkpt>
      <trkpt lat="45.09393" lon="5.68137">
        <ele>335</ele>
        <time>2013-09-15T14:32:28.000Z</time>
      </trkpt>
      <trkpt lat="45.09397" lon="5.68141">
        <ele>335</ele>
        <time>2013-09-15T14:32:29.000Z</time>
      </trkpt>
      <trkpt lat="45.09401" lon="5.68146">
        <ele>335</ele>
        <time>2013-09-15T14:32:30.000Z</time>
      </trkpt>
      <trkpt lat="45.09406" lon="5.68152">
        <ele>335</ele>
        <time>2013-09-15T14:32:32.000Z</time>
      </trkpt>
      <trkpt lat="45.09409" lon="5.68156">
        <ele>335</ele>
        <time>2013-09-15T14:32:33.000Z</time>
      </trkpt>
      <trkpt lat="45.09413" lon="5.68158">
        <ele>334</ele>
        <time>2013-09-15T14:32:34.000Z</time>
      </trkpt>
      <trkpt lat="45.0942" lon="5.68154">
        <ele>334</ele>
        <time>2013-09-15T14:32:36.000Z</time>
      </trkpt>
      <trkpt lat="45.09423" lon="5.68148">
        <ele>332</ele>
        <time>2013-09-15T14:32:37.000Z</time>
      </trkpt>
      <trkpt lat="45.09428" lon="5.68139">
        <ele>330</ele>
        <time>2013-09-15T14:32:39.000Z</time>
      </trkpt>
      <trkpt lat="45.09433" lon="5.6813">
        <ele>329</ele>
        <time>2013-09-15T14:32:41.000Z</time>
      </trkpt>
      <trkpt lat="45.09435" lon="5.68122">
        <ele>329</ele>
        <time>2013-09-15T14:32:43.000Z</time>
      </trkpt>
      <trkpt lat="45.09438" lon="5.68115">
        <ele>329</ele>
        <time>2013-09-15T14:32:45.000Z</time>
      </trkpt>
      <trkpt lat="45.09441" lon="5.68109">
        <ele>329</ele>
        <time>2013-09-15T14:32:47.000Z</time>
      </trkpt>
      <trkpt lat="45.09444" lon="5.68102">
        <ele>328</ele>
        <time>2013-09-15T14:32:49.000Z</time>
      </trkpt>
      <trkpt lat="45.09447" lon="5.68096">
        <ele>328</ele>
        <time>2013-09-15T14:32:51.000Z</time>
      </trkpt>
      <trkpt lat="45.0945" lon="5.68088">
        <ele>328</ele>
        <time>2013-09-15T14:32:53.000Z</time>
      </trkpt>
      <trkpt lat="45.09454" lon="5.68079">
        <ele>328</ele>
        <time>2013-09-15T14:32:56.000Z</time>
      </trkpt>
      <trkpt lat="45.09458" lon="5.6807">
        <ele>327</ele>
        <time>2013-09-15T14:32:59.000Z</time>
      </trkpt>
      <trkpt lat="45.09462" lon="5.68064">
        <ele>327</ele>
        <time>2013-09-15T14:33:01.000Z</time>
      </trkpt>
      <trkpt lat="45.09466" lon="5.68055">
        <ele>327</ele>
        <time>2013-09-15T14:33:03.000Z</time>
      </trkpt>
      <trkpt lat="45.09469" lon="5.68047">
        <ele>327</ele>
        <time>2013-09-15T14:33:05.000Z</time>
      </trkpt>
      <trkpt lat="45.09474" lon="5.68038">
        <ele>327</ele>
        <time>2013-09-15T14:33:07.000Z</time>
      </trkpt>
      <trkpt lat="45.09483" lon="5.68027">
        <ele>326</ele>
        <time>2013-09-15T14:33:12.000Z</time>
      </trkpt>
      <trkpt lat="45.09483" lon="5.68027">
        <ele>326</ele>
        <time>2013-09-15T14:33:12.000Z</time>
      </trkpt>
      <trkpt lat="45.09483" lon="5.68027">
        <ele>326</ele>
        <time>2013-09-15T14:33:13.000Z</time>
      </trkpt>
      <trkpt lat="45.09484" lon="5.68021">
        <ele>326</ele>
        <time>2013-09-15T14:33:14.000Z</time>
      </trkpt>
      <trkpt lat="45.09486" lon="5.68012">
        <ele>326</ele>
        <time>2013-09-15T14:33:16.000Z</time>
      </trkpt>
      <trkpt lat="45.0949" lon="5.68002">
        <ele>324</ele>
        <time>2013-09-15T14:33:18.000Z</time>
      </trkpt>
      <trkpt lat="45.09492" lon="5.67995">
        <ele>324</ele>
        <time>2013-09-15T14:33:19.000Z</time>
      </trkpt>
      <trkpt lat="45.09494" lon="5.67989">
        <ele>324</ele>
        <time>2013-09-15T14:33:20.000Z</time>
      </trkpt>
      <trkpt lat="45.09499" lon="5.6798">
        <ele>324</ele>
        <time>2013-09-15T14:33:22.000Z</time>
      </trkpt>
      <trkpt lat="45.09501" lon="5.67974">
        <ele>324</ele>
        <time>2013-09-15T14:33:23.000Z</time>
      </trkpt>
      <trkpt lat="45.09506" lon="5.67963">
        <ele>325</ele>
        <time>2013-09-15T14:33:25.000Z</time>
      </trkpt>
      <trkpt lat="45.09508" lon="5.67957">
        <ele>325</ele>
        <time>2013-09-15T14:33:26.000Z</time>
      </trkpt>
      <trkpt lat="45.09511" lon="5.67946">
        <ele>325</ele>
        <time>2013-09-15T14:33:28.000Z</time>
      </trkpt>
      <trkpt lat="45.09514" lon="5.6794">
        <ele>326</ele>
        <time>2013-09-15T14:33:29.000Z</time>
      </trkpt>
      <trkpt lat="45.09519" lon="5.67929">
        <ele>326</ele>
        <time>2013-09-15T14:33:31.000Z</time>
      </trkpt>
      <trkpt lat="45.09521" lon="5.67922">
        <ele>326</ele>
        <time>2013-09-15T14:33:32.000Z</time>
      </trkpt>
      <trkpt lat="45.09524" lon="5.67912">
        <ele>326</ele>
        <time>2013-09-15T14:33:34.000Z</time>
      </trkpt>
      <trkpt lat="45.09529" lon="5.67901">
        <ele>326</ele>
        <time>2013-09-15T14:33:36.000Z</time>
      </trkpt>
      <trkpt lat="45.09534" lon="5.6789">
        <ele>326</ele>
        <time>2013-09-15T14:33:38.000Z</time>
      </trkpt>
      <trkpt lat="45.09536" lon="5.67884">
        <ele>326</ele>
        <time>2013-09-15T14:33:39.000Z</time>
      </trkpt>
      <trkpt lat="45.09541" lon="5.67873">
        <ele>326</ele>
        <time>2013-09-15T14:33:41.000Z</time>
      </trkpt>
      <trkpt lat="45.09543" lon="5.67866">
        <ele>326</ele>
        <time>2013-09-15T14:33:42.000Z</time>
      </trkpt>
      <trkpt lat="45.09545" lon="5.6786">
        <ele>326</ele>
        <time>2013-09-15T14:33:43.000Z</time>
      </trkpt>
      <trkpt lat="45.0955" lon="5.67849">
        <ele>326</ele>
        <time>2013-09-15T14:33:45.000Z</time>
      </trkpt>
      <trkpt lat="45.09552" lon="5.67843">
        <ele>326</ele>
        <time>2013-09-15T14:33:46.000Z</time>
      </trkpt>
      <trkpt lat="45.09556" lon="5.67832">
        <ele>326</ele>
        <time>2013-09-15T14:33:48.000Z</time>
      </trkpt>
      <trkpt lat="45.09558" lon="5.67826">
        <ele>326</ele>
        <time>2013-09-15T14:33:49.000Z</time>
      </trkpt>
      <trkpt lat="45.09562" lon="5.67815">
        <ele>326</ele>
        <time>2013-09-15T14:33:51.000Z</time>
      </trkpt>
      <trkpt lat="45.09565" lon="5.67804">
        <ele>327</ele>
        <time>2013-09-15T14:33:53.000Z</time>
      </trkpt>
      <trkpt lat="45.09568" lon="5.67796">
        <ele>326</ele>
        <time>2013-09-15T14:33:55.000Z</time>
      </trkpt>
      <trkpt lat="45.0957" lon="5.67787">
        <ele>326</ele>
        <time>2013-09-15T14:33:57.000Z</time>
      </trkpt>
      <trkpt lat="45.09572" lon="5.67781">
        <ele>326</ele>
        <time>2013-09-15T14:33:58.000Z</time>
      </trkpt>
      <trkpt lat="45.09574" lon="5.67772">
        <ele>326</ele>
        <time>2013-09-15T14:34:00.000Z</time>
      </trkpt>
      <trkpt lat="45.09578" lon="5.67761">
        <ele>325</ele>
        <time>2013-09-15T14:34:02.000Z</time>
      </trkpt>
      <trkpt lat="45.09579" lon="5.67755">
        <ele>325</ele>
        <time>2013-09-15T14:34:03.000Z</time>
      </trkpt>
      <trkpt lat="45.09582" lon="5.67744">
        <ele>324</ele>
        <time>2013-09-15T14:34:05.000Z</time>
      </trkpt>
      <trkpt lat="45.09583" lon="5.67738">
        <ele>324</ele>
        <time>2013-09-15T14:34:06.000Z</time>
      </trkpt>
      <trkpt lat="45.09586" lon="5.67727">
        <ele>324</ele>
        <time>2013-09-15T14:34:08.000Z</time>
      </trkpt>
      <trkpt lat="45.09588" lon="5.67721">
        <ele>324</ele>
        <time>2013-09-15T14:34:09.000Z</time>
      </trkpt>
      <trkpt lat="45.09592" lon="5.6771">
        <ele>324</ele>
        <time>2013-09-15T14:34:11.000Z</time>
      </trkpt>
      <trkpt lat="45.09594" lon="5.67701">
        <ele>324</ele>
        <time>2013-09-15T14:34:13.000Z</time>
      </trkpt>
      <trkpt lat="45.09596" lon="5.67693">
        <ele>324</ele>
        <time>2013-09-15T14:34:15.000Z</time>
      </trkpt>
      <trkpt lat="45.09599" lon="5.67684">
        <ele>324</ele>
        <time>2013-09-15T14:34:17.000Z</time>
      </trkpt>
      <trkpt lat="45.09601" lon="5.67676">
        <ele>324</ele>
        <time>2013-09-15T14:34:19.000Z</time>
      </trkpt>
      <trkpt lat="45.09603" lon="5.67669">
        <ele>324</ele>
        <time>2013-09-15T14:34:21.000Z</time>
      </trkpt>
      <trkpt lat="45.09603" lon="5.67669">
        <ele>324</ele>
        <time>2013-09-15T14:34:21.000Z</time>
      </trkpt>
      <trkpt lat="45.09603" lon="5.67669">
        <ele>324</ele>
        <time>2013-09-15T14:34:38.000Z</time>
      </trkpt>
      <trkpt lat="45.096" lon="5.67678">
        <ele>324</ele>
        <time>2013-09-15T14:34:41.000Z</time>
      </trkpt>
      <trkpt lat="45.09598" lon="5.67684">
        <ele>324</ele>
        <time>2013-09-15T14:34:43.000Z</time>
      </trkpt>
      <trkpt lat="45.09595" lon="5.67693">
        <ele>324</ele>
        <time>2013-09-15T14:34:45.000Z</time>
      </trkpt>
      <trkpt lat="45.09593" lon="5.67703">
        <ele>324</ele>
        <time>2013-09-15T14:34:47.000Z</time>
      </trkpt>
      <trkpt lat="45.0959" lon="5.67714">
        <ele>324</ele>
        <time>2013-09-15T14:34:49.000Z</time>
      </trkpt>
      <trkpt lat="45.09588" lon="5.67725">
        <ele>324</ele>
        <time>2013-09-15T14:34:51.000Z</time>
      </trkpt>
      <trkpt lat="45.09587" lon="5.67731">
        <ele>324</ele>
        <time>2013-09-15T14:34:52.000Z</time>
      </trkpt>
      <trkpt lat="45.09585" lon="5.67742">
        <ele>324</ele>
        <time>2013-09-15T14:34:54.000Z</time>
      </trkpt>
      <trkpt lat="45.09583" lon="5.67753">
        <ele>324</ele>
        <time>2013-09-15T14:34:56.000Z</time>
      </trkpt>
      <trkpt lat="45.0958" lon="5.67764">
        <ele>324</ele>
        <time>2013-09-15T14:34:58.000Z</time>
      </trkpt>
      <trkpt lat="45.09578" lon="5.67774">
        <ele>324</ele>
        <time>2013-09-15T14:35:00.000Z</time>
      </trkpt>
      <trkpt lat="45.09574" lon="5.67785">
        <ele>324</ele>
        <time>2013-09-15T14:35:02.000Z</time>
      </trkpt>
      <trkpt lat="45.09572" lon="5.67796">
        <ele>324</ele>
        <time>2013-09-15T14:35:04.000Z</time>
      </trkpt>
      <trkpt lat="45.09569" lon="5.67804">
        <ele>324</ele>
        <time>2013-09-15T14:35:06.000Z</time>
      </trkpt>
      <trkpt lat="45.09566" lon="5.67813">
        <ele>324</ele>
        <time>2013-09-15T14:35:08.000Z</time>
      </trkpt>
      <trkpt lat="45.09563" lon="5.67824">
        <ele>324</ele>
        <time>2013-09-15T14:35:10.000Z</time>
      </trkpt>
      <trkpt lat="45.09559" lon="5.67832">
        <ele>324</ele>
        <time>2013-09-15T14:35:12.000Z</time>
      </trkpt>
      <trkpt lat="45.09556" lon="5.67843">
        <ele>323</ele>
        <time>2013-09-15T14:35:14.000Z</time>
      </trkpt>
      <trkpt lat="45.09552" lon="5.67852">
        <ele>323</ele>
        <time>2013-09-15T14:35:16.000Z</time>
      </trkpt>
      <trkpt lat="45.09549" lon="5.67862">
        <ele>322</ele>
        <time>2013-09-15T14:35:18.000Z</time>
      </trkpt>
      <trkpt lat="45.09544" lon="5.67871">
        <ele>322</ele>
        <time>2013-09-15T14:35:20.000Z</time>
      </trkpt>
      <trkpt lat="45.0954" lon="5.67879">
        <ele>322</ele>
        <time>2013-09-15T14:35:22.000Z</time>
      </trkpt>
      <trkpt lat="45.09539" lon="5.67886">
        <ele>322</ele>
        <time>2013-09-15T14:35:23.000Z</time>
      </trkpt>
      <trkpt lat="45.09535" lon="5.67894">
        <ele>322</ele>
        <time>2013-09-15T14:35:25.000Z</time>
      </trkpt>
      <trkpt lat="45.09532" lon="5.67903">
        <ele>322</ele>
        <time>2013-09-15T14:35:27.000Z</time>
      </trkpt>
      <trkpt lat="45.09529" lon="5.67912">
        <ele>322</ele>
        <time>2013-09-15T14:35:29.000Z</time>
      </trkpt>
      <trkpt lat="45.09526" lon="5.6792">
        <ele>322</ele>
        <time>2013-09-15T14:35:31.000Z</time>
      </trkpt>
      <trkpt lat="45.09523" lon="5.67931">
        <ele>322</ele>
        <time>2013-09-15T14:35:33.000Z</time>
      </trkpt>
      <trkpt lat="45.09519" lon="5.6794">
        <ele>322</ele>
        <time>2013-09-15T14:35:35.000Z</time>
      </trkpt>
      <trkpt lat="45.09514" lon="5.67948">
        <ele>322</ele>
        <time>2013-09-15T14:35:37.000Z</time>
      </trkpt>
      <trkpt lat="45.0951" lon="5.67957">
        <ele>322</ele>
        <time>2013-09-15T14:35:39.000Z</time>
      </trkpt>
      <trkpt lat="45.09507" lon="5.67965">
        <ele>321</ele>
        <time>2013-09-15T14:35:41.000Z</time>
      </trkpt>
      <trkpt lat="45.09502" lon="5.67974">
        <ele>321</ele>
        <time>2013-09-15T14:35:43.000Z</time>
      </trkpt>
      <trkpt lat="45.09501" lon="5.6798">
        <ele>321</ele>
        <time>2013-09-15T14:35:44.000Z</time>
      </trkpt>
      <trkpt lat="45.09497" lon="5.67987">
        <ele>321</ele>
        <time>2013-09-15T14:35:46.000Z</time>
      </trkpt>
      <trkpt lat="45.09494" lon="5.67995">
        <ele>321</ele>
        <time>2013-09-15T14:35:48.000Z</time>
      </trkpt>
      <trkpt lat="45.09491" lon="5.68002">
        <ele>321</ele>
        <time>2013-09-15T14:35:50.000Z</time>
      </trkpt>
      <trkpt lat="45.09488" lon="5.6801">
        <ele>321</ele>
        <time>2013-09-15T14:35:53.000Z</time>
      </trkpt>
      <trkpt lat="45.09488" lon="5.6801">
        <ele>321</ele>
        <time>2013-09-15T14:35:53.000Z</time>
      </trkpt>
      <trkpt lat="45.09488" lon="5.6801">
        <ele>321</ele>
        <time>2013-09-15T14:35:55.000Z</time>
      </trkpt>
      <trkpt lat="45.09485" lon="5.68017">
        <ele>320</ele>
        <time>2013-09-15T14:35:56.000Z</time>
      </trkpt>
      <trkpt lat="45.09485" lon="5.68017">
        <ele>320</ele>
        <time>2013-09-15T14:35:56.000Z</time>
      </trkpt>
      <trkpt lat="45.09485" lon="5.68017">
        <ele>320</ele>
        <time>2013-09-15T14:35:57.000Z</time>
      </trkpt>
      <trkpt lat="45.09482" lon="5.68023">
        <ele>320</ele>
        <time>2013-09-15T14:35:58.000Z</time>
      </trkpt>
      <trkpt lat="45.09479" lon="5.6803">
        <ele>320</ele>
        <time>2013-09-15T14:36:00.000Z</time>
      </trkpt>
      <trkpt lat="45.09476" lon="5.68036">
        <ele>320</ele>
        <time>2013-09-15T14:36:02.000Z</time>
      </trkpt>
      <trkpt lat="45.09471" lon="5.68045">
        <ele>320</ele>
        <time>2013-09-15T14:36:04.000Z</time>
      </trkpt>
      <trkpt lat="45.09468" lon="5.68053">
        <ele>320</ele>
        <time>2013-09-15T14:36:06.000Z</time>
      </trkpt>
      <trkpt lat="45.09465" lon="5.68062">
        <ele>319</ele>
        <time>2013-09-15T14:36:08.000Z</time>
      </trkpt>
      <trkpt lat="45.09463" lon="5.68068">
        <ele>319</ele>
        <time>2013-09-15T14:36:09.000Z</time>
      </trkpt>
      <trkpt lat="45.0946" lon="5.68077">
        <ele>319</ele>
        <time>2013-09-15T14:36:11.000Z</time>
      </trkpt>
      <trkpt lat="45.09457" lon="5.68083">
        <ele>319</ele>
        <time>2013-09-15T14:36:12.000Z</time>
      </trkpt>
      <trkpt lat="45.09454" lon="5.68092">
        <ele>319</ele>
        <time>2013-09-15T14:36:14.000Z</time>
      </trkpt>
      <trkpt lat="45.09452" lon="5.68098">
        <ele>319</ele>
        <time>2013-09-15T14:36:15.000Z</time>
      </trkpt>
      <trkpt lat="45.09449" lon="5.68107">
        <ele>319</ele>
        <time>2013-09-15T14:36:17.000Z</time>
      </trkpt>
      <trkpt lat="45.09446" lon="5.68115">
        <ele>319</ele>
        <time>2013-09-15T14:36:19.000Z</time>
      </trkpt>
      <trkpt lat="45.09442" lon="5.68122">
        <ele>319</ele>
        <time>2013-09-15T14:36:21.000Z</time>
      </trkpt>
      <trkpt lat="45.09439" lon="5.68128">
        <ele>319</ele>
        <time>2013-09-15T14:36:23.000Z</time>
      </trkpt>
      <trkpt lat="45.09436" lon="5.68135">
        <ele>319</ele>
        <time>2013-09-15T14:36:25.000Z</time>
      </trkpt>
      <trkpt lat="45.09431" lon="5.68137">
        <ele>319</ele>
        <time>2013-09-15T14:36:27.000Z</time>
      </trkpt>
      <trkpt lat="45.0943" lon="5.68146">
        <ele>318</ele>
        <time>2013-09-15T14:36:29.000Z</time>
      </trkpt>
      <trkpt lat="45.0943" lon="5.68154">
        <ele>318</ele>
        <time>2013-09-15T14:36:31.000Z</time>
      </trkpt>
      <trkpt lat="45.0943" lon="5.68163">
        <ele>318</ele>
        <time>2013-09-15T14:36:33.000Z</time>
      </trkpt>
      <trkpt lat="45.09431" lon="5.68171">
        <ele>318</ele>
        <time>2013-09-15T14:36:35.000Z</time>
      </trkpt>
      <trkpt lat="45.09427" lon="5.68178">
        <ele>318</ele>
        <time>2013-09-15T14:36:37.000Z</time>
      </trkpt>
      <trkpt lat="45.09422" lon="5.68184">
        <ele>318</ele>
        <time>2013-09-15T14:36:39.000Z</time>
      </trkpt>
      <trkpt lat="45.09416" lon="5.68193">
        <ele>318</ele>
        <time>2013-09-15T14:36:41.000Z</time>
      </trkpt>
      <trkpt lat="45.09411" lon="5.68195">
        <ele>318</ele>
        <time>2013-09-15T14:36:42.000Z</time>
      </trkpt>
      <trkpt lat="45.09404" lon="5.68203">
        <ele>318</ele>
        <time>2013-09-15T14:36:44.000Z</time>
      </trkpt>
      <trkpt lat="45.094" lon="5.68206">
        <ele>318</ele>
        <time>2013-09-15T14:36:45.000Z</time>
      </trkpt>
      <trkpt lat="45.09395" lon="5.6821">
        <ele>318</ele>
        <time>2013-09-15T14:36:46.000Z</time>
      </trkpt>
      <trkpt lat="45.0939" lon="5.68218">
        <ele>318</ele>
        <time>2013-09-15T14:36:48.000Z</time>
      </trkpt>
      <trkpt lat="45.09384" lon="5.68225">
        <ele>318</ele>
        <time>2013-09-15T14:36:50.000Z</time>
      </trkpt>
      <trkpt lat="45.0938" lon="5.68231">
        <ele>318</ele>
        <time>2013-09-15T14:36:52.000Z</time>
      </trkpt>
      <trkpt lat="45.09376" lon="5.6824">
        <ele>318</ele>
        <time>2013-09-15T14:36:54.000Z</time>
      </trkpt>
      <trkpt lat="45.09372" lon="5.68246">
        <ele>318</ele>
        <time>2013-09-15T14:36:56.000Z</time>
      </trkpt>
      <trkpt lat="45.09367" lon="5.68255">
        <ele>318</ele>
        <time>2013-09-15T14:36:58.000Z</time>
      </trkpt>
      <trkpt lat="45.09362" lon="5.68261">
        <ele>318</ele>
        <time>2013-09-15T14:37:00.000Z</time>
      </trkpt>
      <trkpt lat="45.09359" lon="5.6827">
        <ele>318</ele>
        <time>2013-09-15T14:37:02.000Z</time>
      </trkpt>
      <trkpt lat="45.09354" lon="5.68276">
        <ele>318</ele>
        <time>2013-09-15T14:37:04.000Z</time>
      </trkpt>
      <trkpt lat="45.0935" lon="5.68285">
        <ele>319</ele>
        <time>2013-09-15T14:37:06.000Z</time>
      </trkpt>
      <trkpt lat="45.09345" lon="5.68294">
        <ele>319</ele>
        <time>2013-09-15T14:37:08.000Z</time>
      </trkpt>
      <trkpt lat="45.09342" lon="5.68302">
        <ele>319</ele>
        <time>2013-09-15T14:37:10.000Z</time>
      </trkpt>
      <trkpt lat="45.09337" lon="5.68311">
        <ele>319</ele>
        <time>2013-09-15T14:37:12.000Z</time>
      </trkpt>
      <trkpt lat="45.09333" lon="5.68317">
        <ele>319</ele>
        <time>2013-09-15T14:37:14.000Z</time>
      </trkpt>
      <trkpt lat="45.09329" lon="5.68326">
        <ele>319</ele>
        <time>2013-09-15T14:37:16.000Z</time>
      </trkpt>
      <trkpt lat="45.09326" lon="5.68334">
        <ele>319</ele>
        <time>2013-09-15T14:37:18.000Z</time>
      </trkpt>
      <trkpt lat="45.09326" lon="5.68341">
        <ele>319</ele>
        <time>2013-09-15T14:37:19.000Z</time>
      </trkpt>
      <trkpt lat="45.09324" lon="5.68352">
        <ele>319</ele>
        <time>2013-09-15T14:37:21.000Z</time>
      </trkpt>
      <trkpt lat="45.09326" lon="5.68369">
        <ele>319</ele>
        <time>2013-09-15T14:37:25.000Z</time>
      </trkpt>
      <trkpt lat="45.09326" lon="5.68369">
        <ele>319</ele>
        <time>2013-09-15T14:37:25.000Z</time>
      </trkpt>
      <trkpt lat="45.09326" lon="5.68369">
        <ele>319</ele>
        <time>2013-09-15T14:37:27.000Z</time>
      </trkpt>
      <trkpt lat="45.09331" lon="5.68382">
        <ele>320</ele>
        <time>2013-09-15T14:37:28.000Z</time>
      </trkpt>
      <trkpt lat="45.09331" lon="5.68382">
        <ele>320</ele>
        <time>2013-09-15T14:37:28.000Z</time>
      </trkpt>
      <trkpt lat="45.09331" lon="5.68382">
        <ele>320</ele>
        <time>2013-09-15T14:37:34.000Z</time>
      </trkpt>
      <trkpt lat="45.09338" lon="5.68388">
        <ele>321</ele>
        <time>2013-09-15T14:37:35.000Z</time>
      </trkpt>
      <trkpt lat="45.09338" lon="5.68388">
        <ele>321</ele>
        <time>2013-09-15T14:37:35.000Z</time>
      </trkpt>
      <trkpt lat="45.09338" lon="5.68388">
        <ele>321</ele>
        <time>2013-09-15T14:38:12.000Z</time>
      </trkpt>
      <trkpt lat="45.09337" lon="5.68399">
        <ele>321</ele>
        <time>2013-09-15T14:38:13.000Z</time>
      </trkpt>
      <trkpt lat="45.09335" lon="5.68405">
        <ele>321</ele>
        <time>2013-09-15T14:38:14.000Z</time>
      </trkpt>
      <trkpt lat="45.0933" lon="5.68412">
        <ele>321</ele>
        <time>2013-09-15T14:38:16.000Z</time>
      </trkpt>
      <trkpt lat="45.09326" lon="5.68416">
        <ele>321</ele>
        <time>2013-09-15T14:38:17.000Z</time>
      </trkpt>
      <trkpt lat="45.09319" lon="5.68422">
        <ele>320</ele>
        <time>2013-09-15T14:38:19.000Z</time>
      </trkpt>
      <trkpt lat="45.09316" lon="5.68429">
        <ele>320</ele>
        <time>2013-09-15T14:38:20.000Z</time>
      </trkpt>
      <trkpt lat="45.0931" lon="5.68437">
        <ele>319</ele>
        <time>2013-09-15T14:38:22.000Z</time>
      </trkpt>
      <trkpt lat="45.09308" lon="5.68444">
        <ele>319</ele>
        <time>2013-09-15T14:38:23.000Z</time>
      </trkpt>
      <trkpt lat="45.09303" lon="5.68454">
        <ele>319</ele>
        <time>2013-09-15T14:38:25.000Z</time>
      </trkpt>
      <trkpt lat="45.09296" lon="5.68465">
        <ele>319</ele>
        <time>2013-09-15T14:38:27.000Z</time>
      </trkpt>
      <trkpt lat="45.0929" lon="5.68474">
        <ele>319</ele>
        <time>2013-09-15T14:38:29.000Z</time>
      </trkpt>
      <trkpt lat="45.09287" lon="5.6848">
        <ele>319</ele>
        <time>2013-09-15T14:38:30.000Z</time>
      </trkpt>
      <trkpt lat="45.09282" lon="5.68489">
        <ele>319</ele>
        <time>2013-09-15T14:38:32.000Z</time>
      </trkpt>
      <trkpt lat="45.09278" lon="5.68495">
        <ele>319</ele>
        <time>2013-09-15T14:38:33.000Z</time>
      </trkpt>
      <trkpt lat="45.09273" lon="5.68504">
        <ele>319</ele>
        <time>2013-09-15T14:38:35.000Z</time>
      </trkpt>
      <trkpt lat="45.09268" lon="5.68512">
        <ele>319</ele>
        <time>2013-09-15T14:38:37.000Z</time>
      </trkpt>
      <trkpt lat="45.09261" lon="5.68521">
        <ele>318</ele>
        <time>2013-09-15T14:38:39.000Z</time>
      </trkpt>
      <trkpt lat="45.09255" lon="5.68527">
        <ele>318</ele>
        <time>2013-09-15T14:38:41.000Z</time>
      </trkpt>
      <trkpt lat="45.09249" lon="5.68536">
        <ele>318</ele>
        <time>2013-09-15T14:38:43.000Z</time>
      </trkpt>
      <trkpt lat="45.09245" lon="5.68545">
        <ele>318</ele>
        <time>2013-09-15T14:38:45.000Z</time>
      </trkpt>
      <trkpt lat="45.09241" lon="5.68553">
        <ele>318</ele>
        <time>2013-09-15T14:38:47.000Z</time>
      </trkpt>
      <trkpt lat="45.09236" lon="5.68558">
        <ele>319</ele>
        <time>2013-09-15T14:38:49.000Z</time>
      </trkpt>
      <trkpt lat="45.0923" lon="5.68572">
        <ele>319</ele>
        <time>2013-09-15T14:38:57.000Z</time>
      </trkpt>
      <trkpt lat="45.0923" lon="5.68572">
        <ele>319</ele>
        <time>2013-09-15T14:38:57.000Z</time>
      </trkpt>
      <trkpt lat="45.0923" lon="5.68572">
        <ele>319</ele>
        <time>2013-09-15T14:39:01.000Z</time>
      </trkpt>
      <trkpt lat="45.09229" lon="5.68579">
        <ele>319</ele>
        <time>2013-09-15T14:39:02.000Z</time>
      </trkpt>
      <trkpt lat="45.09229" lon="5.68579">
        <ele>319</ele>
        <time>2013-09-15T14:39:02.000Z</time>
      </trkpt>
      <trkpt lat="45.09229" lon="5.68579">
        <ele>319</ele>
        <time>2013-09-15T14:39:11.000Z</time>
      </trkpt>
      <trkpt lat="45.09231" lon="5.68588">
        <ele>320</ele>
        <time>2013-09-15T14:39:12.000Z</time>
      </trkpt>
      <trkpt lat="45.09231" lon="5.68588">
        <ele>320</ele>
        <time>2013-09-15T14:39:12.000Z</time>
      </trkpt>
      <trkpt lat="45.09231" lon="5.68588">
        <ele>320</ele>
        <time>2013-09-15T14:39:14.000Z</time>
      </trkpt>
      <trkpt lat="45.09234" lon="5.68592">
        <ele>320</ele>
        <time>2013-09-15T14:39:15.000Z</time>
      </trkpt>
      <trkpt lat="45.09234" lon="5.68592">
        <ele>320</ele>
        <time>2013-09-15T14:39:15.000Z</time>
      </trkpt>
      <trkpt lat="45.09234" lon="5.68592">
        <ele>320</ele>
        <time>2013-09-15T14:39:20.000Z</time>
      </trkpt>
      <trkpt lat="45.09242" lon="5.68602">
        <ele>321</ele>
        <time>2013-09-15T14:39:21.000Z</time>
      </trkpt>
      <trkpt lat="45.09242" lon="5.68602">
        <ele>321</ele>
        <time>2013-09-15T14:39:21.000Z</time>
      </trkpt>
      <trkpt lat="45.09242" lon="5.68602">
        <ele>321</ele>
        <time>2013-09-15T14:39:26.000Z</time>
      </trkpt>
      <trkpt lat="45.09249" lon="5.68609">
        <ele>322</ele>
        <time>2013-09-15T14:39:27.000Z</time>
      </trkpt>
      <trkpt lat="45.09249" lon="5.68609">
        <ele>322</ele>
        <time>2013-09-15T14:39:27.000Z</time>
      </trkpt>
      <trkpt lat="45.09249" lon="5.68609">
        <ele>322</ele>
        <time>2013-09-15T14:39:31.000Z</time>
      </trkpt>
      <trkpt lat="45.09256" lon="5.68613">
        <ele>323</ele>
        <time>2013-09-15T14:39:32.000Z</time>
      </trkpt>
      <trkpt lat="45.09256" lon="5.68613">
        <ele>323</ele>
        <time>2013-09-15T14:39:32.000Z</time>
      </trkpt>
      <trkpt lat="45.09256" lon="5.68613">
        <ele>323</ele>
        <time>2013-09-15T14:39:35.000Z</time>
      </trkpt>
      <trkpt lat="45.09261" lon="5.68615">
        <ele>323</ele>
        <time>2013-09-15T14:39:36.000Z</time>
      </trkpt>
      <trkpt lat="45.09261" lon="5.68615">
        <ele>323</ele>
        <time>2013-09-15T14:39:36.000Z</time>
      </trkpt>
      <trkpt lat="45.09261" lon="5.68615">
        <ele>323</ele>
        <time>2013-09-15T14:39:42.000Z</time>
      </trkpt>
      <trkpt lat="45.0927" lon="5.68622">
        <ele>324</ele>
        <time>2013-09-15T14:39:43.000Z</time>
      </trkpt>
      <trkpt lat="45.0927" lon="5.68622">
        <ele>324</ele>
        <time>2013-09-15T14:39:43.000Z</time>
      </trkpt>
      <trkpt lat="45.0927" lon="5.68622">
        <ele>324</ele>
        <time>2013-09-15T14:39:53.000Z</time>
      </trkpt>
      <trkpt lat="45.09273" lon="5.68633">
        <ele>325</ele>
        <time>2013-09-15T14:39:54.000Z</time>
      </trkpt>
      <trkpt lat="45.09273" lon="5.68633">
        <ele>325</ele>
        <time>2013-09-15T14:39:54.000Z</time>
      </trkpt>
      <trkpt lat="45.09273" lon="5.68633">
        <ele>325</ele>
        <time>2013-09-15T14:40:07.000Z</time>
      </trkpt>
      <trkpt lat="45.09269" lon="5.68641">
        <ele>326</ele>
        <time>2013-09-15T14:40:08.000Z</time>
      </trkpt>
      <trkpt lat="45.09269" lon="5.68641">
        <ele>326</ele>
        <time>2013-09-15T14:40:08.000Z</time>
      </trkpt>
      <trkpt lat="45.09269" lon="5.68641">
        <ele>326</ele>
        <time>2013-09-15T14:40:14.000Z</time>
      </trkpt>
      <trkpt lat="45.09263" lon="5.68643">
        <ele>327</ele>
        <time>2013-09-15T14:40:15.000Z</time>
      </trkpt>
      <trkpt lat="45.09263" lon="5.68643">
        <ele>327</ele>
        <time>2013-09-15T14:40:15.000Z</time>
      </trkpt>
      <trkpt lat="45.09263" lon="5.68643">
        <ele>327</ele>
        <time>2013-09-15T14:40:21.000Z</time>
      </trkpt>
      <trkpt lat="45.09255" lon="5.68643">
        <ele>330</ele>
        <time>2013-09-15T14:40:27.000Z</time>
      </trkpt>
      <trkpt lat="45.09255" lon="5.68643">
        <ele>330</ele>
        <time>2013-09-15T14:40:27.000Z</time>
      </trkpt>
      <trkpt lat="45.09255" lon="5.68643">
        <ele>330</ele>
        <time>2013-09-15T14:40:37.000Z</time>
      </trkpt>
      <trkpt lat="45.09248" lon="5.68645">
        <ele>332</ele>
        <time>2013-09-15T14:40:38.000Z</time>
      </trkpt>
      <trkpt lat="45.09248" lon="5.68645">
        <ele>332</ele>
        <time>2013-09-15T14:40:38.000Z</time>
      </trkpt>
      <trkpt lat="45.09248" lon="5.68645">
        <ele>332</ele>
        <time>2013-09-15T14:40:41.000Z</time>
      </trkpt>
      <trkpt lat="45.09244" lon="5.68648">
        <ele>332</ele>
        <time>2013-09-15T14:40:42.000Z</time>
      </trkpt>
      <trkpt lat="45.09244" lon="5.68648">
        <ele>332</ele>
        <time>2013-09-15T14:40:42.000Z</time>
      </trkpt>
      <trkpt lat="45.09244" lon="5.68648">
        <ele>332</ele>
        <time>2013-09-15T14:40:49.000Z</time>
      </trkpt>
      <trkpt lat="45.09236" lon="5.68656">
        <ele>334</ele>
        <time>2013-09-15T14:40:50.000Z</time>
      </trkpt>
      <trkpt lat="45.09236" lon="5.68656">
        <ele>334</ele>
        <time>2013-09-15T14:40:50.000Z</time>
      </trkpt>
      <trkpt lat="45.09236" lon="5.68656">
        <ele>334</ele>
        <time>2013-09-15T14:40:55.000Z</time>
      </trkpt>
      <trkpt lat="45.09232" lon="5.68669">
        <ele>335</ele>
        <time>2013-09-15T14:40:56.000Z</time>
      </trkpt>
      <trkpt lat="45.09232" lon="5.68669">
        <ele>335</ele>
        <time>2013-09-15T14:40:56.000Z</time>
      </trkpt>
      <trkpt lat="45.09232" lon="5.68669">
        <ele>335</ele>
        <time>2013-09-15T14:40:59.000Z</time>
      </trkpt>
      <trkpt lat="45.0923" lon="5.68676">
        <ele>335</ele>
        <time>2013-09-15T14:41:00.000Z</time>
      </trkpt>
      <trkpt lat="45.0923" lon="5.68676">
        <ele>335</ele>
        <time>2013-09-15T14:41:00.000Z</time>
      </trkpt>
      <trkpt lat="45.0923" lon="5.68676">
        <ele>335</ele>
        <time>2013-09-15T14:41:03.000Z</time>
      </trkpt>
      <trkpt lat="45.09228" lon="5.68682">
        <ele>336</ele>
        <time>2013-09-15T14:41:04.000Z</time>
      </trkpt>
      <trkpt lat="45.09228" lon="5.68682">
        <ele>336</ele>
        <time>2013-09-15T14:41:04.000Z</time>
      </trkpt>
      <trkpt lat="45.09228" lon="5.68682">
        <ele>336</ele>
        <time>2013-09-15T14:41:10.000Z</time>
      </trkpt>
      <trkpt lat="45.09228" lon="5.68693">
        <ele>337</ele>
        <time>2013-09-15T14:41:11.000Z</time>
      </trkpt>
      <trkpt lat="45.09228" lon="5.68693">
        <ele>337</ele>
        <time>2013-09-15T14:41:11.000Z</time>
      </trkpt>
      <trkpt lat="45.09228" lon="5.68693">
        <ele>337</ele>
        <time>2013-09-15T14:41:15.000Z</time>
      </trkpt>
      <trkpt lat="45.09229" lon="5.68701">
        <ele>338</ele>
        <time>2013-09-15T14:41:16.000Z</time>
      </trkpt>
      <trkpt lat="45.09229" lon="5.68701">
        <ele>338</ele>
        <time>2013-09-15T14:41:16.000Z</time>
      </trkpt>
      <trkpt lat="45.09229" lon="5.68701">
        <ele>338</ele>
        <time>2013-09-15T14:41:23.000Z</time>
      </trkpt>
      <trkpt lat="45.09232" lon="5.68712">
        <ele>339</ele>
        <time>2013-09-15T14:41:24.000Z</time>
      </trkpt>
      <trkpt lat="45.09232" lon="5.68712">
        <ele>339</ele>
        <time>2013-09-15T14:41:24.000Z</time>
      </trkpt>
      <trkpt lat="45.09232" lon="5.68712">
        <ele>339</ele>
        <time>2013-09-15T14:41:27.000Z</time>
      </trkpt>
      <trkpt lat="45.09234" lon="5.68718">
        <ele>340</ele>
        <time>2013-09-15T14:41:28.000Z</time>
      </trkpt>
      <trkpt lat="45.09234" lon="5.68718">
        <ele>340</ele>
        <time>2013-09-15T14:41:28.000Z</time>
      </trkpt>
      <trkpt lat="45.09234" lon="5.68718">
        <ele>340</ele>
        <time>2013-09-15T14:41:32.000Z</time>
      </trkpt>
      <trkpt lat="45.09238" lon="5.68727">
        <ele>340</ele>
        <time>2013-09-15T14:41:33.000Z</time>
      </trkpt>
      <trkpt lat="45.09238" lon="5.68727">
        <ele>340</ele>
        <time>2013-09-15T14:41:33.000Z</time>
      </trkpt>
      <trkpt lat="45.09238" lon="5.68727">
        <ele>340</ele>
        <time>2013-09-15T14:41:36.000Z</time>
      </trkpt>
      <trkpt lat="45.09241" lon="5.68733">
        <ele>340</ele>
        <time>2013-09-15T14:41:37.000Z</time>
      </trkpt>
      <trkpt lat="45.09241" lon="5.68733">
        <ele>340</ele>
        <time>2013-09-15T14:41:37.000Z</time>
      </trkpt>
      <trkpt lat="45.09241" lon="5.68733">
        <ele>340</ele>
        <time>2013-09-15T14:41:41.000Z</time>
      </trkpt>
      <trkpt lat="45.09246" lon="5.68742">
        <ele>341</ele>
        <time>2013-09-15T14:41:42.000Z</time>
      </trkpt>
      <trkpt lat="45.09246" lon="5.68742">
        <ele>341</ele>
        <time>2013-09-15T14:41:42.000Z</time>
      </trkpt>
      <trkpt lat="45.09246" lon="5.68742">
        <ele>341</ele>
        <time>2013-09-15T14:41:44.000Z</time>
      </trkpt>
      <trkpt lat="45.09249" lon="5.68748">
        <ele>341</ele>
        <time>2013-09-15T14:41:45.000Z</time>
      </trkpt>
      <trkpt lat="45.09254" lon="5.68755">
        <ele>342</ele>
        <time>2013-09-15T14:41:49.000Z</time>
      </trkpt>
      <trkpt lat="45.09258" lon="5.68759">
        <ele>342</ele>
        <time>2013-09-15T14:41:52.000Z</time>
      </trkpt>
      <trkpt lat="45.09263" lon="5.68763">
        <ele>342</ele>
        <time>2013-09-15T14:41:56.000Z</time>
      </trkpt>
      <trkpt lat="45.09266" lon="5.68768">
        <ele>342</ele>
        <time>2013-09-15T14:41:59.000Z</time>
      </trkpt>
      <trkpt lat="45.0927" lon="5.68772">
        <ele>343</ele>
        <time>2013-09-15T14:42:02.000Z</time>
      </trkpt>
      <trkpt lat="45.09274" lon="5.68778">
        <ele>343</ele>
        <time>2013-09-15T14:42:07.000Z</time>
      </trkpt>
      <trkpt lat="45.09274" lon="5.68778">
        <ele>343</ele>
        <time>2013-09-15T14:42:07.000Z</time>
      </trkpt>
      <trkpt lat="45.09274" lon="5.68778">
        <ele>343</ele>
        <time>2013-09-15T14:42:08.000Z</time>
      </trkpt>
      <trkpt lat="45.09277" lon="5.68785">
        <ele>343</ele>
        <time>2013-09-15T14:42:12.000Z</time>
      </trkpt>
      <trkpt lat="45.09277" lon="5.68785">
        <ele>343</ele>
        <time>2013-09-15T14:42:12.000Z</time>
      </trkpt>
      <trkpt lat="45.09277" lon="5.68785">
        <ele>343</ele>
        <time>2013-09-15T14:42:13.000Z</time>
      </trkpt>
      <trkpt lat="45.0928" lon="5.68791">
        <ele>343</ele>
        <time>2013-09-15T14:42:17.000Z</time>
      </trkpt>
      <trkpt lat="45.09284" lon="5.68796">
        <ele>343</ele>
        <time>2013-09-15T14:42:20.000Z</time>
      </trkpt>
      <trkpt lat="45.09287" lon="5.688">
        <ele>343</ele>
        <time>2013-09-15T14:42:23.000Z</time>
      </trkpt>
      <trkpt lat="45.0929" lon="5.68804">
        <ele>344</ele>
        <time>2013-09-15T14:42:26.000Z</time>
      </trkpt>
      <trkpt lat="45.09294" lon="5.68806">
        <ele>344</ele>
        <time>2013-09-15T14:42:29.000Z</time>
      </trkpt>
      <trkpt lat="45.09299" lon="5.68811">
        <ele>344</ele>
        <time>2013-09-15T14:42:32.000Z</time>
      </trkpt>
      <trkpt lat="45.09304" lon="5.68817">
        <ele>344</ele>
        <time>2013-09-15T14:42:36.000Z</time>
      </trkpt>
      <trkpt lat="45.09309" lon="5.68824">
        <ele>344</ele>
        <time>2013-09-15T14:42:39.000Z</time>
      </trkpt>
      <trkpt lat="45.09314" lon="5.68828">
        <ele>345</ele>
        <time>2013-09-15T14:42:41.000Z</time>
      </trkpt>
      <trkpt lat="45.09319" lon="5.68834">
        <ele>345</ele>
        <time>2013-09-15T14:42:43.000Z</time>
      </trkpt>
      <trkpt lat="45.09324" lon="5.68838">
        <ele>345</ele>
        <time>2013-09-15T14:42:45.000Z</time>
      </trkpt>
      <trkpt lat="45.09329" lon="5.68843">
        <ele>345</ele>
        <time>2013-09-15T14:42:47.000Z</time>
      </trkpt>
      <trkpt lat="45.09333" lon="5.68845">
        <ele>345</ele>
        <time>2013-09-15T14:42:49.000Z</time>
      </trkpt>
      <trkpt lat="45.09338" lon="5.68849">
        <ele>345</ele>
        <time>2013-09-15T14:42:52.000Z</time>
      </trkpt>
      <trkpt lat="45.09344" lon="5.68849">
        <ele>346</ele>
        <time>2013-09-15T14:42:55.000Z</time>
      </trkpt>
      <trkpt lat="45.09348" lon="5.68854">
        <ele>346</ele>
        <time>2013-09-15T14:42:58.000Z</time>
      </trkpt>
      <trkpt lat="45.09352" lon="5.68856">
        <ele>346</ele>
        <time>2013-09-15T14:43:01.000Z</time>
      </trkpt>
      <trkpt lat="45.09358" lon="5.68858">
        <ele>346</ele>
        <time>2013-09-15T14:43:04.000Z</time>
      </trkpt>
      <trkpt lat="45.09363" lon="5.68858">
        <ele>346</ele>
        <time>2013-09-15T14:43:07.000Z</time>
      </trkpt>
      <trkpt lat="45.09369" lon="5.6886">
        <ele>347</ele>
        <time>2013-09-15T14:43:09.000Z</time>
      </trkpt>
      <trkpt lat="45.09376" lon="5.68862">
        <ele>347</ele>
        <time>2013-09-15T14:43:11.000Z</time>
      </trkpt>
      <trkpt lat="45.09381" lon="5.68864">
        <ele>347</ele>
        <time>2013-09-15T14:43:13.000Z</time>
      </trkpt>
      <trkpt lat="45.09389" lon="5.68866">
        <ele>347</ele>
        <time>2013-09-15T14:43:15.000Z</time>
      </trkpt>
      <trkpt lat="45.09395" lon="5.68869">
        <ele>347</ele>
        <time>2013-09-15T14:43:17.000Z</time>
      </trkpt>
      <trkpt lat="45.094" lon="5.68871">
        <ele>347</ele>
        <time>2013-09-15T14:43:18.000Z</time>
      </trkpt>
      <trkpt lat="45.09406" lon="5.68873">
        <ele>348</ele>
        <time>2013-09-15T14:43:20.000Z</time>
      </trkpt>
      <trkpt lat="45.09411" lon="5.68875">
        <ele>348</ele>
        <time>2013-09-15T14:43:22.000Z</time>
      </trkpt>
      <trkpt lat="45.09417" lon="5.68877">
        <ele>348</ele>
        <time>2013-09-15T14:43:24.000Z</time>
      </trkpt>
      <trkpt lat="45.09422" lon="5.68879">
        <ele>348</ele>
        <time>2013-09-15T14:43:26.000Z</time>
      </trkpt>
      <trkpt lat="45.09426" lon="5.68884">
        <ele>348</ele>
        <time>2013-09-15T14:43:28.000Z</time>
      </trkpt>
      <trkpt lat="45.09432" lon="5.68888">
        <ele>348</ele>
        <time>2013-09-15T14:43:30.000Z</time>
      </trkpt>
      <trkpt lat="45.09436" lon="5.6889">
        <ele>349</ele>
        <time>2013-09-15T14:43:32.000Z</time>
      </trkpt>
      <trkpt lat="45.09441" lon="5.68894">
        <ele>349</ele>
        <time>2013-09-15T14:43:34.000Z</time>
      </trkpt>
      <trkpt lat="45.09448" lon="5.68903">
        <ele>350</ele>
        <time>2013-09-15T14:43:36.000Z</time>
      </trkpt>
      <trkpt lat="45.09454" lon="5.68909">
        <ele>350</ele>
        <time>2013-09-15T14:43:38.000Z</time>
      </trkpt>
      <trkpt lat="45.09461" lon="5.68918">
        <ele>351</ele>
        <time>2013-09-15T14:43:40.000Z</time>
      </trkpt>
      <trkpt lat="45.09466" lon="5.68924">
        <ele>351</ele>
        <time>2013-09-15T14:43:42.000Z</time>
      </trkpt>
      <trkpt lat="45.09471" lon="5.68931">
        <ele>352</ele>
        <time>2013-09-15T14:43:44.000Z</time>
      </trkpt>
      <trkpt lat="45.09478" lon="5.68939">
        <ele>353</ele>
        <time>2013-09-15T14:43:46.000Z</time>
      </trkpt>
      <trkpt lat="45.09484" lon="5.68948">
        <ele>353</ele>
        <time>2013-09-15T14:43:48.000Z</time>
      </trkpt>
      <trkpt lat="45.09491" lon="5.68954">
        <ele>353</ele>
        <time>2013-09-15T14:43:50.000Z</time>
      </trkpt>
      <trkpt lat="45.09497" lon="5.68961">
        <ele>354</ele>
        <time>2013-09-15T14:43:52.000Z</time>
      </trkpt>
      <trkpt lat="45.09504" lon="5.68967">
        <ele>354</ele>
        <time>2013-09-15T14:43:54.000Z</time>
      </trkpt>
      <trkpt lat="45.0951" lon="5.68974">
        <ele>356</ele>
        <time>2013-09-15T14:43:56.000Z</time>
      </trkpt>
      <trkpt lat="45.09516" lon="5.6898">
        <ele>357</ele>
        <time>2013-09-15T14:43:58.000Z</time>
      </trkpt>
      <trkpt lat="45.09524" lon="5.68984">
        <ele>358</ele>
        <time>2013-09-15T14:44:00.000Z</time>
      </trkpt>
      <trkpt lat="45.09531" lon="5.68989">
        <ele>358</ele>
        <time>2013-09-15T14:44:02.000Z</time>
      </trkpt>
      <trkpt lat="45.09538" lon="5.68991">
        <ele>358</ele>
        <time>2013-09-15T14:44:04.000Z</time>
      </trkpt>
      <trkpt lat="45.09545" lon="5.68991">
        <ele>358</ele>
        <time>2013-09-15T14:44:06.000Z</time>
      </trkpt>
      <trkpt lat="45.09551" lon="5.68993">
        <ele>359</ele>
        <time>2013-09-15T14:44:08.000Z</time>
      </trkpt>
      <trkpt lat="45.09556" lon="5.68993">
        <ele>359</ele>
        <time>2013-09-15T14:44:10.000Z</time>
      </trkpt>
      <trkpt lat="45.09562" lon="5.68995">
        <ele>359</ele>
        <time>2013-09-15T14:44:12.000Z</time>
      </trkpt>
      <trkpt lat="45.09569" lon="5.68997">
        <ele>359</ele>
        <time>2013-09-15T14:44:14.000Z</time>
      </trkpt>
      <trkpt lat="45.09575" lon="5.69002">
        <ele>359</ele>
        <time>2013-09-15T14:44:16.000Z</time>
      </trkpt>
      <trkpt lat="45.0958" lon="5.69004">
        <ele>359</ele>
        <time>2013-09-15T14:44:17.000Z</time>
      </trkpt>
      <trkpt lat="45.09584" lon="5.69006">
        <ele>359</ele>
        <time>2013-09-15T14:44:18.000Z</time>
      </trkpt>
      <trkpt lat="45.09588" lon="5.69008">
        <ele>359</ele>
        <time>2013-09-15T14:44:19.000Z</time>
      </trkpt>
      <trkpt lat="45.09593" lon="5.6901">
        <ele>358</ele>
        <time>2013-09-15T14:44:20.000Z</time>
      </trkpt>
      <trkpt lat="45.09597" lon="5.69012">
        <ele>358</ele>
        <time>2013-09-15T14:44:21.000Z</time>
      </trkpt>
      <trkpt lat="45.09601" lon="5.69017">
        <ele>358</ele>
        <time>2013-09-15T14:44:22.000Z</time>
      </trkpt>
      <trkpt lat="45.09606" lon="5.69019">
        <ele>358</ele>
        <time>2013-09-15T14:44:23.000Z</time>
      </trkpt>
      <trkpt lat="45.09612" lon="5.69023">
        <ele>358</ele>
        <time>2013-09-15T14:44:24.000Z</time>
      </trkpt>
      <trkpt lat="45.09617" lon="5.69025">
        <ele>358</ele>
        <time>2013-09-15T14:44:25.000Z</time>
      </trkpt>
      <trkpt lat="45.09624" lon="5.6903">
        <ele>357</ele>
        <time>2013-09-15T14:44:26.000Z</time>
      </trkpt>
      <trkpt lat="45.0963" lon="5.69032">
        <ele>357</ele>
        <time>2013-09-15T14:44:27.000Z</time>
      </trkpt>
      <trkpt lat="45.09637" lon="5.69036">
        <ele>357</ele>
        <time>2013-09-15T14:44:28.000Z</time>
      </trkpt>
      <trkpt lat="45.09643" lon="5.6904">
        <ele>357</ele>
        <time>2013-09-15T14:44:29.000Z</time>
      </trkpt>
      <trkpt lat="45.0965" lon="5.69042">
        <ele>357</ele>
        <time>2013-09-15T14:44:30.000Z</time>
      </trkpt>
      <trkpt lat="45.09656" lon="5.69044">
        <ele>357</ele>
        <time>2013-09-15T14:44:31.000Z</time>
      </trkpt>
      <trkpt lat="45.09661" lon="5.69047">
        <ele>356</ele>
        <time>2013-09-15T14:44:32.000Z</time>
      </trkpt>
      <trkpt lat="45.09668" lon="5.69049">
        <ele>356</ele>
        <time>2013-09-15T14:44:33.000Z</time>
      </trkpt>
      <trkpt lat="45.09673" lon="5.69053">
        <ele>356</ele>
        <time>2013-09-15T14:44:34.000Z</time>
      </trkpt>
      <trkpt lat="45.09678" lon="5.69055">
        <ele>356</ele>
        <time>2013-09-15T14:44:35.000Z</time>
      </trkpt>
      <trkpt lat="45.09684" lon="5.69057">
        <ele>356</ele>
        <time>2013-09-15T14:44:36.000Z</time>
      </trkpt>
      <trkpt lat="45.09688" lon="5.6906">
        <ele>356</ele>
        <time>2013-09-15T14:44:37.000Z</time>
      </trkpt>
      <trkpt lat="45.09694" lon="5.6906">
        <ele>356</ele>
        <time>2013-09-15T14:44:38.000Z</time>
      </trkpt>
      <trkpt lat="45.09698" lon="5.69062">
        <ele>356</ele>
        <time>2013-09-15T14:44:39.000Z</time>
      </trkpt>
      <trkpt lat="45.09703" lon="5.69064">
        <ele>355</ele>
        <time>2013-09-15T14:44:40.000Z</time>
      </trkpt>
      <trkpt lat="45.09711" lon="5.69066">
        <ele>355</ele>
        <time>2013-09-15T14:44:42.000Z</time>
      </trkpt>
      <trkpt lat="45.09715" lon="5.69068">
        <ele>355</ele>
        <time>2013-09-15T14:44:43.000Z</time>
      </trkpt>
      <trkpt lat="45.0972" lon="5.69068">
        <ele>355</ele>
        <time>2013-09-15T14:44:45.000Z</time>
      </trkpt>
      <trkpt lat="45.09726" lon="5.6907">
        <ele>355</ele>
        <time>2013-09-15T14:44:47.000Z</time>
      </trkpt>
      <trkpt lat="45.09731" lon="5.69072">
        <ele>355</ele>
        <time>2013-09-15T14:44:49.000Z</time>
      </trkpt>
      <trkpt lat="45.09736" lon="5.69072">
        <ele>355</ele>
        <time>2013-09-15T14:44:51.000Z</time>
      </trkpt>
      <trkpt lat="45.09741" lon="5.69075">
        <ele>355</ele>
        <time>2013-09-15T14:44:53.000Z</time>
      </trkpt>
      <trkpt lat="45.09745" lon="5.69077">
        <ele>355</ele>
        <time>2013-09-15T14:44:55.000Z</time>
      </trkpt>
      <trkpt lat="45.09745" lon="5.69077">
        <ele>355</ele>
        <time>2013-09-15T14:44:55.000Z</time>
      </trkpt>
      <trkpt lat="45.09745" lon="5.69077">
        <ele>355</ele>
        <time>2013-09-15T14:44:57.000Z</time>
      </trkpt>
      <trkpt lat="45.0975" lon="5.69079">
        <ele>355</ele>
        <time>2013-09-15T14:44:58.000Z</time>
      </trkpt>
      <trkpt lat="45.0975" lon="5.69079">
        <ele>355</ele>
        <time>2013-09-15T14:44:58.000Z</time>
      </trkpt>
      <trkpt lat="45.0975" lon="5.69079">
        <ele>355</ele>
        <time>2013-09-15T14:45:00.000Z</time>
      </trkpt>
      <trkpt lat="45.09756" lon="5.69081">
        <ele>355</ele>
        <time>2013-09-15T14:45:01.000Z</time>
      </trkpt>
      <trkpt lat="45.09756" lon="5.69081">
        <ele>355</ele>
        <time>2013-09-15T14:45:01.000Z</time>
      </trkpt>
      <trkpt lat="45.09756" lon="5.69081">
        <ele>355</ele>
        <time>2013-09-15T14:45:03.000Z</time>
      </trkpt>
      <trkpt lat="45.09761" lon="5.69083">
        <ele>355</ele>
        <time>2013-09-15T14:45:04.000Z</time>
      </trkpt>
      <trkpt lat="45.09761" lon="5.69083">
        <ele>355</ele>
        <time>2013-09-15T14:45:04.000Z</time>
      </trkpt>
      <trkpt lat="45.09761" lon="5.69083">
        <ele>355</ele>
        <time>2013-09-15T14:45:07.000Z</time>
      </trkpt>
      <trkpt lat="45.09766" lon="5.69085">
        <ele>354</ele>
        <time>2013-09-15T14:45:08.000Z</time>
      </trkpt>
      <trkpt lat="45.09766" lon="5.69085">
        <ele>354</ele>
        <time>2013-09-15T14:45:08.000Z</time>
      </trkpt>
      <trkpt lat="45.09766" lon="5.69085">
        <ele>354</ele>
        <time>2013-09-15T14:45:11.000Z</time>
      </trkpt>
      <trkpt lat="45.09773" lon="5.69088">
        <ele>354</ele>
        <time>2013-09-15T14:45:12.000Z</time>
      </trkpt>
      <trkpt lat="45.09777" lon="5.6909">
        <ele>354</ele>
        <time>2013-09-15T14:45:15.000Z</time>
      </trkpt>
      <trkpt lat="45.09777" lon="5.6909">
        <ele>354</ele>
        <time>2013-09-15T14:45:15.000Z</time>
      </trkpt>
      <trkpt lat="45.09777" lon="5.6909">
        <ele>354</ele>
        <time>2013-09-15T14:45:16.000Z</time>
      </trkpt>
      <trkpt lat="45.09782" lon="5.69092">
        <ele>354</ele>
        <time>2013-09-15T14:45:19.000Z</time>
      </trkpt>
      <trkpt lat="45.09792" lon="5.69096">
        <ele>353</ele>
        <time>2013-09-15T14:45:36.000Z</time>
      </trkpt>
      <trkpt lat="45.09801" lon="5.69096">
        <ele>353</ele>
        <time>2013-09-15T14:45:42.000Z</time>
      </trkpt>
      <trkpt lat="45.09805" lon="5.69098">
        <ele>354</ele>
        <time>2013-09-15T14:45:46.000Z</time>
      </trkpt>
      <trkpt lat="45.09812" lon="5.69096">
        <ele>354</ele>
        <time>2013-09-15T14:46:06.000Z</time>
      </trkpt>
      <trkpt lat="45.09812" lon="5.69096">
        <ele>354</ele>
        <time>2013-09-15T14:46:06.000Z</time>
      </trkpt>
      <trkpt lat="45.09812" lon="5.69096">
        <ele>354</ele>
        <time>2013-09-15T14:46:08.000Z</time>
      </trkpt>
      <trkpt lat="45.09817" lon="5.69094">
        <ele>354</ele>
        <time>2013-09-15T14:46:09.000Z</time>
      </trkpt>
      <trkpt lat="45.09817" lon="5.69094">
        <ele>354</ele>
        <time>2013-09-15T14:46:09.000Z</time>
      </trkpt>
      <trkpt lat="45.09817" lon="5.69094">
        <ele>354</ele>
        <time>2013-09-15T14:46:18.000Z</time>
      </trkpt>
      <trkpt lat="45.09823" lon="5.69083">
        <ele>354</ele>
        <time>2013-09-15T14:46:19.000Z</time>
      </trkpt>
      <trkpt lat="45.09823" lon="5.69083">
        <ele>354</ele>
        <time>2013-09-15T14:46:19.000Z</time>
      </trkpt>
      <trkpt lat="45.09823" lon="5.69083">
        <ele>354</ele>
        <time>2013-09-15T14:46:35.000Z</time>
      </trkpt>
      <trkpt lat="45.09828" lon="5.69085">
        <ele>354</ele>
        <time>2013-09-15T14:46:36.000Z</time>
      </trkpt>
      <trkpt lat="45.09835" lon="5.69092">
        <ele>357</ele>
        <time>2013-09-15T14:46:38.000Z</time>
      </trkpt>
      <trkpt lat="45.09843" lon="5.69098">
        <ele>359</ele>
        <time>2013-09-15T14:46:42.000Z</time>
      </trkpt>
      <trkpt lat="45.09843" lon="5.69098">
        <ele>359</ele>
        <time>2013-09-15T14:46:42.000Z</time>
      </trkpt>
      <trkpt lat="45.09843" lon="5.69098">
        <ele>359</ele>
        <time>2013-09-15T14:46:43.000Z</time>
      </trkpt>
      <trkpt lat="45.09847" lon="5.69105">
        <ele>359</ele>
        <time>2013-09-15T14:46:44.000Z</time>
      </trkpt>
      <trkpt lat="45.09852" lon="5.69109">
        <ele>359</ele>
        <time>2013-09-15T14:46:46.000Z</time>
      </trkpt>
      <trkpt lat="45.09858" lon="5.69115">
        <ele>359</ele>
        <time>2013-09-15T14:46:48.000Z</time>
      </trkpt>
      <trkpt lat="45.09859" lon="5.69124">
        <ele>360</ele>
        <time>2013-09-15T14:46:50.000Z</time>
      </trkpt>
      <trkpt lat="45.09858" lon="5.69132">
        <ele>360</ele>
        <time>2013-09-15T14:46:52.000Z</time>
      </trkpt>
      <trkpt lat="45.09856" lon="5.69139">
        <ele>360</ele>
        <time>2013-09-15T14:46:54.000Z</time>
      </trkpt>
      <trkpt lat="45.09861" lon="5.69143">
        <ele>360</ele>
        <time>2013-09-15T14:46:56.000Z</time>
      </trkpt>
      <trkpt lat="45.09867" lon="5.69148">
        <ele>361</ele>
        <time>2013-09-15T14:46:58.000Z</time>
      </trkpt>
      <trkpt lat="45.09872" lon="5.6915">
        <ele>361</ele>
        <time>2013-09-15T14:46:59.000Z</time>
      </trkpt>
      <trkpt lat="45.09876" lon="5.69152">
        <ele>362</ele>
        <time>2013-09-15T14:47:00.000Z</time>
      </trkpt>
      <trkpt lat="45.0988" lon="5.69154">
        <ele>363</ele>
        <time>2013-09-15T14:47:01.000Z</time>
      </trkpt>
      <trkpt lat="45.09886" lon="5.69158">
        <ele>364</ele>
        <time>2013-09-15T14:47:02.000Z</time>
      </trkpt>
      <trkpt lat="45.09891" lon="5.6916">
        <ele>366</ele>
        <time>2013-09-15T14:47:03.000Z</time>
      </trkpt>
      <trkpt lat="45.09895" lon="5.69163">
        <ele>366</ele>
        <time>2013-09-15T14:47:04.000Z</time>
      </trkpt>
      <trkpt lat="45.099" lon="5.69165">
        <ele>365</ele>
        <time>2013-09-15T14:47:05.000Z</time>
      </trkpt>
      <trkpt lat="45.09905" lon="5.69167">
        <ele>365</ele>
        <time>2013-09-15T14:47:06.000Z</time>
      </trkpt>
      <trkpt lat="45.0991" lon="5.69169">
        <ele>365</ele>
        <time>2013-09-15T14:47:07.000Z</time>
      </trkpt>
      <trkpt lat="45.09914" lon="5.69171">
        <ele>365</ele>
        <time>2013-09-15T14:47:08.000Z</time>
      </trkpt>
      <trkpt lat="45.09914" lon="5.69171">
        <ele>365</ele>
        <time>2013-09-15T14:47:08.000Z</time>
      </trkpt>
      <trkpt lat="45.09914" lon="5.69171">
        <ele>365</ele>
        <time>2013-09-15T14:47:11.000Z</time>
      </trkpt>
      <trkpt lat="45.09924" lon="5.69173">
        <ele>365</ele>
        <time>2013-09-15T14:47:12.000Z</time>
      </trkpt>
      <trkpt lat="45.09932" lon="5.69175">
        <ele>365</ele>
        <time>2013-09-15T14:47:14.000Z</time>
      </trkpt>
      <trkpt lat="45.0994" lon="5.69178">
        <ele>365</ele>
        <time>2013-09-15T14:47:16.000Z</time>
      </trkpt>
      <trkpt lat="45.0995" lon="5.69178">
        <ele>366</ele>
        <time>2013-09-15T14:47:18.000Z</time>
      </trkpt>
      <trkpt lat="45.09955" lon="5.6918">
        <ele>366</ele>
        <time>2013-09-15T14:47:19.000Z</time>
      </trkpt>
      <trkpt lat="45.09961" lon="5.6918">
        <ele>366</ele>
        <time>2013-09-15T14:47:20.000Z</time>
      </trkpt>
      <trkpt lat="45.09965" lon="5.69184">
        <ele>366</ele>
        <time>2013-09-15T14:47:21.000Z</time>
      </trkpt>
      <trkpt lat="45.09969" lon="5.69186">
        <ele>366</ele>
        <time>2013-09-15T14:47:22.000Z</time>
      </trkpt>
      <trkpt lat="45.09974" lon="5.69188">
        <ele>367</ele>
        <time>2013-09-15T14:47:23.000Z</time>
      </trkpt>
      <trkpt lat="45.09978" lon="5.6919">
        <ele>367</ele>
        <time>2013-09-15T14:47:24.000Z</time>
      </trkpt>
      <trkpt lat="45.09986" lon="5.6919">
        <ele>367</ele>
        <time>2013-09-15T14:47:26.000Z</time>
      </trkpt>
      <trkpt lat="45.09994" lon="5.69195">
        <ele>367</ele>
        <time>2013-09-15T14:47:28.000Z</time>
      </trkpt>
      <trkpt lat="45.09998" lon="5.69197">
        <ele>367</ele>
        <time>2013-09-15T14:47:29.000Z</time>
      </trkpt>
      <trkpt lat="45.10008" lon="5.69197">
        <ele>367</ele>
        <time>2013-09-15T14:47:31.000Z</time>
      </trkpt>
      <trkpt lat="45.10013" lon="5.69195">
        <ele>367</ele>
        <time>2013-09-15T14:47:32.000Z</time>
      </trkpt>
      <trkpt lat="45.10018" lon="5.69193">
        <ele>367</ele>
        <time>2013-09-15T14:47:33.000Z</time>
      </trkpt>
      <trkpt lat="45.10023" lon="5.69193">
        <ele>366</ele>
        <time>2013-09-15T14:47:34.000Z</time>
      </trkpt>
      <trkpt lat="45.10027" lon="5.6919">
        <ele>366</ele>
        <time>2013-09-15T14:47:35.000Z</time>
      </trkpt>
      <trkpt lat="45.10027" lon="5.6919">
        <ele>366</ele>
        <time>2013-09-15T14:47:35.000Z</time>
      </trkpt>
      <trkpt lat="45.10027" lon="5.6919">
        <ele>366</ele>
        <time>2013-09-15T14:47:36.000Z</time>
      </trkpt>
      <trkpt lat="45.10037" lon="5.69186">
        <ele>365</ele>
        <time>2013-09-15T14:47:37.000Z</time>
      </trkpt>
      <trkpt lat="45.10042" lon="5.69182">
        <ele>365</ele>
        <time>2013-09-15T14:47:38.000Z</time>
      </trkpt>
      <trkpt lat="45.10049" lon="5.6918">
        <ele>362</ele>
        <time>2013-09-15T14:47:39.000Z</time>
      </trkpt>
      <trkpt lat="45.10055" lon="5.69178">
        <ele>359</ele>
        <time>2013-09-15T14:47:40.000Z</time>
      </trkpt>
      <trkpt lat="45.1006" lon="5.69175">
        <ele>356</ele>
        <time>2013-09-15T14:47:41.000Z</time>
      </trkpt>
      <trkpt lat="45.10066" lon="5.69173">
        <ele>354</ele>
        <time>2013-09-15T14:47:42.000Z</time>
      </trkpt>
      <trkpt lat="45.10071" lon="5.69171">
        <ele>352</ele>
        <time>2013-09-15T14:47:43.000Z</time>
      </trkpt>
      <trkpt lat="45.1008" lon="5.69171">
        <ele>352</ele>
        <time>2013-09-15T14:47:45.000Z</time>
      </trkpt>
      <trkpt lat="45.10085" lon="5.69171">
        <ele>350</ele>
        <time>2013-09-15T14:47:46.000Z</time>
      </trkpt>
      <trkpt lat="45.10092" lon="5.69169">
        <ele>349</ele>
        <time>2013-09-15T14:47:47.000Z</time>
      </trkpt>
      <trkpt lat="45.10099" lon="5.69167">
        <ele>348</ele>
        <time>2013-09-15T14:47:48.000Z</time>
      </trkpt>
      <trkpt lat="45.10105" lon="5.69163">
        <ele>347</ele>
        <time>2013-09-15T14:47:49.000Z</time>
      </trkpt>
      <trkpt lat="45.10112" lon="5.6916">
        <ele>347</ele>
        <time>2013-09-15T14:47:50.000Z</time>
      </trkpt>
      <trkpt lat="45.10117" lon="5.69156">
        <ele>346</ele>
        <time>2013-09-15T14:47:51.000Z</time>
      </trkpt>
      <trkpt lat="45.10123" lon="5.69154">
        <ele>346</ele>
        <time>2013-09-15T14:47:52.000Z</time>
      </trkpt>
      <trkpt lat="45.10128" lon="5.69152">
        <ele>346</ele>
        <time>2013-09-15T14:47:53.000Z</time>
      </trkpt>
      <trkpt lat="45.10132" lon="5.6915">
        <ele>345</ele>
        <time>2013-09-15T14:47:54.000Z</time>
      </trkpt>
      <trkpt lat="45.10137" lon="5.69148">
        <ele>345</ele>
        <time>2013-09-15T14:47:55.000Z</time>
      </trkpt>
      <trkpt lat="45.10143" lon="5.69148">
        <ele>345</ele>
        <time>2013-09-15T14:47:57.000Z</time>
      </trkpt>
      <trkpt lat="45.10155" lon="5.69145">
        <ele>345</ele>
        <time>2013-09-15T14:48:04.000Z</time>
      </trkpt>
      <trkpt lat="45.10155" lon="5.69145">
        <ele>345</ele>
        <time>2013-09-15T14:48:04.000Z</time>
      </trkpt>
      <trkpt lat="45.10155" lon="5.69145">
        <ele>345</ele>
        <time>2013-09-15T14:48:09.000Z</time>
      </trkpt>
      <trkpt lat="45.10163" lon="5.69141">
        <ele>344</ele>
        <time>2013-09-15T14:48:10.000Z</time>
      </trkpt>
      <trkpt lat="45.10163" lon="5.69141">
        <ele>344</ele>
        <time>2013-09-15T14:48:10.000Z</time>
      </trkpt>
      <trkpt lat="45.10163" lon="5.69141">
        <ele>344</ele>
        <time>2013-09-15T14:48:14.000Z</time>
      </trkpt>
      <trkpt lat="45.10171" lon="5.69132">
        <ele>344</ele>
        <time>2013-09-15T14:48:15.000Z</time>
      </trkpt>
      <trkpt lat="45.10177" lon="5.69126">
        <ele>344</ele>
        <time>2013-09-15T14:48:17.000Z</time>
      </trkpt>
      <trkpt lat="45.10183" lon="5.69122">
        <ele>344</ele>
        <time>2013-09-15T14:48:18.000Z</time>
      </trkpt>
      <trkpt lat="45.10187" lon="5.69118">
        <ele>344</ele>
        <time>2013-09-15T14:48:19.000Z</time>
      </trkpt>
      <trkpt lat="45.10191" lon="5.69111">
        <ele>344</ele>
        <time>2013-09-15T14:48:20.000Z</time>
      </trkpt>
      <trkpt lat="45.10196" lon="5.69107">
        <ele>343</ele>
        <time>2013-09-15T14:48:21.000Z</time>
      </trkpt>
      <trkpt lat="45.102" lon="5.69102">
        <ele>343</ele>
        <time>2013-09-15T14:48:22.000Z</time>
      </trkpt>
      <trkpt lat="45.10207" lon="5.69094">
        <ele>343</ele>
        <time>2013-09-15T14:48:24.000Z</time>
      </trkpt>
      <trkpt lat="45.10212" lon="5.69092">
        <ele>343</ele>
        <time>2013-09-15T14:48:25.000Z</time>
      </trkpt>
      <trkpt lat="45.10216" lon="5.6909">
        <ele>343</ele>
        <time>2013-09-15T14:48:26.000Z</time>
      </trkpt>
      <trkpt lat="45.10221" lon="5.69094">
        <ele>343</ele>
        <time>2013-09-15T14:48:28.000Z</time>
      </trkpt>
      <trkpt lat="45.10229" lon="5.6909">
        <ele>343</ele>
        <time>2013-09-15T14:48:31.000Z</time>
      </trkpt>
      <trkpt lat="45.10228" lon="5.69081">
        <ele>343</ele>
        <time>2013-09-15T14:48:32.000Z</time>
      </trkpt>
      <trkpt lat="45.10228" lon="5.69075">
        <ele>343</ele>
        <time>2013-09-15T14:48:33.000Z</time>
      </trkpt>
      <trkpt lat="45.10228" lon="5.69075">
        <ele>343</ele>
        <time>2013-09-15T14:48:33.000Z</time>
      </trkpt>
      <trkpt lat="45.10228" lon="5.69075">
        <ele>343</ele>
        <time>2013-09-15T14:48:35.000Z</time>
      </trkpt>
      <trkpt lat="45.10222" lon="5.69062">
        <ele>343</ele>
        <time>2013-09-15T14:48:36.000Z</time>
      </trkpt>
      <trkpt lat="45.10222" lon="5.69062">
        <ele>343</ele>
        <time>2013-09-15T14:48:36.000Z</time>
      </trkpt>
      <trkpt lat="45.10222" lon="5.69062">
        <ele>343</ele>
        <time>2013-09-15T14:48:37.000Z</time>
      </trkpt>
      <trkpt lat="45.1022" lon="5.69055">
        <ele>343</ele>
        <time>2013-09-15T14:48:38.000Z</time>
      </trkpt>
      <trkpt lat="45.1022" lon="5.69055">
        <ele>343</ele>
        <time>2013-09-15T14:48:38.000Z</time>
      </trkpt>
      <trkpt lat="45.1022" lon="5.69055">
        <ele>343</ele>
        <time>2013-09-15T14:48:39.000Z</time>
      </trkpt>
      <trkpt lat="45.10217" lon="5.69049">
        <ele>343</ele>
        <time>2013-09-15T14:48:40.000Z</time>
      </trkpt>
      <trkpt lat="45.10213" lon="5.69042">
        <ele>342</ele>
        <time>2013-09-15T14:48:42.000Z</time>
      </trkpt>
      <trkpt lat="45.10207" lon="5.69036">
        <ele>342</ele>
        <time>2013-09-15T14:48:44.000Z</time>
      </trkpt>
      <trkpt lat="45.10202" lon="5.69027">
        <ele>342</ele>
        <time>2013-09-15T14:48:46.000Z</time>
      </trkpt>
      <trkpt lat="45.10198" lon="5.69021">
        <ele>341</ele>
        <time>2013-09-15T14:48:48.000Z</time>
      </trkpt>
      <trkpt lat="45.10193" lon="5.69012">
        <ele>341</ele>
        <time>2013-09-15T14:48:50.000Z</time>
      </trkpt>
      <trkpt lat="45.10189" lon="5.69006">
        <ele>341</ele>
        <time>2013-09-15T14:48:52.000Z</time>
      </trkpt>
      <trkpt lat="45.10187" lon="5.68997">
        <ele>341</ele>
        <time>2013-09-15T14:48:54.000Z</time>
      </trkpt>
      <trkpt lat="45.10188" lon="5.68989">
        <ele>340</ele>
        <time>2013-09-15T14:48:56.000Z</time>
      </trkpt>
      <trkpt lat="45.10188" lon="5.68989">
        <ele>340</ele>
        <time>2013-09-15T14:48:56.000Z</time>
      </trkpt>
      <trkpt lat="45.10188" lon="5.68989">
        <ele>340</ele>
        <time>2013-09-15T14:49:01.000Z</time>
      </trkpt>
      <trkpt lat="45.10198" lon="5.68987">
        <ele>339</ele>
        <time>2013-09-15T14:49:02.000Z</time>
      </trkpt>
      <trkpt lat="45.10198" lon="5.68987">
        <ele>339</ele>
        <time>2013-09-15T14:49:02.000Z</time>
      </trkpt>
      <trkpt lat="45.10198" lon="5.68987">
        <ele>339</ele>
        <time>2013-09-15T14:49:08.000Z</time>
      </trkpt>
      <trkpt lat="45.102" lon="5.6898">
        <ele>338</ele>
        <time>2013-09-15T14:49:09.000Z</time>
      </trkpt>
      <trkpt lat="45.102" lon="5.6898">
        <ele>338</ele>
        <time>2013-09-15T14:49:09.000Z</time>
      </trkpt>
      <trkpt lat="45.102" lon="5.6898">
        <ele>338</ele>
        <time>2013-09-15T14:49:14.000Z</time>
      </trkpt>
      <trkpt lat="45.10194" lon="5.68982">
        <ele>338</ele>
        <time>2013-09-15T14:49:15.000Z</time>
      </trkpt>
      <trkpt lat="45.10194" lon="5.68982">
        <ele>338</ele>
        <time>2013-09-15T14:49:15.000Z</time>
      </trkpt>
      <trkpt lat="45.10194" lon="5.68982">
        <ele>338</ele>
        <time>2013-09-15T14:49:20.000Z</time>
      </trkpt>
      <trkpt lat="45.10199" lon="5.68991">
        <ele>336</ele>
        <time>2013-09-15T14:49:21.000Z</time>
      </trkpt>
      <trkpt lat="45.10204" lon="5.68997">
        <ele>336</ele>
        <time>2013-09-15T14:49:24.000Z</time>
      </trkpt>
      <trkpt lat="45.10208" lon="5.69002">
        <ele>335</ele>
        <time>2013-09-15T14:49:26.000Z</time>
      </trkpt>
      <trkpt lat="45.10213" lon="5.69004">
        <ele>335</ele>
        <time>2013-09-15T14:49:28.000Z</time>
      </trkpt>
      <trkpt lat="45.10218" lon="5.69008">
        <ele>335</ele>
        <time>2013-09-15T14:49:30.000Z</time>
      </trkpt>
      <trkpt lat="45.10224" lon="5.69012">
        <ele>334</ele>
        <time>2013-09-15T14:49:32.000Z</time>
      </trkpt>
      <trkpt lat="45.10228" lon="5.69017">
        <ele>334</ele>
        <time>2013-09-15T14:49:34.000Z</time>
      </trkpt>
      <trkpt lat="45.10232" lon="5.69019">
        <ele>333</ele>
        <time>2013-09-15T14:49:36.000Z</time>
      </trkpt>
      <trkpt lat="45.10237" lon="5.69021">
        <ele>333</ele>
        <time>2013-09-15T14:49:38.000Z</time>
      </trkpt>
      <trkpt lat="45.10242" lon="5.69023">
        <ele>333</ele>
        <time>2013-09-15T14:49:40.000Z</time>
      </trkpt>
      <trkpt lat="45.10247" lon="5.69025">
        <ele>332</ele>
        <time>2013-09-15T14:49:42.000Z</time>
      </trkpt>
      <trkpt lat="45.10252" lon="5.69027">
        <ele>332</ele>
        <time>2013-09-15T14:49:44.000Z</time>
      </trkpt>
      <trkpt lat="45.10259" lon="5.6903">
        <ele>332</ele>
        <time>2013-09-15T14:49:46.000Z</time>
      </trkpt>
      <trkpt lat="45.10266" lon="5.69032">
        <ele>332</ele>
        <time>2013-09-15T14:49:48.000Z</time>
      </trkpt>
      <trkpt lat="45.10274" lon="5.69034">
        <ele>330</ele>
        <time>2013-09-15T14:49:50.000Z</time>
      </trkpt>
      <trkpt lat="45.10282" lon="5.69034">
        <ele>329</ele>
        <time>2013-09-15T14:49:52.000Z</time>
      </trkpt>
      <trkpt lat="45.1029" lon="5.69036">
        <ele>329</ele>
        <time>2013-09-15T14:49:54.000Z</time>
      </trkpt>
      <trkpt lat="45.10296" lon="5.69038">
        <ele>328</ele>
        <time>2013-09-15T14:49:56.000Z</time>
      </trkpt>
      <trkpt lat="45.10301" lon="5.69036">
        <ele>328</ele>
        <time>2013-09-15T14:49:57.000Z</time>
      </trkpt>
      <trkpt lat="45.10308" lon="5.69036">
        <ele>328</ele>
        <time>2013-09-15T14:49:59.000Z</time>
      </trkpt>
      <trkpt lat="45.10317" lon="5.69036">
        <ele>328</ele>
        <time>2013-09-15T14:50:01.000Z</time>
      </trkpt>
      <trkpt lat="45.10321" lon="5.69038">
        <ele>328</ele>
        <time>2013-09-15T14:50:02.000Z</time>
      </trkpt>
      <trkpt lat="45.10328" lon="5.69038">
        <ele>328</ele>
        <time>2013-09-15T14:50:04.000Z</time>
      </trkpt>
      <trkpt lat="45.10328" lon="5.69038">
        <ele>328</ele>
        <time>2013-09-15T14:50:04.000Z</time>
      </trkpt>
      <trkpt lat="45.10328" lon="5.69038">
        <ele>328</ele>
        <time>2013-09-15T14:50:12.000Z</time>
      </trkpt>
      <trkpt lat="45.10334" lon="5.6904">
        <ele>328</ele>
        <time>2013-09-15T14:50:13.000Z</time>
      </trkpt>
      <trkpt lat="45.10334" lon="5.6904">
        <ele>328</ele>
        <time>2013-09-15T14:50:13.000Z</time>
      </trkpt>
      <trkpt lat="45.10334" lon="5.6904">
        <ele>328</ele>
        <time>2013-09-15T14:50:44.000Z</time>
      </trkpt>
      <trkpt lat="45.1034" lon="5.69047">
        <ele>327</ele>
        <time>2013-09-15T14:50:45.000Z</time>
      </trkpt>
      <trkpt lat="45.1034" lon="5.69047">
        <ele>327</ele>
        <time>2013-09-15T14:50:45.000Z</time>
      </trkpt>
      <trkpt lat="45.1034" lon="5.69047">
        <ele>327</ele>
        <time>2013-09-15T14:50:50.000Z</time>
      </trkpt>
      <trkpt lat="45.10348" lon="5.69055">
        <ele>326</ele>
        <time>2013-09-15T14:50:51.000Z</time>
      </trkpt>
      <trkpt lat="45.10348" lon="5.69055">
        <ele>326</ele>
        <time>2013-09-15T14:50:51.000Z</time>
      </trkpt>
      <trkpt lat="45.10348" lon="5.69055">
        <ele>326</ele>
        <time>2013-09-15T14:50:57.000Z</time>
      </trkpt>
      <trkpt lat="45.10354" lon="5.69064">
        <ele>326</ele>
        <time>2013-09-15T14:50:58.000Z</time>
      </trkpt>
      <trkpt lat="45.10354" lon="5.69064">
        <ele>326</ele>
        <time>2013-09-15T14:50:58.000Z</time>
      </trkpt>
      <trkpt lat="45.10354" lon="5.69064">
        <ele>326</ele>
        <time>2013-09-15T14:51:02.000Z</time>
      </trkpt>
      <trkpt lat="45.10358" lon="5.6907">
        <ele>325</ele>
        <time>2013-09-15T14:51:03.000Z</time>
      </trkpt>
      <trkpt lat="45.10358" lon="5.6907">
        <ele>325</ele>
        <time>2013-09-15T14:51:03.000Z</time>
      </trkpt>
      <trkpt lat="45.10358" lon="5.6907">
        <ele>325</ele>
        <time>2013-09-15T14:51:09.000Z</time>
      </trkpt>
      <trkpt lat="45.10362" lon="5.69083">
        <ele>324</ele>
        <time>2013-09-15T14:51:36.000Z</time>
      </trkpt>
      <trkpt lat="45.10362" lon="5.69083">
        <ele>324</ele>
        <time>2013-09-15T14:51:36.000Z</time>
      </trkpt>
      <trkpt lat="45.10362" lon="5.69083">
        <ele>324</ele>
        <time>2013-09-15T14:51:37.000Z</time>
      </trkpt>
      <trkpt lat="45.10362" lon="5.6909">
        <ele>324</ele>
        <time>2013-09-15T14:51:38.000Z</time>
      </trkpt>
      <trkpt lat="45.10364" lon="5.69098">
        <ele>324</ele>
        <time>2013-09-15T14:51:40.000Z</time>
      </trkpt>
      <trkpt lat="45.10372" lon="5.69102">
        <ele>324</ele>
        <time>2013-09-15T14:51:42.000Z</time>
      </trkpt>
      <trkpt lat="45.10376" lon="5.69105">
        <ele>324</ele>
        <time>2013-09-15T14:51:43.000Z</time>
      </trkpt>
      <trkpt lat="45.10381" lon="5.69107">
        <ele>324</ele>
        <time>2013-09-15T14:51:44.000Z</time>
      </trkpt>
      <trkpt lat="45.10386" lon="5.69109">
        <ele>323</ele>
        <time>2013-09-15T14:51:45.000Z</time>
      </trkpt>
      <trkpt lat="45.10392" lon="5.69113">
        <ele>323</ele>
        <time>2013-09-15T14:51:46.000Z</time>
      </trkpt>
      <trkpt lat="45.10398" lon="5.69118">
        <ele>323</ele>
        <time>2013-09-15T14:51:47.000Z</time>
      </trkpt>
      <trkpt lat="45.10405" lon="5.69122">
        <ele>323</ele>
        <time>2013-09-15T14:51:48.000Z</time>
      </trkpt>
      <trkpt lat="45.10412" lon="5.69126">
        <ele>323</ele>
        <time>2013-09-15T14:51:49.000Z</time>
      </trkpt>
      <trkpt lat="45.10419" lon="5.6913">
        <ele>323</ele>
        <time>2013-09-15T14:51:50.000Z</time>
      </trkpt>
      <trkpt lat="45.10424" lon="5.69135">
        <ele>322</ele>
        <time>2013-09-15T14:51:51.000Z</time>
      </trkpt>
      <trkpt lat="45.1043" lon="5.69139">
        <ele>322</ele>
        <time>2013-09-15T14:51:52.000Z</time>
      </trkpt>
      <trkpt lat="45.10436" lon="5.69143">
        <ele>322</ele>
        <time>2013-09-15T14:51:53.000Z</time>
      </trkpt>
      <trkpt lat="45.10439" lon="5.69148">
        <ele>322</ele>
        <time>2013-09-15T14:51:54.000Z</time>
      </trkpt>
      <trkpt lat="45.10442" lon="5.69152">
        <ele>322</ele>
        <time>2013-09-15T14:51:55.000Z</time>
      </trkpt>
      <trkpt lat="45.10442" lon="5.69152">
        <ele>322</ele>
        <time>2013-09-15T14:51:55.000Z</time>
      </trkpt>
      <trkpt lat="45.10442" lon="5.69152">
        <ele>322</ele>
        <time>2013-09-15T14:51:58.000Z</time>
      </trkpt>
      <trkpt lat="45.10449" lon="5.69158">
        <ele>321</ele>
        <time>2013-09-15T14:51:59.000Z</time>
      </trkpt>
      <trkpt lat="45.10449" lon="5.69158">
        <ele>321</ele>
        <time>2013-09-15T14:51:59.000Z</time>
      </trkpt>
      <trkpt lat="45.10449" lon="5.69158">
        <ele>321</ele>
        <time>2013-09-15T14:52:20.000Z</time>
      </trkpt>
      <trkpt lat="45.10442" lon="5.69158">
        <ele>321</ele>
        <time>2013-09-15T14:52:21.000Z</time>
      </trkpt>
      <trkpt lat="45.10434" lon="5.69158">
        <ele>320</ele>
        <time>2013-09-15T14:52:23.000Z</time>
      </trkpt>
      <trkpt lat="45.10424" lon="5.69158">
        <ele>318</ele>
        <time>2013-09-15T14:52:25.000Z</time>
      </trkpt>
      <trkpt lat="45.10417" lon="5.69158">
        <ele>317</ele>
        <time>2013-09-15T14:52:27.000Z</time>
      </trkpt>
      <trkpt lat="45.10409" lon="5.69158">
        <ele>316</ele>
        <time>2013-09-15T14:52:29.000Z</time>
      </trkpt>
      <trkpt lat="45.104" lon="5.69158">
        <ele>316</ele>
        <time>2013-09-15T14:52:31.000Z</time>
      </trkpt>
      <trkpt lat="45.10394" lon="5.69158">
        <ele>316</ele>
        <time>2013-09-15T14:52:33.000Z</time>
      </trkpt>
      <trkpt lat="45.10386" lon="5.69158">
        <ele>316</ele>
        <time>2013-09-15T14:52:35.000Z</time>
      </trkpt>
      <trkpt lat="45.1038" lon="5.69158">
        <ele>316</ele>
        <time>2013-09-15T14:52:37.000Z</time>
      </trkpt>
      <trkpt lat="45.10374" lon="5.6916">
        <ele>316</ele>
        <time>2013-09-15T14:52:39.000Z</time>
      </trkpt>
      <trkpt lat="45.10366" lon="5.69163">
        <ele>316</ele>
        <time>2013-09-15T14:52:41.000Z</time>
      </trkpt>
      <trkpt lat="45.1036" lon="5.69165">
        <ele>316</ele>
        <time>2013-09-15T14:52:43.000Z</time>
      </trkpt>
      <trkpt lat="45.10353" lon="5.69171">
        <ele>315</ele>
        <time>2013-09-15T14:52:45.000Z</time>
      </trkpt>
      <trkpt lat="45.10348" lon="5.69178">
        <ele>315</ele>
        <time>2013-09-15T14:52:47.000Z</time>
      </trkpt>
      <trkpt lat="45.10342" lon="5.69188">
        <ele>316</ele>
        <time>2013-09-15T14:52:49.000Z</time>
      </trkpt>
      <trkpt lat="45.10339" lon="5.69195">
        <ele>316</ele>
        <time>2013-09-15T14:52:50.000Z</time>
      </trkpt>
      <trkpt lat="45.10334" lon="5.69203">
        <ele>316</ele>
        <time>2013-09-15T14:52:52.000Z</time>
      </trkpt>
      <trkpt lat="45.1033" lon="5.69214">
        <ele>316</ele>
        <time>2013-09-15T14:52:54.000Z</time>
      </trkpt>
      <trkpt lat="45.10323" lon="5.69223">
        <ele>317</ele>
        <time>2013-09-15T14:52:56.000Z</time>
      </trkpt>
      <trkpt lat="45.10318" lon="5.69231">
        <ele>317</ele>
        <time>2013-09-15T14:52:58.000Z</time>
      </trkpt>
      <trkpt lat="45.10311" lon="5.6924">
        <ele>317</ele>
        <time>2013-09-15T14:53:00.000Z</time>
      </trkpt>
      <trkpt lat="45.10305" lon="5.69246">
        <ele>317</ele>
        <time>2013-09-15T14:53:02.000Z</time>
      </trkpt>
      <trkpt lat="45.10299" lon="5.69255">
        <ele>317</ele>
        <time>2013-09-15T14:53:04.000Z</time>
      </trkpt>
      <trkpt lat="45.10292" lon="5.69261">
        <ele>318</ele>
        <time>2013-09-15T14:53:06.000Z</time>
      </trkpt>
      <trkpt lat="45.10286" lon="5.6927">
        <ele>319</ele>
        <time>2013-09-15T14:53:08.000Z</time>
      </trkpt>
      <trkpt lat="45.10279" lon="5.69278">
        <ele>320</ele>
        <time>2013-09-15T14:53:10.000Z</time>
      </trkpt>
      <trkpt lat="45.10274" lon="5.69285">
        <ele>320</ele>
        <time>2013-09-15T14:53:12.000Z</time>
      </trkpt>
      <trkpt lat="45.10266" lon="5.69291">
        <ele>320</ele>
        <time>2013-09-15T14:53:14.000Z</time>
      </trkpt>
      <trkpt lat="45.10259" lon="5.69298">
        <ele>321</ele>
        <time>2013-09-15T14:53:16.000Z</time>
      </trkpt>
      <trkpt lat="45.10255" lon="5.69302">
        <ele>321</ele>
        <time>2013-09-15T14:53:17.000Z</time>
      </trkpt>
      <trkpt lat="45.1025" lon="5.69304">
        <ele>321</ele>
        <time>2013-09-15T14:53:18.000Z</time>
      </trkpt>
      <trkpt lat="45.10243" lon="5.69311">
        <ele>321</ele>
        <time>2013-09-15T14:53:20.000Z</time>
      </trkpt>
      <trkpt lat="45.10238" lon="5.69315">
        <ele>321</ele>
        <time>2013-09-15T14:53:21.000Z</time>
      </trkpt>
      <trkpt lat="45.10231" lon="5.69319">
        <ele>321</ele>
        <time>2013-09-15T14:53:23.000Z</time>
      </trkpt>
      <trkpt lat="45.10224" lon="5.69326">
        <ele>321</ele>
        <time>2013-09-15T14:53:25.000Z</time>
      </trkpt>
      <trkpt lat="45.10216" lon="5.6933">
        <ele>321</ele>
        <time>2013-09-15T14:53:27.000Z</time>
      </trkpt>
      <trkpt lat="45.1021" lon="5.69336">
        <ele>321</ele>
        <time>2013-09-15T14:53:29.000Z</time>
      </trkpt>
      <trkpt lat="45.10205" lon="5.69338">
        <ele>321</ele>
        <time>2013-09-15T14:53:30.000Z</time>
      </trkpt>
      <trkpt lat="45.10199" lon="5.69345">
        <ele>320</ele>
        <time>2013-09-15T14:53:32.000Z</time>
      </trkpt>
      <trkpt lat="45.10192" lon="5.69351">
        <ele>320</ele>
        <time>2013-09-15T14:53:34.000Z</time>
      </trkpt>
      <trkpt lat="45.10186" lon="5.69358">
        <ele>320</ele>
        <time>2013-09-15T14:53:36.000Z</time>
      </trkpt>
      <trkpt lat="45.1018" lon="5.69364">
        <ele>320</ele>
        <time>2013-09-15T14:53:38.000Z</time>
      </trkpt>
      <trkpt lat="45.10173" lon="5.69371">
        <ele>320</ele>
        <time>2013-09-15T14:53:40.000Z</time>
      </trkpt>
      <trkpt lat="45.10166" lon="5.69375">
        <ele>320</ele>
        <time>2013-09-15T14:53:42.000Z</time>
      </trkpt>
      <trkpt lat="45.10158" lon="5.69381">
        <ele>320</ele>
        <time>2013-09-15T14:53:44.000Z</time>
      </trkpt>
      <trkpt lat="45.1015" lon="5.69388">
        <ele>320</ele>
        <time>2013-09-15T14:53:46.000Z</time>
      </trkpt>
      <trkpt lat="45.10146" lon="5.6939">
        <ele>320</ele>
        <time>2013-09-15T14:53:47.000Z</time>
      </trkpt>
      <trkpt lat="45.10146" lon="5.6939">
        <ele>320</ele>
        <time>2013-09-15T14:53:47.000Z</time>
      </trkpt>
      <trkpt lat="45.10146" lon="5.6939">
        <ele>320</ele>
        <time>2013-09-15T14:53:50.000Z</time>
      </trkpt>
      <trkpt lat="45.1014" lon="5.69396">
        <ele>320</ele>
        <time>2013-09-15T14:53:51.000Z</time>
      </trkpt>
      <trkpt lat="45.1014" lon="5.69396">
        <ele>320</ele>
        <time>2013-09-15T14:53:51.000Z</time>
      </trkpt>
      <trkpt lat="45.1014" lon="5.69396">
        <ele>320</ele>
        <time>2013-09-15T14:53:54.000Z</time>
      </trkpt>
      <trkpt lat="45.10134" lon="5.69403">
        <ele>319</ele>
        <time>2013-09-15T14:53:55.000Z</time>
      </trkpt>
      <trkpt lat="45.1013" lon="5.69409">
        <ele>319</ele>
        <time>2013-09-15T14:53:57.000Z</time>
      </trkpt>
      <trkpt lat="45.10125" lon="5.69416">
        <ele>319</ele>
        <time>2013-09-15T14:53:59.000Z</time>
      </trkpt>
      <trkpt lat="45.10122" lon="5.69424">
        <ele>319</ele>
        <time>2013-09-15T14:54:01.000Z</time>
      </trkpt>
      <trkpt lat="45.10122" lon="5.69424">
        <ele>319</ele>
        <time>2013-09-15T14:54:01.000Z</time>
      </trkpt>
      <trkpt lat="45.10122" lon="5.69424">
        <ele>319</ele>
        <time>2013-09-15T14:54:06.000Z</time>
      </trkpt>
      <trkpt lat="45.10114" lon="5.69433">
        <ele>318</ele>
        <time>2013-09-15T14:54:07.000Z</time>
      </trkpt>
      <trkpt lat="45.10114" lon="5.69433">
        <ele>318</ele>
        <time>2013-09-15T14:54:07.000Z</time>
      </trkpt>
      <trkpt lat="45.10114" lon="5.69433">
        <ele>318</ele>
        <time>2013-09-15T14:54:09.000Z</time>
      </trkpt>
      <trkpt lat="45.10109" lon="5.69437">
        <ele>318</ele>
        <time>2013-09-15T14:54:10.000Z</time>
      </trkpt>
      <trkpt lat="45.10109" lon="5.69437">
        <ele>318</ele>
        <time>2013-09-15T14:54:10.000Z</time>
      </trkpt>
      <trkpt lat="45.10109" lon="5.69437">
        <ele>318</ele>
        <time>2013-09-15T14:54:11.000Z</time>
      </trkpt>
      <trkpt lat="45.10104" lon="5.69444">
        <ele>318</ele>
        <time>2013-09-15T14:54:12.000Z</time>
      </trkpt>
      <trkpt lat="45.101" lon="5.69452">
        <ele>318</ele>
        <time>2013-09-15T14:54:14.000Z</time>
      </trkpt>
      <trkpt lat="45.10097" lon="5.69461">
        <ele>318</ele>
        <time>2013-09-15T14:54:16.000Z</time>
      </trkpt>
      <trkpt lat="45.10095" lon="5.69467">
        <ele>318</ele>
        <time>2013-09-15T14:54:17.000Z</time>
      </trkpt>
      <trkpt lat="45.1009" lon="5.69476">
        <ele>318</ele>
        <time>2013-09-15T14:54:19.000Z</time>
      </trkpt>
      <trkpt lat="45.10088" lon="5.69482">
        <ele>318</ele>
        <time>2013-09-15T14:54:20.000Z</time>
      </trkpt>
      <trkpt lat="45.10085" lon="5.69491">
        <ele>317</ele>
        <time>2013-09-15T14:54:22.000Z</time>
      </trkpt>
      <trkpt lat="45.10084" lon="5.69497">
        <ele>317</ele>
        <time>2013-09-15T14:54:23.000Z</time>
      </trkpt>
      <trkpt lat="45.1008" lon="5.69508">
        <ele>317</ele>
        <time>2013-09-15T14:54:25.000Z</time>
      </trkpt>
      <trkpt lat="45.10076" lon="5.69519">
        <ele>317</ele>
        <time>2013-09-15T14:54:27.000Z</time>
      </trkpt>
      <trkpt lat="45.10074" lon="5.69525">
        <ele>317</ele>
        <time>2013-09-15T14:54:28.000Z</time>
      </trkpt>
      <trkpt lat="45.10071" lon="5.69534">
        <ele>317</ele>
        <time>2013-09-15T14:54:30.000Z</time>
      </trkpt>
      <trkpt lat="45.10068" lon="5.69544">
        <ele>317</ele>
        <time>2013-09-15T14:54:32.000Z</time>
      </trkpt>
      <trkpt lat="45.10064" lon="5.69551">
        <ele>317</ele>
        <time>2013-09-15T14:54:34.000Z</time>
      </trkpt>
      <trkpt lat="45.10057" lon="5.69557">
        <ele>316</ele>
        <time>2013-09-15T14:54:36.000Z</time>
      </trkpt>
      <trkpt lat="45.10052" lon="5.69564">
        <ele>316</ele>
        <time>2013-09-15T14:54:38.000Z</time>
      </trkpt>
      <trkpt lat="45.10048" lon="5.69568">
        <ele>316</ele>
        <time>2013-09-15T14:54:40.000Z</time>
      </trkpt>
      <trkpt lat="45.10042" lon="5.69574">
        <ele>316</ele>
        <time>2013-09-15T14:54:42.000Z</time>
      </trkpt>
      <trkpt lat="45.10036" lon="5.69581">
        <ele>316</ele>
        <time>2013-09-15T14:54:44.000Z</time>
      </trkpt>
      <trkpt lat="45.1003" lon="5.69585">
        <ele>316</ele>
        <time>2013-09-15T14:54:46.000Z</time>
      </trkpt>
      <trkpt lat="45.10024" lon="5.69592">
        <ele>315</ele>
        <time>2013-09-15T14:54:48.000Z</time>
      </trkpt>
      <trkpt lat="45.10018" lon="5.69596">
        <ele>315</ele>
        <time>2013-09-15T14:54:50.000Z</time>
      </trkpt>
      <trkpt lat="45.10013" lon="5.69602">
        <ele>315</ele>
        <time>2013-09-15T14:54:52.000Z</time>
      </trkpt>
      <trkpt lat="45.10009" lon="5.69609">
        <ele>315</ele>
        <time>2013-09-15T14:54:54.000Z</time>
      </trkpt>
      <trkpt lat="45.10004" lon="5.69613">
        <ele>315</ele>
        <time>2013-09-15T14:54:56.000Z</time>
      </trkpt>
      <trkpt lat="45.09999" lon="5.6962">
        <ele>314</ele>
        <time>2013-09-15T14:54:58.000Z</time>
      </trkpt>
      <trkpt lat="45.09995" lon="5.69626">
        <ele>314</ele>
        <time>2013-09-15T14:55:00.000Z</time>
      </trkpt>
      <trkpt lat="45.09991" lon="5.6963">
        <ele>314</ele>
        <time>2013-09-15T14:55:02.000Z</time>
      </trkpt>
      <trkpt lat="45.09982" lon="5.69643">
        <ele>314</ele>
        <time>2013-09-15T14:55:08.000Z</time>
      </trkpt>
      <trkpt lat="45.09982" lon="5.69643">
        <ele>314</ele>
        <time>2013-09-15T14:55:08.000Z</time>
      </trkpt>
      <trkpt lat="45.09982" lon="5.69643">
        <ele>314</ele>
        <time>2013-09-15T14:55:11.000Z</time>
      </trkpt>
      <trkpt lat="45.09974" lon="5.69654">
        <ele>314</ele>
        <time>2013-09-15T14:55:12.000Z</time>
      </trkpt>
      <trkpt lat="45.09974" lon="5.69654">
        <ele>314</ele>
        <time>2013-09-15T14:55:12.000Z</time>
      </trkpt>
      <trkpt lat="45.09974" lon="5.69654">
        <ele>314</ele>
        <time>2013-09-15T14:55:15.000Z</time>
      </trkpt>
      <trkpt lat="45.09965" lon="5.69665">
        <ele>314</ele>
        <time>2013-09-15T14:55:16.000Z</time>
      </trkpt>
      <trkpt lat="45.09965" lon="5.69665">
        <ele>314</ele>
        <time>2013-09-15T14:55:16.000Z</time>
      </trkpt>
      <trkpt lat="45.09965" lon="5.69665">
        <ele>314</ele>
        <time>2013-09-15T14:55:19.000Z</time>
      </trkpt>
      <trkpt lat="45.09958" lon="5.69673">
        <ele>313</ele>
        <time>2013-09-15T14:55:20.000Z</time>
      </trkpt>
      <trkpt lat="45.09958" lon="5.69673">
        <ele>313</ele>
        <time>2013-09-15T14:55:20.000Z</time>
      </trkpt>
      <trkpt lat="45.09958" lon="5.69673">
        <ele>313</ele>
        <time>2013-09-15T14:55:31.000Z</time>
      </trkpt>
      <trkpt lat="45.09955" lon="5.6968">
        <ele>313</ele>
        <time>2013-09-15T14:55:32.000Z</time>
      </trkpt>
      <trkpt lat="45.09955" lon="5.6968">
        <ele>313</ele>
        <time>2013-09-15T14:55:32.000Z</time>
      </trkpt>
      <trkpt lat="45.09955" lon="5.6968">
        <ele>313</ele>
        <time>2013-09-15T14:56:05.000Z</time>
      </trkpt>
      <trkpt lat="45.09946" lon="5.69695">
        <ele>313</ele>
        <time>2013-09-15T14:56:06.000Z</time>
      </trkpt>
      <trkpt lat="45.09943" lon="5.69701">
        <ele>313</ele>
        <time>2013-09-15T14:56:07.000Z</time>
      </trkpt>
      <trkpt lat="45.09939" lon="5.6971">
        <ele>313</ele>
        <time>2013-09-15T14:56:09.000Z</time>
      </trkpt>
      <trkpt lat="45.09937" lon="5.69716">
        <ele>313</ele>
        <time>2013-09-15T14:56:11.000Z</time>
      </trkpt>
      <trkpt lat="45.09937" lon="5.69716">
        <ele>313</ele>
        <time>2013-09-15T14:56:11.000Z</time>
      </trkpt>
      <trkpt lat="45.09937" lon="5.69716">
        <ele>313</ele>
        <time>2013-09-15T14:56:13.000Z</time>
      </trkpt>
      <trkpt lat="45.09934" lon="5.69727">
        <ele>313</ele>
        <time>2013-09-15T14:56:14.000Z</time>
      </trkpt>
      <trkpt lat="45.09934" lon="5.69727">
        <ele>313</ele>
        <time>2013-09-15T14:56:14.000Z</time>
      </trkpt>
      <trkpt lat="45.09934" lon="5.69727">
        <ele>313</ele>
        <time>2013-09-15T14:56:18.000Z</time>
      </trkpt>
      <trkpt lat="45.0993" lon="5.6974">
        <ele>313</ele>
        <time>2013-09-15T14:56:19.000Z</time>
      </trkpt>
      <trkpt lat="45.09928" lon="5.69746">
        <ele>313</ele>
        <time>2013-09-15T14:56:21.000Z</time>
      </trkpt>
      <trkpt lat="45.09927" lon="5.69753">
        <ele>313</ele>
        <time>2013-09-15T14:56:23.000Z</time>
      </trkpt>
      <trkpt lat="45.09925" lon="5.69759">
        <ele>312</ele>
        <time>2013-09-15T14:56:25.000Z</time>
      </trkpt>
      <trkpt lat="45.09924" lon="5.69768">
        <ele>312</ele>
        <time>2013-09-15T14:56:27.000Z</time>
      </trkpt>
      <trkpt lat="45.09922" lon="5.69774">
        <ele>312</ele>
        <time>2013-09-15T14:56:29.000Z</time>
      </trkpt>
      <trkpt lat="45.0992" lon="5.6978">
        <ele>312</ele>
        <time>2013-09-15T14:56:31.000Z</time>
      </trkpt>
      <trkpt lat="45.09919" lon="5.69787">
        <ele>312</ele>
        <time>2013-09-15T14:56:33.000Z</time>
      </trkpt>
      <trkpt lat="45.09917" lon="5.69796">
        <ele>312</ele>
        <time>2013-09-15T14:56:36.000Z</time>
      </trkpt>
      <trkpt lat="45.09916" lon="5.69802">
        <ele>312</ele>
        <time>2013-09-15T14:56:39.000Z</time>
      </trkpt>
      <trkpt lat="45.09916" lon="5.69808">
        <ele>312</ele>
        <time>2013-09-15T14:56:42.000Z</time>
      </trkpt>
      <trkpt lat="45.09919" lon="5.69817">
        <ele>312</ele>
        <time>2013-09-15T14:56:45.000Z</time>
      </trkpt>
      <trkpt lat="45.09922" lon="5.69824">
        <ele>312</ele>
        <time>2013-09-15T14:56:48.000Z</time>
      </trkpt>
      <trkpt lat="45.09927" lon="5.69832">
        <ele>312</ele>
        <time>2013-09-15T14:56:51.000Z</time>
      </trkpt>
      <trkpt lat="45.09933" lon="5.69836">
        <ele>312</ele>
        <time>2013-09-15T14:56:53.000Z</time>
      </trkpt>
      <trkpt lat="45.09938" lon="5.69843">
        <ele>312</ele>
        <time>2013-09-15T14:56:55.000Z</time>
      </trkpt>
      <trkpt lat="45.09944" lon="5.69847">
        <ele>312</ele>
        <time>2013-09-15T14:56:57.000Z</time>
      </trkpt>
      <trkpt lat="45.09952" lon="5.69851">
        <ele>312</ele>
        <time>2013-09-15T14:56:59.000Z</time>
      </trkpt>
      <trkpt lat="45.09955" lon="5.69856">
        <ele>312</ele>
        <time>2013-09-15T14:57:00.000Z</time>
      </trkpt>
      <trkpt lat="45.09958" lon="5.6986">
        <ele>311</ele>
        <time>2013-09-15T14:57:01.000Z</time>
      </trkpt>
      <trkpt lat="45.09963" lon="5.69862">
        <ele>311</ele>
        <time>2013-09-15T14:57:02.000Z</time>
      </trkpt>
      <trkpt lat="45.09966" lon="5.69866">
        <ele>311</ele>
        <time>2013-09-15T14:57:03.000Z</time>
      </trkpt>
      <trkpt lat="45.09974" lon="5.69873">
        <ele>309</ele>
        <time>2013-09-15T14:57:05.000Z</time>
      </trkpt>
      <trkpt lat="45.09981" lon="5.69881">
        <ele>307</ele>
        <time>2013-09-15T14:57:07.000Z</time>
      </trkpt>
      <trkpt lat="45.0999" lon="5.69888">
        <ele>305</ele>
        <time>2013-09-15T14:57:09.000Z</time>
      </trkpt>
      <trkpt lat="45.09994" lon="5.69892">
        <ele>305</ele>
        <time>2013-09-15T14:57:10.000Z</time>
      </trkpt>
      <trkpt lat="45.09998" lon="5.69896">
        <ele>304</ele>
        <time>2013-09-15T14:57:11.000Z</time>
      </trkpt>
      <trkpt lat="45.10002" lon="5.69899">
        <ele>304</ele>
        <time>2013-09-15T14:57:12.000Z</time>
      </trkpt>
      <trkpt lat="45.10007" lon="5.69903">
        <ele>304</ele>
        <time>2013-09-15T14:57:13.000Z</time>
      </trkpt>
      <trkpt lat="45.10011" lon="5.69905">
        <ele>304</ele>
        <time>2013-09-15T14:57:14.000Z</time>
      </trkpt>
      <trkpt lat="45.10015" lon="5.69909">
        <ele>304</ele>
        <time>2013-09-15T14:57:15.000Z</time>
      </trkpt>
      <trkpt lat="45.1002" lon="5.69911">
        <ele>304</ele>
        <time>2013-09-15T14:57:16.000Z</time>
      </trkpt>
      <trkpt lat="45.10025" lon="5.69916">
        <ele>304</ele>
        <time>2013-09-15T14:57:17.000Z</time>
      </trkpt>
      <trkpt lat="45.10029" lon="5.69918">
        <ele>304</ele>
        <time>2013-09-15T14:57:18.000Z</time>
      </trkpt>
      <trkpt lat="45.10035" lon="5.69922">
        <ele>304</ele>
        <time>2013-09-15T14:57:19.000Z</time>
      </trkpt>
      <trkpt lat="45.10039" lon="5.69924">
        <ele>304</ele>
        <time>2013-09-15T14:57:20.000Z</time>
      </trkpt>
      <trkpt lat="45.10043" lon="5.69929">
        <ele>304</ele>
        <time>2013-09-15T14:57:21.000Z</time>
      </trkpt>
      <trkpt lat="45.10049" lon="5.69933">
        <ele>303</ele>
        <time>2013-09-15T14:57:22.000Z</time>
      </trkpt>
      <trkpt lat="45.10053" lon="5.69935">
        <ele>303</ele>
        <time>2013-09-15T14:57:23.000Z</time>
      </trkpt>
      <trkpt lat="45.10057" lon="5.69939">
        <ele>303</ele>
        <time>2013-09-15T14:57:24.000Z</time>
      </trkpt>
      <trkpt lat="45.10062" lon="5.69944">
        <ele>303</ele>
        <time>2013-09-15T14:57:25.000Z</time>
      </trkpt>
      <trkpt lat="45.10066" lon="5.69946">
        <ele>303</ele>
        <time>2013-09-15T14:57:26.000Z</time>
      </trkpt>
      <trkpt lat="45.1007" lon="5.6995">
        <ele>303</ele>
        <time>2013-09-15T14:57:27.000Z</time>
      </trkpt>
      <trkpt lat="45.10075" lon="5.69954">
        <ele>304</ele>
        <time>2013-09-15T14:57:28.000Z</time>
      </trkpt>
      <trkpt lat="45.1008" lon="5.69956">
        <ele>304</ele>
        <time>2013-09-15T14:57:29.000Z</time>
      </trkpt>
      <trkpt lat="45.10084" lon="5.69961">
        <ele>304</ele>
        <time>2013-09-15T14:57:30.000Z</time>
      </trkpt>
      <trkpt lat="45.10089" lon="5.69963">
        <ele>304</ele>
        <time>2013-09-15T14:57:31.000Z</time>
      </trkpt>
      <trkpt lat="45.10094" lon="5.69967">
        <ele>304</ele>
        <time>2013-09-15T14:57:32.000Z</time>
      </trkpt>
      <trkpt lat="45.10098" lon="5.69969">
        <ele>304</ele>
        <time>2013-09-15T14:57:33.000Z</time>
      </trkpt>
      <trkpt lat="45.10102" lon="5.69974">
        <ele>304</ele>
        <time>2013-09-15T14:57:34.000Z</time>
      </trkpt>
      <trkpt lat="45.10106" lon="5.69976">
        <ele>303</ele>
        <time>2013-09-15T14:57:35.000Z</time>
      </trkpt>
      <trkpt lat="45.10112" lon="5.6998">
        <ele>303</ele>
        <time>2013-09-15T14:57:36.000Z</time>
      </trkpt>
      <trkpt lat="45.10116" lon="5.69982">
        <ele>303</ele>
        <time>2013-09-15T14:57:37.000Z</time>
      </trkpt>
      <trkpt lat="45.1012" lon="5.69986">
        <ele>303</ele>
        <time>2013-09-15T14:57:38.000Z</time>
      </trkpt>
      <trkpt lat="45.10125" lon="5.69991">
        <ele>303</ele>
        <time>2013-09-15T14:57:39.000Z</time>
      </trkpt>
      <trkpt lat="45.1013" lon="5.69993">
        <ele>303</ele>
        <time>2013-09-15T14:57:40.000Z</time>
      </trkpt>
      <trkpt lat="45.10138" lon="5.69997">
        <ele>303</ele>
        <time>2013-09-15T14:57:42.000Z</time>
      </trkpt>
      <trkpt lat="45.10146" lon="5.70002">
        <ele>303</ele>
        <time>2013-09-15T14:57:44.000Z</time>
      </trkpt>
      <trkpt lat="45.1015" lon="5.70004">
        <ele>303</ele>
        <time>2013-09-15T14:57:45.000Z</time>
      </trkpt>
      <trkpt lat="45.10159" lon="5.70008">
        <ele>303</ele>
        <time>2013-09-15T14:57:47.000Z</time>
      </trkpt>
      <trkpt lat="45.10163" lon="5.7001">
        <ele>303</ele>
        <time>2013-09-15T14:57:48.000Z</time>
      </trkpt>
      <trkpt lat="45.10173" lon="5.70012">
        <ele>303</ele>
        <time>2013-09-15T14:57:50.000Z</time>
      </trkpt>
      <trkpt lat="45.10178" lon="5.70012">
        <ele>303</ele>
        <time>2013-09-15T14:57:51.000Z</time>
      </trkpt>
      <trkpt lat="45.10184" lon="5.70014">
        <ele>303</ele>
        <time>2013-09-15T14:57:52.000Z</time>
      </trkpt>
      <trkpt lat="45.10189" lon="5.70014">
        <ele>303</ele>
        <time>2013-09-15T14:57:53.000Z</time>
      </trkpt>
      <trkpt lat="45.10194" lon="5.70017">
        <ele>304</ele>
        <time>2013-09-15T14:57:54.000Z</time>
      </trkpt>
      <trkpt lat="45.102" lon="5.70017">
        <ele>304</ele>
        <time>2013-09-15T14:57:55.000Z</time>
      </trkpt>
      <trkpt lat="45.10205" lon="5.70017">
        <ele>304</ele>
        <time>2013-09-15T14:57:56.000Z</time>
      </trkpt>
      <trkpt lat="45.10214" lon="5.70017">
        <ele>304</ele>
        <time>2013-09-15T14:57:58.000Z</time>
      </trkpt>
      <trkpt lat="45.10214" lon="5.70017">
        <ele>304</ele>
        <time>2013-09-15T14:57:58.000Z</time>
      </trkpt>
      <trkpt lat="45.10214" lon="5.70017">
        <ele>304</ele>
        <time>2013-09-15T14:58:03.000Z</time>
      </trkpt>
      <trkpt lat="45.10224" lon="5.70017">
        <ele>304</ele>
        <time>2013-09-15T14:58:04.000Z</time>
      </trkpt>
      <trkpt lat="45.10224" lon="5.70017">
        <ele>304</ele>
        <time>2013-09-15T14:58:04.000Z</time>
      </trkpt>
      <trkpt lat="45.10224" lon="5.70017">
        <ele>304</ele>
        <time>2013-09-15T14:58:28.000Z</time>
      </trkpt>
      <trkpt lat="45.1023" lon="5.70019">
        <ele>303</ele>
        <time>2013-09-15T14:58:29.000Z</time>
      </trkpt>
      <trkpt lat="45.10238" lon="5.70019">
        <ele>302</ele>
        <time>2013-09-15T14:58:31.000Z</time>
      </trkpt>
      <trkpt lat="45.10248" lon="5.70019">
        <ele>302</ele>
        <time>2013-09-15T14:58:33.000Z</time>
      </trkpt>
      <trkpt lat="45.10254" lon="5.70019">
        <ele>302</ele>
        <time>2013-09-15T14:58:34.000Z</time>
      </trkpt>
      <trkpt lat="45.10263" lon="5.70019">
        <ele>299</ele>
        <time>2013-09-15T14:58:36.000Z</time>
      </trkpt>
      <trkpt lat="45.10268" lon="5.70019">
        <ele>298</ele>
        <time>2013-09-15T14:58:37.000Z</time>
      </trkpt>
      <trkpt lat="45.10273" lon="5.70017">
        <ele>297</ele>
        <time>2013-09-15T14:58:38.000Z</time>
      </trkpt>
      <trkpt lat="45.10278" lon="5.70017">
        <ele>296</ele>
        <time>2013-09-15T14:58:39.000Z</time>
      </trkpt>
      <trkpt lat="45.10282" lon="5.70014">
        <ele>296</ele>
        <time>2013-09-15T14:58:40.000Z</time>
      </trkpt>
      <trkpt lat="45.10287" lon="5.70012">
        <ele>296</ele>
        <time>2013-09-15T14:58:41.000Z</time>
      </trkpt>
      <trkpt lat="45.10291" lon="5.7001">
        <ele>295</ele>
        <time>2013-09-15T14:58:42.000Z</time>
      </trkpt>
      <trkpt lat="45.10296" lon="5.7001">
        <ele>295</ele>
        <time>2013-09-15T14:58:43.000Z</time>
      </trkpt>
      <trkpt lat="45.10301" lon="5.70008">
        <ele>296</ele>
        <time>2013-09-15T14:58:44.000Z</time>
      </trkpt>
      <trkpt lat="45.10305" lon="5.70006">
        <ele>296</ele>
        <time>2013-09-15T14:58:45.000Z</time>
      </trkpt>
      <trkpt lat="45.10309" lon="5.70004">
        <ele>296</ele>
        <time>2013-09-15T14:58:46.000Z</time>
      </trkpt>
      <trkpt lat="45.10314" lon="5.70002">
        <ele>296</ele>
        <time>2013-09-15T14:58:47.000Z</time>
      </trkpt>
      <trkpt lat="45.10318" lon="5.69999">
        <ele>296</ele>
        <time>2013-09-15T14:58:48.000Z</time>
      </trkpt>
      <trkpt lat="45.10325" lon="5.69993">
        <ele>296</ele>
        <time>2013-09-15T14:58:50.000Z</time>
      </trkpt>
      <trkpt lat="45.10332" lon="5.69986">
        <ele>296</ele>
        <time>2013-09-15T14:58:52.000Z</time>
      </trkpt>
      <trkpt lat="45.10336" lon="5.69982">
        <ele>296</ele>
        <time>2013-09-15T14:58:53.000Z</time>
      </trkpt>
      <trkpt lat="45.10344" lon="5.69974">
        <ele>296</ele>
        <time>2013-09-15T14:58:55.000Z</time>
      </trkpt>
      <trkpt lat="45.10348" lon="5.69969">
        <ele>296</ele>
        <time>2013-09-15T14:58:56.000Z</time>
      </trkpt>
      <trkpt lat="45.10354" lon="5.69961">
        <ele>296</ele>
        <time>2013-09-15T14:58:58.000Z</time>
      </trkpt>
      <trkpt lat="45.10361" lon="5.69954">
        <ele>296</ele>
        <time>2013-09-15T14:59:00.000Z</time>
      </trkpt>
      <trkpt lat="45.10367" lon="5.69948">
        <ele>296</ele>
        <time>2013-09-15T14:59:02.000Z</time>
      </trkpt>
      <trkpt lat="45.10377" lon="5.69937">
        <ele>297</ele>
        <time>2013-09-15T14:59:09.000Z</time>
      </trkpt>
      <trkpt lat="45.10377" lon="5.69937">
        <ele>297</ele>
        <time>2013-09-15T14:59:09.000Z</time>
      </trkpt>
      <trkpt lat="45.10377" lon="5.69937">
        <ele>297</ele>
        <time>2013-09-15T14:59:18.000Z</time>
      </trkpt>
      <trkpt lat="45.10386" lon="5.69931">
        <ele>298</ele>
        <time>2013-09-15T14:59:19.000Z</time>
      </trkpt>
      <trkpt lat="45.10386" lon="5.69931">
        <ele>298</ele>
        <time>2013-09-15T14:59:19.000Z</time>
      </trkpt>
      <trkpt lat="45.10386" lon="5.69931">
        <ele>298</ele>
        <time>2013-09-15T14:59:21.000Z</time>
      </trkpt>
      <trkpt lat="45.10392" lon="5.69933">
        <ele>298</ele>
        <time>2013-09-15T14:59:22.000Z</time>
      </trkpt>
      <trkpt lat="45.10398" lon="5.69935">
        <ele>298</ele>
        <time>2013-09-15T14:59:24.000Z</time>
      </trkpt>
      <trkpt lat="45.10405" lon="5.69937">
        <ele>298</ele>
        <time>2013-09-15T14:59:26.000Z</time>
      </trkpt>
      <trkpt lat="45.10411" lon="5.69939">
        <ele>298</ele>
        <time>2013-09-15T14:59:28.000Z</time>
      </trkpt>
      <trkpt lat="45.10418" lon="5.69939">
        <ele>299</ele>
        <time>2013-09-15T14:59:30.000Z</time>
      </trkpt>
      <trkpt lat="45.10423" lon="5.69935">
        <ele>299</ele>
        <time>2013-09-15T14:59:32.000Z</time>
      </trkpt>
      <trkpt lat="45.10428" lon="5.69929">
        <ele>300</ele>
        <time>2013-09-15T14:59:34.000Z</time>
      </trkpt>
      <trkpt lat="45.10435" lon="5.69922">
        <ele>302</ele>
        <time>2013-09-15T14:59:36.000Z</time>
      </trkpt>
      <trkpt lat="45.10439" lon="5.69918">
        <ele>303</ele>
        <time>2013-09-15T14:59:37.000Z</time>
      </trkpt>
      <trkpt lat="45.10446" lon="5.69911">
        <ele>305</ele>
        <time>2013-09-15T14:59:39.000Z</time>
      </trkpt>
      <trkpt lat="45.1045" lon="5.69907">
        <ele>306</ele>
        <time>2013-09-15T14:59:40.000Z</time>
      </trkpt>
      <trkpt lat="45.10454" lon="5.69903">
        <ele>307</ele>
        <time>2013-09-15T14:59:41.000Z</time>
      </trkpt>
      <trkpt lat="45.1046" lon="5.69899">
        <ele>308</ele>
        <time>2013-09-15T14:59:42.000Z</time>
      </trkpt>
      <trkpt lat="45.10464" lon="5.69896">
        <ele>308</ele>
        <time>2013-09-15T14:59:43.000Z</time>
      </trkpt>
      <trkpt lat="45.10468" lon="5.69892">
        <ele>309</ele>
        <time>2013-09-15T14:59:44.000Z</time>
      </trkpt>
      <trkpt lat="45.10472" lon="5.6989">
        <ele>309</ele>
        <time>2013-09-15T14:59:45.000Z</time>
      </trkpt>
      <trkpt lat="45.10477" lon="5.69886">
        <ele>309</ele>
        <time>2013-09-15T14:59:46.000Z</time>
      </trkpt>
      <trkpt lat="45.10481" lon="5.69881">
        <ele>310</ele>
        <time>2013-09-15T14:59:47.000Z</time>
      </trkpt>
      <trkpt lat="45.10485" lon="5.69879">
        <ele>310</ele>
        <time>2013-09-15T14:59:48.000Z</time>
      </trkpt>
      <trkpt lat="45.1049" lon="5.69877">
        <ele>310</ele>
        <time>2013-09-15T14:59:49.000Z</time>
      </trkpt>
      <trkpt lat="45.10496" lon="5.69873">
        <ele>311</ele>
        <time>2013-09-15T14:59:51.000Z</time>
      </trkpt>
      <trkpt lat="45.10502" lon="5.69866">
        <ele>311</ele>
        <time>2013-09-15T14:59:53.000Z</time>
      </trkpt>
      <trkpt lat="45.10509" lon="5.69862">
        <ele>311</ele>
        <time>2013-09-15T14:59:55.000Z</time>
      </trkpt>
      <trkpt lat="45.10515" lon="5.6986">
        <ele>311</ele>
        <time>2013-09-15T14:59:57.000Z</time>
      </trkpt>
      <trkpt lat="45.1052" lon="5.69858">
        <ele>311</ele>
        <time>2013-09-15T14:59:58.000Z</time>
      </trkpt>
      <trkpt lat="45.10527" lon="5.69854">
        <ele>311</ele>
        <time>2013-09-15T15:00:00.000Z</time>
      </trkpt>
      <trkpt lat="45.10531" lon="5.69851">
        <ele>312</ele>
        <time>2013-09-15T15:00:01.000Z</time>
      </trkpt>
      <trkpt lat="45.10535" lon="5.69841">
        <ele>312</ele>
        <time>2013-09-15T15:00:03.000Z</time>
      </trkpt>
      <trkpt lat="45.10537" lon="5.69832">
        <ele>312</ele>
        <time>2013-09-15T15:00:05.000Z</time>
      </trkpt>
      <trkpt lat="45.10536" lon="5.69821">
        <ele>312</ele>
        <time>2013-09-15T15:00:07.000Z</time>
      </trkpt>
      <trkpt lat="45.1053" lon="5.69815">
        <ele>312</ele>
        <time>2013-09-15T15:00:09.000Z</time>
      </trkpt>
      <trkpt lat="45.10527" lon="5.69806">
        <ele>312</ele>
        <time>2013-09-15T15:00:11.000Z</time>
      </trkpt>
      <trkpt lat="45.10528" lon="5.69798">
        <ele>312</ele>
        <time>2013-09-15T15:00:13.000Z</time>
      </trkpt>
      <trkpt lat="45.10532" lon="5.69789">
        <ele>312</ele>
        <time>2013-09-15T15:00:15.000Z</time>
      </trkpt>
      <trkpt lat="45.10537" lon="5.69785">
        <ele>312</ele>
        <time>2013-09-15T15:00:16.000Z</time>
      </trkpt>
      <trkpt lat="45.10541" lon="5.6978">
        <ele>312</ele>
        <time>2013-09-15T15:00:17.000Z</time>
      </trkpt>
      <trkpt lat="45.10545" lon="5.69774">
        <ele>312</ele>
        <time>2013-09-15T15:00:18.000Z</time>
      </trkpt>
      <trkpt lat="45.1055" lon="5.6977">
        <ele>311</ele>
        <time>2013-09-15T15:00:19.000Z</time>
      </trkpt>
      <trkpt lat="45.10554" lon="5.69766">
        <ele>311</ele>
        <time>2013-09-15T15:00:20.000Z</time>
      </trkpt>
      <trkpt lat="45.10561" lon="5.69757">
        <ele>310</ele>
        <time>2013-09-15T15:00:22.000Z</time>
      </trkpt>
      <trkpt lat="45.10566" lon="5.69755">
        <ele>310</ele>
        <time>2013-09-15T15:00:23.000Z</time>
      </trkpt>
      <trkpt lat="45.10573" lon="5.69755">
        <ele>310</ele>
        <time>2013-09-15T15:00:25.000Z</time>
      </trkpt>
      <trkpt lat="45.10581" lon="5.69755">
        <ele>309</ele>
        <time>2013-09-15T15:00:27.000Z</time>
      </trkpt>
      <trkpt lat="45.10592" lon="5.69757">
        <ele>309</ele>
        <time>2013-09-15T15:00:31.000Z</time>
      </trkpt>
      <trkpt lat="45.10597" lon="5.69757">
        <ele>309</ele>
        <time>2013-09-15T15:00:33.000Z</time>
      </trkpt>
      <trkpt lat="45.10602" lon="5.69755">
        <ele>309</ele>
        <time>2013-09-15T15:00:35.000Z</time>
      </trkpt>
      <trkpt lat="45.10617" lon="5.69755">
        <ele>309</ele>
        <time>2013-09-15T15:00:40.000Z</time>
      </trkpt>
      <trkpt lat="45.10626" lon="5.69755">
        <ele>309</ele>
        <time>2013-09-15T15:00:42.000Z</time>
      </trkpt>
      <trkpt lat="45.10633" lon="5.69753">
        <ele>309</ele>
        <time>2013-09-15T15:00:44.000Z</time>
      </trkpt>
      <trkpt lat="45.10638" lon="5.6975">
        <ele>309</ele>
        <time>2013-09-15T15:00:45.000Z</time>
      </trkpt>
      <trkpt lat="45.10644" lon="5.69746">
        <ele>309</ele>
        <time>2013-09-15T15:00:47.000Z</time>
      </trkpt>
      <trkpt lat="45.10649" lon="5.69742">
        <ele>309</ele>
        <time>2013-09-15T15:00:49.000Z</time>
      </trkpt>
      <trkpt lat="45.10657" lon="5.69733">
        <ele>309</ele>
        <time>2013-09-15T15:00:51.000Z</time>
      </trkpt>
      <trkpt lat="45.10663" lon="5.69727">
        <ele>309</ele>
        <time>2013-09-15T15:00:53.000Z</time>
      </trkpt>
      <trkpt lat="45.10663" lon="5.69727">
        <ele>309</ele>
        <time>2013-09-15T15:00:53.000Z</time>
      </trkpt>
      <trkpt lat="45.10663" lon="5.69727">
        <ele>309</ele>
        <time>2013-09-15T15:01:18.000Z</time>
      </trkpt>
      <trkpt lat="45.10669" lon="5.69723">
        <ele>309</ele>
        <time>2013-09-15T15:01:19.000Z</time>
      </trkpt>
      <trkpt lat="45.10669" lon="5.69723">
        <ele>309</ele>
        <time>2013-09-15T15:01:19.000Z</time>
      </trkpt>
      <trkpt lat="45.10669" lon="5.69723">
        <ele>309</ele>
        <time>2013-09-15T15:01:36.000Z</time>
      </trkpt>
      <trkpt lat="45.10661" lon="5.69708">
        <ele>308</ele>
        <time>2013-09-15T15:01:39.000Z</time>
      </trkpt>
      <trkpt lat="45.10661" lon="5.69708">
        <ele>308</ele>
        <time>2013-09-15T15:01:39.000Z</time>
      </trkpt>
      <trkpt lat="45.10661" lon="5.69708">
        <ele>308</ele>
        <time>2013-09-15T15:01:40.000Z</time>
      </trkpt>
      <trkpt lat="45.10658" lon="5.69699">
        <ele>308</ele>
        <time>2013-09-15T15:01:41.000Z</time>
      </trkpt>
      <trkpt lat="45.10658" lon="5.69699">
        <ele>308</ele>
        <time>2013-09-15T15:01:41.000Z</time>
      </trkpt>
      <trkpt lat="45.10658" lon="5.69699">
        <ele>308</ele>
        <time>2013-09-15T15:01:43.000Z</time>
      </trkpt>
      <trkpt lat="45.10667" lon="5.69688">
        <ele>307</ele>
        <time>2013-09-15T15:01:44.000Z</time>
      </trkpt>
      <trkpt lat="45.10667" lon="5.69688">
        <ele>307</ele>
        <time>2013-09-15T15:01:44.000Z</time>
      </trkpt>
      <trkpt lat="45.10667" lon="5.69688">
        <ele>307</ele>
        <time>2013-09-15T15:01:45.000Z</time>
      </trkpt>
      <trkpt lat="45.10674" lon="5.69682">
        <ele>307</ele>
        <time>2013-09-15T15:01:46.000Z</time>
      </trkpt>
      <trkpt lat="45.10679" lon="5.6968">
        <ele>307</ele>
        <time>2013-09-15T15:01:47.000Z</time>
      </trkpt>
      <trkpt lat="45.10688" lon="5.6968">
        <ele>307</ele>
        <time>2013-09-15T15:01:49.000Z</time>
      </trkpt>
      <trkpt lat="45.10697" lon="5.6968">
        <ele>306</ele>
        <time>2013-09-15T15:01:51.000Z</time>
      </trkpt>
      <trkpt lat="45.10697" lon="5.6968">
        <ele>306</ele>
        <time>2013-09-15T15:01:51.000Z</time>
      </trkpt>
      <trkpt lat="45.10697" lon="5.6968">
        <ele>306</ele>
        <time>2013-09-15T15:01:52.000Z</time>
      </trkpt>
      <trkpt lat="45.10702" lon="5.69675">
        <ele>306</ele>
        <time>2013-09-15T15:01:53.000Z</time>
      </trkpt>
      <trkpt lat="45.10702" lon="5.69675">
        <ele>306</ele>
        <time>2013-09-15T15:01:53.000Z</time>
      </trkpt>
      <trkpt lat="45.10702" lon="5.69675">
        <ele>306</ele>
        <time>2013-09-15T15:01:54.000Z</time>
      </trkpt>
      <trkpt lat="45.1071" lon="5.69667">
        <ele>306</ele>
        <time>2013-09-15T15:01:58.000Z</time>
      </trkpt>
      <trkpt lat="45.10722" lon="5.69665">
        <ele>305</ele>
        <time>2013-09-15T15:02:04.000Z</time>
      </trkpt>
      <trkpt lat="45.10728" lon="5.69665">
        <ele>305</ele>
        <time>2013-09-15T15:02:06.000Z</time>
      </trkpt>
      <trkpt lat="45.10734" lon="5.69665">
        <ele>305</ele>
        <time>2013-09-15T15:02:08.000Z</time>
      </trkpt>
      <trkpt lat="45.1074" lon="5.69669">
        <ele>305</ele>
        <time>2013-09-15T15:02:10.000Z</time>
      </trkpt>
      <trkpt lat="45.10752" lon="5.69667">
        <ele>305</ele>
        <time>2013-09-15T15:02:16.000Z</time>
      </trkpt>
      <trkpt lat="45.10752" lon="5.69667">
        <ele>305</ele>
        <time>2013-09-15T15:02:16.000Z</time>
      </trkpt>
      <trkpt lat="45.10752" lon="5.69667">
        <ele>305</ele>
        <time>2013-09-15T15:02:18.000Z</time>
      </trkpt>
      <trkpt lat="45.10758" lon="5.69665">
        <ele>305</ele>
        <time>2013-09-15T15:02:19.000Z</time>
      </trkpt>
      <trkpt lat="45.10762" lon="5.69658">
        <ele>305</ele>
        <time>2013-09-15T15:02:21.000Z</time>
      </trkpt>
      <trkpt lat="45.10766" lon="5.69652">
        <ele>304</ele>
        <time>2013-09-15T15:02:23.000Z</time>
      </trkpt>
      <trkpt lat="45.10772" lon="5.69645">
        <ele>304</ele>
        <time>2013-09-15T15:02:25.000Z</time>
      </trkpt>
      <trkpt lat="45.10778" lon="5.69643">
        <ele>304</ele>
        <time>2013-09-15T15:02:27.000Z</time>
      </trkpt>
      <trkpt lat="45.10785" lon="5.69637">
        <ele>304</ele>
        <time>2013-09-15T15:02:29.000Z</time>
      </trkpt>
      <trkpt lat="45.1079" lon="5.69632">
        <ele>304</ele>
        <time>2013-09-15T15:02:31.000Z</time>
      </trkpt>
      <trkpt lat="45.1079" lon="5.69632">
        <ele>304</ele>
        <time>2013-09-15T15:02:31.000Z</time>
      </trkpt>
      <trkpt lat="45.1079" lon="5.69632">
        <ele>304</ele>
        <time>2013-09-15T15:02:33.000Z</time>
      </trkpt>
      <trkpt lat="45.10798" lon="5.69628">
        <ele>304</ele>
        <time>2013-09-15T15:02:34.000Z</time>
      </trkpt>
      <trkpt lat="45.10798" lon="5.69628">
        <ele>304</ele>
        <time>2013-09-15T15:02:34.000Z</time>
      </trkpt>
      <trkpt lat="45.10798" lon="5.69628">
        <ele>304</ele>
        <time>2013-09-15T15:02:35.000Z</time>
      </trkpt>
      <trkpt lat="45.10803" lon="5.69624">
        <ele>304</ele>
        <time>2013-09-15T15:02:36.000Z</time>
      </trkpt>
      <trkpt lat="45.10808" lon="5.6962">
        <ele>305</ele>
        <time>2013-09-15T15:02:38.000Z</time>
      </trkpt>
      <trkpt lat="45.10814" lon="5.6962">
        <ele>305</ele>
        <time>2013-09-15T15:02:40.000Z</time>
      </trkpt>
      <trkpt lat="45.10819" lon="5.69622">
        <ele>305</ele>
        <time>2013-09-15T15:02:42.000Z</time>
      </trkpt>
      <trkpt lat="45.10824" lon="5.69622">
        <ele>305</ele>
        <time>2013-09-15T15:02:44.000Z</time>
      </trkpt>
      <trkpt lat="45.10831" lon="5.69622">
        <ele>305</ele>
        <time>2013-09-15T15:02:46.000Z</time>
      </trkpt>
      <trkpt lat="45.10844" lon="5.69622">
        <ele>306</ele>
        <time>2013-09-15T15:02:52.000Z</time>
      </trkpt>
      <trkpt lat="45.10849" lon="5.69618">
        <ele>306</ele>
        <time>2013-09-15T15:02:54.000Z</time>
      </trkpt>
      <trkpt lat="45.10856" lon="5.69611">
        <ele>306</ele>
        <time>2013-09-15T15:02:56.000Z</time>
      </trkpt>
      <trkpt lat="45.10863" lon="5.69605">
        <ele>307</ele>
        <time>2013-09-15T15:02:58.000Z</time>
      </trkpt>
      <trkpt lat="45.10866" lon="5.69598">
        <ele>307</ele>
        <time>2013-09-15T15:02:59.000Z</time>
      </trkpt>
      <trkpt lat="45.10873" lon="5.6959">
        <ele>307</ele>
        <time>2013-09-15T15:03:01.000Z</time>
      </trkpt>
      <trkpt lat="45.10879" lon="5.69581">
        <ele>307</ele>
        <time>2013-09-15T15:03:03.000Z</time>
      </trkpt>
      <trkpt lat="45.10885" lon="5.6957">
        <ele>306</ele>
        <time>2013-09-15T15:03:05.000Z</time>
      </trkpt>
      <trkpt lat="45.10891" lon="5.69564">
        <ele>306</ele>
        <time>2013-09-15T15:03:07.000Z</time>
      </trkpt>
      <trkpt lat="45.10896" lon="5.69562">
        <ele>306</ele>
        <time>2013-09-15T15:03:09.000Z</time>
      </trkpt>
      <trkpt lat="45.10903" lon="5.69564">
        <ele>306</ele>
        <time>2013-09-15T15:03:11.000Z</time>
      </trkpt>
      <trkpt lat="45.10909" lon="5.69566">
        <ele>306</ele>
        <time>2013-09-15T15:03:13.000Z</time>
      </trkpt>
      <trkpt lat="45.10916" lon="5.69566">
        <ele>306</ele>
        <time>2013-09-15T15:03:15.000Z</time>
      </trkpt>
      <trkpt lat="45.10922" lon="5.69564">
        <ele>306</ele>
        <time>2013-09-15T15:03:17.000Z</time>
      </trkpt>
      <trkpt lat="45.10929" lon="5.69562">
        <ele>306</ele>
        <time>2013-09-15T15:03:19.000Z</time>
      </trkpt>
      <trkpt lat="45.10936" lon="5.69557">
        <ele>306</ele>
        <time>2013-09-15T15:03:21.000Z</time>
      </trkpt>
      <trkpt lat="45.10942" lon="5.69551">
        <ele>305</ele>
        <time>2013-09-15T15:03:23.000Z</time>
      </trkpt>
      <trkpt lat="45.10944" lon="5.69544">
        <ele>304</ele>
        <time>2013-09-15T15:03:24.000Z</time>
      </trkpt>
      <trkpt lat="45.10947" lon="5.69538">
        <ele>303</ele>
        <time>2013-09-15T15:03:25.000Z</time>
      </trkpt>
      <trkpt lat="45.10953" lon="5.6953">
        <ele>303</ele>
        <time>2013-09-15T15:03:27.000Z</time>
      </trkpt>
      <trkpt lat="45.1096" lon="5.69525">
        <ele>302</ele>
        <time>2013-09-15T15:03:29.000Z</time>
      </trkpt>
      <trkpt lat="45.10965" lon="5.69521">
        <ele>302</ele>
        <time>2013-09-15T15:03:30.000Z</time>
      </trkpt>
      <trkpt lat="45.10969" lon="5.69519">
        <ele>302</ele>
        <time>2013-09-15T15:03:31.000Z</time>
      </trkpt>
      <trkpt lat="45.10974" lon="5.69519">
        <ele>302</ele>
        <time>2013-09-15T15:03:32.000Z</time>
      </trkpt>
      <trkpt lat="45.10979" lon="5.69517">
        <ele>302</ele>
        <time>2013-09-15T15:03:33.000Z</time>
      </trkpt>
      <trkpt lat="45.10987" lon="5.69514">
        <ele>302</ele>
        <time>2013-09-15T15:03:35.000Z</time>
      </trkpt>
      <trkpt lat="45.10992" lon="5.69512">
        <ele>302</ele>
        <time>2013-09-15T15:03:36.000Z</time>
      </trkpt>
      <trkpt lat="45.11" lon="5.6951">
        <ele>301</ele>
        <time>2013-09-15T15:03:38.000Z</time>
      </trkpt>
      <trkpt lat="45.11004" lon="5.69508">
        <ele>301</ele>
        <time>2013-09-15T15:03:39.000Z</time>
      </trkpt>
      <trkpt lat="45.11013" lon="5.69506">
        <ele>301</ele>
        <time>2013-09-15T15:03:44.000Z</time>
      </trkpt>
      <trkpt lat="45.11013" lon="5.69506">
        <ele>301</ele>
        <time>2013-09-15T15:03:44.000Z</time>
      </trkpt>
      <trkpt lat="45.11013" lon="5.69506">
        <ele>301</ele>
        <time>2013-09-15T15:04:12.000Z</time>
      </trkpt>
      <trkpt lat="45.11003" lon="5.69506">
        <ele>299</ele>
        <time>2013-09-15T15:04:15.000Z</time>
      </trkpt>
      <trkpt lat="45.10997" lon="5.69508">
        <ele>299</ele>
        <time>2013-09-15T15:04:17.000Z</time>
      </trkpt>
      <trkpt lat="45.10991" lon="5.69508">
        <ele>298</ele>
        <time>2013-09-15T15:04:19.000Z</time>
      </trkpt>
      <trkpt lat="45.10985" lon="5.69508">
        <ele>297</ele>
        <time>2013-09-15T15:04:21.000Z</time>
      </trkpt>
      <trkpt lat="45.1098" lon="5.6951">
        <ele>297</ele>
        <time>2013-09-15T15:04:23.000Z</time>
      </trkpt>
      <trkpt lat="45.10974" lon="5.69512">
        <ele>296</ele>
        <time>2013-09-15T15:04:25.000Z</time>
      </trkpt>
      <trkpt lat="45.10965" lon="5.69504">
        <ele>295</ele>
        <time>2013-09-15T15:04:31.000Z</time>
      </trkpt>
      <trkpt lat="45.10965" lon="5.69504">
        <ele>295</ele>
        <time>2013-09-15T15:04:31.000Z</time>
      </trkpt>
      <trkpt lat="45.10965" lon="5.69504">
        <ele>295</ele>
        <time>2013-09-15T15:04:33.000Z</time>
      </trkpt>
      <trkpt lat="45.10963" lon="5.69497">
        <ele>295</ele>
        <time>2013-09-15T15:04:34.000Z</time>
      </trkpt>
      <trkpt lat="45.10963" lon="5.69497">
        <ele>295</ele>
        <time>2013-09-15T15:04:34.000Z</time>
      </trkpt>
      <trkpt lat="45.10963" lon="5.69497">
        <ele>295</ele>
        <time>2013-09-15T15:04:37.000Z</time>
      </trkpt>
      <trkpt lat="45.10962" lon="5.69487">
        <ele>295</ele>
        <time>2013-09-15T15:04:38.000Z</time>
      </trkpt>
      <trkpt lat="45.10962" lon="5.69487">
        <ele>295</ele>
        <time>2013-09-15T15:04:38.000Z</time>
      </trkpt>
      <trkpt lat="45.10962" lon="5.69487">
        <ele>295</ele>
        <time>2013-09-15T15:04:41.000Z</time>
      </trkpt>
      <trkpt lat="45.10962" lon="5.69474">
        <ele>295</ele>
        <time>2013-09-15T15:04:42.000Z</time>
      </trkpt>
      <trkpt lat="45.10962" lon="5.69474">
        <ele>295</ele>
        <time>2013-09-15T15:04:42.000Z</time>
      </trkpt>
      <trkpt lat="45.10962" lon="5.69474">
        <ele>295</ele>
        <time>2013-09-15T15:04:46.000Z</time>
      </trkpt>
      <trkpt lat="45.10966" lon="5.69463">
        <ele>295</ele>
        <time>2013-09-15T15:04:47.000Z</time>
      </trkpt>
      <trkpt lat="45.10966" lon="5.69463">
        <ele>295</ele>
        <time>2013-09-15T15:04:47.000Z</time>
      </trkpt>
      <trkpt lat="45.10966" lon="5.69463">
        <ele>295</ele>
        <time>2013-09-15T15:04:48.000Z</time>
      </trkpt>
      <trkpt lat="45.1097" lon="5.69456">
        <ele>295</ele>
        <time>2013-09-15T15:04:49.000Z</time>
      </trkpt>
      <trkpt lat="45.10974" lon="5.6945">
        <ele>295</ele>
        <time>2013-09-15T15:04:51.000Z</time>
      </trkpt>
      <trkpt lat="45.1098" lon="5.69448">
        <ele>295</ele>
        <time>2013-09-15T15:04:53.000Z</time>
      </trkpt>
      <trkpt lat="45.1098" lon="5.69448">
        <ele>295</ele>
        <time>2013-09-15T15:04:53.000Z</time>
      </trkpt>
      <trkpt lat="45.1098" lon="5.69448">
        <ele>295</ele>
        <time>2013-09-15T15:04:56.000Z</time>
      </trkpt>
      <trkpt lat="45.10988" lon="5.6945">
        <ele>295</ele>
        <time>2013-09-15T15:04:57.000Z</time>
      </trkpt>
      <trkpt lat="45.10988" lon="5.6945">
        <ele>295</ele>
        <time>2013-09-15T15:04:57.000Z</time>
      </trkpt>
      <trkpt lat="45.10988" lon="5.6945">
        <ele>295</ele>
        <time>2013-09-15T15:04:59.000Z</time>
      </trkpt>
      <trkpt lat="45.10994" lon="5.69452">
        <ele>296</ele>
        <time>2013-09-15T15:05:00.000Z</time>
      </trkpt>
      <trkpt lat="45.10994" lon="5.69452">
        <ele>296</ele>
        <time>2013-09-15T15:05:00.000Z</time>
      </trkpt>
      <trkpt lat="45.10994" lon="5.69452">
        <ele>296</ele>
        <time>2013-09-15T15:05:02.000Z</time>
      </trkpt>
      <trkpt lat="45.10998" lon="5.69456">
        <ele>296</ele>
        <time>2013-09-15T15:05:03.000Z</time>
      </trkpt>
      <trkpt lat="45.10998" lon="5.69456">
        <ele>296</ele>
        <time>2013-09-15T15:05:03.000Z</time>
      </trkpt>
      <trkpt lat="45.10998" lon="5.69456">
        <ele>296</ele>
        <time>2013-09-15T15:05:06.000Z</time>
      </trkpt>
      <trkpt lat="45.11004" lon="5.69465">
        <ele>297</ele>
        <time>2013-09-15T15:05:07.000Z</time>
      </trkpt>
      <trkpt lat="45.11009" lon="5.69469">
        <ele>297</ele>
        <time>2013-09-15T15:05:09.000Z</time>
      </trkpt>
      <trkpt lat="45.11009" lon="5.69469">
        <ele>297</ele>
        <time>2013-09-15T15:05:09.000Z</time>
      </trkpt>
      <trkpt lat="45.11009" lon="5.69469">
        <ele>297</ele>
        <time>2013-09-15T15:05:13.000Z</time>
      </trkpt>
      <trkpt lat="45.11016" lon="5.69478">
        <ele>298</ele>
        <time>2013-09-15T15:05:14.000Z</time>
      </trkpt>
      <trkpt lat="45.11016" lon="5.69478">
        <ele>298</ele>
        <time>2013-09-15T15:05:14.000Z</time>
      </trkpt>
      <trkpt lat="45.11016" lon="5.69478">
        <ele>298</ele>
        <time>2013-09-15T15:05:20.000Z</time>
      </trkpt>
      <trkpt lat="45.11024" lon="5.69487">
        <ele>299</ele>
        <time>2013-09-15T15:05:21.000Z</time>
      </trkpt>
      <trkpt lat="45.11024" lon="5.69487">
        <ele>299</ele>
        <time>2013-09-15T15:05:21.000Z</time>
      </trkpt>
      <trkpt lat="45.11024" lon="5.69487">
        <ele>299</ele>
        <time>2013-09-15T15:05:44.000Z</time>
      </trkpt>
      <trkpt lat="45.11015" lon="5.69484">
        <ele>301</ele>
        <time>2013-09-15T15:05:45.000Z</time>
      </trkpt>
      <trkpt lat="45.11015" lon="5.69484">
        <ele>301</ele>
        <time>2013-09-15T15:05:45.000Z</time>
      </trkpt>
      <trkpt lat="45.11015" lon="5.69484">
        <ele>301</ele>
        <time>2013-09-15T15:05:49.000Z</time>
      </trkpt>
      <trkpt lat="45.11011" lon="5.69474">
        <ele>301</ele>
        <time>2013-09-15T15:05:50.000Z</time>
      </trkpt>
      <trkpt lat="45.11011" lon="5.69474">
        <ele>301</ele>
        <time>2013-09-15T15:05:50.000Z</time>
      </trkpt>
      <trkpt lat="45.11011" lon="5.69474">
        <ele>301</ele>
        <time>2013-09-15T15:05:51.000Z</time>
      </trkpt>
      <trkpt lat="45.1101" lon="5.69465">
        <ele>300</ele>
        <time>2013-09-15T15:05:52.000Z</time>
      </trkpt>
      <trkpt lat="45.1101" lon="5.69465">
        <ele>300</ele>
        <time>2013-09-15T15:05:52.000Z</time>
      </trkpt>
      <trkpt lat="45.1101" lon="5.69465">
        <ele>300</ele>
        <time>2013-09-15T15:05:55.000Z</time>
      </trkpt>
      <trkpt lat="45.11008" lon="5.69456">
        <ele>300</ele>
        <time>2013-09-15T15:05:56.000Z</time>
      </trkpt>
      <trkpt lat="45.11008" lon="5.69456">
        <ele>300</ele>
        <time>2013-09-15T15:05:56.000Z</time>
      </trkpt>
      <trkpt lat="45.11008" lon="5.69456">
        <ele>300</ele>
        <time>2013-09-15T15:06:02.000Z</time>
      </trkpt>
      <trkpt lat="45.11002" lon="5.69444">
        <ele>300</ele>
        <time>2013-09-15T15:06:03.000Z</time>
      </trkpt>
      <trkpt lat="45.11002" lon="5.69444">
        <ele>300</ele>
        <time>2013-09-15T15:06:03.000Z</time>
      </trkpt>
      <trkpt lat="45.11002" lon="5.69444">
        <ele>300</ele>
        <time>2013-09-15T15:06:10.000Z</time>
      </trkpt>
      <trkpt lat="45.10992" lon="5.69444">
        <ele>301</ele>
        <time>2013-09-15T15:06:11.000Z</time>
      </trkpt>
      <trkpt lat="45.10992" lon="5.69444">
        <ele>301</ele>
        <time>2013-09-15T15:06:11.000Z</time>
      </trkpt>
      <trkpt lat="45.10992" lon="5.69444">
        <ele>301</ele>
        <time>2013-09-15T15:06:16.000Z</time>
      </trkpt>
      <trkpt lat="45.10982" lon="5.69446">
        <ele>302</ele>
        <time>2013-09-15T15:06:17.000Z</time>
      </trkpt>
      <trkpt lat="45.10982" lon="5.69446">
        <ele>302</ele>
        <time>2013-09-15T15:06:17.000Z</time>
      </trkpt>
      <trkpt lat="45.10982" lon="5.69446">
        <ele>302</ele>
        <time>2013-09-15T15:06:21.000Z</time>
      </trkpt>
      <trkpt lat="45.10972" lon="5.69442">
        <ele>302</ele>
        <time>2013-09-15T15:06:22.000Z</time>
      </trkpt>
      <trkpt lat="45.10972" lon="5.69442">
        <ele>302</ele>
        <time>2013-09-15T15:06:22.000Z</time>
      </trkpt>
      <trkpt lat="45.10972" lon="5.69442">
        <ele>302</ele>
        <time>2013-09-15T15:06:26.000Z</time>
      </trkpt>
      <trkpt lat="45.10963" lon="5.69437">
        <ele>303</ele>
        <time>2013-09-15T15:06:27.000Z</time>
      </trkpt>
      <trkpt lat="45.10963" lon="5.69437">
        <ele>303</ele>
        <time>2013-09-15T15:06:27.000Z</time>
      </trkpt>
      <trkpt lat="45.10963" lon="5.69437">
        <ele>303</ele>
        <time>2013-09-15T15:06:33.000Z</time>
      </trkpt>
      <trkpt lat="45.10958" lon="5.69424">
        <ele>304</ele>
        <time>2013-09-15T15:06:34.000Z</time>
      </trkpt>
      <trkpt lat="45.10958" lon="5.69424">
        <ele>304</ele>
        <time>2013-09-15T15:06:34.000Z</time>
      </trkpt>
      <trkpt lat="45.10958" lon="5.69424">
        <ele>304</ele>
        <time>2013-09-15T15:06:38.000Z</time>
      </trkpt>
      <trkpt lat="45.10954" lon="5.69414">
        <ele>305</ele>
        <time>2013-09-15T15:06:39.000Z</time>
      </trkpt>
      <trkpt lat="45.1095" lon="5.69409">
        <ele>306</ele>
        <time>2013-09-15T15:06:46.000Z</time>
      </trkpt>
      <trkpt lat="45.1095" lon="5.69403">
        <ele>306</ele>
        <time>2013-09-15T15:06:50.000Z</time>
      </trkpt>
      <trkpt lat="45.10946" lon="5.69399">
        <ele>306</ele>
        <time>2013-09-15T15:06:57.000Z</time>
      </trkpt>
      <trkpt lat="45.1094" lon="5.69399">
        <ele>306</ele>
        <time>2013-09-15T15:07:03.000Z</time>
      </trkpt>
      <trkpt lat="45.10935" lon="5.69396">
        <ele>306</ele>
        <time>2013-09-15T15:07:07.000Z</time>
      </trkpt>
      <trkpt lat="45.10935" lon="5.69396">
        <ele>306</ele>
        <time>2013-09-15T15:07:07.000Z</time>
      </trkpt>
      <trkpt lat="45.10935" lon="5.69396">
        <ele>306</ele>
        <time>2013-09-15T15:07:08.000Z</time>
      </trkpt>
      <trkpt lat="45.10929" lon="5.69396">
        <ele>305</ele>
        <time>2013-09-15T15:07:11.000Z</time>
      </trkpt>
      <trkpt lat="45.10924" lon="5.69396">
        <ele>305</ele>
        <time>2013-09-15T15:07:15.000Z</time>
      </trkpt>
      <trkpt lat="45.1092" lon="5.69392">
        <ele>304</ele>
        <time>2013-09-15T15:08:11.000Z</time>
      </trkpt>
      <trkpt lat="45.10918" lon="5.69386">
        <ele>304</ele>
        <time>2013-09-15T15:08:26.000Z</time>
      </trkpt>
      <trkpt lat="45.10918" lon="5.69386">
        <ele>304</ele>
        <time>2013-09-15T15:08:26.000Z</time>
      </trkpt>
      <trkpt lat="45.10918" lon="5.69386">
        <ele>304</ele>
        <time>2013-09-15T15:08:29.000Z</time>
      </trkpt>
      <trkpt lat="45.10924" lon="5.69384">
        <ele>304</ele>
        <time>2013-09-15T15:08:34.000Z</time>
      </trkpt>
      <trkpt lat="45.1093" lon="5.69384">
        <ele>304</ele>
        <time>2013-09-15T15:08:36.000Z</time>
      </trkpt>
      <trkpt lat="45.10938" lon="5.69386">
        <ele>304</ele>
        <time>2013-09-15T15:08:38.000Z</time>
      </trkpt>
      <trkpt lat="45.10944" lon="5.6939">
        <ele>304</ele>
        <time>2013-09-15T15:08:40.000Z</time>
      </trkpt>
      <trkpt lat="45.1095" lon="5.69392">
        <ele>304</ele>
        <time>2013-09-15T15:08:42.000Z</time>
      </trkpt>
      <trkpt lat="45.10956" lon="5.69396">
        <ele>304</ele>
        <time>2013-09-15T15:08:44.000Z</time>
      </trkpt>
      <trkpt lat="45.10962" lon="5.69401">
        <ele>304</ele>
        <time>2013-09-15T15:08:46.000Z</time>
      </trkpt>
      <trkpt lat="45.10968" lon="5.69405">
        <ele>304</ele>
        <time>2013-09-15T15:08:48.000Z</time>
      </trkpt>
      <trkpt lat="45.10973" lon="5.69407">
        <ele>304</ele>
        <time>2013-09-15T15:08:50.000Z</time>
      </trkpt>
      <trkpt lat="45.1098" lon="5.69412">
        <ele>304</ele>
        <time>2013-09-15T15:08:52.000Z</time>
      </trkpt>
      <trkpt lat="45.10986" lon="5.69414">
        <ele>304</ele>
        <time>2013-09-15T15:08:54.000Z</time>
      </trkpt>
      <trkpt lat="45.10993" lon="5.69418">
        <ele>304</ele>
        <time>2013-09-15T15:08:56.000Z</time>
      </trkpt>
      <trkpt lat="45.10997" lon="5.6942">
        <ele>304</ele>
        <time>2013-09-15T15:08:57.000Z</time>
      </trkpt>
      <trkpt lat="45.11003" lon="5.69424">
        <ele>304</ele>
        <time>2013-09-15T15:08:59.000Z</time>
      </trkpt>
      <trkpt lat="45.1101" lon="5.69429">
        <ele>305</ele>
        <time>2013-09-15T15:09:01.000Z</time>
      </trkpt>
      <trkpt lat="45.11016" lon="5.69435">
        <ele>305</ele>
        <time>2013-09-15T15:09:03.000Z</time>
      </trkpt>
      <trkpt lat="45.11023" lon="5.69444">
        <ele>305</ele>
        <time>2013-09-15T15:09:05.000Z</time>
      </trkpt>
      <trkpt lat="45.11029" lon="5.6945">
        <ele>307</ele>
        <time>2013-09-15T15:09:07.000Z</time>
      </trkpt>
      <trkpt lat="45.11037" lon="5.69456">
        <ele>308</ele>
        <time>2013-09-15T15:09:09.000Z</time>
      </trkpt>
      <trkpt lat="45.1104" lon="5.69461">
        <ele>308</ele>
        <time>2013-09-15T15:09:10.000Z</time>
      </trkpt>
      <trkpt lat="45.11043" lon="5.69465">
        <ele>309</ele>
        <time>2013-09-15T15:09:11.000Z</time>
      </trkpt>
      <trkpt lat="45.11047" lon="5.69469">
        <ele>309</ele>
        <time>2013-09-15T15:09:12.000Z</time>
      </trkpt>
      <trkpt lat="45.11052" lon="5.69472">
        <ele>309</ele>
        <time>2013-09-15T15:09:13.000Z</time>
      </trkpt>
      <trkpt lat="45.11055" lon="5.69476">
        <ele>309</ele>
        <time>2013-09-15T15:09:14.000Z</time>
      </trkpt>
      <trkpt lat="45.11059" lon="5.69478">
        <ele>310</ele>
        <time>2013-09-15T15:09:15.000Z</time>
      </trkpt>
      <trkpt lat="45.11064" lon="5.69482">
        <ele>310</ele>
        <time>2013-09-15T15:09:16.000Z</time>
      </trkpt>
      <trkpt lat="45.1107" lon="5.69491">
        <ele>310</ele>
        <time>2013-09-15T15:09:18.000Z</time>
      </trkpt>
      <trkpt lat="45.11074" lon="5.69495">
        <ele>310</ele>
        <time>2013-09-15T15:09:19.000Z</time>
      </trkpt>
      <trkpt lat="45.1108" lon="5.69504">
        <ele>310</ele>
        <time>2013-09-15T15:09:21.000Z</time>
      </trkpt>
      <trkpt lat="45.11083" lon="5.69508">
        <ele>311</ele>
        <time>2013-09-15T15:09:22.000Z</time>
      </trkpt>
      <trkpt lat="45.11086" lon="5.69512">
        <ele>311</ele>
        <time>2013-09-15T15:09:23.000Z</time>
      </trkpt>
      <trkpt lat="45.1109" lon="5.69517">
        <ele>311</ele>
        <time>2013-09-15T15:09:24.000Z</time>
      </trkpt>
      <trkpt lat="45.11094" lon="5.69521">
        <ele>311</ele>
        <time>2013-09-15T15:09:25.000Z</time>
      </trkpt>
      <trkpt lat="45.111" lon="5.69527">
        <ele>312</ele>
        <time>2013-09-15T15:09:27.000Z</time>
      </trkpt>
      <trkpt lat="45.11109" lon="5.6953">
        <ele>312</ele>
        <time>2013-09-15T15:09:29.000Z</time>
      </trkpt>
      <trkpt lat="45.11117" lon="5.6953">
        <ele>313</ele>
        <time>2013-09-15T15:09:31.000Z</time>
      </trkpt>
      <trkpt lat="45.11122" lon="5.69532">
        <ele>313</ele>
        <time>2013-09-15T15:09:32.000Z</time>
      </trkpt>
      <trkpt lat="45.1113" lon="5.69534">
        <ele>312</ele>
        <time>2013-09-15T15:09:34.000Z</time>
      </trkpt>
      <trkpt lat="45.11135" lon="5.69534">
        <ele>312</ele>
        <time>2013-09-15T15:09:35.000Z</time>
      </trkpt>
      <trkpt lat="45.11144" lon="5.69534">
        <ele>312</ele>
        <time>2013-09-15T15:09:37.000Z</time>
      </trkpt>
      <trkpt lat="45.11148" lon="5.69536">
        <ele>312</ele>
        <time>2013-09-15T15:09:38.000Z</time>
      </trkpt>
      <trkpt lat="45.11158" lon="5.69536">
        <ele>311</ele>
        <time>2013-09-15T15:09:40.000Z</time>
      </trkpt>
      <trkpt lat="45.11165" lon="5.69536">
        <ele>310</ele>
        <time>2013-09-15T15:09:42.000Z</time>
      </trkpt>
      <trkpt lat="45.11174" lon="5.69536">
        <ele>310</ele>
        <time>2013-09-15T15:09:44.000Z</time>
      </trkpt>
      <trkpt lat="45.11182" lon="5.69536">
        <ele>310</ele>
        <time>2013-09-15T15:09:46.000Z</time>
      </trkpt>
      <trkpt lat="45.11189" lon="5.69536">
        <ele>310</ele>
        <time>2013-09-15T15:09:48.000Z</time>
      </trkpt>
      <trkpt lat="45.11197" lon="5.69536">
        <ele>310</ele>
        <time>2013-09-15T15:09:50.000Z</time>
      </trkpt>
      <trkpt lat="45.11205" lon="5.69538">
        <ele>310</ele>
        <time>2013-09-15T15:09:52.000Z</time>
      </trkpt>
      <trkpt lat="45.11213" lon="5.6954">
        <ele>310</ele>
        <time>2013-09-15T15:09:54.000Z</time>
      </trkpt>
      <trkpt lat="45.1122" lon="5.69542">
        <ele>309</ele>
        <time>2013-09-15T15:09:56.000Z</time>
      </trkpt>
      <trkpt lat="45.11228" lon="5.69544">
        <ele>309</ele>
        <time>2013-09-15T15:09:58.000Z</time>
      </trkpt>
      <trkpt lat="45.11235" lon="5.69547">
        <ele>309</ele>
        <time>2013-09-15T15:10:00.000Z</time>
      </trkpt>
      <trkpt lat="45.11244" lon="5.69547">
        <ele>309</ele>
        <time>2013-09-15T15:10:02.000Z</time>
      </trkpt>
      <trkpt lat="45.11249" lon="5.69549">
        <ele>309</ele>
        <time>2013-09-15T15:10:03.000Z</time>
      </trkpt>
      <trkpt lat="45.11259" lon="5.69549">
        <ele>309</ele>
        <time>2013-09-15T15:10:05.000Z</time>
      </trkpt>
      <trkpt lat="45.11263" lon="5.69551">
        <ele>309</ele>
        <time>2013-09-15T15:10:06.000Z</time>
      </trkpt>
      <trkpt lat="45.11268" lon="5.69551">
        <ele>309</ele>
        <time>2013-09-15T15:10:07.000Z</time>
      </trkpt>
      <trkpt lat="45.11273" lon="5.69553">
        <ele>310</ele>
        <time>2013-09-15T15:10:08.000Z</time>
      </trkpt>
      <trkpt lat="45.11278" lon="5.69553">
        <ele>310</ele>
        <time>2013-09-15T15:10:09.000Z</time>
      </trkpt>
      <trkpt lat="45.11284" lon="5.69553">
        <ele>310</ele>
        <time>2013-09-15T15:10:10.000Z</time>
      </trkpt>
      <trkpt lat="45.11288" lon="5.69555">
        <ele>310</ele>
        <time>2013-09-15T15:10:11.000Z</time>
      </trkpt>
      <trkpt lat="45.11293" lon="5.69557">
        <ele>311</ele>
        <time>2013-09-15T15:10:12.000Z</time>
      </trkpt>
      <trkpt lat="45.11303" lon="5.6956">
        <ele>311</ele>
        <time>2013-09-15T15:10:14.000Z</time>
      </trkpt>
      <trkpt lat="45.11307" lon="5.69562">
        <ele>311</ele>
        <time>2013-09-15T15:10:15.000Z</time>
      </trkpt>
      <trkpt lat="45.11312" lon="5.69564">
        <ele>312</ele>
        <time>2013-09-15T15:10:16.000Z</time>
      </trkpt>
      <trkpt lat="45.11317" lon="5.69566">
        <ele>312</ele>
        <time>2013-09-15T15:10:17.000Z</time>
      </trkpt>
      <trkpt lat="45.11321" lon="5.69568">
        <ele>312</ele>
        <time>2013-09-15T15:10:18.000Z</time>
      </trkpt>
      <trkpt lat="45.11325" lon="5.6957">
        <ele>313</ele>
        <time>2013-09-15T15:10:19.000Z</time>
      </trkpt>
      <trkpt lat="45.1133" lon="5.69572">
        <ele>313</ele>
        <time>2013-09-15T15:10:20.000Z</time>
      </trkpt>
      <trkpt lat="45.11334" lon="5.69577">
        <ele>313</ele>
        <time>2013-09-15T15:10:21.000Z</time>
      </trkpt>
      <trkpt lat="45.11341" lon="5.69579">
        <ele>313</ele>
        <time>2013-09-15T15:10:23.000Z</time>
      </trkpt>
      <trkpt lat="45.11346" lon="5.69581">
        <ele>313</ele>
        <time>2013-09-15T15:10:24.000Z</time>
      </trkpt>
      <trkpt lat="45.1135" lon="5.69583">
        <ele>313</ele>
        <time>2013-09-15T15:10:25.000Z</time>
      </trkpt>
      <trkpt lat="45.11358" lon="5.69585">
        <ele>313</ele>
        <time>2013-09-15T15:10:27.000Z</time>
      </trkpt>
      <trkpt lat="45.11366" lon="5.69587">
        <ele>313</ele>
        <time>2013-09-15T15:10:29.000Z</time>
      </trkpt>
      <trkpt lat="45.11375" lon="5.69587">
        <ele>313</ele>
        <time>2013-09-15T15:10:31.000Z</time>
      </trkpt>
      <trkpt lat="45.1138" lon="5.6959">
        <ele>312</ele>
        <time>2013-09-15T15:10:32.000Z</time>
      </trkpt>
      <trkpt lat="45.11384" lon="5.69592">
        <ele>312</ele>
        <time>2013-09-15T15:10:33.000Z</time>
      </trkpt>
      <trkpt lat="45.11393" lon="5.69594">
        <ele>311</ele>
        <time>2013-09-15T15:10:35.000Z</time>
      </trkpt>
      <trkpt lat="45.11398" lon="5.69596">
        <ele>311</ele>
        <time>2013-09-15T15:10:36.000Z</time>
      </trkpt>
      <trkpt lat="45.11403" lon="5.69598">
        <ele>310</ele>
        <time>2013-09-15T15:10:37.000Z</time>
      </trkpt>
      <trkpt lat="45.11407" lon="5.696">
        <ele>310</ele>
        <time>2013-09-15T15:10:38.000Z</time>
      </trkpt>
      <trkpt lat="45.1141" lon="5.69605">
        <ele>310</ele>
        <time>2013-09-15T15:10:39.000Z</time>
      </trkpt>
      <trkpt lat="45.11416" lon="5.69613">
        <ele>309</ele>
        <time>2013-09-15T15:10:41.000Z</time>
      </trkpt>
      <trkpt lat="45.11423" lon="5.69622">
        <ele>309</ele>
        <time>2013-09-15T15:10:43.000Z</time>
      </trkpt>
      <trkpt lat="45.11427" lon="5.69624">
        <ele>309</ele>
        <time>2013-09-15T15:10:44.000Z</time>
      </trkpt>
      <trkpt lat="45.11432" lon="5.69626">
        <ele>309</ele>
        <time>2013-09-15T15:10:45.000Z</time>
      </trkpt>
      <trkpt lat="45.11436" lon="5.69628">
        <ele>309</ele>
        <time>2013-09-15T15:10:46.000Z</time>
      </trkpt>
      <trkpt lat="45.1144" lon="5.6963">
        <ele>309</ele>
        <time>2013-09-15T15:10:47.000Z</time>
      </trkpt>
      <trkpt lat="45.11446" lon="5.69632">
        <ele>309</ele>
        <time>2013-09-15T15:10:48.000Z</time>
      </trkpt>
      <trkpt lat="45.1145" lon="5.69635">
        <ele>309</ele>
        <time>2013-09-15T15:10:49.000Z</time>
      </trkpt>
      <trkpt lat="45.11454" lon="5.69637">
        <ele>308</ele>
        <time>2013-09-15T15:10:50.000Z</time>
      </trkpt>
      <trkpt lat="45.11459" lon="5.69637">
        <ele>308</ele>
        <time>2013-09-15T15:10:51.000Z</time>
      </trkpt>
      <trkpt lat="45.11464" lon="5.69639">
        <ele>308</ele>
        <time>2013-09-15T15:10:52.000Z</time>
      </trkpt>
      <trkpt lat="45.11469" lon="5.69639">
        <ele>308</ele>
        <time>2013-09-15T15:10:53.000Z</time>
      </trkpt>
      <trkpt lat="45.11474" lon="5.69639">
        <ele>308</ele>
        <time>2013-09-15T15:10:54.000Z</time>
      </trkpt>
      <trkpt lat="45.11484" lon="5.69639">
        <ele>307</ele>
        <time>2013-09-15T15:10:56.000Z</time>
      </trkpt>
      <trkpt lat="45.11488" lon="5.69641">
        <ele>307</ele>
        <time>2013-09-15T15:10:57.000Z</time>
      </trkpt>
      <trkpt lat="45.11494" lon="5.69641">
        <ele>307</ele>
        <time>2013-09-15T15:10:58.000Z</time>
      </trkpt>
      <trkpt lat="45.11498" lon="5.69643">
        <ele>307</ele>
        <time>2013-09-15T15:10:59.000Z</time>
      </trkpt>
      <trkpt lat="45.11507" lon="5.69645">
        <ele>307</ele>
        <time>2013-09-15T15:11:01.000Z</time>
      </trkpt>
      <trkpt lat="45.11511" lon="5.69648">
        <ele>306</ele>
        <time>2013-09-15T15:11:02.000Z</time>
      </trkpt>
      <trkpt lat="45.11515" lon="5.6965">
        <ele>306</ele>
        <time>2013-09-15T15:11:03.000Z</time>
      </trkpt>
      <trkpt lat="45.11523" lon="5.69656">
        <ele>306</ele>
        <time>2013-09-15T15:11:05.000Z</time>
      </trkpt>
      <trkpt lat="45.1153" lon="5.69658">
        <ele>306</ele>
        <time>2013-09-15T15:11:07.000Z</time>
      </trkpt>
      <trkpt lat="45.11534" lon="5.6966">
        <ele>305</ele>
        <time>2013-09-15T15:11:08.000Z</time>
      </trkpt>
      <trkpt lat="45.11543" lon="5.6966">
        <ele>305</ele>
        <time>2013-09-15T15:11:10.000Z</time>
      </trkpt>
      <trkpt lat="45.11547" lon="5.69662">
        <ele>305</ele>
        <time>2013-09-15T15:11:11.000Z</time>
      </trkpt>
      <trkpt lat="45.11557" lon="5.69665">
        <ele>305</ele>
        <time>2013-09-15T15:11:13.000Z</time>
      </trkpt>
      <trkpt lat="45.11566" lon="5.69665">
        <ele>304</ele>
        <time>2013-09-15T15:11:15.000Z</time>
      </trkpt>
      <trkpt lat="45.11574" lon="5.69665">
        <ele>304</ele>
        <time>2013-09-15T15:11:17.000Z</time>
      </trkpt>
      <trkpt lat="45.11583" lon="5.69665">
        <ele>304</ele>
        <time>2013-09-15T15:11:19.000Z</time>
      </trkpt>
      <trkpt lat="45.11591" lon="5.69665">
        <ele>304</ele>
        <time>2013-09-15T15:11:21.000Z</time>
      </trkpt>
      <trkpt lat="45.11599" lon="5.69667">
        <ele>304</ele>
        <time>2013-09-15T15:11:23.000Z</time>
      </trkpt>
      <trkpt lat="45.11606" lon="5.69669">
        <ele>304</ele>
        <time>2013-09-15T15:11:25.000Z</time>
      </trkpt>
      <trkpt lat="45.11615" lon="5.69669">
        <ele>304</ele>
        <time>2013-09-15T15:11:27.000Z</time>
      </trkpt>
      <trkpt lat="45.11622" lon="5.69669">
        <ele>304</ele>
        <time>2013-09-15T15:11:29.000Z</time>
      </trkpt>
      <trkpt lat="45.1163" lon="5.69667">
        <ele>304</ele>
        <time>2013-09-15T15:11:31.000Z</time>
      </trkpt>
      <trkpt lat="45.11638" lon="5.69665">
        <ele>304</ele>
        <time>2013-09-15T15:11:33.000Z</time>
      </trkpt>
      <trkpt lat="45.11644" lon="5.6966">
        <ele>304</ele>
        <time>2013-09-15T15:11:35.000Z</time>
      </trkpt>
      <trkpt lat="45.11649" lon="5.69656">
        <ele>303</ele>
        <time>2013-09-15T15:11:37.000Z</time>
      </trkpt>
      <trkpt lat="45.11656" lon="5.69652">
        <ele>303</ele>
        <time>2013-09-15T15:11:39.000Z</time>
      </trkpt>
      <trkpt lat="45.1166" lon="5.6965">
        <ele>303</ele>
        <time>2013-09-15T15:11:40.000Z</time>
      </trkpt>
      <trkpt lat="45.11664" lon="5.69648">
        <ele>302</ele>
        <time>2013-09-15T15:11:41.000Z</time>
      </trkpt>
      <trkpt lat="45.11669" lon="5.69645">
        <ele>302</ele>
        <time>2013-09-15T15:11:42.000Z</time>
      </trkpt>
      <trkpt lat="45.11677" lon="5.69643">
        <ele>302</ele>
        <time>2013-09-15T15:11:44.000Z</time>
      </trkpt>
      <trkpt lat="45.11682" lon="5.69641">
        <ele>301</ele>
        <time>2013-09-15T15:11:45.000Z</time>
      </trkpt>
      <trkpt lat="45.11686" lon="5.69639">
        <ele>301</ele>
        <time>2013-09-15T15:11:46.000Z</time>
      </trkpt>
      <trkpt lat="45.1169" lon="5.69637">
        <ele>301</ele>
        <time>2013-09-15T15:11:47.000Z</time>
      </trkpt>
      <trkpt lat="45.11694" lon="5.69635">
        <ele>301</ele>
        <time>2013-09-15T15:11:48.000Z</time>
      </trkpt>
      <trkpt lat="45.117" lon="5.69635">
        <ele>300</ele>
        <time>2013-09-15T15:11:49.000Z</time>
      </trkpt>
      <trkpt lat="45.11704" lon="5.6963">
        <ele>300</ele>
        <time>2013-09-15T15:11:50.000Z</time>
      </trkpt>
      <trkpt lat="45.11708" lon="5.69628">
        <ele>300</ele>
        <time>2013-09-15T15:11:51.000Z</time>
      </trkpt>
      <trkpt lat="45.11714" lon="5.69628">
        <ele>300</ele>
        <time>2013-09-15T15:11:52.000Z</time>
      </trkpt>
      <trkpt lat="45.11718" lon="5.69626">
        <ele>300</ele>
        <time>2013-09-15T15:11:53.000Z</time>
      </trkpt>
      <trkpt lat="45.11722" lon="5.69624">
        <ele>300</ele>
        <time>2013-09-15T15:11:54.000Z</time>
      </trkpt>
      <trkpt lat="45.11728" lon="5.69618">
        <ele>299</ele>
        <time>2013-09-15T15:11:55.000Z</time>
      </trkpt>
      <trkpt lat="45.11733" lon="5.69611">
        <ele>298</ele>
        <time>2013-09-15T15:11:56.000Z</time>
      </trkpt>
      <trkpt lat="45.11738" lon="5.69607">
        <ele>298</ele>
        <time>2013-09-15T15:11:57.000Z</time>
      </trkpt>
      <trkpt lat="45.11744" lon="5.69602">
        <ele>297</ele>
        <time>2013-09-15T15:11:58.000Z</time>
      </trkpt>
      <trkpt lat="45.1175" lon="5.69598">
        <ele>297</ele>
        <time>2013-09-15T15:11:59.000Z</time>
      </trkpt>
      <trkpt lat="45.11756" lon="5.69596">
        <ele>296</ele>
        <time>2013-09-15T15:12:00.000Z</time>
      </trkpt>
      <trkpt lat="45.11762" lon="5.69594">
        <ele>296</ele>
        <time>2013-09-15T15:12:01.000Z</time>
      </trkpt>
      <trkpt lat="45.11767" lon="5.69592">
        <ele>296</ele>
        <time>2013-09-15T15:12:02.000Z</time>
      </trkpt>
      <trkpt lat="45.11774" lon="5.6959">
        <ele>296</ele>
        <time>2013-09-15T15:12:03.000Z</time>
      </trkpt>
      <trkpt lat="45.11779" lon="5.6959">
        <ele>296</ele>
        <time>2013-09-15T15:12:04.000Z</time>
      </trkpt>
      <trkpt lat="45.11784" lon="5.69592">
        <ele>295</ele>
        <time>2013-09-15T15:12:05.000Z</time>
      </trkpt>
      <trkpt lat="45.1179" lon="5.69592">
        <ele>295</ele>
        <time>2013-09-15T15:12:06.000Z</time>
      </trkpt>
      <trkpt lat="45.11795" lon="5.69594">
        <ele>295</ele>
        <time>2013-09-15T15:12:07.000Z</time>
      </trkpt>
      <trkpt lat="45.11801" lon="5.69596">
        <ele>295</ele>
        <time>2013-09-15T15:12:08.000Z</time>
      </trkpt>
      <trkpt lat="45.11806" lon="5.69598">
        <ele>295</ele>
        <time>2013-09-15T15:12:09.000Z</time>
      </trkpt>
      <trkpt lat="45.11811" lon="5.69602">
        <ele>295</ele>
        <time>2013-09-15T15:12:10.000Z</time>
      </trkpt>
      <trkpt lat="45.11817" lon="5.69605">
        <ele>295</ele>
        <time>2013-09-15T15:12:11.000Z</time>
      </trkpt>
      <trkpt lat="45.11821" lon="5.69607">
        <ele>295</ele>
        <time>2013-09-15T15:12:12.000Z</time>
      </trkpt>
      <trkpt lat="45.11825" lon="5.69609">
        <ele>294</ele>
        <time>2013-09-15T15:12:13.000Z</time>
      </trkpt>
      <trkpt lat="45.11831" lon="5.69611">
        <ele>294</ele>
        <time>2013-09-15T15:12:14.000Z</time>
      </trkpt>
      <trkpt lat="45.11834" lon="5.69615">
        <ele>295</ele>
        <time>2013-09-15T15:12:15.000Z</time>
      </trkpt>
      <trkpt lat="45.11842" lon="5.69624">
        <ele>295</ele>
        <time>2013-09-15T15:12:17.000Z</time>
      </trkpt>
      <trkpt lat="45.11847" lon="5.69626">
        <ele>295</ele>
        <time>2013-09-15T15:12:18.000Z</time>
      </trkpt>
      <trkpt lat="45.1185" lon="5.6963">
        <ele>295</ele>
        <time>2013-09-15T15:12:19.000Z</time>
      </trkpt>
      <trkpt lat="45.11853" lon="5.69635">
        <ele>295</ele>
        <time>2013-09-15T15:12:20.000Z</time>
      </trkpt>
      <trkpt lat="45.11858" lon="5.69639">
        <ele>295</ele>
        <time>2013-09-15T15:12:21.000Z</time>
      </trkpt>
      <trkpt lat="45.11864" lon="5.69645">
        <ele>296</ele>
        <time>2013-09-15T15:12:23.000Z</time>
      </trkpt>
      <trkpt lat="45.1187" lon="5.69652">
        <ele>296</ele>
        <time>2013-09-15T15:12:25.000Z</time>
      </trkpt>
      <trkpt lat="45.11874" lon="5.69656">
        <ele>297</ele>
        <time>2013-09-15T15:12:26.000Z</time>
      </trkpt>
      <trkpt lat="45.1188" lon="5.69658">
        <ele>297</ele>
        <time>2013-09-15T15:12:28.000Z</time>
      </trkpt>
      <trkpt lat="45.11886" lon="5.69656">
        <ele>297</ele>
        <time>2013-09-15T15:12:30.000Z</time>
      </trkpt>
      <trkpt lat="45.11893" lon="5.69656">
        <ele>297</ele>
        <time>2013-09-15T15:12:32.000Z</time>
      </trkpt>
      <trkpt lat="45.11899" lon="5.69656">
        <ele>297</ele>
        <time>2013-09-15T15:12:34.000Z</time>
      </trkpt>
      <trkpt lat="45.11907" lon="5.6966">
        <ele>298</ele>
        <time>2013-09-15T15:12:41.000Z</time>
      </trkpt>
      <trkpt lat="45.11907" lon="5.6966">
        <ele>298</ele>
        <time>2013-09-15T15:12:41.000Z</time>
      </trkpt>
      <trkpt lat="45.11907" lon="5.6966">
        <ele>298</ele>
        <time>2013-09-15T15:12:46.000Z</time>
      </trkpt>
      <trkpt lat="45.11908" lon="5.69669">
        <ele>299</ele>
        <time>2013-09-15T15:12:47.000Z</time>
      </trkpt>
      <trkpt lat="45.11908" lon="5.69669">
        <ele>299</ele>
        <time>2013-09-15T15:12:47.000Z</time>
      </trkpt>
      <trkpt lat="45.11908" lon="5.69669">
        <ele>299</ele>
        <time>2013-09-15T15:13:01.000Z</time>
      </trkpt>
      <trkpt lat="45.11909" lon="5.69684">
        <ele>300</ele>
        <time>2013-09-15T15:13:02.000Z</time>
      </trkpt>
      <trkpt lat="45.11909" lon="5.69684">
        <ele>300</ele>
        <time>2013-09-15T15:13:02.000Z</time>
      </trkpt>
      <trkpt lat="45.11909" lon="5.69684">
        <ele>300</ele>
        <time>2013-09-15T15:13:20.000Z</time>
      </trkpt>
      <trkpt lat="45.1191" lon="5.69693">
        <ele>301</ele>
        <time>2013-09-15T15:13:21.000Z</time>
      </trkpt>
      <trkpt lat="45.1191" lon="5.69693">
        <ele>301</ele>
        <time>2013-09-15T15:13:21.000Z</time>
      </trkpt>
      <trkpt lat="45.1191" lon="5.69693">
        <ele>301</ele>
        <time>2013-09-15T15:13:22.000Z</time>
      </trkpt>
      <trkpt lat="45.11911" lon="5.69699">
        <ele>301</ele>
        <time>2013-09-15T15:13:23.000Z</time>
      </trkpt>
      <trkpt lat="45.11911" lon="5.69699">
        <ele>301</ele>
        <time>2013-09-15T15:13:23.000Z</time>
      </trkpt>
      <trkpt lat="45.11911" lon="5.69699">
        <ele>301</ele>
        <time>2013-09-15T15:13:25.000Z</time>
      </trkpt>
      <trkpt lat="45.11911" lon="5.6971">
        <ele>301</ele>
        <time>2013-09-15T15:13:26.000Z</time>
      </trkpt>
      <trkpt lat="45.11911" lon="5.6971">
        <ele>301</ele>
        <time>2013-09-15T15:13:26.000Z</time>
      </trkpt>
      <trkpt lat="45.11911" lon="5.6971">
        <ele>301</ele>
        <time>2013-09-15T15:13:30.000Z</time>
      </trkpt>
      <trkpt lat="45.11913" lon="5.6972">
        <ele>301</ele>
        <time>2013-09-15T15:13:31.000Z</time>
      </trkpt>
      <trkpt lat="45.11913" lon="5.6972">
        <ele>301</ele>
        <time>2013-09-15T15:13:31.000Z</time>
      </trkpt>
      <trkpt lat="45.11913" lon="5.6972">
        <ele>301</ele>
        <time>2013-09-15T15:13:45.000Z</time>
      </trkpt>
      <trkpt lat="45.11914" lon="5.69731">
        <ele>302</ele>
        <time>2013-09-15T15:13:46.000Z</time>
      </trkpt>
      <trkpt lat="45.11914" lon="5.69731">
        <ele>302</ele>
        <time>2013-09-15T15:13:46.000Z</time>
      </trkpt>
      <trkpt lat="45.11914" lon="5.69731">
        <ele>302</ele>
        <time>2013-09-15T15:13:55.000Z</time>
      </trkpt>
      <trkpt lat="45.11923" lon="5.69731">
        <ele>302</ele>
        <time>2013-09-15T15:13:56.000Z</time>
      </trkpt>
      <trkpt lat="45.11923" lon="5.69731">
        <ele>302</ele>
        <time>2013-09-15T15:13:56.000Z</time>
      </trkpt>
      <trkpt lat="45.11923" lon="5.69731">
        <ele>302</ele>
        <time>2013-09-15T15:13:59.000Z</time>
      </trkpt>
      <trkpt lat="45.11932" lon="5.69725">
        <ele>302</ele>
        <time>2013-09-15T15:14:00.000Z</time>
      </trkpt>
      <trkpt lat="45.11939" lon="5.69723">
        <ele>302</ele>
        <time>2013-09-15T15:14:03.000Z</time>
      </trkpt>
      <trkpt lat="45.11946" lon="5.6972">
        <ele>302</ele>
        <time>2013-09-15T15:14:05.000Z</time>
      </trkpt>
      <trkpt lat="45.11955" lon="5.69718">
        <ele>302</ele>
        <time>2013-09-15T15:14:07.000Z</time>
      </trkpt>
      <trkpt lat="45.11964" lon="5.69716">
        <ele>302</ele>
        <time>2013-09-15T15:14:09.000Z</time>
      </trkpt>
      <trkpt lat="45.11969" lon="5.69716">
        <ele>302</ele>
        <time>2013-09-15T15:14:10.000Z</time>
      </trkpt>
      <trkpt lat="45.11978" lon="5.69716">
        <ele>302</ele>
        <time>2013-09-15T15:14:12.000Z</time>
      </trkpt>
      <trkpt lat="45.11983" lon="5.69718">
        <ele>302</ele>
        <time>2013-09-15T15:14:13.000Z</time>
      </trkpt>
      <trkpt lat="45.11987" lon="5.6972">
        <ele>303</ele>
        <time>2013-09-15T15:14:14.000Z</time>
      </trkpt>
      <trkpt lat="45.11995" lon="5.69723">
        <ele>303</ele>
        <time>2013-09-15T15:14:16.000Z</time>
      </trkpt>
      <trkpt lat="45.11999" lon="5.69725">
        <ele>303</ele>
        <time>2013-09-15T15:14:17.000Z</time>
      </trkpt>
      <trkpt lat="45.12007" lon="5.69727">
        <ele>303</ele>
        <time>2013-09-15T15:14:19.000Z</time>
      </trkpt>
      <trkpt lat="45.12013" lon="5.69729">
        <ele>303</ele>
        <time>2013-09-15T15:14:21.000Z</time>
      </trkpt>
      <trkpt lat="45.12018" lon="5.69731">
        <ele>303</ele>
        <time>2013-09-15T15:14:23.000Z</time>
      </trkpt>
      <trkpt lat="45.12024" lon="5.69731">
        <ele>303</ele>
        <time>2013-09-15T15:14:25.000Z</time>
      </trkpt>
      <trkpt lat="45.12029" lon="5.69729">
        <ele>303</ele>
        <time>2013-09-15T15:14:27.000Z</time>
      </trkpt>
      <trkpt lat="45.12036" lon="5.69729">
        <ele>303</ele>
        <time>2013-09-15T15:14:30.000Z</time>
      </trkpt>
      <trkpt lat="45.12043" lon="5.69725">
        <ele>304</ele>
        <time>2013-09-15T15:14:34.000Z</time>
      </trkpt>
      <trkpt lat="45.12043" lon="5.69725">
        <ele>304</ele>
        <time>2013-09-15T15:14:34.000Z</time>
      </trkpt>
      <trkpt lat="45.12043" lon="5.69725">
        <ele>304</ele>
        <time>2013-09-15T15:14:36.000Z</time>
      </trkpt>
      <trkpt lat="45.1205" lon="5.69723">
        <ele>304</ele>
        <time>2013-09-15T15:14:37.000Z</time>
      </trkpt>
      <trkpt lat="45.1205" lon="5.69723">
        <ele>304</ele>
        <time>2013-09-15T15:14:37.000Z</time>
      </trkpt>
      <trkpt lat="45.1205" lon="5.69723">
        <ele>304</ele>
        <time>2013-09-15T15:14:39.000Z</time>
      </trkpt>
      <trkpt lat="45.12055" lon="5.6972">
        <ele>304</ele>
        <time>2013-09-15T15:14:40.000Z</time>
      </trkpt>
      <trkpt lat="45.12055" lon="5.6972">
        <ele>304</ele>
        <time>2013-09-15T15:14:40.000Z</time>
      </trkpt>
      <trkpt lat="45.12055" lon="5.6972">
        <ele>304</ele>
        <time>2013-09-15T15:14:42.000Z</time>
      </trkpt>
      <trkpt lat="45.1206" lon="5.69716">
        <ele>304</ele>
        <time>2013-09-15T15:14:43.000Z</time>
      </trkpt>
      <trkpt lat="45.1206" lon="5.69716">
        <ele>304</ele>
        <time>2013-09-15T15:14:43.000Z</time>
      </trkpt>
      <trkpt lat="45.1206" lon="5.69716">
        <ele>304</ele>
        <time>2013-09-15T15:14:46.000Z</time>
      </trkpt>
      <trkpt lat="45.12066" lon="5.69712">
        <ele>304</ele>
        <time>2013-09-15T15:14:47.000Z</time>
      </trkpt>
      <trkpt lat="45.12066" lon="5.69712">
        <ele>304</ele>
        <time>2013-09-15T15:14:47.000Z</time>
      </trkpt>
      <trkpt lat="45.12066" lon="5.69712">
        <ele>304</ele>
        <time>2013-09-15T15:14:52.000Z</time>
      </trkpt>
      <trkpt lat="45.12074" lon="5.69705">
        <ele>305</ele>
        <time>2013-09-15T15:14:53.000Z</time>
      </trkpt>
      <trkpt lat="45.12074" lon="5.69705">
        <ele>305</ele>
        <time>2013-09-15T15:14:53.000Z</time>
      </trkpt>
      <trkpt lat="45.12074" lon="5.69705">
        <ele>305</ele>
        <time>2013-09-15T15:14:55.000Z</time>
      </trkpt>
      <trkpt lat="45.12078" lon="5.69703">
        <ele>305</ele>
        <time>2013-09-15T15:14:56.000Z</time>
      </trkpt>
      <trkpt lat="45.12078" lon="5.69703">
        <ele>305</ele>
        <time>2013-09-15T15:14:56.000Z</time>
      </trkpt>
      <trkpt lat="45.12078" lon="5.69703">
        <ele>305</ele>
        <time>2013-09-15T15:14:59.000Z</time>
      </trkpt>
      <trkpt lat="45.12084" lon="5.69699">
        <ele>305</ele>
        <time>2013-09-15T15:15:00.000Z</time>
      </trkpt>
      <trkpt lat="45.12084" lon="5.69699">
        <ele>305</ele>
        <time>2013-09-15T15:15:00.000Z</time>
      </trkpt>
      <trkpt lat="45.12084" lon="5.69699">
        <ele>305</ele>
        <time>2013-09-15T15:15:03.000Z</time>
      </trkpt>
      <trkpt lat="45.12088" lon="5.69697">
        <ele>305</ele>
        <time>2013-09-15T15:15:04.000Z</time>
      </trkpt>
      <trkpt lat="45.12088" lon="5.69697">
        <ele>305</ele>
        <time>2013-09-15T15:15:04.000Z</time>
      </trkpt>
      <trkpt lat="45.12088" lon="5.69697">
        <ele>305</ele>
        <time>2013-09-15T15:15:15.000Z</time>
      </trkpt>
      <trkpt lat="45.12095" lon="5.69686">
        <ele>306</ele>
        <time>2013-09-15T15:15:16.000Z</time>
      </trkpt>
      <trkpt lat="45.12095" lon="5.69686">
        <ele>306</ele>
        <time>2013-09-15T15:15:16.000Z</time>
      </trkpt>
      <trkpt lat="45.12095" lon="5.69686">
        <ele>306</ele>
        <time>2013-09-15T15:15:45.000Z</time>
      </trkpt>
      <trkpt lat="45.121" lon="5.69688">
        <ele>305</ele>
        <time>2013-09-15T15:15:47.000Z</time>
      </trkpt>
      <trkpt lat="45.12104" lon="5.69693">
        <ele>305</ele>
        <time>2013-09-15T15:15:49.000Z</time>
      </trkpt>
      <trkpt lat="45.1211" lon="5.69697">
        <ele>305</ele>
        <time>2013-09-15T15:15:51.000Z</time>
      </trkpt>
      <trkpt lat="45.12116" lon="5.69701">
        <ele>306</ele>
        <time>2013-09-15T15:15:53.000Z</time>
      </trkpt>
      <trkpt lat="45.12124" lon="5.69705">
        <ele>306</ele>
        <time>2013-09-15T15:15:55.000Z</time>
      </trkpt>
      <trkpt lat="45.1213" lon="5.6971">
        <ele>307</ele>
        <time>2013-09-15T15:15:57.000Z</time>
      </trkpt>
      <trkpt lat="45.12139" lon="5.69712">
        <ele>308</ele>
        <time>2013-09-15T15:15:59.000Z</time>
      </trkpt>
      <trkpt lat="45.12143" lon="5.69714">
        <ele>308</ele>
        <time>2013-09-15T15:16:00.000Z</time>
      </trkpt>
      <trkpt lat="45.1215" lon="5.69716">
        <ele>309</ele>
        <time>2013-09-15T15:16:02.000Z</time>
      </trkpt>
      <trkpt lat="45.12155" lon="5.69718">
        <ele>309</ele>
        <time>2013-09-15T15:16:03.000Z</time>
      </trkpt>
      <trkpt lat="45.12163" lon="5.6972">
        <ele>309</ele>
        <time>2013-09-15T15:16:05.000Z</time>
      </trkpt>
      <trkpt lat="45.12168" lon="5.69723">
        <ele>309</ele>
        <time>2013-09-15T15:16:06.000Z</time>
      </trkpt>
      <trkpt lat="45.12172" lon="5.69725">
        <ele>309</ele>
        <time>2013-09-15T15:16:07.000Z</time>
      </trkpt>
      <trkpt lat="45.12177" lon="5.69727">
        <ele>309</ele>
        <time>2013-09-15T15:16:08.000Z</time>
      </trkpt>
      <trkpt lat="45.12182" lon="5.69729">
        <ele>309</ele>
        <time>2013-09-15T15:16:09.000Z</time>
      </trkpt>
      <trkpt lat="45.12187" lon="5.69731">
        <ele>309</ele>
        <time>2013-09-15T15:16:10.000Z</time>
      </trkpt>
      <trkpt lat="45.12193" lon="5.69733">
        <ele>309</ele>
        <time>2013-09-15T15:16:11.000Z</time>
      </trkpt>
      <trkpt lat="45.122" lon="5.69736">
        <ele>309</ele>
        <time>2013-09-15T15:16:12.000Z</time>
      </trkpt>
      <trkpt lat="45.12205" lon="5.69738">
        <ele>310</ele>
        <time>2013-09-15T15:16:13.000Z</time>
      </trkpt>
      <trkpt lat="45.12212" lon="5.69742">
        <ele>310</ele>
        <time>2013-09-15T15:16:14.000Z</time>
      </trkpt>
      <trkpt lat="45.12218" lon="5.69746">
        <ele>310</ele>
        <time>2013-09-15T15:16:15.000Z</time>
      </trkpt>
      <trkpt lat="45.12224" lon="5.69748">
        <ele>311</ele>
        <time>2013-09-15T15:16:16.000Z</time>
      </trkpt>
      <trkpt lat="45.1223" lon="5.69753">
        <ele>311</ele>
        <time>2013-09-15T15:16:17.000Z</time>
      </trkpt>
      <trkpt lat="45.12236" lon="5.69757">
        <ele>312</ele>
        <time>2013-09-15T15:16:18.000Z</time>
      </trkpt>
      <trkpt lat="45.12242" lon="5.69761">
        <ele>312</ele>
        <time>2013-09-15T15:16:19.000Z</time>
      </trkpt>
      <trkpt lat="45.12249" lon="5.69761">
        <ele>313</ele>
        <time>2013-09-15T15:16:20.000Z</time>
      </trkpt>
      <trkpt lat="45.12256" lon="5.69761">
        <ele>313</ele>
        <time>2013-09-15T15:16:21.000Z</time>
      </trkpt>
      <trkpt lat="45.12263" lon="5.69761">
        <ele>314</ele>
        <time>2013-09-15T15:16:22.000Z</time>
      </trkpt>
      <trkpt lat="45.1227" lon="5.69763">
        <ele>314</ele>
        <time>2013-09-15T15:16:23.000Z</time>
      </trkpt>
      <trkpt lat="45.12278" lon="5.69763">
        <ele>314</ele>
        <time>2013-09-15T15:16:24.000Z</time>
      </trkpt>
      <trkpt lat="45.12286" lon="5.69766">
        <ele>315</ele>
        <time>2013-09-15T15:16:25.000Z</time>
      </trkpt>
      <trkpt lat="45.12292" lon="5.69768">
        <ele>315</ele>
        <time>2013-09-15T15:16:26.000Z</time>
      </trkpt>
      <trkpt lat="45.12297" lon="5.69768">
        <ele>316</ele>
        <time>2013-09-15T15:16:27.000Z</time>
      </trkpt>
      <trkpt lat="45.12304" lon="5.69766">
        <ele>316</ele>
        <time>2013-09-15T15:16:28.000Z</time>
      </trkpt>
      <trkpt lat="45.12309" lon="5.69763">
        <ele>316</ele>
        <time>2013-09-15T15:16:29.000Z</time>
      </trkpt>
      <trkpt lat="45.12314" lon="5.69761">
        <ele>316</ele>
        <time>2013-09-15T15:16:30.000Z</time>
      </trkpt>
      <trkpt lat="45.12321" lon="5.69761">
        <ele>316</ele>
        <time>2013-09-15T15:16:31.000Z</time>
      </trkpt>
      <trkpt lat="45.12326" lon="5.69759">
        <ele>316</ele>
        <time>2013-09-15T15:16:32.000Z</time>
      </trkpt>
      <trkpt lat="45.12332" lon="5.69759">
        <ele>315</ele>
        <time>2013-09-15T15:16:33.000Z</time>
      </trkpt>
      <trkpt lat="45.12337" lon="5.69757">
        <ele>315</ele>
        <time>2013-09-15T15:16:34.000Z</time>
      </trkpt>
      <trkpt lat="45.12348" lon="5.69757">
        <ele>313</ele>
        <time>2013-09-15T15:16:36.000Z</time>
      </trkpt>
      <trkpt lat="45.12353" lon="5.69759">
        <ele>312</ele>
        <time>2013-09-15T15:16:37.000Z</time>
      </trkpt>
      <trkpt lat="45.1236" lon="5.69761">
        <ele>311</ele>
        <time>2013-09-15T15:16:38.000Z</time>
      </trkpt>
      <trkpt lat="45.12366" lon="5.69763">
        <ele>310</ele>
        <time>2013-09-15T15:16:39.000Z</time>
      </trkpt>
      <trkpt lat="45.12371" lon="5.69763">
        <ele>309</ele>
        <time>2013-09-15T15:16:40.000Z</time>
      </trkpt>
      <trkpt lat="45.12377" lon="5.69766">
        <ele>308</ele>
        <time>2013-09-15T15:16:41.000Z</time>
      </trkpt>
      <trkpt lat="45.12383" lon="5.69763">
        <ele>307</ele>
        <time>2013-09-15T15:16:42.000Z</time>
      </trkpt>
      <trkpt lat="45.12388" lon="5.69763">
        <ele>305</ele>
        <time>2013-09-15T15:16:43.000Z</time>
      </trkpt>
      <trkpt lat="45.12394" lon="5.69761">
        <ele>305</ele>
        <time>2013-09-15T15:16:44.000Z</time>
      </trkpt>
      <trkpt lat="45.12399" lon="5.69759">
        <ele>304</ele>
        <time>2013-09-15T15:16:45.000Z</time>
      </trkpt>
      <trkpt lat="45.12405" lon="5.69759">
        <ele>303</ele>
        <time>2013-09-15T15:16:46.000Z</time>
      </trkpt>
      <trkpt lat="45.12413" lon="5.69761">
        <ele>302</ele>
        <time>2013-09-15T15:16:48.000Z</time>
      </trkpt>
      <trkpt lat="45.12422" lon="5.69763">
        <ele>301</ele>
        <time>2013-09-15T15:16:50.000Z</time>
      </trkpt>
      <trkpt lat="45.12427" lon="5.69766">
        <ele>300</ele>
        <time>2013-09-15T15:16:51.000Z</time>
      </trkpt>
      <trkpt lat="45.12432" lon="5.69768">
        <ele>300</ele>
        <time>2013-09-15T15:16:52.000Z</time>
      </trkpt>
      <trkpt lat="45.12437" lon="5.6977">
        <ele>300</ele>
        <time>2013-09-15T15:16:53.000Z</time>
      </trkpt>
      <trkpt lat="45.12446" lon="5.69772">
        <ele>299</ele>
        <time>2013-09-15T15:16:55.000Z</time>
      </trkpt>
      <trkpt lat="45.12452" lon="5.69774">
        <ele>299</ele>
        <time>2013-09-15T15:16:56.000Z</time>
      </trkpt>
      <trkpt lat="45.12455" lon="5.69778">
        <ele>299</ele>
        <time>2013-09-15T15:16:57.000Z</time>
      </trkpt>
      <trkpt lat="45.12463" lon="5.69789">
        <ele>299</ele>
        <time>2013-09-15T15:16:59.000Z</time>
      </trkpt>
      <trkpt lat="45.12471" lon="5.69791">
        <ele>299</ele>
        <time>2013-09-15T15:17:01.000Z</time>
      </trkpt>
      <trkpt lat="45.12476" lon="5.69793">
        <ele>299</ele>
        <time>2013-09-15T15:17:02.000Z</time>
      </trkpt>
      <trkpt lat="45.12481" lon="5.69796">
        <ele>299</ele>
        <time>2013-09-15T15:17:03.000Z</time>
      </trkpt>
      <trkpt lat="45.12486" lon="5.69798">
        <ele>300</ele>
        <time>2013-09-15T15:17:04.000Z</time>
      </trkpt>
      <trkpt lat="45.1249" lon="5.698">
        <ele>300</ele>
        <time>2013-09-15T15:17:05.000Z</time>
      </trkpt>
      <trkpt lat="45.12495" lon="5.69802">
        <ele>300</ele>
        <time>2013-09-15T15:17:06.000Z</time>
      </trkpt>
      <trkpt lat="45.125" lon="5.69804">
        <ele>300</ele>
        <time>2013-09-15T15:17:07.000Z</time>
      </trkpt>
      <trkpt lat="45.12504" lon="5.69806">
        <ele>301</ele>
        <time>2013-09-15T15:17:08.000Z</time>
      </trkpt>
      <trkpt lat="45.12509" lon="5.69808">
        <ele>301</ele>
        <time>2013-09-15T15:17:09.000Z</time>
      </trkpt>
      <trkpt lat="45.12518" lon="5.69811">
        <ele>301</ele>
        <time>2013-09-15T15:17:11.000Z</time>
      </trkpt>
      <trkpt lat="45.12526" lon="5.69815">
        <ele>301</ele>
        <time>2013-09-15T15:17:13.000Z</time>
      </trkpt>
      <trkpt lat="45.1253" lon="5.69817">
        <ele>301</ele>
        <time>2013-09-15T15:17:14.000Z</time>
      </trkpt>
      <trkpt lat="45.12539" lon="5.69819">
        <ele>301</ele>
        <time>2013-09-15T15:17:16.000Z</time>
      </trkpt>
      <trkpt lat="45.12543" lon="5.69821">
        <ele>301</ele>
        <time>2013-09-15T15:17:17.000Z</time>
      </trkpt>
      <trkpt lat="45.12547" lon="5.69824">
        <ele>301</ele>
        <time>2013-09-15T15:17:18.000Z</time>
      </trkpt>
      <trkpt lat="45.12556" lon="5.69826">
        <ele>301</ele>
        <time>2013-09-15T15:17:20.000Z</time>
      </trkpt>
      <trkpt lat="45.1256" lon="5.69828">
        <ele>301</ele>
        <time>2013-09-15T15:17:21.000Z</time>
      </trkpt>
      <trkpt lat="45.12564" lon="5.6983">
        <ele>301</ele>
        <time>2013-09-15T15:17:22.000Z</time>
      </trkpt>
      <trkpt lat="45.12574" lon="5.69832">
        <ele>301</ele>
        <time>2013-09-15T15:17:24.000Z</time>
      </trkpt>
      <trkpt lat="45.12578" lon="5.69834">
        <ele>301</ele>
        <time>2013-09-15T15:17:25.000Z</time>
      </trkpt>
      <trkpt lat="45.12584" lon="5.69834">
        <ele>301</ele>
        <time>2013-09-15T15:17:26.000Z</time>
      </trkpt>
      <trkpt lat="45.12588" lon="5.69836">
        <ele>301</ele>
        <time>2013-09-15T15:17:27.000Z</time>
      </trkpt>
      <trkpt lat="45.12594" lon="5.69838">
        <ele>301</ele>
        <time>2013-09-15T15:17:28.000Z</time>
      </trkpt>
      <trkpt lat="45.12598" lon="5.69841">
        <ele>301</ele>
        <time>2013-09-15T15:17:29.000Z</time>
      </trkpt>
      <trkpt lat="45.12603" lon="5.69841">
        <ele>301</ele>
        <time>2013-09-15T15:17:30.000Z</time>
      </trkpt>
      <trkpt lat="45.12607" lon="5.69843">
        <ele>301</ele>
        <time>2013-09-15T15:17:31.000Z</time>
      </trkpt>
      <trkpt lat="45.12612" lon="5.69845">
        <ele>301</ele>
        <time>2013-09-15T15:17:32.000Z</time>
      </trkpt>
      <trkpt lat="45.1262" lon="5.69847">
        <ele>301</ele>
        <time>2013-09-15T15:17:34.000Z</time>
      </trkpt>
      <trkpt lat="45.12628" lon="5.69851">
        <ele>302</ele>
        <time>2013-09-15T15:17:36.000Z</time>
      </trkpt>
      <trkpt lat="45.12632" lon="5.69854">
        <ele>302</ele>
        <time>2013-09-15T15:17:37.000Z</time>
      </trkpt>
      <trkpt lat="45.12636" lon="5.69856">
        <ele>302</ele>
        <time>2013-09-15T15:17:38.000Z</time>
      </trkpt>
      <trkpt lat="45.12645" lon="5.69858">
        <ele>302</ele>
        <time>2013-09-15T15:17:40.000Z</time>
      </trkpt>
      <trkpt lat="45.12649" lon="5.6986">
        <ele>302</ele>
        <time>2013-09-15T15:17:41.000Z</time>
      </trkpt>
      <trkpt lat="45.12657" lon="5.69862">
        <ele>302</ele>
        <time>2013-09-15T15:17:43.000Z</time>
      </trkpt>
      <trkpt lat="45.12665" lon="5.69864">
        <ele>302</ele>
        <time>2013-09-15T15:17:45.000Z</time>
      </trkpt>
      <trkpt lat="45.12673" lon="5.69866">
        <ele>303</ele>
        <time>2013-09-15T15:17:47.000Z</time>
      </trkpt>
      <trkpt lat="45.12679" lon="5.69868">
        <ele>303</ele>
        <time>2013-09-15T15:17:49.000Z</time>
      </trkpt>
      <trkpt lat="45.12684" lon="5.69871">
        <ele>303</ele>
        <time>2013-09-15T15:17:50.000Z</time>
      </trkpt>
      <trkpt lat="45.12691" lon="5.69875">
        <ele>303</ele>
        <time>2013-09-15T15:17:52.000Z</time>
      </trkpt>
      <trkpt lat="45.127" lon="5.69877">
        <ele>303</ele>
        <time>2013-09-15T15:17:54.000Z</time>
      </trkpt>
      <trkpt lat="45.12707" lon="5.69881">
        <ele>303</ele>
        <time>2013-09-15T15:17:56.000Z</time>
      </trkpt>
      <trkpt lat="45.12715" lon="5.69884">
        <ele>303</ele>
        <time>2013-09-15T15:17:58.000Z</time>
      </trkpt>
      <trkpt lat="45.12719" lon="5.69886">
        <ele>303</ele>
        <time>2013-09-15T15:17:59.000Z</time>
      </trkpt>
      <trkpt lat="45.12723" lon="5.69888">
        <ele>302</ele>
        <time>2013-09-15T15:18:00.000Z</time>
      </trkpt>
      <trkpt lat="45.12728" lon="5.6989">
        <ele>303</ele>
        <time>2013-09-15T15:18:01.000Z</time>
      </trkpt>
      <trkpt lat="45.12732" lon="5.69892">
        <ele>303</ele>
        <time>2013-09-15T15:18:02.000Z</time>
      </trkpt>
      <trkpt lat="45.12739" lon="5.69894">
        <ele>303</ele>
        <time>2013-09-15T15:18:04.000Z</time>
      </trkpt>
      <trkpt lat="45.12745" lon="5.69896">
        <ele>303</ele>
        <time>2013-09-15T15:18:05.000Z</time>
      </trkpt>
      <trkpt lat="45.12749" lon="5.69899">
        <ele>304</ele>
        <time>2013-09-15T15:18:06.000Z</time>
      </trkpt>
      <trkpt lat="45.12753" lon="5.69901">
        <ele>304</ele>
        <time>2013-09-15T15:18:07.000Z</time>
      </trkpt>
      <trkpt lat="45.12759" lon="5.69901">
        <ele>304</ele>
        <time>2013-09-15T15:18:08.000Z</time>
      </trkpt>
      <trkpt lat="45.12764" lon="5.69903">
        <ele>303</ele>
        <time>2013-09-15T15:18:09.000Z</time>
      </trkpt>
      <trkpt lat="45.12769" lon="5.69905">
        <ele>303</ele>
        <time>2013-09-15T15:18:10.000Z</time>
      </trkpt>
      <trkpt lat="45.12775" lon="5.69905">
        <ele>302</ele>
        <time>2013-09-15T15:18:11.000Z</time>
      </trkpt>
      <trkpt lat="45.1278" lon="5.69907">
        <ele>301</ele>
        <time>2013-09-15T15:18:12.000Z</time>
      </trkpt>
      <trkpt lat="45.12784" lon="5.69909">
        <ele>301</ele>
        <time>2013-09-15T15:18:13.000Z</time>
      </trkpt>
      <trkpt lat="45.12789" lon="5.69911">
        <ele>300</ele>
        <time>2013-09-15T15:18:14.000Z</time>
      </trkpt>
      <trkpt lat="45.12794" lon="5.69911">
        <ele>300</ele>
        <time>2013-09-15T15:18:15.000Z</time>
      </trkpt>
      <trkpt lat="45.12798" lon="5.69914">
        <ele>300</ele>
        <time>2013-09-15T15:18:16.000Z</time>
      </trkpt>
      <trkpt lat="45.12807" lon="5.69916">
        <ele>299</ele>
        <time>2013-09-15T15:18:18.000Z</time>
      </trkpt>
      <trkpt lat="45.12811" lon="5.69918">
        <ele>299</ele>
        <time>2013-09-15T15:18:19.000Z</time>
      </trkpt>
      <trkpt lat="45.1282" lon="5.6992">
        <ele>299</ele>
        <time>2013-09-15T15:18:21.000Z</time>
      </trkpt>
      <trkpt lat="45.12827" lon="5.69922">
        <ele>299</ele>
        <time>2013-09-15T15:18:23.000Z</time>
      </trkpt>
      <trkpt lat="45.12832" lon="5.69924">
        <ele>299</ele>
        <time>2013-09-15T15:18:24.000Z</time>
      </trkpt>
      <trkpt lat="45.12836" lon="5.69926">
        <ele>299</ele>
        <time>2013-09-15T15:18:25.000Z</time>
      </trkpt>
      <trkpt lat="45.1284" lon="5.69929">
        <ele>300</ele>
        <time>2013-09-15T15:18:26.000Z</time>
      </trkpt>
      <trkpt lat="45.12849" lon="5.69931">
        <ele>300</ele>
        <time>2013-09-15T15:18:28.000Z</time>
      </trkpt>
      <trkpt lat="45.12853" lon="5.69933">
        <ele>300</ele>
        <time>2013-09-15T15:18:29.000Z</time>
      </trkpt>
      <trkpt lat="45.12858" lon="5.69933">
        <ele>300</ele>
        <time>2013-09-15T15:18:30.000Z</time>
      </trkpt>
      <trkpt lat="45.12863" lon="5.69935">
        <ele>300</ele>
        <time>2013-09-15T15:18:31.000Z</time>
      </trkpt>
      <trkpt lat="45.12872" lon="5.69937">
        <ele>301</ele>
        <time>2013-09-15T15:18:33.000Z</time>
      </trkpt>
      <trkpt lat="45.12881" lon="5.69939">
        <ele>301</ele>
        <time>2013-09-15T15:18:35.000Z</time>
      </trkpt>
      <trkpt lat="45.1289" lon="5.69942">
        <ele>302</ele>
        <time>2013-09-15T15:18:37.000Z</time>
      </trkpt>
      <trkpt lat="45.12899" lon="5.69944">
        <ele>302</ele>
        <time>2013-09-15T15:18:39.000Z</time>
      </trkpt>
      <trkpt lat="45.12908" lon="5.69946">
        <ele>303</ele>
        <time>2013-09-15T15:18:41.000Z</time>
      </trkpt>
      <trkpt lat="45.12912" lon="5.69948">
        <ele>303</ele>
        <time>2013-09-15T15:18:42.000Z</time>
      </trkpt>
      <trkpt lat="45.1292" lon="5.6995">
        <ele>303</ele>
        <time>2013-09-15T15:18:44.000Z</time>
      </trkpt>
      <trkpt lat="45.12927" lon="5.69952">
        <ele>303</ele>
        <time>2013-09-15T15:18:46.000Z</time>
      </trkpt>
      <trkpt lat="45.12935" lon="5.69954">
        <ele>303</ele>
        <time>2013-09-15T15:18:48.000Z</time>
      </trkpt>
      <trkpt lat="45.12939" lon="5.69956">
        <ele>303</ele>
        <time>2013-09-15T15:18:49.000Z</time>
      </trkpt>
      <trkpt lat="45.12946" lon="5.69959">
        <ele>303</ele>
        <time>2013-09-15T15:18:51.000Z</time>
      </trkpt>
      <trkpt lat="45.12951" lon="5.69961">
        <ele>303</ele>
        <time>2013-09-15T15:18:52.000Z</time>
      </trkpt>
      <trkpt lat="45.1296" lon="5.69963">
        <ele>303</ele>
        <time>2013-09-15T15:18:54.000Z</time>
      </trkpt>
      <trkpt lat="45.12965" lon="5.69965">
        <ele>303</ele>
        <time>2013-09-15T15:18:55.000Z</time>
      </trkpt>
      <trkpt lat="45.1297" lon="5.69967">
        <ele>303</ele>
        <time>2013-09-15T15:18:56.000Z</time>
      </trkpt>
      <trkpt lat="45.12974" lon="5.69969">
        <ele>303</ele>
        <time>2013-09-15T15:18:57.000Z</time>
      </trkpt>
      <trkpt lat="45.12982" lon="5.69972">
        <ele>303</ele>
        <time>2013-09-15T15:18:59.000Z</time>
      </trkpt>
      <trkpt lat="45.1299" lon="5.69974">
        <ele>303</ele>
        <time>2013-09-15T15:19:01.000Z</time>
      </trkpt>
      <trkpt lat="45.12995" lon="5.69976">
        <ele>303</ele>
        <time>2013-09-15T15:19:02.000Z</time>
      </trkpt>
      <trkpt lat="45.13003" lon="5.69978">
        <ele>304</ele>
        <time>2013-09-15T15:19:04.000Z</time>
      </trkpt>
      <trkpt lat="45.13008" lon="5.6998">
        <ele>304</ele>
        <time>2013-09-15T15:19:05.000Z</time>
      </trkpt>
      <trkpt lat="45.13012" lon="5.69982">
        <ele>304</ele>
        <time>2013-09-15T15:19:06.000Z</time>
      </trkpt>
      <trkpt lat="45.13019" lon="5.69986">
        <ele>305</ele>
        <time>2013-09-15T15:19:08.000Z</time>
      </trkpt>
      <trkpt lat="45.13024" lon="5.69989">
        <ele>306</ele>
        <time>2013-09-15T15:19:09.000Z</time>
      </trkpt>
      <trkpt lat="45.13031" lon="5.69991">
        <ele>306</ele>
        <time>2013-09-15T15:19:11.000Z</time>
      </trkpt>
      <trkpt lat="45.13036" lon="5.69993">
        <ele>306</ele>
        <time>2013-09-15T15:19:12.000Z</time>
      </trkpt>
      <trkpt lat="45.13043" lon="5.69999">
        <ele>306</ele>
        <time>2013-09-15T15:19:14.000Z</time>
      </trkpt>
      <trkpt lat="45.1305" lon="5.70004">
        <ele>306</ele>
        <time>2013-09-15T15:19:16.000Z</time>
      </trkpt>
      <trkpt lat="45.13055" lon="5.70006">
        <ele>306</ele>
        <time>2013-09-15T15:19:17.000Z</time>
      </trkpt>
      <trkpt lat="45.13059" lon="5.70008">
        <ele>306</ele>
        <time>2013-09-15T15:19:18.000Z</time>
      </trkpt>
      <trkpt lat="45.13068" lon="5.70012">
        <ele>305</ele>
        <time>2013-09-15T15:19:20.000Z</time>
      </trkpt>
      <trkpt lat="45.13072" lon="5.70014">
        <ele>305</ele>
        <time>2013-09-15T15:19:21.000Z</time>
      </trkpt>
      <trkpt lat="45.13076" lon="5.70017">
        <ele>305</ele>
        <time>2013-09-15T15:19:22.000Z</time>
      </trkpt>
      <trkpt lat="45.13082" lon="5.70019">
        <ele>305</ele>
        <time>2013-09-15T15:19:23.000Z</time>
      </trkpt>
      <trkpt lat="45.13086" lon="5.70021">
        <ele>305</ele>
        <time>2013-09-15T15:19:24.000Z</time>
      </trkpt>
      <trkpt lat="45.13096" lon="5.70023">
        <ele>305</ele>
        <time>2013-09-15T15:19:26.000Z</time>
      </trkpt>
      <trkpt lat="45.131" lon="5.70025">
        <ele>306</ele>
        <time>2013-09-15T15:19:27.000Z</time>
      </trkpt>
      <trkpt lat="45.13105" lon="5.70025">
        <ele>306</ele>
        <time>2013-09-15T15:19:28.000Z</time>
      </trkpt>
      <trkpt lat="45.1311" lon="5.70027">
        <ele>306</ele>
        <time>2013-09-15T15:19:29.000Z</time>
      </trkpt>
      <trkpt lat="45.13114" lon="5.70029">
        <ele>306</ele>
        <time>2013-09-15T15:19:30.000Z</time>
      </trkpt>
      <trkpt lat="45.13119" lon="5.70032">
        <ele>306</ele>
        <time>2013-09-15T15:19:31.000Z</time>
      </trkpt>
      <trkpt lat="45.13124" lon="5.70034">
        <ele>306</ele>
        <time>2013-09-15T15:19:32.000Z</time>
      </trkpt>
      <trkpt lat="45.1313" lon="5.70036">
        <ele>306</ele>
        <time>2013-09-15T15:19:33.000Z</time>
      </trkpt>
      <trkpt lat="45.13135" lon="5.70038">
        <ele>306</ele>
        <time>2013-09-15T15:19:34.000Z</time>
      </trkpt>
      <trkpt lat="45.13141" lon="5.7004">
        <ele>306</ele>
        <time>2013-09-15T15:19:35.000Z</time>
      </trkpt>
      <trkpt lat="45.13146" lon="5.70042">
        <ele>306</ele>
        <time>2013-09-15T15:19:36.000Z</time>
      </trkpt>
      <trkpt lat="45.13151" lon="5.70042">
        <ele>306</ele>
        <time>2013-09-15T15:19:37.000Z</time>
      </trkpt>
      <trkpt lat="45.13157" lon="5.70044">
        <ele>306</ele>
        <time>2013-09-15T15:19:38.000Z</time>
      </trkpt>
      <trkpt lat="45.13162" lon="5.70047">
        <ele>306</ele>
        <time>2013-09-15T15:19:39.000Z</time>
      </trkpt>
      <trkpt lat="45.13168" lon="5.70049">
        <ele>306</ele>
        <time>2013-09-15T15:19:40.000Z</time>
      </trkpt>
      <trkpt lat="45.13174" lon="5.70051">
        <ele>306</ele>
        <time>2013-09-15T15:19:41.000Z</time>
      </trkpt>
      <trkpt lat="45.13178" lon="5.70053">
        <ele>306</ele>
        <time>2013-09-15T15:19:42.000Z</time>
      </trkpt>
      <trkpt lat="45.13184" lon="5.70055">
        <ele>306</ele>
        <time>2013-09-15T15:19:43.000Z</time>
      </trkpt>
      <trkpt lat="45.13189" lon="5.70057">
        <ele>306</ele>
        <time>2013-09-15T15:19:44.000Z</time>
      </trkpt>
      <trkpt lat="45.13194" lon="5.7006">
        <ele>306</ele>
        <time>2013-09-15T15:19:45.000Z</time>
      </trkpt>
      <trkpt lat="45.13204" lon="5.70062">
        <ele>307</ele>
        <time>2013-09-15T15:19:47.000Z</time>
      </trkpt>
      <trkpt lat="45.13209" lon="5.70062">
        <ele>307</ele>
        <time>2013-09-15T15:19:48.000Z</time>
      </trkpt>
      <trkpt lat="45.13214" lon="5.70064">
        <ele>307</ele>
        <time>2013-09-15T15:19:49.000Z</time>
      </trkpt>
      <trkpt lat="45.13219" lon="5.70066">
        <ele>307</ele>
        <time>2013-09-15T15:19:50.000Z</time>
      </trkpt>
      <trkpt lat="45.13224" lon="5.70066">
        <ele>307</ele>
        <time>2013-09-15T15:19:51.000Z</time>
      </trkpt>
      <trkpt lat="45.13229" lon="5.70068">
        <ele>307</ele>
        <time>2013-09-15T15:19:52.000Z</time>
      </trkpt>
      <trkpt lat="45.13234" lon="5.70068">
        <ele>307</ele>
        <time>2013-09-15T15:19:53.000Z</time>
      </trkpt>
      <trkpt lat="45.13238" lon="5.7007">
        <ele>307</ele>
        <time>2013-09-15T15:19:54.000Z</time>
      </trkpt>
      <trkpt lat="45.13243" lon="5.70072">
        <ele>307</ele>
        <time>2013-09-15T15:19:55.000Z</time>
      </trkpt>
      <trkpt lat="45.13247" lon="5.70074">
        <ele>308</ele>
        <time>2013-09-15T15:19:56.000Z</time>
      </trkpt>
      <trkpt lat="45.13251" lon="5.70077">
        <ele>308</ele>
        <time>2013-09-15T15:19:57.000Z</time>
      </trkpt>
      <trkpt lat="45.1326" lon="5.70079">
        <ele>308</ele>
        <time>2013-09-15T15:19:59.000Z</time>
      </trkpt>
      <trkpt lat="45.13265" lon="5.70079">
        <ele>308</ele>
        <time>2013-09-15T15:20:00.000Z</time>
      </trkpt>
      <trkpt lat="45.13269" lon="5.70081">
        <ele>308</ele>
        <time>2013-09-15T15:20:01.000Z</time>
      </trkpt>
      <trkpt lat="45.13275" lon="5.70081">
        <ele>308</ele>
        <time>2013-09-15T15:20:02.000Z</time>
      </trkpt>
      <trkpt lat="45.13279" lon="5.70083">
        <ele>307</ele>
        <time>2013-09-15T15:20:03.000Z</time>
      </trkpt>
      <trkpt lat="45.13283" lon="5.70085">
        <ele>307</ele>
        <time>2013-09-15T15:20:04.000Z</time>
      </trkpt>
      <trkpt lat="45.13292" lon="5.70087">
        <ele>306</ele>
        <time>2013-09-15T15:20:06.000Z</time>
      </trkpt>
      <trkpt lat="45.13297" lon="5.70087">
        <ele>306</ele>
        <time>2013-09-15T15:20:07.000Z</time>
      </trkpt>
      <trkpt lat="45.13303" lon="5.7009">
        <ele>305</ele>
        <time>2013-09-15T15:20:08.000Z</time>
      </trkpt>
      <trkpt lat="45.13308" lon="5.7009">
        <ele>305</ele>
        <time>2013-09-15T15:20:09.000Z</time>
      </trkpt>
      <trkpt lat="45.13314" lon="5.70092">
        <ele>305</ele>
        <time>2013-09-15T15:20:10.000Z</time>
      </trkpt>
      <trkpt lat="45.1332" lon="5.70094">
        <ele>305</ele>
        <time>2013-09-15T15:20:11.000Z</time>
      </trkpt>
      <trkpt lat="45.13326" lon="5.70094">
        <ele>305</ele>
        <time>2013-09-15T15:20:12.000Z</time>
      </trkpt>
      <trkpt lat="45.13332" lon="5.70096">
        <ele>305</ele>
        <time>2013-09-15T15:20:13.000Z</time>
      </trkpt>
      <trkpt lat="45.13337" lon="5.70098">
        <ele>305</ele>
        <time>2013-09-15T15:20:14.000Z</time>
      </trkpt>
      <trkpt lat="45.13343" lon="5.701">
        <ele>305</ele>
        <time>2013-09-15T15:20:15.000Z</time>
      </trkpt>
      <trkpt lat="45.13353" lon="5.70102">
        <ele>305</ele>
        <time>2013-09-15T15:20:17.000Z</time>
      </trkpt>
      <trkpt lat="45.13358" lon="5.70104">
        <ele>305</ele>
        <time>2013-09-15T15:20:18.000Z</time>
      </trkpt>
      <trkpt lat="45.13364" lon="5.70104">
        <ele>304</ele>
        <time>2013-09-15T15:20:19.000Z</time>
      </trkpt>
      <trkpt lat="45.13369" lon="5.70107">
        <ele>304</ele>
        <time>2013-09-15T15:20:20.000Z</time>
      </trkpt>
      <trkpt lat="45.13373" lon="5.70109">
        <ele>303</ele>
        <time>2013-09-15T15:20:21.000Z</time>
      </trkpt>
      <trkpt lat="45.13379" lon="5.70111">
        <ele>303</ele>
        <time>2013-09-15T15:20:22.000Z</time>
      </trkpt>
      <trkpt lat="45.13385" lon="5.70113">
        <ele>303</ele>
        <time>2013-09-15T15:20:24.000Z</time>
      </trkpt>
      <trkpt lat="45.13392" lon="5.70115">
        <ele>303</ele>
        <time>2013-09-15T15:20:26.000Z</time>
      </trkpt>
      <trkpt lat="45.13399" lon="5.70117">
        <ele>303</ele>
        <time>2013-09-15T15:20:28.000Z</time>
      </trkpt>
      <trkpt lat="45.13404" lon="5.7012">
        <ele>303</ele>
        <time>2013-09-15T15:20:29.000Z</time>
      </trkpt>
      <trkpt lat="45.13408" lon="5.70122">
        <ele>302</ele>
        <time>2013-09-15T15:20:30.000Z</time>
      </trkpt>
      <trkpt lat="45.13415" lon="5.70126">
        <ele>302</ele>
        <time>2013-09-15T15:20:32.000Z</time>
      </trkpt>
      <trkpt lat="45.13424" lon="5.70128">
        <ele>299</ele>
        <time>2013-09-15T15:20:34.000Z</time>
      </trkpt>
      <trkpt lat="45.13429" lon="5.70128">
        <ele>298</ele>
        <time>2013-09-15T15:20:35.000Z</time>
      </trkpt>
      <trkpt lat="45.13435" lon="5.70128">
        <ele>297</ele>
        <time>2013-09-15T15:20:36.000Z</time>
      </trkpt>
      <trkpt lat="45.13439" lon="5.7013">
        <ele>296</ele>
        <time>2013-09-15T15:20:37.000Z</time>
      </trkpt>
      <trkpt lat="45.13444" lon="5.7013">
        <ele>295</ele>
        <time>2013-09-15T15:20:38.000Z</time>
      </trkpt>
      <trkpt lat="45.13448" lon="5.70132">
        <ele>295</ele>
        <time>2013-09-15T15:20:39.000Z</time>
      </trkpt>
      <trkpt lat="45.13454" lon="5.70132">
        <ele>294</ele>
        <time>2013-09-15T15:20:40.000Z</time>
      </trkpt>
      <trkpt lat="45.13459" lon="5.70135">
        <ele>294</ele>
        <time>2013-09-15T15:20:41.000Z</time>
      </trkpt>
      <trkpt lat="45.13464" lon="5.70137">
        <ele>294</ele>
        <time>2013-09-15T15:20:42.000Z</time>
      </trkpt>
      <trkpt lat="45.13469" lon="5.70137">
        <ele>294</ele>
        <time>2013-09-15T15:20:43.000Z</time>
      </trkpt>
      <trkpt lat="45.13474" lon="5.70139">
        <ele>294</ele>
        <time>2013-09-15T15:20:44.000Z</time>
      </trkpt>
      <trkpt lat="45.13479" lon="5.70141">
        <ele>294</ele>
        <time>2013-09-15T15:20:45.000Z</time>
      </trkpt>
      <trkpt lat="45.13484" lon="5.70141">
        <ele>294</ele>
        <time>2013-09-15T15:20:46.000Z</time>
      </trkpt>
      <trkpt lat="45.13488" lon="5.70143">
        <ele>294</ele>
        <time>2013-09-15T15:20:47.000Z</time>
      </trkpt>
      <trkpt lat="45.13494" lon="5.70143">
        <ele>294</ele>
        <time>2013-09-15T15:20:48.000Z</time>
      </trkpt>
      <trkpt lat="45.13498" lon="5.70145">
        <ele>294</ele>
        <time>2013-09-15T15:20:49.000Z</time>
      </trkpt>
      <trkpt lat="45.13508" lon="5.70145">
        <ele>295</ele>
        <time>2013-09-15T15:20:51.000Z</time>
      </trkpt>
      <trkpt lat="45.13515" lon="5.70148">
        <ele>295</ele>
        <time>2013-09-15T15:20:53.000Z</time>
      </trkpt>
      <trkpt lat="45.13519" lon="5.7015">
        <ele>295</ele>
        <time>2013-09-15T15:20:54.000Z</time>
      </trkpt>
      <trkpt lat="45.13527" lon="5.70152">
        <ele>294</ele>
        <time>2013-09-15T15:20:56.000Z</time>
      </trkpt>
      <trkpt lat="45.13533" lon="5.70154">
        <ele>294</ele>
        <time>2013-09-15T15:20:58.000Z</time>
      </trkpt>
      <trkpt lat="45.1354" lon="5.70156">
        <ele>294</ele>
        <time>2013-09-15T15:21:00.000Z</time>
      </trkpt>
      <trkpt lat="45.13544" lon="5.70158">
        <ele>294</ele>
        <time>2013-09-15T15:21:01.000Z</time>
      </trkpt>
      <trkpt lat="45.13552" lon="5.70162">
        <ele>294</ele>
        <time>2013-09-15T15:21:03.000Z</time>
      </trkpt>
      <trkpt lat="45.13559" lon="5.70167">
        <ele>295</ele>
        <time>2013-09-15T15:21:05.000Z</time>
      </trkpt>
      <trkpt lat="45.13567" lon="5.70169">
        <ele>295</ele>
        <time>2013-09-15T15:21:07.000Z</time>
      </trkpt>
      <trkpt lat="45.13573" lon="5.70171">
        <ele>295</ele>
        <time>2013-09-15T15:21:09.000Z</time>
      </trkpt>
      <trkpt lat="45.13577" lon="5.70173">
        <ele>295</ele>
        <time>2013-09-15T15:21:10.000Z</time>
      </trkpt>
      <trkpt lat="45.13582" lon="5.70175">
        <ele>295</ele>
        <time>2013-09-15T15:21:11.000Z</time>
      </trkpt>
      <trkpt lat="45.13587" lon="5.70178">
        <ele>295</ele>
        <time>2013-09-15T15:21:12.000Z</time>
      </trkpt>
      <trkpt lat="45.13591" lon="5.7018">
        <ele>295</ele>
        <time>2013-09-15T15:21:13.000Z</time>
      </trkpt>
      <trkpt lat="45.13601" lon="5.70182">
        <ele>296</ele>
        <time>2013-09-15T15:21:15.000Z</time>
      </trkpt>
      <trkpt lat="45.13605" lon="5.70184">
        <ele>296</ele>
        <time>2013-09-15T15:21:16.000Z</time>
      </trkpt>
      <trkpt lat="45.13614" lon="5.70186">
        <ele>297</ele>
        <time>2013-09-15T15:21:18.000Z</time>
      </trkpt>
      <trkpt lat="45.13619" lon="5.70188">
        <ele>297</ele>
        <time>2013-09-15T15:21:19.000Z</time>
      </trkpt>
      <trkpt lat="45.13629" lon="5.70188">
        <ele>298</ele>
        <time>2013-09-15T15:21:21.000Z</time>
      </trkpt>
      <trkpt lat="45.13633" lon="5.7019">
        <ele>298</ele>
        <time>2013-09-15T15:21:22.000Z</time>
      </trkpt>
      <trkpt lat="45.13643" lon="5.70192">
        <ele>298</ele>
        <time>2013-09-15T15:21:24.000Z</time>
      </trkpt>
      <trkpt lat="45.13651" lon="5.70192">
        <ele>298</ele>
        <time>2013-09-15T15:21:26.000Z</time>
      </trkpt>
      <trkpt lat="45.13657" lon="5.70195">
        <ele>298</ele>
        <time>2013-09-15T15:21:27.000Z</time>
      </trkpt>
      <trkpt lat="45.13664" lon="5.70195">
        <ele>297</ele>
        <time>2013-09-15T15:21:29.000Z</time>
      </trkpt>
      <trkpt lat="45.13668" lon="5.70197">
        <ele>297</ele>
        <time>2013-09-15T15:21:30.000Z</time>
      </trkpt>
      <trkpt lat="45.13677" lon="5.70199">
        <ele>296</ele>
        <time>2013-09-15T15:21:32.000Z</time>
      </trkpt>
      <trkpt lat="45.13681" lon="5.70201">
        <ele>296</ele>
        <time>2013-09-15T15:21:33.000Z</time>
      </trkpt>
      <trkpt lat="45.1369" lon="5.70203">
        <ele>295</ele>
        <time>2013-09-15T15:21:35.000Z</time>
      </trkpt>
      <trkpt lat="45.13698" lon="5.70205">
        <ele>295</ele>
        <time>2013-09-15T15:21:37.000Z</time>
      </trkpt>
      <trkpt lat="45.13703" lon="5.70208">
        <ele>295</ele>
        <time>2013-09-15T15:21:38.000Z</time>
      </trkpt>
      <trkpt lat="45.13707" lon="5.7021">
        <ele>295</ele>
        <time>2013-09-15T15:21:39.000Z</time>
      </trkpt>
      <trkpt lat="45.13711" lon="5.70212">
        <ele>295</ele>
        <time>2013-09-15T15:21:40.000Z</time>
      </trkpt>
      <trkpt lat="45.13717" lon="5.70214">
        <ele>294</ele>
        <time>2013-09-15T15:21:41.000Z</time>
      </trkpt>
      <trkpt lat="45.13721" lon="5.70216">
        <ele>294</ele>
        <time>2013-09-15T15:21:42.000Z</time>
      </trkpt>
      <trkpt lat="45.13726" lon="5.70216">
        <ele>294</ele>
        <time>2013-09-15T15:21:43.000Z</time>
      </trkpt>
      <trkpt lat="45.13731" lon="5.70218">
        <ele>293</ele>
        <time>2013-09-15T15:21:44.000Z</time>
      </trkpt>
      <trkpt lat="45.13736" lon="5.7022">
        <ele>293</ele>
        <time>2013-09-15T15:21:45.000Z</time>
      </trkpt>
      <trkpt lat="45.1374" lon="5.70223">
        <ele>292</ele>
        <time>2013-09-15T15:21:46.000Z</time>
      </trkpt>
      <trkpt lat="45.13746" lon="5.70225">
        <ele>292</ele>
        <time>2013-09-15T15:21:47.000Z</time>
      </trkpt>
      <trkpt lat="45.13751" lon="5.70227">
        <ele>292</ele>
        <time>2013-09-15T15:21:48.000Z</time>
      </trkpt>
      <trkpt lat="45.13755" lon="5.70229">
        <ele>291</ele>
        <time>2013-09-15T15:21:49.000Z</time>
      </trkpt>
      <trkpt lat="45.13764" lon="5.70231">
        <ele>291</ele>
        <time>2013-09-15T15:21:51.000Z</time>
      </trkpt>
      <trkpt lat="45.13769" lon="5.70233">
        <ele>290</ele>
        <time>2013-09-15T15:21:52.000Z</time>
      </trkpt>
      <trkpt lat="45.13774" lon="5.70235">
        <ele>290</ele>
        <time>2013-09-15T15:21:53.000Z</time>
      </trkpt>
      <trkpt lat="45.13781" lon="5.70238">
        <ele>290</ele>
        <time>2013-09-15T15:21:55.000Z</time>
      </trkpt>
      <trkpt lat="45.13794" lon="5.70244">
        <ele>290</ele>
        <time>2013-09-15T15:22:01.000Z</time>
      </trkpt>
      <trkpt lat="45.13794" lon="5.70244">
        <ele>290</ele>
        <time>2013-09-15T15:22:01.000Z</time>
      </trkpt>
      <trkpt lat="45.13794" lon="5.70244">
        <ele>290</ele>
        <time>2013-09-15T15:22:03.000Z</time>
      </trkpt>
      <trkpt lat="45.13799" lon="5.70248">
        <ele>290</ele>
        <time>2013-09-15T15:22:06.000Z</time>
      </trkpt>
      <trkpt lat="45.13803" lon="5.70255">
        <ele>290</ele>
        <time>2013-09-15T15:22:08.000Z</time>
      </trkpt>
      <trkpt lat="45.1381" lon="5.70263">
        <ele>290</ele>
        <time>2013-09-15T15:22:12.000Z</time>
      </trkpt>
      <trkpt lat="45.1382" lon="5.70261">
        <ele>290</ele>
        <time>2013-09-15T15:22:14.000Z</time>
      </trkpt>
      <trkpt lat="45.13824" lon="5.70259">
        <ele>290</ele>
        <time>2013-09-15T15:22:15.000Z</time>
      </trkpt>
      <trkpt lat="45.13833" lon="5.70259">
        <ele>290</ele>
        <time>2013-09-15T15:22:17.000Z</time>
      </trkpt>
      <trkpt lat="45.13837" lon="5.70261">
        <ele>289</ele>
        <time>2013-09-15T15:22:18.000Z</time>
      </trkpt>
      <trkpt lat="45.13844" lon="5.70261">
        <ele>289</ele>
        <time>2013-09-15T15:22:20.000Z</time>
      </trkpt>
      <trkpt lat="45.13849" lon="5.70263">
        <ele>289</ele>
        <time>2013-09-15T15:22:21.000Z</time>
      </trkpt>
      <trkpt lat="45.13856" lon="5.70266">
        <ele>289</ele>
        <time>2013-09-15T15:22:23.000Z</time>
      </trkpt>
      <trkpt lat="45.1386" lon="5.70268">
        <ele>289</ele>
        <time>2013-09-15T15:22:24.000Z</time>
      </trkpt>
      <trkpt lat="45.13868" lon="5.7027">
        <ele>289</ele>
        <time>2013-09-15T15:22:26.000Z</time>
      </trkpt>
      <trkpt lat="45.13872" lon="5.70272">
        <ele>289</ele>
        <time>2013-09-15T15:22:27.000Z</time>
      </trkpt>
      <trkpt lat="45.13877" lon="5.70274">
        <ele>289</ele>
        <time>2013-09-15T15:22:28.000Z</time>
      </trkpt>
      <trkpt lat="45.13885" lon="5.70276">
        <ele>289</ele>
        <time>2013-09-15T15:22:30.000Z</time>
      </trkpt>
      <trkpt lat="45.1389" lon="5.70278">
        <ele>289</ele>
        <time>2013-09-15T15:22:31.000Z</time>
      </trkpt>
      <trkpt lat="45.13899" lon="5.7028">
        <ele>289</ele>
        <time>2013-09-15T15:22:33.000Z</time>
      </trkpt>
      <trkpt lat="45.13903" lon="5.70283">
        <ele>289</ele>
        <time>2013-09-15T15:22:34.000Z</time>
      </trkpt>
      <trkpt lat="45.13908" lon="5.70285">
        <ele>289</ele>
        <time>2013-09-15T15:22:35.000Z</time>
      </trkpt>
      <trkpt lat="45.13917" lon="5.70287">
        <ele>289</ele>
        <time>2013-09-15T15:22:37.000Z</time>
      </trkpt>
      <trkpt lat="45.13922" lon="5.70289">
        <ele>289</ele>
        <time>2013-09-15T15:22:38.000Z</time>
      </trkpt>
      <trkpt lat="45.13926" lon="5.70291">
        <ele>289</ele>
        <time>2013-09-15T15:22:39.000Z</time>
      </trkpt>
      <trkpt lat="45.13936" lon="5.70293">
        <ele>290</ele>
        <time>2013-09-15T15:22:41.000Z</time>
      </trkpt>
      <trkpt lat="45.1394" lon="5.70296">
        <ele>290</ele>
        <time>2013-09-15T15:22:42.000Z</time>
      </trkpt>
      <trkpt lat="45.13944" lon="5.70298">
        <ele>291</ele>
        <time>2013-09-15T15:22:43.000Z</time>
      </trkpt>
      <trkpt lat="45.13954" lon="5.703">
        <ele>291</ele>
        <time>2013-09-15T15:22:45.000Z</time>
      </trkpt>
      <trkpt lat="45.13962" lon="5.70302">
        <ele>291</ele>
        <time>2013-09-15T15:22:47.000Z</time>
      </trkpt>
      <trkpt lat="45.13967" lon="5.70304">
        <ele>291</ele>
        <time>2013-09-15T15:22:48.000Z</time>
      </trkpt>
      <trkpt lat="45.13972" lon="5.70304">
        <ele>291</ele>
        <time>2013-09-15T15:22:49.000Z</time>
      </trkpt>
      <trkpt lat="45.13976" lon="5.70306">
        <ele>292</ele>
        <time>2013-09-15T15:22:50.000Z</time>
      </trkpt>
      <trkpt lat="45.13986" lon="5.70308">
        <ele>292</ele>
        <time>2013-09-15T15:22:52.000Z</time>
      </trkpt>
      <trkpt lat="45.13995" lon="5.7031">
        <ele>291</ele>
        <time>2013-09-15T15:22:54.000Z</time>
      </trkpt>
      <trkpt lat="45.14003" lon="5.70313">
        <ele>291</ele>
        <time>2013-09-15T15:22:56.000Z</time>
      </trkpt>
      <trkpt lat="45.14008" lon="5.70315">
        <ele>291</ele>
        <time>2013-09-15T15:22:57.000Z</time>
      </trkpt>
      <trkpt lat="45.14016" lon="5.70317">
        <ele>290</ele>
        <time>2013-09-15T15:22:59.000Z</time>
      </trkpt>
      <trkpt lat="45.1402" lon="5.70319">
        <ele>290</ele>
        <time>2013-09-15T15:23:00.000Z</time>
      </trkpt>
      <trkpt lat="45.14025" lon="5.70321">
        <ele>290</ele>
        <time>2013-09-15T15:23:01.000Z</time>
      </trkpt>
      <trkpt lat="45.14029" lon="5.70323">
        <ele>291</ele>
        <time>2013-09-15T15:23:02.000Z</time>
      </trkpt>
      <trkpt lat="45.14034" lon="5.70323">
        <ele>291</ele>
        <time>2013-09-15T15:23:03.000Z</time>
      </trkpt>
      <trkpt lat="45.14039" lon="5.70326">
        <ele>291</ele>
        <time>2013-09-15T15:23:04.000Z</time>
      </trkpt>
      <trkpt lat="45.14043" lon="5.70328">
        <ele>291</ele>
        <time>2013-09-15T15:23:05.000Z</time>
      </trkpt>
      <trkpt lat="45.14048" lon="5.7033">
        <ele>291</ele>
        <time>2013-09-15T15:23:06.000Z</time>
      </trkpt>
      <trkpt lat="45.14053" lon="5.70332">
        <ele>291</ele>
        <time>2013-09-15T15:23:07.000Z</time>
      </trkpt>
      <trkpt lat="45.14058" lon="5.70334">
        <ele>292</ele>
        <time>2013-09-15T15:23:08.000Z</time>
      </trkpt>
      <trkpt lat="45.14062" lon="5.70336">
        <ele>292</ele>
        <time>2013-09-15T15:23:09.000Z</time>
      </trkpt>
      <trkpt lat="45.14068" lon="5.70338">
        <ele>292</ele>
        <time>2013-09-15T15:23:10.000Z</time>
      </trkpt>
      <trkpt lat="45.14076" lon="5.70341">
        <ele>292</ele>
        <time>2013-09-15T15:23:12.000Z</time>
      </trkpt>
      <trkpt lat="45.1408" lon="5.70343">
        <ele>292</ele>
        <time>2013-09-15T15:23:13.000Z</time>
      </trkpt>
      <trkpt lat="45.14086" lon="5.70345">
        <ele>292</ele>
        <time>2013-09-15T15:23:14.000Z</time>
      </trkpt>
      <trkpt lat="45.1409" lon="5.70347">
        <ele>292</ele>
        <time>2013-09-15T15:23:15.000Z</time>
      </trkpt>
      <trkpt lat="45.14094" lon="5.70349">
        <ele>292</ele>
        <time>2013-09-15T15:23:16.000Z</time>
      </trkpt>
      <trkpt lat="45.14103" lon="5.70351">
        <ele>291</ele>
        <time>2013-09-15T15:23:18.000Z</time>
      </trkpt>
      <trkpt lat="45.14107" lon="5.70354">
        <ele>291</ele>
        <time>2013-09-15T15:23:19.000Z</time>
      </trkpt>
      <trkpt lat="45.14116" lon="5.70356">
        <ele>291</ele>
        <time>2013-09-15T15:23:21.000Z</time>
      </trkpt>
      <trkpt lat="45.1412" lon="5.70358">
        <ele>291</ele>
        <time>2013-09-15T15:23:22.000Z</time>
      </trkpt>
      <trkpt lat="45.14124" lon="5.7036">
        <ele>291</ele>
        <time>2013-09-15T15:23:23.000Z</time>
      </trkpt>
      <trkpt lat="45.14133" lon="5.70362">
        <ele>292</ele>
        <time>2013-09-15T15:23:25.000Z</time>
      </trkpt>
      <trkpt lat="45.14137" lon="5.70364">
        <ele>292</ele>
        <time>2013-09-15T15:23:26.000Z</time>
      </trkpt>
      <trkpt lat="45.14142" lon="5.70366">
        <ele>292</ele>
        <time>2013-09-15T15:23:27.000Z</time>
      </trkpt>
      <trkpt lat="45.1415" lon="5.70368">
        <ele>292</ele>
        <time>2013-09-15T15:23:29.000Z</time>
      </trkpt>
      <trkpt lat="45.14154" lon="5.70371">
        <ele>292</ele>
        <time>2013-09-15T15:23:30.000Z</time>
      </trkpt>
      <trkpt lat="45.1416" lon="5.70373">
        <ele>293</ele>
        <time>2013-09-15T15:23:31.000Z</time>
      </trkpt>
      <trkpt lat="45.14164" lon="5.70375">
        <ele>293</ele>
        <time>2013-09-15T15:23:32.000Z</time>
      </trkpt>
      <trkpt lat="45.14168" lon="5.70377">
        <ele>293</ele>
        <time>2013-09-15T15:23:33.000Z</time>
      </trkpt>
      <trkpt lat="45.14176" lon="5.70379">
        <ele>293</ele>
        <time>2013-09-15T15:23:35.000Z</time>
      </trkpt>
      <trkpt lat="45.14184" lon="5.70384">
        <ele>293</ele>
        <time>2013-09-15T15:23:37.000Z</time>
      </trkpt>
      <trkpt lat="45.14191" lon="5.70386">
        <ele>294</ele>
        <time>2013-09-15T15:23:39.000Z</time>
      </trkpt>
      <trkpt lat="45.14195" lon="5.70388">
        <ele>294</ele>
        <time>2013-09-15T15:23:40.000Z</time>
      </trkpt>
      <trkpt lat="45.142" lon="5.7039">
        <ele>295</ele>
        <time>2013-09-15T15:23:41.000Z</time>
      </trkpt>
      <trkpt lat="45.14204" lon="5.70392">
        <ele>295</ele>
        <time>2013-09-15T15:23:42.000Z</time>
      </trkpt>
      <trkpt lat="45.14208" lon="5.70394">
        <ele>295</ele>
        <time>2013-09-15T15:23:43.000Z</time>
      </trkpt>
      <trkpt lat="45.14217" lon="5.70396">
        <ele>296</ele>
        <time>2013-09-15T15:23:45.000Z</time>
      </trkpt>
      <trkpt lat="45.14222" lon="5.70398">
        <ele>297</ele>
        <time>2013-09-15T15:23:46.000Z</time>
      </trkpt>
      <trkpt lat="45.14226" lon="5.70401">
        <ele>297</ele>
        <time>2013-09-15T15:23:47.000Z</time>
      </trkpt>
      <trkpt lat="45.14231" lon="5.70403">
        <ele>296</ele>
        <time>2013-09-15T15:23:48.000Z</time>
      </trkpt>
      <trkpt lat="45.14236" lon="5.70403">
        <ele>296</ele>
        <time>2013-09-15T15:23:49.000Z</time>
      </trkpt>
      <trkpt lat="45.1424" lon="5.70405">
        <ele>296</ele>
        <time>2013-09-15T15:23:50.000Z</time>
      </trkpt>
      <trkpt lat="45.14246" lon="5.70407">
        <ele>296</ele>
        <time>2013-09-15T15:23:51.000Z</time>
      </trkpt>
      <trkpt lat="45.14255" lon="5.70407">
        <ele>296</ele>
        <time>2013-09-15T15:23:53.000Z</time>
      </trkpt>
      <trkpt lat="45.1426" lon="5.70409">
        <ele>295</ele>
        <time>2013-09-15T15:23:54.000Z</time>
      </trkpt>
      <trkpt lat="45.14265" lon="5.70409">
        <ele>295</ele>
        <time>2013-09-15T15:23:55.000Z</time>
      </trkpt>
      <trkpt lat="45.1427" lon="5.70411">
        <ele>295</ele>
        <time>2013-09-15T15:23:56.000Z</time>
      </trkpt>
      <trkpt lat="45.14276" lon="5.70411">
        <ele>294</ele>
        <time>2013-09-15T15:23:57.000Z</time>
      </trkpt>
      <trkpt lat="45.14281" lon="5.70414">
        <ele>294</ele>
        <time>2013-09-15T15:23:58.000Z</time>
      </trkpt>
      <trkpt lat="45.14286" lon="5.70414">
        <ele>294</ele>
        <time>2013-09-15T15:23:59.000Z</time>
      </trkpt>
      <trkpt lat="45.14291" lon="5.70416">
        <ele>294</ele>
        <time>2013-09-15T15:24:00.000Z</time>
      </trkpt>
      <trkpt lat="45.14296" lon="5.70416">
        <ele>294</ele>
        <time>2013-09-15T15:24:01.000Z</time>
      </trkpt>
      <trkpt lat="45.143" lon="5.70418">
        <ele>294</ele>
        <time>2013-09-15T15:24:02.000Z</time>
      </trkpt>
      <trkpt lat="45.14306" lon="5.70418">
        <ele>294</ele>
        <time>2013-09-15T15:24:03.000Z</time>
      </trkpt>
      <trkpt lat="45.14311" lon="5.7042">
        <ele>294</ele>
        <time>2013-09-15T15:24:04.000Z</time>
      </trkpt>
      <trkpt lat="45.14315" lon="5.70422">
        <ele>293</ele>
        <time>2013-09-15T15:24:05.000Z</time>
      </trkpt>
      <trkpt lat="45.1432" lon="5.70424">
        <ele>293</ele>
        <time>2013-09-15T15:24:06.000Z</time>
      </trkpt>
      <trkpt lat="45.14328" lon="5.70426">
        <ele>293</ele>
        <time>2013-09-15T15:24:08.000Z</time>
      </trkpt>
      <trkpt lat="45.14333" lon="5.70429">
        <ele>292</ele>
        <time>2013-09-15T15:24:09.000Z</time>
      </trkpt>
      <trkpt lat="45.14337" lon="5.70431">
        <ele>292</ele>
        <time>2013-09-15T15:24:10.000Z</time>
      </trkpt>
      <trkpt lat="45.14341" lon="5.70433">
        <ele>292</ele>
        <time>2013-09-15T15:24:11.000Z</time>
      </trkpt>
      <trkpt lat="45.1435" lon="5.70435">
        <ele>292</ele>
        <time>2013-09-15T15:24:13.000Z</time>
      </trkpt>
      <trkpt lat="45.14355" lon="5.70437">
        <ele>292</ele>
        <time>2013-09-15T15:24:14.000Z</time>
      </trkpt>
      <trkpt lat="45.14365" lon="5.70439">
        <ele>292</ele>
        <time>2013-09-15T15:24:16.000Z</time>
      </trkpt>
      <trkpt lat="45.14369" lon="5.70441">
        <ele>292</ele>
        <time>2013-09-15T15:24:17.000Z</time>
      </trkpt>
      <trkpt lat="45.14374" lon="5.70441">
        <ele>292</ele>
        <time>2013-09-15T15:24:18.000Z</time>
      </trkpt>
      <trkpt lat="45.14379" lon="5.70444">
        <ele>292</ele>
        <time>2013-09-15T15:24:19.000Z</time>
      </trkpt>
      <trkpt lat="45.14383" lon="5.70446">
        <ele>292</ele>
        <time>2013-09-15T15:24:20.000Z</time>
      </trkpt>
      <trkpt lat="45.14388" lon="5.70448">
        <ele>292</ele>
        <time>2013-09-15T15:24:21.000Z</time>
      </trkpt>
      <trkpt lat="45.14398" lon="5.7045">
        <ele>292</ele>
        <time>2013-09-15T15:24:23.000Z</time>
      </trkpt>
      <trkpt lat="45.14402" lon="5.70452">
        <ele>292</ele>
        <time>2013-09-15T15:24:24.000Z</time>
      </trkpt>
      <trkpt lat="45.14408" lon="5.70452">
        <ele>292</ele>
        <time>2013-09-15T15:24:25.000Z</time>
      </trkpt>
      <trkpt lat="45.14412" lon="5.70454">
        <ele>292</ele>
        <time>2013-09-15T15:24:26.000Z</time>
      </trkpt>
      <trkpt lat="45.14417" lon="5.70456">
        <ele>292</ele>
        <time>2013-09-15T15:24:27.000Z</time>
      </trkpt>
      <trkpt lat="45.14427" lon="5.70459">
        <ele>292</ele>
        <time>2013-09-15T15:24:29.000Z</time>
      </trkpt>
      <trkpt lat="45.14436" lon="5.70461">
        <ele>292</ele>
        <time>2013-09-15T15:24:31.000Z</time>
      </trkpt>
      <trkpt lat="45.14441" lon="5.70463">
        <ele>292</ele>
        <time>2013-09-15T15:24:32.000Z</time>
      </trkpt>
      <trkpt lat="45.14451" lon="5.70465">
        <ele>292</ele>
        <time>2013-09-15T15:24:34.000Z</time>
      </trkpt>
      <trkpt lat="45.14455" lon="5.70467">
        <ele>292</ele>
        <time>2013-09-15T15:24:35.000Z</time>
      </trkpt>
      <trkpt lat="45.14459" lon="5.70469">
        <ele>292</ele>
        <time>2013-09-15T15:24:36.000Z</time>
      </trkpt>
      <trkpt lat="45.14465" lon="5.70469">
        <ele>292</ele>
        <time>2013-09-15T15:24:37.000Z</time>
      </trkpt>
      <trkpt lat="45.14469" lon="5.70472">
        <ele>292</ele>
        <time>2013-09-15T15:24:38.000Z</time>
      </trkpt>
      <trkpt lat="45.14473" lon="5.70474">
        <ele>292</ele>
        <time>2013-09-15T15:24:39.000Z</time>
      </trkpt>
      <trkpt lat="45.14482" lon="5.70476">
        <ele>292</ele>
        <time>2013-09-15T15:24:41.000Z</time>
      </trkpt>
      <trkpt lat="45.14486" lon="5.70478">
        <ele>292</ele>
        <time>2013-09-15T15:24:42.000Z</time>
      </trkpt>
      <trkpt lat="45.14495" lon="5.7048">
        <ele>292</ele>
        <time>2013-09-15T15:24:44.000Z</time>
      </trkpt>
      <trkpt lat="45.14499" lon="5.70482">
        <ele>292</ele>
        <time>2013-09-15T15:24:45.000Z</time>
      </trkpt>
      <trkpt lat="45.14503" lon="5.70484">
        <ele>292</ele>
        <time>2013-09-15T15:24:46.000Z</time>
      </trkpt>
      <trkpt lat="45.14508" lon="5.70486">
        <ele>292</ele>
        <time>2013-09-15T15:24:47.000Z</time>
      </trkpt>
      <trkpt lat="45.14513" lon="5.70486">
        <ele>292</ele>
        <time>2013-09-15T15:24:48.000Z</time>
      </trkpt>
      <trkpt lat="45.14517" lon="5.70489">
        <ele>292</ele>
        <time>2013-09-15T15:24:49.000Z</time>
      </trkpt>
      <trkpt lat="45.14521" lon="5.70491">
        <ele>292</ele>
        <time>2013-09-15T15:24:50.000Z</time>
      </trkpt>
      <trkpt lat="45.1453" lon="5.70493">
        <ele>292</ele>
        <time>2013-09-15T15:24:52.000Z</time>
      </trkpt>
      <trkpt lat="45.14535" lon="5.70495">
        <ele>292</ele>
        <time>2013-09-15T15:24:53.000Z</time>
      </trkpt>
      <trkpt lat="45.1454" lon="5.70497">
        <ele>292</ele>
        <time>2013-09-15T15:24:54.000Z</time>
      </trkpt>
      <trkpt lat="45.14544" lon="5.70499">
        <ele>292</ele>
        <time>2013-09-15T15:24:55.000Z</time>
      </trkpt>
      <trkpt lat="45.14548" lon="5.70502">
        <ele>292</ele>
        <time>2013-09-15T15:24:56.000Z</time>
      </trkpt>
      <trkpt lat="45.14557" lon="5.70504">
        <ele>292</ele>
        <time>2013-09-15T15:24:58.000Z</time>
      </trkpt>
      <trkpt lat="45.14561" lon="5.70506">
        <ele>292</ele>
        <time>2013-09-15T15:24:59.000Z</time>
      </trkpt>
      <trkpt lat="45.14565" lon="5.70508">
        <ele>292</ele>
        <time>2013-09-15T15:25:00.000Z</time>
      </trkpt>
      <trkpt lat="45.14573" lon="5.7051">
        <ele>291</ele>
        <time>2013-09-15T15:25:02.000Z</time>
      </trkpt>
      <trkpt lat="45.14577" lon="5.70512">
        <ele>291</ele>
        <time>2013-09-15T15:25:03.000Z</time>
      </trkpt>
      <trkpt lat="45.14582" lon="5.70514">
        <ele>291</ele>
        <time>2013-09-15T15:25:04.000Z</time>
      </trkpt>
      <trkpt lat="45.14586" lon="5.70516">
        <ele>291</ele>
        <time>2013-09-15T15:25:05.000Z</time>
      </trkpt>
      <trkpt lat="45.14591" lon="5.70516">
        <ele>291</ele>
        <time>2013-09-15T15:25:06.000Z</time>
      </trkpt>
      <trkpt lat="45.14599" lon="5.70519">
        <ele>291</ele>
        <time>2013-09-15T15:25:08.000Z</time>
      </trkpt>
      <trkpt lat="45.14603" lon="5.70521">
        <ele>291</ele>
        <time>2013-09-15T15:25:09.000Z</time>
      </trkpt>
      <trkpt lat="45.14612" lon="5.70523">
        <ele>292</ele>
        <time>2013-09-15T15:25:11.000Z</time>
      </trkpt>
      <trkpt lat="45.14616" lon="5.70525">
        <ele>292</ele>
        <time>2013-09-15T15:25:12.000Z</time>
      </trkpt>
      <trkpt lat="45.14624" lon="5.70527">
        <ele>293</ele>
        <time>2013-09-15T15:25:14.000Z</time>
      </trkpt>
      <trkpt lat="45.14633" lon="5.70529">
        <ele>293</ele>
        <time>2013-09-15T15:25:16.000Z</time>
      </trkpt>
      <trkpt lat="45.14637" lon="5.70532">
        <ele>293</ele>
        <time>2013-09-15T15:25:17.000Z</time>
      </trkpt>
      <trkpt lat="45.14642" lon="5.70534">
        <ele>293</ele>
        <time>2013-09-15T15:25:18.000Z</time>
      </trkpt>
      <trkpt lat="45.14651" lon="5.70536">
        <ele>293</ele>
        <time>2013-09-15T15:25:20.000Z</time>
      </trkpt>
      <trkpt lat="45.14656" lon="5.70538">
        <ele>293</ele>
        <time>2013-09-15T15:25:21.000Z</time>
      </trkpt>
      <trkpt lat="45.14665" lon="5.7054">
        <ele>293</ele>
        <time>2013-09-15T15:25:23.000Z</time>
      </trkpt>
      <trkpt lat="45.14675" lon="5.70542">
        <ele>294</ele>
        <time>2013-09-15T15:25:25.000Z</time>
      </trkpt>
      <trkpt lat="45.14679" lon="5.70544">
        <ele>294</ele>
        <time>2013-09-15T15:25:26.000Z</time>
      </trkpt>
      <trkpt lat="45.14684" lon="5.70544">
        <ele>294</ele>
        <time>2013-09-15T15:25:27.000Z</time>
      </trkpt>
      <trkpt lat="45.14689" lon="5.70547">
        <ele>294</ele>
        <time>2013-09-15T15:25:28.000Z</time>
      </trkpt>
      <trkpt lat="45.14693" lon="5.70549">
        <ele>294</ele>
        <time>2013-09-15T15:25:29.000Z</time>
      </trkpt>
      <trkpt lat="45.14702" lon="5.70551">
        <ele>294</ele>
        <time>2013-09-15T15:25:31.000Z</time>
      </trkpt>
      <trkpt lat="45.14706" lon="5.70553">
        <ele>293</ele>
        <time>2013-09-15T15:25:32.000Z</time>
      </trkpt>
      <trkpt lat="45.14711" lon="5.70553">
        <ele>293</ele>
        <time>2013-09-15T15:25:33.000Z</time>
      </trkpt>
      <trkpt lat="45.14716" lon="5.70555">
        <ele>293</ele>
        <time>2013-09-15T15:25:34.000Z</time>
      </trkpt>
      <trkpt lat="45.14723" lon="5.70557">
        <ele>293</ele>
        <time>2013-09-15T15:25:36.000Z</time>
      </trkpt>
      <trkpt lat="45.14727" lon="5.7056">
        <ele>293</ele>
        <time>2013-09-15T15:25:37.000Z</time>
      </trkpt>
      <trkpt lat="45.14736" lon="5.70562">
        <ele>292</ele>
        <time>2013-09-15T15:25:39.000Z</time>
      </trkpt>
      <trkpt lat="45.1474" lon="5.70564">
        <ele>292</ele>
        <time>2013-09-15T15:25:40.000Z</time>
      </trkpt>
      <trkpt lat="45.14745" lon="5.70566">
        <ele>292</ele>
        <time>2013-09-15T15:25:41.000Z</time>
      </trkpt>
      <trkpt lat="45.1475" lon="5.70566">
        <ele>292</ele>
        <time>2013-09-15T15:25:42.000Z</time>
      </trkpt>
      <trkpt lat="45.14754" lon="5.70568">
        <ele>292</ele>
        <time>2013-09-15T15:25:43.000Z</time>
      </trkpt>
      <trkpt lat="45.14758" lon="5.7057">
        <ele>292</ele>
        <time>2013-09-15T15:25:44.000Z</time>
      </trkpt>
      <trkpt lat="45.14763" lon="5.70572">
        <ele>292</ele>
        <time>2013-09-15T15:25:45.000Z</time>
      </trkpt>
      <trkpt lat="45.14771" lon="5.70574">
        <ele>292</ele>
        <time>2013-09-15T15:25:47.000Z</time>
      </trkpt>
      <trkpt lat="45.14776" lon="5.70577">
        <ele>292</ele>
        <time>2013-09-15T15:25:48.000Z</time>
      </trkpt>
      <trkpt lat="45.1478" lon="5.70579">
        <ele>292</ele>
        <time>2013-09-15T15:25:49.000Z</time>
      </trkpt>
      <trkpt lat="45.14785" lon="5.70579">
        <ele>292</ele>
        <time>2013-09-15T15:25:50.000Z</time>
      </trkpt>
      <trkpt lat="45.1479" lon="5.70581">
        <ele>292</ele>
        <time>2013-09-15T15:25:51.000Z</time>
      </trkpt>
      <trkpt lat="45.14795" lon="5.70583">
        <ele>292</ele>
        <time>2013-09-15T15:25:52.000Z</time>
      </trkpt>
      <trkpt lat="45.14805" lon="5.70585">
        <ele>292</ele>
        <time>2013-09-15T15:25:54.000Z</time>
      </trkpt>
      <trkpt lat="45.14809" lon="5.70587">
        <ele>292</ele>
        <time>2013-09-15T15:25:55.000Z</time>
      </trkpt>
      <trkpt lat="45.14814" lon="5.70587">
        <ele>292</ele>
        <time>2013-09-15T15:25:56.000Z</time>
      </trkpt>
      <trkpt lat="45.14819" lon="5.7059">
        <ele>292</ele>
        <time>2013-09-15T15:25:57.000Z</time>
      </trkpt>
      <trkpt lat="45.14823" lon="5.70592">
        <ele>292</ele>
        <time>2013-09-15T15:25:58.000Z</time>
      </trkpt>
      <trkpt lat="45.14828" lon="5.70592">
        <ele>292</ele>
        <time>2013-09-15T15:25:59.000Z</time>
      </trkpt>
      <trkpt lat="45.14833" lon="5.70594">
        <ele>292</ele>
        <time>2013-09-15T15:26:00.000Z</time>
      </trkpt>
      <trkpt lat="45.14838" lon="5.70594">
        <ele>292</ele>
        <time>2013-09-15T15:26:01.000Z</time>
      </trkpt>
      <trkpt lat="45.14842" lon="5.70596">
        <ele>292</ele>
        <time>2013-09-15T15:26:02.000Z</time>
      </trkpt>
      <trkpt lat="45.14846" lon="5.70598">
        <ele>292</ele>
        <time>2013-09-15T15:26:03.000Z</time>
      </trkpt>
      <trkpt lat="45.14852" lon="5.70598">
        <ele>292</ele>
        <time>2013-09-15T15:26:04.000Z</time>
      </trkpt>
      <trkpt lat="45.14856" lon="5.706">
        <ele>292</ele>
        <time>2013-09-15T15:26:05.000Z</time>
      </trkpt>
      <trkpt lat="45.1486" lon="5.70602">
        <ele>292</ele>
        <time>2013-09-15T15:26:06.000Z</time>
      </trkpt>
      <trkpt lat="45.1487" lon="5.70604">
        <ele>292</ele>
        <time>2013-09-15T15:26:08.000Z</time>
      </trkpt>
      <trkpt lat="45.14874" lon="5.70607">
        <ele>292</ele>
        <time>2013-09-15T15:26:09.000Z</time>
      </trkpt>
      <trkpt lat="45.14879" lon="5.70609">
        <ele>292</ele>
        <time>2013-09-15T15:26:10.000Z</time>
      </trkpt>
      <trkpt lat="45.14883" lon="5.70611">
        <ele>292</ele>
        <time>2013-09-15T15:26:11.000Z</time>
      </trkpt>
      <trkpt lat="45.14888" lon="5.70611">
        <ele>292</ele>
        <time>2013-09-15T15:26:12.000Z</time>
      </trkpt>
      <trkpt lat="45.14893" lon="5.70613">
        <ele>292</ele>
        <time>2013-09-15T15:26:13.000Z</time>
      </trkpt>
      <trkpt lat="45.14898" lon="5.70615">
        <ele>292</ele>
        <time>2013-09-15T15:26:14.000Z</time>
      </trkpt>
      <trkpt lat="45.14902" lon="5.70617">
        <ele>291</ele>
        <time>2013-09-15T15:26:15.000Z</time>
      </trkpt>
      <trkpt lat="45.14908" lon="5.70617">
        <ele>291</ele>
        <time>2013-09-15T15:26:16.000Z</time>
      </trkpt>
      <trkpt lat="45.14912" lon="5.7062">
        <ele>291</ele>
        <time>2013-09-15T15:26:17.000Z</time>
      </trkpt>
      <trkpt lat="45.14917" lon="5.70622">
        <ele>291</ele>
        <time>2013-09-15T15:26:18.000Z</time>
      </trkpt>
      <trkpt lat="45.14926" lon="5.70624">
        <ele>290</ele>
        <time>2013-09-15T15:26:20.000Z</time>
      </trkpt>
      <trkpt lat="45.14931" lon="5.70626">
        <ele>290</ele>
        <time>2013-09-15T15:26:21.000Z</time>
      </trkpt>
      <trkpt lat="45.1494" lon="5.70628">
        <ele>290</ele>
        <time>2013-09-15T15:26:23.000Z</time>
      </trkpt>
      <trkpt lat="45.14944" lon="5.7063">
        <ele>290</ele>
        <time>2013-09-15T15:26:24.000Z</time>
      </trkpt>
      <trkpt lat="45.14948" lon="5.70632">
        <ele>290</ele>
        <time>2013-09-15T15:26:25.000Z</time>
      </trkpt>
      <trkpt lat="45.14957" lon="5.70635">
        <ele>290</ele>
        <time>2013-09-15T15:26:27.000Z</time>
      </trkpt>
      <trkpt lat="45.14964" lon="5.70637">
        <ele>289</ele>
        <time>2013-09-15T15:26:29.000Z</time>
      </trkpt>
      <trkpt lat="45.14969" lon="5.70639">
        <ele>289</ele>
        <time>2013-09-15T15:26:30.000Z</time>
      </trkpt>
      <trkpt lat="45.14973" lon="5.70641">
        <ele>289</ele>
        <time>2013-09-15T15:26:31.000Z</time>
      </trkpt>
      <trkpt lat="45.14982" lon="5.70643">
        <ele>289</ele>
        <time>2013-09-15T15:26:33.000Z</time>
      </trkpt>
      <trkpt lat="45.14986" lon="5.70645">
        <ele>288</ele>
        <time>2013-09-15T15:26:34.000Z</time>
      </trkpt>
      <trkpt lat="45.14996" lon="5.70647">
        <ele>288</ele>
        <time>2013-09-15T15:26:36.000Z</time>
      </trkpt>
      <trkpt lat="45.15" lon="5.7065">
        <ele>288</ele>
        <time>2013-09-15T15:26:37.000Z</time>
      </trkpt>
      <trkpt lat="45.15005" lon="5.70652">
        <ele>288</ele>
        <time>2013-09-15T15:26:38.000Z</time>
      </trkpt>
      <trkpt lat="45.15015" lon="5.70654">
        <ele>288</ele>
        <time>2013-09-15T15:26:40.000Z</time>
      </trkpt>
      <trkpt lat="45.15019" lon="5.70656">
        <ele>288</ele>
        <time>2013-09-15T15:26:41.000Z</time>
      </trkpt>
      <trkpt lat="45.15024" lon="5.70658">
        <ele>288</ele>
        <time>2013-09-15T15:26:42.000Z</time>
      </trkpt>
      <trkpt lat="45.15029" lon="5.70658">
        <ele>287</ele>
        <time>2013-09-15T15:26:43.000Z</time>
      </trkpt>
      <trkpt lat="45.15033" lon="5.7066">
        <ele>287</ele>
        <time>2013-09-15T15:26:44.000Z</time>
      </trkpt>
      <trkpt lat="45.15038" lon="5.70662">
        <ele>287</ele>
        <time>2013-09-15T15:26:45.000Z</time>
      </trkpt>
      <trkpt lat="45.15046" lon="5.70665">
        <ele>287</ele>
        <time>2013-09-15T15:26:47.000Z</time>
      </trkpt>
      <trkpt lat="45.1505" lon="5.70667">
        <ele>288</ele>
        <time>2013-09-15T15:26:48.000Z</time>
      </trkpt>
      <trkpt lat="45.15059" lon="5.70669">
        <ele>288</ele>
        <time>2013-09-15T15:26:50.000Z</time>
      </trkpt>
      <trkpt lat="45.15063" lon="5.70671">
        <ele>288</ele>
        <time>2013-09-15T15:26:51.000Z</time>
      </trkpt>
      <trkpt lat="45.15072" lon="5.70673">
        <ele>288</ele>
        <time>2013-09-15T15:26:53.000Z</time>
      </trkpt>
      <trkpt lat="45.15077" lon="5.70675">
        <ele>288</ele>
        <time>2013-09-15T15:26:54.000Z</time>
      </trkpt>
      <trkpt lat="45.15082" lon="5.70678">
        <ele>288</ele>
        <time>2013-09-15T15:26:55.000Z</time>
      </trkpt>
      <trkpt lat="45.15086" lon="5.7068">
        <ele>289</ele>
        <time>2013-09-15T15:26:56.000Z</time>
      </trkpt>
      <trkpt lat="45.15091" lon="5.70682">
        <ele>289</ele>
        <time>2013-09-15T15:26:57.000Z</time>
      </trkpt>
      <trkpt lat="45.15095" lon="5.70684">
        <ele>289</ele>
        <time>2013-09-15T15:26:58.000Z</time>
      </trkpt>
      <trkpt lat="45.15101" lon="5.70686">
        <ele>289</ele>
        <time>2013-09-15T15:26:59.000Z</time>
      </trkpt>
      <trkpt lat="45.15105" lon="5.70688">
        <ele>289</ele>
        <time>2013-09-15T15:27:00.000Z</time>
      </trkpt>
      <trkpt lat="45.15112" lon="5.7069">
        <ele>288</ele>
        <time>2013-09-15T15:27:01.000Z</time>
      </trkpt>
      <trkpt lat="45.15116" lon="5.70692">
        <ele>288</ele>
        <time>2013-09-15T15:27:02.000Z</time>
      </trkpt>
      <trkpt lat="45.15121" lon="5.70695">
        <ele>288</ele>
        <time>2013-09-15T15:27:03.000Z</time>
      </trkpt>
      <trkpt lat="45.15126" lon="5.70697">
        <ele>288</ele>
        <time>2013-09-15T15:27:04.000Z</time>
      </trkpt>
      <trkpt lat="45.15132" lon="5.70699">
        <ele>287</ele>
        <time>2013-09-15T15:27:05.000Z</time>
      </trkpt>
      <trkpt lat="45.15136" lon="5.70701">
        <ele>287</ele>
        <time>2013-09-15T15:27:06.000Z</time>
      </trkpt>
      <trkpt lat="45.15145" lon="5.70703">
        <ele>287</ele>
        <time>2013-09-15T15:27:08.000Z</time>
      </trkpt>
      <trkpt lat="45.15151" lon="5.70705">
        <ele>287</ele>
        <time>2013-09-15T15:27:10.000Z</time>
      </trkpt>
      <trkpt lat="45.15157" lon="5.70708">
        <ele>287</ele>
        <time>2013-09-15T15:27:12.000Z</time>
      </trkpt>
      <trkpt lat="45.15164" lon="5.70712">
        <ele>287</ele>
        <time>2013-09-15T15:27:16.000Z</time>
      </trkpt>
      <trkpt lat="45.15164" lon="5.70712">
        <ele>287</ele>
        <time>2013-09-15T15:27:16.000Z</time>
      </trkpt>
      <trkpt lat="45.15164" lon="5.70712">
        <ele>287</ele>
        <time>2013-09-15T15:27:22.000Z</time>
      </trkpt>
      <trkpt lat="45.15167" lon="5.7072">
        <ele>286</ele>
        <time>2013-09-15T15:27:24.000Z</time>
      </trkpt>
      <trkpt lat="45.15168" lon="5.70729">
        <ele>286</ele>
        <time>2013-09-15T15:27:27.000Z</time>
      </trkpt>
      <trkpt lat="45.15166" lon="5.70735">
        <ele>285</ele>
        <time>2013-09-15T15:27:29.000Z</time>
      </trkpt>
      <trkpt lat="45.15164" lon="5.70744">
        <ele>284</ele>
        <time>2013-09-15T15:27:31.000Z</time>
      </trkpt>
      <trkpt lat="45.15162" lon="5.7075">
        <ele>284</ele>
        <time>2013-09-15T15:27:33.000Z</time>
      </trkpt>
      <trkpt lat="45.1516" lon="5.70757">
        <ele>284</ele>
        <time>2013-09-15T15:27:35.000Z</time>
      </trkpt>
      <trkpt lat="45.15157" lon="5.70768">
        <ele>284</ele>
        <time>2013-09-15T15:27:37.000Z</time>
      </trkpt>
      <trkpt lat="45.15152" lon="5.70778">
        <ele>284</ele>
        <time>2013-09-15T15:27:39.000Z</time>
      </trkpt>
      <trkpt lat="45.15149" lon="5.70785">
        <ele>284</ele>
        <time>2013-09-15T15:27:40.000Z</time>
      </trkpt>
      <trkpt lat="45.15147" lon="5.70793">
        <ele>284</ele>
        <time>2013-09-15T15:27:41.000Z</time>
      </trkpt>
      <trkpt lat="45.15144" lon="5.708">
        <ele>284</ele>
        <time>2013-09-15T15:27:42.000Z</time>
      </trkpt>
      <trkpt lat="45.15142" lon="5.70806">
        <ele>284</ele>
        <time>2013-09-15T15:27:43.000Z</time>
      </trkpt>
      <trkpt lat="45.15138" lon="5.70813">
        <ele>284</ele>
        <time>2013-09-15T15:27:44.000Z</time>
      </trkpt>
      <trkpt lat="45.15136" lon="5.70819">
        <ele>284</ele>
        <time>2013-09-15T15:27:45.000Z</time>
      </trkpt>
      <trkpt lat="45.15133" lon="5.70828">
        <ele>284</ele>
        <time>2013-09-15T15:27:46.000Z</time>
      </trkpt>
      <trkpt lat="45.15131" lon="5.70834">
        <ele>284</ele>
        <time>2013-09-15T15:27:47.000Z</time>
      </trkpt>
      <trkpt lat="45.15128" lon="5.7084">
        <ele>284</ele>
        <time>2013-09-15T15:27:48.000Z</time>
      </trkpt>
      <trkpt lat="45.15126" lon="5.70849">
        <ele>285</ele>
        <time>2013-09-15T15:27:49.000Z</time>
      </trkpt>
      <trkpt lat="45.15122" lon="5.70856">
        <ele>285</ele>
        <time>2013-09-15T15:27:50.000Z</time>
      </trkpt>
      <trkpt lat="45.1512" lon="5.70862">
        <ele>285</ele>
        <time>2013-09-15T15:27:51.000Z</time>
      </trkpt>
      <trkpt lat="45.15117" lon="5.70868">
        <ele>285</ele>
        <time>2013-09-15T15:27:52.000Z</time>
      </trkpt>
      <trkpt lat="45.15114" lon="5.70877">
        <ele>285</ele>
        <time>2013-09-15T15:27:53.000Z</time>
      </trkpt>
      <trkpt lat="45.15112" lon="5.70884">
        <ele>285</ele>
        <time>2013-09-15T15:27:54.000Z</time>
      </trkpt>
      <trkpt lat="45.15109" lon="5.7089">
        <ele>285</ele>
        <time>2013-09-15T15:27:55.000Z</time>
      </trkpt>
      <trkpt lat="45.15107" lon="5.70896">
        <ele>286</ele>
        <time>2013-09-15T15:27:56.000Z</time>
      </trkpt>
      <trkpt lat="45.15105" lon="5.70903">
        <ele>286</ele>
        <time>2013-09-15T15:27:57.000Z</time>
      </trkpt>
      <trkpt lat="45.15104" lon="5.70909">
        <ele>286</ele>
        <time>2013-09-15T15:27:58.000Z</time>
      </trkpt>
      <trkpt lat="45.15102" lon="5.70916">
        <ele>286</ele>
        <time>2013-09-15T15:27:59.000Z</time>
      </trkpt>
      <trkpt lat="45.15101" lon="5.70924">
        <ele>286</ele>
        <time>2013-09-15T15:28:00.000Z</time>
      </trkpt>
      <trkpt lat="45.15099" lon="5.70931">
        <ele>286</ele>
        <time>2013-09-15T15:28:01.000Z</time>
      </trkpt>
      <trkpt lat="45.151" lon="5.70939">
        <ele>286</ele>
        <time>2013-09-15T15:28:02.000Z</time>
      </trkpt>
      <trkpt lat="45.151" lon="5.70946">
        <ele>286</ele>
        <time>2013-09-15T15:28:03.000Z</time>
      </trkpt>
      <trkpt lat="45.15103" lon="5.70952">
        <ele>286</ele>
        <time>2013-09-15T15:28:04.000Z</time>
      </trkpt>
      <trkpt lat="45.15107" lon="5.70956">
        <ele>286</ele>
        <time>2013-09-15T15:28:05.000Z</time>
      </trkpt>
      <trkpt lat="45.15113" lon="5.70959">
        <ele>286</ele>
        <time>2013-09-15T15:28:06.000Z</time>
      </trkpt>
      <trkpt lat="45.15118" lon="5.70961">
        <ele>286</ele>
        <time>2013-09-15T15:28:07.000Z</time>
      </trkpt>
      <trkpt lat="45.15123" lon="5.70963">
        <ele>286</ele>
        <time>2013-09-15T15:28:08.000Z</time>
      </trkpt>
      <trkpt lat="45.15129" lon="5.70967">
        <ele>287</ele>
        <time>2013-09-15T15:28:09.000Z</time>
      </trkpt>
      <trkpt lat="45.15133" lon="5.70969">
        <ele>287</ele>
        <time>2013-09-15T15:28:10.000Z</time>
      </trkpt>
      <trkpt lat="45.15137" lon="5.70974">
        <ele>287</ele>
        <time>2013-09-15T15:28:11.000Z</time>
      </trkpt>
      <trkpt lat="45.15143" lon="5.70978">
        <ele>287</ele>
        <time>2013-09-15T15:28:12.000Z</time>
      </trkpt>
      <trkpt lat="45.1515" lon="5.70986">
        <ele>287</ele>
        <time>2013-09-15T15:28:14.000Z</time>
      </trkpt>
      <trkpt lat="45.15154" lon="5.70991">
        <ele>286</ele>
        <time>2013-09-15T15:28:15.000Z</time>
      </trkpt>
      <trkpt lat="45.15159" lon="5.70995">
        <ele>286</ele>
        <time>2013-09-15T15:28:16.000Z</time>
      </trkpt>
      <trkpt lat="45.15162" lon="5.70999">
        <ele>286</ele>
        <time>2013-09-15T15:28:17.000Z</time>
      </trkpt>
      <trkpt lat="45.15165" lon="5.71004">
        <ele>285</ele>
        <time>2013-09-15T15:28:18.000Z</time>
      </trkpt>
      <trkpt lat="45.15172" lon="5.71012">
        <ele>285</ele>
        <time>2013-09-15T15:28:20.000Z</time>
      </trkpt>
      <trkpt lat="45.15179" lon="5.71021">
        <ele>285</ele>
        <time>2013-09-15T15:28:22.000Z</time>
      </trkpt>
      <trkpt lat="45.15183" lon="5.71023">
        <ele>284</ele>
        <time>2013-09-15T15:28:23.000Z</time>
      </trkpt>
      <trkpt lat="45.15188" lon="5.71027">
        <ele>284</ele>
        <time>2013-09-15T15:28:24.000Z</time>
      </trkpt>
      <trkpt lat="45.15192" lon="5.71032">
        <ele>284</ele>
        <time>2013-09-15T15:28:25.000Z</time>
      </trkpt>
      <trkpt lat="45.15196" lon="5.71034">
        <ele>284</ele>
        <time>2013-09-15T15:28:26.000Z</time>
      </trkpt>
      <trkpt lat="45.15201" lon="5.71038">
        <ele>284</ele>
        <time>2013-09-15T15:28:27.000Z</time>
      </trkpt>
      <trkpt lat="45.15205" lon="5.71042">
        <ele>284</ele>
        <time>2013-09-15T15:28:28.000Z</time>
      </trkpt>
      <trkpt lat="45.15209" lon="5.71044">
        <ele>284</ele>
        <time>2013-09-15T15:28:29.000Z</time>
      </trkpt>
      <trkpt lat="45.15212" lon="5.71049">
        <ele>284</ele>
        <time>2013-09-15T15:28:30.000Z</time>
      </trkpt>
      <trkpt lat="45.15217" lon="5.71051">
        <ele>284</ele>
        <time>2013-09-15T15:28:31.000Z</time>
      </trkpt>
      <trkpt lat="45.15221" lon="5.71055">
        <ele>285</ele>
        <time>2013-09-15T15:28:32.000Z</time>
      </trkpt>
      <trkpt lat="45.15228" lon="5.71059">
        <ele>285</ele>
        <time>2013-09-15T15:28:34.000Z</time>
      </trkpt>
      <trkpt lat="45.15233" lon="5.71064">
        <ele>285</ele>
        <time>2013-09-15T15:28:35.000Z</time>
      </trkpt>
      <trkpt lat="45.15237" lon="5.71066">
        <ele>285</ele>
        <time>2013-09-15T15:28:36.000Z</time>
      </trkpt>
      <trkpt lat="45.15241" lon="5.7107">
        <ele>285</ele>
        <time>2013-09-15T15:28:37.000Z</time>
      </trkpt>
      <trkpt lat="45.15246" lon="5.71072">
        <ele>285</ele>
        <time>2013-09-15T15:28:38.000Z</time>
      </trkpt>
      <trkpt lat="45.1525" lon="5.71077">
        <ele>285</ele>
        <time>2013-09-15T15:28:39.000Z</time>
      </trkpt>
      <trkpt lat="45.15254" lon="5.71081">
        <ele>285</ele>
        <time>2013-09-15T15:28:40.000Z</time>
      </trkpt>
      <trkpt lat="45.15262" lon="5.7109">
        <ele>284</ele>
        <time>2013-09-15T15:28:42.000Z</time>
      </trkpt>
      <trkpt lat="45.15266" lon="5.71094">
        <ele>284</ele>
        <time>2013-09-15T15:28:43.000Z</time>
      </trkpt>
      <trkpt lat="45.15269" lon="5.71098">
        <ele>284</ele>
        <time>2013-09-15T15:28:44.000Z</time>
      </trkpt>
      <trkpt lat="45.15274" lon="5.71102">
        <ele>284</ele>
        <time>2013-09-15T15:28:45.000Z</time>
      </trkpt>
      <trkpt lat="45.15281" lon="5.71111">
        <ele>284</ele>
        <time>2013-09-15T15:28:47.000Z</time>
      </trkpt>
      <trkpt lat="45.15288" lon="5.71117">
        <ele>285</ele>
        <time>2013-09-15T15:28:49.000Z</time>
      </trkpt>
      <trkpt lat="45.15293" lon="5.71122">
        <ele>285</ele>
        <time>2013-09-15T15:28:50.000Z</time>
      </trkpt>
      <trkpt lat="45.15296" lon="5.71126">
        <ele>285</ele>
        <time>2013-09-15T15:28:51.000Z</time>
      </trkpt>
      <trkpt lat="45.153" lon="5.7113">
        <ele>285</ele>
        <time>2013-09-15T15:28:52.000Z</time>
      </trkpt>
      <trkpt lat="45.15304" lon="5.71134">
        <ele>285</ele>
        <time>2013-09-15T15:28:53.000Z</time>
      </trkpt>
      <trkpt lat="45.15308" lon="5.71139">
        <ele>285</ele>
        <time>2013-09-15T15:28:54.000Z</time>
      </trkpt>
      <trkpt lat="45.15311" lon="5.71145">
        <ele>284</ele>
        <time>2013-09-15T15:28:55.000Z</time>
      </trkpt>
      <trkpt lat="45.15315" lon="5.71147">
        <ele>284</ele>
        <time>2013-09-15T15:28:56.000Z</time>
      </trkpt>
      <trkpt lat="45.15323" lon="5.71156">
        <ele>284</ele>
        <time>2013-09-15T15:28:58.000Z</time>
      </trkpt>
      <trkpt lat="45.1533" lon="5.71165">
        <ele>284</ele>
        <time>2013-09-15T15:29:00.000Z</time>
      </trkpt>
      <trkpt lat="45.15335" lon="5.71169">
        <ele>284</ele>
        <time>2013-09-15T15:29:01.000Z</time>
      </trkpt>
      <trkpt lat="45.15342" lon="5.71175">
        <ele>284</ele>
        <time>2013-09-15T15:29:03.000Z</time>
      </trkpt>
      <trkpt lat="45.15349" lon="5.71182">
        <ele>284</ele>
        <time>2013-09-15T15:29:05.000Z</time>
      </trkpt>
      <trkpt lat="45.15352" lon="5.71186">
        <ele>284</ele>
        <time>2013-09-15T15:29:06.000Z</time>
      </trkpt>
      <trkpt lat="45.15358" lon="5.71192">
        <ele>284</ele>
        <time>2013-09-15T15:29:08.000Z</time>
      </trkpt>
      <trkpt lat="45.15365" lon="5.71199">
        <ele>283</ele>
        <time>2013-09-15T15:29:10.000Z</time>
      </trkpt>
      <trkpt lat="45.15372" lon="5.71205">
        <ele>284</ele>
        <time>2013-09-15T15:29:12.000Z</time>
      </trkpt>
      <trkpt lat="45.15379" lon="5.7121">
        <ele>284</ele>
        <time>2013-09-15T15:29:14.000Z</time>
      </trkpt>
      <trkpt lat="45.15383" lon="5.71212">
        <ele>284</ele>
        <time>2013-09-15T15:29:15.000Z</time>
      </trkpt>
      <trkpt lat="45.15387" lon="5.71216">
        <ele>285</ele>
        <time>2013-09-15T15:29:16.000Z</time>
      </trkpt>
      <trkpt lat="45.15392" lon="5.71218">
        <ele>285</ele>
        <time>2013-09-15T15:29:17.000Z</time>
      </trkpt>
      <trkpt lat="45.15399" lon="5.71222">
        <ele>285</ele>
        <time>2013-09-15T15:29:19.000Z</time>
      </trkpt>
      <trkpt lat="45.15403" lon="5.71225">
        <ele>285</ele>
        <time>2013-09-15T15:29:20.000Z</time>
      </trkpt>
      <trkpt lat="45.15408" lon="5.71227">
        <ele>285</ele>
        <time>2013-09-15T15:29:21.000Z</time>
      </trkpt>
      <trkpt lat="45.15413" lon="5.71229">
        <ele>285</ele>
        <time>2013-09-15T15:29:22.000Z</time>
      </trkpt>
      <trkpt lat="45.15417" lon="5.71231">
        <ele>285</ele>
        <time>2013-09-15T15:29:23.000Z</time>
      </trkpt>
      <trkpt lat="45.15422" lon="5.71233">
        <ele>285</ele>
        <time>2013-09-15T15:29:24.000Z</time>
      </trkpt>
      <trkpt lat="45.15427" lon="5.71233">
        <ele>285</ele>
        <time>2013-09-15T15:29:25.000Z</time>
      </trkpt>
      <trkpt lat="45.15431" lon="5.71235">
        <ele>285</ele>
        <time>2013-09-15T15:29:26.000Z</time>
      </trkpt>
      <trkpt lat="45.15436" lon="5.71238">
        <ele>285</ele>
        <time>2013-09-15T15:29:27.000Z</time>
      </trkpt>
      <trkpt lat="45.15441" lon="5.71238">
        <ele>284</ele>
        <time>2013-09-15T15:29:28.000Z</time>
      </trkpt>
      <trkpt lat="45.15445" lon="5.7124">
        <ele>284</ele>
        <time>2013-09-15T15:29:29.000Z</time>
      </trkpt>
      <trkpt lat="45.15454" lon="5.71242">
        <ele>284</ele>
        <time>2013-09-15T15:29:31.000Z</time>
      </trkpt>
      <trkpt lat="45.15458" lon="5.71244">
        <ele>284</ele>
        <time>2013-09-15T15:29:32.000Z</time>
      </trkpt>
      <trkpt lat="45.15467" lon="5.71246">
        <ele>284</ele>
        <time>2013-09-15T15:29:34.000Z</time>
      </trkpt>
      <trkpt lat="45.15475" lon="5.71248">
        <ele>285</ele>
        <time>2013-09-15T15:29:36.000Z</time>
      </trkpt>
      <trkpt lat="45.1548" lon="5.7125">
        <ele>285</ele>
        <time>2013-09-15T15:29:37.000Z</time>
      </trkpt>
      <trkpt lat="45.15487" lon="5.71252">
        <ele>285</ele>
        <time>2013-09-15T15:29:39.000Z</time>
      </trkpt>
      <trkpt lat="45.15491" lon="5.71255">
        <ele>285</ele>
        <time>2013-09-15T15:29:40.000Z</time>
      </trkpt>
      <trkpt lat="45.15498" lon="5.71257">
        <ele>285</ele>
        <time>2013-09-15T15:29:42.000Z</time>
      </trkpt>
      <trkpt lat="45.15502" lon="5.71259">
        <ele>285</ele>
        <time>2013-09-15T15:29:43.000Z</time>
      </trkpt>
      <trkpt lat="45.15508" lon="5.71261">
        <ele>285</ele>
        <time>2013-09-15T15:29:45.000Z</time>
      </trkpt>
      <trkpt lat="45.15515" lon="5.71263">
        <ele>285</ele>
        <time>2013-09-15T15:29:47.000Z</time>
      </trkpt>
      <trkpt lat="45.15519" lon="5.71265">
        <ele>285</ele>
        <time>2013-09-15T15:29:48.000Z</time>
      </trkpt>
      <trkpt lat="45.15527" lon="5.71265">
        <ele>285</ele>
        <time>2013-09-15T15:29:50.000Z</time>
      </trkpt>
      <trkpt lat="45.15534" lon="5.71268">
        <ele>285</ele>
        <time>2013-09-15T15:29:52.000Z</time>
      </trkpt>
      <trkpt lat="45.15542" lon="5.7127">
        <ele>285</ele>
        <time>2013-09-15T15:29:54.000Z</time>
      </trkpt>
      <trkpt lat="45.15549" lon="5.71272">
        <ele>285</ele>
        <time>2013-09-15T15:29:56.000Z</time>
      </trkpt>
      <trkpt lat="45.15557" lon="5.71274">
        <ele>284</ele>
        <time>2013-09-15T15:29:58.000Z</time>
      </trkpt>
      <trkpt lat="45.15561" lon="5.71276">
        <ele>284</ele>
        <time>2013-09-15T15:29:59.000Z</time>
      </trkpt>
      <trkpt lat="45.1557" lon="5.71276">
        <ele>284</ele>
        <time>2013-09-15T15:30:01.000Z</time>
      </trkpt>
      <trkpt lat="45.15576" lon="5.7128">
        <ele>284</ele>
        <time>2013-09-15T15:30:03.000Z</time>
      </trkpt>
      <trkpt lat="45.15582" lon="5.71283">
        <ele>284</ele>
        <time>2013-09-15T15:30:05.000Z</time>
      </trkpt>
      <trkpt lat="45.1559" lon="5.71287">
        <ele>285</ele>
        <time>2013-09-15T15:30:07.000Z</time>
      </trkpt>
      <trkpt lat="45.15599" lon="5.71289">
        <ele>285</ele>
        <time>2013-09-15T15:30:09.000Z</time>
      </trkpt>
      <trkpt lat="45.15606" lon="5.71289">
        <ele>285</ele>
        <time>2013-09-15T15:30:11.000Z</time>
      </trkpt>
      <trkpt lat="45.15613" lon="5.71289">
        <ele>285</ele>
        <time>2013-09-15T15:30:13.000Z</time>
      </trkpt>
      <trkpt lat="45.1562" lon="5.71291">
        <ele>285</ele>
        <time>2013-09-15T15:30:15.000Z</time>
      </trkpt>
      <trkpt lat="45.15628" lon="5.71291">
        <ele>285</ele>
        <time>2013-09-15T15:30:17.000Z</time>
      </trkpt>
      <trkpt lat="45.15635" lon="5.71293">
        <ele>285</ele>
        <time>2013-09-15T15:30:19.000Z</time>
      </trkpt>
      <trkpt lat="45.15644" lon="5.71293">
        <ele>285</ele>
        <time>2013-09-15T15:30:21.000Z</time>
      </trkpt>
      <trkpt lat="45.1565" lon="5.71295">
        <ele>285</ele>
        <time>2013-09-15T15:30:23.000Z</time>
      </trkpt>
      <trkpt lat="45.15654" lon="5.71298">
        <ele>285</ele>
        <time>2013-09-15T15:30:24.000Z</time>
      </trkpt>
      <trkpt lat="45.15661" lon="5.71298">
        <ele>285</ele>
        <time>2013-09-15T15:30:26.000Z</time>
      </trkpt>
      <trkpt lat="45.15665" lon="5.713">
        <ele>285</ele>
        <time>2013-09-15T15:30:27.000Z</time>
      </trkpt>
      <trkpt lat="45.15673" lon="5.71302">
        <ele>285</ele>
        <time>2013-09-15T15:30:29.000Z</time>
      </trkpt>
      <trkpt lat="45.15679" lon="5.71304">
        <ele>285</ele>
        <time>2013-09-15T15:30:31.000Z</time>
      </trkpt>
      <trkpt lat="45.15687" lon="5.71306">
        <ele>285</ele>
        <time>2013-09-15T15:30:33.000Z</time>
      </trkpt>
      <trkpt lat="45.15693" lon="5.71308">
        <ele>285</ele>
        <time>2013-09-15T15:30:35.000Z</time>
      </trkpt>
      <trkpt lat="45.157" lon="5.7131">
        <ele>285</ele>
        <time>2013-09-15T15:30:37.000Z</time>
      </trkpt>
      <trkpt lat="45.15708" lon="5.71313">
        <ele>285</ele>
        <time>2013-09-15T15:30:39.000Z</time>
      </trkpt>
      <trkpt lat="45.15716" lon="5.71313">
        <ele>285</ele>
        <time>2013-09-15T15:30:41.000Z</time>
      </trkpt>
      <trkpt lat="45.15723" lon="5.71315">
        <ele>285</ele>
        <time>2013-09-15T15:30:43.000Z</time>
      </trkpt>
      <trkpt lat="45.15731" lon="5.71317">
        <ele>285</ele>
        <time>2013-09-15T15:30:45.000Z</time>
      </trkpt>
      <trkpt lat="45.15738" lon="5.71319">
        <ele>285</ele>
        <time>2013-09-15T15:30:47.000Z</time>
      </trkpt>
      <trkpt lat="45.15746" lon="5.71321">
        <ele>285</ele>
        <time>2013-09-15T15:30:49.000Z</time>
      </trkpt>
      <trkpt lat="45.1575" lon="5.71323">
        <ele>285</ele>
        <time>2013-09-15T15:30:50.000Z</time>
      </trkpt>
      <trkpt lat="45.15758" lon="5.71326">
        <ele>285</ele>
        <time>2013-09-15T15:30:52.000Z</time>
      </trkpt>
      <trkpt lat="45.15768" lon="5.71328">
        <ele>285</ele>
        <time>2013-09-15T15:30:54.000Z</time>
      </trkpt>
      <trkpt lat="45.15772" lon="5.7133">
        <ele>285</ele>
        <time>2013-09-15T15:30:55.000Z</time>
      </trkpt>
      <trkpt lat="45.15778" lon="5.71332">
        <ele>285</ele>
        <time>2013-09-15T15:30:56.000Z</time>
      </trkpt>
      <trkpt lat="45.15783" lon="5.71332">
        <ele>285</ele>
        <time>2013-09-15T15:30:57.000Z</time>
      </trkpt>
      <trkpt lat="45.15788" lon="5.71334">
        <ele>285</ele>
        <time>2013-09-15T15:30:58.000Z</time>
      </trkpt>
      <trkpt lat="45.15794" lon="5.71336">
        <ele>285</ele>
        <time>2013-09-15T15:30:59.000Z</time>
      </trkpt>
      <trkpt lat="45.15799" lon="5.71338">
        <ele>285</ele>
        <time>2013-09-15T15:31:00.000Z</time>
      </trkpt>
      <trkpt lat="45.15805" lon="5.71338">
        <ele>285</ele>
        <time>2013-09-15T15:31:01.000Z</time>
      </trkpt>
      <trkpt lat="45.15811" lon="5.7134">
        <ele>285</ele>
        <time>2013-09-15T15:31:02.000Z</time>
      </trkpt>
      <trkpt lat="45.15816" lon="5.71343">
        <ele>285</ele>
        <time>2013-09-15T15:31:03.000Z</time>
      </trkpt>
      <trkpt lat="45.15822" lon="5.71345">
        <ele>285</ele>
        <time>2013-09-15T15:31:04.000Z</time>
      </trkpt>
      <trkpt lat="45.15828" lon="5.71347">
        <ele>285</ele>
        <time>2013-09-15T15:31:05.000Z</time>
      </trkpt>
      <trkpt lat="45.15835" lon="5.71349">
        <ele>285</ele>
        <time>2013-09-15T15:31:06.000Z</time>
      </trkpt>
      <trkpt lat="45.1584" lon="5.71351">
        <ele>285</ele>
        <time>2013-09-15T15:31:07.000Z</time>
      </trkpt>
      <trkpt lat="45.15845" lon="5.71353">
        <ele>286</ele>
        <time>2013-09-15T15:31:08.000Z</time>
      </trkpt>
      <trkpt lat="45.15852" lon="5.71356">
        <ele>286</ele>
        <time>2013-09-15T15:31:10.000Z</time>
      </trkpt>
      <trkpt lat="45.15857" lon="5.71358">
        <ele>285</ele>
        <time>2013-09-15T15:31:14.000Z</time>
      </trkpt>
      <trkpt lat="45.15862" lon="5.7136">
        <ele>285</ele>
        <time>2013-09-15T15:31:17.000Z</time>
      </trkpt>
      <trkpt lat="45.15866" lon="5.71366">
        <ele>285</ele>
        <time>2013-09-15T15:31:19.000Z</time>
      </trkpt>
      <trkpt lat="45.15873" lon="5.71368">
        <ele>285</ele>
        <time>2013-09-15T15:31:21.000Z</time>
      </trkpt>
      <trkpt lat="45.15878" lon="5.71371">
        <ele>284</ele>
        <time>2013-09-15T15:31:22.000Z</time>
      </trkpt>
      <trkpt lat="45.15886" lon="5.71373">
        <ele>284</ele>
        <time>2013-09-15T15:31:24.000Z</time>
      </trkpt>
      <trkpt lat="45.1589" lon="5.71375">
        <ele>284</ele>
        <time>2013-09-15T15:31:25.000Z</time>
      </trkpt>
      <trkpt lat="45.15895" lon="5.71377">
        <ele>283</ele>
        <time>2013-09-15T15:31:26.000Z</time>
      </trkpt>
      <trkpt lat="45.159" lon="5.71377">
        <ele>283</ele>
        <time>2013-09-15T15:31:27.000Z</time>
      </trkpt>
      <trkpt lat="45.15904" lon="5.71379">
        <ele>283</ele>
        <time>2013-09-15T15:31:28.000Z</time>
      </trkpt>
      <trkpt lat="45.15909" lon="5.71381">
        <ele>283</ele>
        <time>2013-09-15T15:31:29.000Z</time>
      </trkpt>
      <trkpt lat="45.15918" lon="5.71383">
        <ele>283</ele>
        <time>2013-09-15T15:31:31.000Z</time>
      </trkpt>
      <trkpt lat="45.15923" lon="5.71386">
        <ele>283</ele>
        <time>2013-09-15T15:31:32.000Z</time>
      </trkpt>
      <trkpt lat="45.1593" lon="5.71388">
        <ele>283</ele>
        <time>2013-09-15T15:31:34.000Z</time>
      </trkpt>
      <trkpt lat="45.15938" lon="5.7139">
        <ele>283</ele>
        <time>2013-09-15T15:31:36.000Z</time>
      </trkpt>
      <trkpt lat="45.15945" lon="5.71392">
        <ele>283</ele>
        <time>2013-09-15T15:31:38.000Z</time>
      </trkpt>
      <trkpt lat="45.15952" lon="5.71396">
        <ele>283</ele>
        <time>2013-09-15T15:31:40.000Z</time>
      </trkpt>
      <trkpt lat="45.15956" lon="5.71398">
        <ele>283</ele>
        <time>2013-09-15T15:31:41.000Z</time>
      </trkpt>
      <trkpt lat="45.1596" lon="5.71401">
        <ele>283</ele>
        <time>2013-09-15T15:31:42.000Z</time>
      </trkpt>
      <trkpt lat="45.15964" lon="5.71403">
        <ele>283</ele>
        <time>2013-09-15T15:31:43.000Z</time>
      </trkpt>
      <trkpt lat="45.15972" lon="5.71409">
        <ele>284</ele>
        <time>2013-09-15T15:31:45.000Z</time>
      </trkpt>
      <trkpt lat="45.15976" lon="5.71411">
        <ele>284</ele>
        <time>2013-09-15T15:31:46.000Z</time>
      </trkpt>
      <trkpt lat="45.15981" lon="5.71414">
        <ele>284</ele>
        <time>2013-09-15T15:31:47.000Z</time>
      </trkpt>
      <trkpt lat="45.15985" lon="5.71418">
        <ele>284</ele>
        <time>2013-09-15T15:31:48.000Z</time>
      </trkpt>
      <trkpt lat="45.15992" lon="5.71424">
        <ele>283</ele>
        <time>2013-09-15T15:31:50.000Z</time>
      </trkpt>
      <trkpt lat="45.15997" lon="5.71428">
        <ele>283</ele>
        <time>2013-09-15T15:31:51.000Z</time>
      </trkpt>
      <trkpt lat="45.16004" lon="5.71435">
        <ele>283</ele>
        <time>2013-09-15T15:31:53.000Z</time>
      </trkpt>
      <trkpt lat="45.16008" lon="5.71439">
        <ele>283</ele>
        <time>2013-09-15T15:31:54.000Z</time>
      </trkpt>
      <trkpt lat="45.16016" lon="5.71446">
        <ele>283</ele>
        <time>2013-09-15T15:31:56.000Z</time>
      </trkpt>
      <trkpt lat="45.1602" lon="5.7145">
        <ele>283</ele>
        <time>2013-09-15T15:31:57.000Z</time>
      </trkpt>
      <trkpt lat="45.16024" lon="5.71452">
        <ele>283</ele>
        <time>2013-09-15T15:31:58.000Z</time>
      </trkpt>
      <trkpt lat="45.16029" lon="5.71456">
        <ele>283</ele>
        <time>2013-09-15T15:31:59.000Z</time>
      </trkpt>
      <trkpt lat="45.16032" lon="5.71461">
        <ele>283</ele>
        <time>2013-09-15T15:32:00.000Z</time>
      </trkpt>
      <trkpt lat="45.16036" lon="5.71463">
        <ele>283</ele>
        <time>2013-09-15T15:32:01.000Z</time>
      </trkpt>
      <trkpt lat="45.16041" lon="5.71467">
        <ele>283</ele>
        <time>2013-09-15T15:32:02.000Z</time>
      </trkpt>
      <trkpt lat="45.16048" lon="5.71474">
        <ele>283</ele>
        <time>2013-09-15T15:32:04.000Z</time>
      </trkpt>
      <trkpt lat="45.16052" lon="5.71478">
        <ele>283</ele>
        <time>2013-09-15T15:32:05.000Z</time>
      </trkpt>
      <trkpt lat="45.1606" lon="5.71484">
        <ele>283</ele>
        <time>2013-09-15T15:32:07.000Z</time>
      </trkpt>
      <trkpt lat="45.16068" lon="5.71491">
        <ele>282</ele>
        <time>2013-09-15T15:32:09.000Z</time>
      </trkpt>
      <trkpt lat="45.16075" lon="5.71497">
        <ele>282</ele>
        <time>2013-09-15T15:32:11.000Z</time>
      </trkpt>
      <trkpt lat="45.16079" lon="5.71499">
        <ele>282</ele>
        <time>2013-09-15T15:32:12.000Z</time>
      </trkpt>
      <trkpt lat="45.16087" lon="5.71506">
        <ele>282</ele>
        <time>2013-09-15T15:32:14.000Z</time>
      </trkpt>
      <trkpt lat="45.16094" lon="5.71512">
        <ele>282</ele>
        <time>2013-09-15T15:32:16.000Z</time>
      </trkpt>
      <trkpt lat="45.16099" lon="5.71514">
        <ele>282</ele>
        <time>2013-09-15T15:32:17.000Z</time>
      </trkpt>
      <trkpt lat="45.16105" lon="5.71521">
        <ele>281</ele>
        <time>2013-09-15T15:32:19.000Z</time>
      </trkpt>
      <trkpt lat="45.16109" lon="5.71525">
        <ele>281</ele>
        <time>2013-09-15T15:32:20.000Z</time>
      </trkpt>
      <trkpt lat="45.16112" lon="5.71529">
        <ele>281</ele>
        <time>2013-09-15T15:32:21.000Z</time>
      </trkpt>
      <trkpt lat="45.16117" lon="5.71534">
        <ele>281</ele>
        <time>2013-09-15T15:32:22.000Z</time>
      </trkpt>
      <trkpt lat="45.16124" lon="5.7154">
        <ele>281</ele>
        <time>2013-09-15T15:32:24.000Z</time>
      </trkpt>
      <trkpt lat="45.16132" lon="5.71549">
        <ele>281</ele>
        <time>2013-09-15T15:32:26.000Z</time>
      </trkpt>
      <trkpt lat="45.16139" lon="5.71555">
        <ele>280</ele>
        <time>2013-09-15T15:32:28.000Z</time>
      </trkpt>
      <trkpt lat="45.16146" lon="5.71559">
        <ele>280</ele>
        <time>2013-09-15T15:32:30.000Z</time>
      </trkpt>
      <trkpt lat="45.1615" lon="5.71562">
        <ele>280</ele>
        <time>2013-09-15T15:32:31.000Z</time>
      </trkpt>
      <trkpt lat="45.16156" lon="5.71568">
        <ele>280</ele>
        <time>2013-09-15T15:32:33.000Z</time>
      </trkpt>
      <trkpt lat="45.16161" lon="5.71572">
        <ele>280</ele>
        <time>2013-09-15T15:32:36.000Z</time>
      </trkpt>
      <trkpt lat="45.16161" lon="5.71572">
        <ele>280</ele>
        <time>2013-09-15T15:32:36.000Z</time>
      </trkpt>
      <trkpt lat="45.16161" lon="5.71572">
        <ele>280</ele>
        <time>2013-09-15T15:32:50.000Z</time>
      </trkpt>
      <trkpt lat="45.16163" lon="5.71583">
        <ele>281</ele>
        <time>2013-09-15T15:32:53.000Z</time>
      </trkpt>
      <trkpt lat="45.16167" lon="5.71587">
        <ele>280</ele>
        <time>2013-09-15T15:32:57.000Z</time>
      </trkpt>
      <trkpt lat="45.16167" lon="5.71587">
        <ele>280</ele>
        <time>2013-09-15T15:32:57.000Z</time>
      </trkpt>
      <trkpt lat="45.16167" lon="5.71587">
        <ele>280</ele>
        <time>2013-09-15T15:33:00.000Z</time>
      </trkpt>
      <trkpt lat="45.16173" lon="5.71594">
        <ele>280</ele>
        <time>2013-09-15T15:33:03.000Z</time>
      </trkpt>
      <trkpt lat="45.16177" lon="5.71598">
        <ele>280</ele>
        <time>2013-09-15T15:33:05.000Z</time>
      </trkpt>
      <trkpt lat="45.16181" lon="5.71602">
        <ele>280</ele>
        <time>2013-09-15T15:33:07.000Z</time>
      </trkpt>
      <trkpt lat="45.16177" lon="5.71611">
        <ele>280</ele>
        <time>2013-09-15T15:33:10.000Z</time>
      </trkpt>
      <trkpt lat="45.16174" lon="5.71617">
        <ele>280</ele>
        <time>2013-09-15T15:33:12.000Z</time>
      </trkpt>
      <trkpt lat="45.16172" lon="5.71626">
        <ele>280</ele>
        <time>2013-09-15T15:33:14.000Z</time>
      </trkpt>
      <trkpt lat="45.16167" lon="5.71634">
        <ele>280</ele>
        <time>2013-09-15T15:33:16.000Z</time>
      </trkpt>
      <trkpt lat="45.16164" lon="5.71643">
        <ele>280</ele>
        <time>2013-09-15T15:33:18.000Z</time>
      </trkpt>
      <trkpt lat="45.16161" lon="5.7165">
        <ele>280</ele>
        <time>2013-09-15T15:33:20.000Z</time>
      </trkpt>
      <trkpt lat="45.1616" lon="5.71656">
        <ele>280</ele>
        <time>2013-09-15T15:33:23.000Z</time>
      </trkpt>
      <trkpt lat="45.16161" lon="5.71662">
        <ele>281</ele>
        <time>2013-09-15T15:33:25.000Z</time>
      </trkpt>
      <trkpt lat="45.16162" lon="5.71669">
        <ele>281</ele>
        <time>2013-09-15T15:33:27.000Z</time>
      </trkpt>
      <trkpt lat="45.16164" lon="5.71675">
        <ele>281</ele>
        <time>2013-09-15T15:33:29.000Z</time>
      </trkpt>
      <trkpt lat="45.16164" lon="5.71682">
        <ele>281</ele>
        <time>2013-09-15T15:33:31.000Z</time>
      </trkpt>
      <trkpt lat="45.16162" lon="5.71688">
        <ele>281</ele>
        <time>2013-09-15T15:33:33.000Z</time>
      </trkpt>
      <trkpt lat="45.16162" lon="5.71688">
        <ele>281</ele>
        <time>2013-09-15T15:33:33.000Z</time>
      </trkpt>
      <trkpt lat="45.16162" lon="5.71688">
        <ele>281</ele>
        <time>2013-09-15T15:33:35.000Z</time>
      </trkpt>
      <trkpt lat="45.16159" lon="5.71695">
        <ele>281</ele>
        <time>2013-09-15T15:33:36.000Z</time>
      </trkpt>
      <trkpt lat="45.16159" lon="5.71695">
        <ele>281</ele>
        <time>2013-09-15T15:33:36.000Z</time>
      </trkpt>
      <trkpt lat="45.16159" lon="5.71695">
        <ele>281</ele>
        <time>2013-09-15T15:33:38.000Z</time>
      </trkpt>
      <trkpt lat="45.16154" lon="5.71701">
        <ele>281</ele>
        <time>2013-09-15T15:33:39.000Z</time>
      </trkpt>
      <trkpt lat="45.16154" lon="5.71701">
        <ele>281</ele>
        <time>2013-09-15T15:33:39.000Z</time>
      </trkpt>
      <trkpt lat="45.16154" lon="5.71701">
        <ele>281</ele>
        <time>2013-09-15T15:33:41.000Z</time>
      </trkpt>
      <trkpt lat="45.16156" lon="5.71707">
        <ele>281</ele>
        <time>2013-09-15T15:33:42.000Z</time>
      </trkpt>
      <trkpt lat="45.16156" lon="5.71707">
        <ele>281</ele>
        <time>2013-09-15T15:33:42.000Z</time>
      </trkpt>
      <trkpt lat="45.16156" lon="5.71707">
        <ele>281</ele>
        <time>2013-09-15T15:35:31.000Z</time>
      </trkpt>
      <trkpt lat="45.16162" lon="5.71712">
        <ele>277</ele>
        <time>2013-09-15T15:35:34.000Z</time>
      </trkpt>
      <trkpt lat="45.16162" lon="5.71712">
        <ele>277</ele>
        <time>2013-09-15T15:35:34.000Z</time>
      </trkpt>
      <trkpt lat="45.16162" lon="5.71712">
        <ele>277</ele>
        <time>2013-09-15T15:35:35.000Z</time>
      </trkpt>
      <trkpt lat="45.16166" lon="5.71718">
        <ele>277</ele>
        <time>2013-09-15T15:35:40.000Z</time>
      </trkpt>
      <trkpt lat="45.16166" lon="5.71725">
        <ele>277</ele>
        <time>2013-09-15T15:35:43.000Z</time>
      </trkpt>
      <trkpt lat="45.16166" lon="5.71725">
        <ele>277</ele>
        <time>2013-09-15T15:35:43.000Z</time>
      </trkpt>
      <trkpt lat="45.16166" lon="5.71725">
        <ele>277</ele>
        <time>2013-09-15T15:35:44.000Z</time>
      </trkpt>
      <trkpt lat="45.16165" lon="5.71731">
        <ele>277</ele>
        <time>2013-09-15T15:35:48.000Z</time>
      </trkpt>
      <trkpt lat="45.16165" lon="5.71731">
        <ele>277</ele>
        <time>2013-09-15T15:35:48.000Z</time>
      </trkpt>
      <trkpt lat="45.16165" lon="5.71731">
        <ele>276</ele>
        <time>2013-09-15T15:35:58.000Z</time>
      </trkpt>
      <trkpt lat="45.16169" lon="5.71725">
        <ele>275</ele>
        <time>2013-09-15T15:36:15.000Z</time>
      </trkpt>
      <trkpt lat="45.16169" lon="5.71725">
        <ele>275</ele>
        <time>2013-09-15T15:36:15.000Z</time>
      </trkpt>
      <trkpt lat="45.16169" lon="5.71725">
        <ele>275</ele>
        <time>2013-09-15T15:36:16.000Z</time>
      </trkpt>
      <trkpt lat="45.16172" lon="5.71718">
        <ele>275</ele>
        <time>2013-09-15T15:36:21.000Z</time>
      </trkpt>
      <trkpt lat="45.16175" lon="5.71712">
        <ele>275</ele>
        <time>2013-09-15T15:36:29.000Z</time>
      </trkpt>
      <trkpt lat="45.16179" lon="5.71714">
        <ele>274</ele>
        <time>2013-09-15T15:36:46.000Z</time>
      </trkpt>
      <trkpt lat="45.16179" lon="5.71714">
        <ele>274</ele>
        <time>2013-09-15T15:36:46.000Z</time>
      </trkpt>
      <trkpt lat="45.16179" lon="5.71714">
        <ele>274</ele>
        <time>2013-09-15T15:36:48.000Z</time>
      </trkpt>
      <trkpt lat="45.16178" lon="5.7172">
        <ele>272</ele>
        <time>2013-09-15T15:37:43.000Z</time>
      </trkpt>
      <trkpt lat="45.16178" lon="5.7172">
        <ele>272</ele>
        <time>2013-09-15T15:37:43.000Z</time>
      </trkpt>
      <trkpt lat="45.16178" lon="5.7172">
        <ele>272</ele>
        <time>2013-09-15T15:37:44.000Z</time>
      </trkpt>
      <trkpt lat="45.1618" lon="5.71727">
        <ele>271</ele>
        <time>2013-09-15T15:37:52.000Z</time>
      </trkpt>
      <trkpt lat="45.1618" lon="5.71727">
        <ele>271</ele>
        <time>2013-09-15T15:37:52.000Z</time>
      </trkpt>
      <trkpt lat="45.1618" lon="5.71727">
        <ele>271</ele>
        <time>2013-09-15T15:37:58.000Z</time>
      </trkpt>
      <trkpt lat="45.16176" lon="5.71731">
        <ele>270</ele>
        <time>2013-09-15T15:38:09.000Z</time>
      </trkpt>
      <trkpt lat="45.16176" lon="5.71731">
        <ele>270</ele>
        <time>2013-09-15T15:38:09.000Z</time>
      </trkpt>
      <trkpt lat="45.16176" lon="5.71731">
        <ele>270</ele>
        <time>2013-09-15T15:38:10.000Z</time>
      </trkpt>
      <trkpt lat="45.16174" lon="5.71725">
        <ele>270</ele>
        <time>2013-09-15T15:38:22.000Z</time>
      </trkpt>
      <trkpt lat="45.16178" lon="5.71727">
        <ele>268</ele>
        <time>2013-09-15T15:38:36.000Z</time>
      </trkpt>
      <trkpt lat="45.16178" lon="5.71727">
        <ele>268</ele>
        <time>2013-09-15T15:38:36.000Z</time>
      </trkpt>
      <trkpt lat="45.16178" lon="5.71727">
        <ele>268</ele>
        <time>2013-09-15T15:38:37.000Z</time>
      </trkpt>
      <trkpt lat="45.16177" lon="5.7172">
        <ele>268</ele>
        <time>2013-09-15T15:39:21.000Z</time>
      </trkpt>
      <trkpt lat="45.16177" lon="5.7172">
        <ele>268</ele>
        <time>2013-09-15T15:39:21.000Z</time>
      </trkpt>
      <trkpt lat="45.16177" lon="5.7172">
        <ele>268</ele>
        <time>2013-09-15T15:39:27.000Z</time>
      </trkpt>
      <trkpt lat="45.16181" lon="5.71718">
        <ele>268</ele>
        <time>2013-09-15T15:39:51.000Z</time>
      </trkpt>
      <trkpt lat="45.16181" lon="5.71718">
        <ele>268</ele>
        <time>2013-09-15T15:39:51.000Z</time>
      </trkpt>
      <trkpt lat="45.16181" lon="5.71718">
        <ele>268</ele>
        <time>2013-09-15T15:39:53.000Z</time>
      </trkpt>
      <trkpt lat="45.16181" lon="5.71725">
        <ele>268</ele>
        <time>2013-09-15T15:40:07.000Z</time>
      </trkpt>
      <trkpt lat="45.16181" lon="5.71725">
        <ele>268</ele>
        <time>2013-09-15T15:40:07.000Z</time>
      </trkpt>
      <trkpt lat="45.16181" lon="5.71725">
        <ele>267</ele>
        <time>2013-09-15T15:40:49.000Z</time>
      </trkpt>
      <trkpt lat="45.16186" lon="5.71722">
        <ele>267</ele>
        <time>2013-09-15T15:40:58.000Z</time>
      </trkpt>
      <trkpt lat="45.16186" lon="5.71722">
        <ele>267</ele>
        <time>2013-09-15T15:40:58.000Z</time>
      </trkpt>
      <trkpt lat="45.16186" lon="5.71722">
        <ele>267</ele>
        <time>2013-09-15T15:41:02.000Z</time>
      </trkpt>
      <trkpt lat="45.16181" lon="5.71725">
        <ele>267</ele>
        <time>2013-09-15T15:41:08.000Z</time>
      </trkpt>
      <trkpt lat="45.16186" lon="5.71714">
        <ele>269</ele>
        <time>2013-09-15T15:41:17.000Z</time>
      </trkpt>
      <trkpt lat="45.16186" lon="5.71707">
        <ele>269</ele>
        <time>2013-09-15T15:41:18.000Z</time>
      </trkpt>
      <trkpt lat="45.16184" lon="5.71701">
        <ele>269</ele>
        <time>2013-09-15T15:41:19.000Z</time>
      </trkpt>
      <trkpt lat="45.16183" lon="5.71695">
        <ele>269</ele>
        <time>2013-09-15T15:41:20.000Z</time>
      </trkpt>
      <trkpt lat="45.1618" lon="5.71686">
        <ele>269</ele>
        <time>2013-09-15T15:41:22.000Z</time>
      </trkpt>
      <trkpt lat="45.16178" lon="5.71675">
        <ele>270</ele>
        <time>2013-09-15T15:41:24.000Z</time>
      </trkpt>
      <trkpt lat="45.16179" lon="5.71667">
        <ele>271</ele>
        <time>2013-09-15T15:41:26.000Z</time>
      </trkpt>
      <trkpt lat="45.16183" lon="5.71652">
        <ele>274</ele>
        <time>2013-09-15T15:41:28.000Z</time>
      </trkpt>
      <trkpt lat="45.16188" lon="5.71643">
        <ele>275</ele>
        <time>2013-09-15T15:41:30.000Z</time>
      </trkpt>
      <trkpt lat="45.16192" lon="5.71632">
        <ele>276</ele>
        <time>2013-09-15T15:41:32.000Z</time>
      </trkpt>
      <trkpt lat="45.16195" lon="5.71624">
        <ele>277</ele>
        <time>2013-09-15T15:41:34.000Z</time>
      </trkpt>
      <trkpt lat="45.16199" lon="5.71622">
        <ele>277</ele>
        <time>2013-09-15T15:41:36.000Z</time>
      </trkpt>
      <trkpt lat="45.16205" lon="5.71622">
        <ele>277</ele>
        <time>2013-09-15T15:41:38.000Z</time>
      </trkpt>
      <trkpt lat="45.1621" lon="5.71624">
        <ele>277</ele>
        <time>2013-09-15T15:41:40.000Z</time>
      </trkpt>
      <trkpt lat="45.16217" lon="5.71628">
        <ele>277</ele>
        <time>2013-09-15T15:41:42.000Z</time>
      </trkpt>
      <trkpt lat="45.16221" lon="5.71634">
        <ele>277</ele>
        <time>2013-09-15T15:41:44.000Z</time>
      </trkpt>
      <trkpt lat="45.16225" lon="5.71639">
        <ele>278</ele>
        <time>2013-09-15T15:41:46.000Z</time>
      </trkpt>
      <trkpt lat="45.16228" lon="5.71645">
        <ele>278</ele>
        <time>2013-09-15T15:41:48.000Z</time>
      </trkpt>
      <trkpt lat="45.16234" lon="5.71652">
        <ele>280</ele>
        <time>2013-09-15T15:41:51.000Z</time>
      </trkpt>
      <trkpt lat="45.16239" lon="5.71658">
        <ele>280</ele>
        <time>2013-09-15T15:41:53.000Z</time>
      </trkpt>
      <trkpt lat="45.16246" lon="5.71664">
        <ele>282</ele>
        <time>2013-09-15T15:41:55.000Z</time>
      </trkpt>
      <trkpt lat="45.16252" lon="5.71669">
        <ele>282</ele>
        <time>2013-09-15T15:41:57.000Z</time>
      </trkpt>
      <trkpt lat="45.16258" lon="5.71675">
        <ele>282</ele>
        <time>2013-09-15T15:41:59.000Z</time>
      </trkpt>
      <trkpt lat="45.16263" lon="5.71677">
        <ele>283</ele>
        <time>2013-09-15T15:42:00.000Z</time>
      </trkpt>
      <trkpt lat="45.16268" lon="5.71682">
        <ele>283</ele>
        <time>2013-09-15T15:42:01.000Z</time>
      </trkpt>
      <trkpt lat="45.16273" lon="5.71684">
        <ele>284</ele>
        <time>2013-09-15T15:42:02.000Z</time>
      </trkpt>
      <trkpt lat="45.1628" lon="5.71688">
        <ele>284</ele>
        <time>2013-09-15T15:42:03.000Z</time>
      </trkpt>
      <trkpt lat="45.16285" lon="5.7169">
        <ele>283</ele>
        <time>2013-09-15T15:42:04.000Z</time>
      </trkpt>
      <trkpt lat="45.16292" lon="5.71695">
        <ele>283</ele>
        <time>2013-09-15T15:42:05.000Z</time>
      </trkpt>
      <trkpt lat="45.16296" lon="5.71697">
        <ele>283</ele>
        <time>2013-09-15T15:42:06.000Z</time>
      </trkpt>
      <trkpt lat="45.163" lon="5.71701">
        <ele>283</ele>
        <time>2013-09-15T15:42:07.000Z</time>
      </trkpt>
      <trkpt lat="45.16305" lon="5.71705">
        <ele>283</ele>
        <time>2013-09-15T15:42:08.000Z</time>
      </trkpt>
      <trkpt lat="45.16309" lon="5.71707">
        <ele>283</ele>
        <time>2013-09-15T15:42:09.000Z</time>
      </trkpt>
      <trkpt lat="45.16313" lon="5.71712">
        <ele>283</ele>
        <time>2013-09-15T15:42:10.000Z</time>
      </trkpt>
      <trkpt lat="45.16317" lon="5.71714">
        <ele>284</ele>
        <time>2013-09-15T15:42:11.000Z</time>
      </trkpt>
      <trkpt lat="45.16322" lon="5.71718">
        <ele>284</ele>
        <time>2013-09-15T15:42:12.000Z</time>
      </trkpt>
      <trkpt lat="45.16328" lon="5.71725">
        <ele>283</ele>
        <time>2013-09-15T15:42:14.000Z</time>
      </trkpt>
      <trkpt lat="45.16328" lon="5.71725">
        <ele>283</ele>
        <time>2013-09-15T15:42:14.000Z</time>
      </trkpt>
      <trkpt lat="45.16328" lon="5.71725">
        <ele>283</ele>
        <time>2013-09-15T15:42:16.000Z</time>
      </trkpt>
      <trkpt lat="45.16336" lon="5.71731">
        <ele>283</ele>
        <time>2013-09-15T15:42:17.000Z</time>
      </trkpt>
      <trkpt lat="45.16341" lon="5.71735">
        <ele>283</ele>
        <time>2013-09-15T15:42:19.000Z</time>
      </trkpt>
      <trkpt lat="45.16346" lon="5.7174">
        <ele>283</ele>
        <time>2013-09-15T15:42:21.000Z</time>
      </trkpt>
      <trkpt lat="45.16352" lon="5.71746">
        <ele>283</ele>
        <time>2013-09-15T15:42:23.000Z</time>
      </trkpt>
      <trkpt lat="45.16358" lon="5.71752">
        <ele>282</ele>
        <time>2013-09-15T15:42:25.000Z</time>
      </trkpt>
      <trkpt lat="45.16366" lon="5.71759">
        <ele>281</ele>
        <time>2013-09-15T15:42:27.000Z</time>
      </trkpt>
      <trkpt lat="45.16371" lon="5.71763">
        <ele>281</ele>
        <time>2013-09-15T15:42:28.000Z</time>
      </trkpt>
      <trkpt lat="45.16376" lon="5.71768">
        <ele>280</ele>
        <time>2013-09-15T15:42:29.000Z</time>
      </trkpt>
      <trkpt lat="45.16382" lon="5.7177">
        <ele>280</ele>
        <time>2013-09-15T15:42:30.000Z</time>
      </trkpt>
      <trkpt lat="45.16387" lon="5.71774">
        <ele>281</ele>
        <time>2013-09-15T15:42:31.000Z</time>
      </trkpt>
      <trkpt lat="45.16392" lon="5.71778">
        <ele>281</ele>
        <time>2013-09-15T15:42:32.000Z</time>
      </trkpt>
      <trkpt lat="45.16398" lon="5.71782">
        <ele>281</ele>
        <time>2013-09-15T15:42:33.000Z</time>
      </trkpt>
      <trkpt lat="45.16403" lon="5.71785">
        <ele>281</ele>
        <time>2013-09-15T15:42:34.000Z</time>
      </trkpt>
      <trkpt lat="45.16408" lon="5.71789">
        <ele>281</ele>
        <time>2013-09-15T15:42:35.000Z</time>
      </trkpt>
      <trkpt lat="45.16413" lon="5.71793">
        <ele>281</ele>
        <time>2013-09-15T15:42:36.000Z</time>
      </trkpt>
      <trkpt lat="45.16417" lon="5.71798">
        <ele>281</ele>
        <time>2013-09-15T15:42:37.000Z</time>
      </trkpt>
      <trkpt lat="45.16422" lon="5.718">
        <ele>281</ele>
        <time>2013-09-15T15:42:38.000Z</time>
      </trkpt>
      <trkpt lat="45.16426" lon="5.71804">
        <ele>281</ele>
        <time>2013-09-15T15:42:39.000Z</time>
      </trkpt>
      <trkpt lat="45.16431" lon="5.71806">
        <ele>281</ele>
        <time>2013-09-15T15:42:40.000Z</time>
      </trkpt>
      <trkpt lat="45.16439" lon="5.71813">
        <ele>281</ele>
        <time>2013-09-15T15:42:42.000Z</time>
      </trkpt>
      <trkpt lat="45.16443" lon="5.71817">
        <ele>280</ele>
        <time>2013-09-15T15:42:43.000Z</time>
      </trkpt>
      <trkpt lat="45.1645" lon="5.71823">
        <ele>280</ele>
        <time>2013-09-15T15:42:45.000Z</time>
      </trkpt>
      <trkpt lat="45.16455" lon="5.71826">
        <ele>280</ele>
        <time>2013-09-15T15:42:46.000Z</time>
      </trkpt>
      <trkpt lat="45.16462" lon="5.71832">
        <ele>281</ele>
        <time>2013-09-15T15:42:48.000Z</time>
      </trkpt>
      <trkpt lat="45.16467" lon="5.71836">
        <ele>281</ele>
        <time>2013-09-15T15:42:49.000Z</time>
      </trkpt>
      <trkpt lat="45.16473" lon="5.71843">
        <ele>280</ele>
        <time>2013-09-15T15:42:51.000Z</time>
      </trkpt>
      <trkpt lat="45.1648" lon="5.71849">
        <ele>280</ele>
        <time>2013-09-15T15:42:53.000Z</time>
      </trkpt>
      <trkpt lat="45.16488" lon="5.71858">
        <ele>280</ele>
        <time>2013-09-15T15:42:55.000Z</time>
      </trkpt>
      <trkpt lat="45.16492" lon="5.7186">
        <ele>280</ele>
        <time>2013-09-15T15:42:56.000Z</time>
      </trkpt>
      <trkpt lat="45.16497" lon="5.71864">
        <ele>279</ele>
        <time>2013-09-15T15:42:57.000Z</time>
      </trkpt>
      <trkpt lat="45.16501" lon="5.71868">
        <ele>279</ele>
        <time>2013-09-15T15:42:58.000Z</time>
      </trkpt>
      <trkpt lat="45.16505" lon="5.71873">
        <ele>279</ele>
        <time>2013-09-15T15:42:59.000Z</time>
      </trkpt>
      <trkpt lat="45.1651" lon="5.71877">
        <ele>279</ele>
        <time>2013-09-15T15:43:00.000Z</time>
      </trkpt>
      <trkpt lat="45.16514" lon="5.71881">
        <ele>278</ele>
        <time>2013-09-15T15:43:01.000Z</time>
      </trkpt>
      <trkpt lat="45.16518" lon="5.71886">
        <ele>278</ele>
        <time>2013-09-15T15:43:02.000Z</time>
      </trkpt>
      <trkpt lat="45.16526" lon="5.71892">
        <ele>278</ele>
        <time>2013-09-15T15:43:04.000Z</time>
      </trkpt>
      <trkpt lat="45.1653" lon="5.71896">
        <ele>278</ele>
        <time>2013-09-15T15:43:05.000Z</time>
      </trkpt>
      <trkpt lat="45.16534" lon="5.71901">
        <ele>278</ele>
        <time>2013-09-15T15:43:06.000Z</time>
      </trkpt>
      <trkpt lat="45.16541" lon="5.71907">
        <ele>278</ele>
        <time>2013-09-15T15:43:08.000Z</time>
      </trkpt>
      <trkpt lat="45.16545" lon="5.71911">
        <ele>278</ele>
        <time>2013-09-15T15:43:09.000Z</time>
      </trkpt>
      <trkpt lat="45.16551" lon="5.71916">
        <ele>278</ele>
        <time>2013-09-15T15:43:11.000Z</time>
      </trkpt>
      <trkpt lat="45.16558" lon="5.71922">
        <ele>278</ele>
        <time>2013-09-15T15:43:13.000Z</time>
      </trkpt>
      <trkpt lat="45.16564" lon="5.71926">
        <ele>278</ele>
        <time>2013-09-15T15:43:15.000Z</time>
      </trkpt>
      <trkpt lat="45.1657" lon="5.71933">
        <ele>278</ele>
        <time>2013-09-15T15:43:17.000Z</time>
      </trkpt>
      <trkpt lat="45.16574" lon="5.71937">
        <ele>278</ele>
        <time>2013-09-15T15:43:18.000Z</time>
      </trkpt>
      <trkpt lat="45.16581" lon="5.71944">
        <ele>277</ele>
        <time>2013-09-15T15:43:20.000Z</time>
      </trkpt>
      <trkpt lat="45.16586" lon="5.71948">
        <ele>277</ele>
        <time>2013-09-15T15:43:21.000Z</time>
      </trkpt>
      <trkpt lat="45.16593" lon="5.71954">
        <ele>277</ele>
        <time>2013-09-15T15:43:23.000Z</time>
      </trkpt>
      <trkpt lat="45.16601" lon="5.71961">
        <ele>278</ele>
        <time>2013-09-15T15:43:25.000Z</time>
      </trkpt>
      <trkpt lat="45.16608" lon="5.71967">
        <ele>278</ele>
        <time>2013-09-15T15:43:27.000Z</time>
      </trkpt>
      <trkpt lat="45.16616" lon="5.71974">
        <ele>278</ele>
        <time>2013-09-15T15:43:29.000Z</time>
      </trkpt>
      <trkpt lat="45.16623" lon="5.7198">
        <ele>278</ele>
        <time>2013-09-15T15:43:31.000Z</time>
      </trkpt>
      <trkpt lat="45.16631" lon="5.71986">
        <ele>278</ele>
        <time>2013-09-15T15:43:33.000Z</time>
      </trkpt>
      <trkpt lat="45.16638" lon="5.71993">
        <ele>278</ele>
        <time>2013-09-15T15:43:35.000Z</time>
      </trkpt>
      <trkpt lat="45.16642" lon="5.71995">
        <ele>278</ele>
        <time>2013-09-15T15:43:36.000Z</time>
      </trkpt>
      <trkpt lat="45.16649" lon="5.72001">
        <ele>278</ele>
        <time>2013-09-15T15:43:38.000Z</time>
      </trkpt>
      <trkpt lat="45.16655" lon="5.72008">
        <ele>278</ele>
        <time>2013-09-15T15:43:40.000Z</time>
      </trkpt>
      <trkpt lat="45.16662" lon="5.72014">
        <ele>278</ele>
        <time>2013-09-15T15:43:42.000Z</time>
      </trkpt>
      <trkpt lat="45.16669" lon="5.72019">
        <ele>278</ele>
        <time>2013-09-15T15:43:44.000Z</time>
      </trkpt>
      <trkpt lat="45.16677" lon="5.72025">
        <ele>279</ele>
        <time>2013-09-15T15:43:46.000Z</time>
      </trkpt>
      <trkpt lat="45.16684" lon="5.72031">
        <ele>279</ele>
        <time>2013-09-15T15:43:48.000Z</time>
      </trkpt>
      <trkpt lat="45.16689" lon="5.72036">
        <ele>279</ele>
        <time>2013-09-15T15:43:49.000Z</time>
      </trkpt>
      <trkpt lat="45.16693" lon="5.7204">
        <ele>279</ele>
        <time>2013-09-15T15:43:50.000Z</time>
      </trkpt>
      <trkpt lat="45.167" lon="5.72046">
        <ele>279</ele>
        <time>2013-09-15T15:43:52.000Z</time>
      </trkpt>
      <trkpt lat="45.16705" lon="5.72051">
        <ele>279</ele>
        <time>2013-09-15T15:43:53.000Z</time>
      </trkpt>
      <trkpt lat="45.16708" lon="5.72055">
        <ele>279</ele>
        <time>2013-09-15T15:43:54.000Z</time>
      </trkpt>
      <trkpt lat="45.16712" lon="5.72059">
        <ele>279</ele>
        <time>2013-09-15T15:43:55.000Z</time>
      </trkpt>
      <trkpt lat="45.1672" lon="5.72066">
        <ele>279</ele>
        <time>2013-09-15T15:43:57.000Z</time>
      </trkpt>
      <trkpt lat="45.16727" lon="5.72072">
        <ele>279</ele>
        <time>2013-09-15T15:43:59.000Z</time>
      </trkpt>
      <trkpt lat="45.16735" lon="5.72079">
        <ele>279</ele>
        <time>2013-09-15T15:44:01.000Z</time>
      </trkpt>
      <trkpt lat="45.16742" lon="5.72085">
        <ele>279</ele>
        <time>2013-09-15T15:44:03.000Z</time>
      </trkpt>
      <trkpt lat="45.1675" lon="5.72092">
        <ele>279</ele>
        <time>2013-09-15T15:44:05.000Z</time>
      </trkpt>
      <trkpt lat="45.16757" lon="5.72098">
        <ele>279</ele>
        <time>2013-09-15T15:44:07.000Z</time>
      </trkpt>
      <trkpt lat="45.16764" lon="5.72104">
        <ele>279</ele>
        <time>2013-09-15T15:44:09.000Z</time>
      </trkpt>
      <trkpt lat="45.16768" lon="5.72106">
        <ele>279</ele>
        <time>2013-09-15T15:44:10.000Z</time>
      </trkpt>
      <trkpt lat="45.16771" lon="5.72111">
        <ele>279</ele>
        <time>2013-09-15T15:44:11.000Z</time>
      </trkpt>
      <trkpt lat="45.16778" lon="5.72115">
        <ele>279</ele>
        <time>2013-09-15T15:44:13.000Z</time>
      </trkpt>
      <trkpt lat="45.16781" lon="5.72119">
        <ele>279</ele>
        <time>2013-09-15T15:44:14.000Z</time>
      </trkpt>
      <trkpt lat="45.16787" lon="5.72126">
        <ele>279</ele>
        <time>2013-09-15T15:44:16.000Z</time>
      </trkpt>
      <trkpt lat="45.16794" lon="5.7213">
        <ele>279</ele>
        <time>2013-09-15T15:44:18.000Z</time>
      </trkpt>
      <trkpt lat="45.16798" lon="5.72134">
        <ele>279</ele>
        <time>2013-09-15T15:44:19.000Z</time>
      </trkpt>
      <trkpt lat="45.16804" lon="5.72139">
        <ele>279</ele>
        <time>2013-09-15T15:44:21.000Z</time>
      </trkpt>
      <trkpt lat="45.16809" lon="5.72143">
        <ele>279</ele>
        <time>2013-09-15T15:44:22.000Z</time>
      </trkpt>
      <trkpt lat="45.16816" lon="5.7215">
        <ele>279</ele>
        <time>2013-09-15T15:44:24.000Z</time>
      </trkpt>
      <trkpt lat="45.16823" lon="5.72154">
        <ele>279</ele>
        <time>2013-09-15T15:44:26.000Z</time>
      </trkpt>
      <trkpt lat="45.16827" lon="5.72158">
        <ele>279</ele>
        <time>2013-09-15T15:44:27.000Z</time>
      </trkpt>
      <trkpt lat="45.16831" lon="5.72162">
        <ele>279</ele>
        <time>2013-09-15T15:44:29.000Z</time>
      </trkpt>
      <trkpt lat="45.16838" lon="5.72169">
        <ele>279</ele>
        <time>2013-09-15T15:44:31.000Z</time>
      </trkpt>
      <trkpt lat="45.16844" lon="5.72175">
        <ele>279</ele>
        <time>2013-09-15T15:44:33.000Z</time>
      </trkpt>
      <trkpt lat="45.16851" lon="5.72182">
        <ele>279</ele>
        <time>2013-09-15T15:44:35.000Z</time>
      </trkpt>
      <trkpt lat="45.16855" lon="5.72184">
        <ele>279</ele>
        <time>2013-09-15T15:44:36.000Z</time>
      </trkpt>
      <trkpt lat="45.16862" lon="5.72192">
        <ele>279</ele>
        <time>2013-09-15T15:44:38.000Z</time>
      </trkpt>
      <trkpt lat="45.16867" lon="5.72199">
        <ele>279</ele>
        <time>2013-09-15T15:44:39.000Z</time>
      </trkpt>
      <trkpt lat="45.16871" lon="5.72203">
        <ele>279</ele>
        <time>2013-09-15T15:44:40.000Z</time>
      </trkpt>
      <trkpt lat="45.16879" lon="5.7221">
        <ele>279</ele>
        <time>2013-09-15T15:44:42.000Z</time>
      </trkpt>
      <trkpt lat="45.16883" lon="5.72214">
        <ele>279</ele>
        <time>2013-09-15T15:44:43.000Z</time>
      </trkpt>
      <trkpt lat="45.16887" lon="5.72216">
        <ele>279</ele>
        <time>2013-09-15T15:44:44.000Z</time>
      </trkpt>
      <trkpt lat="45.1689" lon="5.7222">
        <ele>279</ele>
        <time>2013-09-15T15:44:45.000Z</time>
      </trkpt>
      <trkpt lat="45.16895" lon="5.72225">
        <ele>279</ele>
        <time>2013-09-15T15:44:46.000Z</time>
      </trkpt>
      <trkpt lat="45.16902" lon="5.72231">
        <ele>278</ele>
        <time>2013-09-15T15:44:48.000Z</time>
      </trkpt>
      <trkpt lat="45.1691" lon="5.72237">
        <ele>279</ele>
        <time>2013-09-15T15:44:50.000Z</time>
      </trkpt>
      <trkpt lat="45.16916" lon="5.72244">
        <ele>278</ele>
        <time>2013-09-15T15:44:52.000Z</time>
      </trkpt>
      <trkpt lat="45.1692" lon="5.72248">
        <ele>278</ele>
        <time>2013-09-15T15:44:53.000Z</time>
      </trkpt>
      <trkpt lat="45.16927" lon="5.72255">
        <ele>278</ele>
        <time>2013-09-15T15:44:55.000Z</time>
      </trkpt>
      <trkpt lat="45.16933" lon="5.72261">
        <ele>278</ele>
        <time>2013-09-15T15:44:57.000Z</time>
      </trkpt>
      <trkpt lat="45.16939" lon="5.72265">
        <ele>278</ele>
        <time>2013-09-15T15:44:59.000Z</time>
      </trkpt>
      <trkpt lat="45.16942" lon="5.7227">
        <ele>278</ele>
        <time>2013-09-15T15:45:00.000Z</time>
      </trkpt>
      <trkpt lat="45.16948" lon="5.72278">
        <ele>278</ele>
        <time>2013-09-15T15:45:02.000Z</time>
      </trkpt>
      <trkpt lat="45.16955" lon="5.72287">
        <ele>277</ele>
        <time>2013-09-15T15:45:04.000Z</time>
      </trkpt>
      <trkpt lat="45.16958" lon="5.72291">
        <ele>277</ele>
        <time>2013-09-15T15:45:05.000Z</time>
      </trkpt>
      <trkpt lat="45.16962" lon="5.72295">
        <ele>277</ele>
        <time>2013-09-15T15:45:06.000Z</time>
      </trkpt>
      <trkpt lat="45.16966" lon="5.723">
        <ele>277</ele>
        <time>2013-09-15T15:45:07.000Z</time>
      </trkpt>
      <trkpt lat="45.16971" lon="5.72304">
        <ele>276</ele>
        <time>2013-09-15T15:45:08.000Z</time>
      </trkpt>
      <trkpt lat="45.16976" lon="5.72306">
        <ele>276</ele>
        <time>2013-09-15T15:45:09.000Z</time>
      </trkpt>
      <trkpt lat="45.1698" lon="5.7231">
        <ele>276</ele>
        <time>2013-09-15T15:45:10.000Z</time>
      </trkpt>
      <trkpt lat="45.16985" lon="5.72312">
        <ele>276</ele>
        <time>2013-09-15T15:45:11.000Z</time>
      </trkpt>
      <trkpt lat="45.1699" lon="5.72317">
        <ele>276</ele>
        <time>2013-09-15T15:45:12.000Z</time>
      </trkpt>
      <trkpt lat="45.16996" lon="5.72321">
        <ele>277</ele>
        <time>2013-09-15T15:45:13.000Z</time>
      </trkpt>
      <trkpt lat="45.17001" lon="5.72325">
        <ele>277</ele>
        <time>2013-09-15T15:45:14.000Z</time>
      </trkpt>
      <trkpt lat="45.17006" lon="5.72328">
        <ele>277</ele>
        <time>2013-09-15T15:45:15.000Z</time>
      </trkpt>
      <trkpt lat="45.1701" lon="5.72332">
        <ele>278</ele>
        <time>2013-09-15T15:45:16.000Z</time>
      </trkpt>
      <trkpt lat="45.17016" lon="5.72334">
        <ele>278</ele>
        <time>2013-09-15T15:45:17.000Z</time>
      </trkpt>
      <trkpt lat="45.1702" lon="5.72338">
        <ele>278</ele>
        <time>2013-09-15T15:45:18.000Z</time>
      </trkpt>
      <trkpt lat="45.17024" lon="5.7234">
        <ele>278</ele>
        <time>2013-09-15T15:45:19.000Z</time>
      </trkpt>
      <trkpt lat="45.17029" lon="5.72343">
        <ele>279</ele>
        <time>2013-09-15T15:45:20.000Z</time>
      </trkpt>
      <trkpt lat="45.17033" lon="5.72347">
        <ele>279</ele>
        <time>2013-09-15T15:45:21.000Z</time>
      </trkpt>
      <trkpt lat="45.17037" lon="5.72349">
        <ele>279</ele>
        <time>2013-09-15T15:45:22.000Z</time>
      </trkpt>
      <trkpt lat="45.17042" lon="5.72353">
        <ele>279</ele>
        <time>2013-09-15T15:45:23.000Z</time>
      </trkpt>
      <trkpt lat="45.17046" lon="5.72356">
        <ele>279</ele>
        <time>2013-09-15T15:45:24.000Z</time>
      </trkpt>
      <trkpt lat="45.17053" lon="5.7236">
        <ele>279</ele>
        <time>2013-09-15T15:45:26.000Z</time>
      </trkpt>
      <trkpt lat="45.17058" lon="5.72364">
        <ele>279</ele>
        <time>2013-09-15T15:45:27.000Z</time>
      </trkpt>
      <trkpt lat="45.17065" lon="5.72368">
        <ele>278</ele>
        <time>2013-09-15T15:45:29.000Z</time>
      </trkpt>
      <trkpt lat="45.17073" lon="5.72375">
        <ele>278</ele>
        <time>2013-09-15T15:45:31.000Z</time>
      </trkpt>
      <trkpt lat="45.17077" lon="5.72377">
        <ele>278</ele>
        <time>2013-09-15T15:45:32.000Z</time>
      </trkpt>
      <trkpt lat="45.17081" lon="5.72379">
        <ele>277</ele>
        <time>2013-09-15T15:45:33.000Z</time>
      </trkpt>
      <trkpt lat="45.17086" lon="5.72383">
        <ele>277</ele>
        <time>2013-09-15T15:45:34.000Z</time>
      </trkpt>
      <trkpt lat="45.1709" lon="5.72386">
        <ele>276</ele>
        <time>2013-09-15T15:45:35.000Z</time>
      </trkpt>
      <trkpt lat="45.17094" lon="5.7239">
        <ele>275</ele>
        <time>2013-09-15T15:45:36.000Z</time>
      </trkpt>
      <trkpt lat="45.17098" lon="5.72392">
        <ele>274</ele>
        <time>2013-09-15T15:45:37.000Z</time>
      </trkpt>
      <trkpt lat="45.17103" lon="5.72396">
        <ele>274</ele>
        <time>2013-09-15T15:45:38.000Z</time>
      </trkpt>
      <trkpt lat="45.17108" lon="5.72398">
        <ele>274</ele>
        <time>2013-09-15T15:45:39.000Z</time>
      </trkpt>
      <trkpt lat="45.17114" lon="5.72403">
        <ele>274</ele>
        <time>2013-09-15T15:45:40.000Z</time>
      </trkpt>
      <trkpt lat="45.17119" lon="5.72407">
        <ele>274</ele>
        <time>2013-09-15T15:45:41.000Z</time>
      </trkpt>
      <trkpt lat="45.17123" lon="5.72409">
        <ele>275</ele>
        <time>2013-09-15T15:45:42.000Z</time>
      </trkpt>
      <trkpt lat="45.17128" lon="5.72413">
        <ele>275</ele>
        <time>2013-09-15T15:45:43.000Z</time>
      </trkpt>
      <trkpt lat="45.17132" lon="5.72416">
        <ele>275</ele>
        <time>2013-09-15T15:45:44.000Z</time>
      </trkpt>
      <trkpt lat="45.17139" lon="5.72422">
        <ele>275</ele>
        <time>2013-09-15T15:45:46.000Z</time>
      </trkpt>
      <trkpt lat="45.17146" lon="5.72428">
        <ele>275</ele>
        <time>2013-09-15T15:45:48.000Z</time>
      </trkpt>
      <trkpt lat="45.17146" lon="5.72428">
        <ele>275</ele>
        <time>2013-09-15T15:45:48.000Z</time>
      </trkpt>
      <trkpt lat="45.17146" lon="5.72428">
        <ele>275</ele>
        <time>2013-09-15T15:45:50.000Z</time>
      </trkpt>
      <trkpt lat="45.17151" lon="5.72433">
        <ele>275</ele>
        <time>2013-09-15T15:45:51.000Z</time>
      </trkpt>
      <trkpt lat="45.17151" lon="5.72433">
        <ele>275</ele>
        <time>2013-09-15T15:45:51.000Z</time>
      </trkpt>
      <trkpt lat="45.17151" lon="5.72433">
        <ele>275</ele>
        <time>2013-09-15T15:46:02.000Z</time>
      </trkpt>
      <trkpt lat="45.17155" lon="5.72437">
        <ele>275</ele>
        <time>2013-09-15T15:46:03.000Z</time>
      </trkpt>
      <trkpt lat="45.17155" lon="5.72437">
        <ele>275</ele>
        <time>2013-09-15T15:46:03.000Z</time>
      </trkpt>
      <trkpt lat="45.17155" lon="5.72437">
        <ele>275</ele>
        <time>2013-09-15T15:46:17.000Z</time>
      </trkpt>
      <trkpt lat="45.17161" lon="5.72441">
        <ele>276</ele>
        <time>2013-09-15T15:46:19.000Z</time>
      </trkpt>
      <trkpt lat="45.17167" lon="5.72446">
        <ele>276</ele>
        <time>2013-09-15T15:46:21.000Z</time>
      </trkpt>
      <trkpt lat="45.17172" lon="5.72448">
        <ele>277</ele>
        <time>2013-09-15T15:46:22.000Z</time>
      </trkpt>
      <trkpt lat="45.17179" lon="5.7245">
        <ele>277</ele>
        <time>2013-09-15T15:46:24.000Z</time>
      </trkpt>
      <trkpt lat="45.17185" lon="5.7245">
        <ele>278</ele>
        <time>2013-09-15T15:46:26.000Z</time>
      </trkpt>
      <trkpt lat="45.17193" lon="5.72452">
        <ele>278</ele>
        <time>2013-09-15T15:46:28.000Z</time>
      </trkpt>
      <trkpt lat="45.17202" lon="5.72454">
        <ele>278</ele>
        <time>2013-09-15T15:46:30.000Z</time>
      </trkpt>
      <trkpt lat="45.17206" lon="5.72456">
        <ele>278</ele>
        <time>2013-09-15T15:46:31.000Z</time>
      </trkpt>
      <trkpt lat="45.1721" lon="5.72458">
        <ele>279</ele>
        <time>2013-09-15T15:46:32.000Z</time>
      </trkpt>
      <trkpt lat="45.17218" lon="5.72461">
        <ele>278</ele>
        <time>2013-09-15T15:46:34.000Z</time>
      </trkpt>
      <trkpt lat="45.17222" lon="5.72463">
        <ele>278</ele>
        <time>2013-09-15T15:46:35.000Z</time>
      </trkpt>
      <trkpt lat="45.17226" lon="5.72465">
        <ele>278</ele>
        <time>2013-09-15T15:46:36.000Z</time>
      </trkpt>
      <trkpt lat="45.17232" lon="5.72467">
        <ele>278</ele>
        <time>2013-09-15T15:46:37.000Z</time>
      </trkpt>
      <trkpt lat="45.1724" lon="5.72469">
        <ele>279</ele>
        <time>2013-09-15T15:46:39.000Z</time>
      </trkpt>
      <trkpt lat="45.17244" lon="5.72471">
        <ele>279</ele>
        <time>2013-09-15T15:46:40.000Z</time>
      </trkpt>
      <trkpt lat="45.17253" lon="5.72474">
        <ele>278</ele>
        <time>2013-09-15T15:46:42.000Z</time>
      </trkpt>
      <trkpt lat="45.17257" lon="5.72476">
        <ele>278</ele>
        <time>2013-09-15T15:46:43.000Z</time>
      </trkpt>
      <trkpt lat="45.17262" lon="5.72478">
        <ele>278</ele>
        <time>2013-09-15T15:46:44.000Z</time>
      </trkpt>
      <trkpt lat="45.17267" lon="5.7248">
        <ele>278</ele>
        <time>2013-09-15T15:46:45.000Z</time>
      </trkpt>
      <trkpt lat="45.17276" lon="5.72482">
        <ele>277</ele>
        <time>2013-09-15T15:46:47.000Z</time>
      </trkpt>
      <trkpt lat="45.1728" lon="5.72484">
        <ele>277</ele>
        <time>2013-09-15T15:46:48.000Z</time>
      </trkpt>
      <trkpt lat="45.17288" lon="5.72486">
        <ele>277</ele>
        <time>2013-09-15T15:46:50.000Z</time>
      </trkpt>
      <trkpt lat="45.17293" lon="5.72488">
        <ele>277</ele>
        <time>2013-09-15T15:46:51.000Z</time>
      </trkpt>
      <trkpt lat="45.17301" lon="5.72491">
        <ele>277</ele>
        <time>2013-09-15T15:46:53.000Z</time>
      </trkpt>
      <trkpt lat="45.17307" lon="5.72493">
        <ele>277</ele>
        <time>2013-09-15T15:46:54.000Z</time>
      </trkpt>
      <trkpt lat="45.17311" lon="5.72495">
        <ele>277</ele>
        <time>2013-09-15T15:46:55.000Z</time>
      </trkpt>
      <trkpt lat="45.17315" lon="5.72497">
        <ele>276</ele>
        <time>2013-09-15T15:46:56.000Z</time>
      </trkpt>
      <trkpt lat="45.17321" lon="5.72499">
        <ele>276</ele>
        <time>2013-09-15T15:46:57.000Z</time>
      </trkpt>
      <trkpt lat="45.17325" lon="5.72501">
        <ele>276</ele>
        <time>2013-09-15T15:46:58.000Z</time>
      </trkpt>
      <trkpt lat="45.17334" lon="5.72504">
        <ele>276</ele>
        <time>2013-09-15T15:47:00.000Z</time>
      </trkpt>
      <trkpt lat="45.17339" lon="5.72506">
        <ele>276</ele>
        <time>2013-09-15T15:47:01.000Z</time>
      </trkpt>
      <trkpt lat="45.17343" lon="5.72508">
        <ele>276</ele>
        <time>2013-09-15T15:47:02.000Z</time>
      </trkpt>
      <trkpt lat="45.17348" lon="5.7251">
        <ele>276</ele>
        <time>2013-09-15T15:47:03.000Z</time>
      </trkpt>
      <trkpt lat="45.17356" lon="5.72512">
        <ele>277</ele>
        <time>2013-09-15T15:47:05.000Z</time>
      </trkpt>
      <trkpt lat="45.1736" lon="5.72514">
        <ele>277</ele>
        <time>2013-09-15T15:47:06.000Z</time>
      </trkpt>
      <trkpt lat="45.17365" lon="5.72516">
        <ele>277</ele>
        <time>2013-09-15T15:47:07.000Z</time>
      </trkpt>
      <trkpt lat="45.17369" lon="5.72518">
        <ele>278</ele>
        <time>2013-09-15T15:47:08.000Z</time>
      </trkpt>
      <trkpt lat="45.17373" lon="5.72521">
        <ele>278</ele>
        <time>2013-09-15T15:47:09.000Z</time>
      </trkpt>
      <trkpt lat="45.17377" lon="5.72523">
        <ele>278</ele>
        <time>2013-09-15T15:47:10.000Z</time>
      </trkpt>
      <trkpt lat="45.17385" lon="5.72525">
        <ele>279</ele>
        <time>2013-09-15T15:47:12.000Z</time>
      </trkpt>
      <trkpt lat="45.17389" lon="5.72527">
        <ele>279</ele>
        <time>2013-09-15T15:47:13.000Z</time>
      </trkpt>
      <trkpt lat="45.17394" lon="5.72529">
        <ele>279</ele>
        <time>2013-09-15T15:47:14.000Z</time>
      </trkpt>
      <trkpt lat="45.17402" lon="5.72531">
        <ele>279</ele>
        <time>2013-09-15T15:47:16.000Z</time>
      </trkpt>
      <trkpt lat="45.17406" lon="5.72534">
        <ele>279</ele>
        <time>2013-09-15T15:47:17.000Z</time>
      </trkpt>
      <trkpt lat="45.17414" lon="5.72536">
        <ele>279</ele>
        <time>2013-09-15T15:47:19.000Z</time>
      </trkpt>
      <trkpt lat="45.17418" lon="5.72538">
        <ele>280</ele>
        <time>2013-09-15T15:47:20.000Z</time>
      </trkpt>
      <trkpt lat="45.17427" lon="5.7254">
        <ele>280</ele>
        <time>2013-09-15T15:47:22.000Z</time>
      </trkpt>
      <trkpt lat="45.17431" lon="5.72542">
        <ele>280</ele>
        <time>2013-09-15T15:47:23.000Z</time>
      </trkpt>
      <trkpt lat="45.17439" lon="5.72544">
        <ele>280</ele>
        <time>2013-09-15T15:47:25.000Z</time>
      </trkpt>
      <trkpt lat="45.17443" lon="5.72546">
        <ele>280</ele>
        <time>2013-09-15T15:47:26.000Z</time>
      </trkpt>
      <trkpt lat="45.17449" lon="5.72551">
        <ele>280</ele>
        <time>2013-09-15T15:47:28.000Z</time>
      </trkpt>
      <trkpt lat="45.17457" lon="5.72555">
        <ele>280</ele>
        <time>2013-09-15T15:47:30.000Z</time>
      </trkpt>
      <trkpt lat="45.17464" lon="5.72557">
        <ele>279</ele>
        <time>2013-09-15T15:47:32.000Z</time>
      </trkpt>
      <trkpt lat="45.17472" lon="5.72562">
        <ele>278</ele>
        <time>2013-09-15T15:47:34.000Z</time>
      </trkpt>
      <trkpt lat="45.17479" lon="5.72564">
        <ele>278</ele>
        <time>2013-09-15T15:47:36.000Z</time>
      </trkpt>
      <trkpt lat="45.17484" lon="5.72566">
        <ele>278</ele>
        <time>2013-09-15T15:47:37.000Z</time>
      </trkpt>
      <trkpt lat="45.17491" lon="5.72568">
        <ele>277</ele>
        <time>2013-09-15T15:47:39.000Z</time>
      </trkpt>
      <trkpt lat="45.17496" lon="5.7257">
        <ele>277</ele>
        <time>2013-09-15T15:47:40.000Z</time>
      </trkpt>
      <trkpt lat="45.17502" lon="5.72572">
        <ele>277</ele>
        <time>2013-09-15T15:47:42.000Z</time>
      </trkpt>
      <trkpt lat="45.17509" lon="5.72576">
        <ele>277</ele>
        <time>2013-09-15T15:47:44.000Z</time>
      </trkpt>
      <trkpt lat="45.17517" lon="5.72579">
        <ele>277</ele>
        <time>2013-09-15T15:47:46.000Z</time>
      </trkpt>
      <trkpt lat="45.17521" lon="5.72581">
        <ele>277</ele>
        <time>2013-09-15T15:47:47.000Z</time>
      </trkpt>
      <trkpt lat="45.17526" lon="5.72583">
        <ele>277</ele>
        <time>2013-09-15T15:47:48.000Z</time>
      </trkpt>
      <trkpt lat="45.17533" lon="5.72585">
        <ele>277</ele>
        <time>2013-09-15T15:47:50.000Z</time>
      </trkpt>
      <trkpt lat="45.17537" lon="5.72587">
        <ele>277</ele>
        <time>2013-09-15T15:47:51.000Z</time>
      </trkpt>
      <trkpt lat="45.17545" lon="5.72592">
        <ele>277</ele>
        <time>2013-09-15T15:47:53.000Z</time>
      </trkpt>
      <trkpt lat="45.17553" lon="5.72594">
        <ele>277</ele>
        <time>2013-09-15T15:47:55.000Z</time>
      </trkpt>
      <trkpt lat="45.17561" lon="5.72598">
        <ele>277</ele>
        <time>2013-09-15T15:47:57.000Z</time>
      </trkpt>
      <trkpt lat="45.17568" lon="5.726">
        <ele>277</ele>
        <time>2013-09-15T15:47:59.000Z</time>
      </trkpt>
      <trkpt lat="45.17573" lon="5.72602">
        <ele>277</ele>
        <time>2013-09-15T15:48:00.000Z</time>
      </trkpt>
      <trkpt lat="45.17578" lon="5.72604">
        <ele>277</ele>
        <time>2013-09-15T15:48:01.000Z</time>
      </trkpt>
      <trkpt lat="45.17583" lon="5.72609">
        <ele>277</ele>
        <time>2013-09-15T15:48:02.000Z</time>
      </trkpt>
      <trkpt lat="45.17589" lon="5.72611">
        <ele>277</ele>
        <time>2013-09-15T15:48:03.000Z</time>
      </trkpt>
      <trkpt lat="45.17595" lon="5.72613">
        <ele>277</ele>
        <time>2013-09-15T15:48:04.000Z</time>
      </trkpt>
      <trkpt lat="45.17601" lon="5.72613">
        <ele>277</ele>
        <time>2013-09-15T15:48:05.000Z</time>
      </trkpt>
      <trkpt lat="45.17606" lon="5.72615">
        <ele>277</ele>
        <time>2013-09-15T15:48:06.000Z</time>
      </trkpt>
      <trkpt lat="45.17611" lon="5.72617">
        <ele>277</ele>
        <time>2013-09-15T15:48:07.000Z</time>
      </trkpt>
      <trkpt lat="45.17616" lon="5.72619">
        <ele>278</ele>
        <time>2013-09-15T15:48:08.000Z</time>
      </trkpt>
      <trkpt lat="45.17621" lon="5.72622">
        <ele>278</ele>
        <time>2013-09-15T15:48:09.000Z</time>
      </trkpt>
      <trkpt lat="45.17626" lon="5.72624">
        <ele>278</ele>
        <time>2013-09-15T15:48:10.000Z</time>
      </trkpt>
      <trkpt lat="45.17632" lon="5.72626">
        <ele>277</ele>
        <time>2013-09-15T15:48:11.000Z</time>
      </trkpt>
      <trkpt lat="45.17638" lon="5.72628">
        <ele>277</ele>
        <time>2013-09-15T15:48:12.000Z</time>
      </trkpt>
      <trkpt lat="45.17645" lon="5.7263">
        <ele>276</ele>
        <time>2013-09-15T15:48:13.000Z</time>
      </trkpt>
      <trkpt lat="45.17651" lon="5.7263">
        <ele>275</ele>
        <time>2013-09-15T15:48:14.000Z</time>
      </trkpt>
      <trkpt lat="45.17658" lon="5.7263">
        <ele>275</ele>
        <time>2013-09-15T15:48:15.000Z</time>
      </trkpt>
      <trkpt lat="45.17664" lon="5.72632">
        <ele>275</ele>
        <time>2013-09-15T15:48:16.000Z</time>
      </trkpt>
      <trkpt lat="45.1767" lon="5.72632">
        <ele>274</ele>
        <time>2013-09-15T15:48:17.000Z</time>
      </trkpt>
      <trkpt lat="45.17676" lon="5.72632">
        <ele>274</ele>
        <time>2013-09-15T15:48:18.000Z</time>
      </trkpt>
      <trkpt lat="45.17681" lon="5.7263">
        <ele>274</ele>
        <time>2013-09-15T15:48:19.000Z</time>
      </trkpt>
      <trkpt lat="45.17686" lon="5.7263">
        <ele>274</ele>
        <time>2013-09-15T15:48:20.000Z</time>
      </trkpt>
      <trkpt lat="45.17692" lon="5.72628">
        <ele>274</ele>
        <time>2013-09-15T15:48:21.000Z</time>
      </trkpt>
      <trkpt lat="45.17702" lon="5.72626">
        <ele>274</ele>
        <time>2013-09-15T15:48:23.000Z</time>
      </trkpt>
      <trkpt lat="45.17706" lon="5.72624">
        <ele>273</ele>
        <time>2013-09-15T15:48:24.000Z</time>
      </trkpt>
      <trkpt lat="45.17714" lon="5.72624">
        <ele>273</ele>
        <time>2013-09-15T15:48:26.000Z</time>
      </trkpt>
      <trkpt lat="45.17719" lon="5.72622">
        <ele>273</ele>
        <time>2013-09-15T15:48:27.000Z</time>
      </trkpt>
      <trkpt lat="45.17726" lon="5.72622">
        <ele>272</ele>
        <time>2013-09-15T15:48:29.000Z</time>
      </trkpt>
      <trkpt lat="45.17734" lon="5.72624">
        <ele>272</ele>
        <time>2013-09-15T15:48:31.000Z</time>
      </trkpt>
      <trkpt lat="45.17741" lon="5.72626">
        <ele>272</ele>
        <time>2013-09-15T15:48:33.000Z</time>
      </trkpt>
      <trkpt lat="45.17745" lon="5.72624">
        <ele>272</ele>
        <time>2013-09-15T15:48:34.000Z</time>
      </trkpt>
      <trkpt lat="45.17754" lon="5.72624">
        <ele>272</ele>
        <time>2013-09-15T15:48:36.000Z</time>
      </trkpt>
      <trkpt lat="45.17759" lon="5.72624">
        <ele>272</ele>
        <time>2013-09-15T15:48:37.000Z</time>
      </trkpt>
      <trkpt lat="45.17764" lon="5.72622">
        <ele>272</ele>
        <time>2013-09-15T15:48:38.000Z</time>
      </trkpt>
      <trkpt lat="45.17769" lon="5.72622">
        <ele>271</ele>
        <time>2013-09-15T15:48:39.000Z</time>
      </trkpt>
      <trkpt lat="45.17779" lon="5.72622">
        <ele>272</ele>
        <time>2013-09-15T15:48:41.000Z</time>
      </trkpt>
      <trkpt lat="45.17787" lon="5.72622">
        <ele>272</ele>
        <time>2013-09-15T15:48:43.000Z</time>
      </trkpt>
      <trkpt lat="45.17793" lon="5.72624">
        <ele>272</ele>
        <time>2013-09-15T15:48:44.000Z</time>
      </trkpt>
      <trkpt lat="45.17801" lon="5.72624">
        <ele>272</ele>
        <time>2013-09-15T15:48:46.000Z</time>
      </trkpt>
      <trkpt lat="45.17807" lon="5.72624">
        <ele>272</ele>
        <time>2013-09-15T15:48:47.000Z</time>
      </trkpt>
      <trkpt lat="45.17816" lon="5.72624">
        <ele>272</ele>
        <time>2013-09-15T15:48:49.000Z</time>
      </trkpt>
      <trkpt lat="45.17826" lon="5.72624">
        <ele>272</ele>
        <time>2013-09-15T15:48:51.000Z</time>
      </trkpt>
      <trkpt lat="45.17836" lon="5.72624">
        <ele>272</ele>
        <time>2013-09-15T15:48:53.000Z</time>
      </trkpt>
      <trkpt lat="45.1784" lon="5.72626">
        <ele>272</ele>
        <time>2013-09-15T15:48:54.000Z</time>
      </trkpt>
      <trkpt lat="45.1785" lon="5.72626">
        <ele>272</ele>
        <time>2013-09-15T15:48:56.000Z</time>
      </trkpt>
      <trkpt lat="45.17859" lon="5.72626">
        <ele>272</ele>
        <time>2013-09-15T15:48:58.000Z</time>
      </trkpt>
      <trkpt lat="45.17869" lon="5.72626">
        <ele>273</ele>
        <time>2013-09-15T15:49:00.000Z</time>
      </trkpt>
      <trkpt lat="45.17877" lon="5.72626">
        <ele>273</ele>
        <time>2013-09-15T15:49:02.000Z</time>
      </trkpt>
      <trkpt lat="45.17885" lon="5.72628">
        <ele>273</ele>
        <time>2013-09-15T15:49:04.000Z</time>
      </trkpt>
      <trkpt lat="45.17889" lon="5.7263">
        <ele>273</ele>
        <time>2013-09-15T15:49:05.000Z</time>
      </trkpt>
      <trkpt lat="45.17894" lon="5.72632">
        <ele>274</ele>
        <time>2013-09-15T15:49:06.000Z</time>
      </trkpt>
      <trkpt lat="45.17902" lon="5.72634">
        <ele>274</ele>
        <time>2013-09-15T15:49:08.000Z</time>
      </trkpt>
      <trkpt lat="45.17908" lon="5.72634">
        <ele>275</ele>
        <time>2013-09-15T15:49:09.000Z</time>
      </trkpt>
      <trkpt lat="45.17912" lon="5.72637">
        <ele>275</ele>
        <time>2013-09-15T15:49:10.000Z</time>
      </trkpt>
      <trkpt lat="45.1792" lon="5.72637">
        <ele>275</ele>
        <time>2013-09-15T15:49:12.000Z</time>
      </trkpt>
      <trkpt lat="45.17925" lon="5.72639">
        <ele>276</ele>
        <time>2013-09-15T15:49:13.000Z</time>
      </trkpt>
      <trkpt lat="45.1793" lon="5.72639">
        <ele>276</ele>
        <time>2013-09-15T15:49:14.000Z</time>
      </trkpt>
      <trkpt lat="45.17934" lon="5.72641">
        <ele>276</ele>
        <time>2013-09-15T15:49:15.000Z</time>
      </trkpt>
      <trkpt lat="45.17939" lon="5.72643">
        <ele>277</ele>
        <time>2013-09-15T15:49:16.000Z</time>
      </trkpt>
      <trkpt lat="45.17947" lon="5.72645">
        <ele>277</ele>
        <time>2013-09-15T15:49:18.000Z</time>
      </trkpt>
      <trkpt lat="45.17956" lon="5.72647">
        <ele>277</ele>
        <time>2013-09-15T15:49:20.000Z</time>
      </trkpt>
      <trkpt lat="45.17964" lon="5.72649">
        <ele>277</ele>
        <time>2013-09-15T15:49:22.000Z</time>
      </trkpt>
      <trkpt lat="45.17972" lon="5.72652">
        <ele>277</ele>
        <time>2013-09-15T15:49:24.000Z</time>
      </trkpt>
      <trkpt lat="45.17979" lon="5.72654">
        <ele>277</ele>
        <time>2013-09-15T15:49:26.000Z</time>
      </trkpt>
      <trkpt lat="45.17984" lon="5.72656">
        <ele>277</ele>
        <time>2013-09-15T15:49:27.000Z</time>
      </trkpt>
      <trkpt lat="45.17991" lon="5.72658">
        <ele>278</ele>
        <time>2013-09-15T15:49:29.000Z</time>
      </trkpt>
      <trkpt lat="45.17995" lon="5.7266">
        <ele>278</ele>
        <time>2013-09-15T15:49:30.000Z</time>
      </trkpt>
      <trkpt lat="45.18" lon="5.72662">
        <ele>278</ele>
        <time>2013-09-15T15:49:31.000Z</time>
      </trkpt>
      <trkpt lat="45.18007" lon="5.72664">
        <ele>278</ele>
        <time>2013-09-15T15:49:33.000Z</time>
      </trkpt>
      <trkpt lat="45.18016" lon="5.72667">
        <ele>278</ele>
        <time>2013-09-15T15:49:35.000Z</time>
      </trkpt>
      <trkpt lat="45.18022" lon="5.72669">
        <ele>278</ele>
        <time>2013-09-15T15:49:37.000Z</time>
      </trkpt>
      <trkpt lat="45.18029" lon="5.72671">
        <ele>278</ele>
        <time>2013-09-15T15:49:39.000Z</time>
      </trkpt>
      <trkpt lat="45.18036" lon="5.72673">
        <ele>278</ele>
        <time>2013-09-15T15:49:41.000Z</time>
      </trkpt>
      <trkpt lat="45.18045" lon="5.72675">
        <ele>278</ele>
        <time>2013-09-15T15:49:43.000Z</time>
      </trkpt>
      <trkpt lat="45.1805" lon="5.72675">
        <ele>278</ele>
        <time>2013-09-15T15:49:44.000Z</time>
      </trkpt>
      <trkpt lat="45.18054" lon="5.72677">
        <ele>277</ele>
        <time>2013-09-15T15:49:45.000Z</time>
      </trkpt>
      <trkpt lat="45.1806" lon="5.72677">
        <ele>277</ele>
        <time>2013-09-15T15:49:46.000Z</time>
      </trkpt>
      <trkpt lat="45.18068" lon="5.72677">
        <ele>277</ele>
        <time>2013-09-15T15:49:48.000Z</time>
      </trkpt>
      <trkpt lat="45.18078" lon="5.72677">
        <ele>277</ele>
        <time>2013-09-15T15:49:50.000Z</time>
      </trkpt>
      <trkpt lat="45.18082" lon="5.7268">
        <ele>276</ele>
        <time>2013-09-15T15:49:51.000Z</time>
      </trkpt>
      <trkpt lat="45.1809" lon="5.72682">
        <ele>276</ele>
        <time>2013-09-15T15:49:53.000Z</time>
      </trkpt>
      <trkpt lat="45.18096" lon="5.72684">
        <ele>276</ele>
        <time>2013-09-15T15:49:55.000Z</time>
      </trkpt>
      <trkpt lat="45.18104" lon="5.72686">
        <ele>276</ele>
        <time>2013-09-15T15:49:57.000Z</time>
      </trkpt>
      <trkpt lat="45.18112" lon="5.72688">
        <ele>276</ele>
        <time>2013-09-15T15:49:59.000Z</time>
      </trkpt>
      <trkpt lat="45.1812" lon="5.7269">
        <ele>276</ele>
        <time>2013-09-15T15:50:01.000Z</time>
      </trkpt>
      <trkpt lat="45.18124" lon="5.72692">
        <ele>276</ele>
        <time>2013-09-15T15:50:02.000Z</time>
      </trkpt>
      <trkpt lat="45.18132" lon="5.72694">
        <ele>276</ele>
        <time>2013-09-15T15:50:04.000Z</time>
      </trkpt>
    </trkseg>
  </trk>
</gpx>